<?xml version='1.0' encoding='UTF-8'?><gpx version="1.1" creator="JPX - https://github.com/jenetics/jpx" xmlns="http://www.topografix.com/GPX/1/1"><trk><trkseg><trkpt lat="44.2824539" lon="8.4336781"><ele>7.999999999999999</ele><time>2026-04-04T08:36:32.974Z</time></trkpt><trkpt lat="44.2824046" lon="8.4336019"><ele>8.0</ele><time>2026-04-04T08:39:24.975Z</time></trkpt><trkpt lat="44.2824107" lon="8.4335122"><ele>8.0</ele><time>2026-04-04T08:39:29.975Z</time></trkpt><trkpt lat="44.2824607" lon="8.433457"><ele>8.0</ele><time>2026-04-04T08:40:24.973Z</time></trkpt><trkpt lat="44.2825592" lon="8.4333952"><ele>7.999999999999999</ele><time>2026-04-04T08:40:26.974Z</time></trkpt><trkpt lat="44.2826185" lon="8.4333421"><ele>8.0</ele><time>2026-04-04T08:40:28.974Z</time></trkpt><trkpt lat="44.282619" lon="8.433218"><ele>7.999999999999999</ele><time>2026-04-04T08:40:31.973Z</time></trkpt><trkpt lat="44.2825708" lon="8.4331565"><ele>8.0</ele><time>2026-04-04T08:40:32.974Z</time></trkpt><trkpt lat="44.2825009" lon="8.43308"><ele>8.0</ele><time>2026-04-04T08:40:33.973Z</time></trkpt><trkpt lat="44.282422" lon="8.4329938"><ele>8.0</ele><time>2026-04-04T08:40:34.973Z</time></trkpt><trkpt lat="44.2823579" lon="8.4329089"><ele>7.999999999999999</ele><time>2026-04-04T08:40:35.974Z</time></trkpt><trkpt lat="44.2823144" lon="8.4328325"><ele>8.0</ele><time>2026-04-04T08:40:36.974Z</time></trkpt><trkpt lat="44.28229" lon="8.4327075"><ele>7.800000000000001</ele><time>2026-04-04T08:40:38.974Z</time></trkpt><trkpt lat="44.2823652" lon="8.4325988"><ele>7.6000000000000005</ele><time>2026-04-04T08:40:46.974Z</time></trkpt><trkpt lat="44.2824413" lon="8.4325247"><ele>7.3999999999999995</ele><time>2026-04-04T08:40:47.973Z</time></trkpt><trkpt lat="44.2825441" lon="8.4324404"><ele>7.199999999999999</ele><time>2026-04-04T08:40:48.974Z</time></trkpt><trkpt lat="44.282648" lon="8.4323667"><ele>7.0</ele><time>2026-04-04T08:40:49.974Z</time></trkpt><trkpt lat="44.2827426" lon="8.4322979"><ele>7.0</ele><time>2026-04-04T08:40:50.974Z</time></trkpt><trkpt lat="44.2828218" lon="8.4322247"><ele>6.999999999999999</ele><time>2026-04-04T08:40:51.974Z</time></trkpt><trkpt lat="44.2829034" lon="8.4321425"><ele>6.999999999999999</ele><time>2026-04-04T08:40:52.974Z</time></trkpt><trkpt lat="44.2830125" lon="8.432074"><ele>7.0</ele><time>2026-04-04T08:40:53.974Z</time></trkpt><trkpt lat="44.283123" lon="8.4320032"><ele>7.0</ele><time>2026-04-04T08:40:54.974Z</time></trkpt><trkpt lat="44.283243" lon="8.4319096"><ele>7.0</ele><time>2026-04-04T08:40:55.974Z</time></trkpt><trkpt lat="44.2833657" lon="8.4318204"><ele>7.0</ele><time>2026-04-04T08:40:56.974Z</time></trkpt><trkpt lat="44.2834993" lon="8.4317168"><ele>7.0</ele><time>2026-04-04T08:40:57.974Z</time></trkpt><trkpt lat="44.2836288" lon="8.4315925"><ele>7.0</ele><time>2026-04-04T08:40:58.973Z</time></trkpt><trkpt lat="44.2837336" lon="8.4314725"><ele>7.0</ele><time>2026-04-04T08:40:59.974Z</time></trkpt><trkpt lat="44.2838183" lon="8.4313481"><ele>7.0</ele><time>2026-04-04T08:41:00.974Z</time></trkpt><trkpt lat="44.2838934" lon="8.4312182"><ele>7.0</ele><time>2026-04-04T08:41:01.974Z</time></trkpt><trkpt lat="44.2839616" lon="8.4311"><ele>7.0</ele><time>2026-04-04T08:41:02.973Z</time></trkpt><trkpt lat="44.284026" lon="8.4309941"><ele>7.500000000000001</ele><time>2026-04-04T08:41:03.974Z</time></trkpt><trkpt lat="44.2840785" lon="8.4308931"><ele>8.0</ele><time>2026-04-04T08:41:04.974Z</time></trkpt><trkpt lat="44.2841204" lon="8.4308077"><ele>8.5</ele><time>2026-04-04T08:41:05.973Z</time></trkpt><trkpt lat="44.2841653" lon="8.4307314"><ele>9.0</ele><time>2026-04-04T08:41:06.973Z</time></trkpt><trkpt lat="44.2842243" lon="8.430635"><ele>9.5</ele><time>2026-04-04T08:41:08.974Z</time></trkpt><trkpt lat="44.2842683" lon="8.4305642"><ele>10.0</ele><time>2026-04-04T08:41:10.973Z</time></trkpt><trkpt lat="44.2843713" lon="8.4305803"><ele>10.0</ele><time>2026-04-04T08:41:13.974Z</time></trkpt><trkpt lat="44.2844299" lon="8.4306356"><ele>10.0</ele><time>2026-04-04T08:41:14.974Z</time></trkpt><trkpt lat="44.2845028" lon="8.4307219"><ele>10.0</ele><time>2026-04-04T08:41:15.973Z</time></trkpt><trkpt lat="44.2845943" lon="8.4308436"><ele>10.0</ele><time>2026-04-04T08:41:16.974Z</time></trkpt><trkpt lat="44.2846963" lon="8.4309808"><ele>10.0</ele><time>2026-04-04T08:41:17.974Z</time></trkpt><trkpt lat="44.2848053" lon="8.4311444"><ele>9.333333333333334</ele><time>2026-04-04T08:41:18.974Z</time></trkpt><trkpt lat="44.2849163" lon="8.4312942"><ele>8.666666666666666</ele><time>2026-04-04T08:41:19.973Z</time></trkpt><trkpt lat="44.2850344" lon="8.43147"><ele>8.0</ele><time>2026-04-04T08:41:20.974Z</time></trkpt><trkpt lat="44.2851366" lon="8.4316356"><ele>7.75</ele><time>2026-04-04T08:41:21.974Z</time></trkpt><trkpt lat="44.2852345" lon="8.431783"><ele>7.5</ele><time>2026-04-04T08:41:22.974Z</time></trkpt><trkpt lat="44.2853316" lon="8.4319289"><ele>7.25</ele><time>2026-04-04T08:41:23.974Z</time></trkpt><trkpt lat="44.2854158" lon="8.4320744"><ele>7.0</ele><time>2026-04-04T08:41:24.973Z</time></trkpt><trkpt lat="44.2855016" lon="8.4322117"><ele>7.199999999999999</ele><time>2026-04-04T08:41:25.974Z</time></trkpt><trkpt lat="44.2855806" lon="8.4323413"><ele>7.3999999999999995</ele><time>2026-04-04T08:41:26.974Z</time></trkpt><trkpt lat="44.2856499" lon="8.4324583"><ele>7.6000000000000005</ele><time>2026-04-04T08:41:27.974Z</time></trkpt><trkpt lat="44.2857133" lon="8.4325762"><ele>7.800000000000001</ele><time>2026-04-04T08:41:28.974Z</time></trkpt><trkpt lat="44.2857718" lon="8.4326788"><ele>8.0</ele><time>2026-04-04T08:41:29.974Z</time></trkpt><trkpt lat="44.2858217" lon="8.4327781"><ele>7.999999999999999</ele><time>2026-04-04T08:41:30.973Z</time></trkpt><trkpt lat="44.2858678" lon="8.4328654"><ele>8.0</ele><time>2026-04-04T08:41:31.974Z</time></trkpt><trkpt lat="44.2859063" lon="8.4329395"><ele>8.0</ele><time>2026-04-04T08:41:32.974Z</time></trkpt><trkpt lat="44.2859577" lon="8.4330386"><ele>8.0</ele><time>2026-04-04T08:41:34.974Z</time></trkpt><trkpt lat="44.2859736" lon="8.4331396"><ele>7.999999999999999</ele><time>2026-04-04T08:41:36.974Z</time></trkpt><trkpt lat="44.2859037" lon="8.4332971"><ele>8.0</ele><time>2026-04-04T08:41:38.974Z</time></trkpt><trkpt lat="44.2858318" lon="8.4333804"><ele>8.0</ele><time>2026-04-04T08:41:39.974Z</time></trkpt><trkpt lat="44.2857344" lon="8.4334742"><ele>8.0</ele><time>2026-04-04T08:41:40.973Z</time></trkpt><trkpt lat="44.2856359" lon="8.4335685"><ele>8.0</ele><time>2026-04-04T08:41:41.974Z</time></trkpt><trkpt lat="44.285547" lon="8.433661"><ele>8.0</ele><time>2026-04-04T08:41:42.973Z</time></trkpt><trkpt lat="44.2854666" lon="8.4337437"><ele>8.0</ele><time>2026-04-04T08:41:43.974Z</time></trkpt><trkpt lat="44.2853857" lon="8.4338297"><ele>8.200000000000001</ele><time>2026-04-04T08:41:44.974Z</time></trkpt><trkpt lat="44.2853057" lon="8.4339208"><ele>8.4</ele><time>2026-04-04T08:41:45.974Z</time></trkpt><trkpt lat="44.2852209" lon="8.4340121"><ele>8.600000000000001</ele><time>2026-04-04T08:41:46.974Z</time></trkpt><trkpt lat="44.2851357" lon="8.4341107"><ele>8.8</ele><time>2026-04-04T08:41:47.974Z</time></trkpt><trkpt lat="44.2850521" lon="8.4342082"><ele>9.0</ele><time>2026-04-04T08:41:48.974Z</time></trkpt><trkpt lat="44.2849617" lon="8.4343033"><ele>9.0</ele><time>2026-04-04T08:41:49.974Z</time></trkpt><trkpt lat="44.2848818" lon="8.4344086"><ele>9.0</ele><time>2026-04-04T08:41:50.974Z</time></trkpt><trkpt lat="44.2848204" lon="8.434524"><ele>9.0</ele><time>2026-04-04T08:41:51.973Z</time></trkpt><trkpt lat="44.2847658" lon="8.4346362"><ele>9.0</ele><time>2026-04-04T08:41:52.974Z</time></trkpt><trkpt lat="44.284716" lon="8.434737"><ele>9.0</ele><time>2026-04-04T08:41:53.974Z</time></trkpt><trkpt lat="44.2846742" lon="8.4348324"><ele>8.333333333333334</ele><time>2026-04-04T08:41:54.973Z</time></trkpt><trkpt lat="44.2846394" lon="8.4349178"><ele>7.666666666666667</ele><time>2026-04-04T08:41:55.974Z</time></trkpt><trkpt lat="44.2846081" lon="8.4349958"><ele>7.0</ele><time>2026-04-04T08:41:56.973Z</time></trkpt><trkpt lat="44.284579" lon="8.4350808"><ele>6.333333333333334</ele><time>2026-04-04T08:41:57.973Z</time></trkpt><trkpt lat="44.2845458" lon="8.4352276"><ele>5.666666666666667</ele><time>2026-04-04T08:41:59.973Z</time></trkpt><trkpt lat="44.2845779" lon="8.4353482"><ele>5.0</ele><time>2026-04-04T08:42:01.974Z</time></trkpt><trkpt lat="44.2846932" lon="8.4354196"><ele>5.0</ele><time>2026-04-04T08:42:03.974Z</time></trkpt><trkpt lat="44.2847583" lon="8.4354455"><ele>5.0</ele><time>2026-04-04T08:42:04.974Z</time></trkpt><trkpt lat="44.2848175" lon="8.435476"><ele>5.0</ele><time>2026-04-04T08:42:05.974Z</time></trkpt><trkpt lat="44.2848731" lon="8.4355203"><ele>5.0</ele><time>2026-04-04T08:42:06.974Z</time></trkpt><trkpt lat="44.284928" lon="8.4355642"><ele>5.0</ele><time>2026-04-04T08:42:07.974Z</time></trkpt><trkpt lat="44.2849858" lon="8.4356078"><ele>5.0</ele><time>2026-04-04T08:42:08.974Z</time></trkpt><trkpt lat="44.2850457" lon="8.4356506"><ele>5.0</ele><time>2026-04-04T08:42:09.974Z</time></trkpt><trkpt lat="44.2851049" lon="8.4357038"><ele>5.8</ele><time>2026-04-04T08:42:10.974Z</time></trkpt><trkpt lat="44.285177" lon="8.4357645"><ele>6.6</ele><time>2026-04-04T08:42:11.973Z</time></trkpt><trkpt lat="44.2852613" lon="8.4358291"><ele>7.4</ele><time>2026-04-04T08:42:12.974Z</time></trkpt><trkpt lat="44.285347" lon="8.4359015"><ele>8.2</ele><time>2026-04-04T08:42:13.974Z</time></trkpt><trkpt lat="44.2854353" lon="8.4359806"><ele>9.0</ele><time>2026-04-04T08:42:14.974Z</time></trkpt><trkpt lat="44.2855377" lon="8.4360664"><ele>9.5</ele><time>2026-04-04T08:42:15.973Z</time></trkpt><trkpt lat="44.2856466" lon="8.4361576"><ele>10.0</ele><time>2026-04-04T08:42:16.974Z</time></trkpt><trkpt lat="44.2857516" lon="8.4362664"><ele>10.5</ele><time>2026-04-04T08:42:17.974Z</time></trkpt><trkpt lat="44.2858489" lon="8.4363886"><ele>11.0</ele><time>2026-04-04T08:42:18.974Z</time></trkpt><trkpt lat="44.2859325" lon="8.4364929"><ele>11.0</ele><time>2026-04-04T08:42:19.973Z</time></trkpt><trkpt lat="44.2860039" lon="8.4365853"><ele>11.0</ele><time>2026-04-04T08:42:20.973Z</time></trkpt><trkpt lat="44.2860816" lon="8.4366751"><ele>11.0</ele><time>2026-04-04T08:42:21.974Z</time></trkpt><trkpt lat="44.2861644" lon="8.4367792"><ele>11.0</ele><time>2026-04-04T08:42:22.974Z</time></trkpt><trkpt lat="44.286257" lon="8.4369055"><ele>11.0</ele><time>2026-04-04T08:42:23.974Z</time></trkpt><trkpt lat="44.2863496" lon="8.4370408"><ele>12.25</ele><time>2026-04-04T08:42:24.974Z</time></trkpt><trkpt lat="44.2864434" lon="8.4371894"><ele>13.5</ele><time>2026-04-04T08:42:25.974Z</time></trkpt><trkpt lat="44.2865351" lon="8.4373274"><ele>14.75</ele><time>2026-04-04T08:42:26.974Z</time></trkpt><trkpt lat="44.2866224" lon="8.4374578"><ele>16.0</ele><time>2026-04-04T08:42:27.974Z</time></trkpt><trkpt lat="44.2867036" lon="8.437588"><ele>16.0</ele><time>2026-04-04T08:42:28.973Z</time></trkpt><trkpt lat="44.2867783" lon="8.4377343"><ele>16.0</ele><time>2026-04-04T08:42:29.974Z</time></trkpt><trkpt lat="44.2868515" lon="8.4378765"><ele>16.0</ele><time>2026-04-04T08:42:30.974Z</time></trkpt><trkpt lat="44.2869206" lon="8.4380172"><ele>16.0</ele><time>2026-04-04T08:42:31.974Z</time></trkpt><trkpt lat="44.2869867" lon="8.4381534"><ele>15.8</ele><time>2026-04-04T08:42:32.974Z</time></trkpt><trkpt lat="44.2870452" lon="8.4382887"><ele>15.600000000000001</ele><time>2026-04-04T08:42:33.974Z</time></trkpt><trkpt lat="44.2870993" lon="8.4384269"><ele>15.4</ele><time>2026-04-04T08:42:34.974Z</time></trkpt><trkpt lat="44.2871493" lon="8.4385545"><ele>15.2</ele><time>2026-04-04T08:42:35.974Z</time></trkpt><trkpt lat="44.2872051" lon="8.4386894"><ele>15.0</ele><time>2026-04-04T08:42:36.974Z</time></trkpt><trkpt lat="44.2872631" lon="8.4388209"><ele>17.0</ele><time>2026-04-04T08:42:37.974Z</time></trkpt><trkpt lat="44.2873218" lon="8.4389469"><ele>19.0</ele><time>2026-04-04T08:42:38.974Z</time></trkpt><trkpt lat="44.2873861" lon="8.4390921"><ele>21.0</ele><time>2026-04-04T08:42:39.974Z</time></trkpt><trkpt lat="44.2874525" lon="8.4392394"><ele>23.0</ele><time>2026-04-04T08:42:40.973Z</time></trkpt><trkpt lat="44.2875167" lon="8.4393868"><ele>23.0</ele><time>2026-04-04T08:42:41.974Z</time></trkpt><trkpt lat="44.2875819" lon="8.4395506"><ele>23.0</ele><time>2026-04-04T08:42:42.974Z</time></trkpt><trkpt lat="44.287647" lon="8.4397127"><ele>23.0</ele><time>2026-04-04T08:42:43.974Z</time></trkpt><trkpt lat="44.2877106" lon="8.4398816"><ele>23.0</ele><time>2026-04-04T08:42:44.974Z</time></trkpt><trkpt lat="44.2877557" lon="8.4400351"><ele>23.0</ele><time>2026-04-04T08:42:45.974Z</time></trkpt><trkpt lat="44.2877991" lon="8.4401943"><ele>23.0</ele><time>2026-04-04T08:42:46.974Z</time></trkpt><trkpt lat="44.2878475" lon="8.4403574"><ele>23.0</ele><time>2026-04-04T08:42:47.974Z</time></trkpt><trkpt lat="44.2878943" lon="8.4405221"><ele>23.0</ele><time>2026-04-04T08:42:48.974Z</time></trkpt><trkpt lat="44.2879389" lon="8.4406799"><ele>23.0</ele><time>2026-04-04T08:42:49.973Z</time></trkpt><trkpt lat="44.2879841" lon="8.4408364"><ele>23.0</ele><time>2026-04-04T08:42:50.974Z</time></trkpt><trkpt lat="44.288045" lon="8.4409873"><ele>23.0</ele><time>2026-04-04T08:42:51.974Z</time></trkpt><trkpt lat="44.2880785" lon="8.4411357"><ele>23.0</ele><time>2026-04-04T08:42:52.974Z</time></trkpt><trkpt lat="44.2881172" lon="8.4412783"><ele>23.25</ele><time>2026-04-04T08:42:53.974Z</time></trkpt><trkpt lat="44.2881682" lon="8.4414357"><ele>23.5</ele><time>2026-04-04T08:42:54.974Z</time></trkpt><trkpt lat="44.2882213" lon="8.4415982"><ele>23.75</ele><time>2026-04-04T08:42:55.974Z</time></trkpt><trkpt lat="44.2882819" lon="8.4417528"><ele>24.0</ele><time>2026-04-04T08:42:56.973Z</time></trkpt><trkpt lat="44.2883394" lon="8.4418946"><ele>24.0</ele><time>2026-04-04T08:42:57.974Z</time></trkpt><trkpt lat="44.288389" lon="8.442033"><ele>24.0</ele><time>2026-04-04T08:42:58.974Z</time></trkpt><trkpt lat="44.2884338" lon="8.4421807"><ele>24.0</ele><time>2026-04-04T08:42:59.973Z</time></trkpt><trkpt lat="44.2884793" lon="8.4423182"><ele>24.0</ele><time>2026-04-04T08:43:00.974Z</time></trkpt><trkpt lat="44.288505" lon="8.4424479"><ele>24.0</ele><time>2026-04-04T08:43:01.974Z</time></trkpt><trkpt lat="44.2885129" lon="8.4425813"><ele>24.0</ele><time>2026-04-04T08:43:02.973Z</time></trkpt><trkpt lat="44.2884978" lon="8.4427201"><ele>24.0</ele><time>2026-04-04T08:43:03.974Z</time></trkpt><trkpt lat="44.2884667" lon="8.4428747"><ele>24.0</ele><time>2026-04-04T08:43:04.974Z</time></trkpt><trkpt lat="44.2884257" lon="8.4430345"><ele>24.0</ele><time>2026-04-04T08:43:05.973Z</time></trkpt><trkpt lat="44.2883727" lon="8.44321"><ele>25.0</ele><time>2026-04-04T08:43:06.973Z</time></trkpt><trkpt lat="44.2883226" lon="8.4433848"><ele>26.0</ele><time>2026-04-04T08:43:07.974Z</time></trkpt><trkpt lat="44.2882751" lon="8.4435581"><ele>27.0</ele><time>2026-04-04T08:43:08.973Z</time></trkpt><trkpt lat="44.2882248" lon="8.4437208"><ele>28.0</ele><time>2026-04-04T08:43:09.974Z</time></trkpt><trkpt lat="44.2881693" lon="8.4438753"><ele>27.5</ele><time>2026-04-04T08:43:10.974Z</time></trkpt><trkpt lat="44.2881082" lon="8.4440266"><ele>27.0</ele><time>2026-04-04T08:43:11.974Z</time></trkpt><trkpt lat="44.2880426" lon="8.4441714"><ele>26.5</ele><time>2026-04-04T08:43:12.974Z</time></trkpt><trkpt lat="44.2879779" lon="8.4443139"><ele>26.0</ele><time>2026-04-04T08:43:13.974Z</time></trkpt><trkpt lat="44.2879098" lon="8.4444426"><ele>25.999999999999996</ele><time>2026-04-04T08:43:14.974Z</time></trkpt><trkpt lat="44.2878486" lon="8.4445596"><ele>26.0</ele><time>2026-04-04T08:43:15.974Z</time></trkpt><trkpt lat="44.2877972" lon="8.4446538"><ele>26.0</ele><time>2026-04-04T08:43:16.974Z</time></trkpt><trkpt lat="44.2877479" lon="8.4447488"><ele>26.0</ele><time>2026-04-04T08:43:17.974Z</time></trkpt><trkpt lat="44.2877001" lon="8.4448312"><ele>25.999999999999996</ele><time>2026-04-04T08:43:18.973Z</time></trkpt><trkpt lat="44.287657" lon="8.4449055"><ele>26.0</ele><time>2026-04-04T08:43:19.974Z</time></trkpt><trkpt lat="44.2876194" lon="8.4450596"><ele>25.6</ele><time>2026-04-04T08:43:21.974Z</time></trkpt><trkpt lat="44.2876457" lon="8.4452365"><ele>25.200000000000003</ele><time>2026-04-04T08:43:23.974Z</time></trkpt><trkpt lat="44.2876537" lon="8.4453459"><ele>24.799999999999997</ele><time>2026-04-04T08:43:24.973Z</time></trkpt><trkpt lat="44.2876496" lon="8.4454659"><ele>24.4</ele><time>2026-04-04T08:43:25.974Z</time></trkpt><trkpt lat="44.2876587" lon="8.4455998"><ele>24.0</ele><time>2026-04-04T08:43:26.974Z</time></trkpt><trkpt lat="44.2876577" lon="8.4457263"><ele>23.666666666666668</ele><time>2026-04-04T08:43:27.974Z</time></trkpt><trkpt lat="44.2876616" lon="8.4458324"><ele>23.333333333333332</ele><time>2026-04-04T08:43:28.973Z</time></trkpt><trkpt lat="44.2876637" lon="8.4459293"><ele>23.0</ele><time>2026-04-04T08:43:29.974Z</time></trkpt><trkpt lat="44.287665" lon="8.4460204"><ele>22.666666666666664</ele><time>2026-04-04T08:43:30.974Z</time></trkpt><trkpt lat="44.2876874" lon="8.4461039"><ele>22.333333333333332</ele><time>2026-04-04T08:43:31.974Z</time></trkpt><trkpt lat="44.2877857" lon="8.4461757"><ele>22.0</ele><time>2026-04-04T08:43:33.973Z</time></trkpt><trkpt lat="44.2878552" lon="8.4461571"><ele>22.0</ele><time>2026-04-04T08:43:34.974Z</time></trkpt><trkpt lat="44.2879247" lon="8.4461083"><ele>22.0</ele><time>2026-04-04T08:43:35.974Z</time></trkpt><trkpt lat="44.288007" lon="8.4460287"><ele>22.0</ele><time>2026-04-04T08:43:36.974Z</time></trkpt><trkpt lat="44.2880891" lon="8.4459569"><ele>22.0</ele><time>2026-04-04T08:43:37.974Z</time></trkpt><trkpt lat="44.2881747" lon="8.4459053"><ele>22.0</ele><time>2026-04-04T08:43:38.974Z</time></trkpt><trkpt lat="44.2882588" lon="8.4458737"><ele>24.200000000000003</ele><time>2026-04-04T08:43:39.973Z</time></trkpt><trkpt lat="44.2883514" lon="8.4458678"><ele>26.4</ele><time>2026-04-04T08:43:40.974Z</time></trkpt><trkpt lat="44.2884531" lon="8.4458658"><ele>28.599999999999998</ele><time>2026-04-04T08:43:41.974Z</time></trkpt><trkpt lat="44.2885613" lon="8.4458417"><ele>30.799999999999997</ele><time>2026-04-04T08:43:42.974Z</time></trkpt><trkpt lat="44.288658" lon="8.4457999"><ele>33.0</ele><time>2026-04-04T08:43:43.974Z</time></trkpt><trkpt lat="44.2887452" lon="8.4457388"><ele>33.0</ele><time>2026-04-04T08:43:44.973Z</time></trkpt><trkpt lat="44.2888141" lon="8.4456515"><ele>33.0</ele><time>2026-04-04T08:43:45.974Z</time></trkpt><trkpt lat="44.2888712" lon="8.44557"><ele>33.0</ele><time>2026-04-04T08:43:46.974Z</time></trkpt><trkpt lat="44.2889247" lon="8.4454985"><ele>33.0</ele><time>2026-04-04T08:43:47.974Z</time></trkpt><trkpt lat="44.2889837" lon="8.4454225"><ele>33.0</ele><time>2026-04-04T08:43:48.974Z</time></trkpt><trkpt lat="44.2890538" lon="8.4453481"><ele>33.0</ele><time>2026-04-04T08:43:49.974Z</time></trkpt><trkpt lat="44.2891303" lon="8.4452648"><ele>34.8</ele><time>2026-04-04T08:43:50.974Z</time></trkpt><trkpt lat="44.2892" lon="8.4451664"><ele>36.599999999999994</ele><time>2026-04-04T08:43:51.974Z</time></trkpt><trkpt lat="44.2892698" lon="8.4450621"><ele>38.400000000000006</ele><time>2026-04-04T08:43:52.973Z</time></trkpt><trkpt lat="44.2893386" lon="8.4449484"><ele>40.2</ele><time>2026-04-04T08:43:53.974Z</time></trkpt><trkpt lat="44.2893996" lon="8.4448622"><ele>42.0</ele><time>2026-04-04T08:43:54.973Z</time></trkpt><trkpt lat="44.2894576" lon="8.4447931"><ele>42.0</ele><time>2026-04-04T08:43:55.972Z</time></trkpt><trkpt lat="44.2895282" lon="8.4447416"><ele>42.0</ele><time>2026-04-04T08:43:56.973Z</time></trkpt><trkpt lat="44.289599" lon="8.4447201"><ele>42.0</ele><time>2026-04-04T08:43:57.972Z</time></trkpt><trkpt lat="44.2896798" lon="8.4447436"><ele>42.0</ele><time>2026-04-04T08:43:58.973Z</time></trkpt><trkpt lat="44.289765" lon="8.4447946"><ele>42.0</ele><time>2026-04-04T08:43:59.972Z</time></trkpt><trkpt lat="44.2898565" lon="8.444903"><ele>42.0</ele><time>2026-04-04T08:44:00.972Z</time></trkpt><trkpt lat="44.2899684" lon="8.445021"><ele>42.0</ele><time>2026-04-04T08:44:01.973Z</time></trkpt><trkpt lat="44.290111" lon="8.4451771"><ele>42.0</ele><time>2026-04-04T08:44:02.973Z</time></trkpt><trkpt lat="44.2902515" lon="8.4453416"><ele>42.0</ele><time>2026-04-04T08:44:03.972Z</time></trkpt><trkpt lat="44.2903831" lon="8.445503"><ele>41.75</ele><time>2026-04-04T08:44:04.973Z</time></trkpt><trkpt lat="44.290502" lon="8.4456375"><ele>41.5</ele><time>2026-04-04T08:44:05.973Z</time></trkpt><trkpt lat="44.2906097" lon="8.4457719"><ele>41.25</ele><time>2026-04-04T08:44:06.973Z</time></trkpt><trkpt lat="44.2907143" lon="8.4458819"><ele>41.0</ele><time>2026-04-04T08:44:07.973Z</time></trkpt><trkpt lat="44.2908168" lon="8.4459887"><ele>40.599999999999994</ele><time>2026-04-04T08:44:08.973Z</time></trkpt><trkpt lat="44.2909124" lon="8.4460835"><ele>40.199999999999996</ele><time>2026-04-04T08:44:09.972Z</time></trkpt><trkpt lat="44.2909987" lon="8.4461541"><ele>39.8</ele><time>2026-04-04T08:44:10.973Z</time></trkpt><trkpt lat="44.2910748" lon="8.4462161"><ele>39.4</ele><time>2026-04-04T08:44:11.973Z</time></trkpt><trkpt lat="44.2911374" lon="8.446281"><ele>39.0</ele><time>2026-04-04T08:44:12.973Z</time></trkpt><trkpt lat="44.2911955" lon="8.4464263"><ele>38.6</ele><time>2026-04-04T08:44:14.973Z</time></trkpt><trkpt lat="44.2911909" lon="8.4465201"><ele>38.2</ele><time>2026-04-04T08:44:15.973Z</time></trkpt><trkpt lat="44.2911451" lon="8.446631"><ele>37.800000000000004</ele><time>2026-04-04T08:44:16.973Z</time></trkpt><trkpt lat="44.2910849" lon="8.446761"><ele>37.4</ele><time>2026-04-04T08:44:17.973Z</time></trkpt><trkpt lat="44.2910398" lon="8.4469365"><ele>37.0</ele><time>2026-04-04T08:44:18.973Z</time></trkpt><trkpt lat="44.2910307" lon="8.4471242"><ele>36.25</ele><time>2026-04-04T08:44:19.973Z</time></trkpt><trkpt lat="44.2910542" lon="8.4473181"><ele>35.5</ele><time>2026-04-04T08:44:20.973Z</time></trkpt><trkpt lat="44.2910848" lon="8.4475094"><ele>34.75</ele><time>2026-04-04T08:44:21.973Z</time></trkpt><trkpt lat="44.2911141" lon="8.4476752"><ele>34.0</ele><time>2026-04-04T08:44:22.973Z</time></trkpt><trkpt lat="44.2911322" lon="8.4478191"><ele>34.0</ele><time>2026-04-04T08:44:23.973Z</time></trkpt><trkpt lat="44.2911455" lon="8.4479429"><ele>34.0</ele><time>2026-04-04T08:44:24.973Z</time></trkpt><trkpt lat="44.2911404" lon="8.4480552"><ele>34.0</ele><time>2026-04-04T08:44:25.972Z</time></trkpt><trkpt lat="44.2911245" lon="8.4481659"><ele>34.0</ele><time>2026-04-04T08:44:26.973Z</time></trkpt><trkpt lat="44.2910943" lon="8.4482594"><ele>34.0</ele><time>2026-04-04T08:44:27.972Z</time></trkpt><trkpt lat="44.29106" lon="8.4483397"><ele>34.0</ele><time>2026-04-04T08:44:28.972Z</time></trkpt><trkpt lat="44.2910102" lon="8.4484902"><ele>34.0</ele><time>2026-04-04T08:44:30.973Z</time></trkpt><trkpt lat="44.2909833" lon="8.4485698"><ele>34.0</ele><time>2026-04-04T08:44:31.973Z</time></trkpt><trkpt lat="44.2909452" lon="8.448721"><ele>34.0</ele><time>2026-04-04T08:44:33.973Z</time></trkpt><trkpt lat="44.290922" lon="8.448808"><ele>34.0</ele><time>2026-04-04T08:44:34.973Z</time></trkpt><trkpt lat="44.2908974" lon="8.4488965"><ele>34.0</ele><time>2026-04-04T08:44:35.973Z</time></trkpt><trkpt lat="44.2908775" lon="8.4489873"><ele>34.0</ele><time>2026-04-04T08:44:36.973Z</time></trkpt><trkpt lat="44.2908317" lon="8.4491532"><ele>33.99999999999999</ele><time>2026-04-04T08:44:38.972Z</time></trkpt><trkpt lat="44.2908163" lon="8.4492501"><ele>34.0</ele><time>2026-04-04T08:44:39.973Z</time></trkpt><trkpt lat="44.2908007" lon="8.4493489"><ele>34.0</ele><time>2026-04-04T08:44:40.972Z</time></trkpt><trkpt lat="44.2907872" lon="8.4494634"><ele>34.0</ele><time>2026-04-04T08:44:41.973Z</time></trkpt><trkpt lat="44.2907892" lon="8.4495681"><ele>34.0</ele><time>2026-04-04T08:44:42.972Z</time></trkpt><trkpt lat="44.2908088" lon="8.4496643"><ele>33.99999999999999</ele><time>2026-04-04T08:44:43.972Z</time></trkpt><trkpt lat="44.2908526" lon="8.4497481"><ele>34.0</ele><time>2026-04-04T08:44:44.972Z</time></trkpt><trkpt lat="44.290923" lon="8.4498234"><ele>31.799999999999997</ele><time>2026-04-04T08:44:45.973Z</time></trkpt><trkpt lat="44.2910119" lon="8.449895"><ele>29.599999999999998</ele><time>2026-04-04T08:44:46.972Z</time></trkpt><trkpt lat="44.2911152" lon="8.4499345"><ele>27.4</ele><time>2026-04-04T08:44:47.973Z</time></trkpt><trkpt lat="44.2912184" lon="8.4499506"><ele>25.2</ele><time>2026-04-04T08:44:48.972Z</time></trkpt><trkpt lat="44.2912991" lon="8.4499781"><ele>23.0</ele><time>2026-04-04T08:44:49.973Z</time></trkpt><trkpt lat="44.2913679" lon="8.450006"><ele>23.0</ele><time>2026-04-04T08:44:50.973Z</time></trkpt><trkpt lat="44.2914236" lon="8.4500518"><ele>23.0</ele><time>2026-04-04T08:44:51.973Z</time></trkpt><trkpt lat="44.2914731" lon="8.4502162"><ele>23.0</ele><time>2026-04-04T08:44:53.973Z</time></trkpt><trkpt lat="44.2914619" lon="8.4503227"><ele>23.0</ele><time>2026-04-04T08:44:54.973Z</time></trkpt><trkpt lat="44.2914304" lon="8.4504035"><ele>23.0</ele><time>2026-04-04T08:44:55.973Z</time></trkpt><trkpt lat="44.2913763" lon="8.4504514"><ele>23.0</ele><time>2026-04-04T08:44:56.973Z</time></trkpt><trkpt lat="44.2912877" lon="8.4504576"><ele>23.0</ele><time>2026-04-04T08:44:57.973Z</time></trkpt><trkpt lat="44.291163" lon="8.4504353"><ele>23.0</ele><time>2026-04-04T08:44:58.972Z</time></trkpt><trkpt lat="44.2910084" lon="8.4503811"><ele>23.0</ele><time>2026-04-04T08:44:59.972Z</time></trkpt><trkpt lat="44.290844" lon="8.4503013"><ele>23.0</ele><time>2026-04-04T08:45:00.973Z</time></trkpt><trkpt lat="44.2906759" lon="8.4501953"><ele>23.0</ele><time>2026-04-04T08:45:01.973Z</time></trkpt><trkpt lat="44.2905282" lon="8.4500932"><ele>23.0</ele><time>2026-04-04T08:45:02.973Z</time></trkpt><trkpt lat="44.2903945" lon="8.4500064"><ele>20.25</ele><time>2026-04-04T08:45:03.973Z</time></trkpt><trkpt lat="44.2902787" lon="8.4499246"><ele>17.5</ele><time>2026-04-04T08:45:04.973Z</time></trkpt><trkpt lat="44.2901736" lon="8.4498383"><ele>14.75</ele><time>2026-04-04T08:45:05.973Z</time></trkpt><trkpt lat="44.2900735" lon="8.449762"><ele>12.0</ele><time>2026-04-04T08:45:06.973Z</time></trkpt><trkpt lat="44.2899944" lon="8.449685"><ele>12.166666666666666</ele><time>2026-04-04T08:45:07.973Z</time></trkpt><trkpt lat="44.289925" lon="8.4496116"><ele>12.333333333333332</ele><time>2026-04-04T08:45:08.973Z</time></trkpt><trkpt lat="44.2898611" lon="8.4495474"><ele>12.5</ele><time>2026-04-04T08:45:09.972Z</time></trkpt><trkpt lat="44.2898066" lon="8.4494891"><ele>12.666666666666666</ele><time>2026-04-04T08:45:10.972Z</time></trkpt><trkpt lat="44.2897373" lon="8.4493861"><ele>12.833333333333332</ele><time>2026-04-04T08:45:12.973Z</time></trkpt><trkpt lat="44.2897118" lon="8.4492434"><ele>13.0</ele><time>2026-04-04T08:45:14.973Z</time></trkpt><trkpt lat="44.2896917" lon="8.4491564"><ele>12.999999999999998</ele><time>2026-04-04T08:45:16.973Z</time></trkpt><trkpt lat="44.2896367" lon="8.4490867"><ele>13.0</ele><time>2026-04-04T08:50:56.972Z</time></trkpt><trkpt lat="44.28954" lon="8.449065"><ele>13.0</ele><time>2026-04-04T08:51:29.972Z</time></trkpt><trkpt lat="44.2894533" lon="8.4491"><ele>13.0</ele><time>2026-04-04T08:51:31.972Z</time></trkpt><trkpt lat="44.289385" lon="8.4491017"><ele>12.999999999999998</ele><time>2026-04-04T08:51:34.971Z</time></trkpt><trkpt lat="44.2892867" lon="8.4490117"><ele>13.0</ele><time>2026-04-04T08:51:37.971Z</time></trkpt><trkpt lat="44.2892217" lon="8.4489283"><ele>13.0</ele><time>2026-04-04T08:51:38.971Z</time></trkpt><trkpt lat="44.289135" lon="8.4488317"><ele>13.0</ele><time>2026-04-04T08:51:39.97Z</time></trkpt><trkpt lat="44.2890433" lon="8.448725"><ele>13.0</ele><time>2026-04-04T08:51:40.971Z</time></trkpt><trkpt lat="44.288945" lon="8.4485983"><ele>13.0</ele><time>2026-04-04T08:51:41.971Z</time></trkpt><trkpt lat="44.2888383" lon="8.448465"><ele>13.666666666666666</ele><time>2026-04-04T08:51:42.971Z</time></trkpt><trkpt lat="44.2887333" lon="8.448315"><ele>14.333333333333332</ele><time>2026-04-04T08:51:43.971Z</time></trkpt><trkpt lat="44.2886167" lon="8.4481717"><ele>15.0</ele><time>2026-04-04T08:51:44.971Z</time></trkpt><trkpt lat="44.2885083" lon="8.4480217"><ele>17.0</ele><time>2026-04-04T08:51:45.971Z</time></trkpt><trkpt lat="44.2884033" lon="8.4478683"><ele>19.0</ele><time>2026-04-04T08:51:46.971Z</time></trkpt><trkpt lat="44.28831" lon="8.4477117"><ele>21.0</ele><time>2026-04-04T08:51:47.97Z</time></trkpt><trkpt lat="44.288215" lon="8.44756"><ele>23.0</ele><time>2026-04-04T08:51:48.971Z</time></trkpt><trkpt lat="44.2881283" lon="8.44742"><ele>21.75</ele><time>2026-04-04T08:51:49.97Z</time></trkpt><trkpt lat="44.2880433" lon="8.4472817"><ele>20.5</ele><time>2026-04-04T08:51:50.97Z</time></trkpt><trkpt lat="44.2879683" lon="8.4471517"><ele>19.25</ele><time>2026-04-04T08:51:51.971Z</time></trkpt><trkpt lat="44.2879" lon="8.4470317"><ele>18.0</ele><time>2026-04-04T08:51:52.971Z</time></trkpt><trkpt lat="44.287835" lon="8.446915"><ele>18.0</ele><time>2026-04-04T08:51:53.971Z</time></trkpt><trkpt lat="44.2877783" lon="8.4468017"><ele>18.0</ele><time>2026-04-04T08:51:54.971Z</time></trkpt><trkpt lat="44.287735" lon="8.4466917"><ele>18.0</ele><time>2026-04-04T08:51:55.971Z</time></trkpt><trkpt lat="44.2876933" lon="8.4465883"><ele>18.0</ele><time>2026-04-04T08:51:56.97Z</time></trkpt><trkpt lat="44.28766" lon="8.4465"><ele>18.0</ele><time>2026-04-04T08:51:57.97Z</time></trkpt><trkpt lat="44.28763" lon="8.44642"><ele>18.0</ele><time>2026-04-04T08:51:58.971Z</time></trkpt><trkpt lat="44.2875833" lon="8.4463067"><ele>18.666666666666668</ele><time>2026-04-04T08:52:00.97Z</time></trkpt><trkpt lat="44.2875417" lon="8.44621"><ele>19.333333333333332</ele><time>2026-04-04T08:52:02.971Z</time></trkpt><trkpt lat="44.2875133" lon="8.4461217"><ele>20.0</ele><time>2026-04-04T08:52:04.97Z</time></trkpt><trkpt lat="44.2874883" lon="8.446025"><ele>20.666666666666664</ele><time>2026-04-04T08:52:06.971Z</time></trkpt><trkpt lat="44.2874533" lon="8.4459017"><ele>21.333333333333332</ele><time>2026-04-04T08:52:09.97Z</time></trkpt><trkpt lat="44.2874217" lon="8.4457767"><ele>22.0</ele><time>2026-04-04T08:52:11.971Z</time></trkpt><trkpt lat="44.287375" lon="8.4456267"><ele>22.0</ele><time>2026-04-04T08:52:13.971Z</time></trkpt><trkpt lat="44.287295" lon="8.4455067"><ele>22.0</ele><time>2026-04-04T08:52:15.971Z</time></trkpt><trkpt lat="44.2872083" lon="8.44545"><ele>22.0</ele><time>2026-04-04T08:52:17.971Z</time></trkpt><trkpt lat="44.2871533" lon="8.4455283"><ele>22.0</ele><time>2026-04-04T08:52:19.97Z</time></trkpt><trkpt lat="44.2871317" lon="8.44568"><ele>22.0</ele><time>2026-04-04T08:52:21.971Z</time></trkpt><trkpt lat="44.28717" lon="8.4457883"><ele>22.0</ele><time>2026-04-04T08:52:22.971Z</time></trkpt><trkpt lat="44.287225" lon="8.445905"><ele>22.0</ele><time>2026-04-04T08:52:23.971Z</time></trkpt><trkpt lat="44.28731" lon="8.4460467"><ele>22.0</ele><time>2026-04-04T08:52:24.971Z</time></trkpt><trkpt lat="44.2873983" lon="8.44619"><ele>22.0</ele><time>2026-04-04T08:52:25.97Z</time></trkpt><trkpt lat="44.2874733" lon="8.446325"><ele>21.0</ele><time>2026-04-04T08:52:26.971Z</time></trkpt><trkpt lat="44.2875433" lon="8.4464817"><ele>20.0</ele><time>2026-04-04T08:52:27.971Z</time></trkpt><trkpt lat="44.2876183" lon="8.4466383"><ele>19.0</ele><time>2026-04-04T08:52:28.971Z</time></trkpt><trkpt lat="44.2877" lon="8.4467967"><ele>18.0</ele><time>2026-04-04T08:52:29.971Z</time></trkpt><trkpt lat="44.287775" lon="8.4469417"><ele>18.0</ele><time>2026-04-04T08:52:30.971Z</time></trkpt><trkpt lat="44.2878533" lon="8.4470617"><ele>18.0</ele><time>2026-04-04T08:52:31.971Z</time></trkpt><trkpt lat="44.28793" lon="8.4471833"><ele>18.0</ele><time>2026-04-04T08:52:32.971Z</time></trkpt><trkpt lat="44.288015" lon="8.4473067"><ele>18.0</ele><time>2026-04-04T08:52:33.971Z</time></trkpt><trkpt lat="44.2880983" lon="8.4474283"><ele>19.25</ele><time>2026-04-04T08:52:34.971Z</time></trkpt><trkpt lat="44.2881817" lon="8.4475517"><ele>20.5</ele><time>2026-04-04T08:52:35.971Z</time></trkpt><trkpt lat="44.288255" lon="8.44768"><ele>21.75</ele><time>2026-04-04T08:52:36.971Z</time></trkpt><trkpt lat="44.288335" lon="8.4477917"><ele>23.0</ele><time>2026-04-04T08:52:37.97Z</time></trkpt><trkpt lat="44.2884117" lon="8.4479183"><ele>21.0</ele><time>2026-04-04T08:52:38.97Z</time></trkpt><trkpt lat="44.2884833" lon="8.4480383"><ele>19.0</ele><time>2026-04-04T08:52:39.971Z</time></trkpt><trkpt lat="44.288555" lon="8.4481617"><ele>17.0</ele><time>2026-04-04T08:52:40.971Z</time></trkpt><trkpt lat="44.288635" lon="8.4482867"><ele>15.0</ele><time>2026-04-04T08:52:41.97Z</time></trkpt><trkpt lat="44.28872" lon="8.4484117"><ele>15.0</ele><time>2026-04-04T08:52:42.971Z</time></trkpt><trkpt lat="44.2888133" lon="8.448545"><ele>15.0</ele><time>2026-04-04T08:52:43.971Z</time></trkpt><trkpt lat="44.2889083" lon="8.4486717"><ele>15.0</ele><time>2026-04-04T08:52:44.971Z</time></trkpt><trkpt lat="44.2890033" lon="8.44879"><ele>15.0</ele><time>2026-04-04T08:52:45.97Z</time></trkpt><trkpt lat="44.2890967" lon="8.4489033"><ele>14.5</ele><time>2026-04-04T08:52:46.971Z</time></trkpt><trkpt lat="44.2891883" lon="8.4490233"><ele>14.0</ele><time>2026-04-04T08:52:47.97Z</time></trkpt><trkpt lat="44.2892867" lon="8.4491283"><ele>13.5</ele><time>2026-04-04T08:52:48.971Z</time></trkpt><trkpt lat="44.28938" lon="8.4492167"><ele>13.0</ele><time>2026-04-04T08:52:49.971Z</time></trkpt><trkpt lat="44.2894733" lon="8.4493167"><ele>13.0</ele><time>2026-04-04T08:52:50.971Z</time></trkpt><trkpt lat="44.2895733" lon="8.4494267"><ele>13.0</ele><time>2026-04-04T08:52:51.971Z</time></trkpt><trkpt lat="44.28967" lon="8.4495417"><ele>13.0</ele><time>2026-04-04T08:52:52.971Z</time></trkpt><trkpt lat="44.2897633" lon="8.4496417"><ele>13.0</ele><time>2026-04-04T08:52:53.97Z</time></trkpt><trkpt lat="44.2898683" lon="8.4497367"><ele>12.75</ele><time>2026-04-04T08:52:54.97Z</time></trkpt><trkpt lat="44.28998" lon="8.4498183"><ele>12.5</ele><time>2026-04-04T08:52:55.971Z</time></trkpt><trkpt lat="44.2900883" lon="8.4499067"><ele>12.25</ele><time>2026-04-04T08:52:56.971Z</time></trkpt><trkpt lat="44.290195" lon="8.4499817"><ele>12.0</ele><time>2026-04-04T08:52:57.971Z</time></trkpt><trkpt lat="44.2903" lon="8.450055"><ele>12.0</ele><time>2026-04-04T08:52:58.971Z</time></trkpt><trkpt lat="44.2904033" lon="8.450125"><ele>12.0</ele><time>2026-04-04T08:52:59.971Z</time></trkpt><trkpt lat="44.29051" lon="8.4502167"><ele>12.0</ele><time>2026-04-04T08:53:00.971Z</time></trkpt><trkpt lat="44.2906067" lon="8.450295"><ele>12.0</ele><time>2026-04-04T08:53:01.971Z</time></trkpt><trkpt lat="44.29072" lon="8.45035"><ele>12.25</ele><time>2026-04-04T08:53:02.97Z</time></trkpt><trkpt lat="44.2908367" lon="8.4504083"><ele>12.5</ele><time>2026-04-04T08:53:03.971Z</time></trkpt><trkpt lat="44.2909717" lon="8.4504483"><ele>12.75</ele><time>2026-04-04T08:53:04.971Z</time></trkpt><trkpt lat="44.2911067" lon="8.450475"><ele>13.0</ele><time>2026-04-04T08:53:05.971Z</time></trkpt><trkpt lat="44.2912333" lon="8.4504983"><ele>13.0</ele><time>2026-04-04T08:53:06.971Z</time></trkpt><trkpt lat="44.29136" lon="8.4505133"><ele>13.0</ele><time>2026-04-04T08:53:07.971Z</time></trkpt><trkpt lat="44.2914983" lon="8.4505033"><ele>13.0</ele><time>2026-04-04T08:53:08.971Z</time></trkpt><trkpt lat="44.291625" lon="8.4505117"><ele>13.0</ele><time>2026-04-04T08:53:09.971Z</time></trkpt><trkpt lat="44.2917617" lon="8.45054"><ele>13.0</ele><time>2026-04-04T08:53:10.97Z</time></trkpt><trkpt lat="44.2918883" lon="8.4505567"><ele>13.0</ele><time>2026-04-04T08:53:11.971Z</time></trkpt><trkpt lat="44.29202" lon="8.450575"><ele>13.0</ele><time>2026-04-04T08:53:12.971Z</time></trkpt><trkpt lat="44.2921467" lon="8.4506217"><ele>13.0</ele><time>2026-04-04T08:53:13.971Z</time></trkpt><trkpt lat="44.292265" lon="8.4506717"><ele>12.5</ele><time>2026-04-04T08:53:14.97Z</time></trkpt><trkpt lat="44.2923967" lon="8.4507217"><ele>12.0</ele><time>2026-04-04T08:53:15.971Z</time></trkpt><trkpt lat="44.2925267" lon="8.4507917"><ele>11.5</ele><time>2026-04-04T08:53:16.971Z</time></trkpt><trkpt lat="44.29265" lon="8.4508733"><ele>11.0</ele><time>2026-04-04T08:53:17.971Z</time></trkpt><trkpt lat="44.292765" lon="8.4509733"><ele>11.0</ele><time>2026-04-04T08:53:18.97Z</time></trkpt><trkpt lat="44.2928817" lon="8.45107"><ele>11.0</ele><time>2026-04-04T08:53:19.971Z</time></trkpt><trkpt lat="44.2929883" lon="8.4511633"><ele>11.0</ele><time>2026-04-04T08:53:20.971Z</time></trkpt><trkpt lat="44.2930767" lon="8.4512733"><ele>11.0</ele><time>2026-04-04T08:53:21.971Z</time></trkpt><trkpt lat="44.2931733" lon="8.4513967"><ele>10.600000000000001</ele><time>2026-04-04T08:53:22.971Z</time></trkpt><trkpt lat="44.29326" lon="8.4515117"><ele>10.200000000000001</ele><time>2026-04-04T08:53:23.971Z</time></trkpt><trkpt lat="44.293325" lon="8.45162"><ele>9.8</ele><time>2026-04-04T08:53:24.971Z</time></trkpt><trkpt lat="44.2933917" lon="8.4517267"><ele>9.4</ele><time>2026-04-04T08:53:25.971Z</time></trkpt><trkpt lat="44.2934567" lon="8.4518317"><ele>9.0</ele><time>2026-04-04T08:53:26.971Z</time></trkpt><trkpt lat="44.293515" lon="8.4519383"><ele>9.0</ele><time>2026-04-04T08:53:27.971Z</time></trkpt><trkpt lat="44.2935733" lon="8.4520317"><ele>9.0</ele><time>2026-04-04T08:53:28.97Z</time></trkpt><trkpt lat="44.293625" lon="8.452125"><ele>9.0</ele><time>2026-04-04T08:53:29.97Z</time></trkpt><trkpt lat="44.2936683" lon="8.45221"><ele>9.0</ele><time>2026-04-04T08:53:30.97Z</time></trkpt><trkpt lat="44.2936917" lon="8.4523117"><ele>9.0</ele><time>2026-04-04T08:53:31.971Z</time></trkpt><trkpt lat="44.2936883" lon="8.452415"><ele>9.0</ele><time>2026-04-04T08:53:32.97Z</time></trkpt><trkpt lat="44.2936783" lon="8.4525233"><ele>9.0</ele><time>2026-04-04T08:53:33.97Z</time></trkpt><trkpt lat="44.2936317" lon="8.452615"><ele>9.0</ele><time>2026-04-04T08:53:34.971Z</time></trkpt><trkpt lat="44.2935833" lon="8.4526883"><ele>9.0</ele><time>2026-04-04T08:53:35.971Z</time></trkpt><trkpt lat="44.2935217" lon="8.4528083"><ele>9.0</ele><time>2026-04-04T08:53:37.97Z</time></trkpt><trkpt lat="44.2935083" lon="8.452925"><ele>9.0</ele><time>2026-04-04T08:53:39.971Z</time></trkpt><trkpt lat="44.2935593" lon="8.4530352"><ele>9.0</ele><time>2026-04-04T08:53:41.971Z</time></trkpt><trkpt lat="44.2936287" lon="8.4531244"><ele>9.0</ele><time>2026-04-04T08:53:43.97Z</time></trkpt><trkpt lat="44.2937158" lon="8.4532299"><ele>9.0</ele><time>2026-04-04T08:53:45.971Z</time></trkpt><trkpt lat="44.2938079" lon="8.453359"><ele>9.0</ele><time>2026-04-04T08:53:47.971Z</time></trkpt><trkpt lat="44.2938615" lon="8.4534346"><ele>9.0</ele><time>2026-04-04T08:53:48.971Z</time></trkpt><trkpt lat="44.2939294" lon="8.4535233"><ele>9.0</ele><time>2026-04-04T08:53:49.971Z</time></trkpt><trkpt lat="44.2940007" lon="8.4536209"><ele>9.0</ele><time>2026-04-04T08:53:50.97Z</time></trkpt><trkpt lat="44.2940763" lon="8.4537193"><ele>9.0</ele><time>2026-04-04T08:53:51.97Z</time></trkpt><trkpt lat="44.2941495" lon="8.4538198"><ele>9.0</ele><time>2026-04-04T08:53:52.971Z</time></trkpt><trkpt lat="44.2942287" lon="8.4539164"><ele>9.0</ele><time>2026-04-04T08:53:53.971Z</time></trkpt><trkpt lat="44.2943108" lon="8.4540196"><ele>9.0</ele><time>2026-04-04T08:53:54.971Z</time></trkpt><trkpt lat="44.2943876" lon="8.4541282"><ele>9.0</ele><time>2026-04-04T08:53:55.971Z</time></trkpt><trkpt lat="44.2944606" lon="8.4542351"><ele>9.0</ele><time>2026-04-04T08:53:56.971Z</time></trkpt><trkpt lat="44.2945226" lon="8.4543403"><ele>9.0</ele><time>2026-04-04T08:53:57.971Z</time></trkpt><trkpt lat="44.2945748" lon="8.4544436"><ele>9.0</ele><time>2026-04-04T08:53:58.971Z</time></trkpt><trkpt lat="44.294621" lon="8.4545492"><ele>9.0</ele><time>2026-04-04T08:53:59.97Z</time></trkpt><trkpt lat="44.2946746" lon="8.454651"><ele>9.0</ele><time>2026-04-04T08:54:00.971Z</time></trkpt><trkpt lat="44.2947355" lon="8.4547476"><ele>9.0</ele><time>2026-04-04T08:54:01.97Z</time></trkpt><trkpt lat="44.2947994" lon="8.4548449"><ele>9.0</ele><time>2026-04-04T08:54:02.971Z</time></trkpt><trkpt lat="44.2948681" lon="8.4549485"><ele>9.0</ele><time>2026-04-04T08:54:03.971Z</time></trkpt><trkpt lat="44.294937" lon="8.4550547"><ele>9.0</ele><time>2026-04-04T08:54:04.971Z</time></trkpt><trkpt lat="44.2950042" lon="8.4551546"><ele>9.0</ele><time>2026-04-04T08:54:05.971Z</time></trkpt><trkpt lat="44.2950691" lon="8.455251"><ele>9.0</ele><time>2026-04-04T08:54:06.97Z</time></trkpt><trkpt lat="44.2951376" lon="8.4553432"><ele>9.0</ele><time>2026-04-04T08:54:07.971Z</time></trkpt><trkpt lat="44.2952197" lon="8.4554166"><ele>9.0</ele><time>2026-04-04T08:54:08.971Z</time></trkpt><trkpt lat="44.2952974" lon="8.455488"><ele>9.0</ele><time>2026-04-04T08:54:09.971Z</time></trkpt><trkpt lat="44.2953677" lon="8.4555699"><ele>8.8</ele><time>2026-04-04T08:54:10.971Z</time></trkpt><trkpt lat="44.2954356" lon="8.4556667"><ele>8.600000000000001</ele><time>2026-04-04T08:54:11.971Z</time></trkpt><trkpt lat="44.2955007" lon="8.4557799"><ele>8.4</ele><time>2026-04-04T08:54:12.971Z</time></trkpt><trkpt lat="44.295571" lon="8.4559068"><ele>8.200000000000001</ele><time>2026-04-04T08:54:13.971Z</time></trkpt><trkpt lat="44.2956493" lon="8.4560321"><ele>8.0</ele><time>2026-04-04T08:54:14.97Z</time></trkpt><trkpt lat="44.2957308" lon="8.4561584"><ele>8.0</ele><time>2026-04-04T08:54:15.97Z</time></trkpt><trkpt lat="44.295808" lon="8.4562832"><ele>8.0</ele><time>2026-04-04T08:54:16.971Z</time></trkpt><trkpt lat="44.2958796" lon="8.4564034"><ele>8.0</ele><time>2026-04-04T08:54:17.971Z</time></trkpt><trkpt lat="44.2959459" lon="8.4565216"><ele>8.0</ele><time>2026-04-04T08:54:18.971Z</time></trkpt><trkpt lat="44.2960098" lon="8.4566376"><ele>8.0</ele><time>2026-04-04T08:54:19.97Z</time></trkpt><trkpt lat="44.2960743" lon="8.4567594"><ele>8.0</ele><time>2026-04-04T08:54:20.97Z</time></trkpt><trkpt lat="44.2961428" lon="8.4568836"><ele>8.0</ele><time>2026-04-04T08:54:21.97Z</time></trkpt><trkpt lat="44.2962182" lon="8.4570095"><ele>8.0</ele><time>2026-04-04T08:54:22.971Z</time></trkpt><trkpt lat="44.2962981" lon="8.4571246"><ele>8.0</ele><time>2026-04-04T08:54:23.971Z</time></trkpt><trkpt lat="44.2963696" lon="8.4572476"><ele>8.0</ele><time>2026-04-04T08:54:24.971Z</time></trkpt><trkpt lat="44.2964439" lon="8.4573666"><ele>8.0</ele><time>2026-04-04T08:54:25.971Z</time></trkpt><trkpt lat="44.2965179" lon="8.457487"><ele>8.0</ele><time>2026-04-04T08:54:26.971Z</time></trkpt><trkpt lat="44.2965902" lon="8.4576079"><ele>8.0</ele><time>2026-04-04T08:54:27.971Z</time></trkpt><trkpt lat="44.2966609" lon="8.4577238"><ele>8.0</ele><time>2026-04-04T08:54:28.971Z</time></trkpt><trkpt lat="44.2967403" lon="8.4578431"><ele>8.5</ele><time>2026-04-04T08:54:29.971Z</time></trkpt><trkpt lat="44.2968223" lon="8.4579795"><ele>9.0</ele><time>2026-04-04T08:54:30.971Z</time></trkpt><trkpt lat="44.2969052" lon="8.4581265"><ele>9.5</ele><time>2026-04-04T08:54:31.971Z</time></trkpt><trkpt lat="44.2969919" lon="8.4582821"><ele>10.0</ele><time>2026-04-04T08:54:32.971Z</time></trkpt><trkpt lat="44.2970742" lon="8.4584388"><ele>10.0</ele><time>2026-04-04T08:54:33.97Z</time></trkpt><trkpt lat="44.2971607" lon="8.4585884"><ele>10.0</ele><time>2026-04-04T08:54:34.97Z</time></trkpt><trkpt lat="44.2972408" lon="8.458729"><ele>10.0</ele><time>2026-04-04T08:54:35.97Z</time></trkpt><trkpt lat="44.2973187" lon="8.4588659"><ele>10.0</ele><time>2026-04-04T08:54:36.97Z</time></trkpt><trkpt lat="44.2973949" lon="8.4590045"><ele>9.75</ele><time>2026-04-04T08:54:37.971Z</time></trkpt><trkpt lat="44.2974662" lon="8.4591399"><ele>9.5</ele><time>2026-04-04T08:54:38.971Z</time></trkpt><trkpt lat="44.2975347" lon="8.4592736"><ele>9.25</ele><time>2026-04-04T08:54:39.971Z</time></trkpt><trkpt lat="44.2975999" lon="8.4594076"><ele>9.0</ele><time>2026-04-04T08:54:40.971Z</time></trkpt><trkpt lat="44.29766" lon="8.4595367"><ele>9.0</ele><time>2026-04-04T08:54:41.971Z</time></trkpt><trkpt lat="44.2977225" lon="8.4596486"><ele>9.0</ele><time>2026-04-04T08:54:42.971Z</time></trkpt><trkpt lat="44.2977824" lon="8.459768"><ele>9.0</ele><time>2026-04-04T08:54:43.971Z</time></trkpt><trkpt lat="44.2978453" lon="8.4598909"><ele>9.0</ele><time>2026-04-04T08:54:44.97Z</time></trkpt><trkpt lat="44.2979069" lon="8.4600149"><ele>9.0</ele><time>2026-04-04T08:54:45.97Z</time></trkpt><trkpt lat="44.2979633" lon="8.4601272"><ele>9.0</ele><time>2026-04-04T08:54:46.97Z</time></trkpt><trkpt lat="44.2980161" lon="8.4602356"><ele>9.0</ele><time>2026-04-04T08:54:47.971Z</time></trkpt><trkpt lat="44.2980688" lon="8.4603514"><ele>9.0</ele><time>2026-04-04T08:54:48.971Z</time></trkpt><trkpt lat="44.2981236" lon="8.4604643"><ele>9.0</ele><time>2026-04-04T08:54:49.971Z</time></trkpt><trkpt lat="44.2981805" lon="8.4605765"><ele>9.0</ele><time>2026-04-04T08:54:50.971Z</time></trkpt><trkpt lat="44.2982298" lon="8.4606955"><ele>9.0</ele><time>2026-04-04T08:54:51.971Z</time></trkpt><trkpt lat="44.2982695" lon="8.4608173"><ele>9.0</ele><time>2026-04-04T08:54:52.971Z</time></trkpt><trkpt lat="44.2983084" lon="8.4609403"><ele>9.0</ele><time>2026-04-04T08:54:53.971Z</time></trkpt><trkpt lat="44.298343" lon="8.4610617"><ele>9.0</ele><time>2026-04-04T08:54:54.971Z</time></trkpt><trkpt lat="44.2983796" lon="8.4611758"><ele>9.0</ele><time>2026-04-04T08:54:55.971Z</time></trkpt><trkpt lat="44.2984203" lon="8.4612934"><ele>9.0</ele><time>2026-04-04T08:54:56.97Z</time></trkpt><trkpt lat="44.2984621" lon="8.4614147"><ele>9.0</ele><time>2026-04-04T08:54:57.971Z</time></trkpt><trkpt lat="44.2985" lon="8.4615365"><ele>9.0</ele><time>2026-04-04T08:54:58.971Z</time></trkpt><trkpt lat="44.2985395" lon="8.4616577"><ele>9.0</ele><time>2026-04-04T08:54:59.971Z</time></trkpt><trkpt lat="44.2985768" lon="8.4617774"><ele>9.0</ele><time>2026-04-04T08:55:00.971Z</time></trkpt><trkpt lat="44.2986114" lon="8.4618842"><ele>9.0</ele><time>2026-04-04T08:55:01.971Z</time></trkpt><trkpt lat="44.2986413" lon="8.4619873"><ele>9.0</ele><time>2026-04-04T08:55:02.971Z</time></trkpt><trkpt lat="44.2986652" lon="8.4620812"><ele>9.0</ele><time>2026-04-04T08:55:03.971Z</time></trkpt><trkpt lat="44.2987076" lon="8.4622338"><ele>9.0</ele><time>2026-04-04T08:55:05.97Z</time></trkpt><trkpt lat="44.2987393" lon="8.4623908"><ele>9.0</ele><time>2026-04-04T08:55:07.97Z</time></trkpt><trkpt lat="44.2987697" lon="8.4625463"><ele>9.000000000000002</ele><time>2026-04-04T08:55:09.971Z</time></trkpt><trkpt lat="44.298795" lon="8.4626439"><ele>9.0</ele><time>2026-04-04T08:55:10.971Z</time></trkpt><trkpt lat="44.2988342" lon="8.4627256"><ele>9.0</ele><time>2026-04-04T08:55:11.97Z</time></trkpt><trkpt lat="44.2988844" lon="8.4627903"><ele>9.0</ele><time>2026-04-04T08:55:12.971Z</time></trkpt><trkpt lat="44.29894" lon="8.4628523"><ele>9.0</ele><time>2026-04-04T08:55:13.971Z</time></trkpt><trkpt lat="44.2989938" lon="8.4629189"><ele>9.000000000000002</ele><time>2026-04-04T08:55:14.971Z</time></trkpt><trkpt lat="44.2990398" lon="8.4630044"><ele>9.0</ele><time>2026-04-04T08:55:15.97Z</time></trkpt><trkpt lat="44.2990788" lon="8.463114"><ele>9.4</ele><time>2026-04-04T08:55:16.971Z</time></trkpt><trkpt lat="44.2991166" lon="8.4632385"><ele>9.8</ele><time>2026-04-04T08:55:17.97Z</time></trkpt><trkpt lat="44.2991556" lon="8.4633743"><ele>10.200000000000001</ele><time>2026-04-04T08:55:18.97Z</time></trkpt><trkpt lat="44.2992065" lon="8.46351"><ele>10.600000000000001</ele><time>2026-04-04T08:55:19.97Z</time></trkpt><trkpt lat="44.2992707" lon="8.4636392"><ele>11.0</ele><time>2026-04-04T08:55:20.97Z</time></trkpt><trkpt lat="44.2993533" lon="8.4637757"><ele>11.0</ele><time>2026-04-04T08:55:21.971Z</time></trkpt><trkpt lat="44.2994457" lon="8.4639096"><ele>11.0</ele><time>2026-04-04T08:55:22.971Z</time></trkpt><trkpt lat="44.2995453" lon="8.4640315"><ele>11.0</ele><time>2026-04-04T08:55:23.971Z</time></trkpt><trkpt lat="44.2996505" lon="8.4641513"><ele>11.0</ele><time>2026-04-04T08:55:24.97Z</time></trkpt><trkpt lat="44.2997556" lon="8.4642667"><ele>11.0</ele><time>2026-04-04T08:55:25.97Z</time></trkpt><trkpt lat="44.2998627" lon="8.4643754"><ele>11.0</ele><time>2026-04-04T08:55:26.971Z</time></trkpt><trkpt lat="44.2999663" lon="8.46448"><ele>11.0</ele><time>2026-04-04T08:55:27.971Z</time></trkpt><trkpt lat="44.3000929" lon="8.4645648"><ele>11.0</ele><time>2026-04-04T08:55:28.971Z</time></trkpt><trkpt lat="44.30021" lon="8.4646501"><ele>10.600000000000001</ele><time>2026-04-04T08:55:29.97Z</time></trkpt><trkpt lat="44.3003217" lon="8.4647321"><ele>10.200000000000001</ele><time>2026-04-04T08:55:30.97Z</time></trkpt><trkpt lat="44.300416" lon="8.4648023"><ele>9.8</ele><time>2026-04-04T08:55:31.971Z</time></trkpt><trkpt lat="44.3005096" lon="8.4648747"><ele>9.4</ele><time>2026-04-04T08:55:32.97Z</time></trkpt><trkpt lat="44.3006024" lon="8.464936"><ele>9.0</ele><time>2026-04-04T08:55:33.97Z</time></trkpt><trkpt lat="44.3007" lon="8.4649953"><ele>11.4</ele><time>2026-04-04T08:55:34.97Z</time></trkpt><trkpt lat="44.3007998" lon="8.4650612"><ele>13.8</ele><time>2026-04-04T08:55:35.97Z</time></trkpt><trkpt lat="44.3008982" lon="8.4651259"><ele>16.200000000000003</ele><time>2026-04-04T08:55:36.969Z</time></trkpt><trkpt lat="44.3009936" lon="8.4651945"><ele>18.6</ele><time>2026-04-04T08:55:37.97Z</time></trkpt><trkpt lat="44.301092" lon="8.4652669"><ele>21.0</ele><time>2026-04-04T08:55:38.969Z</time></trkpt><trkpt lat="44.3011868" lon="8.4653485"><ele>21.0</ele><time>2026-04-04T08:55:39.97Z</time></trkpt><trkpt lat="44.3012864" lon="8.4654089"><ele>21.0</ele><time>2026-04-04T08:55:40.97Z</time></trkpt><trkpt lat="44.3013782" lon="8.465458"><ele>21.0</ele><time>2026-04-04T08:55:41.969Z</time></trkpt><trkpt lat="44.3014669" lon="8.4655005"><ele>21.0</ele><time>2026-04-04T08:55:42.969Z</time></trkpt><trkpt lat="44.3015616" lon="8.465552"><ele>21.0</ele><time>2026-04-04T08:55:43.97Z</time></trkpt><trkpt lat="44.3016671" lon="8.4656142"><ele>20.0</ele><time>2026-04-04T08:55:44.97Z</time></trkpt><trkpt lat="44.3017729" lon="8.4656842"><ele>19.0</ele><time>2026-04-04T08:55:45.97Z</time></trkpt><trkpt lat="44.301875" lon="8.4657574"><ele>18.0</ele><time>2026-04-04T08:55:46.97Z</time></trkpt><trkpt lat="44.3019796" lon="8.4658545"><ele>17.0</ele><time>2026-04-04T08:55:47.97Z</time></trkpt><trkpt lat="44.3020864" lon="8.4659267"><ele>17.0</ele><time>2026-04-04T08:55:48.969Z</time></trkpt><trkpt lat="44.302197" lon="8.4660007"><ele>17.0</ele><time>2026-04-04T08:55:49.969Z</time></trkpt><trkpt lat="44.3023103" lon="8.4660742"><ele>17.0</ele><time>2026-04-04T08:55:50.97Z</time></trkpt><trkpt lat="44.3024202" lon="8.4661688"><ele>17.0</ele><time>2026-04-04T08:55:51.97Z</time></trkpt><trkpt lat="44.3025236" lon="8.4662843"><ele>18.5</ele><time>2026-04-04T08:55:52.97Z</time></trkpt><trkpt lat="44.3026182" lon="8.4664199"><ele>20.0</ele><time>2026-04-04T08:55:53.97Z</time></trkpt><trkpt lat="44.3027023" lon="8.46657"><ele>21.5</ele><time>2026-04-04T08:55:54.97Z</time></trkpt><trkpt lat="44.3027637" lon="8.4667403"><ele>23.0</ele><time>2026-04-04T08:55:55.969Z</time></trkpt><trkpt lat="44.3028082" lon="8.4669155"><ele>23.0</ele><time>2026-04-04T08:55:56.969Z</time></trkpt><trkpt lat="44.3028386" lon="8.4671021"><ele>23.0</ele><time>2026-04-04T08:55:57.969Z</time></trkpt><trkpt lat="44.3028468" lon="8.467291"><ele>23.0</ele><time>2026-04-04T08:55:58.97Z</time></trkpt><trkpt lat="44.3028489" lon="8.4674873"><ele>23.0</ele><time>2026-04-04T08:55:59.97Z</time></trkpt><trkpt lat="44.3028412" lon="8.4676786"><ele>21.799999999999997</ele><time>2026-04-04T08:56:00.97Z</time></trkpt><trkpt lat="44.3028296" lon="8.4678598"><ele>20.599999999999998</ele><time>2026-04-04T08:56:01.97Z</time></trkpt><trkpt lat="44.3028068" lon="8.4680274"><ele>19.4</ele><time>2026-04-04T08:56:02.97Z</time></trkpt><trkpt lat="44.3027864" lon="8.4681716"><ele>18.2</ele><time>2026-04-04T08:56:03.97Z</time></trkpt><trkpt lat="44.3027633" lon="8.4682844"><ele>17.0</ele><time>2026-04-04T08:56:04.969Z</time></trkpt><trkpt lat="44.3027494" lon="8.468396"><ele>16.333333333333336</ele><time>2026-04-04T08:56:05.969Z</time></trkpt><trkpt lat="44.302732" lon="8.468501"><ele>15.666666666666668</ele><time>2026-04-04T08:56:06.97Z</time></trkpt><trkpt lat="44.3027173" lon="8.4686015"><ele>15.0</ele><time>2026-04-04T08:56:07.97Z</time></trkpt><trkpt lat="44.3026947" lon="8.4686931"><ele>14.333333333333332</ele><time>2026-04-04T08:56:08.97Z</time></trkpt><trkpt lat="44.3026518" lon="8.4688179"><ele>13.666666666666666</ele><time>2026-04-04T08:56:10.97Z</time></trkpt><trkpt lat="44.3026254" lon="8.4689273"><ele>13.0</ele><time>2026-04-04T08:56:15.97Z</time></trkpt><trkpt lat="44.3026434" lon="8.4690156"><ele>12.600000000000001</ele><time>2026-04-04T08:56:17.97Z</time></trkpt><trkpt lat="44.3026965" lon="8.4691073"><ele>12.200000000000001</ele><time>2026-04-04T08:56:19.97Z</time></trkpt><trkpt lat="44.3028033" lon="8.4691039"><ele>11.8</ele><time>2026-04-04T08:56:21.97Z</time></trkpt><trkpt lat="44.3028877" lon="8.4690831"><ele>11.4</ele><time>2026-04-04T08:56:22.97Z</time></trkpt><trkpt lat="44.3029801" lon="8.4690847"><ele>11.0</ele><time>2026-04-04T08:56:23.97Z</time></trkpt><trkpt lat="44.3030896" lon="8.4690935"><ele>13.25</ele><time>2026-04-04T08:56:24.969Z</time></trkpt><trkpt lat="44.3032104" lon="8.4691148"><ele>15.5</ele><time>2026-04-04T08:56:25.97Z</time></trkpt><trkpt lat="44.3033388" lon="8.4691337"><ele>17.75</ele><time>2026-04-04T08:56:26.97Z</time></trkpt><trkpt lat="44.30347" lon="8.4691579"><ele>20.0</ele><time>2026-04-04T08:56:27.97Z</time></trkpt><trkpt lat="44.3036152" lon="8.4691835"><ele>20.0</ele><time>2026-04-04T08:56:28.97Z</time></trkpt><trkpt lat="44.3037532" lon="8.4692187"><ele>20.0</ele><time>2026-04-04T08:56:29.969Z</time></trkpt><trkpt lat="44.3038971" lon="8.4692386"><ele>20.0</ele><time>2026-04-04T08:56:30.97Z</time></trkpt><trkpt lat="44.3040391" lon="8.4692577"><ele>20.0</ele><time>2026-04-04T08:56:31.969Z</time></trkpt><trkpt lat="44.304185" lon="8.4692691"><ele>20.0</ele><time>2026-04-04T08:56:32.97Z</time></trkpt><trkpt lat="44.3043344" lon="8.469291"><ele>20.0</ele><time>2026-04-04T08:56:33.97Z</time></trkpt><trkpt lat="44.3044741" lon="8.4693012"><ele>20.0</ele><time>2026-04-04T08:56:34.97Z</time></trkpt><trkpt lat="44.3046136" lon="8.4693063"><ele>20.0</ele><time>2026-04-04T08:56:35.969Z</time></trkpt><trkpt lat="44.3047587" lon="8.4693209"><ele>21.5</ele><time>2026-04-04T08:56:36.969Z</time></trkpt><trkpt lat="44.3049029" lon="8.4693068"><ele>23.0</ele><time>2026-04-04T08:56:37.969Z</time></trkpt><trkpt lat="44.3050465" lon="8.4692816"><ele>24.5</ele><time>2026-04-04T08:56:38.969Z</time></trkpt><trkpt lat="44.3051901" lon="8.4692609"><ele>26.0</ele><time>2026-04-04T08:56:39.97Z</time></trkpt><trkpt lat="44.3053361" lon="8.4692501"><ele>26.0</ele><time>2026-04-04T08:56:40.969Z</time></trkpt><trkpt lat="44.3054838" lon="8.4692334"><ele>26.0</ele><time>2026-04-04T08:56:41.969Z</time></trkpt><trkpt lat="44.305636" lon="8.4692102"><ele>26.0</ele><time>2026-04-04T08:56:42.969Z</time></trkpt><trkpt lat="44.3057892" lon="8.4692012"><ele>27.0</ele><time>2026-04-04T08:56:43.969Z</time></trkpt><trkpt lat="44.3059475" lon="8.4691895"><ele>28.0</ele><time>2026-04-04T08:56:44.97Z</time></trkpt><trkpt lat="44.3061049" lon="8.4691954"><ele>29.0</ele><time>2026-04-04T08:56:45.969Z</time></trkpt><trkpt lat="44.3062508" lon="8.4692075"><ele>29.0</ele><time>2026-04-04T08:56:46.97Z</time></trkpt><trkpt lat="44.3064063" lon="8.4692018"><ele>29.0</ele><time>2026-04-04T08:56:47.969Z</time></trkpt><trkpt lat="44.3065785" lon="8.469207"><ele>29.0</ele><time>2026-04-04T08:56:48.969Z</time></trkpt><trkpt lat="44.3067475" lon="8.4692189"><ele>27.666666666666664</ele><time>2026-04-04T08:56:49.969Z</time></trkpt><trkpt lat="44.3069072" lon="8.4692295"><ele>26.333333333333336</ele><time>2026-04-04T08:56:50.97Z</time></trkpt><trkpt lat="44.307062" lon="8.469223"><ele>25.0</ele><time>2026-04-04T08:56:51.97Z</time></trkpt><trkpt lat="44.3072142" lon="8.4692294"><ele>24.75</ele><time>2026-04-04T08:56:52.97Z</time></trkpt><trkpt lat="44.3073609" lon="8.4692319"><ele>24.5</ele><time>2026-04-04T08:56:53.97Z</time></trkpt><trkpt lat="44.3075063" lon="8.4692203"><ele>24.25</ele><time>2026-04-04T08:56:54.97Z</time></trkpt><trkpt lat="44.3076536" lon="8.4692205"><ele>24.0</ele><time>2026-04-04T08:56:55.97Z</time></trkpt><trkpt lat="44.3078076" lon="8.4692341"><ele>24.0</ele><time>2026-04-04T08:56:56.97Z</time></trkpt><trkpt lat="44.3079612" lon="8.4692493"><ele>24.0</ele><time>2026-04-04T08:56:57.97Z</time></trkpt><trkpt lat="44.3081146" lon="8.4692636"><ele>24.0</ele><time>2026-04-04T08:56:58.97Z</time></trkpt><trkpt lat="44.3082631" lon="8.469276"><ele>23.25</ele><time>2026-04-04T08:56:59.969Z</time></trkpt><trkpt lat="44.3084077" lon="8.469288"><ele>22.5</ele><time>2026-04-04T08:57:00.969Z</time></trkpt><trkpt lat="44.3085561" lon="8.4692945"><ele>21.75</ele><time>2026-04-04T08:57:01.969Z</time></trkpt><trkpt lat="44.3087081" lon="8.4693009"><ele>21.0</ele><time>2026-04-04T08:57:02.97Z</time></trkpt><trkpt lat="44.308866" lon="8.4693012"><ele>20.0</ele><time>2026-04-04T08:57:03.97Z</time></trkpt><trkpt lat="44.3090177" lon="8.4692995"><ele>19.0</ele><time>2026-04-04T08:57:04.97Z</time></trkpt><trkpt lat="44.3091604" lon="8.4693038"><ele>18.0</ele><time>2026-04-04T08:57:05.97Z</time></trkpt><trkpt lat="44.3093033" lon="8.4693085"><ele>17.0</ele><time>2026-04-04T08:57:06.97Z</time></trkpt><trkpt lat="44.3094457" lon="8.4693059"><ele>17.0</ele><time>2026-04-04T08:57:07.97Z</time></trkpt><trkpt lat="44.309586" lon="8.4693175"><ele>17.0</ele><time>2026-04-04T08:57:08.97Z</time></trkpt><trkpt lat="44.3097174" lon="8.46932"><ele>17.0</ele><time>2026-04-04T08:57:09.97Z</time></trkpt><trkpt lat="44.3098377" lon="8.4693144"><ele>17.0</ele><time>2026-04-04T08:57:10.97Z</time></trkpt><trkpt lat="44.3099521" lon="8.469323"><ele>17.25</ele><time>2026-04-04T08:57:11.97Z</time></trkpt><trkpt lat="44.3100753" lon="8.469328"><ele>17.5</ele><time>2026-04-04T08:57:12.97Z</time></trkpt><trkpt lat="44.3102065" lon="8.4693279"><ele>17.75</ele><time>2026-04-04T08:57:13.969Z</time></trkpt><trkpt lat="44.3103363" lon="8.469325"><ele>18.0</ele><time>2026-04-04T08:57:14.97Z</time></trkpt><trkpt lat="44.3104691" lon="8.4693259"><ele>18.5</ele><time>2026-04-04T08:57:15.97Z</time></trkpt><trkpt lat="44.3106026" lon="8.4693257"><ele>19.0</ele><time>2026-04-04T08:57:16.97Z</time></trkpt><trkpt lat="44.3107316" lon="8.4693322"><ele>19.5</ele><time>2026-04-04T08:57:17.969Z</time></trkpt><trkpt lat="44.3108545" lon="8.4693397"><ele>20.0</ele><time>2026-04-04T08:57:18.97Z</time></trkpt><trkpt lat="44.310973" lon="8.4693468"><ele>20.0</ele><time>2026-04-04T08:57:19.969Z</time></trkpt><trkpt lat="44.311088" lon="8.4693539"><ele>20.0</ele><time>2026-04-04T08:57:20.97Z</time></trkpt><trkpt lat="44.3112057" lon="8.4693622"><ele>20.0</ele><time>2026-04-04T08:57:21.969Z</time></trkpt><trkpt lat="44.3113208" lon="8.4693587"><ele>20.0</ele><time>2026-04-04T08:57:22.969Z</time></trkpt><trkpt lat="44.311433" lon="8.4693568"><ele>21.0</ele><time>2026-04-04T08:57:23.97Z</time></trkpt><trkpt lat="44.3115407" lon="8.4693581"><ele>22.0</ele><time>2026-04-04T08:57:24.97Z</time></trkpt><trkpt lat="44.3116423" lon="8.4693804"><ele>23.0</ele><time>2026-04-04T08:57:25.97Z</time></trkpt><trkpt lat="44.3117459" lon="8.4694251"><ele>24.0</ele><time>2026-04-04T08:57:26.969Z</time></trkpt><trkpt lat="44.3118564" lon="8.4695007"><ele>25.0</ele><time>2026-04-04T08:57:27.97Z</time></trkpt><trkpt lat="44.3119615" lon="8.469563"><ele>24.25</ele><time>2026-04-04T08:57:28.97Z</time></trkpt><trkpt lat="44.31207" lon="8.4696087"><ele>23.5</ele><time>2026-04-04T08:57:29.97Z</time></trkpt><trkpt lat="44.3121772" lon="8.4696606"><ele>22.75</ele><time>2026-04-04T08:57:30.969Z</time></trkpt><trkpt lat="44.3122827" lon="8.4697137"><ele>22.0</ele><time>2026-04-04T08:57:31.97Z</time></trkpt><trkpt lat="44.312389" lon="8.4697645"><ele>22.0</ele><time>2026-04-04T08:57:32.97Z</time></trkpt><trkpt lat="44.3124967" lon="8.4698087"><ele>22.0</ele><time>2026-04-04T08:57:33.97Z</time></trkpt><trkpt lat="44.3126043" lon="8.4698533"><ele>22.0</ele><time>2026-04-04T08:57:34.969Z</time></trkpt><trkpt lat="44.3127119" lon="8.4698975"><ele>22.0</ele><time>2026-04-04T08:57:35.969Z</time></trkpt><trkpt lat="44.3125687" lon="8.4699624"><ele>22.0</ele><time>2026-04-04T08:57:37.977Z</time></trkpt><trkpt lat="44.3123204" lon="8.4703583"><ele>22.0</ele><time>2026-04-04T08:57:38.977Z</time></trkpt><trkpt lat="44.31216" lon="8.470737"><ele>20.25</ele><time>2026-04-04T08:57:39.977Z</time></trkpt><trkpt lat="44.3121491" lon="8.4708622"><ele>18.5</ele><time>2026-04-04T08:57:40.976Z</time></trkpt><trkpt lat="44.3122846" lon="8.4708377"><ele>16.75</ele><time>2026-04-04T08:57:42.977Z</time></trkpt><trkpt lat="44.3123858" lon="8.4708141"><ele>15.0</ele><time>2026-04-04T08:57:43.977Z</time></trkpt><trkpt lat="44.3125113" lon="8.470805"><ele>15.0</ele><time>2026-04-04T08:57:44.977Z</time></trkpt><trkpt lat="44.3126612" lon="8.4708215"><ele>15.0</ele><time>2026-04-04T08:57:45.976Z</time></trkpt><trkpt lat="44.3128123" lon="8.4708388"><ele>15.0</ele><time>2026-04-04T08:57:46.977Z</time></trkpt><trkpt lat="44.3129564" lon="8.4708565"><ele>15.0</ele><time>2026-04-04T08:57:47.977Z</time></trkpt><trkpt lat="44.3130808" lon="8.470865"><ele>15.4</ele><time>2026-04-04T08:57:48.977Z</time></trkpt><trkpt lat="44.3131936" lon="8.4708731"><ele>15.8</ele><time>2026-04-04T08:57:49.977Z</time></trkpt><trkpt lat="44.3132982" lon="8.4708855"><ele>16.2</ele><time>2026-04-04T08:57:50.977Z</time></trkpt><trkpt lat="44.3133991" lon="8.4709019"><ele>16.6</ele><time>2026-04-04T08:57:51.977Z</time></trkpt><trkpt lat="44.3134966" lon="8.470904"><ele>17.0</ele><time>2026-04-04T08:57:52.977Z</time></trkpt><trkpt lat="44.3135846" lon="8.4709121"><ele>17.0</ele><time>2026-04-04T08:57:53.976Z</time></trkpt><trkpt lat="44.3136642" lon="8.4709299"><ele>17.0</ele><time>2026-04-04T08:57:54.977Z</time></trkpt><trkpt lat="44.3137332" lon="8.4709729"><ele>17.0</ele><time>2026-04-04T08:57:55.977Z</time></trkpt><trkpt lat="44.3137908" lon="8.4710391"><ele>17.0</ele><time>2026-04-04T08:57:56.977Z</time></trkpt><trkpt lat="44.313826" lon="8.4711418"><ele>17.0</ele><time>2026-04-04T08:57:57.976Z</time></trkpt><trkpt lat="44.3138393" lon="8.4712723"><ele>17.0</ele><time>2026-04-04T08:57:58.976Z</time></trkpt><trkpt lat="44.3138511" lon="8.4714032"><ele>17.333333333333336</ele><time>2026-04-04T08:57:59.977Z</time></trkpt><trkpt lat="44.3138658" lon="8.4715188"><ele>17.666666666666668</ele><time>2026-04-04T08:58:00.977Z</time></trkpt><trkpt lat="44.3138816" lon="8.4716195"><ele>18.0</ele><time>2026-04-04T08:58:01.977Z</time></trkpt><trkpt lat="44.3139062" lon="8.4717584"><ele>18.333333333333332</ele><time>2026-04-04T08:58:03.977Z</time></trkpt><trkpt lat="44.3139344" lon="8.4718605"><ele>18.666666666666664</ele><time>2026-04-04T08:58:16.977Z</time></trkpt><trkpt lat="44.3139755" lon="8.4719944"><ele>19.0</ele><time>2026-04-04T08:58:18.977Z</time></trkpt><trkpt lat="44.3139971" lon="8.4720783"><ele>17.75</ele><time>2026-04-04T08:58:19.977Z</time></trkpt><trkpt lat="44.3140341" lon="8.4722454"><ele>16.5</ele><time>2026-04-04T08:58:21.977Z</time></trkpt><trkpt lat="44.3140923" lon="8.4723928"><ele>15.25</ele><time>2026-04-04T08:58:23.977Z</time></trkpt><trkpt lat="44.3141962" lon="8.472445"><ele>14.0</ele><time>2026-04-04T08:58:25.976Z</time></trkpt><trkpt lat="44.3143239" lon="8.4723902"><ele>14.0</ele><time>2026-04-04T08:58:27.977Z</time></trkpt><trkpt lat="44.3144084" lon="8.4723256"><ele>13.999999999999998</ele><time>2026-04-04T08:58:28.977Z</time></trkpt><trkpt lat="44.3145081" lon="8.4722502"><ele>13.999999999999998</ele><time>2026-04-04T08:58:29.977Z</time></trkpt><trkpt lat="44.3146133" lon="8.4721804"><ele>14.0</ele><time>2026-04-04T08:58:30.977Z</time></trkpt><trkpt lat="44.3147175" lon="8.4721113"><ele>14.0</ele><time>2026-04-04T08:58:31.977Z</time></trkpt><trkpt lat="44.3148194" lon="8.472053"><ele>14.75</ele><time>2026-04-04T08:58:32.977Z</time></trkpt><trkpt lat="44.3149167" lon="8.4719939"><ele>15.5</ele><time>2026-04-04T08:58:33.977Z</time></trkpt><trkpt lat="44.3150157" lon="8.4719294"><ele>16.25</ele><time>2026-04-04T08:58:34.977Z</time></trkpt><trkpt lat="44.3151214" lon="8.4718601"><ele>17.0</ele><time>2026-04-04T08:58:35.977Z</time></trkpt><trkpt lat="44.3152272" lon="8.4717859"><ele>17.0</ele><time>2026-04-04T08:58:36.977Z</time></trkpt><trkpt lat="44.3153302" lon="8.4717114"><ele>17.0</ele><time>2026-04-04T08:58:37.977Z</time></trkpt><trkpt lat="44.3154327" lon="8.4716306"><ele>17.0</ele><time>2026-04-04T08:58:38.977Z</time></trkpt><trkpt lat="44.315544" lon="8.4715551"><ele>17.0</ele><time>2026-04-04T08:58:39.977Z</time></trkpt><trkpt lat="44.3156563" lon="8.4714926"><ele>17.0</ele><time>2026-04-04T08:58:40.977Z</time></trkpt><trkpt lat="44.3157702" lon="8.471415"><ele>17.0</ele><time>2026-04-04T08:58:41.977Z</time></trkpt><trkpt lat="44.3158853" lon="8.4713272"><ele>17.0</ele><time>2026-04-04T08:58:42.977Z</time></trkpt><trkpt lat="44.3159994" lon="8.4712364"><ele>17.0</ele><time>2026-04-04T08:58:43.977Z</time></trkpt><trkpt lat="44.3161158" lon="8.4711455"><ele>17.75</ele><time>2026-04-04T08:58:44.977Z</time></trkpt><trkpt lat="44.3162339" lon="8.471054"><ele>18.5</ele><time>2026-04-04T08:58:45.977Z</time></trkpt><trkpt lat="44.3163474" lon="8.4709646"><ele>19.25</ele><time>2026-04-04T08:58:46.977Z</time></trkpt><trkpt lat="44.316462" lon="8.4708658"><ele>20.0</ele><time>2026-04-04T08:58:47.977Z</time></trkpt><trkpt lat="44.3165737" lon="8.4707764"><ele>20.0</ele><time>2026-04-04T08:58:48.977Z</time></trkpt><trkpt lat="44.3166923" lon="8.4706917"><ele>20.0</ele><time>2026-04-04T08:58:49.977Z</time></trkpt><trkpt lat="44.3167904" lon="8.4706036"><ele>20.0</ele><time>2026-04-04T08:58:50.977Z</time></trkpt><trkpt lat="44.3168931" lon="8.4705156"><ele>20.0</ele><time>2026-04-04T08:58:51.977Z</time></trkpt><trkpt lat="44.3170019" lon="8.4704288"><ele>19.5</ele><time>2026-04-04T08:58:52.976Z</time></trkpt><trkpt lat="44.3171105" lon="8.4703378"><ele>19.0</ele><time>2026-04-04T08:58:53.977Z</time></trkpt><trkpt lat="44.317229" lon="8.4702422"><ele>18.5</ele><time>2026-04-04T08:58:54.977Z</time></trkpt><trkpt lat="44.3173267" lon="8.470148"><ele>18.0</ele><time>2026-04-04T08:58:55.977Z</time></trkpt><trkpt lat="44.3174348" lon="8.4700606"><ele>18.0</ele><time>2026-04-04T08:58:56.976Z</time></trkpt><trkpt lat="44.3175444" lon="8.4699712"><ele>18.0</ele><time>2026-04-04T08:58:57.977Z</time></trkpt><trkpt lat="44.3176431" lon="8.4698836"><ele>18.0</ele><time>2026-04-04T08:58:58.977Z</time></trkpt><trkpt lat="44.3177526" lon="8.4698015"><ele>18.0</ele><time>2026-04-04T08:58:59.976Z</time></trkpt><trkpt lat="44.3178672" lon="8.4697121"><ele>17.75</ele><time>2026-04-04T08:59:00.977Z</time></trkpt><trkpt lat="44.3179677" lon="8.4696026"><ele>17.5</ele><time>2026-04-04T08:59:01.977Z</time></trkpt><trkpt lat="44.3180775" lon="8.4695008"><ele>17.25</ele><time>2026-04-04T08:59:02.977Z</time></trkpt><trkpt lat="44.3181777" lon="8.4694016"><ele>17.0</ele><time>2026-04-04T08:59:03.977Z</time></trkpt><trkpt lat="44.3182862" lon="8.4693128"><ele>17.0</ele><time>2026-04-04T08:59:04.977Z</time></trkpt><trkpt lat="44.3183906" lon="8.4692296"><ele>17.0</ele><time>2026-04-04T08:59:05.976Z</time></trkpt><trkpt lat="44.3184989" lon="8.4691397"><ele>17.0</ele><time>2026-04-04T08:59:06.977Z</time></trkpt><trkpt lat="44.3186025" lon="8.4690499"><ele>17.0</ele><time>2026-04-04T08:59:07.976Z</time></trkpt><trkpt lat="44.3187134" lon="8.4689573"><ele>17.0</ele><time>2026-04-04T08:59:08.976Z</time></trkpt><trkpt lat="44.3188278" lon="8.4688591"><ele>17.0</ele><time>2026-04-04T08:59:09.977Z</time></trkpt><trkpt lat="44.3189428" lon="8.4687679"><ele>17.0</ele><time>2026-04-04T08:59:10.977Z</time></trkpt><trkpt lat="44.3190603" lon="8.4686723"><ele>17.0</ele><time>2026-04-04T08:59:11.977Z</time></trkpt><trkpt lat="44.3191773" lon="8.4685706"><ele>17.25</ele><time>2026-04-04T08:59:12.977Z</time></trkpt><trkpt lat="44.3192954" lon="8.4684702"><ele>17.5</ele><time>2026-04-04T08:59:13.977Z</time></trkpt><trkpt lat="44.3194138" lon="8.4683833"><ele>17.75</ele><time>2026-04-04T08:59:14.977Z</time></trkpt><trkpt lat="44.3195257" lon="8.4682945"><ele>18.0</ele><time>2026-04-04T08:59:15.977Z</time></trkpt><trkpt lat="44.3196307" lon="8.4682028"><ele>18.25</ele><time>2026-04-04T08:59:16.976Z</time></trkpt><trkpt lat="44.3197376" lon="8.4681129"><ele>18.5</ele><time>2026-04-04T08:59:17.976Z</time></trkpt><trkpt lat="44.3198412" lon="8.4680271"><ele>18.75</ele><time>2026-04-04T08:59:18.977Z</time></trkpt><trkpt lat="44.3199378" lon="8.4679438"><ele>19.0</ele><time>2026-04-04T08:59:19.977Z</time></trkpt><trkpt lat="44.3200317" lon="8.4678688"><ele>19.333333333333332</ele><time>2026-04-04T08:59:20.977Z</time></trkpt><trkpt lat="44.3201193" lon="8.4677962"><ele>19.666666666666664</ele><time>2026-04-04T08:59:21.977Z</time></trkpt><trkpt lat="44.3201961" lon="8.4677301"><ele>20.0</ele><time>2026-04-04T08:59:22.977Z</time></trkpt><trkpt lat="44.3202704" lon="8.4676636"><ele>20.333333333333332</ele><time>2026-04-04T08:59:23.976Z</time></trkpt><trkpt lat="44.320347" lon="8.4676024"><ele>20.666666666666668</ele><time>2026-04-04T08:59:24.977Z</time></trkpt><trkpt lat="44.3204108" lon="8.4675405"><ele>21.0</ele><time>2026-04-04T08:59:25.976Z</time></trkpt><trkpt lat="44.3204758" lon="8.4674881"><ele>21.0</ele><time>2026-04-04T08:59:26.976Z</time></trkpt><trkpt lat="44.3205327" lon="8.46744"><ele>21.0</ele><time>2026-04-04T08:59:27.977Z</time></trkpt><trkpt lat="44.3206172" lon="8.4673615"><ele>21.0</ele><time>2026-04-04T08:59:29.976Z</time></trkpt><trkpt lat="44.3207034" lon="8.4672898"><ele>21.0</ele><time>2026-04-04T08:59:36.976Z</time></trkpt><trkpt lat="44.3207672" lon="8.4672411"><ele>21.0</ele><time>2026-04-04T08:59:37.977Z</time></trkpt><trkpt lat="44.3208546" lon="8.467203"><ele>21.0</ele><time>2026-04-04T08:59:38.976Z</time></trkpt><trkpt lat="44.3209604" lon="8.4671621"><ele>21.0</ele><time>2026-04-04T08:59:39.977Z</time></trkpt><trkpt lat="44.3210828" lon="8.4670999"><ele>21.0</ele><time>2026-04-04T08:59:40.977Z</time></trkpt><trkpt lat="44.3212095" lon="8.4669945"><ele>21.0</ele><time>2026-04-04T08:59:41.977Z</time></trkpt><trkpt lat="44.3213384" lon="8.4668504"><ele>21.0</ele><time>2026-04-04T08:59:42.976Z</time></trkpt><trkpt lat="44.3214788" lon="8.4666576"><ele>21.0</ele><time>2026-04-04T08:59:43.977Z</time></trkpt><trkpt lat="44.3216286" lon="8.4664318"><ele>21.0</ele><time>2026-04-04T08:59:44.977Z</time></trkpt><trkpt lat="44.3217694" lon="8.466204"><ele>21.0</ele><time>2026-04-04T08:59:45.976Z</time></trkpt><trkpt lat="44.3218833" lon="8.4659828"><ele>22.666666666666664</ele><time>2026-04-04T08:59:46.976Z</time></trkpt><trkpt lat="44.321968" lon="8.4657623"><ele>24.333333333333332</ele><time>2026-04-04T08:59:47.976Z</time></trkpt><trkpt lat="44.3220406" lon="8.4655528"><ele>26.0</ele><time>2026-04-04T08:59:48.976Z</time></trkpt><trkpt lat="44.322113" lon="8.4653569"><ele>27.25</ele><time>2026-04-04T08:59:49.976Z</time></trkpt><trkpt lat="44.3221816" lon="8.465187"><ele>28.5</ele><time>2026-04-04T08:59:50.975Z</time></trkpt><trkpt lat="44.3222497" lon="8.4650449"><ele>29.75</ele><time>2026-04-04T08:59:51.976Z</time></trkpt><trkpt lat="44.3222979" lon="8.4649054"><ele>31.0</ele><time>2026-04-04T08:59:52.975Z</time></trkpt><trkpt lat="44.3223383" lon="8.4647776"><ele>31.0</ele><time>2026-04-04T08:59:53.976Z</time></trkpt><trkpt lat="44.3223773" lon="8.464653"><ele>31.0</ele><time>2026-04-04T08:59:54.975Z</time></trkpt><trkpt lat="44.3224269" lon="8.4645187"><ele>31.0</ele><time>2026-04-04T08:59:55.976Z</time></trkpt><trkpt lat="44.3225028" lon="8.4643788"><ele>31.0</ele><time>2026-04-04T08:59:56.976Z</time></trkpt><trkpt lat="44.3225884" lon="8.4642449"><ele>34.0</ele><time>2026-04-04T08:59:57.975Z</time></trkpt><trkpt lat="44.3226783" lon="8.4641258"><ele>37.0</ele><time>2026-04-04T08:59:58.975Z</time></trkpt><trkpt lat="44.3227774" lon="8.4640126"><ele>40.0</ele><time>2026-04-04T08:59:59.975Z</time></trkpt><trkpt lat="44.3228797" lon="8.4639336"><ele>43.0</ele><time>2026-04-04T09:00:00.976Z</time></trkpt><trkpt lat="44.3229987" lon="8.4638372"><ele>40.25</ele><time>2026-04-04T09:00:01.975Z</time></trkpt><trkpt lat="44.3231227" lon="8.4637528"><ele>37.5</ele><time>2026-04-04T09:00:02.976Z</time></trkpt><trkpt lat="44.3232565" lon="8.4636845"><ele>34.75</ele><time>2026-04-04T09:00:03.976Z</time></trkpt><trkpt lat="44.3233892" lon="8.463628"><ele>32.0</ele><time>2026-04-04T09:00:04.976Z</time></trkpt><trkpt lat="44.3235232" lon="8.4635879"><ele>32.0</ele><time>2026-04-04T09:00:05.976Z</time></trkpt><trkpt lat="44.3236561" lon="8.4635671"><ele>32.0</ele><time>2026-04-04T09:00:06.976Z</time></trkpt><trkpt lat="44.3237964" lon="8.4635568"><ele>32.0</ele><time>2026-04-04T09:00:07.975Z</time></trkpt><trkpt lat="44.3239399" lon="8.4635316"><ele>32.0</ele><time>2026-04-04T09:00:08.976Z</time></trkpt><trkpt lat="44.3240746" lon="8.4634953"><ele>30.8</ele><time>2026-04-04T09:00:09.976Z</time></trkpt><trkpt lat="44.3242032" lon="8.4634668"><ele>29.6</ele><time>2026-04-04T09:00:10.976Z</time></trkpt><trkpt lat="44.3243166" lon="8.4634333"><ele>28.400000000000002</ele><time>2026-04-04T09:00:11.976Z</time></trkpt><trkpt lat="44.32442" lon="8.4633989"><ele>27.200000000000003</ele><time>2026-04-04T09:00:12.975Z</time></trkpt><trkpt lat="44.324513" lon="8.4633689"><ele>26.0</ele><time>2026-04-04T09:00:13.976Z</time></trkpt><trkpt lat="44.3246016" lon="8.4633447"><ele>26.0</ele><time>2026-04-04T09:00:14.976Z</time></trkpt><trkpt lat="44.3246961" lon="8.4633281"><ele>26.0</ele><time>2026-04-04T09:00:15.976Z</time></trkpt><trkpt lat="44.3247901" lon="8.4633385"><ele>26.0</ele><time>2026-04-04T09:00:16.976Z</time></trkpt><trkpt lat="44.3248785" lon="8.4633805"><ele>26.0</ele><time>2026-04-04T09:00:17.976Z</time></trkpt><trkpt lat="44.3249513" lon="8.463442"><ele>26.0</ele><time>2026-04-04T09:00:18.975Z</time></trkpt><trkpt lat="44.325017" lon="8.463542"><ele>26.999999999999996</ele><time>2026-04-04T09:00:19.976Z</time></trkpt><trkpt lat="44.3250743" lon="8.4636538"><ele>28.0</ele><time>2026-04-04T09:00:20.975Z</time></trkpt><trkpt lat="44.3251286" lon="8.4637543"><ele>29.0</ele><time>2026-04-04T09:00:21.976Z</time></trkpt><trkpt lat="44.3251876" lon="8.4638275"><ele>30.0</ele><time>2026-04-04T09:00:22.976Z</time></trkpt><trkpt lat="44.325251" lon="8.4638863"><ele>30.999999999999996</ele><time>2026-04-04T09:00:23.976Z</time></trkpt><trkpt lat="44.3253284" lon="8.4639267"><ele>32.0</ele><time>2026-04-04T09:00:24.976Z</time></trkpt><trkpt lat="44.3254179" lon="8.4639664"><ele>33.5</ele><time>2026-04-04T09:00:25.976Z</time></trkpt><trkpt lat="44.3255259" lon="8.4639878"><ele>35.0</ele><time>2026-04-04T09:00:26.976Z</time></trkpt><trkpt lat="44.3256502" lon="8.4639712"><ele>36.5</ele><time>2026-04-04T09:00:27.976Z</time></trkpt><trkpt lat="44.3258136" lon="8.4638992"><ele>38.0</ele><time>2026-04-04T09:00:28.976Z</time></trkpt><trkpt lat="44.3259806" lon="8.4638177"><ele>37.666666666666664</ele><time>2026-04-04T09:00:29.975Z</time></trkpt><trkpt lat="44.326131" lon="8.4637563"><ele>37.333333333333336</ele><time>2026-04-04T09:00:30.976Z</time></trkpt><trkpt lat="44.3262787" lon="8.4637063"><ele>37.0</ele><time>2026-04-04T09:00:31.976Z</time></trkpt><trkpt lat="44.3264176" lon="8.463672"><ele>37.0</ele><time>2026-04-04T09:00:32.976Z</time></trkpt><trkpt lat="44.3265513" lon="8.4636474"><ele>37.0</ele><time>2026-04-04T09:00:33.975Z</time></trkpt><trkpt lat="44.3266876" lon="8.4636606"><ele>37.0</ele><time>2026-04-04T09:00:34.976Z</time></trkpt><trkpt lat="44.3268112" lon="8.4636897"><ele>37.0</ele><time>2026-04-04T09:00:35.976Z</time></trkpt><trkpt lat="44.3269126" lon="8.4637301"><ele>36.5</ele><time>2026-04-04T09:00:36.976Z</time></trkpt><trkpt lat="44.3269795" lon="8.463813"><ele>36.0</ele><time>2026-04-04T09:00:37.976Z</time></trkpt><trkpt lat="44.3270187" lon="8.4639564"><ele>35.5</ele><time>2026-04-04T09:00:38.976Z</time></trkpt><trkpt lat="44.3270348" lon="8.464138"><ele>35.0</ele><time>2026-04-04T09:00:39.976Z</time></trkpt><trkpt lat="44.3270402" lon="8.4643391"><ele>35.0</ele><time>2026-04-04T09:00:40.976Z</time></trkpt><trkpt lat="44.3270458" lon="8.4645331"><ele>35.0</ele><time>2026-04-04T09:00:41.976Z</time></trkpt><trkpt lat="44.3270476" lon="8.4647172"><ele>35.0</ele><time>2026-04-04T09:00:42.976Z</time></trkpt><trkpt lat="44.3270452" lon="8.4648915"><ele>35.0</ele><time>2026-04-04T09:00:43.976Z</time></trkpt><trkpt lat="44.3270345" lon="8.4650628"><ele>38.6</ele><time>2026-04-04T09:00:44.976Z</time></trkpt><trkpt lat="44.3270214" lon="8.4652366"><ele>42.2</ele><time>2026-04-04T09:00:45.976Z</time></trkpt><trkpt lat="44.327017" lon="8.4654058"><ele>45.8</ele><time>2026-04-04T09:00:46.976Z</time></trkpt><trkpt lat="44.3270262" lon="8.4655514"><ele>49.4</ele><time>2026-04-04T09:00:47.976Z</time></trkpt><trkpt lat="44.3270485" lon="8.4656857"><ele>53.0</ele><time>2026-04-04T09:00:48.976Z</time></trkpt><trkpt lat="44.3270983" lon="8.4657921"><ele>49.6</ele><time>2026-04-04T09:00:49.975Z</time></trkpt><trkpt lat="44.3271559" lon="8.465884"><ele>46.199999999999996</ele><time>2026-04-04T09:00:50.976Z</time></trkpt><trkpt lat="44.327227" lon="8.4659515"><ele>42.8</ele><time>2026-04-04T09:00:51.975Z</time></trkpt><trkpt lat="44.3273083" lon="8.4659891"><ele>39.4</ele><time>2026-04-04T09:00:52.976Z</time></trkpt><trkpt lat="44.3274095" lon="8.4659968"><ele>36.0</ele><time>2026-04-04T09:00:53.975Z</time></trkpt><trkpt lat="44.3275464" lon="8.4659704"><ele>36.0</ele><time>2026-04-04T09:00:54.975Z</time></trkpt><trkpt lat="44.3277127" lon="8.4659015"><ele>36.0</ele><time>2026-04-04T09:00:55.975Z</time></trkpt><trkpt lat="44.3279145" lon="8.4657978"><ele>36.0</ele><time>2026-04-04T09:00:56.975Z</time></trkpt><trkpt lat="44.3281547" lon="8.4656793"><ele>37.0</ele><time>2026-04-04T09:00:57.975Z</time></trkpt><trkpt lat="44.3284173" lon="8.4655202"><ele>38.0</ele><time>2026-04-04T09:00:58.976Z</time></trkpt><trkpt lat="44.3287202" lon="8.4653044"><ele>39.5</ele><time>2026-04-04T09:00:59.975Z</time></trkpt><trkpt lat="44.3289872" lon="8.4651013"><ele>41.0</ele><time>2026-04-04T09:01:00.975Z</time></trkpt><trkpt lat="44.329207" lon="8.4649312"><ele>41.0</ele><time>2026-04-04T09:01:01.975Z</time></trkpt><trkpt lat="44.3293981" lon="8.464787"><ele>41.0</ele><time>2026-04-04T09:01:02.976Z</time></trkpt><trkpt lat="44.3295657" lon="8.4646611"><ele>41.0</ele><time>2026-04-04T09:01:03.976Z</time></trkpt><trkpt lat="44.3297152" lon="8.464536"><ele>40.33333333333333</ele><time>2026-04-04T09:01:04.975Z</time></trkpt><trkpt lat="44.3298493" lon="8.4643968"><ele>39.666666666666664</ele><time>2026-04-04T09:01:05.976Z</time></trkpt><trkpt lat="44.329983" lon="8.4642436"><ele>39.0</ele><time>2026-04-04T09:01:06.976Z</time></trkpt><trkpt lat="44.3301112" lon="8.4640801"><ele>39.0</ele><time>2026-04-04T09:01:07.976Z</time></trkpt><trkpt lat="44.3302368" lon="8.4639105"><ele>39.0</ele><time>2026-04-04T09:01:08.976Z</time></trkpt><trkpt lat="44.3303627" lon="8.4637394"><ele>39.0</ele><time>2026-04-04T09:01:09.976Z</time></trkpt><trkpt lat="44.3304806" lon="8.4635631"><ele>44.0</ele><time>2026-04-04T09:01:10.976Z</time></trkpt><trkpt lat="44.3305894" lon="8.4633758"><ele>49.0</ele><time>2026-04-04T09:01:11.976Z</time></trkpt><trkpt lat="44.3306859" lon="8.4631768"><ele>54.0</ele><time>2026-04-04T09:01:12.975Z</time></trkpt><trkpt lat="44.3307618" lon="8.4629449"><ele>54.0</ele><time>2026-04-04T09:01:13.975Z</time></trkpt><trkpt lat="44.330823" lon="8.4626899"><ele>54.0</ele><time>2026-04-04T09:01:14.976Z</time></trkpt><trkpt lat="44.330906" lon="8.462451"><ele>54.0</ele><time>2026-04-04T09:01:15.976Z</time></trkpt><trkpt lat="44.3309994" lon="8.4622201"><ele>54.66666666666667</ele><time>2026-04-04T09:01:16.976Z</time></trkpt><trkpt lat="44.3311062" lon="8.4619918"><ele>55.333333333333336</ele><time>2026-04-04T09:01:17.976Z</time></trkpt><trkpt lat="44.3312186" lon="8.4617521"><ele>56.0</ele><time>2026-04-04T09:01:18.976Z</time></trkpt><trkpt lat="44.3313266" lon="8.4615205"><ele>55.0</ele><time>2026-04-04T09:01:19.976Z</time></trkpt><trkpt lat="44.3314316" lon="8.4613023"><ele>54.0</ele><time>2026-04-04T09:01:20.976Z</time></trkpt><trkpt lat="44.3315273" lon="8.4610962"><ele>53.0</ele><time>2026-04-04T09:01:21.976Z</time></trkpt><trkpt lat="44.3316181" lon="8.4609137"><ele>53.0</ele><time>2026-04-04T09:01:22.976Z</time></trkpt><trkpt lat="44.3317278" lon="8.4607391"><ele>53.0</ele><time>2026-04-04T09:01:23.976Z</time></trkpt><trkpt lat="44.3318452" lon="8.460569"><ele>53.0</ele><time>2026-04-04T09:01:24.976Z</time></trkpt><trkpt lat="44.3319791" lon="8.4604164"><ele>52.333333333333336</ele><time>2026-04-04T09:01:25.976Z</time></trkpt><trkpt lat="44.3321293" lon="8.4602853"><ele>51.66666666666667</ele><time>2026-04-04T09:01:26.976Z</time></trkpt><trkpt lat="44.3322941" lon="8.4601553"><ele>51.0</ele><time>2026-04-04T09:01:27.975Z</time></trkpt><trkpt lat="44.3324618" lon="8.4600265"><ele>51.0</ele><time>2026-04-04T09:01:28.976Z</time></trkpt><trkpt lat="44.3326214" lon="8.4599087"><ele>51.0</ele><time>2026-04-04T09:01:29.976Z</time></trkpt><trkpt lat="44.3327629" lon="8.4597623"><ele>51.0</ele><time>2026-04-04T09:01:30.975Z</time></trkpt><trkpt lat="44.3328924" lon="8.4595968"><ele>52.33333333333333</ele><time>2026-04-04T09:01:31.976Z</time></trkpt><trkpt lat="44.3329929" lon="8.4594014"><ele>53.666666666666664</ele><time>2026-04-04T09:01:32.976Z</time></trkpt><trkpt lat="44.3330813" lon="8.4591637"><ele>55.0</ele><time>2026-04-04T09:01:33.976Z</time></trkpt><trkpt lat="44.3331429" lon="8.4589129"><ele>55.33333333333333</ele><time>2026-04-04T09:01:34.976Z</time></trkpt><trkpt lat="44.3331851" lon="8.458671"><ele>55.66666666666667</ele><time>2026-04-04T09:01:35.976Z</time></trkpt><trkpt lat="44.3332209" lon="8.4584526"><ele>56.0</ele><time>2026-04-04T09:01:36.976Z</time></trkpt><trkpt lat="44.3332794" lon="8.4582726"><ele>56.0</ele><time>2026-04-04T09:01:37.975Z</time></trkpt><trkpt lat="44.3333561" lon="8.4581445"><ele>56.0</ele><time>2026-04-04T09:01:38.976Z</time></trkpt><trkpt lat="44.3334597" lon="8.4580355"><ele>56.0</ele><time>2026-04-04T09:01:39.975Z</time></trkpt><trkpt lat="44.3336017" lon="8.4579548"><ele>56.0</ele><time>2026-04-04T09:01:40.976Z</time></trkpt><trkpt lat="44.3337784" lon="8.4578908"><ele>59.66666666666667</ele><time>2026-04-04T09:01:41.975Z</time></trkpt><trkpt lat="44.3339845" lon="8.4578481"><ele>63.33333333333333</ele><time>2026-04-04T09:01:42.976Z</time></trkpt><trkpt lat="44.3341749" lon="8.4578145"><ele>67.0</ele><time>2026-04-04T09:01:43.975Z</time></trkpt><trkpt lat="44.3343406" lon="8.4577964"><ele>67.0</ele><time>2026-04-04T09:01:44.976Z</time></trkpt><trkpt lat="44.3344789" lon="8.4577642"><ele>67.0</ele><time>2026-04-04T09:01:45.976Z</time></trkpt><trkpt lat="44.3346087" lon="8.457713"><ele>67.0</ele><time>2026-04-04T09:01:46.976Z</time></trkpt><trkpt lat="44.3347305" lon="8.4576366"><ele>67.0</ele><time>2026-04-04T09:01:47.975Z</time></trkpt><trkpt lat="44.3348657" lon="8.4575609"><ele>67.5</ele><time>2026-04-04T09:01:48.975Z</time></trkpt><trkpt lat="44.3349936" lon="8.4575144"><ele>68.0</ele><time>2026-04-04T09:01:49.976Z</time></trkpt><trkpt lat="44.335116" lon="8.4574954"><ele>68.5</ele><time>2026-04-04T09:01:50.975Z</time></trkpt><trkpt lat="44.3352407" lon="8.4574981"><ele>69.0</ele><time>2026-04-04T09:01:51.975Z</time></trkpt><trkpt lat="44.3353622" lon="8.4575289"><ele>69.0</ele><time>2026-04-04T09:01:52.976Z</time></trkpt><trkpt lat="44.3354808" lon="8.4575765"><ele>69.0</ele><time>2026-04-04T09:01:53.976Z</time></trkpt><trkpt lat="44.3355962" lon="8.4576248"><ele>69.0</ele><time>2026-04-04T09:01:54.976Z</time></trkpt><trkpt lat="44.3357137" lon="8.4576657"><ele>69.0</ele><time>2026-04-04T09:01:55.975Z</time></trkpt><trkpt lat="44.3358317" lon="8.4576842"><ele>69.5</ele><time>2026-04-04T09:01:56.976Z</time></trkpt><trkpt lat="44.3359462" lon="8.4576832"><ele>70.0</ele><time>2026-04-04T09:01:57.976Z</time></trkpt><trkpt lat="44.3360686" lon="8.4576653"><ele>70.5</ele><time>2026-04-04T09:01:58.976Z</time></trkpt><trkpt lat="44.336198" lon="8.4576057"><ele>71.0</ele><time>2026-04-04T09:01:59.976Z</time></trkpt><trkpt lat="44.3363363" lon="8.4575012"><ele>74.33333333333334</ele><time>2026-04-04T09:02:00.976Z</time></trkpt><trkpt lat="44.3364642" lon="8.4573555"><ele>77.66666666666667</ele><time>2026-04-04T09:02:01.976Z</time></trkpt><trkpt lat="44.3365834" lon="8.4571994"><ele>81.0</ele><time>2026-04-04T09:02:02.976Z</time></trkpt><trkpt lat="44.3366867" lon="8.4570346"><ele>81.0</ele><time>2026-04-04T09:02:03.976Z</time></trkpt><trkpt lat="44.3367736" lon="8.4568294"><ele>81.0</ele><time>2026-04-04T09:02:04.976Z</time></trkpt><trkpt lat="44.336854" lon="8.4566087"><ele>81.0</ele><time>2026-04-04T09:02:05.976Z</time></trkpt><trkpt lat="44.3369404" lon="8.4563578"><ele>82.0</ele><time>2026-04-04T09:02:06.976Z</time></trkpt><trkpt lat="44.3370399" lon="8.4561062"><ele>83.0</ele><time>2026-04-04T09:02:07.976Z</time></trkpt><trkpt lat="44.3371314" lon="8.4558642"><ele>84.0</ele><time>2026-04-04T09:02:08.976Z</time></trkpt><trkpt lat="44.3371902" lon="8.4556115"><ele>84.33333333333333</ele><time>2026-04-04T09:02:09.976Z</time></trkpt><trkpt lat="44.3372269" lon="8.4553495"><ele>84.66666666666666</ele><time>2026-04-04T09:02:10.976Z</time></trkpt><trkpt lat="44.3372466" lon="8.455095"><ele>85.0</ele><time>2026-04-04T09:02:11.975Z</time></trkpt><trkpt lat="44.3372633" lon="8.4548847"><ele>85.0</ele><time>2026-04-04T09:02:12.976Z</time></trkpt><trkpt lat="44.3372947" lon="8.4546922"><ele>85.0</ele><time>2026-04-04T09:02:13.975Z</time></trkpt><trkpt lat="44.3373474" lon="8.4545297"><ele>85.0</ele><time>2026-04-04T09:02:14.975Z</time></trkpt><trkpt lat="44.3374018" lon="8.4543614"><ele>85.0</ele><time>2026-04-04T09:02:15.975Z</time></trkpt><trkpt lat="44.3375119" lon="8.4542415"><ele>82.5</ele><time>2026-04-04T09:02:16.976Z</time></trkpt><trkpt lat="44.3377176" lon="8.454339"><ele>80.0</ele><time>2026-04-04T09:02:17.975Z</time></trkpt><trkpt lat="44.337941" lon="8.4544751"><ele>79.33333333333334</ele><time>2026-04-04T09:02:18.975Z</time></trkpt><trkpt lat="44.3381345" lon="8.4545578"><ele>78.66666666666667</ele><time>2026-04-04T09:02:19.976Z</time></trkpt><trkpt lat="44.3382829" lon="8.4544971"><ele>78.0</ele><time>2026-04-04T09:02:20.976Z</time></trkpt><trkpt lat="44.3384243" lon="8.45436"><ele>78.0</ele><time>2026-04-04T09:02:21.976Z</time></trkpt><trkpt lat="44.3385707" lon="8.4541733"><ele>78.0</ele><time>2026-04-04T09:02:22.975Z</time></trkpt><trkpt lat="44.3387407" lon="8.4539701"><ele>78.0</ele><time>2026-04-04T09:02:23.976Z</time></trkpt><trkpt lat="44.3389194" lon="8.4537965"><ele>78.33333333333333</ele><time>2026-04-04T09:02:24.975Z</time></trkpt><trkpt lat="44.3390872" lon="8.4536473"><ele>78.66666666666666</ele><time>2026-04-04T09:02:25.976Z</time></trkpt><trkpt lat="44.3392423" lon="8.4535024"><ele>79.0</ele><time>2026-04-04T09:02:26.976Z</time></trkpt><trkpt lat="44.3393797" lon="8.4533653"><ele>79.0</ele><time>2026-04-04T09:02:27.976Z</time></trkpt><trkpt lat="44.3394952" lon="8.4531918"><ele>79.0</ele><time>2026-04-04T09:02:28.975Z</time></trkpt><trkpt lat="44.3395907" lon="8.45298"><ele>79.0</ele><time>2026-04-04T09:02:29.976Z</time></trkpt><trkpt lat="44.3396688" lon="8.4527387"><ele>80.33333333333333</ele><time>2026-04-04T09:02:30.976Z</time></trkpt><trkpt lat="44.3397306" lon="8.4524854"><ele>81.66666666666667</ele><time>2026-04-04T09:02:31.976Z</time></trkpt><trkpt lat="44.3397781" lon="8.452232"><ele>83.0</ele><time>2026-04-04T09:02:32.976Z</time></trkpt><trkpt lat="44.33982" lon="8.4520035"><ele>83.0</ele><time>2026-04-04T09:02:33.976Z</time></trkpt><trkpt lat="44.3398521" lon="8.4517767"><ele>83.0</ele><time>2026-04-04T09:02:34.976Z</time></trkpt><trkpt lat="44.339878" lon="8.4515401"><ele>83.0</ele><time>2026-04-04T09:02:35.976Z</time></trkpt><trkpt lat="44.3398975" lon="8.4512995"><ele>81.66666666666667</ele><time>2026-04-04T09:02:36.976Z</time></trkpt><trkpt lat="44.3399099" lon="8.4510716"><ele>80.33333333333333</ele><time>2026-04-04T09:02:37.976Z</time></trkpt><trkpt lat="44.339924" lon="8.4508644"><ele>79.0</ele><time>2026-04-04T09:02:38.976Z</time></trkpt><trkpt lat="44.3399605" lon="8.4506776"><ele>79.0</ele><time>2026-04-04T09:02:39.975Z</time></trkpt><trkpt lat="44.3400109" lon="8.4505214"><ele>79.0</ele><time>2026-04-04T09:02:40.976Z</time></trkpt><trkpt lat="44.3401017" lon="8.4503802"><ele>79.0</ele><time>2026-04-04T09:02:41.976Z</time></trkpt><trkpt lat="44.3402027" lon="8.4502868"><ele>79.0</ele><time>2026-04-04T09:02:42.976Z</time></trkpt><trkpt lat="44.3403196" lon="8.4502549"><ele>78.5</ele><time>2026-04-04T09:02:43.976Z</time></trkpt><trkpt lat="44.3404327" lon="8.4502947"><ele>78.0</ele><time>2026-04-04T09:02:44.976Z</time></trkpt><trkpt lat="44.3405421" lon="8.4503648"><ele>77.5</ele><time>2026-04-04T09:02:45.976Z</time></trkpt><trkpt lat="44.3406352" lon="8.4504826"><ele>77.0</ele><time>2026-04-04T09:02:46.976Z</time></trkpt><trkpt lat="44.3407145" lon="8.4506479"><ele>77.0</ele><time>2026-04-04T09:02:47.975Z</time></trkpt><trkpt lat="44.3407786" lon="8.4508352"><ele>77.0</ele><time>2026-04-04T09:02:48.976Z</time></trkpt><trkpt lat="44.3408423" lon="8.4509646"><ele>77.0</ele><time>2026-04-04T09:02:49.976Z</time></trkpt><trkpt lat="44.3409193" lon="8.4510485"><ele>77.0</ele><time>2026-04-04T09:02:50.975Z</time></trkpt><trkpt lat="44.3410043" lon="8.4510609"><ele>77.0</ele><time>2026-04-04T09:02:51.976Z</time></trkpt><trkpt lat="44.3411071" lon="8.4510298"><ele>77.0</ele><time>2026-04-04T09:02:52.975Z</time></trkpt><trkpt lat="44.3412318" lon="8.4509588"><ele>77.0</ele><time>2026-04-04T09:02:53.975Z</time></trkpt><trkpt lat="44.3413628" lon="8.4508667"><ele>77.0</ele><time>2026-04-04T09:02:54.975Z</time></trkpt><trkpt lat="44.3414867" lon="8.4507822"><ele>77.0</ele><time>2026-04-04T09:02:55.976Z</time></trkpt><trkpt lat="44.3416112" lon="8.4507008"><ele>77.75</ele><time>2026-04-04T09:02:56.976Z</time></trkpt><trkpt lat="44.3417275" lon="8.4506172"><ele>78.5</ele><time>2026-04-04T09:02:57.975Z</time></trkpt><trkpt lat="44.3418368" lon="8.4505093"><ele>79.25</ele><time>2026-04-04T09:02:58.976Z</time></trkpt><trkpt lat="44.341942" lon="8.4503857"><ele>80.0</ele><time>2026-04-04T09:02:59.976Z</time></trkpt><trkpt lat="44.3420353" lon="8.4502563"><ele>80.0</ele><time>2026-04-04T09:03:00.976Z</time></trkpt><trkpt lat="44.3421209" lon="8.4501172"><ele>80.0</ele><time>2026-04-04T09:03:01.976Z</time></trkpt><trkpt lat="44.342211" lon="8.4499762"><ele>80.0</ele><time>2026-04-04T09:03:02.975Z</time></trkpt><trkpt lat="44.3422934" lon="8.4498301"><ele>80.0</ele><time>2026-04-04T09:03:03.975Z</time></trkpt><trkpt lat="44.3423692" lon="8.449663"><ele>82.0</ele><time>2026-04-04T09:03:04.976Z</time></trkpt><trkpt lat="44.3424358" lon="8.4494828"><ele>84.0</ele><time>2026-04-04T09:03:05.976Z</time></trkpt><trkpt lat="44.3425056" lon="8.4492992"><ele>86.0</ele><time>2026-04-04T09:03:06.975Z</time></trkpt><trkpt lat="44.3425761" lon="8.4491334"><ele>88.0</ele><time>2026-04-04T09:03:07.976Z</time></trkpt><trkpt lat="44.3426456" lon="8.4489798"><ele>88.0</ele><time>2026-04-04T09:03:08.976Z</time></trkpt><trkpt lat="44.3427143" lon="8.4488323"><ele>88.0</ele><time>2026-04-04T09:03:09.976Z</time></trkpt><trkpt lat="44.3427828" lon="8.4486834"><ele>88.0</ele><time>2026-04-04T09:03:10.975Z</time></trkpt><trkpt lat="44.3428446" lon="8.4485283"><ele>88.0</ele><time>2026-04-04T09:03:11.975Z</time></trkpt><trkpt lat="44.3428945" lon="8.4483603"><ele>87.5</ele><time>2026-04-04T09:03:12.975Z</time></trkpt><trkpt lat="44.3429331" lon="8.4481994"><ele>87.0</ele><time>2026-04-04T09:03:13.975Z</time></trkpt><trkpt lat="44.3429682" lon="8.4480313"><ele>86.5</ele><time>2026-04-04T09:03:14.976Z</time></trkpt><trkpt lat="44.3430106" lon="8.4478636"><ele>86.0</ele><time>2026-04-04T09:03:15.976Z</time></trkpt><trkpt lat="44.3430685" lon="8.4476905"><ele>86.0</ele><time>2026-04-04T09:03:16.976Z</time></trkpt><trkpt lat="44.3431504" lon="8.4475269"><ele>86.0</ele><time>2026-04-04T09:03:17.975Z</time></trkpt><trkpt lat="44.3432472" lon="8.4473952"><ele>86.0</ele><time>2026-04-04T09:03:18.975Z</time></trkpt><trkpt lat="44.3433686" lon="8.4472996"><ele>86.0</ele><time>2026-04-04T09:03:19.976Z</time></trkpt><trkpt lat="44.3434991" lon="8.447224"><ele>86.0</ele><time>2026-04-04T09:03:20.976Z</time></trkpt><trkpt lat="44.3436311" lon="8.4471483"><ele>86.0</ele><time>2026-04-04T09:03:21.976Z</time></trkpt><trkpt lat="44.3437594" lon="8.4470674"><ele>86.0</ele><time>2026-04-04T09:03:22.976Z</time></trkpt><trkpt lat="44.3438812" lon="8.446994"><ele>86.0</ele><time>2026-04-04T09:03:23.976Z</time></trkpt><trkpt lat="44.3440039" lon="8.4469162"><ele>87.5</ele><time>2026-04-04T09:03:24.976Z</time></trkpt><trkpt lat="44.3441219" lon="8.4468299"><ele>89.0</ele><time>2026-04-04T09:03:25.976Z</time></trkpt><trkpt lat="44.3442476" lon="8.4467427"><ele>90.5</ele><time>2026-04-04T09:03:26.976Z</time></trkpt><trkpt lat="44.3443694" lon="8.4466441"><ele>92.0</ele><time>2026-04-04T09:03:27.976Z</time></trkpt><trkpt lat="44.3444779" lon="8.4465365"><ele>92.0</ele><time>2026-04-04T09:03:28.976Z</time></trkpt><trkpt lat="44.3445633" lon="8.4464119"><ele>92.0</ele><time>2026-04-04T09:03:29.976Z</time></trkpt><trkpt lat="44.3446411" lon="8.4462662"><ele>92.0</ele><time>2026-04-04T09:03:30.976Z</time></trkpt><trkpt lat="44.3447199" lon="8.4461199"><ele>92.0</ele><time>2026-04-04T09:03:31.975Z</time></trkpt><trkpt lat="44.344798" lon="8.4459733"><ele>91.5</ele><time>2026-04-04T09:03:32.976Z</time></trkpt><trkpt lat="44.344881" lon="8.4458332"><ele>91.0</ele><time>2026-04-04T09:03:33.976Z</time></trkpt><trkpt lat="44.3449651" lon="8.4456884"><ele>90.5</ele><time>2026-04-04T09:03:34.976Z</time></trkpt><trkpt lat="44.3450454" lon="8.4455525"><ele>90.0</ele><time>2026-04-04T09:03:35.976Z</time></trkpt><trkpt lat="44.3451181" lon="8.4453922"><ele>91.5</ele><time>2026-04-04T09:03:36.976Z</time></trkpt><trkpt lat="44.3451775" lon="8.4452208"><ele>93.0</ele><time>2026-04-04T09:03:37.976Z</time></trkpt><trkpt lat="44.3452229" lon="8.4450449"><ele>94.5</ele><time>2026-04-04T09:03:38.975Z</time></trkpt><trkpt lat="44.3452635" lon="8.4448726"><ele>96.0</ele><time>2026-04-04T09:03:39.976Z</time></trkpt><trkpt lat="44.3452945" lon="8.4447077"><ele>95.19999999999999</ele><time>2026-04-04T09:03:40.976Z</time></trkpt><trkpt lat="44.3453234" lon="8.4445447"><ele>94.39999999999999</ele><time>2026-04-04T09:03:41.975Z</time></trkpt><trkpt lat="44.3453361" lon="8.4443931"><ele>93.6</ele><time>2026-04-04T09:03:42.976Z</time></trkpt><trkpt lat="44.3453476" lon="8.4442514"><ele>92.8</ele><time>2026-04-04T09:03:43.976Z</time></trkpt><trkpt lat="44.3453536" lon="8.4441199"><ele>92.0</ele><time>2026-04-04T09:03:44.976Z</time></trkpt><trkpt lat="44.3453376" lon="8.4439897"><ele>92.0</ele><time>2026-04-04T09:03:45.976Z</time></trkpt><trkpt lat="44.3452994" lon="8.4438501"><ele>92.0</ele><time>2026-04-04T09:03:46.976Z</time></trkpt><trkpt lat="44.345239" lon="8.4437208"><ele>92.0</ele><time>2026-04-04T09:03:47.976Z</time></trkpt><trkpt lat="44.3451644" lon="8.4435976"><ele>92.0</ele><time>2026-04-04T09:03:48.976Z</time></trkpt><trkpt lat="44.3450915" lon="8.4434743"><ele>92.0</ele><time>2026-04-04T09:03:49.975Z</time></trkpt><trkpt lat="44.3450178" lon="8.4433435"><ele>91.75</ele><time>2026-04-04T09:03:50.976Z</time></trkpt><trkpt lat="44.344939" lon="8.4432144"><ele>91.5</ele><time>2026-04-04T09:03:51.976Z</time></trkpt><trkpt lat="44.344876" lon="8.4430722"><ele>91.25</ele><time>2026-04-04T09:03:52.976Z</time></trkpt><trkpt lat="44.3448198" lon="8.442919"><ele>91.0</ele><time>2026-04-04T09:03:53.976Z</time></trkpt><trkpt lat="44.3447667" lon="8.4427634"><ele>98.75</ele><time>2026-04-04T09:03:54.976Z</time></trkpt><trkpt lat="44.3447" lon="8.4426138"><ele>106.5</ele><time>2026-04-04T09:03:55.976Z</time></trkpt><trkpt lat="44.3446199" lon="8.4424576"><ele>114.25</ele><time>2026-04-04T09:03:56.976Z</time></trkpt><trkpt lat="44.3445493" lon="8.4422974"><ele>122.0</ele><time>2026-04-04T09:03:57.976Z</time></trkpt><trkpt lat="44.3444704" lon="8.4421399"><ele>120.0</ele><time>2026-04-04T09:03:58.976Z</time></trkpt><trkpt lat="44.3443923" lon="8.4419736"><ele>118.0</ele><time>2026-04-04T09:03:59.976Z</time></trkpt><trkpt lat="44.344322" lon="8.4417859"><ele>116.0</ele><time>2026-04-04T09:04:00.976Z</time></trkpt><trkpt lat="44.3442826" lon="8.4415961"><ele>114.0</ele><time>2026-04-04T09:04:01.976Z</time></trkpt><trkpt lat="44.3442656" lon="8.4414202"><ele>114.75</ele><time>2026-04-04T09:04:02.976Z</time></trkpt><trkpt lat="44.3442582" lon="8.4412497"><ele>115.5</ele><time>2026-04-04T09:04:03.975Z</time></trkpt><trkpt lat="44.344256" lon="8.4410832"><ele>116.25</ele><time>2026-04-04T09:04:04.976Z</time></trkpt><trkpt lat="44.3442484" lon="8.4409133"><ele>117.0</ele><time>2026-04-04T09:04:05.975Z</time></trkpt><trkpt lat="44.3442383" lon="8.4407396"><ele>117.0</ele><time>2026-04-04T09:04:06.975Z</time></trkpt><trkpt lat="44.3442317" lon="8.4405591"><ele>117.0</ele><time>2026-04-04T09:04:07.976Z</time></trkpt><trkpt lat="44.3442278" lon="8.4403787"><ele>117.0</ele><time>2026-04-04T09:04:08.976Z</time></trkpt><trkpt lat="44.344235" lon="8.4402016"><ele>117.0</ele><time>2026-04-04T09:04:09.976Z</time></trkpt><trkpt lat="44.344248" lon="8.4400332"><ele>117.75</ele><time>2026-04-04T09:04:10.976Z</time></trkpt><trkpt lat="44.344268" lon="8.4398684"><ele>118.5</ele><time>2026-04-04T09:04:11.976Z</time></trkpt><trkpt lat="44.3442945" lon="8.4397098"><ele>119.25</ele><time>2026-04-04T09:04:12.976Z</time></trkpt><trkpt lat="44.3443294" lon="8.439565"><ele>120.0</ele><time>2026-04-04T09:04:13.976Z</time></trkpt><trkpt lat="44.3443687" lon="8.4394228"><ele>121.6</ele><time>2026-04-04T09:04:14.976Z</time></trkpt><trkpt lat="44.3444105" lon="8.4392922"><ele>123.2</ele><time>2026-04-04T09:04:15.976Z</time></trkpt><trkpt lat="44.344453" lon="8.4391648"><ele>124.80000000000001</ele><time>2026-04-04T09:04:16.976Z</time></trkpt><trkpt lat="44.344506" lon="8.4390418"><ele>126.4</ele><time>2026-04-04T09:04:17.976Z</time></trkpt><trkpt lat="44.3445761" lon="8.438928"><ele>128.0</ele><time>2026-04-04T09:04:18.976Z</time></trkpt><trkpt lat="44.3446499" lon="8.438824"><ele>122.25</ele><time>2026-04-04T09:04:19.976Z</time></trkpt><trkpt lat="44.3447369" lon="8.4387301"><ele>116.5</ele><time>2026-04-04T09:04:20.975Z</time></trkpt><trkpt lat="44.3448285" lon="8.4386408"><ele>110.75</ele><time>2026-04-04T09:04:21.975Z</time></trkpt><trkpt lat="44.3449247" lon="8.4385506"><ele>105.0</ele><time>2026-04-04T09:04:22.975Z</time></trkpt><trkpt lat="44.3450273" lon="8.438469"><ele>105.0</ele><time>2026-04-04T09:04:23.974Z</time></trkpt><trkpt lat="44.3451272" lon="8.4383868"><ele>105.0</ele><time>2026-04-04T09:04:24.975Z</time></trkpt><trkpt lat="44.345211" lon="8.438306"><ele>105.0</ele><time>2026-04-04T09:04:25.975Z</time></trkpt><trkpt lat="44.3452888" lon="8.4381985"><ele>105.0</ele><time>2026-04-04T09:04:26.975Z</time></trkpt><trkpt lat="44.3453317" lon="8.4380635"><ele>105.0</ele><time>2026-04-04T09:04:27.974Z</time></trkpt><trkpt lat="44.3453489" lon="8.4379045"><ele>103.25</ele><time>2026-04-04T09:04:28.974Z</time></trkpt><trkpt lat="44.345335" lon="8.4377252"><ele>101.5</ele><time>2026-04-04T09:04:29.975Z</time></trkpt><trkpt lat="44.3452862" lon="8.4375358"><ele>99.75</ele><time>2026-04-04T09:04:30.974Z</time></trkpt><trkpt lat="44.345221" lon="8.4373447"><ele>98.0</ele><time>2026-04-04T09:04:31.975Z</time></trkpt><trkpt lat="44.3451608" lon="8.4371452"><ele>97.0</ele><time>2026-04-04T09:04:32.974Z</time></trkpt><trkpt lat="44.3451191" lon="8.436948"><ele>96.0</ele><time>2026-04-04T09:04:33.975Z</time></trkpt><trkpt lat="44.3450762" lon="8.4367603"><ele>95.0</ele><time>2026-04-04T09:04:34.975Z</time></trkpt><trkpt lat="44.3450333" lon="8.4365735"><ele>94.0</ele><time>2026-04-04T09:04:35.974Z</time></trkpt><trkpt lat="44.3449951" lon="8.4363898"><ele>95.0</ele><time>2026-04-04T09:04:36.975Z</time></trkpt><trkpt lat="44.3449636" lon="8.4362109"><ele>96.0</ele><time>2026-04-04T09:04:37.975Z</time></trkpt><trkpt lat="44.3449385" lon="8.4360423"><ele>97.0</ele><time>2026-04-04T09:04:38.975Z</time></trkpt><trkpt lat="44.3448993" lon="8.4358823"><ele>98.0</ele><time>2026-04-04T09:04:39.974Z</time></trkpt><trkpt lat="44.3448639" lon="8.4357218"><ele>98.0</ele><time>2026-04-04T09:04:40.975Z</time></trkpt><trkpt lat="44.3448276" lon="8.4355644"><ele>98.0</ele><time>2026-04-04T09:04:41.975Z</time></trkpt><trkpt lat="44.3447905" lon="8.4354156"><ele>98.0</ele><time>2026-04-04T09:04:42.975Z</time></trkpt><trkpt lat="44.3447486" lon="8.4352841"><ele>98.0</ele><time>2026-04-04T09:04:43.975Z</time></trkpt><trkpt lat="44.3446919" lon="8.4351715"><ele>98.0</ele><time>2026-04-04T09:04:44.975Z</time></trkpt><trkpt lat="44.3446335" lon="8.4350759"><ele>98.2</ele><time>2026-04-04T09:04:45.974Z</time></trkpt><trkpt lat="44.3445925" lon="8.4349856"><ele>98.4</ele><time>2026-04-04T09:04:46.974Z</time></trkpt><trkpt lat="44.3445657" lon="8.4348264"><ele>98.60000000000001</ele><time>2026-04-04T09:04:48.975Z</time></trkpt><trkpt lat="44.344588" lon="8.4346619"><ele>98.80000000000001</ele><time>2026-04-04T09:04:50.974Z</time></trkpt><trkpt lat="44.3446004" lon="8.4345122"><ele>99.0</ele><time>2026-04-04T09:04:52.975Z</time></trkpt><trkpt lat="44.3445904" lon="8.4344019"><ele>99.2</ele><time>2026-04-04T09:04:54.974Z</time></trkpt><trkpt lat="44.3445669" lon="8.4343169"><ele>99.4</ele><time>2026-04-04T09:04:58.974Z</time></trkpt><trkpt lat="44.3445169" lon="8.4342035"><ele>99.6</ele><time>2026-04-04T09:05:02.975Z</time></trkpt><trkpt lat="44.344465" lon="8.4340392"><ele>99.8</ele><time>2026-04-04T09:05:04.974Z</time></trkpt><trkpt lat="44.3444339" lon="8.4339253"><ele>100.0</ele><time>2026-04-04T09:05:05.974Z</time></trkpt><trkpt lat="44.3443967" lon="8.4337942"><ele>101.25</ele><time>2026-04-04T09:05:06.975Z</time></trkpt><trkpt lat="44.3443549" lon="8.4336485"><ele>102.5</ele><time>2026-04-04T09:05:07.975Z</time></trkpt><trkpt lat="44.3443074" lon="8.4335057"><ele>103.75</ele><time>2026-04-04T09:05:08.975Z</time></trkpt><trkpt lat="44.3442486" lon="8.4333551"><ele>105.0</ele><time>2026-04-04T09:05:09.974Z</time></trkpt><trkpt lat="44.3441833" lon="8.433197"><ele>105.0</ele><time>2026-04-04T09:05:10.975Z</time></trkpt><trkpt lat="44.3441188" lon="8.4330256"><ele>105.0</ele><time>2026-04-04T09:05:11.975Z</time></trkpt><trkpt lat="44.34406" lon="8.432859"><ele>105.0</ele><time>2026-04-04T09:05:12.975Z</time></trkpt><trkpt lat="44.3439988" lon="8.4327101"><ele>105.0</ele><time>2026-04-04T09:05:13.974Z</time></trkpt><trkpt lat="44.3439326" lon="8.4325665"><ele>104.75</ele><time>2026-04-04T09:05:14.974Z</time></trkpt><trkpt lat="44.3438564" lon="8.4324164"><ele>104.5</ele><time>2026-04-04T09:05:15.975Z</time></trkpt><trkpt lat="44.3437596" lon="8.4322621"><ele>104.25</ele><time>2026-04-04T09:05:16.974Z</time></trkpt><trkpt lat="44.3436456" lon="8.4321141"><ele>104.0</ele><time>2026-04-04T09:05:17.975Z</time></trkpt><trkpt lat="44.343527" lon="8.4319737"><ele>106.0</ele><time>2026-04-04T09:05:18.974Z</time></trkpt><trkpt lat="44.3434234" lon="8.4318312"><ele>108.0</ele><time>2026-04-04T09:05:19.975Z</time></trkpt><trkpt lat="44.3433329" lon="8.4316975"><ele>110.0</ele><time>2026-04-04T09:05:20.975Z</time></trkpt><trkpt lat="44.3432499" lon="8.4315598"><ele>112.0</ele><time>2026-04-04T09:05:21.975Z</time></trkpt><trkpt lat="44.3431385" lon="8.4314452"><ele>109.33333333333334</ele><time>2026-04-04T09:05:22.975Z</time></trkpt><trkpt lat="44.3430116" lon="8.4313365"><ele>106.66666666666666</ele><time>2026-04-04T09:05:23.975Z</time></trkpt><trkpt lat="44.3428671" lon="8.4312515"><ele>104.0</ele><time>2026-04-04T09:05:24.975Z</time></trkpt><trkpt lat="44.3427012" lon="8.4311853"><ele>106.66666666666666</ele><time>2026-04-04T09:05:25.975Z</time></trkpt><trkpt lat="44.3425153" lon="8.4311185"><ele>109.33333333333334</ele><time>2026-04-04T09:05:26.975Z</time></trkpt><trkpt lat="44.3423341" lon="8.4310376"><ele>112.0</ele><time>2026-04-04T09:05:27.974Z</time></trkpt><trkpt lat="44.3421689" lon="8.4309469"><ele>112.0</ele><time>2026-04-04T09:05:28.975Z</time></trkpt><trkpt lat="44.3420157" lon="8.4308566"><ele>112.0</ele><time>2026-04-04T09:05:29.975Z</time></trkpt><trkpt lat="44.3418903" lon="8.4307721"><ele>112.0</ele><time>2026-04-04T09:05:30.975Z</time></trkpt><trkpt lat="44.3417793" lon="8.4306946"><ele>112.0</ele><time>2026-04-04T09:05:31.975Z</time></trkpt><trkpt lat="44.3416614" lon="8.4306127"><ele>112.0</ele><time>2026-04-04T09:05:32.974Z</time></trkpt><trkpt lat="44.3415448" lon="8.4305175"><ele>112.0</ele><time>2026-04-04T09:05:33.975Z</time></trkpt><trkpt lat="44.3414489" lon="8.4304201"><ele>112.0</ele><time>2026-04-04T09:05:34.975Z</time></trkpt><trkpt lat="44.3413708" lon="8.4303173"><ele>112.0</ele><time>2026-04-04T09:05:35.974Z</time></trkpt><trkpt lat="44.3413084" lon="8.4302118"><ele>112.0</ele><time>2026-04-04T09:05:36.975Z</time></trkpt><trkpt lat="44.3412633" lon="8.4301034"><ele>111.99999999999999</ele><time>2026-04-04T09:05:37.975Z</time></trkpt><trkpt lat="44.341233" lon="8.4299838"><ele>111.99999999999999</ele><time>2026-04-04T09:05:38.975Z</time></trkpt><trkpt lat="44.341219" lon="8.4298552"><ele>112.0</ele><time>2026-04-04T09:05:39.975Z</time></trkpt><trkpt lat="44.3412322" lon="8.4297254"><ele>112.0</ele><time>2026-04-04T09:05:40.974Z</time></trkpt><trkpt lat="44.3412808" lon="8.4295851"><ele>112.0</ele><time>2026-04-04T09:05:41.975Z</time></trkpt><trkpt lat="44.3413566" lon="8.4294022"><ele>112.0</ele><time>2026-04-04T09:05:42.975Z</time></trkpt><trkpt lat="44.3414234" lon="8.4291939"><ele>112.0</ele><time>2026-04-04T09:05:43.974Z</time></trkpt><trkpt lat="44.3414366" lon="8.4289715"><ele>113.0</ele><time>2026-04-04T09:05:44.975Z</time></trkpt><trkpt lat="44.3414075" lon="8.4287343"><ele>114.0</ele><time>2026-04-04T09:05:45.974Z</time></trkpt><trkpt lat="44.3413451" lon="8.4284963"><ele>115.0</ele><time>2026-04-04T09:05:46.975Z</time></trkpt><trkpt lat="44.3412593" lon="8.4282351"><ele>115.66666666666667</ele><time>2026-04-04T09:05:47.975Z</time></trkpt><trkpt lat="44.3411661" lon="8.4279713"><ele>116.33333333333334</ele><time>2026-04-04T09:05:48.974Z</time></trkpt><trkpt lat="44.3410713" lon="8.4276949"><ele>117.0</ele><time>2026-04-04T09:05:49.975Z</time></trkpt><trkpt lat="44.3409711" lon="8.4274108"><ele>122.0</ele><time>2026-04-04T09:05:50.975Z</time></trkpt><trkpt lat="44.3408643" lon="8.4271327"><ele>127.0</ele><time>2026-04-04T09:05:51.975Z</time></trkpt><trkpt lat="44.340752" lon="8.4268555"><ele>127.0</ele><time>2026-04-04T09:05:52.975Z</time></trkpt><trkpt lat="44.3406429" lon="8.42659"><ele>127.0</ele><time>2026-04-04T09:05:53.975Z</time></trkpt><trkpt lat="44.3405363" lon="8.4263603"><ele>127.0</ele><time>2026-04-04T09:05:54.975Z</time></trkpt><trkpt lat="44.3404326" lon="8.4261436"><ele>124.0</ele><time>2026-04-04T09:05:55.975Z</time></trkpt><trkpt lat="44.3403391" lon="8.4259663"><ele>121.0</ele><time>2026-04-04T09:05:56.974Z</time></trkpt><trkpt lat="44.3402535" lon="8.4257847"><ele>118.0</ele><time>2026-04-04T09:05:57.975Z</time></trkpt><trkpt lat="44.3401893" lon="8.4255752"><ele>119.66666666666667</ele><time>2026-04-04T09:05:58.974Z</time></trkpt><trkpt lat="44.3401455" lon="8.4253486"><ele>121.33333333333334</ele><time>2026-04-04T09:05:59.975Z</time></trkpt><trkpt lat="44.3401222" lon="8.4251091"><ele>123.0</ele><time>2026-04-04T09:06:00.975Z</time></trkpt><trkpt lat="44.3401208" lon="8.4248585"><ele>125.66666666666666</ele><time>2026-04-04T09:06:01.975Z</time></trkpt><trkpt lat="44.3401033" lon="8.4245971"><ele>128.33333333333331</ele><time>2026-04-04T09:06:02.975Z</time></trkpt><trkpt lat="44.3400609" lon="8.4243359"><ele>131.0</ele><time>2026-04-04T09:06:03.975Z</time></trkpt><trkpt lat="44.3400106" lon="8.4240809"><ele>131.0</ele><time>2026-04-04T09:06:04.975Z</time></trkpt><trkpt lat="44.3399537" lon="8.4238198"><ele>131.0</ele><time>2026-04-04T09:06:05.975Z</time></trkpt><trkpt lat="44.3398974" lon="8.4235656"><ele>131.0</ele><time>2026-04-04T09:06:06.974Z</time></trkpt><trkpt lat="44.3398394" lon="8.4233252"><ele>132.66666666666666</ele><time>2026-04-04T09:06:07.975Z</time></trkpt><trkpt lat="44.3397718" lon="8.4231017"><ele>134.33333333333334</ele><time>2026-04-04T09:06:08.975Z</time></trkpt><trkpt lat="44.3396771" lon="8.4228939"><ele>136.0</ele><time>2026-04-04T09:06:09.974Z</time></trkpt><trkpt lat="44.3395675" lon="8.4226906"><ele>132.66666666666669</ele><time>2026-04-04T09:06:10.975Z</time></trkpt><trkpt lat="44.3394471" lon="8.4224874"><ele>129.33333333333334</ele><time>2026-04-04T09:06:11.974Z</time></trkpt><trkpt lat="44.3393348" lon="8.4222571"><ele>126.0</ele><time>2026-04-04T09:06:12.975Z</time></trkpt><trkpt lat="44.3392065" lon="8.4220696"><ele>126.0</ele><time>2026-04-04T09:06:13.975Z</time></trkpt><trkpt lat="44.3390815" lon="8.4219068"><ele>126.0</ele><time>2026-04-04T09:06:14.975Z</time></trkpt><trkpt lat="44.3389598" lon="8.4217513"><ele>126.0</ele><time>2026-04-04T09:06:15.975Z</time></trkpt><trkpt lat="44.3388487" lon="8.4215903"><ele>125.25</ele><time>2026-04-04T09:06:16.975Z</time></trkpt><trkpt lat="44.3387458" lon="8.4214412"><ele>124.5</ele><time>2026-04-04T09:06:17.975Z</time></trkpt><trkpt lat="44.3386516" lon="8.4212981"><ele>123.75</ele><time>2026-04-04T09:06:18.974Z</time></trkpt><trkpt lat="44.338583" lon="8.4211326"><ele>123.0</ele><time>2026-04-04T09:06:19.975Z</time></trkpt><trkpt lat="44.3385523" lon="8.4209535"><ele>123.0</ele><time>2026-04-04T09:06:20.975Z</time></trkpt><trkpt lat="44.3385646" lon="8.4207626"><ele>123.0</ele><time>2026-04-04T09:06:21.974Z</time></trkpt><trkpt lat="44.3386197" lon="8.4205857"><ele>123.0</ele><time>2026-04-04T09:06:22.975Z</time></trkpt><trkpt lat="44.3387131" lon="8.4204389"><ele>123.0</ele><time>2026-04-04T09:06:23.975Z</time></trkpt><trkpt lat="44.3388317" lon="8.4203481"><ele>122.66666666666666</ele><time>2026-04-04T09:06:24.975Z</time></trkpt><trkpt lat="44.3389855" lon="8.4203111"><ele>122.33333333333333</ele><time>2026-04-04T09:06:25.974Z</time></trkpt><trkpt lat="44.3391599" lon="8.4203036"><ele>122.0</ele><time>2026-04-04T09:06:26.975Z</time></trkpt><trkpt lat="44.3393314" lon="8.4202973"><ele>122.0</ele><time>2026-04-04T09:06:27.975Z</time></trkpt><trkpt lat="44.3394963" lon="8.4202742"><ele>122.0</ele><time>2026-04-04T09:06:28.975Z</time></trkpt><trkpt lat="44.3396483" lon="8.4202232"><ele>122.0</ele><time>2026-04-04T09:06:29.975Z</time></trkpt><trkpt lat="44.3397887" lon="8.4201366"><ele>126.66666666666666</ele><time>2026-04-04T09:06:30.974Z</time></trkpt><trkpt lat="44.3399237" lon="8.4200043"><ele>131.33333333333334</ele><time>2026-04-04T09:06:31.975Z</time></trkpt><trkpt lat="44.3400417" lon="8.4198389"><ele>136.0</ele><time>2026-04-04T09:06:32.974Z</time></trkpt><trkpt lat="44.3401593" lon="8.4197012"><ele>134.0</ele><time>2026-04-04T09:06:33.975Z</time></trkpt><trkpt lat="44.340266" lon="8.4195966"><ele>132.0</ele><time>2026-04-04T09:06:34.975Z</time></trkpt><trkpt lat="44.3403876" lon="8.4195296"><ele>130.0</ele><time>2026-04-04T09:06:35.974Z</time></trkpt><trkpt lat="44.340512" lon="8.4195012"><ele>128.0</ele><time>2026-04-04T09:06:36.975Z</time></trkpt><trkpt lat="44.3406474" lon="8.4195446"><ele>128.0</ele><time>2026-04-04T09:06:37.975Z</time></trkpt><trkpt lat="44.3407925" lon="8.4195981"><ele>128.0</ele><time>2026-04-04T09:06:38.975Z</time></trkpt><trkpt lat="44.3409407" lon="8.4196128"><ele>128.0</ele><time>2026-04-04T09:06:39.975Z</time></trkpt><trkpt lat="44.3410888" lon="8.4195714"><ele>128.0</ele><time>2026-04-04T09:06:40.975Z</time></trkpt><trkpt lat="44.3412583" lon="8.4194956"><ele>128.0</ele><time>2026-04-04T09:06:41.975Z</time></trkpt><trkpt lat="44.3414349" lon="8.4194003"><ele>128.0</ele><time>2026-04-04T09:06:42.975Z</time></trkpt><trkpt lat="44.3416113" lon="8.4193123"><ele>130.66666666666666</ele><time>2026-04-04T09:06:43.974Z</time></trkpt><trkpt lat="44.3417774" lon="8.4192105"><ele>133.33333333333334</ele><time>2026-04-04T09:06:44.975Z</time></trkpt><trkpt lat="44.3419351" lon="8.4191035"><ele>136.0</ele><time>2026-04-04T09:06:45.974Z</time></trkpt><trkpt lat="44.34208" lon="8.4189965"><ele>135.33333333333334</ele><time>2026-04-04T09:06:46.974Z</time></trkpt><trkpt lat="44.3422162" lon="8.4188885"><ele>134.66666666666666</ele><time>2026-04-04T09:06:47.974Z</time></trkpt><trkpt lat="44.3423551" lon="8.4188004"><ele>134.0</ele><time>2026-04-04T09:06:48.975Z</time></trkpt><trkpt lat="44.3424894" lon="8.4187011"><ele>134.0</ele><time>2026-04-04T09:06:49.975Z</time></trkpt><trkpt lat="44.3426166" lon="8.418577"><ele>134.0</ele><time>2026-04-04T09:06:50.974Z</time></trkpt><trkpt lat="44.3427452" lon="8.4184384"><ele>134.0</ele><time>2026-04-04T09:06:51.975Z</time></trkpt><trkpt lat="44.3428797" lon="8.4182924"><ele>134.0</ele><time>2026-04-04T09:06:52.974Z</time></trkpt><trkpt lat="44.3430193" lon="8.4181469"><ele>134.0</ele><time>2026-04-04T09:06:53.975Z</time></trkpt><trkpt lat="44.3431492" lon="8.4180082"><ele>134.0</ele><time>2026-04-04T09:06:54.975Z</time></trkpt><trkpt lat="44.343295" lon="8.4178727"><ele>134.66666666666666</ele><time>2026-04-04T09:06:55.975Z</time></trkpt><trkpt lat="44.3434325" lon="8.4177386"><ele>135.33333333333334</ele><time>2026-04-04T09:06:56.975Z</time></trkpt><trkpt lat="44.3435789" lon="8.4176047"><ele>136.0</ele><time>2026-04-04T09:06:57.975Z</time></trkpt><trkpt lat="44.3437198" lon="8.417476"><ele>136.0</ele><time>2026-04-04T09:06:58.974Z</time></trkpt><trkpt lat="44.3438627" lon="8.4173394"><ele>136.0</ele><time>2026-04-04T09:06:59.975Z</time></trkpt><trkpt lat="44.3440004" lon="8.4172042"><ele>136.0</ele><time>2026-04-04T09:07:00.975Z</time></trkpt><trkpt lat="44.3441346" lon="8.4170741"><ele>135.33333333333334</ele><time>2026-04-04T09:07:01.974Z</time></trkpt><trkpt lat="44.3442837" lon="8.4169643"><ele>134.66666666666666</ele><time>2026-04-04T09:07:02.975Z</time></trkpt><trkpt lat="44.3444549" lon="8.4168991"><ele>134.0</ele><time>2026-04-04T09:07:03.975Z</time></trkpt><trkpt lat="44.3446494" lon="8.4168729"><ele>135.0</ele><time>2026-04-04T09:07:04.975Z</time></trkpt><trkpt lat="44.3448485" lon="8.416865"><ele>136.0</ele><time>2026-04-04T09:07:05.974Z</time></trkpt><trkpt lat="44.3450479" lon="8.4168415"><ele>137.0</ele><time>2026-04-04T09:07:06.975Z</time></trkpt><trkpt lat="44.3452372" lon="8.4168183"><ele>137.0</ele><time>2026-04-04T09:07:07.975Z</time></trkpt><trkpt lat="44.3454139" lon="8.4167985"><ele>137.0</ele><time>2026-04-04T09:07:08.975Z</time></trkpt><trkpt lat="44.3455881" lon="8.4167808"><ele>137.0</ele><time>2026-04-04T09:07:09.975Z</time></trkpt><trkpt lat="44.3457569" lon="8.416739"><ele>139.0</ele><time>2026-04-04T09:07:10.974Z</time></trkpt><trkpt lat="44.3459244" lon="8.4166624"><ele>141.0</ele><time>2026-04-04T09:07:11.975Z</time></trkpt><trkpt lat="44.3460939" lon="8.4165706"><ele>143.0</ele><time>2026-04-04T09:07:12.974Z</time></trkpt><trkpt lat="44.3462549" lon="8.4164467"><ele>143.66666666666666</ele><time>2026-04-04T09:07:13.975Z</time></trkpt><trkpt lat="44.3463936" lon="8.4163155"><ele>144.33333333333334</ele><time>2026-04-04T09:07:14.974Z</time></trkpt><trkpt lat="44.3465191" lon="8.4161813"><ele>145.0</ele><time>2026-04-04T09:07:15.974Z</time></trkpt><trkpt lat="44.3466237" lon="8.4160241"><ele>145.0</ele><time>2026-04-04T09:07:16.975Z</time></trkpt><trkpt lat="44.3467136" lon="8.4158459"><ele>145.0</ele><time>2026-04-04T09:07:17.974Z</time></trkpt><trkpt lat="44.3467813" lon="8.4156461"><ele>145.0</ele><time>2026-04-04T09:07:18.974Z</time></trkpt><trkpt lat="44.3468264" lon="8.4154307"><ele>143.0</ele><time>2026-04-04T09:07:19.974Z</time></trkpt><trkpt lat="44.3468487" lon="8.4152104"><ele>141.0</ele><time>2026-04-04T09:07:20.975Z</time></trkpt><trkpt lat="44.3468595" lon="8.4149818"><ele>139.0</ele><time>2026-04-04T09:07:21.974Z</time></trkpt><trkpt lat="44.3468881" lon="8.4147771"><ele>138.75</ele><time>2026-04-04T09:07:22.975Z</time></trkpt><trkpt lat="44.3469346" lon="8.4146033"><ele>138.5</ele><time>2026-04-04T09:07:23.974Z</time></trkpt><trkpt lat="44.3469945" lon="8.4144602"><ele>138.25</ele><time>2026-04-04T09:07:24.975Z</time></trkpt><trkpt lat="44.3470782" lon="8.414321"><ele>138.0</ele><time>2026-04-04T09:07:25.975Z</time></trkpt><trkpt lat="44.347178" lon="8.4141903"><ele>140.0</ele><time>2026-04-04T09:07:26.974Z</time></trkpt><trkpt lat="44.3472916" lon="8.4140827"><ele>142.0</ele><time>2026-04-04T09:07:27.975Z</time></trkpt><trkpt lat="44.3474254" lon="8.4139922"><ele>144.0</ele><time>2026-04-04T09:07:28.975Z</time></trkpt><trkpt lat="44.3475642" lon="8.4139345"><ele>146.0</ele><time>2026-04-04T09:07:29.975Z</time></trkpt><trkpt lat="44.347714" lon="8.4139081"><ele>146.0</ele><time>2026-04-04T09:07:30.975Z</time></trkpt><trkpt lat="44.3478688" lon="8.4138944"><ele>146.0</ele><time>2026-04-04T09:07:31.975Z</time></trkpt><trkpt lat="44.348024" lon="8.4138991"><ele>146.0</ele><time>2026-04-04T09:07:32.975Z</time></trkpt><trkpt lat="44.3481769" lon="8.4139124"><ele>150.0</ele><time>2026-04-04T09:07:33.975Z</time></trkpt><trkpt lat="44.3483185" lon="8.4139351"><ele>154.0</ele><time>2026-04-04T09:07:34.975Z</time></trkpt><trkpt lat="44.3484613" lon="8.4139474"><ele>158.0</ele><time>2026-04-04T09:07:35.975Z</time></trkpt><trkpt lat="44.3485899" lon="8.4139599"><ele>162.0</ele><time>2026-04-04T09:07:36.975Z</time></trkpt><trkpt lat="44.3487289" lon="8.4139594"><ele>162.0</ele><time>2026-04-04T09:07:37.974Z</time></trkpt><trkpt lat="44.3488644" lon="8.4139462"><ele>162.0</ele><time>2026-04-04T09:07:38.974Z</time></trkpt><trkpt lat="44.3489936" lon="8.4139393"><ele>162.0</ele><time>2026-04-04T09:07:39.975Z</time></trkpt><trkpt lat="44.3491106" lon="8.4139642"><ele>162.0</ele><time>2026-04-04T09:07:40.975Z</time></trkpt><trkpt lat="44.3492089" lon="8.4140106"><ele>163.75</ele><time>2026-04-04T09:07:41.974Z</time></trkpt><trkpt lat="44.34927" lon="8.4141052"><ele>165.5</ele><time>2026-04-04T09:07:42.975Z</time></trkpt><trkpt lat="44.3493304" lon="8.4142562"><ele>167.25</ele><time>2026-04-04T09:07:43.975Z</time></trkpt><trkpt lat="44.3493866" lon="8.4144199"><ele>169.0</ele><time>2026-04-04T09:07:44.975Z</time></trkpt><trkpt lat="44.349466" lon="8.4145812"><ele>172.66666666666669</ele><time>2026-04-04T09:07:45.975Z</time></trkpt><trkpt lat="44.3495615" lon="8.4147534"><ele>176.33333333333334</ele><time>2026-04-04T09:07:46.975Z</time></trkpt><trkpt lat="44.3496862" lon="8.4149228"><ele>180.0</ele><time>2026-04-04T09:07:47.975Z</time></trkpt><trkpt lat="44.3498441" lon="8.4150923"><ele>180.0</ele><time>2026-04-04T09:07:48.975Z</time></trkpt><trkpt lat="44.3500422" lon="8.4152726"><ele>180.0</ele><time>2026-04-04T09:07:49.975Z</time></trkpt><trkpt lat="44.3502726" lon="8.4154748"><ele>185.0</ele><time>2026-04-04T09:07:50.974Z</time></trkpt><trkpt lat="44.3505398" lon="8.4156763"><ele>190.0</ele><time>2026-04-04T09:07:51.975Z</time></trkpt><trkpt lat="44.3508188" lon="8.4158526"><ele>190.0</ele><time>2026-04-04T09:07:52.975Z</time></trkpt><trkpt lat="44.3510829" lon="8.4159998"><ele>190.0</ele><time>2026-04-04T09:07:53.974Z</time></trkpt><trkpt lat="44.3513176" lon="8.4161137"><ele>190.66666666666669</ele><time>2026-04-04T09:07:54.975Z</time></trkpt><trkpt lat="44.3515198" lon="8.4162012"><ele>191.33333333333334</ele><time>2026-04-04T09:07:55.974Z</time></trkpt><trkpt lat="44.3516869" lon="8.4162634"><ele>192.0</ele><time>2026-04-04T09:07:56.975Z</time></trkpt><trkpt lat="44.3518319" lon="8.4163147"><ele>192.0</ele><time>2026-04-04T09:07:57.975Z</time></trkpt><trkpt lat="44.3519424" lon="8.4163407"><ele>192.0</ele><time>2026-04-04T09:07:58.975Z</time></trkpt><trkpt lat="44.3520359" lon="8.4163246"><ele>192.0</ele><time>2026-04-04T09:07:59.975Z</time></trkpt><trkpt lat="44.3521056" lon="8.4162107"><ele>192.0</ele><time>2026-04-04T09:08:00.974Z</time></trkpt><trkpt lat="44.3521589" lon="8.4160566"><ele>192.0</ele><time>2026-04-04T09:08:01.974Z</time></trkpt><trkpt lat="44.3521905" lon="8.4158798"><ele>192.0</ele><time>2026-04-04T09:08:02.975Z</time></trkpt><trkpt lat="44.3522022" lon="8.4157008"><ele>192.0</ele><time>2026-04-04T09:08:03.975Z</time></trkpt><trkpt lat="44.3521524" lon="8.4155309"><ele>192.0</ele><time>2026-04-04T09:08:04.974Z</time></trkpt><trkpt lat="44.3520322" lon="8.4153758"><ele>192.0</ele><time>2026-04-04T09:08:05.974Z</time></trkpt><trkpt lat="44.3517355" lon="8.4151784"><ele>190.5</ele><time>2026-04-04T09:08:06.975Z</time></trkpt><trkpt lat="44.3515084" lon="8.4150238"><ele>189.0</ele><time>2026-04-04T09:08:07.975Z</time></trkpt><trkpt lat="44.3513294" lon="8.414877"><ele>189.0</ele><time>2026-04-04T09:08:08.975Z</time></trkpt><trkpt lat="44.3511782" lon="8.4147082"><ele>189.0</ele><time>2026-04-04T09:08:09.975Z</time></trkpt><trkpt lat="44.3510639" lon="8.4145247"><ele>189.0</ele><time>2026-04-04T09:08:10.975Z</time></trkpt><trkpt lat="44.35098" lon="8.4143261"><ele>196.33333333333331</ele><time>2026-04-04T09:08:11.975Z</time></trkpt><trkpt lat="44.3508785" lon="8.4141475"><ele>203.66666666666666</ele><time>2026-04-04T09:08:12.974Z</time></trkpt><trkpt lat="44.3507452" lon="8.4140036"><ele>211.0</ele><time>2026-04-04T09:08:13.975Z</time></trkpt><trkpt lat="44.3506055" lon="8.4138839"><ele>209.25</ele><time>2026-04-04T09:08:14.974Z</time></trkpt><trkpt lat="44.3504861" lon="8.4137678"><ele>207.5</ele><time>2026-04-04T09:08:15.975Z</time></trkpt><trkpt lat="44.3503802" lon="8.4136538"><ele>205.75</ele><time>2026-04-04T09:08:16.975Z</time></trkpt><trkpt lat="44.350283" lon="8.4135177"><ele>204.0</ele><time>2026-04-04T09:08:17.975Z</time></trkpt><trkpt lat="44.3502184" lon="8.4133233"><ele>204.0</ele><time>2026-04-04T09:08:18.975Z</time></trkpt><trkpt lat="44.3501358" lon="8.4131168"><ele>204.0</ele><time>2026-04-04T09:08:19.974Z</time></trkpt><trkpt lat="44.3500324" lon="8.4129222"><ele>204.0</ele><time>2026-04-04T09:08:20.975Z</time></trkpt><trkpt lat="44.3499207" lon="8.4127555"><ele>207.0</ele><time>2026-04-04T09:08:21.974Z</time></trkpt><trkpt lat="44.3498204" lon="8.4126218"><ele>210.0</ele><time>2026-04-04T09:08:22.975Z</time></trkpt><trkpt lat="44.3497363" lon="8.4125026"><ele>212.99999999999997</ele><time>2026-04-04T09:08:23.975Z</time></trkpt><trkpt lat="44.3496811" lon="8.4124058"><ele>216.0</ele><time>2026-04-04T09:08:24.974Z</time></trkpt><trkpt lat="44.3496518" lon="8.4122852"><ele>219.0</ele><time>2026-04-04T09:08:25.975Z</time></trkpt><trkpt lat="44.349649" lon="8.41217"><ele>215.16666666666666</ele><time>2026-04-04T09:08:26.975Z</time></trkpt><trkpt lat="44.349673" lon="8.4120528"><ele>211.33333333333331</ele><time>2026-04-04T09:08:27.975Z</time></trkpt><trkpt lat="44.3497258" lon="8.4119625"><ele>207.5</ele><time>2026-04-04T09:08:28.975Z</time></trkpt><trkpt lat="44.3497911" lon="8.4118985"><ele>203.66666666666666</ele><time>2026-04-04T09:08:29.975Z</time></trkpt><trkpt lat="44.3498641" lon="8.4118658"><ele>199.83333333333331</ele><time>2026-04-04T09:08:30.975Z</time></trkpt><trkpt lat="44.3499586" lon="8.4118733"><ele>196.0</ele><time>2026-04-04T09:08:31.975Z</time></trkpt><trkpt lat="44.3500729" lon="8.4119078"><ele>196.0</ele><time>2026-04-04T09:08:32.974Z</time></trkpt><trkpt lat="44.3502389" lon="8.412007"><ele>196.0</ele><time>2026-04-04T09:08:33.975Z</time></trkpt><trkpt lat="44.3504532" lon="8.4122487"><ele>205.5</ele><time>2026-04-04T09:08:34.975Z</time></trkpt><trkpt lat="44.350676" lon="8.4125209"><ele>215.0</ele><time>2026-04-04T09:08:35.974Z</time></trkpt><trkpt lat="44.3508873" lon="8.4127277"><ele>215.0</ele><time>2026-04-04T09:08:36.974Z</time></trkpt><trkpt lat="44.3511126" lon="8.4129413"><ele>215.0</ele><time>2026-04-04T09:08:37.975Z</time></trkpt><trkpt lat="44.3513128" lon="8.4130706"><ele>224.66666666666669</ele><time>2026-04-04T09:08:38.974Z</time></trkpt><trkpt lat="44.351508" lon="8.4130827"><ele>234.33333333333331</ele><time>2026-04-04T09:08:39.975Z</time></trkpt><trkpt lat="44.3517001" lon="8.4130749"><ele>244.0</ele><time>2026-04-04T09:08:40.974Z</time></trkpt><trkpt lat="44.3518855" lon="8.4130719"><ele>244.0</ele><time>2026-04-04T09:08:41.974Z</time></trkpt><trkpt lat="44.3520812" lon="8.4131021"><ele>244.0</ele><time>2026-04-04T09:08:42.975Z</time></trkpt><trkpt lat="44.3522837" lon="8.4131483"><ele>244.0</ele><time>2026-04-04T09:08:43.974Z</time></trkpt><trkpt lat="44.3525058" lon="8.4131891"><ele>245.66666666666666</ele><time>2026-04-04T09:08:44.975Z</time></trkpt><trkpt lat="44.3527247" lon="8.4132308"><ele>247.33333333333331</ele><time>2026-04-04T09:08:45.975Z</time></trkpt><trkpt lat="44.3529456" lon="8.413298"><ele>249.0</ele><time>2026-04-04T09:08:46.975Z</time></trkpt><trkpt lat="44.3531469" lon="8.4133852"><ele>249.0</ele><time>2026-04-04T09:08:47.974Z</time></trkpt><trkpt lat="44.3533223" lon="8.4134861"><ele>249.0</ele><time>2026-04-04T09:08:48.975Z</time></trkpt><trkpt lat="44.3534754" lon="8.4135898"><ele>249.0</ele><time>2026-04-04T09:08:49.975Z</time></trkpt><trkpt lat="44.3536244" lon="8.4137261"><ele>252.66666666666669</ele><time>2026-04-04T09:08:50.975Z</time></trkpt><trkpt lat="44.3537855" lon="8.4138301"><ele>256.33333333333337</ele><time>2026-04-04T09:08:51.975Z</time></trkpt><trkpt lat="44.3539402" lon="8.4138277"><ele>260.0</ele><time>2026-04-04T09:08:52.975Z</time></trkpt><trkpt lat="44.3540994" lon="8.4137562"><ele>262.6666666666667</ele><time>2026-04-04T09:08:53.975Z</time></trkpt><trkpt lat="44.3542514" lon="8.4136338"><ele>265.3333333333333</ele><time>2026-04-04T09:08:54.975Z</time></trkpt><trkpt lat="44.354399" lon="8.4134436"><ele>268.0</ele><time>2026-04-04T09:08:55.974Z</time></trkpt><trkpt lat="44.3545428" lon="8.413206"><ele>275.0</ele><time>2026-04-04T09:08:56.975Z</time></trkpt><trkpt lat="44.3546807" lon="8.4129233"><ele>282.0</ele><time>2026-04-04T09:08:57.974Z</time></trkpt><trkpt lat="44.3548281" lon="8.4126053"><ele>282.0</ele><time>2026-04-04T09:08:58.974Z</time></trkpt><trkpt lat="44.3549649" lon="8.4122938"><ele>282.0</ele><time>2026-04-04T09:08:59.974Z</time></trkpt><trkpt lat="44.3550981" lon="8.4120173"><ele>279.6666666666667</ele><time>2026-04-04T09:09:00.974Z</time></trkpt><trkpt lat="44.3552236" lon="8.4117946"><ele>277.33333333333337</ele><time>2026-04-04T09:09:01.973Z</time></trkpt><trkpt lat="44.3553443" lon="8.4116154"><ele>275.0</ele><time>2026-04-04T09:09:02.974Z</time></trkpt><trkpt lat="44.3554697" lon="8.4114873"><ele>280.6</ele><time>2026-04-04T09:09:03.974Z</time></trkpt><trkpt lat="44.3555862" lon="8.4113887"><ele>286.2</ele><time>2026-04-04T09:09:04.974Z</time></trkpt><trkpt lat="44.3556878" lon="8.4113086"><ele>291.8</ele><time>2026-04-04T09:09:05.973Z</time></trkpt><trkpt lat="44.3557473" lon="8.4112069"><ele>297.4</ele><time>2026-04-04T09:09:06.974Z</time></trkpt><trkpt lat="44.3557867" lon="8.4110939"><ele>303.0</ele><time>2026-04-04T09:09:07.974Z</time></trkpt><trkpt lat="44.3557954" lon="8.410972"><ele>303.2</ele><time>2026-04-04T09:09:08.974Z</time></trkpt><trkpt lat="44.3557837" lon="8.4108665"><ele>303.4</ele><time>2026-04-04T09:09:09.974Z</time></trkpt><trkpt lat="44.355741" lon="8.4107679"><ele>303.59999999999997</ele><time>2026-04-04T09:09:10.974Z</time></trkpt><trkpt lat="44.3556632" lon="8.4106765"><ele>303.8</ele><time>2026-04-04T09:09:11.974Z</time></trkpt><trkpt lat="44.3555382" lon="8.4106011"><ele>304.0</ele><time>2026-04-04T09:09:12.973Z</time></trkpt><trkpt lat="44.3553633" lon="8.4105493"><ele>297.0</ele><time>2026-04-04T09:09:13.974Z</time></trkpt><trkpt lat="44.3551214" lon="8.4105477"><ele>290.0</ele><time>2026-04-04T09:09:14.973Z</time></trkpt><trkpt lat="44.3548854" lon="8.410539"><ele>288.33333333333337</ele><time>2026-04-04T09:09:15.974Z</time></trkpt><trkpt lat="44.3546677" lon="8.4105027"><ele>286.6666666666667</ele><time>2026-04-04T09:09:16.974Z</time></trkpt><trkpt lat="44.3544856" lon="8.4104189"><ele>285.0</ele><time>2026-04-04T09:09:17.973Z</time></trkpt><trkpt lat="44.3543736" lon="8.4102991"><ele>285.0</ele><time>2026-04-04T09:09:18.974Z</time></trkpt><trkpt lat="44.3543275" lon="8.4101523"><ele>285.0</ele><time>2026-04-04T09:09:19.974Z</time></trkpt><trkpt lat="44.3543393" lon="8.4099889"><ele>285.0</ele><time>2026-04-04T09:09:20.973Z</time></trkpt><trkpt lat="44.3543884" lon="8.4098309"><ele>285.0</ele><time>2026-04-04T09:09:21.974Z</time></trkpt><trkpt lat="44.3544774" lon="8.4096902"><ele>281.6666666666667</ele><time>2026-04-04T09:09:22.974Z</time></trkpt><trkpt lat="44.3546018" lon="8.4095519"><ele>278.33333333333337</ele><time>2026-04-04T09:09:23.974Z</time></trkpt><trkpt lat="44.3547419" lon="8.4093799"><ele>275.0</ele><time>2026-04-04T09:09:24.973Z</time></trkpt><trkpt lat="44.354896" lon="8.4091431"><ele>285.5</ele><time>2026-04-04T09:09:25.973Z</time></trkpt><trkpt lat="44.355044" lon="8.4088567"><ele>296.0</ele><time>2026-04-04T09:09:26.973Z</time></trkpt><trkpt lat="44.355166" lon="8.4085398"><ele>296.0</ele><time>2026-04-04T09:09:27.974Z</time></trkpt><trkpt lat="44.3552636" lon="8.4082068"><ele>296.0</ele><time>2026-04-04T09:09:28.973Z</time></trkpt><trkpt lat="44.3553602" lon="8.4078657"><ele>294.0</ele><time>2026-04-04T09:09:29.974Z</time></trkpt><trkpt lat="44.3554723" lon="8.4075382"><ele>292.0</ele><time>2026-04-04T09:09:30.974Z</time></trkpt><trkpt lat="44.3555868" lon="8.4072589"><ele>301.0</ele><time>2026-04-04T09:09:31.974Z</time></trkpt><trkpt lat="44.3556938" lon="8.407019"><ele>310.0</ele><time>2026-04-04T09:09:32.974Z</time></trkpt><trkpt lat="44.3557938" lon="8.4068047"><ele>319.0</ele><time>2026-04-04T09:09:33.974Z</time></trkpt><trkpt lat="44.355889" lon="8.4066198"><ele>319.0</ele><time>2026-04-04T09:09:34.973Z</time></trkpt><trkpt lat="44.3559807" lon="8.4064618"><ele>319.0</ele><time>2026-04-04T09:09:35.973Z</time></trkpt><trkpt lat="44.3560489" lon="8.4063219"><ele>319.0</ele><time>2026-04-04T09:09:36.974Z</time></trkpt><trkpt lat="44.3560825" lon="8.4061781"><ele>319.0</ele><time>2026-04-04T09:09:37.974Z</time></trkpt><trkpt lat="44.3560769" lon="8.4060346"><ele>322.0</ele><time>2026-04-04T09:09:38.974Z</time></trkpt><trkpt lat="44.3560484" lon="8.405894"><ele>325.0</ele><time>2026-04-04T09:09:39.974Z</time></trkpt><trkpt lat="44.3560013" lon="8.4057422"><ele>328.0</ele><time>2026-04-04T09:09:40.973Z</time></trkpt><trkpt lat="44.3559261" lon="8.4056157"><ele>331.0</ele><time>2026-04-04T09:09:41.973Z</time></trkpt><trkpt lat="44.3558227" lon="8.4054983"><ele>336.3333333333333</ele><time>2026-04-04T09:09:42.973Z</time></trkpt><trkpt lat="44.3556743" lon="8.4053738"><ele>341.6666666666667</ele><time>2026-04-04T09:09:43.974Z</time></trkpt><trkpt lat="44.3554848" lon="8.4052349"><ele>347.0</ele><time>2026-04-04T09:09:44.974Z</time></trkpt><trkpt lat="44.3552141" lon="8.4050847"><ele>347.0</ele><time>2026-04-04T09:09:45.973Z</time></trkpt><trkpt lat="44.3549286" lon="8.4049197"><ele>347.0</ele><time>2026-04-04T09:09:46.973Z</time></trkpt><trkpt lat="44.3546894" lon="8.404765"><ele>346.6666666666667</ele><time>2026-04-04T09:09:47.974Z</time></trkpt><trkpt lat="44.3545021" lon="8.4046109"><ele>346.3333333333333</ele><time>2026-04-04T09:09:48.973Z</time></trkpt><trkpt lat="44.3543494" lon="8.404444"><ele>346.0</ele><time>2026-04-04T09:09:49.974Z</time></trkpt><trkpt lat="44.354239" lon="8.4042439"><ele>346.0</ele><time>2026-04-04T09:09:50.974Z</time></trkpt><trkpt lat="44.354165" lon="8.4039895"><ele>346.0</ele><time>2026-04-04T09:09:51.973Z</time></trkpt><trkpt lat="44.3541122" lon="8.4036839"><ele>346.0</ele><time>2026-04-04T09:09:52.974Z</time></trkpt><trkpt lat="44.3540731" lon="8.4033207"><ele>355.5</ele><time>2026-04-04T09:09:53.974Z</time></trkpt><trkpt lat="44.3540314" lon="8.4029164"><ele>365.0</ele><time>2026-04-04T09:09:54.974Z</time></trkpt><trkpt lat="44.3539751" lon="8.4024853"><ele>371.0</ele><time>2026-04-04T09:09:55.974Z</time></trkpt><trkpt lat="44.3539055" lon="8.4020679"><ele>377.0</ele><time>2026-04-04T09:09:56.974Z</time></trkpt><trkpt lat="44.3538336" lon="8.4017037"><ele>370.6666666666667</ele><time>2026-04-04T09:09:57.974Z</time></trkpt><trkpt lat="44.353764" lon="8.4013966"><ele>364.3333333333333</ele><time>2026-04-04T09:09:58.974Z</time></trkpt><trkpt lat="44.353707" lon="8.4011349"><ele>358.0</ele><time>2026-04-04T09:09:59.973Z</time></trkpt><trkpt lat="44.3536612" lon="8.4009088"><ele>358.0</ele><time>2026-04-04T09:10:00.974Z</time></trkpt><trkpt lat="44.3536174" lon="8.4006909"><ele>358.0</ele><time>2026-04-04T09:10:01.974Z</time></trkpt><trkpt lat="44.3535801" lon="8.4004978"><ele>358.0</ele><time>2026-04-04T09:10:02.974Z</time></trkpt><trkpt lat="44.3535697" lon="8.4003311"><ele>358.0</ele><time>2026-04-04T09:10:03.973Z</time></trkpt><trkpt lat="44.3535937" lon="8.4001768"><ele>357.25</ele><time>2026-04-04T09:10:04.974Z</time></trkpt><trkpt lat="44.3536527" lon="8.4000491"><ele>356.5</ele><time>2026-04-04T09:10:05.974Z</time></trkpt><trkpt lat="44.3537532" lon="8.3999352"><ele>355.75</ele><time>2026-04-04T09:10:06.974Z</time></trkpt><trkpt lat="44.3538723" lon="8.3998035"><ele>355.0</ele><time>2026-04-04T09:10:07.974Z</time></trkpt><trkpt lat="44.3539746" lon="8.3996325"><ele>362.0</ele><time>2026-04-04T09:10:08.974Z</time></trkpt><trkpt lat="44.3540312" lon="8.399452"><ele>369.0</ele><time>2026-04-04T09:10:09.974Z</time></trkpt><trkpt lat="44.354031" lon="8.3992765"><ele>376.0</ele><time>2026-04-04T09:10:10.974Z</time></trkpt><trkpt lat="44.3539939" lon="8.3991134"><ele>383.0</ele><time>2026-04-04T09:10:11.974Z</time></trkpt><trkpt lat="44.3539599" lon="8.3989576"><ele>378.79999999999995</ele><time>2026-04-04T09:10:12.974Z</time></trkpt><trkpt lat="44.3539642" lon="8.3988149"><ele>374.6</ele><time>2026-04-04T09:10:13.973Z</time></trkpt><trkpt lat="44.3540184" lon="8.3986947"><ele>370.4</ele><time>2026-04-04T09:10:14.974Z</time></trkpt><trkpt lat="44.3540977" lon="8.398635"><ele>366.20000000000005</ele><time>2026-04-04T09:10:15.973Z</time></trkpt><trkpt lat="44.3541962" lon="8.398632"><ele>362.0</ele><time>2026-04-04T09:10:16.974Z</time></trkpt><trkpt lat="44.3543122" lon="8.3987119"><ele>369.0</ele><time>2026-04-04T09:10:17.974Z</time></trkpt><trkpt lat="44.3544149" lon="8.3988784"><ele>376.0</ele><time>2026-04-04T09:10:18.974Z</time></trkpt><trkpt lat="44.3545282" lon="8.3990965"><ele>383.0</ele><time>2026-04-04T09:10:19.974Z</time></trkpt><trkpt lat="44.3546552" lon="8.3993422"><ele>382.0</ele><time>2026-04-04T09:10:20.973Z</time></trkpt><trkpt lat="44.3547973" lon="8.3995672"><ele>381.0</ele><time>2026-04-04T09:10:21.974Z</time></trkpt><trkpt lat="44.354947" lon="8.3997437"><ele>380.0</ele><time>2026-04-04T09:10:22.974Z</time></trkpt><trkpt lat="44.3550944" lon="8.3998651"><ele>386.0</ele><time>2026-04-04T09:10:23.974Z</time></trkpt><trkpt lat="44.3552319" lon="8.3999512"><ele>392.0</ele><time>2026-04-04T09:10:24.973Z</time></trkpt><trkpt lat="44.3553615" lon="8.3999866"><ele>398.0</ele><time>2026-04-04T09:10:25.974Z</time></trkpt><trkpt lat="44.355487" lon="8.4000067"><ele>404.0</ele><time>2026-04-04T09:10:26.973Z</time></trkpt><trkpt lat="44.3556102" lon="8.3999601"><ele>406.75</ele><time>2026-04-04T09:10:27.974Z</time></trkpt><trkpt lat="44.3557256" lon="8.3998691"><ele>409.5</ele><time>2026-04-04T09:10:28.974Z</time></trkpt><trkpt lat="44.3558386" lon="8.3997374"><ele>412.25</ele><time>2026-04-04T09:10:29.973Z</time></trkpt><trkpt lat="44.3559411" lon="8.3995897"><ele>415.0</ele><time>2026-04-04T09:10:30.973Z</time></trkpt><trkpt lat="44.356041" lon="8.3994364"><ele>414.25</ele><time>2026-04-04T09:10:31.973Z</time></trkpt><trkpt lat="44.3561376" lon="8.3993289"><ele>413.5</ele><time>2026-04-04T09:10:32.973Z</time></trkpt><trkpt lat="44.3562375" lon="8.3992608"><ele>412.75</ele><time>2026-04-04T09:10:33.974Z</time></trkpt><trkpt lat="44.3563369" lon="8.3992449"><ele>412.0</ele><time>2026-04-04T09:10:34.974Z</time></trkpt><trkpt lat="44.3564539" lon="8.399278"><ele>412.0</ele><time>2026-04-04T09:10:35.973Z</time></trkpt><trkpt lat="44.3565935" lon="8.3993304"><ele>412.0</ele><time>2026-04-04T09:10:36.973Z</time></trkpt><trkpt lat="44.3567528" lon="8.3993669"><ele>412.0</ele><time>2026-04-04T09:10:37.974Z</time></trkpt><trkpt lat="44.3569188" lon="8.3993486"><ele>412.0</ele><time>2026-04-04T09:10:38.974Z</time></trkpt><trkpt lat="44.3570861" lon="8.3992818"><ele>412.0</ele><time>2026-04-04T09:10:39.974Z</time></trkpt><trkpt lat="44.3572403" lon="8.3991876"><ele>412.0</ele><time>2026-04-04T09:10:40.974Z</time></trkpt><trkpt lat="44.3573952" lon="8.3991047"><ele>417.33333333333337</ele><time>2026-04-04T09:10:41.974Z</time></trkpt><trkpt lat="44.3575385" lon="8.3990524"><ele>422.66666666666663</ele><time>2026-04-04T09:10:42.974Z</time></trkpt><trkpt lat="44.3576845" lon="8.3990571"><ele>428.0</ele><time>2026-04-04T09:10:43.974Z</time></trkpt><trkpt lat="44.357835" lon="8.3991186"><ele>428.0</ele><time>2026-04-04T09:10:44.974Z</time></trkpt><trkpt lat="44.3579721" lon="8.3992128"><ele>428.0</ele><time>2026-04-04T09:10:45.974Z</time></trkpt><trkpt lat="44.3581103" lon="8.3992714"><ele>428.0</ele><time>2026-04-04T09:10:46.974Z</time></trkpt><trkpt lat="44.3582445" lon="8.3993036"><ele>428.0</ele><time>2026-04-04T09:10:47.974Z</time></trkpt><trkpt lat="44.3583843" lon="8.3992887"><ele>429.0</ele><time>2026-04-04T09:10:48.974Z</time></trkpt><trkpt lat="44.3585377" lon="8.3992684"><ele>430.0</ele><time>2026-04-04T09:10:49.973Z</time></trkpt><trkpt lat="44.3587064" lon="8.399279"><ele>431.0</ele><time>2026-04-04T09:10:50.973Z</time></trkpt><trkpt lat="44.3588771" lon="8.3993179"><ele>431.3333333333333</ele><time>2026-04-04T09:10:51.974Z</time></trkpt><trkpt lat="44.3590591" lon="8.3993893"><ele>431.66666666666663</ele><time>2026-04-04T09:10:52.973Z</time></trkpt><trkpt lat="44.3592459" lon="8.3994929"><ele>432.0</ele><time>2026-04-04T09:10:53.974Z</time></trkpt><trkpt lat="44.3594152" lon="8.3996073"><ele>437.0</ele><time>2026-04-04T09:10:54.973Z</time></trkpt><trkpt lat="44.3595703" lon="8.3997135"><ele>442.0</ele><time>2026-04-04T09:10:55.974Z</time></trkpt><trkpt lat="44.3597038" lon="8.399845"><ele>447.0</ele><time>2026-04-04T09:10:56.974Z</time></trkpt><trkpt lat="44.3598212" lon="8.4000114"><ele>447.0</ele><time>2026-04-04T09:10:57.974Z</time></trkpt><trkpt lat="44.3599281" lon="8.400207"><ele>447.0</ele><time>2026-04-04T09:10:58.974Z</time></trkpt><trkpt lat="44.3600326" lon="8.4004253"><ele>447.0</ele><time>2026-04-04T09:10:59.974Z</time></trkpt><trkpt lat="44.3601397" lon="8.4006504"><ele>453.33333333333337</ele><time>2026-04-04T09:11:00.974Z</time></trkpt><trkpt lat="44.3602328" lon="8.4008758"><ele>459.6666666666667</ele><time>2026-04-04T09:11:01.974Z</time></trkpt><trkpt lat="44.3603114" lon="8.4011089"><ele>466.0</ele><time>2026-04-04T09:11:02.974Z</time></trkpt><trkpt lat="44.360373" lon="8.4013531"><ele>470.0</ele><time>2026-04-04T09:11:03.974Z</time></trkpt><trkpt lat="44.3604059" lon="8.4016305"><ele>474.0</ele><time>2026-04-04T09:11:04.974Z</time></trkpt><trkpt lat="44.3604255" lon="8.4019375"><ele>478.0</ele><time>2026-04-04T09:11:05.974Z</time></trkpt><trkpt lat="44.3604485" lon="8.4022558"><ele>478.0</ele><time>2026-04-04T09:11:06.974Z</time></trkpt><trkpt lat="44.3604813" lon="8.4025731"><ele>478.0</ele><time>2026-04-04T09:11:07.973Z</time></trkpt><trkpt lat="44.3605155" lon="8.4028956"><ele>480.33333333333337</ele><time>2026-04-04T09:11:08.974Z</time></trkpt><trkpt lat="44.36055" lon="8.4032145"><ele>482.66666666666663</ele><time>2026-04-04T09:11:09.974Z</time></trkpt><trkpt lat="44.3605805" lon="8.4035109"><ele>485.0</ele><time>2026-04-04T09:11:10.973Z</time></trkpt><trkpt lat="44.3606068" lon="8.4037648"><ele>486.75</ele><time>2026-04-04T09:11:11.973Z</time></trkpt><trkpt lat="44.3606338" lon="8.4039818"><ele>488.5</ele><time>2026-04-04T09:11:12.973Z</time></trkpt><trkpt lat="44.3606636" lon="8.4041653"><ele>490.25</ele><time>2026-04-04T09:11:13.973Z</time></trkpt><trkpt lat="44.3606969" lon="8.4043441"><ele>492.0</ele><time>2026-04-04T09:11:14.974Z</time></trkpt><trkpt lat="44.3607515" lon="8.4045121"><ele>490.75</ele><time>2026-04-04T09:11:15.974Z</time></trkpt><trkpt lat="44.3608163" lon="8.4046714"><ele>489.5</ele><time>2026-04-04T09:11:16.973Z</time></trkpt><trkpt lat="44.3608856" lon="8.4048227"><ele>488.25</ele><time>2026-04-04T09:11:17.974Z</time></trkpt><trkpt lat="44.3609553" lon="8.4049629"><ele>487.0</ele><time>2026-04-04T09:11:18.973Z</time></trkpt><trkpt lat="44.361026" lon="8.405095"><ele>487.0</ele><time>2026-04-04T09:11:19.973Z</time></trkpt><trkpt lat="44.3611025" lon="8.4052351"><ele>487.0</ele><time>2026-04-04T09:11:20.973Z</time></trkpt><trkpt lat="44.3611947" lon="8.405354"><ele>487.0</ele><time>2026-04-04T09:11:21.974Z</time></trkpt><trkpt lat="44.3612954" lon="8.4054448"><ele>487.0</ele><time>2026-04-04T09:11:22.974Z</time></trkpt><trkpt lat="44.3614052" lon="8.4054933"><ele>493.25</ele><time>2026-04-04T09:11:23.974Z</time></trkpt><trkpt lat="44.3615274" lon="8.4054907"><ele>499.5</ele><time>2026-04-04T09:11:24.974Z</time></trkpt><trkpt lat="44.3616682" lon="8.4054495"><ele>505.75</ele><time>2026-04-04T09:11:25.974Z</time></trkpt><trkpt lat="44.3618227" lon="8.4053882"><ele>512.0</ele><time>2026-04-04T09:11:26.973Z</time></trkpt><trkpt lat="44.3619696" lon="8.4053298"><ele>512.0</ele><time>2026-04-04T09:11:27.974Z</time></trkpt><trkpt lat="44.3621252" lon="8.4052687"><ele>512.0</ele><time>2026-04-04T09:11:28.974Z</time></trkpt><trkpt lat="44.362267" lon="8.4052105"><ele>512.0</ele><time>2026-04-04T09:11:29.974Z</time></trkpt><trkpt lat="44.3624122" lon="8.4051595"><ele>511.25</ele><time>2026-04-04T09:11:30.973Z</time></trkpt><trkpt lat="44.3625479" lon="8.4051172"><ele>510.5</ele><time>2026-04-04T09:11:31.973Z</time></trkpt><trkpt lat="44.3626863" lon="8.4051049"><ele>509.75</ele><time>2026-04-04T09:11:32.974Z</time></trkpt><trkpt lat="44.3628256" lon="8.405144"><ele>509.0</ele><time>2026-04-04T09:11:33.974Z</time></trkpt><trkpt lat="44.3629626" lon="8.4052183"><ele>511.0</ele><time>2026-04-04T09:11:34.973Z</time></trkpt><trkpt lat="44.3630902" lon="8.4053189"><ele>513.0</ele><time>2026-04-04T09:11:35.973Z</time></trkpt><trkpt lat="44.3632027" lon="8.405414"><ele>515.0</ele><time>2026-04-04T09:11:36.974Z</time></trkpt><trkpt lat="44.3633085" lon="8.4054965"><ele>517.0</ele><time>2026-04-04T09:11:37.974Z</time></trkpt><trkpt lat="44.3634054" lon="8.405569"><ele>517.0</ele><time>2026-04-04T09:11:38.973Z</time></trkpt><trkpt lat="44.3634913" lon="8.4056198"><ele>517.0</ele><time>2026-04-04T09:11:39.974Z</time></trkpt><trkpt lat="44.3635699" lon="8.4056482"><ele>517.0</ele><time>2026-04-04T09:11:40.974Z</time></trkpt><trkpt lat="44.3636451" lon="8.4056401"><ele>517.0</ele><time>2026-04-04T09:11:41.974Z</time></trkpt><trkpt lat="44.3637151" lon="8.4056076"><ele>517.0</ele><time>2026-04-04T09:11:42.974Z</time></trkpt><trkpt lat="44.3637691" lon="8.4055503"><ele>517.0</ele><time>2026-04-04T09:11:43.974Z</time></trkpt><trkpt lat="44.363807" lon="8.4054548"><ele>517.0</ele><time>2026-04-04T09:11:44.974Z</time></trkpt><trkpt lat="44.3638302" lon="8.4053157"><ele>517.0</ele><time>2026-04-04T09:11:45.974Z</time></trkpt><trkpt lat="44.3638271" lon="8.4051364"><ele>517.0</ele><time>2026-04-04T09:11:46.973Z</time></trkpt><trkpt lat="44.3638218" lon="8.4049181"><ele>517.0</ele><time>2026-04-04T09:11:47.973Z</time></trkpt><trkpt lat="44.3638352" lon="8.4046906"><ele>524.3333333333334</ele><time>2026-04-04T09:11:48.974Z</time></trkpt><trkpt lat="44.3638815" lon="8.4044791"><ele>531.6666666666666</ele><time>2026-04-04T09:11:49.974Z</time></trkpt><trkpt lat="44.3639543" lon="8.4042799"><ele>539.0</ele><time>2026-04-04T09:11:50.974Z</time></trkpt><trkpt lat="44.3640336" lon="8.4040834"><ele>539.0</ele><time>2026-04-04T09:11:51.973Z</time></trkpt><trkpt lat="44.3641166" lon="8.403884"><ele>539.0</ele><time>2026-04-04T09:11:52.973Z</time></trkpt><trkpt lat="44.3641986" lon="8.4036852"><ele>539.0</ele><time>2026-04-04T09:11:53.974Z</time></trkpt><trkpt lat="44.3642763" lon="8.4034663"><ele>536.0</ele><time>2026-04-04T09:11:54.974Z</time></trkpt><trkpt lat="44.3643653" lon="8.4032347"><ele>533.0</ele><time>2026-04-04T09:11:55.974Z</time></trkpt><trkpt lat="44.3644626" lon="8.4030099"><ele>530.0</ele><time>2026-04-04T09:11:56.974Z</time></trkpt><trkpt lat="44.3645542" lon="8.4028018"><ele>527.0</ele><time>2026-04-04T09:11:57.973Z</time></trkpt><trkpt lat="44.3646334" lon="8.4026078"><ele>524.0</ele><time>2026-04-04T09:11:58.974Z</time></trkpt><trkpt lat="44.3646921" lon="8.4024115"><ele>521.0</ele><time>2026-04-04T09:11:59.974Z</time></trkpt><trkpt lat="44.3647375" lon="8.4022075"><ele>526.0</ele><time>2026-04-04T09:12:00.974Z</time></trkpt><trkpt lat="44.3647658" lon="8.4020209"><ele>531.0</ele><time>2026-04-04T09:12:01.974Z</time></trkpt><trkpt lat="44.3647826" lon="8.4018645"><ele>536.0</ele><time>2026-04-04T09:12:02.974Z</time></trkpt><trkpt lat="44.3647906" lon="8.4017327"><ele>541.0</ele><time>2026-04-04T09:12:03.974Z</time></trkpt><trkpt lat="44.3648115" lon="8.4016133"><ele>546.0</ele><time>2026-04-04T09:12:04.974Z</time></trkpt><trkpt lat="44.3648504" lon="8.4015203"><ele>546.0</ele><time>2026-04-04T09:12:05.974Z</time></trkpt><trkpt lat="44.3648987" lon="8.4014529"><ele>546.0</ele><time>2026-04-04T09:12:06.974Z</time></trkpt><trkpt lat="44.3649568" lon="8.4014167"><ele>546.0</ele><time>2026-04-04T09:12:07.973Z</time></trkpt><trkpt lat="44.36507" lon="8.4015194"><ele>546.0</ele><time>2026-04-04T09:12:09.974Z</time></trkpt><trkpt lat="44.3651026" lon="8.4016431"><ele>546.0</ele><time>2026-04-04T09:12:10.974Z</time></trkpt><trkpt lat="44.3651044" lon="8.4018043"><ele>546.0</ele><time>2026-04-04T09:12:11.973Z</time></trkpt><trkpt lat="44.3650813" lon="8.4020092"><ele>546.0</ele><time>2026-04-04T09:12:12.974Z</time></trkpt><trkpt lat="44.3650586" lon="8.4022139"><ele>546.0</ele><time>2026-04-04T09:12:13.974Z</time></trkpt><trkpt lat="44.3649924" lon="8.4024548"><ele>549.6666666666666</ele><time>2026-04-04T09:12:14.974Z</time></trkpt><trkpt lat="44.3649032" lon="8.402715"><ele>553.3333333333333</ele><time>2026-04-04T09:12:15.974Z</time></trkpt><trkpt lat="44.3648386" lon="8.4029466"><ele>557.0</ele><time>2026-04-04T09:12:16.974Z</time></trkpt><trkpt lat="44.3647849" lon="8.4031778"><ele>561.0</ele><time>2026-04-04T09:12:17.974Z</time></trkpt><trkpt lat="44.3647547" lon="8.4034113"><ele>565.0</ele><time>2026-04-04T09:12:18.974Z</time></trkpt><trkpt lat="44.3647336" lon="8.403662"><ele>569.0</ele><time>2026-04-04T09:12:19.974Z</time></trkpt><trkpt lat="44.3647347" lon="8.4039237"><ele>570.0</ele><time>2026-04-04T09:12:20.974Z</time></trkpt><trkpt lat="44.3647607" lon="8.4041892"><ele>571.0</ele><time>2026-04-04T09:12:21.973Z</time></trkpt><trkpt lat="44.3648024" lon="8.4044517"><ele>572.0</ele><time>2026-04-04T09:12:22.974Z</time></trkpt><trkpt lat="44.3648499" lon="8.4047114"><ele>572.3333333333333</ele><time>2026-04-04T09:12:23.974Z</time></trkpt><trkpt lat="44.364896" lon="8.4049582"><ele>572.6666666666666</ele><time>2026-04-04T09:12:24.974Z</time></trkpt><trkpt lat="44.3649402" lon="8.4051809"><ele>573.0</ele><time>2026-04-04T09:12:25.974Z</time></trkpt><trkpt lat="44.3649782" lon="8.4053805"><ele>572.1999999999999</ele><time>2026-04-04T09:12:26.974Z</time></trkpt><trkpt lat="44.3650168" lon="8.405553"><ele>571.4</ele><time>2026-04-04T09:12:27.973Z</time></trkpt><trkpt lat="44.3650599" lon="8.405692"><ele>570.5999999999999</ele><time>2026-04-04T09:12:28.974Z</time></trkpt><trkpt lat="44.3651224" lon="8.4057873"><ele>569.8</ele><time>2026-04-04T09:12:29.974Z</time></trkpt><trkpt lat="44.3651957" lon="8.4058332"><ele>569.0</ele><time>2026-04-04T09:12:30.974Z</time></trkpt><trkpt lat="44.3652736" lon="8.4058777"><ele>569.0</ele><time>2026-04-04T09:12:31.974Z</time></trkpt><trkpt lat="44.3653566" lon="8.4058945"><ele>569.0</ele><time>2026-04-04T09:12:32.974Z</time></trkpt><trkpt lat="44.3654397" lon="8.4058592"><ele>569.0</ele><time>2026-04-04T09:12:33.974Z</time></trkpt><trkpt lat="44.3655037" lon="8.4057688"><ele>569.0</ele><time>2026-04-04T09:12:34.974Z</time></trkpt><trkpt lat="44.3655189" lon="8.4055816"><ele>569.0</ele><time>2026-04-04T09:12:35.973Z</time></trkpt><trkpt lat="44.3655013" lon="8.4053474"><ele>570.3333333333333</ele><time>2026-04-04T09:12:36.974Z</time></trkpt><trkpt lat="44.36546" lon="8.4050956"><ele>571.6666666666666</ele><time>2026-04-04T09:12:37.974Z</time></trkpt><trkpt lat="44.3654302" lon="8.4048761"><ele>573.0</ele><time>2026-04-04T09:12:38.973Z</time></trkpt><trkpt lat="44.3654361" lon="8.4047238"><ele>572.8</ele><time>2026-04-04T09:12:39.974Z</time></trkpt><trkpt lat="44.3654697" lon="8.4046397"><ele>572.5999999999999</ele><time>2026-04-04T09:12:40.974Z</time></trkpt><trkpt lat="44.3655855" lon="8.4046298"><ele>572.4000000000001</ele><time>2026-04-04T09:12:42.974Z</time></trkpt><trkpt lat="44.3656654" lon="8.4046991"><ele>572.2</ele><time>2026-04-04T09:12:43.974Z</time></trkpt><trkpt lat="44.3657588" lon="8.4048035"><ele>572.0</ele><time>2026-04-04T09:12:44.974Z</time></trkpt><trkpt lat="44.3658683" lon="8.404926"><ele>580.0</ele><time>2026-04-04T09:12:45.974Z</time></trkpt><trkpt lat="44.3659963" lon="8.4050665"><ele>588.0</ele><time>2026-04-04T09:12:46.973Z</time></trkpt><trkpt lat="44.3661231" lon="8.4052096"><ele>596.0</ele><time>2026-04-04T09:12:47.974Z</time></trkpt><trkpt lat="44.3662426" lon="8.4053588"><ele>594.0</ele><time>2026-04-04T09:12:48.974Z</time></trkpt><trkpt lat="44.3663554" lon="8.4055218"><ele>592.0</ele><time>2026-04-04T09:12:49.973Z</time></trkpt><trkpt lat="44.3664726" lon="8.4056982"><ele>590.0</ele><time>2026-04-04T09:12:50.973Z</time></trkpt><trkpt lat="44.3665852" lon="8.4058878"><ele>593.6666666666666</ele><time>2026-04-04T09:12:51.974Z</time></trkpt><trkpt lat="44.3667" lon="8.4060893"><ele>597.3333333333334</ele><time>2026-04-04T09:12:52.974Z</time></trkpt><trkpt lat="44.3668187" lon="8.406285"><ele>601.0</ele><time>2026-04-04T09:12:53.974Z</time></trkpt><trkpt lat="44.3669427" lon="8.4064971"><ele>601.0</ele><time>2026-04-04T09:12:54.973Z</time></trkpt><trkpt lat="44.3670693" lon="8.4066974"><ele>601.0</ele><time>2026-04-04T09:12:55.974Z</time></trkpt><trkpt lat="44.3671834" lon="8.4068711"><ele>601.0</ele><time>2026-04-04T09:12:56.974Z</time></trkpt><trkpt lat="44.367279" lon="8.4070358"><ele>604.5</ele><time>2026-04-04T09:12:57.974Z</time></trkpt><trkpt lat="44.3673708" lon="8.4071841"><ele>608.0</ele><time>2026-04-04T09:12:58.974Z</time></trkpt><trkpt lat="44.3674573" lon="8.4073099"><ele>611.5</ele><time>2026-04-04T09:12:59.974Z</time></trkpt><trkpt lat="44.3675508" lon="8.4074069"><ele>615.0</ele><time>2026-04-04T09:13:00.974Z</time></trkpt><trkpt lat="44.3676653" lon="8.4074597"><ele>615.0</ele><time>2026-04-04T09:13:01.974Z</time></trkpt><trkpt lat="44.3677792" lon="8.4074662"><ele>615.0</ele><time>2026-04-04T09:13:02.974Z</time></trkpt><trkpt lat="44.3678867" lon="8.4074267"><ele>615.0</ele><time>2026-04-04T09:13:03.974Z</time></trkpt><trkpt lat="44.3679847" lon="8.4073252"><ele>615.0</ele><time>2026-04-04T09:13:04.974Z</time></trkpt><trkpt lat="44.3680724" lon="8.4072002"><ele>614.8</ele><time>2026-04-04T09:13:05.974Z</time></trkpt><trkpt lat="44.368165" lon="8.4071234"><ele>614.6</ele><time>2026-04-04T09:13:06.974Z</time></trkpt><trkpt lat="44.368253" lon="8.4070883"><ele>614.4</ele><time>2026-04-04T09:13:07.974Z</time></trkpt><trkpt lat="44.3683484" lon="8.4071047"><ele>614.2</ele><time>2026-04-04T09:13:08.974Z</time></trkpt><trkpt lat="44.3684356" lon="8.4072383"><ele>614.0</ele><time>2026-04-04T09:13:09.973Z</time></trkpt><trkpt lat="44.3684877" lon="8.4073991"><ele>618.6666666666666</ele><time>2026-04-04T09:13:10.973Z</time></trkpt><trkpt lat="44.3685189" lon="8.4075807"><ele>623.3333333333334</ele><time>2026-04-04T09:13:11.974Z</time></trkpt><trkpt lat="44.3685169" lon="8.4078003"><ele>628.0</ele><time>2026-04-04T09:13:12.974Z</time></trkpt><trkpt lat="44.3685018" lon="8.4080331"><ele>630.3333333333334</ele><time>2026-04-04T09:13:13.974Z</time></trkpt><trkpt lat="44.368473" lon="8.4082887"><ele>632.6666666666666</ele><time>2026-04-04T09:13:14.973Z</time></trkpt><trkpt lat="44.3684484" lon="8.4085311"><ele>635.0</ele><time>2026-04-04T09:13:15.974Z</time></trkpt><trkpt lat="44.3684231" lon="8.4087789"><ele>637.3333333333333</ele><time>2026-04-04T09:13:16.974Z</time></trkpt><trkpt lat="44.3684021" lon="8.4090236"><ele>639.6666666666666</ele><time>2026-04-04T09:13:17.974Z</time></trkpt><trkpt lat="44.3683842" lon="8.4092668"><ele>642.0</ele><time>2026-04-04T09:13:18.973Z</time></trkpt><trkpt lat="44.3683623" lon="8.4095041"><ele>643.0</ele><time>2026-04-04T09:13:19.973Z</time></trkpt><trkpt lat="44.368344" lon="8.4097219"><ele>644.0</ele><time>2026-04-04T09:13:20.974Z</time></trkpt><trkpt lat="44.3683321" lon="8.4099201"><ele>645.0</ele><time>2026-04-04T09:13:21.974Z</time></trkpt><trkpt lat="44.3683276" lon="8.410104"><ele>646.0</ele><time>2026-04-04T09:13:22.974Z</time></trkpt><trkpt lat="44.3683386" lon="8.4102838"><ele>646.0</ele><time>2026-04-04T09:13:23.974Z</time></trkpt><trkpt lat="44.3683699" lon="8.4104517"><ele>646.0</ele><time>2026-04-04T09:13:24.974Z</time></trkpt><trkpt lat="44.3684558" lon="8.4105823"><ele>646.0</ele><time>2026-04-04T09:13:25.974Z</time></trkpt><trkpt lat="44.3685781" lon="8.4106867"><ele>646.0</ele><time>2026-04-04T09:13:26.974Z</time></trkpt><trkpt lat="44.3686997" lon="8.4107991"><ele>645.0</ele><time>2026-04-04T09:13:27.974Z</time></trkpt><trkpt lat="44.3687986" lon="8.4109455"><ele>644.0</ele><time>2026-04-04T09:13:28.973Z</time></trkpt><trkpt lat="44.3688697" lon="8.4111173"><ele>643.0</ele><time>2026-04-04T09:13:29.974Z</time></trkpt><trkpt lat="44.3689206" lon="8.4113126"><ele>642.0</ele><time>2026-04-04T09:13:30.974Z</time></trkpt><trkpt lat="44.3689443" lon="8.4115327"><ele>650.0</ele><time>2026-04-04T09:13:31.974Z</time></trkpt><trkpt lat="44.3689432" lon="8.4117705"><ele>658.0</ele><time>2026-04-04T09:13:32.974Z</time></trkpt><trkpt lat="44.3689795" lon="8.4119819"><ele>666.0</ele><time>2026-04-04T09:13:33.974Z</time></trkpt><trkpt lat="44.3690496" lon="8.412168"><ele>666.0</ele><time>2026-04-04T09:13:34.974Z</time></trkpt><trkpt lat="44.3691345" lon="8.4123573"><ele>666.0</ele><time>2026-04-04T09:13:35.973Z</time></trkpt><trkpt lat="44.3692281" lon="8.4125502"><ele>666.0</ele><time>2026-04-04T09:13:36.973Z</time></trkpt><trkpt lat="44.3693244" lon="8.4127356"><ele>666.0</ele><time>2026-04-04T09:13:37.973Z</time></trkpt><trkpt lat="44.3694124" lon="8.4129146"><ele>666.0</ele><time>2026-04-04T09:13:38.974Z</time></trkpt><trkpt lat="44.3694935" lon="8.413076"><ele>666.0</ele><time>2026-04-04T09:13:39.973Z</time></trkpt><trkpt lat="44.3695626" lon="8.4132143"><ele>666.0</ele><time>2026-04-04T09:13:40.974Z</time></trkpt><trkpt lat="44.3696194" lon="8.4133338"><ele>666.1666666666666</ele><time>2026-04-04T09:13:41.974Z</time></trkpt><trkpt lat="44.3696706" lon="8.4134088"><ele>666.3333333333334</ele><time>2026-04-04T09:13:42.974Z</time></trkpt><trkpt lat="44.3697265" lon="8.4134579"><ele>666.5</ele><time>2026-04-04T09:13:43.974Z</time></trkpt><trkpt lat="44.3698401" lon="8.4134223"><ele>666.6666666666667</ele><time>2026-04-04T09:13:45.974Z</time></trkpt><trkpt lat="44.3698832" lon="8.413345"><ele>666.8333333333334</ele><time>2026-04-04T09:13:46.974Z</time></trkpt><trkpt lat="44.369892" lon="8.4132421"><ele>667.0</ele><time>2026-04-04T09:13:47.974Z</time></trkpt><trkpt lat="44.3698594" lon="8.4131069"><ele>666.6666666666667</ele><time>2026-04-04T09:13:48.973Z</time></trkpt><trkpt lat="44.369785" lon="8.4129286"><ele>666.3333333333334</ele><time>2026-04-04T09:13:49.972Z</time></trkpt><trkpt lat="44.3696832" lon="8.4127144"><ele>666.0</ele><time>2026-04-04T09:13:50.973Z</time></trkpt><trkpt lat="44.3695859" lon="8.4124504"><ele>666.0</ele><time>2026-04-04T09:13:51.973Z</time></trkpt><trkpt lat="44.3695205" lon="8.4121862"><ele>666.0</ele><time>2026-04-04T09:13:52.972Z</time></trkpt><trkpt lat="44.3695006" lon="8.4119226"><ele>666.0</ele><time>2026-04-04T09:13:53.973Z</time></trkpt><trkpt lat="44.3694995" lon="8.4116743"><ele>668.0</ele><time>2026-04-04T09:13:54.972Z</time></trkpt><trkpt lat="44.3695108" lon="8.4114453"><ele>670.0</ele><time>2026-04-04T09:13:55.972Z</time></trkpt><trkpt lat="44.3695215" lon="8.4112444"><ele>672.0</ele><time>2026-04-04T09:13:56.973Z</time></trkpt><trkpt lat="44.3695305" lon="8.4110739"><ele>674.0</ele><time>2026-04-04T09:13:57.973Z</time></trkpt><trkpt lat="44.3695541" lon="8.4109435"><ele>675.0</ele><time>2026-04-04T09:13:58.973Z</time></trkpt><trkpt lat="44.3695953" lon="8.4108595"><ele>676.0</ele><time>2026-04-04T09:13:59.973Z</time></trkpt><trkpt lat="44.3696955" lon="8.4108139"><ele>677.0</ele><time>2026-04-04T09:14:01.972Z</time></trkpt><trkpt lat="44.3697734" lon="8.4109107"><ele>678.0</ele><time>2026-04-04T09:14:03.973Z</time></trkpt><trkpt lat="44.3697898" lon="8.4110088"><ele>679.0</ele><time>2026-04-04T09:14:04.973Z</time></trkpt><trkpt lat="44.3697994" lon="8.4111608"><ele>688.3333333333334</ele><time>2026-04-04T09:14:05.973Z</time></trkpt><trkpt lat="44.3697907" lon="8.4113922"><ele>697.6666666666666</ele><time>2026-04-04T09:14:06.973Z</time></trkpt><trkpt lat="44.3697743" lon="8.4116696"><ele>707.0</ele><time>2026-04-04T09:14:07.973Z</time></trkpt><trkpt lat="44.3697964" lon="8.4119329"><ele>706.0</ele><time>2026-04-04T09:14:08.973Z</time></trkpt><trkpt lat="44.3698564" lon="8.4121597"><ele>705.0</ele><time>2026-04-04T09:14:09.972Z</time></trkpt><trkpt lat="44.3699433" lon="8.4123562"><ele>704.0</ele><time>2026-04-04T09:14:10.973Z</time></trkpt><trkpt lat="44.3700452" lon="8.4125351"><ele>704.0</ele><time>2026-04-04T09:14:11.973Z</time></trkpt><trkpt lat="44.370153" lon="8.4126988"><ele>704.0</ele><time>2026-04-04T09:14:12.973Z</time></trkpt><trkpt lat="44.3702655" lon="8.4128301"><ele>704.0</ele><time>2026-04-04T09:14:13.973Z</time></trkpt><trkpt lat="44.3703743" lon="8.4129197"><ele>704.0</ele><time>2026-04-04T09:14:14.972Z</time></trkpt><trkpt lat="44.370482" lon="8.4129752"><ele>707.5</ele><time>2026-04-04T09:14:15.973Z</time></trkpt><trkpt lat="44.3706045" lon="8.4129899"><ele>711.0</ele><time>2026-04-04T09:14:16.973Z</time></trkpt><trkpt lat="44.3707486" lon="8.4129574"><ele>714.5</ele><time>2026-04-04T09:14:17.973Z</time></trkpt><trkpt lat="44.3708992" lon="8.4128687"><ele>718.0</ele><time>2026-04-04T09:14:18.973Z</time></trkpt><trkpt lat="44.3710532" lon="8.4127654"><ele>718.0</ele><time>2026-04-04T09:14:19.972Z</time></trkpt><trkpt lat="44.371217" lon="8.4126688"><ele>718.0</ele><time>2026-04-04T09:14:20.973Z</time></trkpt><trkpt lat="44.3713806" lon="8.4125907"><ele>718.0</ele><time>2026-04-04T09:14:21.972Z</time></trkpt><trkpt lat="44.3715462" lon="8.4125371"><ele>717.6666666666667</ele><time>2026-04-04T09:14:22.972Z</time></trkpt><trkpt lat="44.371703" lon="8.4124712"><ele>717.3333333333334</ele><time>2026-04-04T09:14:23.972Z</time></trkpt><trkpt lat="44.3718373" lon="8.4123578"><ele>717.0</ele><time>2026-04-04T09:14:24.973Z</time></trkpt><trkpt lat="44.3719541" lon="8.4121968"><ele>714.6666666666666</ele><time>2026-04-04T09:14:25.973Z</time></trkpt><trkpt lat="44.3720549" lon="8.4119961"><ele>712.3333333333333</ele><time>2026-04-04T09:14:26.973Z</time></trkpt><trkpt lat="44.3721648" lon="8.4117896"><ele>710.0</ele><time>2026-04-04T09:14:27.973Z</time></trkpt><trkpt lat="44.3722984" lon="8.4115979"><ele>711.0</ele><time>2026-04-04T09:14:28.973Z</time></trkpt><trkpt lat="44.3724442" lon="8.4114418"><ele>712.0</ele><time>2026-04-04T09:14:29.973Z</time></trkpt><trkpt lat="44.3726079" lon="8.4113255"><ele>713.0</ele><time>2026-04-04T09:14:30.973Z</time></trkpt><trkpt lat="44.372781" lon="8.4112118"><ele>713.0</ele><time>2026-04-04T09:14:31.972Z</time></trkpt><trkpt lat="44.3729533" lon="8.4110843"><ele>713.0</ele><time>2026-04-04T09:14:32.973Z</time></trkpt><trkpt lat="44.3731127" lon="8.4109286"><ele>713.0</ele><time>2026-04-04T09:14:33.973Z</time></trkpt><trkpt lat="44.3732548" lon="8.4107652"><ele>713.6666666666666</ele><time>2026-04-04T09:14:34.973Z</time></trkpt><trkpt lat="44.3733842" lon="8.4106205"><ele>714.3333333333334</ele><time>2026-04-04T09:14:35.972Z</time></trkpt><trkpt lat="44.3735259" lon="8.4105103"><ele>715.0</ele><time>2026-04-04T09:14:36.973Z</time></trkpt><trkpt lat="44.3736887" lon="8.4104584"><ele>715.0</ele><time>2026-04-04T09:14:37.972Z</time></trkpt><trkpt lat="44.3738511" lon="8.4104261"><ele>715.0</ele><time>2026-04-04T09:14:38.973Z</time></trkpt><trkpt lat="44.3740119" lon="8.4103896"><ele>715.0</ele><time>2026-04-04T09:14:39.973Z</time></trkpt><trkpt lat="44.3741558" lon="8.4103774"><ele>718.3333333333334</ele><time>2026-04-04T09:14:40.973Z</time></trkpt><trkpt lat="44.3743018" lon="8.410379"><ele>721.6666666666666</ele><time>2026-04-04T09:14:41.973Z</time></trkpt><trkpt lat="44.3744593" lon="8.4103866"><ele>725.0</ele><time>2026-04-04T09:14:42.973Z</time></trkpt><trkpt lat="44.3746186" lon="8.4103945"><ele>728.3333333333333</ele><time>2026-04-04T09:14:43.972Z</time></trkpt><trkpt lat="44.3747695" lon="8.4103647"><ele>731.6666666666666</ele><time>2026-04-04T09:14:44.973Z</time></trkpt><trkpt lat="44.374908" lon="8.4103017"><ele>735.0</ele><time>2026-04-04T09:14:45.973Z</time></trkpt><trkpt lat="44.3750418" lon="8.4101835"><ele>735.0</ele><time>2026-04-04T09:14:46.973Z</time></trkpt><trkpt lat="44.3751813" lon="8.4100668"><ele>735.0</ele><time>2026-04-04T09:14:47.973Z</time></trkpt><trkpt lat="44.3753352" lon="8.4099708"><ele>735.0</ele><time>2026-04-04T09:14:48.972Z</time></trkpt><trkpt lat="44.3755" lon="8.4098841"><ele>738.3333333333334</ele><time>2026-04-04T09:14:49.973Z</time></trkpt><trkpt lat="44.3756771" lon="8.4097997"><ele>741.6666666666667</ele><time>2026-04-04T09:14:50.973Z</time></trkpt><trkpt lat="44.3758444" lon="8.4097147"><ele>745.0</ele><time>2026-04-04T09:14:51.973Z</time></trkpt><trkpt lat="44.3760163" lon="8.4096436"><ele>741.3333333333334</ele><time>2026-04-04T09:14:52.973Z</time></trkpt><trkpt lat="44.376196" lon="8.4095998"><ele>737.6666666666666</ele><time>2026-04-04T09:14:53.973Z</time></trkpt><trkpt lat="44.3763694" lon="8.4095979"><ele>734.0</ele><time>2026-04-04T09:14:54.973Z</time></trkpt><trkpt lat="44.3765283" lon="8.4095916"><ele>734.0</ele><time>2026-04-04T09:14:55.973Z</time></trkpt><trkpt lat="44.3766769" lon="8.4095659"><ele>734.0</ele><time>2026-04-04T09:14:56.973Z</time></trkpt><trkpt lat="44.3768093" lon="8.4094974"><ele>734.0</ele><time>2026-04-04T09:14:57.973Z</time></trkpt><trkpt lat="44.3769081" lon="8.4093838"><ele>734.0</ele><time>2026-04-04T09:14:58.973Z</time></trkpt><trkpt lat="44.3769811" lon="8.4092256"><ele>734.0</ele><time>2026-04-04T09:14:59.973Z</time></trkpt><trkpt lat="44.3770268" lon="8.4090147"><ele>734.0</ele><time>2026-04-04T09:15:00.973Z</time></trkpt><trkpt lat="44.3770565" lon="8.4087824"><ele>734.0</ele><time>2026-04-04T09:15:01.973Z</time></trkpt><trkpt lat="44.377078" lon="8.4085316"><ele>730.6666666666666</ele><time>2026-04-04T09:15:02.972Z</time></trkpt><trkpt lat="44.3771162" lon="8.4082629"><ele>727.3333333333334</ele><time>2026-04-04T09:15:03.973Z</time></trkpt><trkpt lat="44.377182" lon="8.40801"><ele>724.0</ele><time>2026-04-04T09:15:04.973Z</time></trkpt><trkpt lat="44.3772615" lon="8.4077734"><ele>724.6666666666667</ele><time>2026-04-04T09:15:05.973Z</time></trkpt><trkpt lat="44.3773415" lon="8.4075502"><ele>725.3333333333334</ele><time>2026-04-04T09:15:06.973Z</time></trkpt><trkpt lat="44.37742" lon="8.4073396"><ele>726.0</ele><time>2026-04-04T09:15:07.973Z</time></trkpt><trkpt lat="44.3775115" lon="8.4071553"><ele>726.0</ele><time>2026-04-04T09:15:08.973Z</time></trkpt><trkpt lat="44.3776182" lon="8.4070292"><ele>726.0</ele><time>2026-04-04T09:15:09.973Z</time></trkpt><trkpt lat="44.377736" lon="8.4069421"><ele>726.0</ele><time>2026-04-04T09:15:10.973Z</time></trkpt><trkpt lat="44.3778616" lon="8.4068913"><ele>726.0</ele><time>2026-04-04T09:15:11.973Z</time></trkpt><trkpt lat="44.3779963" lon="8.4068735"><ele>727.75</ele><time>2026-04-04T09:15:12.972Z</time></trkpt><trkpt lat="44.3781348" lon="8.406909"><ele>729.5</ele><time>2026-04-04T09:15:13.973Z</time></trkpt><trkpt lat="44.3782671" lon="8.4069958"><ele>731.25</ele><time>2026-04-04T09:15:14.973Z</time></trkpt><trkpt lat="44.3783914" lon="8.4071198"><ele>733.0</ele><time>2026-04-04T09:15:15.973Z</time></trkpt><trkpt lat="44.3785066" lon="8.4072687"><ele>736.75</ele><time>2026-04-04T09:15:16.973Z</time></trkpt><trkpt lat="44.3786112" lon="8.4074226"><ele>740.5</ele><time>2026-04-04T09:15:17.973Z</time></trkpt><trkpt lat="44.3786997" lon="8.4075794"><ele>744.25</ele><time>2026-04-04T09:15:18.972Z</time></trkpt><trkpt lat="44.3787656" lon="8.4077381"><ele>748.0</ele><time>2026-04-04T09:15:19.973Z</time></trkpt><trkpt lat="44.3788234" lon="8.4078956"><ele>748.0</ele><time>2026-04-04T09:15:20.973Z</time></trkpt><trkpt lat="44.3788661" lon="8.4080517"><ele>748.0</ele><time>2026-04-04T09:15:21.973Z</time></trkpt><trkpt lat="44.3789097" lon="8.408172"><ele>748.0</ele><time>2026-04-04T09:15:22.972Z</time></trkpt><trkpt lat="44.3789731" lon="8.4082431"><ele>748.0</ele><time>2026-04-04T09:15:23.972Z</time></trkpt><trkpt lat="44.3790463" lon="8.4082628"><ele>748.0</ele><time>2026-04-04T09:15:24.972Z</time></trkpt><trkpt lat="44.379123" lon="8.4082344"><ele>748.0</ele><time>2026-04-04T09:15:25.972Z</time></trkpt><trkpt lat="44.3791864" lon="8.4081625"><ele>748.0</ele><time>2026-04-04T09:15:26.973Z</time></trkpt><trkpt lat="44.37923" lon="8.4080435"><ele>748.0</ele><time>2026-04-04T09:15:27.973Z</time></trkpt><trkpt lat="44.3792501" lon="8.4078664"><ele>748.0</ele><time>2026-04-04T09:15:28.972Z</time></trkpt><trkpt lat="44.3792511" lon="8.4076271"><ele>745.6666666666667</ele><time>2026-04-04T09:15:29.972Z</time></trkpt><trkpt lat="44.3792106" lon="8.4073286"><ele>743.3333333333334</ele><time>2026-04-04T09:15:30.973Z</time></trkpt><trkpt lat="44.3791593" lon="8.4070388"><ele>741.0</ele><time>2026-04-04T09:15:31.973Z</time></trkpt><trkpt lat="44.3791405" lon="8.4067686"><ele>737.6666666666666</ele><time>2026-04-04T09:15:32.973Z</time></trkpt><trkpt lat="44.3791544" lon="8.4065094"><ele>734.3333333333333</ele><time>2026-04-04T09:15:33.973Z</time></trkpt><trkpt lat="44.379212" lon="8.406259"><ele>731.0</ele><time>2026-04-04T09:15:34.973Z</time></trkpt><trkpt lat="44.3793072" lon="8.4060169"><ele>724.3333333333333</ele><time>2026-04-04T09:15:35.973Z</time></trkpt><trkpt lat="44.3794007" lon="8.4057936"><ele>717.6666666666666</ele><time>2026-04-04T09:15:36.973Z</time></trkpt><trkpt lat="44.3794842" lon="8.4055962"><ele>711.0</ele><time>2026-04-04T09:15:37.973Z</time></trkpt><trkpt lat="44.3795687" lon="8.4054423"><ele>713.25</ele><time>2026-04-04T09:15:38.973Z</time></trkpt><trkpt lat="44.379654" lon="8.4053108"><ele>715.5</ele><time>2026-04-04T09:15:39.972Z</time></trkpt><trkpt lat="44.3797528" lon="8.405205"><ele>717.75</ele><time>2026-04-04T09:15:40.972Z</time></trkpt><trkpt lat="44.3798752" lon="8.4051192"><ele>720.0</ele><time>2026-04-04T09:15:41.973Z</time></trkpt><trkpt lat="44.3800222" lon="8.4050487"><ele>720.0</ele><time>2026-04-04T09:15:42.973Z</time></trkpt><trkpt lat="44.3801823" lon="8.4049786"><ele>720.0</ele><time>2026-04-04T09:15:43.972Z</time></trkpt><trkpt lat="44.380387" lon="8.4049552"><ele>720.0</ele><time>2026-04-04T09:15:44.973Z</time></trkpt><trkpt lat="44.3805659" lon="8.4049085"><ele>720.0</ele><time>2026-04-04T09:15:45.972Z</time></trkpt><trkpt lat="44.3807306" lon="8.4048493"><ele>720.0</ele><time>2026-04-04T09:15:46.973Z</time></trkpt><trkpt lat="44.3808978" lon="8.4048072"><ele>720.0</ele><time>2026-04-04T09:15:47.973Z</time></trkpt><trkpt lat="44.3810596" lon="8.4047618"><ele>720.0</ele><time>2026-04-04T09:15:48.973Z</time></trkpt><trkpt lat="44.3812284" lon="8.4047553"><ele>720.0</ele><time>2026-04-04T09:15:49.973Z</time></trkpt><trkpt lat="44.3813982" lon="8.4047581"><ele>720.0</ele><time>2026-04-04T09:15:50.973Z</time></trkpt><trkpt lat="44.3815545" lon="8.4047549"><ele>720.25</ele><time>2026-04-04T09:15:51.973Z</time></trkpt><trkpt lat="44.3816906" lon="8.4047352"><ele>720.5</ele><time>2026-04-04T09:15:52.973Z</time></trkpt><trkpt lat="44.3818275" lon="8.4046986"><ele>720.75</ele><time>2026-04-04T09:15:53.973Z</time></trkpt><trkpt lat="44.3819623" lon="8.4046591"><ele>721.0</ele><time>2026-04-04T09:15:54.973Z</time></trkpt><trkpt lat="44.3820905" lon="8.4046234"><ele>717.75</ele><time>2026-04-04T09:15:55.973Z</time></trkpt><trkpt lat="44.3822119" lon="8.40456"><ele>714.5</ele><time>2026-04-04T09:15:56.973Z</time></trkpt><trkpt lat="44.3823265" lon="8.4044922"><ele>711.25</ele><time>2026-04-04T09:15:57.973Z</time></trkpt><trkpt lat="44.382441" lon="8.4043887"><ele>708.0</ele><time>2026-04-04T09:15:58.973Z</time></trkpt><trkpt lat="44.3825648" lon="8.4042698"><ele>708.0</ele><time>2026-04-04T09:15:59.972Z</time></trkpt><trkpt lat="44.3826948" lon="8.4041471"><ele>708.0</ele><time>2026-04-04T09:16:00.973Z</time></trkpt><trkpt lat="44.3828257" lon="8.4040315"><ele>708.0</ele><time>2026-04-04T09:16:01.973Z</time></trkpt><trkpt lat="44.382969" lon="8.4039355"><ele>710.3333333333334</ele><time>2026-04-04T09:16:02.973Z</time></trkpt><trkpt lat="44.3831202" lon="8.4038619"><ele>712.6666666666667</ele><time>2026-04-04T09:16:03.973Z</time></trkpt><trkpt lat="44.3832887" lon="8.4037804"><ele>715.0</ele><time>2026-04-04T09:16:04.973Z</time></trkpt><trkpt lat="44.3834582" lon="8.4036913"><ele>709.6666666666667</ele><time>2026-04-04T09:16:05.973Z</time></trkpt><trkpt lat="44.3836366" lon="8.4036204"><ele>704.3333333333334</ele><time>2026-04-04T09:16:06.973Z</time></trkpt><trkpt lat="44.383812" lon="8.4035516"><ele>699.0</ele><time>2026-04-04T09:16:07.972Z</time></trkpt><trkpt lat="44.3839914" lon="8.4035081"><ele>699.0</ele><time>2026-04-04T09:16:08.973Z</time></trkpt><trkpt lat="44.3841672" lon="8.4034712"><ele>699.0</ele><time>2026-04-04T09:16:09.973Z</time></trkpt><trkpt lat="44.3843336" lon="8.4034097"><ele>699.0</ele><time>2026-04-04T09:16:10.973Z</time></trkpt><trkpt lat="44.384494" lon="8.4033429"><ele>699.0</ele><time>2026-04-04T09:16:11.973Z</time></trkpt><trkpt lat="44.3846491" lon="8.4032846"><ele>699.0</ele><time>2026-04-04T09:16:12.973Z</time></trkpt><trkpt lat="44.3848006" lon="8.4032299"><ele>699.0</ele><time>2026-04-04T09:16:13.972Z</time></trkpt><trkpt lat="44.3849487" lon="8.403162"><ele>701.0</ele><time>2026-04-04T09:16:14.973Z</time></trkpt><trkpt lat="44.3850846" lon="8.4030512"><ele>703.0</ele><time>2026-04-04T09:16:15.973Z</time></trkpt><trkpt lat="44.3852241" lon="8.4029439"><ele>705.0</ele><time>2026-04-04T09:16:16.973Z</time></trkpt><trkpt lat="44.3853594" lon="8.4028384"><ele>704.5</ele><time>2026-04-04T09:16:17.973Z</time></trkpt><trkpt lat="44.3854871" lon="8.4027393"><ele>704.0</ele><time>2026-04-04T09:16:18.973Z</time></trkpt><trkpt lat="44.3855981" lon="8.4026439"><ele>703.5</ele><time>2026-04-04T09:16:19.972Z</time></trkpt><trkpt lat="44.3856709" lon="8.4025299"><ele>703.0</ele><time>2026-04-04T09:16:20.973Z</time></trkpt><trkpt lat="44.3857316" lon="8.402413"><ele>703.0</ele><time>2026-04-04T09:16:21.973Z</time></trkpt><trkpt lat="44.3857719" lon="8.4022618"><ele>703.0</ele><time>2026-04-04T09:16:22.973Z</time></trkpt><trkpt lat="44.3857955" lon="8.4020905"><ele>703.0</ele><time>2026-04-04T09:16:23.973Z</time></trkpt><trkpt lat="44.3858201" lon="8.4019253"><ele>703.0</ele><time>2026-04-04T09:16:24.973Z</time></trkpt><trkpt lat="44.3858662" lon="8.4017887"><ele>700.4</ele><time>2026-04-04T09:16:25.973Z</time></trkpt><trkpt lat="44.3859464" lon="8.4017057"><ele>697.8</ele><time>2026-04-04T09:16:26.972Z</time></trkpt><trkpt lat="44.3860487" lon="8.40168"><ele>695.2</ele><time>2026-04-04T09:16:27.973Z</time></trkpt><trkpt lat="44.3861595" lon="8.4016592"><ele>692.6</ele><time>2026-04-04T09:16:28.973Z</time></trkpt><trkpt lat="44.3862624" lon="8.4016109"><ele>690.0</ele><time>2026-04-04T09:16:29.973Z</time></trkpt><trkpt lat="44.3863439" lon="8.401525"><ele>690.0</ele><time>2026-04-04T09:16:30.973Z</time></trkpt><trkpt lat="44.3864176" lon="8.4014222"><ele>690.0</ele><time>2026-04-04T09:16:31.973Z</time></trkpt><trkpt lat="44.3865009" lon="8.4013365"><ele>690.0</ele><time>2026-04-04T09:16:32.972Z</time></trkpt><trkpt lat="44.3865963" lon="8.4012773"><ele>690.0</ele><time>2026-04-04T09:16:33.973Z</time></trkpt><trkpt lat="44.3867038" lon="8.4012546"><ele>690.0</ele><time>2026-04-04T09:16:34.973Z</time></trkpt><trkpt lat="44.3868253" lon="8.4012743"><ele>690.0</ele><time>2026-04-04T09:16:35.973Z</time></trkpt><trkpt lat="44.3869535" lon="8.4013415"><ele>690.0</ele><time>2026-04-04T09:16:36.973Z</time></trkpt><trkpt lat="44.387088" lon="8.4014466"><ele>690.0</ele><time>2026-04-04T09:16:37.973Z</time></trkpt><trkpt lat="44.3872149" lon="8.4016104"><ele>688.75</ele><time>2026-04-04T09:16:38.972Z</time></trkpt><trkpt lat="44.3873287" lon="8.4017694"><ele>687.5</ele><time>2026-04-04T09:16:39.973Z</time></trkpt><trkpt lat="44.387419" lon="8.4019171"><ele>686.25</ele><time>2026-04-04T09:16:40.973Z</time></trkpt><trkpt lat="44.3874884" lon="8.4020628"><ele>685.0</ele><time>2026-04-04T09:16:41.973Z</time></trkpt><trkpt lat="44.3875223" lon="8.4022162"><ele>685.0</ele><time>2026-04-04T09:16:42.972Z</time></trkpt><trkpt lat="44.3875389" lon="8.402372"><ele>685.0</ele><time>2026-04-04T09:16:43.973Z</time></trkpt><trkpt lat="44.387562" lon="8.4025052"><ele>685.0</ele><time>2026-04-04T09:16:44.973Z</time></trkpt><trkpt lat="44.3876028" lon="8.4026007"><ele>685.0</ele><time>2026-04-04T09:16:45.973Z</time></trkpt><trkpt lat="44.3876579" lon="8.4026693"><ele>685.0</ele><time>2026-04-04T09:16:46.972Z</time></trkpt><trkpt lat="44.3877198" lon="8.4027117"><ele>685.0</ele><time>2026-04-04T09:16:47.973Z</time></trkpt><trkpt lat="44.3878008" lon="8.4027007"><ele>685.0</ele><time>2026-04-04T09:16:48.973Z</time></trkpt><trkpt lat="44.3878899" lon="8.402638"><ele>685.0</ele><time>2026-04-04T09:16:49.973Z</time></trkpt><trkpt lat="44.3879776" lon="8.402533"><ele>685.0</ele><time>2026-04-04T09:16:50.972Z</time></trkpt><trkpt lat="44.3880683" lon="8.4024167"><ele>685.0</ele><time>2026-04-04T09:16:51.973Z</time></trkpt><trkpt lat="44.3881655" lon="8.4023231"><ele>682.0</ele><time>2026-04-04T09:16:52.973Z</time></trkpt><trkpt lat="44.3882676" lon="8.4022672"><ele>679.0</ele><time>2026-04-04T09:16:53.973Z</time></trkpt><trkpt lat="44.3883771" lon="8.4022491"><ele>676.0</ele><time>2026-04-04T09:16:54.972Z</time></trkpt><trkpt lat="44.3884945" lon="8.4022613"><ele>673.0</ele><time>2026-04-04T09:16:55.972Z</time></trkpt><trkpt lat="44.3886139" lon="8.402309"><ele>673.0</ele><time>2026-04-04T09:16:56.972Z</time></trkpt><trkpt lat="44.3887311" lon="8.4023766"><ele>673.0</ele><time>2026-04-04T09:16:57.973Z</time></trkpt><trkpt lat="44.3888502" lon="8.4024567"><ele>673.0</ele><time>2026-04-04T09:16:58.973Z</time></trkpt><trkpt lat="44.3889763" lon="8.4025204"><ele>673.0</ele><time>2026-04-04T09:16:59.973Z</time></trkpt><trkpt lat="44.3891062" lon="8.4025765"><ele>670.25</ele><time>2026-04-04T09:17:00.972Z</time></trkpt><trkpt lat="44.3892343" lon="8.4026091"><ele>667.5</ele><time>2026-04-04T09:17:01.972Z</time></trkpt><trkpt lat="44.3893602" lon="8.4026449"><ele>664.75</ele><time>2026-04-04T09:17:02.973Z</time></trkpt><trkpt lat="44.3894746" lon="8.4026877"><ele>662.0</ele><time>2026-04-04T09:17:03.972Z</time></trkpt><trkpt lat="44.3895863" lon="8.4027505"><ele>661.8</ele><time>2026-04-04T09:17:04.972Z</time></trkpt><trkpt lat="44.3896921" lon="8.4028199"><ele>661.6</ele><time>2026-04-04T09:17:05.973Z</time></trkpt><trkpt lat="44.3897935" lon="8.4028802"><ele>661.4</ele><time>2026-04-04T09:17:06.973Z</time></trkpt><trkpt lat="44.3898812" lon="8.4029266"><ele>661.1999999999999</ele><time>2026-04-04T09:17:07.973Z</time></trkpt><trkpt lat="44.3899522" lon="8.4029695"><ele>661.0</ele><time>2026-04-04T09:17:08.972Z</time></trkpt><trkpt lat="44.3900161" lon="8.4030066"><ele>661.0</ele><time>2026-04-04T09:17:09.972Z</time></trkpt><trkpt lat="44.390081" lon="8.4030538"><ele>661.0</ele><time>2026-04-04T09:17:10.973Z</time></trkpt><trkpt lat="44.3901572" lon="8.4031024"><ele>661.0</ele><time>2026-04-04T09:17:11.973Z</time></trkpt><trkpt lat="44.3902475" lon="8.4031647"><ele>661.0</ele><time>2026-04-04T09:17:12.973Z</time></trkpt><trkpt lat="44.3903561" lon="8.4032399"><ele>661.0</ele><time>2026-04-04T09:17:13.973Z</time></trkpt><trkpt lat="44.390477" lon="8.4033228"><ele>657.6666666666667</ele><time>2026-04-04T09:17:14.973Z</time></trkpt><trkpt lat="44.3906129" lon="8.4034058"><ele>654.3333333333334</ele><time>2026-04-04T09:17:15.972Z</time></trkpt><trkpt lat="44.3907555" lon="8.4034997"><ele>651.0</ele><time>2026-04-04T09:17:16.973Z</time></trkpt><trkpt lat="44.3908995" lon="8.4036107"><ele>651.0</ele><time>2026-04-04T09:17:17.973Z</time></trkpt><trkpt lat="44.3910416" lon="8.40373"><ele>651.0</ele><time>2026-04-04T09:17:18.972Z</time></trkpt><trkpt lat="44.3911803" lon="8.4038557"><ele>651.0</ele><time>2026-04-04T09:17:19.973Z</time></trkpt><trkpt lat="44.3913042" lon="8.403978"><ele>651.3333333333334</ele><time>2026-04-04T09:17:20.973Z</time></trkpt><trkpt lat="44.3914236" lon="8.404101"><ele>651.6666666666667</ele><time>2026-04-04T09:17:21.973Z</time></trkpt><trkpt lat="44.3915346" lon="8.4042424"><ele>652.0</ele><time>2026-04-04T09:17:22.972Z</time></trkpt><trkpt lat="44.391649" lon="8.4044064"><ele>652.0</ele><time>2026-04-04T09:17:23.973Z</time></trkpt><trkpt lat="44.3917466" lon="8.4045836"><ele>652.0</ele><time>2026-04-04T09:17:24.973Z</time></trkpt><trkpt lat="44.3918388" lon="8.4047742"><ele>652.0</ele><time>2026-04-04T09:17:25.973Z</time></trkpt><trkpt lat="44.3919331" lon="8.404974"><ele>653.0</ele><time>2026-04-04T09:17:26.973Z</time></trkpt><trkpt lat="44.3920198" lon="8.4051943"><ele>654.0</ele><time>2026-04-04T09:17:27.973Z</time></trkpt><trkpt lat="44.3921242" lon="8.4053961"><ele>655.0</ele><time>2026-04-04T09:17:28.973Z</time></trkpt><trkpt lat="44.3922684" lon="8.4055524"><ele>655.0</ele><time>2026-04-04T09:17:29.973Z</time></trkpt><trkpt lat="44.3924308" lon="8.4056976"><ele>655.0</ele><time>2026-04-04T09:17:30.973Z</time></trkpt><trkpt lat="44.3926068" lon="8.4058231"><ele>655.0</ele><time>2026-04-04T09:17:31.973Z</time></trkpt><trkpt lat="44.3927873" lon="8.4059397"><ele>655.0</ele><time>2026-04-04T09:17:32.973Z</time></trkpt><trkpt lat="44.392966" lon="8.4060437"><ele>655.0</ele><time>2026-04-04T09:17:33.973Z</time></trkpt><trkpt lat="44.3931315" lon="8.4061405"><ele>655.0</ele><time>2026-04-04T09:17:34.973Z</time></trkpt><trkpt lat="44.3932896" lon="8.4062246"><ele>657.3333333333334</ele><time>2026-04-04T09:17:35.972Z</time></trkpt><trkpt lat="44.3934439" lon="8.4062945"><ele>659.6666666666666</ele><time>2026-04-04T09:17:36.973Z</time></trkpt><trkpt lat="44.3935956" lon="8.4063571"><ele>662.0</ele><time>2026-04-04T09:17:37.973Z</time></trkpt><trkpt lat="44.3937507" lon="8.406399"><ele>660.0</ele><time>2026-04-04T09:17:38.972Z</time></trkpt><trkpt lat="44.393919" lon="8.4064094"><ele>658.0</ele><time>2026-04-04T09:17:39.973Z</time></trkpt><trkpt lat="44.3940973" lon="8.4063872"><ele>656.0</ele><time>2026-04-04T09:17:40.973Z</time></trkpt><trkpt lat="44.3942794" lon="8.4063621"><ele>656.0</ele><time>2026-04-04T09:17:41.973Z</time></trkpt><trkpt lat="44.3944572" lon="8.4063406"><ele>656.0</ele><time>2026-04-04T09:17:42.973Z</time></trkpt><trkpt lat="44.3946384" lon="8.4063522"><ele>656.0</ele><time>2026-04-04T09:17:43.973Z</time></trkpt><trkpt lat="44.3948186" lon="8.4063939"><ele>654.0</ele><time>2026-04-04T09:17:44.972Z</time></trkpt><trkpt lat="44.3949913" lon="8.4064593"><ele>652.0</ele><time>2026-04-04T09:17:45.973Z</time></trkpt><trkpt lat="44.3951482" lon="8.4065479"><ele>650.0</ele><time>2026-04-04T09:17:46.973Z</time></trkpt><trkpt lat="44.395297" lon="8.4066512"><ele>650.0</ele><time>2026-04-04T09:17:47.973Z</time></trkpt><trkpt lat="44.395436" lon="8.4067782"><ele>650.0</ele><time>2026-04-04T09:17:48.973Z</time></trkpt><trkpt lat="44.3955629" lon="8.4069119"><ele>650.0</ele><time>2026-04-04T09:17:49.973Z</time></trkpt><trkpt lat="44.3956824" lon="8.4070548"><ele>648.5</ele><time>2026-04-04T09:17:50.973Z</time></trkpt><trkpt lat="44.3957898" lon="8.4072045"><ele>647.0</ele><time>2026-04-04T09:17:51.972Z</time></trkpt><trkpt lat="44.395884" lon="8.4073667"><ele>645.5</ele><time>2026-04-04T09:17:52.972Z</time></trkpt><trkpt lat="44.3959693" lon="8.407535"><ele>644.0</ele><time>2026-04-04T09:17:53.973Z</time></trkpt><trkpt lat="44.3960487" lon="8.4077112"><ele>644.0</ele><time>2026-04-04T09:17:54.972Z</time></trkpt><trkpt lat="44.3961197" lon="8.4078954"><ele>644.0</ele><time>2026-04-04T09:17:55.973Z</time></trkpt><trkpt lat="44.3961922" lon="8.4080683"><ele>644.0</ele><time>2026-04-04T09:17:56.973Z</time></trkpt><trkpt lat="44.3962662" lon="8.4082254"><ele>644.0</ele><time>2026-04-04T09:17:57.973Z</time></trkpt><trkpt lat="44.3963466" lon="8.4083548"><ele>642.8000000000001</ele><time>2026-04-04T09:17:58.972Z</time></trkpt><trkpt lat="44.3964354" lon="8.4084684"><ele>641.6</ele><time>2026-04-04T09:17:59.973Z</time></trkpt><trkpt lat="44.3965245" lon="8.4085663"><ele>640.4</ele><time>2026-04-04T09:18:00.973Z</time></trkpt><trkpt lat="44.3966178" lon="8.4086398"><ele>639.2</ele><time>2026-04-04T09:18:01.973Z</time></trkpt><trkpt lat="44.3967078" lon="8.4086944"><ele>638.0</ele><time>2026-04-04T09:18:02.973Z</time></trkpt><trkpt lat="44.3967975" lon="8.4087286"><ele>638.0</ele><time>2026-04-04T09:18:03.973Z</time></trkpt><trkpt lat="44.3968869" lon="8.4087507"><ele>638.0</ele><time>2026-04-04T09:18:04.973Z</time></trkpt><trkpt lat="44.3969703" lon="8.4087732"><ele>638.0</ele><time>2026-04-04T09:18:05.973Z</time></trkpt><trkpt lat="44.3970469" lon="8.4088008"><ele>638.0</ele><time>2026-04-04T09:18:06.973Z</time></trkpt><trkpt lat="44.3971129" lon="8.4088393"><ele>638.0</ele><time>2026-04-04T09:18:07.973Z</time></trkpt><trkpt lat="44.3971723" lon="8.4088961"><ele>638.0</ele><time>2026-04-04T09:18:08.973Z</time></trkpt><trkpt lat="44.3972323" lon="8.408972"><ele>637.4</ele><time>2026-04-04T09:18:09.973Z</time></trkpt><trkpt lat="44.397285" lon="8.40907"><ele>636.8</ele><time>2026-04-04T09:18:10.972Z</time></trkpt><trkpt lat="44.3973353" lon="8.4091985"><ele>636.2</ele><time>2026-04-04T09:18:11.972Z</time></trkpt><trkpt lat="44.3973781" lon="8.4093412"><ele>635.6</ele><time>2026-04-04T09:18:12.972Z</time></trkpt><trkpt lat="44.3974126" lon="8.4094987"><ele>635.0</ele><time>2026-04-04T09:18:13.973Z</time></trkpt><trkpt lat="44.3974388" lon="8.4096822"><ele>634.75</ele><time>2026-04-04T09:18:14.973Z</time></trkpt><trkpt lat="44.3974612" lon="8.4098606"><ele>634.5</ele><time>2026-04-04T09:18:15.973Z</time></trkpt><trkpt lat="44.3974746" lon="8.4100332"><ele>634.25</ele><time>2026-04-04T09:18:16.973Z</time></trkpt><trkpt lat="44.3974895" lon="8.4101912"><ele>634.0</ele><time>2026-04-04T09:18:17.973Z</time></trkpt><trkpt lat="44.3975021" lon="8.4103298"><ele>634.0</ele><time>2026-04-04T09:18:18.973Z</time></trkpt><trkpt lat="44.3975156" lon="8.4104573"><ele>634.0</ele><time>2026-04-04T09:18:19.972Z</time></trkpt><trkpt lat="44.3975334" lon="8.4105707"><ele>634.0</ele><time>2026-04-04T09:18:20.972Z</time></trkpt><trkpt lat="44.3975426" lon="8.4106882"><ele>634.0</ele><time>2026-04-04T09:18:21.973Z</time></trkpt><trkpt lat="44.3975711" lon="8.410793"><ele>634.0</ele><time>2026-04-04T09:18:22.973Z</time></trkpt><trkpt lat="44.3976096" lon="8.4108962"><ele>634.0</ele><time>2026-04-04T09:18:23.973Z</time></trkpt><trkpt lat="44.3976642" lon="8.41099"><ele>634.0</ele><time>2026-04-04T09:18:24.973Z</time></trkpt><trkpt lat="44.3977459" lon="8.4110712"><ele>634.0</ele><time>2026-04-04T09:18:25.973Z</time></trkpt><trkpt lat="44.3978664" lon="8.4111344"><ele>634.0</ele><time>2026-04-04T09:18:26.972Z</time></trkpt><trkpt lat="44.398002" lon="8.411163"><ele>634.0</ele><time>2026-04-04T09:18:27.973Z</time></trkpt><trkpt lat="44.398151" lon="8.4111629"><ele>633.6666666666667</ele><time>2026-04-04T09:18:28.973Z</time></trkpt><trkpt lat="44.3983021" lon="8.4111498"><ele>633.3333333333334</ele><time>2026-04-04T09:18:29.972Z</time></trkpt><trkpt lat="44.3984679" lon="8.4110742"><ele>633.0</ele><time>2026-04-04T09:18:30.973Z</time></trkpt><trkpt lat="44.3986399" lon="8.4109574"><ele>633.0</ele><time>2026-04-04T09:18:31.973Z</time></trkpt><trkpt lat="44.3987749" lon="8.4107771"><ele>633.0</ele><time>2026-04-04T09:18:32.972Z</time></trkpt><trkpt lat="44.3988848" lon="8.410573"><ele>633.0</ele><time>2026-04-04T09:18:33.973Z</time></trkpt><trkpt lat="44.3990099" lon="8.4104169"><ele>631.0</ele><time>2026-04-04T09:18:34.973Z</time></trkpt><trkpt lat="44.3991108" lon="8.4103069"><ele>629.0</ele><time>2026-04-04T09:18:35.973Z</time></trkpt><trkpt lat="44.3991853" lon="8.4102272"><ele>627.0</ele><time>2026-04-04T09:18:36.973Z</time></trkpt><trkpt lat="44.3992555" lon="8.4101747"><ele>625.0</ele><time>2026-04-04T09:18:37.973Z</time></trkpt><trkpt lat="44.3993156" lon="8.4102433"><ele>623.0</ele><time>2026-04-04T09:18:38.972Z</time></trkpt><trkpt lat="44.3993543" lon="8.4104381"><ele>623.0</ele><time>2026-04-04T09:18:39.973Z</time></trkpt><trkpt lat="44.3993858" lon="8.4106639"><ele>623.0</ele><time>2026-04-04T09:18:40.973Z</time></trkpt><trkpt lat="44.3994309" lon="8.4108847"><ele>623.0</ele><time>2026-04-04T09:18:41.973Z</time></trkpt><trkpt lat="44.3994838" lon="8.4111"><ele>623.0</ele><time>2026-04-04T09:18:42.972Z</time></trkpt><trkpt lat="44.3995504" lon="8.4113032"><ele>623.0</ele><time>2026-04-04T09:18:43.973Z</time></trkpt><trkpt lat="44.3996195" lon="8.4114977"><ele>623.0</ele><time>2026-04-04T09:18:44.973Z</time></trkpt><trkpt lat="44.3996978" lon="8.4116808"><ele>620.6666666666666</ele><time>2026-04-04T09:18:45.973Z</time></trkpt><trkpt lat="44.39979" lon="8.4118639"><ele>618.3333333333334</ele><time>2026-04-04T09:18:46.973Z</time></trkpt><trkpt lat="44.3998938" lon="8.4120328"><ele>616.0</ele><time>2026-04-04T09:18:47.973Z</time></trkpt><trkpt lat="44.3999908" lon="8.4122002"><ele>616.0</ele><time>2026-04-04T09:18:48.973Z</time></trkpt><trkpt lat="44.4000922" lon="8.4123504"><ele>616.0</ele><time>2026-04-04T09:18:49.973Z</time></trkpt><trkpt lat="44.4002001" lon="8.4124681"><ele>616.0</ele><time>2026-04-04T09:18:50.973Z</time></trkpt><trkpt lat="44.4002965" lon="8.4125616"><ele>616.0</ele><time>2026-04-04T09:18:51.973Z</time></trkpt><trkpt lat="44.400389" lon="8.4126406"><ele>616.0</ele><time>2026-04-04T09:18:52.972Z</time></trkpt><trkpt lat="44.4004843" lon="8.4126904"><ele>616.0</ele><time>2026-04-04T09:18:53.973Z</time></trkpt><trkpt lat="44.400583" lon="8.4127163"><ele>616.0</ele><time>2026-04-04T09:18:54.973Z</time></trkpt><trkpt lat="44.4006802" lon="8.4127077"><ele>616.0</ele><time>2026-04-04T09:18:55.973Z</time></trkpt><trkpt lat="44.4007644" lon="8.4126642"><ele>616.0</ele><time>2026-04-04T09:18:56.972Z</time></trkpt><trkpt lat="44.4008388" lon="8.4125978"><ele>616.8333333333334</ele><time>2026-04-04T09:18:57.973Z</time></trkpt><trkpt lat="44.4008987" lon="8.4124917"><ele>617.6666666666667</ele><time>2026-04-04T09:18:58.973Z</time></trkpt><trkpt lat="44.4009584" lon="8.412414"><ele>618.5</ele><time>2026-04-04T09:18:59.973Z</time></trkpt><trkpt lat="44.4010236" lon="8.4123599"><ele>619.3333333333334</ele><time>2026-04-04T09:19:00.972Z</time></trkpt><trkpt lat="44.401097" lon="8.4123339"><ele>620.1666666666666</ele><time>2026-04-04T09:19:01.972Z</time></trkpt><trkpt lat="44.4011739" lon="8.4123155"><ele>621.0</ele><time>2026-04-04T09:19:02.971Z</time></trkpt><trkpt lat="44.401253" lon="8.4123118"><ele>619.75</ele><time>2026-04-04T09:19:03.972Z</time></trkpt><trkpt lat="44.4013401" lon="8.4123414"><ele>618.5</ele><time>2026-04-04T09:19:04.971Z</time></trkpt><trkpt lat="44.4014521" lon="8.4123986"><ele>617.25</ele><time>2026-04-04T09:19:05.972Z</time></trkpt><trkpt lat="44.401573" lon="8.4124498"><ele>616.0</ele><time>2026-04-04T09:19:06.971Z</time></trkpt><trkpt lat="44.4016999" lon="8.4125193"><ele>616.0</ele><time>2026-04-04T09:19:07.972Z</time></trkpt><trkpt lat="44.40184" lon="8.412616"><ele>616.0</ele><time>2026-04-04T09:19:08.972Z</time></trkpt><trkpt lat="44.4019873" lon="8.4127088"><ele>616.0</ele><time>2026-04-04T09:19:09.971Z</time></trkpt><trkpt lat="44.402155" lon="8.4128144"><ele>615.0</ele><time>2026-04-04T09:19:10.972Z</time></trkpt><trkpt lat="44.4023251" lon="8.4129166"><ele>614.0</ele><time>2026-04-04T09:19:11.972Z</time></trkpt><trkpt lat="44.4024826" lon="8.4130199"><ele>613.0</ele><time>2026-04-04T09:19:12.972Z</time></trkpt><trkpt lat="44.402639" lon="8.413137"><ele>613.6666666666667</ele><time>2026-04-04T09:19:13.972Z</time></trkpt><trkpt lat="44.4027912" lon="8.4132533"><ele>614.3333333333334</ele><time>2026-04-04T09:19:14.972Z</time></trkpt><trkpt lat="44.402947" lon="8.4133629"><ele>615.0</ele><time>2026-04-04T09:19:15.972Z</time></trkpt><trkpt lat="44.4031014" lon="8.4134658"><ele>615.0</ele><time>2026-04-04T09:19:16.972Z</time></trkpt><trkpt lat="44.4032589" lon="8.4135688"><ele>615.0</ele><time>2026-04-04T09:19:17.972Z</time></trkpt><trkpt lat="44.4034121" lon="8.4136711"><ele>615.0</ele><time>2026-04-04T09:19:18.972Z</time></trkpt><trkpt lat="44.4035588" lon="8.4137724"><ele>612.3333333333334</ele><time>2026-04-04T09:19:19.972Z</time></trkpt><trkpt lat="44.403704" lon="8.4138756"><ele>609.6666666666667</ele><time>2026-04-04T09:19:20.972Z</time></trkpt><trkpt lat="44.4038512" lon="8.4139791"><ele>607.0</ele><time>2026-04-04T09:19:21.972Z</time></trkpt><trkpt lat="44.4040004" lon="8.4140761"><ele>607.0</ele><time>2026-04-04T09:19:22.972Z</time></trkpt><trkpt lat="44.4041525" lon="8.4141751"><ele>607.0</ele><time>2026-04-04T09:19:23.971Z</time></trkpt><trkpt lat="44.4042922" lon="8.4142898"><ele>607.0</ele><time>2026-04-04T09:19:24.972Z</time></trkpt><trkpt lat="44.404416" lon="8.4143842"><ele>607.0</ele><time>2026-04-04T09:19:25.971Z</time></trkpt><trkpt lat="44.4045357" lon="8.4144637"><ele>607.0</ele><time>2026-04-04T09:19:26.972Z</time></trkpt><trkpt lat="44.4046561" lon="8.4144866"><ele>607.0</ele><time>2026-04-04T09:19:27.972Z</time></trkpt><trkpt lat="44.404782" lon="8.4144721"><ele>607.0</ele><time>2026-04-04T09:19:28.972Z</time></trkpt><trkpt lat="44.4049083" lon="8.4144645"><ele>605.5</ele><time>2026-04-04T09:19:29.972Z</time></trkpt><trkpt lat="44.4050356" lon="8.4144844"><ele>604.0</ele><time>2026-04-04T09:19:30.972Z</time></trkpt><trkpt lat="44.4051459" lon="8.414521"><ele>602.5</ele><time>2026-04-04T09:19:31.972Z</time></trkpt><trkpt lat="44.4052514" lon="8.4146152"><ele>601.0</ele><time>2026-04-04T09:19:32.972Z</time></trkpt><trkpt lat="44.4053638" lon="8.4147725"><ele>599.6666666666667</ele><time>2026-04-04T09:19:33.972Z</time></trkpt><trkpt lat="44.4054786" lon="8.414935"><ele>598.3333333333334</ele><time>2026-04-04T09:19:34.972Z</time></trkpt><trkpt lat="44.4055767" lon="8.4151008"><ele>597.0</ele><time>2026-04-04T09:19:35.972Z</time></trkpt><trkpt lat="44.4056745" lon="8.4152581"><ele>597.0</ele><time>2026-04-04T09:19:36.972Z</time></trkpt><trkpt lat="44.4057629" lon="8.4154032"><ele>597.0</ele><time>2026-04-04T09:19:37.971Z</time></trkpt><trkpt lat="44.4058383" lon="8.4155394"><ele>597.0</ele><time>2026-04-04T09:19:38.972Z</time></trkpt><trkpt lat="44.4058986" lon="8.4156523"><ele>597.0</ele><time>2026-04-04T09:19:39.971Z</time></trkpt><trkpt lat="44.4059463" lon="8.4157549"><ele>597.0</ele><time>2026-04-04T09:19:40.972Z</time></trkpt><trkpt lat="44.4059798" lon="8.4158504"><ele>597.2857142857143</ele><time>2026-04-04T09:19:41.972Z</time></trkpt><trkpt lat="44.4060098" lon="8.4159303"><ele>597.5714285714286</ele><time>2026-04-04T09:19:42.972Z</time></trkpt><trkpt lat="44.4060512" lon="8.4160352"><ele>597.8571428571429</ele><time>2026-04-04T09:19:44.971Z</time></trkpt><trkpt lat="44.4060771" lon="8.4161293"><ele>598.1428571428571</ele><time>2026-04-04T09:19:47.972Z</time></trkpt><trkpt lat="44.4060167" lon="8.4160383"><ele>598.4285714285714</ele><time>2026-04-04T09:22:21.972Z</time></trkpt><trkpt lat="44.4060767" lon="8.41607"><ele>598.7142857142858</ele><time>2026-04-04T09:22:44.972Z</time></trkpt><trkpt lat="44.4061383" lon="8.4160283"><ele>599.0</ele><time>2026-04-04T09:22:47.971Z</time></trkpt><trkpt lat="44.4062017" lon="8.41597"><ele>599.0</ele><time>2026-04-04T09:22:50.971Z</time></trkpt><trkpt lat="44.40626" lon="8.4160917"><ele>599.0</ele><time>2026-04-04T09:24:05.97Z</time></trkpt><trkpt lat="44.40632" lon="8.4161817"><ele>599.0</ele><time>2026-04-04T09:24:20.971Z</time></trkpt><trkpt lat="44.406375" lon="8.4162317"><ele>599.0</ele><time>2026-04-04T09:24:31.971Z</time></trkpt><trkpt lat="44.40644" lon="8.416285"><ele>599.0</ele><time>2026-04-04T09:24:34.97Z</time></trkpt><trkpt lat="44.4065" lon="8.4163183"><ele>599.0</ele><time>2026-04-04T09:24:36.971Z</time></trkpt><trkpt lat="44.40656" lon="8.416355"><ele>598.6</ele><time>2026-04-04T09:24:38.971Z</time></trkpt><trkpt lat="44.406635" lon="8.4163367"><ele>598.2</ele><time>2026-04-04T09:24:41.97Z</time></trkpt><trkpt lat="44.4066933" lon="8.4162533"><ele>597.8000000000001</ele><time>2026-04-04T09:26:35.971Z</time></trkpt><trkpt lat="44.40677" lon="8.4162217"><ele>597.4</ele><time>2026-04-04T09:26:36.971Z</time></trkpt><trkpt lat="44.4068833" lon="8.4162133"><ele>597.0</ele><time>2026-04-04T09:26:37.97Z</time></trkpt><trkpt lat="44.4070233" lon="8.4162233"><ele>595.5</ele><time>2026-04-04T09:26:38.971Z</time></trkpt><trkpt lat="44.4071733" lon="8.4162367"><ele>594.0</ele><time>2026-04-04T09:26:39.971Z</time></trkpt><trkpt lat="44.407315" lon="8.4162517"><ele>592.5</ele><time>2026-04-04T09:26:40.971Z</time></trkpt><trkpt lat="44.4074683" lon="8.4162767"><ele>591.0</ele><time>2026-04-04T09:26:41.97Z</time></trkpt><trkpt lat="44.4076183" lon="8.4162917"><ele>591.0</ele><time>2026-04-04T09:26:42.971Z</time></trkpt><trkpt lat="44.407775" lon="8.416315"><ele>591.0</ele><time>2026-04-04T09:26:43.971Z</time></trkpt><trkpt lat="44.4079167" lon="8.41635"><ele>591.0</ele><time>2026-04-04T09:26:44.971Z</time></trkpt><trkpt lat="44.4080733" lon="8.4163683"><ele>589.5</ele><time>2026-04-04T09:26:45.971Z</time></trkpt><trkpt lat="44.4082083" lon="8.4163783"><ele>588.0</ele><time>2026-04-04T09:26:46.971Z</time></trkpt><trkpt lat="44.4083483" lon="8.4163383"><ele>586.5</ele><time>2026-04-04T09:26:47.971Z</time></trkpt><trkpt lat="44.40848" lon="8.41624"><ele>585.0</ele><time>2026-04-04T09:26:48.971Z</time></trkpt><trkpt lat="44.4086067" lon="8.41609"><ele>585.0</ele><time>2026-04-04T09:26:49.971Z</time></trkpt><trkpt lat="44.4087133" lon="8.41589"><ele>585.0</ele><time>2026-04-04T09:26:50.971Z</time></trkpt><trkpt lat="44.408795" lon="8.41567"><ele>585.0</ele><time>2026-04-04T09:26:51.971Z</time></trkpt><trkpt lat="44.408885" lon="8.4154667"><ele>584.6666666666666</ele><time>2026-04-04T09:26:52.971Z</time></trkpt><trkpt lat="44.4089767" lon="8.41525"><ele>584.3333333333333</ele><time>2026-04-04T09:26:53.971Z</time></trkpt><trkpt lat="44.4090817" lon="8.415065"><ele>584.0</ele><time>2026-04-04T09:26:54.97Z</time></trkpt><trkpt lat="44.4092067" lon="8.4149"><ele>584.0</ele><time>2026-04-04T09:26:55.971Z</time></trkpt><trkpt lat="44.4093467" lon="8.4147417"><ele>584.0</ele><time>2026-04-04T09:26:56.97Z</time></trkpt><trkpt lat="44.4095" lon="8.4146117"><ele>584.0</ele><time>2026-04-04T09:26:57.971Z</time></trkpt><trkpt lat="44.4096767" lon="8.4144883"><ele>581.6666666666666</ele><time>2026-04-04T09:26:58.971Z</time></trkpt><trkpt lat="44.4098633" lon="8.414385"><ele>579.3333333333334</ele><time>2026-04-04T09:26:59.971Z</time></trkpt><trkpt lat="44.41005" lon="8.4142783"><ele>577.0</ele><time>2026-04-04T09:27:00.971Z</time></trkpt><trkpt lat="44.4102517" lon="8.414175"><ele>577.0</ele><time>2026-04-04T09:27:01.97Z</time></trkpt><trkpt lat="44.410465" lon="8.4140967"><ele>577.0</ele><time>2026-04-04T09:27:02.971Z</time></trkpt><trkpt lat="44.4106517" lon="8.413995"><ele>577.0</ele><time>2026-04-04T09:27:03.971Z</time></trkpt><trkpt lat="44.4108333" lon="8.4138867"><ele>576.0</ele><time>2026-04-04T09:27:04.971Z</time></trkpt><trkpt lat="44.4110033" lon="8.4137817"><ele>575.0</ele><time>2026-04-04T09:27:05.971Z</time></trkpt><trkpt lat="44.411175" lon="8.4136883"><ele>574.0</ele><time>2026-04-04T09:27:06.971Z</time></trkpt><trkpt lat="44.4113317" lon="8.4136083"><ele>571.75</ele><time>2026-04-04T09:27:07.971Z</time></trkpt><trkpt lat="44.411475" lon="8.413525"><ele>569.5</ele><time>2026-04-04T09:27:08.97Z</time></trkpt><trkpt lat="44.411625" lon="8.413455"><ele>567.25</ele><time>2026-04-04T09:27:09.971Z</time></trkpt><trkpt lat="44.4117433" lon="8.413385"><ele>565.0</ele><time>2026-04-04T09:27:10.971Z</time></trkpt><trkpt lat="44.411865" lon="8.41333"><ele>565.0</ele><time>2026-04-04T09:27:11.971Z</time></trkpt><trkpt lat="44.4119883" lon="8.41329"><ele>565.0</ele><time>2026-04-04T09:27:12.971Z</time></trkpt><trkpt lat="44.4121117" lon="8.413275"><ele>565.0</ele><time>2026-04-04T09:27:13.971Z</time></trkpt><trkpt lat="44.4122233" lon="8.413265"><ele>565.0</ele><time>2026-04-04T09:27:14.971Z</time></trkpt><trkpt lat="44.4123433" lon="8.4133083"><ele>564.75</ele><time>2026-04-04T09:27:15.971Z</time></trkpt><trkpt lat="44.412455" lon="8.4133933"><ele>564.5</ele><time>2026-04-04T09:27:16.97Z</time></trkpt><trkpt lat="44.4125767" lon="8.4135083"><ele>564.25</ele><time>2026-04-04T09:27:17.971Z</time></trkpt><trkpt lat="44.412705" lon="8.413615"><ele>564.0</ele><time>2026-04-04T09:27:18.971Z</time></trkpt><trkpt lat="44.4128367" lon="8.4137183"><ele>564.0</ele><time>2026-04-04T09:27:19.97Z</time></trkpt><trkpt lat="44.4129817" lon="8.41381"><ele>564.0</ele><time>2026-04-04T09:27:20.971Z</time></trkpt><trkpt lat="44.413135" lon="8.413905"><ele>564.0</ele><time>2026-04-04T09:27:21.971Z</time></trkpt><trkpt lat="44.4132883" lon="8.4140017"><ele>563.6666666666666</ele><time>2026-04-04T09:27:22.971Z</time></trkpt><trkpt lat="44.4134383" lon="8.4140933"><ele>563.3333333333333</ele><time>2026-04-04T09:27:23.971Z</time></trkpt><trkpt lat="44.4135867" lon="8.4141867"><ele>563.0</ele><time>2026-04-04T09:27:24.971Z</time></trkpt><trkpt lat="44.4137483" lon="8.41429"><ele>569.0</ele><time>2026-04-04T09:27:25.97Z</time></trkpt><trkpt lat="44.4139067" lon="8.4143967"><ele>575.0</ele><time>2026-04-04T09:27:26.971Z</time></trkpt><trkpt lat="44.41407" lon="8.414505"><ele>581.0</ele><time>2026-04-04T09:27:27.971Z</time></trkpt><trkpt lat="44.4142267" lon="8.4146117"><ele>579.0</ele><time>2026-04-04T09:27:28.97Z</time></trkpt><trkpt lat="44.4143883" lon="8.4147083"><ele>577.0</ele><time>2026-04-04T09:27:29.971Z</time></trkpt><trkpt lat="44.414525" lon="8.4148333"><ele>575.0</ele><time>2026-04-04T09:27:30.971Z</time></trkpt><trkpt lat="44.4146717" lon="8.4149417"><ele>575.0</ele><time>2026-04-04T09:27:31.971Z</time></trkpt><trkpt lat="44.41482" lon="8.4150433"><ele>575.0</ele><time>2026-04-04T09:27:32.97Z</time></trkpt><trkpt lat="44.4149633" lon="8.4151467"><ele>575.0</ele><time>2026-04-04T09:27:33.971Z</time></trkpt><trkpt lat="44.4151" lon="8.41524"><ele>575.0</ele><time>2026-04-04T09:27:34.971Z</time></trkpt><trkpt lat="44.4152333" lon="8.4153217"><ele>575.0</ele><time>2026-04-04T09:27:35.971Z</time></trkpt><trkpt lat="44.4153667" lon="8.4153983"><ele>575.0</ele><time>2026-04-04T09:27:36.971Z</time></trkpt><trkpt lat="44.415505" lon="8.41546"><ele>575.0</ele><time>2026-04-04T09:27:37.971Z</time></trkpt><trkpt lat="44.4156317" lon="8.4154983"><ele>572.5</ele><time>2026-04-04T09:27:38.971Z</time></trkpt><trkpt lat="44.4157533" lon="8.4155217"><ele>570.0</ele><time>2026-04-04T09:27:39.971Z</time></trkpt><trkpt lat="44.4158667" lon="8.415525"><ele>567.5</ele><time>2026-04-04T09:27:40.97Z</time></trkpt><trkpt lat="44.4159683" lon="8.41553"><ele>565.0</ele><time>2026-04-04T09:27:41.971Z</time></trkpt><trkpt lat="44.416085" lon="8.4155317"><ele>565.0</ele><time>2026-04-04T09:27:42.971Z</time></trkpt><trkpt lat="44.4161983" lon="8.415555"><ele>565.0</ele><time>2026-04-04T09:27:43.971Z</time></trkpt><trkpt lat="44.4163133" lon="8.415575"><ele>565.0</ele><time>2026-04-04T09:27:44.971Z</time></trkpt><trkpt lat="44.4164383" lon="8.4156033"><ele>565.0</ele><time>2026-04-04T09:27:45.971Z</time></trkpt><trkpt lat="44.416575" lon="8.4156583"><ele>567.0</ele><time>2026-04-04T09:27:46.971Z</time></trkpt><trkpt lat="44.416705" lon="8.4157183"><ele>569.0</ele><time>2026-04-04T09:27:47.97Z</time></trkpt><trkpt lat="44.416835" lon="8.4157767"><ele>571.0</ele><time>2026-04-04T09:27:48.971Z</time></trkpt><trkpt lat="44.41697" lon="8.4158517"><ele>573.0</ele><time>2026-04-04T09:27:49.971Z</time></trkpt><trkpt lat="44.4170933" lon="8.4159567"><ele>574.5</ele><time>2026-04-04T09:27:50.971Z</time></trkpt><trkpt lat="44.417195" lon="8.41609"><ele>576.0</ele><time>2026-04-04T09:27:51.971Z</time></trkpt><trkpt lat="44.4172933" lon="8.4162317"><ele>577.5</ele><time>2026-04-04T09:27:52.971Z</time></trkpt><trkpt lat="44.4173833" lon="8.4163867"><ele>579.0</ele><time>2026-04-04T09:27:53.97Z</time></trkpt><trkpt lat="44.4174567" lon="8.416545"><ele>579.0</ele><time>2026-04-04T09:27:54.97Z</time></trkpt><trkpt lat="44.41753" lon="8.4167067"><ele>579.0</ele><time>2026-04-04T09:27:55.971Z</time></trkpt><trkpt lat="44.4176183" lon="8.4168783"><ele>579.0</ele><time>2026-04-04T09:27:56.971Z</time></trkpt><trkpt lat="44.41769" lon="8.4170517"><ele>579.0</ele><time>2026-04-04T09:27:57.971Z</time></trkpt><trkpt lat="44.417765" lon="8.4172317"><ele>577.0</ele><time>2026-04-04T09:27:58.97Z</time></trkpt><trkpt lat="44.4178367" lon="8.4174183"><ele>575.0</ele><time>2026-04-04T09:27:59.971Z</time></trkpt><trkpt lat="44.4179233" lon="8.4175933"><ele>573.0</ele><time>2026-04-04T09:28:00.971Z</time></trkpt><trkpt lat="44.4180133" lon="8.4177683"><ele>576.3333333333334</ele><time>2026-04-04T09:28:01.97Z</time></trkpt><trkpt lat="44.418115" lon="8.41793"><ele>579.6666666666667</ele><time>2026-04-04T09:28:02.971Z</time></trkpt><trkpt lat="44.4182233" lon="8.4180867"><ele>583.0</ele><time>2026-04-04T09:28:03.97Z</time></trkpt><trkpt lat="44.4183217" lon="8.4182417"><ele>583.0</ele><time>2026-04-04T09:28:04.971Z</time></trkpt><trkpt lat="44.4184267" lon="8.4183883"><ele>583.0</ele><time>2026-04-04T09:28:05.971Z</time></trkpt><trkpt lat="44.4185233" lon="8.4185417"><ele>583.0</ele><time>2026-04-04T09:28:06.97Z</time></trkpt><trkpt lat="44.4186067" lon="8.41871"><ele>583.0</ele><time>2026-04-04T09:28:07.97Z</time></trkpt><trkpt lat="44.4186883" lon="8.4188967"><ele>580.0</ele><time>2026-04-04T09:28:08.97Z</time></trkpt><trkpt lat="44.4187733" lon="8.4190917"><ele>577.0</ele><time>2026-04-04T09:28:09.97Z</time></trkpt><trkpt lat="44.4188633" lon="8.4192833"><ele>574.0</ele><time>2026-04-04T09:28:10.97Z</time></trkpt><trkpt lat="44.4189583" lon="8.41948"><ele>578.3333333333334</ele><time>2026-04-04T09:28:11.97Z</time></trkpt><trkpt lat="44.4190385" lon="8.4196871"><ele>582.6666666666666</ele><time>2026-04-04T09:28:12.97Z</time></trkpt><trkpt lat="44.4191263" lon="8.4198747"><ele>587.0</ele><time>2026-04-04T09:28:13.97Z</time></trkpt><trkpt lat="44.4192185" lon="8.4200571"><ele>587.0</ele><time>2026-04-04T09:28:14.97Z</time></trkpt><trkpt lat="44.4193014" lon="8.4202154"><ele>587.0</ele><time>2026-04-04T09:28:15.969Z</time></trkpt><trkpt lat="44.4193782" lon="8.4203736"><ele>587.0</ele><time>2026-04-04T09:28:16.97Z</time></trkpt><trkpt lat="44.4194542" lon="8.4205185"><ele>587.0</ele><time>2026-04-04T09:28:17.97Z</time></trkpt><trkpt lat="44.4195192" lon="8.4206562"><ele>586.2</ele><time>2026-04-04T09:28:18.97Z</time></trkpt><trkpt lat="44.4195715" lon="8.4207782"><ele>585.4000000000001</ele><time>2026-04-04T09:28:19.969Z</time></trkpt><trkpt lat="44.419655" lon="8.4208535"><ele>584.5999999999999</ele><time>2026-04-04T09:28:20.97Z</time></trkpt><trkpt lat="44.4197508" lon="8.4208825"><ele>583.8</ele><time>2026-04-04T09:28:21.97Z</time></trkpt><trkpt lat="44.4198496" lon="8.420847"><ele>583.0</ele><time>2026-04-04T09:28:22.969Z</time></trkpt><trkpt lat="44.4199474" lon="8.42076"><ele>583.0</ele><time>2026-04-04T09:28:23.97Z</time></trkpt><trkpt lat="44.4200363" lon="8.4206406"><ele>583.0</ele><time>2026-04-04T09:28:24.97Z</time></trkpt><trkpt lat="44.4201277" lon="8.4204846"><ele>583.0</ele><time>2026-04-04T09:28:25.97Z</time></trkpt><trkpt lat="44.4202152" lon="8.4202914"><ele>583.0</ele><time>2026-04-04T09:28:26.97Z</time></trkpt><trkpt lat="44.4202987" lon="8.4201039"><ele>583.5</ele><time>2026-04-04T09:28:27.97Z</time></trkpt><trkpt lat="44.4203851" lon="8.4199403"><ele>584.0</ele><time>2026-04-04T09:28:28.97Z</time></trkpt><trkpt lat="44.4204667" lon="8.4197977"><ele>584.5</ele><time>2026-04-04T09:28:29.97Z</time></trkpt><trkpt lat="44.42054" lon="8.4196642"><ele>585.0</ele><time>2026-04-04T09:28:30.969Z</time></trkpt><trkpt lat="44.4205897" lon="8.4195287"><ele>586.4</ele><time>2026-04-04T09:28:31.97Z</time></trkpt><trkpt lat="44.4206269" lon="8.4193636"><ele>587.8</ele><time>2026-04-04T09:28:32.969Z</time></trkpt><trkpt lat="44.420641" lon="8.4192"><ele>589.2</ele><time>2026-04-04T09:28:33.969Z</time></trkpt><trkpt lat="44.4206448" lon="8.4190474"><ele>590.6</ele><time>2026-04-04T09:28:34.97Z</time></trkpt><trkpt lat="44.420624" lon="8.4189246"><ele>592.0</ele><time>2026-04-04T09:28:35.97Z</time></trkpt><trkpt lat="44.4205797" lon="8.4188052"><ele>592.0</ele><time>2026-04-04T09:28:36.97Z</time></trkpt><trkpt lat="44.4205202" lon="8.418676"><ele>592.0</ele><time>2026-04-04T09:28:37.97Z</time></trkpt><trkpt lat="44.4204491" lon="8.4185389"><ele>592.0</ele><time>2026-04-04T09:28:38.97Z</time></trkpt><trkpt lat="44.4203566" lon="8.4184114"><ele>592.0</ele><time>2026-04-04T09:28:39.969Z</time></trkpt><trkpt lat="44.4202512" lon="8.4182932"><ele>593.25</ele><time>2026-04-04T09:28:40.97Z</time></trkpt><trkpt lat="44.4201414" lon="8.4181818"><ele>594.5</ele><time>2026-04-04T09:28:41.969Z</time></trkpt><trkpt lat="44.4200425" lon="8.4180702"><ele>595.75</ele><time>2026-04-04T09:28:42.97Z</time></trkpt><trkpt lat="44.4199549" lon="8.4179509"><ele>597.0</ele><time>2026-04-04T09:28:43.97Z</time></trkpt><trkpt lat="44.4198872" lon="8.4178182"><ele>597.0</ele><time>2026-04-04T09:28:44.97Z</time></trkpt><trkpt lat="44.4198511" lon="8.4176663"><ele>597.0</ele><time>2026-04-04T09:28:45.97Z</time></trkpt><trkpt lat="44.4198396" lon="8.4175066"><ele>597.0</ele><time>2026-04-04T09:28:46.97Z</time></trkpt><trkpt lat="44.4198646" lon="8.4173344"><ele>597.0</ele><time>2026-04-04T09:28:47.97Z</time></trkpt><trkpt lat="44.4199239" lon="8.4171484"><ele>599.0</ele><time>2026-04-04T09:28:48.97Z</time></trkpt><trkpt lat="44.4200164" lon="8.4169565"><ele>601.0</ele><time>2026-04-04T09:28:49.97Z</time></trkpt><trkpt lat="44.4201097" lon="8.4167561"><ele>603.0</ele><time>2026-04-04T09:28:50.97Z</time></trkpt><trkpt lat="44.4201978" lon="8.4165444"><ele>605.3333333333334</ele><time>2026-04-04T09:28:51.969Z</time></trkpt><trkpt lat="44.4202852" lon="8.4163142"><ele>607.6666666666667</ele><time>2026-04-04T09:28:52.97Z</time></trkpt><trkpt lat="44.420358" lon="8.4161072"><ele>610.0</ele><time>2026-04-04T09:28:53.969Z</time></trkpt><trkpt lat="44.4204321" lon="8.4159151"><ele>609.25</ele><time>2026-04-04T09:28:54.97Z</time></trkpt><trkpt lat="44.420526" lon="8.4157525"><ele>608.5</ele><time>2026-04-04T09:28:55.97Z</time></trkpt><trkpt lat="44.4206346" lon="8.4156074"><ele>607.75</ele><time>2026-04-04T09:28:56.97Z</time></trkpt><trkpt lat="44.4207365" lon="8.4154772"><ele>607.0</ele><time>2026-04-04T09:28:57.97Z</time></trkpt><trkpt lat="44.4208331" lon="8.4153788"><ele>607.0</ele><time>2026-04-04T09:28:58.97Z</time></trkpt><trkpt lat="44.4209357" lon="8.4153001"><ele>607.0</ele><time>2026-04-04T09:28:59.969Z</time></trkpt><trkpt lat="44.421055" lon="8.4152707"><ele>607.0</ele><time>2026-04-04T09:29:00.97Z</time></trkpt><trkpt lat="44.4211829" lon="8.4152479"><ele>607.0</ele><time>2026-04-04T09:29:01.97Z</time></trkpt><trkpt lat="44.4213195" lon="8.4152179"><ele>603.5</ele><time>2026-04-04T09:29:02.969Z</time></trkpt><trkpt lat="44.4214715" lon="8.4152014"><ele>600.0</ele><time>2026-04-04T09:29:03.97Z</time></trkpt><trkpt lat="44.4216024" lon="8.4151735"><ele>596.5</ele><time>2026-04-04T09:29:04.97Z</time></trkpt><trkpt lat="44.4217146" lon="8.4151253"><ele>593.0</ele><time>2026-04-04T09:29:05.97Z</time></trkpt><trkpt lat="44.4218103" lon="8.4150562"><ele>593.0</ele><time>2026-04-04T09:29:06.969Z</time></trkpt><trkpt lat="44.4218882" lon="8.4149422"><ele>593.0</ele><time>2026-04-04T09:29:07.969Z</time></trkpt><trkpt lat="44.4219444" lon="8.4147993"><ele>593.0</ele><time>2026-04-04T09:29:08.969Z</time></trkpt><trkpt lat="44.4219822" lon="8.4146294"><ele>593.0</ele><time>2026-04-04T09:29:09.97Z</time></trkpt><trkpt lat="44.4220083" lon="8.4144386"><ele>592.25</ele><time>2026-04-04T09:29:10.969Z</time></trkpt><trkpt lat="44.4220566" lon="8.4142232"><ele>591.5</ele><time>2026-04-04T09:29:11.97Z</time></trkpt><trkpt lat="44.4220995" lon="8.4140193"><ele>590.75</ele><time>2026-04-04T09:29:12.97Z</time></trkpt><trkpt lat="44.4221505" lon="8.4138504"><ele>590.0</ele><time>2026-04-04T09:29:13.969Z</time></trkpt><trkpt lat="44.4222179" lon="8.4137049"><ele>590.0</ele><time>2026-04-04T09:29:14.969Z</time></trkpt><trkpt lat="44.4223037" lon="8.4135968"><ele>590.0</ele><time>2026-04-04T09:29:15.97Z</time></trkpt><trkpt lat="44.4223966" lon="8.4135477"><ele>590.0</ele><time>2026-04-04T09:29:16.97Z</time></trkpt><trkpt lat="44.422506" lon="8.4135355"><ele>590.0</ele><time>2026-04-04T09:29:17.969Z</time></trkpt><trkpt lat="44.4226311" lon="8.4135534"><ele>590.0</ele><time>2026-04-04T09:29:18.969Z</time></trkpt><trkpt lat="44.422768" lon="8.413586"><ele>590.0</ele><time>2026-04-04T09:29:19.97Z</time></trkpt><trkpt lat="44.4229231" lon="8.4136099"><ele>590.0</ele><time>2026-04-04T09:29:20.97Z</time></trkpt><trkpt lat="44.4230634" lon="8.4135799"><ele>590.0</ele><time>2026-04-04T09:29:21.969Z</time></trkpt><trkpt lat="44.4231951" lon="8.4135085"><ele>589.3333333333333</ele><time>2026-04-04T09:29:22.97Z</time></trkpt><trkpt lat="44.4233222" lon="8.4134112"><ele>588.6666666666666</ele><time>2026-04-04T09:29:23.97Z</time></trkpt><trkpt lat="44.4234526" lon="8.4133109"><ele>588.0</ele><time>2026-04-04T09:29:24.97Z</time></trkpt><trkpt lat="44.423599" lon="8.4132333"><ele>588.0</ele><time>2026-04-04T09:29:25.97Z</time></trkpt><trkpt lat="44.4237526" lon="8.4131909"><ele>588.0</ele><time>2026-04-04T09:29:26.97Z</time></trkpt><trkpt lat="44.4239009" lon="8.4132025"><ele>588.0</ele><time>2026-04-04T09:29:27.97Z</time></trkpt><trkpt lat="44.4240232" lon="8.413252"><ele>588.0</ele><time>2026-04-04T09:29:28.969Z</time></trkpt><trkpt lat="44.4241319" lon="8.4133289"><ele>586.75</ele><time>2026-04-04T09:29:29.97Z</time></trkpt><trkpt lat="44.4242372" lon="8.4134028"><ele>585.5</ele><time>2026-04-04T09:29:30.97Z</time></trkpt><trkpt lat="44.4243528" lon="8.4134524"><ele>584.25</ele><time>2026-04-04T09:29:31.97Z</time></trkpt><trkpt lat="44.4244749" lon="8.4134648"><ele>583.0</ele><time>2026-04-04T09:29:32.97Z</time></trkpt><trkpt lat="44.4246132" lon="8.4134447"><ele>581.0</ele><time>2026-04-04T09:29:33.969Z</time></trkpt><trkpt lat="44.4247606" lon="8.4133918"><ele>579.0</ele><time>2026-04-04T09:29:34.97Z</time></trkpt><trkpt lat="44.4249316" lon="8.4133271"><ele>577.0</ele><time>2026-04-04T09:29:35.97Z</time></trkpt><trkpt lat="44.4251014" lon="8.4132713"><ele>577.0</ele><time>2026-04-04T09:29:36.97Z</time></trkpt><trkpt lat="44.4252678" lon="8.4132358"><ele>577.0</ele><time>2026-04-04T09:29:37.97Z</time></trkpt><trkpt lat="44.4254225" lon="8.4132156"><ele>577.0</ele><time>2026-04-04T09:29:38.97Z</time></trkpt><trkpt lat="44.4255603" lon="8.4132251"><ele>577.0</ele><time>2026-04-04T09:29:39.97Z</time></trkpt><trkpt lat="44.4256897" lon="8.4132775"><ele>577.0</ele><time>2026-04-04T09:29:40.97Z</time></trkpt><trkpt lat="44.4258174" lon="8.4133811"><ele>577.0</ele><time>2026-04-04T09:29:41.97Z</time></trkpt><trkpt lat="44.4259368" lon="8.4135312"><ele>577.0</ele><time>2026-04-04T09:29:42.97Z</time></trkpt><trkpt lat="44.4260552" lon="8.4137022"><ele>573.6666666666667</ele><time>2026-04-04T09:29:43.969Z</time></trkpt><trkpt lat="44.4261839" lon="8.4138701"><ele>570.3333333333334</ele><time>2026-04-04T09:29:44.97Z</time></trkpt><trkpt lat="44.4263325" lon="8.4140156"><ele>567.0</ele><time>2026-04-04T09:29:45.97Z</time></trkpt><trkpt lat="44.4264866" lon="8.4141417"><ele>567.0</ele><time>2026-04-04T09:29:46.97Z</time></trkpt><trkpt lat="44.4266386" lon="8.4142513"><ele>567.0</ele><time>2026-04-04T09:29:47.97Z</time></trkpt><trkpt lat="44.4267826" lon="8.4143371"><ele>567.0</ele><time>2026-04-04T09:29:48.969Z</time></trkpt><trkpt lat="44.4269041" lon="8.414414"><ele>567.0</ele><time>2026-04-04T09:29:49.97Z</time></trkpt><trkpt lat="44.4269986" lon="8.4144936"><ele>567.0</ele><time>2026-04-04T09:29:50.97Z</time></trkpt><trkpt lat="44.4270624" lon="8.4146023"><ele>567.0</ele><time>2026-04-04T09:29:51.97Z</time></trkpt><trkpt lat="44.4270962" lon="8.4147528"><ele>567.0</ele><time>2026-04-04T09:29:52.97Z</time></trkpt><trkpt lat="44.4271061" lon="8.4149374"><ele>564.3333333333334</ele><time>2026-04-04T09:29:53.97Z</time></trkpt><trkpt lat="44.4271112" lon="8.4151442"><ele>561.6666666666667</ele><time>2026-04-04T09:29:54.969Z</time></trkpt><trkpt lat="44.4271108" lon="8.4153673"><ele>559.0</ele><time>2026-04-04T09:29:55.969Z</time></trkpt><trkpt lat="44.4271087" lon="8.4155929"><ele>558.0</ele><time>2026-04-04T09:29:56.97Z</time></trkpt><trkpt lat="44.4271049" lon="8.415824"><ele>557.0</ele><time>2026-04-04T09:29:57.97Z</time></trkpt><trkpt lat="44.4271036" lon="8.4160567"><ele>556.0</ele><time>2026-04-04T09:29:58.969Z</time></trkpt><trkpt lat="44.4271125" lon="8.4162929"><ele>556.75</ele><time>2026-04-04T09:29:59.97Z</time></trkpt><trkpt lat="44.4271219" lon="8.4165148"><ele>557.5</ele><time>2026-04-04T09:30:00.969Z</time></trkpt><trkpt lat="44.4271398" lon="8.4167225"><ele>558.25</ele><time>2026-04-04T09:30:01.969Z</time></trkpt><trkpt lat="44.4271689" lon="8.4169027"><ele>559.0</ele><time>2026-04-04T09:30:02.969Z</time></trkpt><trkpt lat="44.4271973" lon="8.4170644"><ele>561.0</ele><time>2026-04-04T09:30:03.97Z</time></trkpt><trkpt lat="44.4272456" lon="8.4172066"><ele>563.0</ele><time>2026-04-04T09:30:04.969Z</time></trkpt><trkpt lat="44.4273164" lon="8.4173254"><ele>565.0</ele><time>2026-04-04T09:30:05.97Z</time></trkpt><trkpt lat="44.4274083" lon="8.4174222"><ele>567.0</ele><time>2026-04-04T09:30:06.97Z</time></trkpt><trkpt lat="44.4275316" lon="8.4174959"><ele>567.0</ele><time>2026-04-04T09:30:07.97Z</time></trkpt><trkpt lat="44.4276556" lon="8.4175477"><ele>567.0</ele><time>2026-04-04T09:30:08.97Z</time></trkpt><trkpt lat="44.4277791" lon="8.4175996"><ele>567.0</ele><time>2026-04-04T09:30:09.97Z</time></trkpt><trkpt lat="44.4278813" lon="8.4176711"><ele>567.0</ele><time>2026-04-04T09:30:10.97Z</time></trkpt><trkpt lat="44.4279619" lon="8.4177867"><ele>565.25</ele><time>2026-04-04T09:30:11.969Z</time></trkpt><trkpt lat="44.4280074" lon="8.417924"><ele>563.5</ele><time>2026-04-04T09:30:12.97Z</time></trkpt><trkpt lat="44.4280148" lon="8.4180824"><ele>561.75</ele><time>2026-04-04T09:30:13.969Z</time></trkpt><trkpt lat="44.4280002" lon="8.4182584"><ele>560.0</ele><time>2026-04-04T09:30:14.97Z</time></trkpt><trkpt lat="44.427982" lon="8.4184494"><ele>562.25</ele><time>2026-04-04T09:30:15.969Z</time></trkpt><trkpt lat="44.4279707" lon="8.4186524"><ele>564.5</ele><time>2026-04-04T09:30:16.97Z</time></trkpt><trkpt lat="44.4279725" lon="8.4188691"><ele>566.75</ele><time>2026-04-04T09:30:17.97Z</time></trkpt><trkpt lat="44.4279977" lon="8.4190737"><ele>569.0</ele><time>2026-04-04T09:30:18.97Z</time></trkpt><trkpt lat="44.4280426" lon="8.4192733"><ele>569.0</ele><time>2026-04-04T09:30:19.97Z</time></trkpt><trkpt lat="44.4280988" lon="8.4194627"><ele>569.0</ele><time>2026-04-04T09:30:20.97Z</time></trkpt><trkpt lat="44.4281908" lon="8.419613"><ele>569.0</ele><time>2026-04-04T09:30:21.97Z</time></trkpt><trkpt lat="44.4282866" lon="8.4197375"><ele>569.0</ele><time>2026-04-04T09:30:22.97Z</time></trkpt><trkpt lat="44.4283983" lon="8.4198302"><ele>571.0</ele><time>2026-04-04T09:30:23.97Z</time></trkpt><trkpt lat="44.4285268" lon="8.4198903"><ele>573.0</ele><time>2026-04-04T09:30:24.97Z</time></trkpt><trkpt lat="44.4286578" lon="8.4199355"><ele>575.0</ele><time>2026-04-04T09:30:25.97Z</time></trkpt><trkpt lat="44.4287874" lon="8.419985"><ele>577.0</ele><time>2026-04-04T09:30:26.97Z</time></trkpt><trkpt lat="44.4288996" lon="8.4200566"><ele>577.0</ele><time>2026-04-04T09:30:27.97Z</time></trkpt><trkpt lat="44.4290082" lon="8.4201185"><ele>577.0</ele><time>2026-04-04T09:30:28.97Z</time></trkpt><trkpt lat="44.4291201" lon="8.4201273"><ele>577.0</ele><time>2026-04-04T09:30:29.97Z</time></trkpt><trkpt lat="44.4292348" lon="8.4200842"><ele>577.0</ele><time>2026-04-04T09:30:30.969Z</time></trkpt><trkpt lat="44.4293558" lon="8.4199894"><ele>577.0</ele><time>2026-04-04T09:30:31.969Z</time></trkpt><trkpt lat="44.4294743" lon="8.4198748"><ele>577.0</ele><time>2026-04-04T09:30:32.97Z</time></trkpt><trkpt lat="44.4296072" lon="8.4197836"><ele>577.0</ele><time>2026-04-04T09:30:33.97Z</time></trkpt><trkpt lat="44.4297432" lon="8.4196998"><ele>577.0</ele><time>2026-04-04T09:30:34.969Z</time></trkpt><trkpt lat="44.4298739" lon="8.4196298"><ele>577.8000000000001</ele><time>2026-04-04T09:30:35.97Z</time></trkpt><trkpt lat="44.4299923" lon="8.4195872"><ele>578.6</ele><time>2026-04-04T09:30:36.97Z</time></trkpt><trkpt lat="44.43011" lon="8.4195962"><ele>579.4000000000001</ele><time>2026-04-04T09:30:37.97Z</time></trkpt><trkpt lat="44.4302017" lon="8.4196463"><ele>580.2</ele><time>2026-04-04T09:30:38.97Z</time></trkpt><trkpt lat="44.4302739" lon="8.4197287"><ele>581.0</ele><time>2026-04-04T09:30:39.97Z</time></trkpt><trkpt lat="44.4303268" lon="8.4198605"><ele>581.0</ele><time>2026-04-04T09:30:40.97Z</time></trkpt><trkpt lat="44.4303587" lon="8.4200316"><ele>581.0</ele><time>2026-04-04T09:30:41.969Z</time></trkpt><trkpt lat="44.4303747" lon="8.4202276"><ele>581.0</ele><time>2026-04-04T09:30:42.97Z</time></trkpt><trkpt lat="44.4303934" lon="8.4204273"><ele>581.0</ele><time>2026-04-04T09:30:43.969Z</time></trkpt><trkpt lat="44.4304199" lon="8.4206157"><ele>580.0</ele><time>2026-04-04T09:30:44.97Z</time></trkpt><trkpt lat="44.4304638" lon="8.4208052"><ele>579.0</ele><time>2026-04-04T09:30:45.97Z</time></trkpt><trkpt lat="44.4305257" lon="8.4209915"><ele>578.0</ele><time>2026-04-04T09:30:46.97Z</time></trkpt><trkpt lat="44.4306099" lon="8.4211547"><ele>577.0</ele><time>2026-04-04T09:30:47.969Z</time></trkpt><trkpt lat="44.4307174" lon="8.4213121"><ele>573.6666666666667</ele><time>2026-04-04T09:30:48.97Z</time></trkpt><trkpt lat="44.4308431" lon="8.4214588"><ele>570.3333333333334</ele><time>2026-04-04T09:30:49.97Z</time></trkpt><trkpt lat="44.4309807" lon="8.4215971"><ele>567.0</ele><time>2026-04-04T09:30:50.97Z</time></trkpt><trkpt lat="44.4311181" lon="8.4217164"><ele>567.0</ele><time>2026-04-04T09:30:51.969Z</time></trkpt><trkpt lat="44.4312441" lon="8.4218252"><ele>567.0</ele><time>2026-04-04T09:30:52.97Z</time></trkpt><trkpt lat="44.4313542" lon="8.421947"><ele>567.0</ele><time>2026-04-04T09:30:53.97Z</time></trkpt><trkpt lat="44.4314387" lon="8.4221211"><ele>567.0</ele><time>2026-04-04T09:30:54.969Z</time></trkpt><trkpt lat="44.4315184" lon="8.422309"><ele>568.25</ele><time>2026-04-04T09:30:55.97Z</time></trkpt><trkpt lat="44.4315957" lon="8.4224814"><ele>569.5</ele><time>2026-04-04T09:30:56.969Z</time></trkpt><trkpt lat="44.431663" lon="8.4226445"><ele>570.75</ele><time>2026-04-04T09:30:57.969Z</time></trkpt><trkpt lat="44.4317384" lon="8.4227728"><ele>572.0</ele><time>2026-04-04T09:30:58.97Z</time></trkpt><trkpt lat="44.4318263" lon="8.4228834"><ele>572.0</ele><time>2026-04-04T09:30:59.97Z</time></trkpt><trkpt lat="44.4319434" lon="8.4229561"><ele>572.0</ele><time>2026-04-04T09:31:00.97Z</time></trkpt><trkpt lat="44.4320851" lon="8.4230127"><ele>572.0</ele><time>2026-04-04T09:31:01.969Z</time></trkpt><trkpt lat="44.4322398" lon="8.4230746"><ele>572.0</ele><time>2026-04-04T09:31:02.97Z</time></trkpt><trkpt lat="44.4324031" lon="8.4231407"><ele>571.3333333333333</ele><time>2026-04-04T09:31:03.969Z</time></trkpt><trkpt lat="44.4325664" lon="8.423197"><ele>570.6666666666666</ele><time>2026-04-04T09:31:04.969Z</time></trkpt><trkpt lat="44.432726" lon="8.4232697"><ele>570.0</ele><time>2026-04-04T09:31:05.969Z</time></trkpt><trkpt lat="44.4328932" lon="8.4233744"><ele>574.3333333333334</ele><time>2026-04-04T09:31:06.97Z</time></trkpt><trkpt lat="44.4330685" lon="8.4235142"><ele>578.6666666666667</ele><time>2026-04-04T09:31:07.969Z</time></trkpt><trkpt lat="44.4332382" lon="8.4236475"><ele>583.0</ele><time>2026-04-04T09:31:08.97Z</time></trkpt><trkpt lat="44.4334039" lon="8.4237741"><ele>582.6666666666667</ele><time>2026-04-04T09:31:09.969Z</time></trkpt><trkpt lat="44.4335659" lon="8.4238902"><ele>582.3333333333334</ele><time>2026-04-04T09:31:10.97Z</time></trkpt><trkpt lat="44.4337078" lon="8.4240223"><ele>582.0</ele><time>2026-04-04T09:31:11.97Z</time></trkpt><trkpt lat="44.4338364" lon="8.4241774"><ele>582.0</ele><time>2026-04-04T09:31:12.97Z</time></trkpt><trkpt lat="44.4339413" lon="8.4243456"><ele>582.0</ele><time>2026-04-04T09:31:13.97Z</time></trkpt><trkpt lat="44.4340411" lon="8.4245052"><ele>582.0</ele><time>2026-04-04T09:31:14.97Z</time></trkpt><trkpt lat="44.4341575" lon="8.424641"><ele>578.25</ele><time>2026-04-04T09:31:15.97Z</time></trkpt><trkpt lat="44.4342892" lon="8.4247531"><ele>574.5</ele><time>2026-04-04T09:31:16.97Z</time></trkpt><trkpt lat="44.4344118" lon="8.4248622"><ele>570.75</ele><time>2026-04-04T09:31:17.97Z</time></trkpt><trkpt lat="44.4345163" lon="8.4249906"><ele>567.0</ele><time>2026-04-04T09:31:18.97Z</time></trkpt><trkpt lat="44.4345828" lon="8.4251421"><ele>568.75</ele><time>2026-04-04T09:31:19.97Z</time></trkpt><trkpt lat="44.434638" lon="8.4253114"><ele>570.5</ele><time>2026-04-04T09:31:20.97Z</time></trkpt><trkpt lat="44.4346939" lon="8.4254761"><ele>572.25</ele><time>2026-04-04T09:31:21.97Z</time></trkpt><trkpt lat="44.4347748" lon="8.4256225"><ele>574.0</ele><time>2026-04-04T09:31:22.97Z</time></trkpt><trkpt lat="44.4348678" lon="8.425762"><ele>574.0</ele><time>2026-04-04T09:31:23.97Z</time></trkpt><trkpt lat="44.4349918" lon="8.4258783"><ele>574.0</ele><time>2026-04-04T09:31:24.97Z</time></trkpt><trkpt lat="44.4351279" lon="8.425961"><ele>574.0</ele><time>2026-04-04T09:31:25.97Z</time></trkpt><trkpt lat="44.4352688" lon="8.4260313"><ele>574.0</ele><time>2026-04-04T09:31:26.97Z</time></trkpt><trkpt lat="44.4354064" lon="8.426127"><ele>574.0</ele><time>2026-04-04T09:31:27.969Z</time></trkpt><trkpt lat="44.435513" lon="8.4262624"><ele>574.0</ele><time>2026-04-04T09:31:28.97Z</time></trkpt><trkpt lat="44.4355949" lon="8.4264339"><ele>574.0</ele><time>2026-04-04T09:31:29.97Z</time></trkpt><trkpt lat="44.43565" lon="8.4266384"><ele>574.0</ele><time>2026-04-04T09:31:30.97Z</time></trkpt><trkpt lat="44.4356891" lon="8.4268693"><ele>574.0</ele><time>2026-04-04T09:31:31.97Z</time></trkpt><trkpt lat="44.4357308" lon="8.4271197"><ele>574.0</ele><time>2026-04-04T09:31:32.97Z</time></trkpt><trkpt lat="44.4357637" lon="8.4273761"><ele>574.0</ele><time>2026-04-04T09:31:33.97Z</time></trkpt><trkpt lat="44.435797" lon="8.4276219"><ele>573.6666666666667</ele><time>2026-04-04T09:31:34.97Z</time></trkpt><trkpt lat="44.4358309" lon="8.4278506"><ele>573.3333333333334</ele><time>2026-04-04T09:31:35.97Z</time></trkpt><trkpt lat="44.4358625" lon="8.4280688"><ele>573.0</ele><time>2026-04-04T09:31:36.97Z</time></trkpt><trkpt lat="44.4358968" lon="8.4282776"><ele>573.0</ele><time>2026-04-04T09:31:37.97Z</time></trkpt><trkpt lat="44.4359347" lon="8.4284987"><ele>573.0</ele><time>2026-04-04T09:31:38.97Z</time></trkpt><trkpt lat="44.4359878" lon="8.4287228"><ele>573.0</ele><time>2026-04-04T09:31:39.97Z</time></trkpt><trkpt lat="44.4360638" lon="8.4289392"><ele>575.6666666666666</ele><time>2026-04-04T09:31:40.97Z</time></trkpt><trkpt lat="44.4361688" lon="8.4291326"><ele>578.3333333333333</ele><time>2026-04-04T09:31:41.97Z</time></trkpt><trkpt lat="44.4362985" lon="8.4293118"><ele>581.0</ele><time>2026-04-04T09:31:42.97Z</time></trkpt><trkpt lat="44.4364367" lon="8.4294792"><ele>581.0</ele><time>2026-04-04T09:31:43.97Z</time></trkpt><trkpt lat="44.4365705" lon="8.4296363"><ele>581.0</ele><time>2026-04-04T09:31:44.97Z</time></trkpt><trkpt lat="44.4366879" lon="8.4297811"><ele>581.0</ele><time>2026-04-04T09:31:45.97Z</time></trkpt><trkpt lat="44.4367924" lon="8.4299288"><ele>574.0</ele><time>2026-04-04T09:31:46.97Z</time></trkpt><trkpt lat="44.4368905" lon="8.4300858"><ele>567.0</ele><time>2026-04-04T09:31:47.97Z</time></trkpt><trkpt lat="44.4369813" lon="8.4302553"><ele>560.0</ele><time>2026-04-04T09:31:48.969Z</time></trkpt><trkpt lat="44.4370566" lon="8.4304492"><ele>561.5</ele><time>2026-04-04T09:31:49.97Z</time></trkpt><trkpt lat="44.4371167" lon="8.4306517"><ele>563.0</ele><time>2026-04-04T09:31:50.97Z</time></trkpt><trkpt lat="44.4371625" lon="8.430846"><ele>564.5</ele><time>2026-04-04T09:31:51.97Z</time></trkpt><trkpt lat="44.437193" lon="8.4310229"><ele>566.0</ele><time>2026-04-04T09:31:52.97Z</time></trkpt><trkpt lat="44.4371979" lon="8.4311955"><ele>561.5</ele><time>2026-04-04T09:31:53.969Z</time></trkpt><trkpt lat="44.4371783" lon="8.4313675"><ele>557.0</ele><time>2026-04-04T09:31:54.97Z</time></trkpt><trkpt lat="44.4371306" lon="8.4315682"><ele>552.5</ele><time>2026-04-04T09:31:55.97Z</time></trkpt><trkpt lat="44.4370805" lon="8.4317931"><ele>548.0</ele><time>2026-04-04T09:31:56.97Z</time></trkpt><trkpt lat="44.4370374" lon="8.4320294"><ele>542.6666666666666</ele><time>2026-04-04T09:31:57.969Z</time></trkpt><trkpt lat="44.4369971" lon="8.4322683"><ele>537.3333333333334</ele><time>2026-04-04T09:31:58.97Z</time></trkpt><trkpt lat="44.4369632" lon="8.4325"><ele>532.0</ele><time>2026-04-04T09:31:59.97Z</time></trkpt><trkpt lat="44.4369232" lon="8.4327304"><ele>532.0</ele><time>2026-04-04T09:32:00.97Z</time></trkpt><trkpt lat="44.436875" lon="8.4329607"><ele>532.0</ele><time>2026-04-04T09:32:01.969Z</time></trkpt><trkpt lat="44.4368242" lon="8.4332002"><ele>532.0</ele><time>2026-04-04T09:32:02.97Z</time></trkpt><trkpt lat="44.4367762" lon="8.4334266"><ele>532.0</ele><time>2026-04-04T09:32:03.97Z</time></trkpt><trkpt lat="44.4367337" lon="8.433652"><ele>532.0</ele><time>2026-04-04T09:32:04.97Z</time></trkpt><trkpt lat="44.4366915" lon="8.4338712"><ele>532.0</ele><time>2026-04-04T09:32:05.97Z</time></trkpt><trkpt lat="44.4366445" lon="8.4340878"><ele>531.0</ele><time>2026-04-04T09:32:06.969Z</time></trkpt><trkpt lat="44.4365873" lon="8.4343002"><ele>530.0</ele><time>2026-04-04T09:32:07.97Z</time></trkpt><trkpt lat="44.4365274" lon="8.4344916"><ele>529.0</ele><time>2026-04-04T09:32:08.969Z</time></trkpt><trkpt lat="44.4364592" lon="8.434661"><ele>526.0</ele><time>2026-04-04T09:32:09.97Z</time></trkpt><trkpt lat="44.4363972" lon="8.4348031"><ele>523.0</ele><time>2026-04-04T09:32:10.97Z</time></trkpt><trkpt lat="44.436334" lon="8.4349216"><ele>520.0</ele><time>2026-04-04T09:32:11.969Z</time></trkpt><trkpt lat="44.4362871" lon="8.4350406"><ele>517.0</ele><time>2026-04-04T09:32:12.97Z</time></trkpt><trkpt lat="44.4362547" lon="8.4351524"><ele>514.0</ele><time>2026-04-04T09:32:13.97Z</time></trkpt><trkpt lat="44.4362351" lon="8.4352525"><ele>514.0</ele><time>2026-04-04T09:32:14.97Z</time></trkpt><trkpt lat="44.436236" lon="8.4353409"><ele>514.0</ele><time>2026-04-04T09:32:15.97Z</time></trkpt><trkpt lat="44.4363062" lon="8.4354797"><ele>514.0</ele><time>2026-04-04T09:32:17.97Z</time></trkpt><trkpt lat="44.4364024" lon="8.4355134"><ele>514.0</ele><time>2026-04-04T09:32:19.968Z</time></trkpt><trkpt lat="44.4364674" lon="8.435464"><ele>514.0</ele><time>2026-04-04T09:32:20.969Z</time></trkpt><trkpt lat="44.4365457" lon="8.4353378"><ele>514.0</ele><time>2026-04-04T09:32:21.969Z</time></trkpt><trkpt lat="44.436635" lon="8.4351609"><ele>514.0</ele><time>2026-04-04T09:32:22.968Z</time></trkpt><trkpt lat="44.4367384" lon="8.4349562"><ele>514.0</ele><time>2026-04-04T09:32:23.969Z</time></trkpt><trkpt lat="44.4368462" lon="8.4347885"><ele>514.0</ele><time>2026-04-04T09:32:24.968Z</time></trkpt><trkpt lat="44.4369473" lon="8.4346524"><ele>514.0</ele><time>2026-04-04T09:32:25.969Z</time></trkpt><trkpt lat="44.4370433" lon="8.4344982"><ele>514.0</ele><time>2026-04-04T09:32:26.969Z</time></trkpt><trkpt lat="44.4371275" lon="8.4343075"><ele>514.0</ele><time>2026-04-04T09:32:27.969Z</time></trkpt><trkpt lat="44.4372146" lon="8.4341182"><ele>513.0</ele><time>2026-04-04T09:32:28.969Z</time></trkpt><trkpt lat="44.4373129" lon="8.4339318"><ele>512.0</ele><time>2026-04-04T09:32:29.969Z</time></trkpt><trkpt lat="44.4374123" lon="8.4337501"><ele>511.0</ele><time>2026-04-04T09:32:30.969Z</time></trkpt><trkpt lat="44.4375167" lon="8.4335728"><ele>511.0</ele><time>2026-04-04T09:32:31.968Z</time></trkpt><trkpt lat="44.4376272" lon="8.4334013"><ele>511.0</ele><time>2026-04-04T09:32:32.969Z</time></trkpt><trkpt lat="44.4377403" lon="8.4332563"><ele>511.0</ele><time>2026-04-04T09:32:33.969Z</time></trkpt><trkpt lat="44.437867" lon="8.433112"><ele>507.0</ele><time>2026-04-04T09:32:34.969Z</time></trkpt><trkpt lat="44.4379993" lon="8.4329936"><ele>503.0</ele><time>2026-04-04T09:32:35.968Z</time></trkpt><trkpt lat="44.4381372" lon="8.4328895"><ele>499.0</ele><time>2026-04-04T09:32:36.969Z</time></trkpt><trkpt lat="44.4382712" lon="8.4327878"><ele>499.0</ele><time>2026-04-04T09:32:37.969Z</time></trkpt><trkpt lat="44.4384011" lon="8.4326934"><ele>499.0</ele><time>2026-04-04T09:32:38.969Z</time></trkpt><trkpt lat="44.4385398" lon="8.4326073"><ele>499.0</ele><time>2026-04-04T09:32:39.969Z</time></trkpt><trkpt lat="44.4386832" lon="8.432522"><ele>492.6666666666667</ele><time>2026-04-04T09:32:40.969Z</time></trkpt><trkpt lat="44.4388288" lon="8.4324632"><ele>486.33333333333337</ele><time>2026-04-04T09:32:41.969Z</time></trkpt><trkpt lat="44.4389822" lon="8.4324095"><ele>480.0</ele><time>2026-04-04T09:32:42.969Z</time></trkpt><trkpt lat="44.4391397" lon="8.4323997"><ele>480.0</ele><time>2026-04-04T09:32:43.969Z</time></trkpt><trkpt lat="44.4392829" lon="8.4323933"><ele>480.0</ele><time>2026-04-04T09:32:44.968Z</time></trkpt><trkpt lat="44.439423" lon="8.432377"><ele>480.0</ele><time>2026-04-04T09:32:45.969Z</time></trkpt><trkpt lat="44.4395587" lon="8.432342"><ele>480.0</ele><time>2026-04-04T09:32:46.968Z</time></trkpt><trkpt lat="44.4396881" lon="8.4322889"><ele>480.0</ele><time>2026-04-04T09:32:47.969Z</time></trkpt><trkpt lat="44.4398216" lon="8.4322329"><ele>480.0</ele><time>2026-04-04T09:32:48.968Z</time></trkpt><trkpt lat="44.4399464" lon="8.432171"><ele>480.0</ele><time>2026-04-04T09:32:49.969Z</time></trkpt><trkpt lat="44.4400586" lon="8.4321061"><ele>480.0</ele><time>2026-04-04T09:32:50.969Z</time></trkpt><trkpt lat="44.4401747" lon="8.4320478"><ele>480.0</ele><time>2026-04-04T09:32:51.969Z</time></trkpt><trkpt lat="44.4402924" lon="8.4320208"><ele>480.0</ele><time>2026-04-04T09:32:52.969Z</time></trkpt><trkpt lat="44.4404148" lon="8.4320158"><ele>480.0</ele><time>2026-04-04T09:32:53.969Z</time></trkpt><trkpt lat="44.4405421" lon="8.4320268"><ele>480.0</ele><time>2026-04-04T09:32:54.969Z</time></trkpt><trkpt lat="44.4406715" lon="8.4320536"><ele>477.0</ele><time>2026-04-04T09:32:55.969Z</time></trkpt><trkpt lat="44.4407999" lon="8.4320894"><ele>474.0</ele><time>2026-04-04T09:32:56.968Z</time></trkpt><trkpt lat="44.4409242" lon="8.4321451"><ele>471.0</ele><time>2026-04-04T09:32:57.969Z</time></trkpt><trkpt lat="44.4410502" lon="8.4322162"><ele>468.0</ele><time>2026-04-04T09:32:58.968Z</time></trkpt><trkpt lat="44.4411583" lon="8.432314"><ele>465.75</ele><time>2026-04-04T09:32:59.969Z</time></trkpt><trkpt lat="44.441253" lon="8.4324419"><ele>463.5</ele><time>2026-04-04T09:33:00.969Z</time></trkpt><trkpt lat="44.4413403" lon="8.4325948"><ele>461.25</ele><time>2026-04-04T09:33:01.969Z</time></trkpt><trkpt lat="44.4414294" lon="8.4327666"><ele>459.0</ele><time>2026-04-04T09:33:02.969Z</time></trkpt><trkpt lat="44.4415227" lon="8.4329325"><ele>456.0</ele><time>2026-04-04T09:33:03.968Z</time></trkpt><trkpt lat="44.4416122" lon="8.4330942"><ele>453.0</ele><time>2026-04-04T09:33:04.968Z</time></trkpt><trkpt lat="44.4416993" lon="8.4332563"><ele>450.0</ele><time>2026-04-04T09:33:05.969Z</time></trkpt><trkpt lat="44.4417912" lon="8.4333858"><ele>447.0</ele><time>2026-04-04T09:33:06.969Z</time></trkpt><trkpt lat="44.4418788" lon="8.4335346"><ele>447.0</ele><time>2026-04-04T09:33:07.969Z</time></trkpt><trkpt lat="44.4419816" lon="8.4336579"><ele>447.0</ele><time>2026-04-04T09:33:08.969Z</time></trkpt><trkpt lat="44.4420947" lon="8.4337677"><ele>447.0</ele><time>2026-04-04T09:33:09.969Z</time></trkpt><trkpt lat="44.4421978" lon="8.4338582"><ele>447.0</ele><time>2026-04-04T09:33:10.969Z</time></trkpt><trkpt lat="44.4423079" lon="8.4339237"><ele>444.75</ele><time>2026-04-04T09:33:11.968Z</time></trkpt><trkpt lat="44.4424297" lon="8.4339816"><ele>442.5</ele><time>2026-04-04T09:33:12.969Z</time></trkpt><trkpt lat="44.442559" lon="8.4340375"><ele>440.25</ele><time>2026-04-04T09:33:13.969Z</time></trkpt><trkpt lat="44.4426854" lon="8.4340863"><ele>438.0</ele><time>2026-04-04T09:33:14.968Z</time></trkpt><trkpt lat="44.4428175" lon="8.434145"><ele>438.0</ele><time>2026-04-04T09:33:15.969Z</time></trkpt><trkpt lat="44.4429449" lon="8.4342026"><ele>438.0</ele><time>2026-04-04T09:33:16.969Z</time></trkpt><trkpt lat="44.4430623" lon="8.4342548"><ele>438.0</ele><time>2026-04-04T09:33:17.969Z</time></trkpt><trkpt lat="44.4431783" lon="8.4342944"><ele>438.0</ele><time>2026-04-04T09:33:18.969Z</time></trkpt><trkpt lat="44.4432991" lon="8.4343459"><ele>436.5</ele><time>2026-04-04T09:33:19.969Z</time></trkpt><trkpt lat="44.443428" lon="8.4343894"><ele>435.0</ele><time>2026-04-04T09:33:20.968Z</time></trkpt><trkpt lat="44.4435595" lon="8.4344209"><ele>433.5</ele><time>2026-04-04T09:33:21.969Z</time></trkpt><trkpt lat="44.4436905" lon="8.4344457"><ele>432.0</ele><time>2026-04-04T09:33:22.968Z</time></trkpt><trkpt lat="44.4438194" lon="8.4344619"><ele>431.5</ele><time>2026-04-04T09:33:23.969Z</time></trkpt><trkpt lat="44.4439451" lon="8.4344765"><ele>431.0</ele><time>2026-04-04T09:33:24.969Z</time></trkpt><trkpt lat="44.4440625" lon="8.4344855"><ele>430.5</ele><time>2026-04-04T09:33:25.968Z</time></trkpt><trkpt lat="44.4441753" lon="8.4344885"><ele>430.0</ele><time>2026-04-04T09:33:26.969Z</time></trkpt><trkpt lat="44.4442778" lon="8.4344969"><ele>430.0</ele><time>2026-04-04T09:33:27.968Z</time></trkpt><trkpt lat="44.4443582" lon="8.434518"><ele>430.0</ele><time>2026-04-04T09:33:28.969Z</time></trkpt><trkpt lat="44.4444632" lon="8.4345821"><ele>430.0</ele><time>2026-04-04T09:33:30.969Z</time></trkpt><trkpt lat="44.4445208" lon="8.434642"><ele>430.0</ele><time>2026-04-04T09:33:32.969Z</time></trkpt><trkpt lat="44.4444567" lon="8.4347883"><ele>430.0</ele><time>2026-04-04T10:23:38.971Z</time></trkpt><trkpt lat="44.44446" lon="8.4348767"><ele>429.6666666666667</ele><time>2026-04-04T10:24:00.97Z</time></trkpt><trkpt lat="44.4445233" lon="8.4348183"><ele>429.33333333333337</ele><time>2026-04-04T10:24:04.971Z</time></trkpt><trkpt lat="44.4445817" lon="8.43478"><ele>429.0</ele><time>2026-04-04T10:24:07.97Z</time></trkpt><trkpt lat="44.4446467" lon="8.4346967"><ele>428.66666666666663</ele><time>2026-04-04T10:24:09.971Z</time></trkpt><trkpt lat="44.4446967" lon="8.4346383"><ele>428.3333333333333</ele><time>2026-04-04T10:24:10.971Z</time></trkpt><trkpt lat="44.4447533" lon="8.4345717"><ele>428.0</ele><time>2026-04-04T10:24:11.97Z</time></trkpt><trkpt lat="44.44482" lon="8.4345"><ele>427.99999999999994</ele><time>2026-04-04T10:24:12.971Z</time></trkpt><trkpt lat="44.4448917" lon="8.4344233"><ele>428.0</ele><time>2026-04-04T10:24:13.971Z</time></trkpt><trkpt lat="44.4449733" lon="8.4343533"><ele>428.0</ele><time>2026-04-04T10:24:14.971Z</time></trkpt><trkpt lat="44.4450467" lon="8.4342767"><ele>428.0</ele><time>2026-04-04T10:24:15.971Z</time></trkpt><trkpt lat="44.4451083" lon="8.434195"><ele>427.99999999999994</ele><time>2026-04-04T10:24:16.97Z</time></trkpt><trkpt lat="44.445165" lon="8.4341183"><ele>428.0</ele><time>2026-04-04T10:24:17.971Z</time></trkpt><trkpt lat="44.4452167" lon="8.4340483"><ele>427.99999999999994</ele><time>2026-04-04T10:24:18.971Z</time></trkpt><trkpt lat="44.445265" lon="8.4339817"><ele>428.0</ele><time>2026-04-04T10:24:19.97Z</time></trkpt><trkpt lat="44.4453167" lon="8.43392"><ele>428.0</ele><time>2026-04-04T10:24:20.971Z</time></trkpt><trkpt lat="44.4453683" lon="8.4338517"><ele>428.0</ele><time>2026-04-04T10:24:21.97Z</time></trkpt><trkpt lat="44.445425" lon="8.4337617"><ele>427.99999999999994</ele><time>2026-04-04T10:24:22.97Z</time></trkpt><trkpt lat="44.44548" lon="8.433655"><ele>428.0</ele><time>2026-04-04T10:24:23.97Z</time></trkpt><trkpt lat="44.4455417" lon="8.4335517"><ele>427.79999999999995</ele><time>2026-04-04T10:24:24.971Z</time></trkpt><trkpt lat="44.44561" lon="8.4334083"><ele>427.59999999999997</ele><time>2026-04-04T10:24:25.971Z</time></trkpt><trkpt lat="44.4456683" lon="8.4332717"><ele>427.40000000000003</ele><time>2026-04-04T10:24:26.971Z</time></trkpt><trkpt lat="44.4457067" lon="8.4331483"><ele>427.20000000000005</ele><time>2026-04-04T10:24:27.971Z</time></trkpt><trkpt lat="44.4457467" lon="8.4330483"><ele>427.0</ele><time>2026-04-04T10:24:28.971Z</time></trkpt><trkpt lat="44.4457783" lon="8.4329533"><ele>427.42857142857144</ele><time>2026-04-04T10:24:29.971Z</time></trkpt><trkpt lat="44.4458133" lon="8.4328567"><ele>427.8571428571429</ele><time>2026-04-04T10:24:30.97Z</time></trkpt><trkpt lat="44.44584" lon="8.4327683"><ele>428.2857142857143</ele><time>2026-04-04T10:24:31.971Z</time></trkpt><trkpt lat="44.4458717" lon="8.432685"><ele>428.7142857142857</ele><time>2026-04-04T10:24:32.97Z</time></trkpt><trkpt lat="44.445895" lon="8.4326"><ele>429.14285714285717</ele><time>2026-04-04T10:24:33.97Z</time></trkpt><trkpt lat="44.4459117" lon="8.432485"><ele>429.57142857142856</ele><time>2026-04-04T10:24:34.971Z</time></trkpt><trkpt lat="44.4459517" lon="8.432385"><ele>430.0</ele><time>2026-04-04T10:24:35.971Z</time></trkpt><trkpt lat="44.4459983" lon="8.4322767"><ele>430.0</ele><time>2026-04-04T10:24:36.971Z</time></trkpt><trkpt lat="44.44603" lon="8.4321633"><ele>430.0</ele><time>2026-04-04T10:24:37.971Z</time></trkpt><trkpt lat="44.446065" lon="8.432035"><ele>430.0</ele><time>2026-04-04T10:24:38.971Z</time></trkpt><trkpt lat="44.4461167" lon="8.43189"><ele>430.0</ele><time>2026-04-04T10:24:39.971Z</time></trkpt><trkpt lat="44.4461617" lon="8.4317467"><ele>430.0</ele><time>2026-04-04T10:24:40.971Z</time></trkpt><trkpt lat="44.4462033" lon="8.4316133"><ele>430.25</ele><time>2026-04-04T10:24:41.971Z</time></trkpt><trkpt lat="44.446245" lon="8.4314783"><ele>430.5</ele><time>2026-04-04T10:24:42.971Z</time></trkpt><trkpt lat="44.44629" lon="8.4313283"><ele>430.75</ele><time>2026-04-04T10:24:43.971Z</time></trkpt><trkpt lat="44.446335" lon="8.4311767"><ele>431.0</ele><time>2026-04-04T10:24:44.971Z</time></trkpt><trkpt lat="44.446375" lon="8.431025"><ele>428.5</ele><time>2026-04-04T10:24:45.971Z</time></trkpt><trkpt lat="44.446415" lon="8.4308683"><ele>426.0</ele><time>2026-04-04T10:24:46.97Z</time></trkpt><trkpt lat="44.44646" lon="8.4307133"><ele>423.5</ele><time>2026-04-04T10:24:47.97Z</time></trkpt><trkpt lat="44.4465" lon="8.4305783"><ele>421.0</ele><time>2026-04-04T10:24:48.97Z</time></trkpt><trkpt lat="44.4465333" lon="8.4304183"><ele>421.0</ele><time>2026-04-04T10:24:49.971Z</time></trkpt><trkpt lat="44.446575" lon="8.430255"><ele>421.0</ele><time>2026-04-04T10:24:50.971Z</time></trkpt><trkpt lat="44.4466183" lon="8.4300933"><ele>421.0</ele><time>2026-04-04T10:24:51.97Z</time></trkpt><trkpt lat="44.4466633" lon="8.4299433"><ele>421.0</ele><time>2026-04-04T10:24:52.971Z</time></trkpt><trkpt lat="44.4467067" lon="8.4297917"><ele>421.0</ele><time>2026-04-04T10:24:53.971Z</time></trkpt><trkpt lat="44.4467533" lon="8.4296467"><ele>421.0</ele><time>2026-04-04T10:24:54.971Z</time></trkpt><trkpt lat="44.4468" lon="8.4294967"><ele>421.0</ele><time>2026-04-04T10:24:55.971Z</time></trkpt><trkpt lat="44.4468517" lon="8.4293333"><ele>421.0</ele><time>2026-04-04T10:24:56.971Z</time></trkpt><trkpt lat="44.4469117" lon="8.429185"><ele>420.75</ele><time>2026-04-04T10:24:57.971Z</time></trkpt><trkpt lat="44.446985" lon="8.4290283"><ele>420.5</ele><time>2026-04-04T10:24:58.971Z</time></trkpt><trkpt lat="44.4470633" lon="8.4288767"><ele>420.25</ele><time>2026-04-04T10:24:59.971Z</time></trkpt><trkpt lat="44.4471467" lon="8.4287317"><ele>420.0</ele><time>2026-04-04T10:25:00.97Z</time></trkpt><trkpt lat="44.4472267" lon="8.4285867"><ele>420.0</ele><time>2026-04-04T10:25:01.971Z</time></trkpt><trkpt lat="44.4473133" lon="8.428435"><ele>420.0</ele><time>2026-04-04T10:25:02.971Z</time></trkpt><trkpt lat="44.4474" lon="8.428285"><ele>420.0</ele><time>2026-04-04T10:25:03.971Z</time></trkpt><trkpt lat="44.4474883" lon="8.4281417"><ele>420.0</ele><time>2026-04-04T10:25:04.97Z</time></trkpt><trkpt lat="44.4475667" lon="8.4280083"><ele>420.6</ele><time>2026-04-04T10:25:05.971Z</time></trkpt><trkpt lat="44.44764" lon="8.427885"><ele>421.2</ele><time>2026-04-04T10:25:06.971Z</time></trkpt><trkpt lat="44.44771" lon="8.4277633"><ele>421.79999999999995</ele><time>2026-04-04T10:25:07.971Z</time></trkpt><trkpt lat="44.447775" lon="8.4276733"><ele>422.4</ele><time>2026-04-04T10:25:08.97Z</time></trkpt><trkpt lat="44.4478667" lon="8.4275933"><ele>423.0</ele><time>2026-04-04T10:25:09.97Z</time></trkpt><trkpt lat="44.4479717" lon="8.4275333"><ele>423.0</ele><time>2026-04-04T10:25:10.971Z</time></trkpt><trkpt lat="44.4480783" lon="8.4275017"><ele>423.0</ele><time>2026-04-04T10:25:11.971Z</time></trkpt><trkpt lat="44.4482" lon="8.427465"><ele>423.0</ele><time>2026-04-04T10:25:12.971Z</time></trkpt><trkpt lat="44.448305" lon="8.4273733"><ele>423.0</ele><time>2026-04-04T10:25:13.971Z</time></trkpt><trkpt lat="44.44841" lon="8.4272533"><ele>422.75</ele><time>2026-04-04T10:25:14.971Z</time></trkpt><trkpt lat="44.448505" lon="8.42712"><ele>422.5</ele><time>2026-04-04T10:25:15.971Z</time></trkpt><trkpt lat="44.4486017" lon="8.4269733"><ele>422.25</ele><time>2026-04-04T10:25:16.97Z</time></trkpt><trkpt lat="44.4486967" lon="8.4268267"><ele>422.0</ele><time>2026-04-04T10:25:17.97Z</time></trkpt><trkpt lat="44.44881" lon="8.4266833"><ele>422.0</ele><time>2026-04-04T10:25:18.97Z</time></trkpt><trkpt lat="44.448925" lon="8.4265383"><ele>422.0</ele><time>2026-04-04T10:25:19.971Z</time></trkpt><trkpt lat="44.4490433" lon="8.426395"><ele>422.0</ele><time>2026-04-04T10:25:20.97Z</time></trkpt><trkpt lat="44.4491733" lon="8.4262433"><ele>425.3333333333333</ele><time>2026-04-04T10:25:21.971Z</time></trkpt><trkpt lat="44.4493017" lon="8.4260933"><ele>428.66666666666663</ele><time>2026-04-04T10:25:22.971Z</time></trkpt><trkpt lat="44.44943" lon="8.4259683"><ele>432.0</ele><time>2026-04-04T10:25:23.971Z</time></trkpt><trkpt lat="44.4495567" lon="8.42583"><ele>431.33333333333337</ele><time>2026-04-04T10:25:24.97Z</time></trkpt><trkpt lat="44.44968" lon="8.4257"><ele>430.6666666666667</ele><time>2026-04-04T10:25:25.971Z</time></trkpt><trkpt lat="44.4498" lon="8.4255833"><ele>430.0</ele><time>2026-04-04T10:25:26.971Z</time></trkpt><trkpt lat="44.4499267" lon="8.42547"><ele>430.0</ele><time>2026-04-04T10:25:27.971Z</time></trkpt><trkpt lat="44.4500583" lon="8.4253567"><ele>430.0</ele><time>2026-04-04T10:25:28.97Z</time></trkpt><trkpt lat="44.4501783" lon="8.42524"><ele>430.0</ele><time>2026-04-04T10:25:29.971Z</time></trkpt><trkpt lat="44.4503067" lon="8.4251317"><ele>430.0</ele><time>2026-04-04T10:25:30.971Z</time></trkpt><trkpt lat="44.4504333" lon="8.4250167"><ele>430.0</ele><time>2026-04-04T10:25:31.97Z</time></trkpt><trkpt lat="44.450555" lon="8.424905"><ele>430.0</ele><time>2026-04-04T10:25:32.97Z</time></trkpt><trkpt lat="44.45067" lon="8.4248033"><ele>430.0</ele><time>2026-04-04T10:25:33.97Z</time></trkpt><trkpt lat="44.4507867" lon="8.4247"><ele>431.5</ele><time>2026-04-04T10:25:34.97Z</time></trkpt><trkpt lat="44.4509183" lon="8.4245983"><ele>433.0</ele><time>2026-04-04T10:25:35.971Z</time></trkpt><trkpt lat="44.4510433" lon="8.4244917"><ele>434.5</ele><time>2026-04-04T10:25:36.971Z</time></trkpt><trkpt lat="44.4511533" lon="8.4243917"><ele>436.0</ele><time>2026-04-04T10:25:37.971Z</time></trkpt><trkpt lat="44.4512667" lon="8.424295"><ele>433.0</ele><time>2026-04-04T10:25:38.971Z</time></trkpt><trkpt lat="44.451385" lon="8.4242283"><ele>430.0</ele><time>2026-04-04T10:25:39.971Z</time></trkpt><trkpt lat="44.4515183" lon="8.42418"><ele>427.0</ele><time>2026-04-04T10:25:40.971Z</time></trkpt><trkpt lat="44.4516683" lon="8.42419"><ele>424.0</ele><time>2026-04-04T10:25:41.971Z</time></trkpt><trkpt lat="44.4518017" lon="8.4242533"><ele>424.0</ele><time>2026-04-04T10:25:42.97Z</time></trkpt><trkpt lat="44.4519283" lon="8.4243633"><ele>424.0</ele><time>2026-04-04T10:25:43.971Z</time></trkpt><trkpt lat="44.4520417" lon="8.4244883"><ele>424.0</ele><time>2026-04-04T10:25:44.971Z</time></trkpt><trkpt lat="44.452155" lon="8.42463"><ele>424.0</ele><time>2026-04-04T10:25:45.971Z</time></trkpt><trkpt lat="44.452275" lon="8.4247633"><ele>421.6666666666667</ele><time>2026-04-04T10:25:46.971Z</time></trkpt><trkpt lat="44.45241" lon="8.4249067"><ele>419.33333333333337</ele><time>2026-04-04T10:25:47.97Z</time></trkpt><trkpt lat="44.4525467" lon="8.425035"><ele>417.0</ele><time>2026-04-04T10:25:48.971Z</time></trkpt><trkpt lat="44.4526783" lon="8.4251667"><ele>417.0</ele><time>2026-04-04T10:25:49.97Z</time></trkpt><trkpt lat="44.452825" lon="8.425275"><ele>417.0</ele><time>2026-04-04T10:25:50.971Z</time></trkpt><trkpt lat="44.4529573" lon="8.4253961"><ele>417.0</ele><time>2026-04-04T10:25:51.971Z</time></trkpt><trkpt lat="44.4531112" lon="8.4255042"><ele>416.66666666666663</ele><time>2026-04-04T10:25:52.97Z</time></trkpt><trkpt lat="44.4532685" lon="8.425601"><ele>416.3333333333333</ele><time>2026-04-04T10:25:53.971Z</time></trkpt><trkpt lat="44.4534274" lon="8.4256851"><ele>416.0</ele><time>2026-04-04T10:25:54.97Z</time></trkpt><trkpt lat="44.4535818" lon="8.4257589"><ele>416.0</ele><time>2026-04-04T10:25:55.971Z</time></trkpt><trkpt lat="44.4537347" lon="8.4258349"><ele>416.0</ele><time>2026-04-04T10:25:56.971Z</time></trkpt><trkpt lat="44.4538886" lon="8.4259227"><ele>416.0</ele><time>2026-04-04T10:25:57.971Z</time></trkpt><trkpt lat="44.4540413" lon="8.4260235"><ele>414.66666666666663</ele><time>2026-04-04T10:25:58.971Z</time></trkpt><trkpt lat="44.4541898" lon="8.4261381"><ele>413.33333333333337</ele><time>2026-04-04T10:25:59.97Z</time></trkpt><trkpt lat="44.4543221" lon="8.4262637"><ele>412.0</ele><time>2026-04-04T10:26:00.971Z</time></trkpt><trkpt lat="44.4544471" lon="8.4264022"><ele>412.0</ele><time>2026-04-04T10:26:01.97Z</time></trkpt><trkpt lat="44.454567" lon="8.4265509"><ele>412.0</ele><time>2026-04-04T10:26:02.971Z</time></trkpt><trkpt lat="44.4546881" lon="8.4266864"><ele>412.0</ele><time>2026-04-04T10:26:03.971Z</time></trkpt><trkpt lat="44.4548144" lon="8.4268168"><ele>411.33333333333337</ele><time>2026-04-04T10:26:04.971Z</time></trkpt><trkpt lat="44.4549395" lon="8.4269535"><ele>410.66666666666663</ele><time>2026-04-04T10:26:05.97Z</time></trkpt><trkpt lat="44.4550627" lon="8.4270924"><ele>410.0</ele><time>2026-04-04T10:26:06.971Z</time></trkpt><trkpt lat="44.4551785" lon="8.4272198"><ele>410.0</ele><time>2026-04-04T10:26:07.971Z</time></trkpt><trkpt lat="44.4552938" lon="8.4273425"><ele>410.0</ele><time>2026-04-04T10:26:08.971Z</time></trkpt><trkpt lat="44.4554098" lon="8.4274522"><ele>410.0</ele><time>2026-04-04T10:26:09.97Z</time></trkpt><trkpt lat="44.4555352" lon="8.4275487"><ele>410.0</ele><time>2026-04-04T10:26:10.971Z</time></trkpt><trkpt lat="44.4556623" lon="8.4276441"><ele>411.5</ele><time>2026-04-04T10:26:11.97Z</time></trkpt><trkpt lat="44.4557879" lon="8.4277148"><ele>413.0</ele><time>2026-04-04T10:26:12.971Z</time></trkpt><trkpt lat="44.4558966" lon="8.4277699"><ele>414.5</ele><time>2026-04-04T10:26:13.971Z</time></trkpt><trkpt lat="44.4560303" lon="8.4277827"><ele>416.0</ele><time>2026-04-04T10:26:14.971Z</time></trkpt><trkpt lat="44.4561615" lon="8.4277504"><ele>416.0</ele><time>2026-04-04T10:26:15.97Z</time></trkpt><trkpt lat="44.4562813" lon="8.4276734"><ele>416.0</ele><time>2026-04-04T10:26:16.971Z</time></trkpt><trkpt lat="44.4563801" lon="8.4275437"><ele>416.0</ele><time>2026-04-04T10:26:17.971Z</time></trkpt><trkpt lat="44.4564611" lon="8.4273674"><ele>416.0</ele><time>2026-04-04T10:26:18.971Z</time></trkpt><trkpt lat="44.4565215" lon="8.4271497"><ele>414.3333333333333</ele><time>2026-04-04T10:26:19.971Z</time></trkpt><trkpt lat="44.4565686" lon="8.4269182"><ele>412.66666666666663</ele><time>2026-04-04T10:26:20.971Z</time></trkpt><trkpt lat="44.456595" lon="8.4266889"><ele>411.0</ele><time>2026-04-04T10:26:21.971Z</time></trkpt><trkpt lat="44.4565971" lon="8.4264488"><ele>410.33333333333337</ele><time>2026-04-04T10:26:22.97Z</time></trkpt><trkpt lat="44.4565803" lon="8.4262029"><ele>409.6666666666667</ele><time>2026-04-04T10:26:23.971Z</time></trkpt><trkpt lat="44.456558" lon="8.4259539"><ele>409.0</ele><time>2026-04-04T10:26:24.971Z</time></trkpt><trkpt lat="44.4565453" lon="8.4256953"><ele>408.33333333333337</ele><time>2026-04-04T10:26:25.971Z</time></trkpt><trkpt lat="44.4565235" lon="8.4254455"><ele>407.66666666666663</ele><time>2026-04-04T10:26:26.97Z</time></trkpt><trkpt lat="44.4565165" lon="8.4251917"><ele>407.0</ele><time>2026-04-04T10:26:27.971Z</time></trkpt><trkpt lat="44.4565288" lon="8.4249354"><ele>407.0</ele><time>2026-04-04T10:26:28.97Z</time></trkpt><trkpt lat="44.4565633" lon="8.4246736"><ele>407.0</ele><time>2026-04-04T10:26:29.971Z</time></trkpt><trkpt lat="44.4566138" lon="8.4244166"><ele>407.0</ele><time>2026-04-04T10:26:30.971Z</time></trkpt><trkpt lat="44.4566797" lon="8.4241649"><ele>408.0</ele><time>2026-04-04T10:26:31.97Z</time></trkpt><trkpt lat="44.4567524" lon="8.4239078"><ele>409.0</ele><time>2026-04-04T10:26:32.97Z</time></trkpt><trkpt lat="44.4568132" lon="8.4236534"><ele>410.0</ele><time>2026-04-04T10:26:33.971Z</time></trkpt><trkpt lat="44.4568522" lon="8.4233877"><ele>414.0</ele><time>2026-04-04T10:26:34.971Z</time></trkpt><trkpt lat="44.4569016" lon="8.4231271"><ele>418.0</ele><time>2026-04-04T10:26:35.971Z</time></trkpt><trkpt lat="44.456961" lon="8.4228648"><ele>422.0</ele><time>2026-04-04T10:26:36.971Z</time></trkpt><trkpt lat="44.4570164" lon="8.4226074"><ele>426.0</ele><time>2026-04-04T10:26:37.971Z</time></trkpt><trkpt lat="44.4570706" lon="8.4223517"><ele>430.0</ele><time>2026-04-04T10:26:38.971Z</time></trkpt><trkpt lat="44.4571355" lon="8.4221025"><ele>434.0</ele><time>2026-04-04T10:26:39.97Z</time></trkpt><trkpt lat="44.4572166" lon="8.4218525"><ele>430.66666666666663</ele><time>2026-04-04T10:26:40.97Z</time></trkpt><trkpt lat="44.4573355" lon="8.4216301"><ele>427.33333333333337</ele><time>2026-04-04T10:26:41.97Z</time></trkpt><trkpt lat="44.4574777" lon="8.4214382"><ele>424.0</ele><time>2026-04-04T10:26:42.971Z</time></trkpt><trkpt lat="44.4576249" lon="8.4212861"><ele>424.0</ele><time>2026-04-04T10:26:43.971Z</time></trkpt><trkpt lat="44.4577903" lon="8.4211702"><ele>424.0</ele><time>2026-04-04T10:26:44.971Z</time></trkpt><trkpt lat="44.4579739" lon="8.4210879"><ele>424.0</ele><time>2026-04-04T10:26:45.971Z</time></trkpt><trkpt lat="44.4581637" lon="8.4210091"><ele>419.0</ele><time>2026-04-04T10:26:46.971Z</time></trkpt><trkpt lat="44.4583543" lon="8.4209202"><ele>414.0</ele><time>2026-04-04T10:26:47.971Z</time></trkpt><trkpt lat="44.4585403" lon="8.4208331"><ele>409.0</ele><time>2026-04-04T10:26:48.971Z</time></trkpt><trkpt lat="44.4587126" lon="8.4207513"><ele>407.6666666666667</ele><time>2026-04-04T10:26:49.97Z</time></trkpt><trkpt lat="44.458884" lon="8.4206511"><ele>406.33333333333337</ele><time>2026-04-04T10:26:50.971Z</time></trkpt><trkpt lat="44.4590497" lon="8.4205576"><ele>405.0</ele><time>2026-04-04T10:26:51.971Z</time></trkpt><trkpt lat="44.4592204" lon="8.4204752"><ele>408.33333333333337</ele><time>2026-04-04T10:26:52.971Z</time></trkpt><trkpt lat="44.4593915" lon="8.4203904"><ele>411.6666666666667</ele><time>2026-04-04T10:26:53.971Z</time></trkpt><trkpt lat="44.4595676" lon="8.4203134"><ele>415.0</ele><time>2026-04-04T10:26:54.971Z</time></trkpt><trkpt lat="44.4597373" lon="8.4202542"><ele>415.33333333333337</ele><time>2026-04-04T10:26:55.971Z</time></trkpt><trkpt lat="44.4599159" lon="8.4202102"><ele>415.66666666666663</ele><time>2026-04-04T10:26:56.971Z</time></trkpt><trkpt lat="44.4601038" lon="8.4201753"><ele>416.0</ele><time>2026-04-04T10:26:57.97Z</time></trkpt><trkpt lat="44.460302" lon="8.4201314"><ele>416.0</ele><time>2026-04-04T10:26:58.971Z</time></trkpt><trkpt lat="44.4604973" lon="8.4200877"><ele>416.0</ele><time>2026-04-04T10:26:59.971Z</time></trkpt><trkpt lat="44.4606764" lon="8.4200429"><ele>416.0</ele><time>2026-04-04T10:27:00.971Z</time></trkpt><trkpt lat="44.4608306" lon="8.4199831"><ele>416.0</ele><time>2026-04-04T10:27:01.971Z</time></trkpt><trkpt lat="44.4609452" lon="8.4199266"><ele>416.0</ele><time>2026-04-04T10:27:02.971Z</time></trkpt><trkpt lat="44.4610548" lon="8.4198554"><ele>416.0</ele><time>2026-04-04T10:27:03.971Z</time></trkpt><trkpt lat="44.4611553" lon="8.4197945"><ele>416.0</ele><time>2026-04-04T10:27:04.971Z</time></trkpt><trkpt lat="44.4612619" lon="8.4197501"><ele>417.4</ele><time>2026-04-04T10:27:05.971Z</time></trkpt><trkpt lat="44.4613577" lon="8.419763"><ele>418.8</ele><time>2026-04-04T10:27:06.971Z</time></trkpt><trkpt lat="44.4614519" lon="8.4198392"><ele>420.2</ele><time>2026-04-04T10:27:07.971Z</time></trkpt><trkpt lat="44.4615335" lon="8.4199574"><ele>421.59999999999997</ele><time>2026-04-04T10:27:08.971Z</time></trkpt><trkpt lat="44.4615965" lon="8.4201075"><ele>423.0</ele><time>2026-04-04T10:27:09.97Z</time></trkpt><trkpt lat="44.4616305" lon="8.4202816"><ele>423.0</ele><time>2026-04-04T10:27:10.97Z</time></trkpt><trkpt lat="44.4616392" lon="8.4204736"><ele>423.0</ele><time>2026-04-04T10:27:11.971Z</time></trkpt><trkpt lat="44.4616483" lon="8.4206772"><ele>423.0</ele><time>2026-04-04T10:27:12.971Z</time></trkpt><trkpt lat="44.4616726" lon="8.4208812"><ele>423.0</ele><time>2026-04-04T10:27:13.971Z</time></trkpt><trkpt lat="44.4617149" lon="8.421077"><ele>422.75</ele><time>2026-04-04T10:27:14.97Z</time></trkpt><trkpt lat="44.4617713" lon="8.421262"><ele>422.5</ele><time>2026-04-04T10:27:15.971Z</time></trkpt><trkpt lat="44.4618412" lon="8.4214217"><ele>422.25</ele><time>2026-04-04T10:27:16.971Z</time></trkpt><trkpt lat="44.4619348" lon="8.4215379"><ele>422.0</ele><time>2026-04-04T10:27:17.971Z</time></trkpt><trkpt lat="44.4620423" lon="8.4215986"><ele>424.75</ele><time>2026-04-04T10:27:18.97Z</time></trkpt><trkpt lat="44.4621423" lon="8.421613"><ele>427.5</ele><time>2026-04-04T10:27:19.971Z</time></trkpt><trkpt lat="44.4622346" lon="8.4215712"><ele>430.25</ele><time>2026-04-04T10:27:20.97Z</time></trkpt><trkpt lat="44.4623394" lon="8.4214465"><ele>433.0</ele><time>2026-04-04T10:27:21.97Z</time></trkpt><trkpt lat="44.4624093" lon="8.4212931"><ele>434.0</ele><time>2026-04-04T10:27:22.971Z</time></trkpt><trkpt lat="44.4624774" lon="8.4211282"><ele>435.0</ele><time>2026-04-04T10:27:23.97Z</time></trkpt><trkpt lat="44.4625348" lon="8.4209486"><ele>436.0</ele><time>2026-04-04T10:27:24.971Z</time></trkpt><trkpt lat="44.4625701" lon="8.4207506"><ele>437.0</ele><time>2026-04-04T10:27:25.97Z</time></trkpt><trkpt lat="44.4625852" lon="8.4205363"><ele>437.0</ele><time>2026-04-04T10:27:26.97Z</time></trkpt><trkpt lat="44.4626171" lon="8.4203213"><ele>437.0</ele><time>2026-04-04T10:27:27.97Z</time></trkpt><trkpt lat="44.4626749" lon="8.4201132"><ele>437.0</ele><time>2026-04-04T10:27:28.971Z</time></trkpt><trkpt lat="44.4627571" lon="8.4199192"><ele>437.0</ele><time>2026-04-04T10:27:29.97Z</time></trkpt><trkpt lat="44.4628516" lon="8.4197477"><ele>437.0</ele><time>2026-04-04T10:27:30.971Z</time></trkpt><trkpt lat="44.462963" lon="8.4195964"><ele>437.0</ele><time>2026-04-04T10:27:31.971Z</time></trkpt><trkpt lat="44.4630963" lon="8.4194677"><ele>441.0</ele><time>2026-04-04T10:27:32.971Z</time></trkpt><trkpt lat="44.4632547" lon="8.4193504"><ele>445.0</ele><time>2026-04-04T10:27:33.971Z</time></trkpt><trkpt lat="44.463422" lon="8.4192448"><ele>449.0</ele><time>2026-04-04T10:27:34.971Z</time></trkpt><trkpt lat="44.463594" lon="8.4191523"><ele>449.0</ele><time>2026-04-04T10:27:35.971Z</time></trkpt><trkpt lat="44.4637651" lon="8.4190528"><ele>449.0</ele><time>2026-04-04T10:27:36.971Z</time></trkpt><trkpt lat="44.4639204" lon="8.4189648"><ele>449.0</ele><time>2026-04-04T10:27:37.971Z</time></trkpt><trkpt lat="44.4640735" lon="8.4188841"><ele>450.3333333333333</ele><time>2026-04-04T10:27:38.97Z</time></trkpt><trkpt lat="44.4642293" lon="8.4188475"><ele>451.66666666666663</ele><time>2026-04-04T10:27:39.971Z</time></trkpt><trkpt lat="44.4643845" lon="8.4188511"><ele>453.0</ele><time>2026-04-04T10:27:40.971Z</time></trkpt><trkpt lat="44.4645375" lon="8.4188876"><ele>455.66666666666663</ele><time>2026-04-04T10:27:41.971Z</time></trkpt><trkpt lat="44.4646913" lon="8.4189531"><ele>458.3333333333333</ele><time>2026-04-04T10:27:42.97Z</time></trkpt><trkpt lat="44.4648461" lon="8.4190114"><ele>461.0</ele><time>2026-04-04T10:27:43.971Z</time></trkpt><trkpt lat="44.465001" lon="8.4190749"><ele>461.0</ele><time>2026-04-04T10:27:44.971Z</time></trkpt><trkpt lat="44.465149" lon="8.4191586"><ele>461.0</ele><time>2026-04-04T10:27:45.971Z</time></trkpt><trkpt lat="44.4652725" lon="8.4192664"><ele>461.0</ele><time>2026-04-04T10:27:46.971Z</time></trkpt><trkpt lat="44.4653734" lon="8.4194042"><ele>461.0</ele><time>2026-04-04T10:27:47.971Z</time></trkpt><trkpt lat="44.4654586" lon="8.4195823"><ele>458.0</ele><time>2026-04-04T10:27:48.971Z</time></trkpt><trkpt lat="44.4655378" lon="8.4197791"><ele>455.0</ele><time>2026-04-04T10:27:49.971Z</time></trkpt><trkpt lat="44.4656033" lon="8.4200085"><ele>452.0</ele><time>2026-04-04T10:27:50.971Z</time></trkpt><trkpt lat="44.465689" lon="8.4202022"><ele>452.0</ele><time>2026-04-04T10:27:51.97Z</time></trkpt><trkpt lat="44.4657835" lon="8.4203711"><ele>452.0</ele><time>2026-04-04T10:27:52.971Z</time></trkpt><trkpt lat="44.4658997" lon="8.4205312"><ele>452.0</ele><time>2026-04-04T10:27:53.971Z</time></trkpt><trkpt lat="44.4660317" lon="8.4206855"><ele>451.66666666666663</ele><time>2026-04-04T10:27:54.971Z</time></trkpt><trkpt lat="44.4661794" lon="8.4208358"><ele>451.33333333333337</ele><time>2026-04-04T10:27:55.97Z</time></trkpt><trkpt lat="44.4663291" lon="8.4209689"><ele>451.0</ele><time>2026-04-04T10:27:56.971Z</time></trkpt><trkpt lat="44.4664693" lon="8.4210943"><ele>449.33333333333337</ele><time>2026-04-04T10:27:57.97Z</time></trkpt><trkpt lat="44.4666116" lon="8.4212145"><ele>447.66666666666663</ele><time>2026-04-04T10:27:58.971Z</time></trkpt><trkpt lat="44.4667377" lon="8.4213408"><ele>446.0</ele><time>2026-04-04T10:27:59.971Z</time></trkpt><trkpt lat="44.4668547" lon="8.4214633"><ele>443.75</ele><time>2026-04-04T10:28:00.97Z</time></trkpt><trkpt lat="44.4669687" lon="8.4215804"><ele>441.5</ele><time>2026-04-04T10:28:01.971Z</time></trkpt><trkpt lat="44.4670905" lon="8.4216676"><ele>439.25</ele><time>2026-04-04T10:28:02.97Z</time></trkpt><trkpt lat="44.4671999" lon="8.4217159"><ele>437.0</ele><time>2026-04-04T10:28:03.971Z</time></trkpt><trkpt lat="44.4673219" lon="8.421709"><ele>436.0</ele><time>2026-04-04T10:28:04.971Z</time></trkpt><trkpt lat="44.4674464" lon="8.4216531"><ele>435.0</ele><time>2026-04-04T10:28:05.971Z</time></trkpt><trkpt lat="44.4675756" lon="8.4215527"><ele>434.0</ele><time>2026-04-04T10:28:06.971Z</time></trkpt><trkpt lat="44.4676888" lon="8.421403"><ele>433.0</ele><time>2026-04-04T10:28:07.971Z</time></trkpt><trkpt lat="44.4677824" lon="8.4212284"><ele>433.0</ele><time>2026-04-04T10:28:08.97Z</time></trkpt><trkpt lat="44.4678703" lon="8.4210228"><ele>433.0</ele><time>2026-04-04T10:28:09.97Z</time></trkpt><trkpt lat="44.4679549" lon="8.4208084"><ele>433.0</ele><time>2026-04-04T10:28:10.971Z</time></trkpt><trkpt lat="44.4680421" lon="8.4205957"><ele>427.33333333333337</ele><time>2026-04-04T10:28:11.971Z</time></trkpt><trkpt lat="44.4681329" lon="8.4203876"><ele>421.66666666666663</ele><time>2026-04-04T10:28:12.971Z</time></trkpt><trkpt lat="44.4682468" lon="8.4201863"><ele>416.0</ele><time>2026-04-04T10:28:13.971Z</time></trkpt><trkpt lat="44.4683881" lon="8.4200217"><ele>416.0</ele><time>2026-04-04T10:28:14.971Z</time></trkpt><trkpt lat="44.4685575" lon="8.4198822"><ele>416.0</ele><time>2026-04-04T10:28:15.97Z</time></trkpt><trkpt lat="44.4687287" lon="8.4197453"><ele>416.0</ele><time>2026-04-04T10:28:16.971Z</time></trkpt><trkpt lat="44.4689137" lon="8.419606"><ele>412.66666666666663</ele><time>2026-04-04T10:28:17.97Z</time></trkpt><trkpt lat="44.4690907" lon="8.4194404"><ele>409.33333333333337</ele><time>2026-04-04T10:28:18.97Z</time></trkpt><trkpt lat="44.4692462" lon="8.4192679"><ele>406.0</ele><time>2026-04-04T10:28:19.971Z</time></trkpt><trkpt lat="44.4693966" lon="8.4190761"><ele>406.0</ele><time>2026-04-04T10:28:20.97Z</time></trkpt><trkpt lat="44.4695406" lon="8.4188737"><ele>406.0</ele><time>2026-04-04T10:28:21.971Z</time></trkpt><trkpt lat="44.4696613" lon="8.4186768"><ele>406.0</ele><time>2026-04-04T10:28:22.971Z</time></trkpt><trkpt lat="44.4697626" lon="8.4184966"><ele>406.33333333333337</ele><time>2026-04-04T10:28:23.971Z</time></trkpt><trkpt lat="44.4698545" lon="8.4183149"><ele>406.66666666666663</ele><time>2026-04-04T10:28:24.971Z</time></trkpt><trkpt lat="44.4699365" lon="8.4181327"><ele>407.0</ele><time>2026-04-04T10:28:25.971Z</time></trkpt><trkpt lat="44.4700066" lon="8.4179457"><ele>408.25</ele><time>2026-04-04T10:28:26.971Z</time></trkpt><trkpt lat="44.4700731" lon="8.4177707"><ele>409.5</ele><time>2026-04-04T10:28:27.97Z</time></trkpt><trkpt lat="44.4701544" lon="8.4176161"><ele>410.75</ele><time>2026-04-04T10:28:28.97Z</time></trkpt><trkpt lat="44.4702531" lon="8.4174954"><ele>412.0</ele><time>2026-04-04T10:28:29.97Z</time></trkpt><trkpt lat="44.4703707" lon="8.4174119"><ele>410.75</ele><time>2026-04-04T10:28:30.971Z</time></trkpt><trkpt lat="44.4704909" lon="8.4173618"><ele>409.5</ele><time>2026-04-04T10:28:31.971Z</time></trkpt><trkpt lat="44.4706119" lon="8.4173113"><ele>408.25</ele><time>2026-04-04T10:28:32.97Z</time></trkpt><trkpt lat="44.4707095" lon="8.4172284"><ele>407.0</ele><time>2026-04-04T10:28:33.97Z</time></trkpt><trkpt lat="44.4707816" lon="8.4171125"><ele>407.0</ele><time>2026-04-04T10:28:34.97Z</time></trkpt><trkpt lat="44.4708396" lon="8.416993"><ele>407.0</ele><time>2026-04-04T10:28:35.97Z</time></trkpt><trkpt lat="44.4709139" lon="8.4168948"><ele>407.0</ele><time>2026-04-04T10:28:36.97Z</time></trkpt><trkpt lat="44.4710204" lon="8.4168181"><ele>407.0</ele><time>2026-04-04T10:28:37.971Z</time></trkpt><trkpt lat="44.4711451" lon="8.4167655"><ele>405.66666666666663</ele><time>2026-04-04T10:28:38.97Z</time></trkpt><trkpt lat="44.4712956" lon="8.4167278"><ele>404.33333333333337</ele><time>2026-04-04T10:28:39.97Z</time></trkpt><trkpt lat="44.4714576" lon="8.4166958"><ele>403.0</ele><time>2026-04-04T10:28:40.971Z</time></trkpt><trkpt lat="44.4716201" lon="8.416653"><ele>403.0</ele><time>2026-04-04T10:28:41.971Z</time></trkpt><trkpt lat="44.4717769" lon="8.4166127"><ele>403.0</ele><time>2026-04-04T10:28:42.971Z</time></trkpt><trkpt lat="44.4719449" lon="8.4165758"><ele>403.0</ele><time>2026-04-04T10:28:43.971Z</time></trkpt><trkpt lat="44.4721026" lon="8.41653"><ele>405.0</ele><time>2026-04-04T10:28:44.971Z</time></trkpt><trkpt lat="44.4722627" lon="8.4164718"><ele>407.0</ele><time>2026-04-04T10:28:45.971Z</time></trkpt><trkpt lat="44.4724159" lon="8.4163925"><ele>409.0</ele><time>2026-04-04T10:28:46.97Z</time></trkpt><trkpt lat="44.4725634" lon="8.4162897"><ele>409.0</ele><time>2026-04-04T10:28:47.971Z</time></trkpt><trkpt lat="44.4726969" lon="8.4161588"><ele>409.0</ele><time>2026-04-04T10:28:48.971Z</time></trkpt><trkpt lat="44.4728098" lon="8.4159997"><ele>409.0</ele><time>2026-04-04T10:28:49.971Z</time></trkpt><trkpt lat="44.4729062" lon="8.4158168"><ele>409.6666666666667</ele><time>2026-04-04T10:28:50.971Z</time></trkpt><trkpt lat="44.4729934" lon="8.4156371"><ele>410.33333333333337</ele><time>2026-04-04T10:28:51.971Z</time></trkpt><trkpt lat="44.4730835" lon="8.4154633"><ele>411.0</ele><time>2026-04-04T10:28:52.97Z</time></trkpt><trkpt lat="44.4731886" lon="8.4152908"><ele>411.0</ele><time>2026-04-04T10:28:53.97Z</time></trkpt><trkpt lat="44.473318" lon="8.4151393"><ele>411.0</ele><time>2026-04-04T10:28:54.971Z</time></trkpt><trkpt lat="44.4734501" lon="8.414988"><ele>411.0</ele><time>2026-04-04T10:28:55.971Z</time></trkpt><trkpt lat="44.4735929" lon="8.414858"><ele>411.0</ele><time>2026-04-04T10:28:56.971Z</time></trkpt><trkpt lat="44.4737334" lon="8.4147384"><ele>411.0</ele><time>2026-04-04T10:28:57.971Z</time></trkpt><trkpt lat="44.4738789" lon="8.4146247"><ele>411.0</ele><time>2026-04-04T10:28:58.971Z</time></trkpt><trkpt lat="44.4740194" lon="8.4145283"><ele>412.66666666666663</ele><time>2026-04-04T10:28:59.971Z</time></trkpt><trkpt lat="44.4741618" lon="8.4144483"><ele>414.3333333333333</ele><time>2026-04-04T10:29:00.971Z</time></trkpt><trkpt lat="44.4743204" lon="8.4143882"><ele>416.0</ele><time>2026-04-04T10:29:01.971Z</time></trkpt><trkpt lat="44.4744823" lon="8.4143504"><ele>417.3333333333333</ele><time>2026-04-04T10:29:02.971Z</time></trkpt><trkpt lat="44.4746392" lon="8.4143282"><ele>418.66666666666663</ele><time>2026-04-04T10:29:03.971Z</time></trkpt><trkpt lat="44.4747904" lon="8.41433"><ele>420.0</ele><time>2026-04-04T10:29:04.971Z</time></trkpt><trkpt lat="44.4749386" lon="8.4143735"><ele>420.0</ele><time>2026-04-04T10:29:05.971Z</time></trkpt><trkpt lat="44.475099" lon="8.4144399"><ele>420.0</ele><time>2026-04-04T10:29:06.971Z</time></trkpt><trkpt lat="44.4752522" lon="8.4145063"><ele>420.0</ele><time>2026-04-04T10:29:07.971Z</time></trkpt><trkpt lat="44.47541" lon="8.4145498"><ele>416.33333333333337</ele><time>2026-04-04T10:29:08.97Z</time></trkpt><trkpt lat="44.4755693" lon="8.4145762"><ele>412.6666666666667</ele><time>2026-04-04T10:29:09.971Z</time></trkpt><trkpt lat="44.4757248" lon="8.4146041"><ele>409.0</ele><time>2026-04-04T10:29:10.971Z</time></trkpt><trkpt lat="44.4758696" lon="8.4146323"><ele>409.5</ele><time>2026-04-04T10:29:11.97Z</time></trkpt><trkpt lat="44.4759989" lon="8.4146631"><ele>410.0</ele><time>2026-04-04T10:29:12.971Z</time></trkpt><trkpt lat="44.4761236" lon="8.4147343"><ele>410.5</ele><time>2026-04-04T10:29:13.971Z</time></trkpt><trkpt lat="44.476225" lon="8.4148307"><ele>411.0</ele><time>2026-04-04T10:29:14.971Z</time></trkpt><trkpt lat="44.4763127" lon="8.414951"><ele>411.0</ele><time>2026-04-04T10:29:15.971Z</time></trkpt><trkpt lat="44.4764015" lon="8.4150632"><ele>411.0</ele><time>2026-04-04T10:29:16.97Z</time></trkpt><trkpt lat="44.4765016" lon="8.4151567"><ele>411.0</ele><time>2026-04-04T10:29:17.971Z</time></trkpt><trkpt lat="44.4766133" lon="8.4152151"><ele>411.0</ele><time>2026-04-04T10:29:18.97Z</time></trkpt><trkpt lat="44.4767372" lon="8.4152197"><ele>411.0</ele><time>2026-04-04T10:29:19.97Z</time></trkpt><trkpt lat="44.4768635" lon="8.4151866"><ele>411.0</ele><time>2026-04-04T10:29:20.971Z</time></trkpt><trkpt lat="44.4769786" lon="8.4150972"><ele>411.0</ele><time>2026-04-04T10:29:21.97Z</time></trkpt><trkpt lat="44.4770931" lon="8.4149765"><ele>411.0</ele><time>2026-04-04T10:29:22.971Z</time></trkpt><trkpt lat="44.4772207" lon="8.4148566"><ele>411.75</ele><time>2026-04-04T10:29:23.97Z</time></trkpt><trkpt lat="44.4773581" lon="8.4147656"><ele>412.5</ele><time>2026-04-04T10:29:24.971Z</time></trkpt><trkpt lat="44.4774859" lon="8.4146816"><ele>413.25</ele><time>2026-04-04T10:29:25.971Z</time></trkpt><trkpt lat="44.4776" lon="8.4145653"><ele>414.0</ele><time>2026-04-04T10:29:26.971Z</time></trkpt><trkpt lat="44.4777014" lon="8.4144461"><ele>409.75</ele><time>2026-04-04T10:29:27.971Z</time></trkpt><trkpt lat="44.4778091" lon="8.414353"><ele>405.5</ele><time>2026-04-04T10:29:28.97Z</time></trkpt><trkpt lat="44.4779319" lon="8.4142976"><ele>401.25</ele><time>2026-04-04T10:29:29.97Z</time></trkpt><trkpt lat="44.4780719" lon="8.414271"><ele>397.0</ele><time>2026-04-04T10:29:30.971Z</time></trkpt><trkpt lat="44.4782287" lon="8.4142536"><ele>397.0</ele><time>2026-04-04T10:29:31.971Z</time></trkpt><trkpt lat="44.4783855" lon="8.4142263"><ele>397.0</ele><time>2026-04-04T10:29:32.971Z</time></trkpt><trkpt lat="44.4785496" lon="8.4141918"><ele>397.0</ele><time>2026-04-04T10:29:33.971Z</time></trkpt><trkpt lat="44.4787129" lon="8.4141597"><ele>395.6666666666667</ele><time>2026-04-04T10:29:34.971Z</time></trkpt><trkpt lat="44.4788844" lon="8.4141312"><ele>394.33333333333337</ele><time>2026-04-04T10:29:35.971Z</time></trkpt><trkpt lat="44.4790575" lon="8.4141008"><ele>393.0</ele><time>2026-04-04T10:29:36.97Z</time></trkpt><trkpt lat="44.4792405" lon="8.4140703"><ele>393.0</ele><time>2026-04-04T10:29:37.971Z</time></trkpt><trkpt lat="44.4794188" lon="8.4140514"><ele>393.0</ele><time>2026-04-04T10:29:38.971Z</time></trkpt><trkpt lat="44.4796065" lon="8.4140241"><ele>393.0</ele><time>2026-04-04T10:29:39.97Z</time></trkpt><trkpt lat="44.4797923" lon="8.4139871"><ele>392.0</ele><time>2026-04-04T10:29:40.971Z</time></trkpt><trkpt lat="44.4799771" lon="8.4139267"><ele>391.0</ele><time>2026-04-04T10:29:41.97Z</time></trkpt><trkpt lat="44.4801611" lon="8.4138638"><ele>390.0</ele><time>2026-04-04T10:29:42.971Z</time></trkpt><trkpt lat="44.4803389" lon="8.4138002"><ele>389.0</ele><time>2026-04-04T10:29:43.971Z</time></trkpt><trkpt lat="44.4805121" lon="8.4137232"><ele>388.0</ele><time>2026-04-04T10:29:44.97Z</time></trkpt><trkpt lat="44.4806877" lon="8.413655"><ele>387.0</ele><time>2026-04-04T10:29:45.971Z</time></trkpt><trkpt lat="44.4808581" lon="8.4135815"><ele>387.0</ele><time>2026-04-04T10:29:46.971Z</time></trkpt><trkpt lat="44.4810326" lon="8.4135077"><ele>387.0</ele><time>2026-04-04T10:29:47.971Z</time></trkpt><trkpt lat="44.4812066" lon="8.4134398"><ele>387.0</ele><time>2026-04-04T10:29:48.971Z</time></trkpt><trkpt lat="44.4813687" lon="8.4133795"><ele>386.66666666666663</ele><time>2026-04-04T10:29:49.97Z</time></trkpt><trkpt lat="44.4815339" lon="8.4133374"><ele>386.3333333333333</ele><time>2026-04-04T10:29:50.97Z</time></trkpt><trkpt lat="44.4816989" lon="8.4133109"><ele>386.0</ele><time>2026-04-04T10:29:51.971Z</time></trkpt><trkpt lat="44.481873" lon="8.4132995"><ele>386.0</ele><time>2026-04-04T10:29:52.97Z</time></trkpt><trkpt lat="44.4820451" lon="8.4132837"><ele>386.0</ele><time>2026-04-04T10:29:53.97Z</time></trkpt><trkpt lat="44.482224" lon="8.4132649"><ele>386.0</ele><time>2026-04-04T10:29:54.971Z</time></trkpt><trkpt lat="44.4823993" lon="8.413246"><ele>383.3333333333333</ele><time>2026-04-04T10:29:55.97Z</time></trkpt><trkpt lat="44.4825804" lon="8.4132422"><ele>380.66666666666663</ele><time>2026-04-04T10:29:56.971Z</time></trkpt><trkpt lat="44.4827594" lon="8.4132457"><ele>378.0</ele><time>2026-04-04T10:29:57.971Z</time></trkpt><trkpt lat="44.4829305" lon="8.4132408"><ele>376.3333333333333</ele><time>2026-04-04T10:29:58.971Z</time></trkpt><trkpt lat="44.4831048" lon="8.4132197"><ele>374.66666666666663</ele><time>2026-04-04T10:29:59.971Z</time></trkpt><trkpt lat="44.4832794" lon="8.4131859"><ele>373.0</ele><time>2026-04-04T10:30:00.971Z</time></trkpt><trkpt lat="44.4834534" lon="8.4131472"><ele>373.0</ele><time>2026-04-04T10:30:01.97Z</time></trkpt><trkpt lat="44.4836223" lon="8.413119"><ele>373.0</ele><time>2026-04-04T10:30:02.97Z</time></trkpt><trkpt lat="44.483808" lon="8.4130819"><ele>373.0</ele><time>2026-04-04T10:30:03.97Z</time></trkpt><trkpt lat="44.4840019" lon="8.4130291"><ele>370.3333333333333</ele><time>2026-04-04T10:30:04.97Z</time></trkpt><trkpt lat="44.4841943" lon="8.412976"><ele>367.6666666666667</ele><time>2026-04-04T10:30:05.969Z</time></trkpt><trkpt lat="44.4843691" lon="8.4129138"><ele>365.0</ele><time>2026-04-04T10:30:06.97Z</time></trkpt><trkpt lat="44.4845399" lon="8.4128363"><ele>365.6666666666667</ele><time>2026-04-04T10:30:07.97Z</time></trkpt><trkpt lat="44.4847025" lon="8.4127732"><ele>366.3333333333333</ele><time>2026-04-04T10:30:08.97Z</time></trkpt><trkpt lat="44.4848632" lon="8.4127159"><ele>367.0</ele><time>2026-04-04T10:30:09.97Z</time></trkpt><trkpt lat="44.4850166" lon="8.4126591"><ele>367.0</ele><time>2026-04-04T10:30:10.97Z</time></trkpt><trkpt lat="44.4851629" lon="8.4126075"><ele>367.0</ele><time>2026-04-04T10:30:11.97Z</time></trkpt><trkpt lat="44.4853008" lon="8.4125649"><ele>367.0</ele><time>2026-04-04T10:30:12.969Z</time></trkpt><trkpt lat="44.485426" lon="8.4125297"><ele>367.0</ele><time>2026-04-04T10:30:13.97Z</time></trkpt><trkpt lat="44.4855366" lon="8.4124825"><ele>367.6</ele><time>2026-04-04T10:30:14.969Z</time></trkpt><trkpt lat="44.485637" lon="8.4124153"><ele>368.20000000000005</ele><time>2026-04-04T10:30:15.969Z</time></trkpt><trkpt lat="44.4857196" lon="8.4123187"><ele>368.8</ele><time>2026-04-04T10:30:16.97Z</time></trkpt><trkpt lat="44.4857727" lon="8.4122052"><ele>369.4</ele><time>2026-04-04T10:30:17.97Z</time></trkpt><trkpt lat="44.4857834" lon="8.4120707"><ele>370.0</ele><time>2026-04-04T10:30:18.97Z</time></trkpt><trkpt lat="44.4857638" lon="8.4119248"><ele>367.6</ele><time>2026-04-04T10:30:19.97Z</time></trkpt><trkpt lat="44.4857435" lon="8.4117819"><ele>365.2</ele><time>2026-04-04T10:30:20.97Z</time></trkpt><trkpt lat="44.4857378" lon="8.4116464"><ele>362.79999999999995</ele><time>2026-04-04T10:30:21.97Z</time></trkpt><trkpt lat="44.4857531" lon="8.4115486"><ele>360.4</ele><time>2026-04-04T10:30:22.97Z</time></trkpt><trkpt lat="44.4858423" lon="8.4114429"><ele>358.0</ele><time>2026-04-04T10:30:24.97Z</time></trkpt><trkpt lat="44.4859322" lon="8.4114272"><ele>358.0</ele><time>2026-04-04T10:30:25.97Z</time></trkpt><trkpt lat="44.486054" lon="8.4114246"><ele>358.0</ele><time>2026-04-04T10:30:26.97Z</time></trkpt><trkpt lat="44.4861975" lon="8.4114319"><ele>358.0</ele><time>2026-04-04T10:30:27.97Z</time></trkpt><trkpt lat="44.4863736" lon="8.4114374"><ele>358.0</ele><time>2026-04-04T10:30:28.97Z</time></trkpt><trkpt lat="44.4865327" lon="8.4114285"><ele>357.75</ele><time>2026-04-04T10:30:29.97Z</time></trkpt><trkpt lat="44.4866739" lon="8.4114019"><ele>357.5</ele><time>2026-04-04T10:30:30.97Z</time></trkpt><trkpt lat="44.4868014" lon="8.4113778"><ele>357.25</ele><time>2026-04-04T10:30:31.97Z</time></trkpt><trkpt lat="44.4869271" lon="8.411348"><ele>357.0</ele><time>2026-04-04T10:30:32.97Z</time></trkpt><trkpt lat="44.4870546" lon="8.4113075"><ele>355.0</ele><time>2026-04-04T10:30:33.97Z</time></trkpt><trkpt lat="44.4871844" lon="8.4112603"><ele>353.0</ele><time>2026-04-04T10:30:34.97Z</time></trkpt><trkpt lat="44.4873117" lon="8.41122"><ele>351.0</ele><time>2026-04-04T10:30:35.97Z</time></trkpt><trkpt lat="44.4874393" lon="8.4111803"><ele>349.0</ele><time>2026-04-04T10:30:36.969Z</time></trkpt><trkpt lat="44.4875695" lon="8.4111325"><ele>349.0</ele><time>2026-04-04T10:30:37.97Z</time></trkpt><trkpt lat="44.4876913" lon="8.4110921"><ele>349.0</ele><time>2026-04-04T10:30:38.969Z</time></trkpt><trkpt lat="44.4878119" lon="8.4110512"><ele>349.0</ele><time>2026-04-04T10:30:39.97Z</time></trkpt><trkpt lat="44.4879328" lon="8.4110127"><ele>349.0</ele><time>2026-04-04T10:30:40.97Z</time></trkpt><trkpt lat="44.4880556" lon="8.4109845"><ele>349.25</ele><time>2026-04-04T10:30:41.97Z</time></trkpt><trkpt lat="44.4881737" lon="8.410955"><ele>349.5</ele><time>2026-04-04T10:30:42.969Z</time></trkpt><trkpt lat="44.4882966" lon="8.4109205"><ele>349.75</ele><time>2026-04-04T10:30:43.97Z</time></trkpt><trkpt lat="44.488419" lon="8.4108878"><ele>350.0</ele><time>2026-04-04T10:30:44.969Z</time></trkpt><trkpt lat="44.48854" lon="8.4108647"><ele>350.0</ele><time>2026-04-04T10:30:45.97Z</time></trkpt><trkpt lat="44.4886412" lon="8.4108604"><ele>350.0</ele><time>2026-04-04T10:30:46.97Z</time></trkpt><trkpt lat="44.4887407" lon="8.410916"><ele>350.0</ele><time>2026-04-04T10:30:47.97Z</time></trkpt><trkpt lat="44.4888378" lon="8.4109634"><ele>350.0</ele><time>2026-04-04T10:30:48.97Z</time></trkpt><trkpt lat="44.4889301" lon="8.4110136"><ele>350.0</ele><time>2026-04-04T10:30:49.97Z</time></trkpt><trkpt lat="44.4890311" lon="8.4110482"><ele>350.2</ele><time>2026-04-04T10:30:50.97Z</time></trkpt><trkpt lat="44.4891342" lon="8.41108"><ele>350.4</ele><time>2026-04-04T10:30:51.97Z</time></trkpt><trkpt lat="44.4892326" lon="8.4111192"><ele>350.6</ele><time>2026-04-04T10:30:52.969Z</time></trkpt><trkpt lat="44.4893213" lon="8.4111586"><ele>350.8</ele><time>2026-04-04T10:30:53.97Z</time></trkpt><trkpt lat="44.4894046" lon="8.4111991"><ele>351.0</ele><time>2026-04-04T10:30:54.97Z</time></trkpt><trkpt lat="44.4894857" lon="8.4112488"><ele>351.0</ele><time>2026-04-04T10:30:55.97Z</time></trkpt><trkpt lat="44.4895576" lon="8.4113203"><ele>351.0</ele><time>2026-04-04T10:30:56.969Z</time></trkpt><trkpt lat="44.4896047" lon="8.4114125"><ele>351.0</ele><time>2026-04-04T10:30:57.97Z</time></trkpt><trkpt lat="44.4896493" lon="8.4115105"><ele>351.0</ele><time>2026-04-04T10:30:58.97Z</time></trkpt><trkpt lat="44.4896877" lon="8.4116031"><ele>351.0</ele><time>2026-04-04T10:30:59.969Z</time></trkpt><trkpt lat="44.4897228" lon="8.4116883"><ele>351.0</ele><time>2026-04-04T10:31:00.97Z</time></trkpt><trkpt lat="44.4897559" lon="8.4117725"><ele>350.8333333333333</ele><time>2026-04-04T10:31:01.97Z</time></trkpt><trkpt lat="44.4897974" lon="8.4118534"><ele>350.6666666666667</ele><time>2026-04-04T10:31:02.97Z</time></trkpt><trkpt lat="44.4898421" lon="8.4119479"><ele>350.5</ele><time>2026-04-04T10:31:03.969Z</time></trkpt><trkpt lat="44.4898916" lon="8.4120352"><ele>350.33333333333337</ele><time>2026-04-04T10:31:04.969Z</time></trkpt><trkpt lat="44.4899384" lon="8.4121257"><ele>350.1666666666667</ele><time>2026-04-04T10:31:05.97Z</time></trkpt><trkpt lat="44.4899885" lon="8.4122271"><ele>350.0</ele><time>2026-04-04T10:31:06.969Z</time></trkpt><trkpt lat="44.4900446" lon="8.4123274"><ele>349.6666666666667</ele><time>2026-04-04T10:31:07.97Z</time></trkpt><trkpt lat="44.4900902" lon="8.4124302"><ele>349.33333333333337</ele><time>2026-04-04T10:31:08.97Z</time></trkpt><trkpt lat="44.4901374" lon="8.4125285"><ele>349.0</ele><time>2026-04-04T10:31:09.97Z</time></trkpt><trkpt lat="44.4901813" lon="8.4126163"><ele>348.6666666666667</ele><time>2026-04-04T10:31:10.97Z</time></trkpt><trkpt lat="44.4902267" lon="8.4126922"><ele>348.3333333333333</ele><time>2026-04-04T10:31:11.969Z</time></trkpt><trkpt lat="44.4902752" lon="8.4127773"><ele>348.0</ele><time>2026-04-04T10:31:12.97Z</time></trkpt><trkpt lat="44.4903153" lon="8.4128737"><ele>348.0</ele><time>2026-04-04T10:31:13.97Z</time></trkpt><trkpt lat="44.4903588" lon="8.412973"><ele>348.0</ele><time>2026-04-04T10:31:14.97Z</time></trkpt><trkpt lat="44.4903998" lon="8.4130752"><ele>348.0</ele><time>2026-04-04T10:31:15.97Z</time></trkpt><trkpt lat="44.4904434" lon="8.4131675"><ele>348.0</ele><time>2026-04-04T10:31:16.969Z</time></trkpt><trkpt lat="44.4904934" lon="8.4132533"><ele>348.0</ele><time>2026-04-04T10:31:17.97Z</time></trkpt><trkpt lat="44.4905509" lon="8.4133409"><ele>348.0</ele><time>2026-04-04T10:31:18.969Z</time></trkpt><trkpt lat="44.4906102" lon="8.4134244"><ele>347.59999999999997</ele><time>2026-04-04T10:31:19.97Z</time></trkpt><trkpt lat="44.4906877" lon="8.4134969"><ele>347.2</ele><time>2026-04-04T10:31:20.97Z</time></trkpt><trkpt lat="44.4907722" lon="8.4135454"><ele>346.8</ele><time>2026-04-04T10:31:21.97Z</time></trkpt><trkpt lat="44.4908586" lon="8.4135942"><ele>346.4</ele><time>2026-04-04T10:31:22.97Z</time></trkpt><trkpt lat="44.4909465" lon="8.4136457"><ele>346.0</ele><time>2026-04-04T10:31:23.97Z</time></trkpt><trkpt lat="44.4910356" lon="8.413709"><ele>346.0</ele><time>2026-04-04T10:31:24.97Z</time></trkpt><trkpt lat="44.4911299" lon="8.4137944"><ele>346.0</ele><time>2026-04-04T10:31:25.97Z</time></trkpt><trkpt lat="44.4912193" lon="8.4138963"><ele>346.0</ele><time>2026-04-04T10:31:26.97Z</time></trkpt><trkpt lat="44.4913004" lon="8.4140197"><ele>346.0</ele><time>2026-04-04T10:31:27.969Z</time></trkpt><trkpt lat="44.4913631" lon="8.4141393"><ele>345.8</ele><time>2026-04-04T10:31:28.969Z</time></trkpt><trkpt lat="44.4914168" lon="8.4142205"><ele>345.6</ele><time>2026-04-04T10:31:29.97Z</time></trkpt><trkpt lat="44.4914816" lon="8.4142884"><ele>345.4</ele><time>2026-04-04T10:31:30.969Z</time></trkpt><trkpt lat="44.4915551" lon="8.4143597"><ele>345.2</ele><time>2026-04-04T10:31:31.969Z</time></trkpt><trkpt lat="44.4916472" lon="8.4144429"><ele>345.0</ele><time>2026-04-04T10:31:32.97Z</time></trkpt><trkpt lat="44.4917624" lon="8.4145353"><ele>345.0</ele><time>2026-04-04T10:31:33.97Z</time></trkpt><trkpt lat="44.4918922" lon="8.4146265"><ele>345.0</ele><time>2026-04-04T10:31:34.969Z</time></trkpt><trkpt lat="44.4920365" lon="8.4147124"><ele>345.0</ele><time>2026-04-04T10:31:35.969Z</time></trkpt><trkpt lat="44.4921807" lon="8.4147925"><ele>345.6666666666667</ele><time>2026-04-04T10:31:36.97Z</time></trkpt><trkpt lat="44.4923213" lon="8.4148693"><ele>346.33333333333337</ele><time>2026-04-04T10:31:37.97Z</time></trkpt><trkpt lat="44.4924671" lon="8.4149447"><ele>347.0</ele><time>2026-04-04T10:31:38.97Z</time></trkpt><trkpt lat="44.4926122" lon="8.4150186"><ele>347.0</ele><time>2026-04-04T10:31:39.97Z</time></trkpt><trkpt lat="44.4927599" lon="8.4150884"><ele>347.0</ele><time>2026-04-04T10:31:40.97Z</time></trkpt><trkpt lat="44.4929085" lon="8.4151581"><ele>347.0</ele><time>2026-04-04T10:31:41.97Z</time></trkpt><trkpt lat="44.4930695" lon="8.4152235"><ele>346.33333333333337</ele><time>2026-04-04T10:31:42.97Z</time></trkpt><trkpt lat="44.4932314" lon="8.4152796"><ele>345.6666666666667</ele><time>2026-04-04T10:31:43.969Z</time></trkpt><trkpt lat="44.4933957" lon="8.4153089"><ele>345.0</ele><time>2026-04-04T10:31:44.97Z</time></trkpt><trkpt lat="44.4935692" lon="8.4153686"><ele>345.0</ele><time>2026-04-04T10:31:45.969Z</time></trkpt><trkpt lat="44.4937544" lon="8.4154396"><ele>345.0</ele><time>2026-04-04T10:31:46.97Z</time></trkpt><trkpt lat="44.4939417" lon="8.4155541"><ele>345.0</ele><time>2026-04-04T10:31:47.97Z</time></trkpt><trkpt lat="44.4941228" lon="8.4156868"><ele>344.6666666666667</ele><time>2026-04-04T10:31:48.97Z</time></trkpt><trkpt lat="44.4942893" lon="8.4158396"><ele>344.33333333333337</ele><time>2026-04-04T10:31:49.97Z</time></trkpt><trkpt lat="44.4944582" lon="8.4159877"><ele>344.0</ele><time>2026-04-04T10:31:50.97Z</time></trkpt><trkpt lat="44.4946332" lon="8.4161341"><ele>344.0</ele><time>2026-04-04T10:31:51.969Z</time></trkpt><trkpt lat="44.4948119" lon="8.4162813"><ele>344.0</ele><time>2026-04-04T10:31:52.969Z</time></trkpt><trkpt lat="44.4949905" lon="8.4164285"><ele>344.0</ele><time>2026-04-04T10:31:53.969Z</time></trkpt><trkpt lat="44.4951715" lon="8.4165831"><ele>343.6666666666667</ele><time>2026-04-04T10:31:54.97Z</time></trkpt><trkpt lat="44.4953558" lon="8.4167428"><ele>343.3333333333333</ele><time>2026-04-04T10:31:55.97Z</time></trkpt><trkpt lat="44.4955435" lon="8.4168981"><ele>343.0</ele><time>2026-04-04T10:31:56.969Z</time></trkpt><trkpt lat="44.4957318" lon="8.4170579"><ele>343.0</ele><time>2026-04-04T10:31:57.97Z</time></trkpt><trkpt lat="44.4959225" lon="8.4172217"><ele>343.0</ele><time>2026-04-04T10:31:58.97Z</time></trkpt><trkpt lat="44.4961169" lon="8.4173858"><ele>345.0</ele><time>2026-04-04T10:31:59.969Z</time></trkpt><trkpt lat="44.4963123" lon="8.417551"><ele>347.0</ele><time>2026-04-04T10:32:00.97Z</time></trkpt><trkpt lat="44.4965055" lon="8.417717"><ele>347.0</ele><time>2026-04-04T10:32:01.97Z</time></trkpt><trkpt lat="44.4967016" lon="8.41789"><ele>347.0</ele><time>2026-04-04T10:32:02.969Z</time></trkpt><trkpt lat="44.4968993" lon="8.4180615"><ele>349.33333333333337</ele><time>2026-04-04T10:32:03.97Z</time></trkpt><trkpt lat="44.4970891" lon="8.4182238"><ele>351.6666666666667</ele><time>2026-04-04T10:32:04.97Z</time></trkpt><trkpt lat="44.497265" lon="8.4183739"><ele>354.0</ele><time>2026-04-04T10:32:05.97Z</time></trkpt><trkpt lat="44.4974304" lon="8.4185226"><ele>354.0</ele><time>2026-04-04T10:32:06.969Z</time></trkpt><trkpt lat="44.4975981" lon="8.4186623"><ele>354.0</ele><time>2026-04-04T10:32:07.97Z</time></trkpt><trkpt lat="44.4977673" lon="8.4188066"><ele>354.0</ele><time>2026-04-04T10:32:08.97Z</time></trkpt><trkpt lat="44.497941" lon="8.4189546"><ele>352.3333333333333</ele><time>2026-04-04T10:32:09.97Z</time></trkpt><trkpt lat="44.4981213" lon="8.419111"><ele>350.66666666666663</ele><time>2026-04-04T10:32:10.97Z</time></trkpt><trkpt lat="44.498308" lon="8.4192725"><ele>349.0</ele><time>2026-04-04T10:32:11.97Z</time></trkpt><trkpt lat="44.4984903" lon="8.4194347"><ele>349.0</ele><time>2026-04-04T10:32:12.97Z</time></trkpt><trkpt lat="44.498675" lon="8.4195809"><ele>349.0</ele><time>2026-04-04T10:32:13.97Z</time></trkpt><trkpt lat="44.4988567" lon="8.4197323"><ele>349.0</ele><time>2026-04-04T10:32:14.97Z</time></trkpt><trkpt lat="44.4990225" lon="8.4198779"><ele>346.66666666666663</ele><time>2026-04-04T10:32:15.97Z</time></trkpt><trkpt lat="44.4991838" lon="8.4200133"><ele>344.3333333333333</ele><time>2026-04-04T10:32:16.969Z</time></trkpt><trkpt lat="44.4993382" lon="8.4201419"><ele>342.0</ele><time>2026-04-04T10:32:17.97Z</time></trkpt><trkpt lat="44.4994924" lon="8.4202663"><ele>344.3333333333333</ele><time>2026-04-04T10:32:18.97Z</time></trkpt><trkpt lat="44.4996361" lon="8.420394"><ele>346.66666666666663</ele><time>2026-04-04T10:32:19.969Z</time></trkpt><trkpt lat="44.4997665" lon="8.4205349"><ele>349.0</ele><time>2026-04-04T10:32:20.969Z</time></trkpt><trkpt lat="44.4998568" lon="8.420698"><ele>349.0</ele><time>2026-04-04T10:32:21.97Z</time></trkpt><trkpt lat="44.4999067" lon="8.4208938"><ele>349.0</ele><time>2026-04-04T10:32:22.97Z</time></trkpt><trkpt lat="44.4999089" lon="8.4211255"><ele>349.0</ele><time>2026-04-04T10:32:23.97Z</time></trkpt><trkpt lat="44.4998827" lon="8.4213688"><ele>348.3333333333333</ele><time>2026-04-04T10:32:24.969Z</time></trkpt><trkpt lat="44.4998527" lon="8.4216129"><ele>347.6666666666667</ele><time>2026-04-04T10:32:25.97Z</time></trkpt><trkpt lat="44.4998165" lon="8.4218511"><ele>347.0</ele><time>2026-04-04T10:32:26.969Z</time></trkpt><trkpt lat="44.4997691" lon="8.4220848"><ele>346.33333333333337</ele><time>2026-04-04T10:32:27.969Z</time></trkpt><trkpt lat="44.4996995" lon="8.4223209"><ele>345.6666666666667</ele><time>2026-04-04T10:32:28.97Z</time></trkpt><trkpt lat="44.4996152" lon="8.4225479"><ele>345.0</ele><time>2026-04-04T10:32:29.97Z</time></trkpt><trkpt lat="44.4995316" lon="8.4227569"><ele>342.3333333333333</ele><time>2026-04-04T10:32:30.97Z</time></trkpt><trkpt lat="44.4994801" lon="8.423004"><ele>339.66666666666663</ele><time>2026-04-04T10:32:31.969Z</time></trkpt><trkpt lat="44.4994423" lon="8.4232223"><ele>337.0</ele><time>2026-04-04T10:32:32.97Z</time></trkpt><trkpt lat="44.4994317" lon="8.4234412"><ele>337.0</ele><time>2026-04-04T10:32:33.969Z</time></trkpt><trkpt lat="44.4994554" lon="8.4236732"><ele>337.0</ele><time>2026-04-04T10:32:34.97Z</time></trkpt><trkpt lat="44.4994978" lon="8.4239007"><ele>337.0</ele><time>2026-04-04T10:32:35.97Z</time></trkpt><trkpt lat="44.4995719" lon="8.4241125"><ele>337.66666666666663</ele><time>2026-04-04T10:32:36.97Z</time></trkpt><trkpt lat="44.4996658" lon="8.4243086"><ele>338.3333333333333</ele><time>2026-04-04T10:32:37.97Z</time></trkpt><trkpt lat="44.4997776" lon="8.4244856"><ele>339.0</ele><time>2026-04-04T10:32:38.97Z</time></trkpt><trkpt lat="44.4999059" lon="8.4246511"><ele>337.3333333333333</ele><time>2026-04-04T10:32:39.97Z</time></trkpt><trkpt lat="44.500056" lon="8.4248164"><ele>335.66666666666663</ele><time>2026-04-04T10:32:40.969Z</time></trkpt><trkpt lat="44.500215" lon="8.4249876"><ele>334.0</ele><time>2026-04-04T10:32:41.97Z</time></trkpt><trkpt lat="44.5003755" lon="8.4251559"><ele>335.66666666666663</ele><time>2026-04-04T10:32:42.97Z</time></trkpt><trkpt lat="44.5005403" lon="8.4253323"><ele>337.3333333333333</ele><time>2026-04-04T10:32:43.97Z</time></trkpt><trkpt lat="44.5007002" lon="8.4255151"><ele>339.0</ele><time>2026-04-04T10:32:44.969Z</time></trkpt><trkpt lat="44.5008627" lon="8.4257011"><ele>339.0</ele><time>2026-04-04T10:32:45.969Z</time></trkpt><trkpt lat="44.501028" lon="8.4258873"><ele>339.0</ele><time>2026-04-04T10:32:46.97Z</time></trkpt><trkpt lat="44.5011973" lon="8.4260771"><ele>339.0</ele><time>2026-04-04T10:32:47.969Z</time></trkpt><trkpt lat="44.5013626" lon="8.426274"><ele>341.0</ele><time>2026-04-04T10:32:48.97Z</time></trkpt><trkpt lat="44.5015239" lon="8.4264636"><ele>343.0</ele><time>2026-04-04T10:32:49.969Z</time></trkpt><trkpt lat="44.5016755" lon="8.4266457"><ele>345.0</ele><time>2026-04-04T10:32:50.969Z</time></trkpt><trkpt lat="44.5018234" lon="8.4268175"><ele>345.0</ele><time>2026-04-04T10:32:51.97Z</time></trkpt><trkpt lat="44.5019731" lon="8.4269589"><ele>345.0</ele><time>2026-04-04T10:32:52.969Z</time></trkpt><trkpt lat="44.5021226" lon="8.4270841"><ele>345.0</ele><time>2026-04-04T10:32:53.97Z</time></trkpt><trkpt lat="44.5022791" lon="8.4271786"><ele>342.6666666666667</ele><time>2026-04-04T10:32:54.97Z</time></trkpt><trkpt lat="44.5024431" lon="8.4272485"><ele>340.33333333333337</ele><time>2026-04-04T10:32:55.97Z</time></trkpt><trkpt lat="44.5026054" lon="8.4273001"><ele>338.0</ele><time>2026-04-04T10:32:56.969Z</time></trkpt><trkpt lat="44.5027397" lon="8.4273281"><ele>338.0</ele><time>2026-04-04T10:32:57.97Z</time></trkpt><trkpt lat="44.5028693" lon="8.427344"><ele>338.0</ele><time>2026-04-04T10:32:58.969Z</time></trkpt><trkpt lat="44.5029816" lon="8.4273862"><ele>338.0</ele><time>2026-04-04T10:32:59.969Z</time></trkpt><trkpt lat="44.503045" lon="8.4274694"><ele>338.0</ele><time>2026-04-04T10:33:00.969Z</time></trkpt><trkpt lat="44.5030811" lon="8.4275891"><ele>338.0</ele><time>2026-04-04T10:33:01.97Z</time></trkpt><trkpt lat="44.5031004" lon="8.4277401"><ele>339.75</ele><time>2026-04-04T10:33:02.97Z</time></trkpt><trkpt lat="44.5031343" lon="8.4278961"><ele>341.5</ele><time>2026-04-04T10:33:03.97Z</time></trkpt><trkpt lat="44.5031772" lon="8.4280697"><ele>343.25</ele><time>2026-04-04T10:33:04.969Z</time></trkpt><trkpt lat="44.5032434" lon="8.4282507"><ele>345.0</ele><time>2026-04-04T10:33:05.969Z</time></trkpt><trkpt lat="44.5033113" lon="8.4284648"><ele>345.3333333333333</ele><time>2026-04-04T10:33:06.97Z</time></trkpt><trkpt lat="44.5033903" lon="8.428684"><ele>345.66666666666663</ele><time>2026-04-04T10:33:07.97Z</time></trkpt><trkpt lat="44.5034558" lon="8.4289068"><ele>346.0</ele><time>2026-04-04T10:33:08.969Z</time></trkpt><trkpt lat="44.5034846" lon="8.4291612"><ele>346.0</ele><time>2026-04-04T10:33:09.97Z</time></trkpt><trkpt lat="44.5034875" lon="8.4294229"><ele>346.0</ele><time>2026-04-04T10:33:10.969Z</time></trkpt><trkpt lat="44.5034708" lon="8.4296926"><ele>346.0</ele><time>2026-04-04T10:33:11.969Z</time></trkpt><trkpt lat="44.5034261" lon="8.4299757"><ele>346.0</ele><time>2026-04-04T10:33:12.97Z</time></trkpt><trkpt lat="44.5033702" lon="8.4302602"><ele>346.0</ele><time>2026-04-04T10:33:13.97Z</time></trkpt><trkpt lat="44.5033118" lon="8.4305277"><ele>346.0</ele><time>2026-04-04T10:33:14.97Z</time></trkpt><trkpt lat="44.5032478" lon="8.4307865"><ele>346.0</ele><time>2026-04-04T10:33:15.969Z</time></trkpt><trkpt lat="44.5031931" lon="8.4310098"><ele>346.0</ele><time>2026-04-04T10:33:16.97Z</time></trkpt><trkpt lat="44.503139" lon="8.4312153"><ele>346.0</ele><time>2026-04-04T10:33:17.97Z</time></trkpt><trkpt lat="44.503088" lon="8.4314164"><ele>345.5</ele><time>2026-04-04T10:33:18.97Z</time></trkpt><trkpt lat="44.5030525" lon="8.4316194"><ele>345.0</ele><time>2026-04-04T10:33:19.97Z</time></trkpt><trkpt lat="44.503031" lon="8.4318319"><ele>344.5</ele><time>2026-04-04T10:33:20.97Z</time></trkpt><trkpt lat="44.5030289" lon="8.4320138"><ele>344.0</ele><time>2026-04-04T10:33:21.97Z</time></trkpt><trkpt lat="44.5030425" lon="8.4321809"><ele>344.0</ele><time>2026-04-04T10:33:22.97Z</time></trkpt><trkpt lat="44.5030817" lon="8.4323448"><ele>344.0</ele><time>2026-04-04T10:33:23.97Z</time></trkpt><trkpt lat="44.5031602" lon="8.4325077"><ele>344.0</ele><time>2026-04-04T10:33:24.97Z</time></trkpt><trkpt lat="44.5032548" lon="8.4326884"><ele>344.0</ele><time>2026-04-04T10:33:25.97Z</time></trkpt><trkpt lat="44.5033585" lon="8.4328854"><ele>341.6666666666667</ele><time>2026-04-04T10:33:26.97Z</time></trkpt><trkpt lat="44.5034706" lon="8.4330872"><ele>339.3333333333333</ele><time>2026-04-04T10:33:27.97Z</time></trkpt><trkpt lat="44.5035871" lon="8.4332656"><ele>337.0</ele><time>2026-04-04T10:33:28.97Z</time></trkpt><trkpt lat="44.503688" lon="8.4334257"><ele>340.0</ele><time>2026-04-04T10:33:29.969Z</time></trkpt><trkpt lat="44.5037815" lon="8.433581"><ele>343.0</ele><time>2026-04-04T10:33:30.969Z</time></trkpt><trkpt lat="44.5038391" lon="8.4337567"><ele>346.0</ele><time>2026-04-04T10:33:31.969Z</time></trkpt><trkpt lat="44.5038698" lon="8.4339334"><ele>349.0</ele><time>2026-04-04T10:33:32.97Z</time></trkpt><trkpt lat="44.5038697" lon="8.4341254"><ele>349.0</ele><time>2026-04-04T10:33:33.97Z</time></trkpt><trkpt lat="44.5038726" lon="8.4342946"><ele>349.0</ele><time>2026-04-04T10:33:34.969Z</time></trkpt><trkpt lat="44.5038882" lon="8.4344235"><ele>349.0</ele><time>2026-04-04T10:33:35.97Z</time></trkpt><trkpt lat="44.5039336" lon="8.4345373"><ele>349.0</ele><time>2026-04-04T10:33:36.969Z</time></trkpt><trkpt lat="44.5040156" lon="8.4346333"><ele>349.0</ele><time>2026-04-04T10:33:37.969Z</time></trkpt><trkpt lat="44.5041269" lon="8.4347179"><ele>345.25</ele><time>2026-04-04T10:33:38.97Z</time></trkpt><trkpt lat="44.5042564" lon="8.4348075"><ele>341.5</ele><time>2026-04-04T10:33:39.97Z</time></trkpt><trkpt lat="44.5043889" lon="8.4348902"><ele>337.75</ele><time>2026-04-04T10:33:40.969Z</time></trkpt><trkpt lat="44.5045271" lon="8.4349484"><ele>334.0</ele><time>2026-04-04T10:33:41.97Z</time></trkpt><trkpt lat="44.5046818" lon="8.4349707"><ele>334.0</ele><time>2026-04-04T10:33:42.97Z</time></trkpt><trkpt lat="44.5048597" lon="8.4349613"><ele>334.0</ele><time>2026-04-04T10:33:43.97Z</time></trkpt><trkpt lat="44.5050525" lon="8.4349456"><ele>334.0</ele><time>2026-04-04T10:33:44.97Z</time></trkpt><trkpt lat="44.5052412" lon="8.4349611"><ele>335.0</ele><time>2026-04-04T10:33:45.97Z</time></trkpt><trkpt lat="44.5054195" lon="8.4350304"><ele>336.0</ele><time>2026-04-04T10:33:46.969Z</time></trkpt><trkpt lat="44.5055739" lon="8.4351572"><ele>337.0</ele><time>2026-04-04T10:33:47.969Z</time></trkpt><trkpt lat="44.5057221" lon="8.4353041"><ele>337.0</ele><time>2026-04-04T10:33:48.97Z</time></trkpt><trkpt lat="44.5058666" lon="8.4354115"><ele>337.0</ele><time>2026-04-04T10:33:49.97Z</time></trkpt><trkpt lat="44.5060374" lon="8.4354703"><ele>337.0</ele><time>2026-04-04T10:33:50.97Z</time></trkpt><trkpt lat="44.5062166" lon="8.4355107"><ele>333.0</ele><time>2026-04-04T10:33:51.97Z</time></trkpt><trkpt lat="44.5064071" lon="8.4355495"><ele>329.0</ele><time>2026-04-04T10:33:52.97Z</time></trkpt><trkpt lat="44.5065883" lon="8.4355993"><ele>325.0</ele><time>2026-04-04T10:33:53.969Z</time></trkpt><trkpt lat="44.5067522" lon="8.4356993"><ele>325.0</ele><time>2026-04-04T10:33:54.969Z</time></trkpt><trkpt lat="44.5068935" lon="8.4358233"><ele>325.0</ele><time>2026-04-04T10:33:55.969Z</time></trkpt><trkpt lat="44.5070286" lon="8.4359463"><ele>325.0</ele><time>2026-04-04T10:33:56.97Z</time></trkpt><trkpt lat="44.5071755" lon="8.4360269"><ele>326.0</ele><time>2026-04-04T10:33:57.97Z</time></trkpt><trkpt lat="44.5073372" lon="8.4360461"><ele>327.0</ele><time>2026-04-04T10:33:58.969Z</time></trkpt><trkpt lat="44.507506" lon="8.4360138"><ele>328.0</ele><time>2026-04-04T10:33:59.97Z</time></trkpt><trkpt lat="44.5076915" lon="8.4359694"><ele>328.0</ele><time>2026-04-04T10:34:00.969Z</time></trkpt><trkpt lat="44.5078792" lon="8.4359437"><ele>328.0</ele><time>2026-04-04T10:34:01.97Z</time></trkpt><trkpt lat="44.5080728" lon="8.4359404"><ele>328.0</ele><time>2026-04-04T10:34:02.97Z</time></trkpt><trkpt lat="44.5082718" lon="8.4359465"><ele>328.0</ele><time>2026-04-04T10:34:03.97Z</time></trkpt><trkpt lat="44.5084697" lon="8.4359527"><ele>328.0</ele><time>2026-04-04T10:34:04.97Z</time></trkpt><trkpt lat="44.5086576" lon="8.4359649"><ele>328.0</ele><time>2026-04-04T10:34:05.969Z</time></trkpt><trkpt lat="44.5088379" lon="8.4359834"><ele>328.0</ele><time>2026-04-04T10:34:06.969Z</time></trkpt><trkpt lat="44.509" lon="8.4360238"><ele>328.0</ele><time>2026-04-04T10:34:07.97Z</time></trkpt><trkpt lat="44.5091518" lon="8.4361314"><ele>328.0</ele><time>2026-04-04T10:34:08.97Z</time></trkpt><trkpt lat="44.5092892" lon="8.4363049"><ele>327.66666666666663</ele><time>2026-04-04T10:34:09.97Z</time></trkpt><trkpt lat="44.5094337" lon="8.4364974"><ele>327.3333333333333</ele><time>2026-04-04T10:34:10.97Z</time></trkpt><trkpt lat="44.5095758" lon="8.4366829"><ele>327.0</ele><time>2026-04-04T10:34:11.97Z</time></trkpt><trkpt lat="44.5097267" lon="8.4368611"><ele>327.0</ele><time>2026-04-04T10:34:12.969Z</time></trkpt><trkpt lat="44.5098769" lon="8.4370374"><ele>327.0</ele><time>2026-04-04T10:34:13.969Z</time></trkpt><trkpt lat="44.5100258" lon="8.4372216"><ele>327.0</ele><time>2026-04-04T10:34:14.97Z</time></trkpt><trkpt lat="44.5101613" lon="8.4374205"><ele>325.3333333333333</ele><time>2026-04-04T10:34:15.97Z</time></trkpt><trkpt lat="44.510273" lon="8.4376481"><ele>323.66666666666663</ele><time>2026-04-04T10:34:16.97Z</time></trkpt><trkpt lat="44.5103713" lon="8.4379215"><ele>322.0</ele><time>2026-04-04T10:34:17.97Z</time></trkpt><trkpt lat="44.5104687" lon="8.4382147"><ele>321.3333333333333</ele><time>2026-04-04T10:34:18.97Z</time></trkpt><trkpt lat="44.5105594" lon="8.438513"><ele>320.6666666666667</ele><time>2026-04-04T10:34:19.97Z</time></trkpt><trkpt lat="44.5106495" lon="8.4387869"><ele>320.0</ele><time>2026-04-04T10:34:20.969Z</time></trkpt><trkpt lat="44.5107457" lon="8.4390385"><ele>319.6666666666667</ele><time>2026-04-04T10:34:21.969Z</time></trkpt><trkpt lat="44.5108391" lon="8.4392575"><ele>319.3333333333333</ele><time>2026-04-04T10:34:22.969Z</time></trkpt><trkpt lat="44.510925" lon="8.4394306"><ele>319.0</ele><time>2026-04-04T10:34:23.97Z</time></trkpt><trkpt lat="44.5109992" lon="8.4395951"><ele>318.75</ele><time>2026-04-04T10:34:24.97Z</time></trkpt><trkpt lat="44.5110493" lon="8.4397623"><ele>318.5</ele><time>2026-04-04T10:34:25.97Z</time></trkpt><trkpt lat="44.5110604" lon="8.4399365"><ele>318.25</ele><time>2026-04-04T10:34:26.97Z</time></trkpt><trkpt lat="44.5110224" lon="8.4401141"><ele>318.0</ele><time>2026-04-04T10:34:27.97Z</time></trkpt><trkpt lat="44.5109524" lon="8.4402907"><ele>318.0</ele><time>2026-04-04T10:34:28.969Z</time></trkpt><trkpt lat="44.51087" lon="8.4404641"><ele>318.0</ele><time>2026-04-04T10:34:29.97Z</time></trkpt><trkpt lat="44.5107769" lon="8.4406371"><ele>318.0</ele><time>2026-04-04T10:34:30.97Z</time></trkpt><trkpt lat="44.5106811" lon="8.4407861"><ele>318.0</ele><time>2026-04-04T10:34:31.97Z</time></trkpt><trkpt lat="44.5105826" lon="8.440935"><ele>318.0</ele><time>2026-04-04T10:34:32.969Z</time></trkpt><trkpt lat="44.510489" lon="8.4410787"><ele>318.0</ele><time>2026-04-04T10:34:33.97Z</time></trkpt><trkpt lat="44.5104137" lon="8.4412137"><ele>318.0</ele><time>2026-04-04T10:34:34.969Z</time></trkpt><trkpt lat="44.5103597" lon="8.4413415"><ele>318.0</ele><time>2026-04-04T10:34:35.97Z</time></trkpt><trkpt lat="44.5103534" lon="8.4414599"><ele>318.0</ele><time>2026-04-04T10:34:36.97Z</time></trkpt><trkpt lat="44.5103747" lon="8.4415833"><ele>318.0</ele><time>2026-04-04T10:34:37.97Z</time></trkpt><trkpt lat="44.5104359" lon="8.4417094"><ele>318.0</ele><time>2026-04-04T10:34:38.97Z</time></trkpt><trkpt lat="44.5105432" lon="8.4418522"><ele>318.0</ele><time>2026-04-04T10:34:39.97Z</time></trkpt><trkpt lat="44.5106612" lon="8.4420182"><ele>318.0</ele><time>2026-04-04T10:34:40.97Z</time></trkpt><trkpt lat="44.5107822" lon="8.4422059"><ele>318.0</ele><time>2026-04-04T10:34:41.969Z</time></trkpt><trkpt lat="44.5109178" lon="8.4424005"><ele>318.0</ele><time>2026-04-04T10:34:42.97Z</time></trkpt><trkpt lat="44.5110295" lon="8.4426106"><ele>318.0</ele><time>2026-04-04T10:34:43.969Z</time></trkpt><trkpt lat="44.5111154" lon="8.4428293"><ele>318.0</ele><time>2026-04-04T10:34:44.97Z</time></trkpt><trkpt lat="44.5111728" lon="8.4430515"><ele>318.0</ele><time>2026-04-04T10:34:45.969Z</time></trkpt><trkpt lat="44.5112363" lon="8.4432495"><ele>318.3333333333333</ele><time>2026-04-04T10:34:46.969Z</time></trkpt><trkpt lat="44.5113148" lon="8.4434345"><ele>318.66666666666663</ele><time>2026-04-04T10:34:47.97Z</time></trkpt><trkpt lat="44.511402" lon="8.4436047"><ele>319.0</ele><time>2026-04-04T10:34:48.97Z</time></trkpt><trkpt lat="44.5115043" lon="8.4437633"><ele>317.66666666666663</ele><time>2026-04-04T10:34:49.97Z</time></trkpt><trkpt lat="44.5116288" lon="8.4439012"><ele>316.3333333333333</ele><time>2026-04-04T10:34:50.969Z</time></trkpt><trkpt lat="44.5117736" lon="8.4440141"><ele>315.0</ele><time>2026-04-04T10:34:51.97Z</time></trkpt><trkpt lat="44.5119464" lon="8.4440916"><ele>315.3333333333333</ele><time>2026-04-04T10:34:52.97Z</time></trkpt><trkpt lat="44.5121241" lon="8.4441114"><ele>315.66666666666663</ele><time>2026-04-04T10:34:53.97Z</time></trkpt><trkpt lat="44.512293" lon="8.4440995"><ele>316.0</ele><time>2026-04-04T10:34:54.969Z</time></trkpt><trkpt lat="44.5124405" lon="8.4440638"><ele>316.0</ele><time>2026-04-04T10:34:55.968Z</time></trkpt><trkpt lat="44.5125668" lon="8.4440685"><ele>316.0</ele><time>2026-04-04T10:34:56.969Z</time></trkpt><trkpt lat="44.5126856" lon="8.4441048"><ele>316.0</ele><time>2026-04-04T10:34:57.969Z</time></trkpt><trkpt lat="44.5127956" lon="8.4441872"><ele>316.0</ele><time>2026-04-04T10:34:58.969Z</time></trkpt><trkpt lat="44.5128803" lon="8.4443041"><ele>317.25</ele><time>2026-04-04T10:34:59.969Z</time></trkpt><trkpt lat="44.5129483" lon="8.4444475"><ele>318.5</ele><time>2026-04-04T10:35:00.969Z</time></trkpt><trkpt lat="44.513014" lon="8.4446066"><ele>319.75</ele><time>2026-04-04T10:35:01.969Z</time></trkpt><trkpt lat="44.5130699" lon="8.4447871"><ele>321.0</ele><time>2026-04-04T10:35:02.969Z</time></trkpt><trkpt lat="44.51313" lon="8.4449723"><ele>321.0</ele><time>2026-04-04T10:35:03.969Z</time></trkpt><trkpt lat="44.5131887" lon="8.4451717"><ele>321.0</ele><time>2026-04-04T10:35:04.969Z</time></trkpt><trkpt lat="44.5132367" lon="8.4454056"><ele>321.0</ele><time>2026-04-04T10:35:05.969Z</time></trkpt><trkpt lat="44.5132529" lon="8.4456494"><ele>319.6666666666667</ele><time>2026-04-04T10:35:06.969Z</time></trkpt><trkpt lat="44.5132715" lon="8.4459065"><ele>318.33333333333337</ele><time>2026-04-04T10:35:07.968Z</time></trkpt><trkpt lat="44.5132994" lon="8.4461622"><ele>317.0</ele><time>2026-04-04T10:35:08.969Z</time></trkpt><trkpt lat="44.5133303" lon="8.4464279"><ele>316.33333333333337</ele><time>2026-04-04T10:35:09.969Z</time></trkpt><trkpt lat="44.5133815" lon="8.4466974"><ele>315.6666666666667</ele><time>2026-04-04T10:35:10.969Z</time></trkpt><trkpt lat="44.5134326" lon="8.4469657"><ele>315.0</ele><time>2026-04-04T10:35:11.969Z</time></trkpt><trkpt lat="44.5134851" lon="8.4472224"><ele>314.75</ele><time>2026-04-04T10:35:12.968Z</time></trkpt><trkpt lat="44.5135358" lon="8.4474501"><ele>314.5</ele><time>2026-04-04T10:35:13.969Z</time></trkpt><trkpt lat="44.5135814" lon="8.4476525"><ele>314.25</ele><time>2026-04-04T10:35:14.969Z</time></trkpt><trkpt lat="44.5136246" lon="8.4478201"><ele>314.0</ele><time>2026-04-04T10:35:15.968Z</time></trkpt><trkpt lat="44.5136514" lon="8.4479869"><ele>313.4</ele><time>2026-04-04T10:35:16.969Z</time></trkpt><trkpt lat="44.513683" lon="8.4481441"><ele>312.79999999999995</ele><time>2026-04-04T10:35:17.969Z</time></trkpt><trkpt lat="44.5137179" lon="8.448285"><ele>312.20000000000005</ele><time>2026-04-04T10:35:18.969Z</time></trkpt><trkpt lat="44.5137508" lon="8.4484093"><ele>311.6</ele><time>2026-04-04T10:35:19.969Z</time></trkpt><trkpt lat="44.5137782" lon="8.4485341"><ele>311.0</ele><time>2026-04-04T10:35:20.969Z</time></trkpt><trkpt lat="44.5138102" lon="8.4486561"><ele>312.5</ele><time>2026-04-04T10:35:21.969Z</time></trkpt><trkpt lat="44.5138445" lon="8.4487865"><ele>314.0</ele><time>2026-04-04T10:35:22.969Z</time></trkpt><trkpt lat="44.5138786" lon="8.4489014"><ele>315.5</ele><time>2026-04-04T10:35:23.969Z</time></trkpt><trkpt lat="44.5139084" lon="8.4490038"><ele>317.0</ele><time>2026-04-04T10:35:24.969Z</time></trkpt><trkpt lat="44.5139406" lon="8.4491063"><ele>318.5</ele><time>2026-04-04T10:35:25.969Z</time></trkpt><trkpt lat="44.5139724" lon="8.4492198"><ele>320.0</ele><time>2026-04-04T10:35:26.968Z</time></trkpt><trkpt lat="44.5140056" lon="8.4493494"><ele>320.0</ele><time>2026-04-04T10:35:27.969Z</time></trkpt><trkpt lat="44.5140325" lon="8.4495081"><ele>320.0</ele><time>2026-04-04T10:35:28.969Z</time></trkpt><trkpt lat="44.5140277" lon="8.4496979"><ele>320.0</ele><time>2026-04-04T10:35:29.969Z</time></trkpt><trkpt lat="44.513982" lon="8.449919"><ele>320.0</ele><time>2026-04-04T10:35:30.968Z</time></trkpt><trkpt lat="44.5138832" lon="8.4501742"><ele>321.0</ele><time>2026-04-04T10:35:31.969Z</time></trkpt><trkpt lat="44.513781" lon="8.4504121"><ele>322.0</ele><time>2026-04-04T10:35:32.968Z</time></trkpt><trkpt lat="44.5136912" lon="8.4506053"><ele>323.0</ele><time>2026-04-04T10:35:33.969Z</time></trkpt><trkpt lat="44.5136131" lon="8.4507727"><ele>322.25</ele><time>2026-04-04T10:35:34.969Z</time></trkpt><trkpt lat="44.5135563" lon="8.4509313"><ele>321.5</ele><time>2026-04-04T10:35:35.969Z</time></trkpt><trkpt lat="44.513518" lon="8.4510893"><ele>320.75</ele><time>2026-04-04T10:35:36.968Z</time></trkpt><trkpt lat="44.5134811" lon="8.4512769"><ele>320.0</ele><time>2026-04-04T10:35:37.968Z</time></trkpt><trkpt lat="44.513434" lon="8.451476"><ele>320.0</ele><time>2026-04-04T10:35:38.968Z</time></trkpt><trkpt lat="44.513395" lon="8.4516734"><ele>320.0</ele><time>2026-04-04T10:35:39.969Z</time></trkpt><trkpt lat="44.5133536" lon="8.4518705"><ele>320.0</ele><time>2026-04-04T10:35:40.969Z</time></trkpt><trkpt lat="44.5133188" lon="8.4520513"><ele>320.0</ele><time>2026-04-04T10:35:41.969Z</time></trkpt><trkpt lat="44.513278" lon="8.4522205"><ele>320.0</ele><time>2026-04-04T10:35:42.968Z</time></trkpt><trkpt lat="44.5132305" lon="8.4523764"><ele>320.0</ele><time>2026-04-04T10:35:43.969Z</time></trkpt><trkpt lat="44.5131645" lon="8.4525208"><ele>320.0</ele><time>2026-04-04T10:35:44.969Z</time></trkpt><trkpt lat="44.5130845" lon="8.4526516"><ele>320.0</ele><time>2026-04-04T10:35:45.969Z</time></trkpt><trkpt lat="44.5129955" lon="8.4527614"><ele>318.0</ele><time>2026-04-04T10:35:46.969Z</time></trkpt><trkpt lat="44.5128886" lon="8.4528663"><ele>316.0</ele><time>2026-04-04T10:35:47.969Z</time></trkpt><trkpt lat="44.5127814" lon="8.452975"><ele>314.0</ele><time>2026-04-04T10:35:48.968Z</time></trkpt><trkpt lat="44.5126763" lon="8.4530944"><ele>312.0</ele><time>2026-04-04T10:35:49.969Z</time></trkpt><trkpt lat="44.5125849" lon="8.4532282"><ele>312.0</ele><time>2026-04-04T10:35:50.969Z</time></trkpt><trkpt lat="44.5125107" lon="8.4533648"><ele>312.0</ele><time>2026-04-04T10:35:51.968Z</time></trkpt><trkpt lat="44.5124615" lon="8.4535123"><ele>312.0</ele><time>2026-04-04T10:35:52.968Z</time></trkpt><trkpt lat="44.5124375" lon="8.4536718"><ele>312.0</ele><time>2026-04-04T10:35:53.969Z</time></trkpt><trkpt lat="44.5124744" lon="8.4538181"><ele>310.5</ele><time>2026-04-04T10:35:54.969Z</time></trkpt><trkpt lat="44.5125539" lon="8.4539462"><ele>309.0</ele><time>2026-04-04T10:35:55.969Z</time></trkpt><trkpt lat="44.51266" lon="8.4540471"><ele>307.5</ele><time>2026-04-04T10:35:56.969Z</time></trkpt><trkpt lat="44.5127657" lon="8.4541226"><ele>306.0</ele><time>2026-04-04T10:35:57.968Z</time></trkpt><trkpt lat="44.5128764" lon="8.4541832"><ele>306.75</ele><time>2026-04-04T10:35:58.969Z</time></trkpt><trkpt lat="44.5129978" lon="8.4542251"><ele>307.5</ele><time>2026-04-04T10:35:59.969Z</time></trkpt><trkpt lat="44.5131361" lon="8.45422"><ele>308.25</ele><time>2026-04-04T10:36:00.969Z</time></trkpt><trkpt lat="44.5132885" lon="8.4541912"><ele>309.0</ele><time>2026-04-04T10:36:01.968Z</time></trkpt><trkpt lat="44.5134421" lon="8.4541406"><ele>309.0</ele><time>2026-04-04T10:36:02.969Z</time></trkpt><trkpt lat="44.5135979" lon="8.4540863"><ele>309.0</ele><time>2026-04-04T10:36:03.969Z</time></trkpt><trkpt lat="44.5137601" lon="8.4540556"><ele>309.0</ele><time>2026-04-04T10:36:04.968Z</time></trkpt><trkpt lat="44.5139105" lon="8.4540452"><ele>310.25</ele><time>2026-04-04T10:36:05.969Z</time></trkpt><trkpt lat="44.514053" lon="8.4540492"><ele>311.5</ele><time>2026-04-04T10:36:06.969Z</time></trkpt><trkpt lat="44.5141869" lon="8.4540965"><ele>312.75</ele><time>2026-04-04T10:36:07.968Z</time></trkpt><trkpt lat="44.514315" lon="8.454196"><ele>314.0</ele><time>2026-04-04T10:36:08.968Z</time></trkpt><trkpt lat="44.5144419" lon="8.4543481"><ele>315.6666666666667</ele><time>2026-04-04T10:36:09.969Z</time></trkpt><trkpt lat="44.5145845" lon="8.4545268"><ele>317.3333333333333</ele><time>2026-04-04T10:36:10.969Z</time></trkpt><trkpt lat="44.5147394" lon="8.4546804"><ele>319.0</ele><time>2026-04-04T10:36:11.969Z</time></trkpt><trkpt lat="44.5148961" lon="8.4548037"><ele>315.3333333333333</ele><time>2026-04-04T10:36:12.969Z</time></trkpt><trkpt lat="44.5150498" lon="8.454915"><ele>311.6666666666667</ele><time>2026-04-04T10:36:13.968Z</time></trkpt><trkpt lat="44.5152081" lon="8.4550211"><ele>308.0</ele><time>2026-04-04T10:36:14.969Z</time></trkpt><trkpt lat="44.5153619" lon="8.4551252"><ele>308.33333333333337</ele><time>2026-04-04T10:36:15.969Z</time></trkpt><trkpt lat="44.515513" lon="8.4552508"><ele>308.6666666666667</ele><time>2026-04-04T10:36:16.969Z</time></trkpt><trkpt lat="44.5156589" lon="8.4553977"><ele>309.0</ele><time>2026-04-04T10:36:17.968Z</time></trkpt><trkpt lat="44.5157935" lon="8.455565"><ele>309.0</ele><time>2026-04-04T10:36:18.968Z</time></trkpt><trkpt lat="44.5159185" lon="8.4557352"><ele>309.0</ele><time>2026-04-04T10:36:19.969Z</time></trkpt><trkpt lat="44.5160284" lon="8.4559242"><ele>309.0</ele><time>2026-04-04T10:36:20.969Z</time></trkpt><trkpt lat="44.5161221" lon="8.4561442"><ele>306.6666666666667</ele><time>2026-04-04T10:36:21.969Z</time></trkpt><trkpt lat="44.5161992" lon="8.4563845"><ele>304.33333333333337</ele><time>2026-04-04T10:36:22.969Z</time></trkpt><trkpt lat="44.5162583" lon="8.4566528"><ele>302.0</ele><time>2026-04-04T10:36:23.969Z</time></trkpt><trkpt lat="44.5162945" lon="8.4569185"><ele>304.25</ele><time>2026-04-04T10:36:24.969Z</time></trkpt><trkpt lat="44.5163083" lon="8.457157"><ele>306.5</ele><time>2026-04-04T10:36:25.969Z</time></trkpt><trkpt lat="44.5163014" lon="8.4573577"><ele>308.75</ele><time>2026-04-04T10:36:26.968Z</time></trkpt><trkpt lat="44.5162939" lon="8.4575203"><ele>311.0</ele><time>2026-04-04T10:36:27.969Z</time></trkpt><trkpt lat="44.516299" lon="8.4576823"><ele>311.0</ele><time>2026-04-04T10:36:28.969Z</time></trkpt><trkpt lat="44.5163426" lon="8.4578356"><ele>311.0</ele><time>2026-04-04T10:36:29.968Z</time></trkpt><trkpt lat="44.5164203" lon="8.4579698"><ele>311.0</ele><time>2026-04-04T10:36:30.968Z</time></trkpt><trkpt lat="44.5165183" lon="8.4580911"><ele>311.0</ele><time>2026-04-04T10:36:31.968Z</time></trkpt><trkpt lat="44.5166323" lon="8.4581905"><ele>309.5</ele><time>2026-04-04T10:36:32.969Z</time></trkpt><trkpt lat="44.5167692" lon="8.4582312"><ele>308.0</ele><time>2026-04-04T10:36:33.968Z</time></trkpt><trkpt lat="44.516911" lon="8.4582621"><ele>306.5</ele><time>2026-04-04T10:36:34.969Z</time></trkpt><trkpt lat="44.51705" lon="8.4582995"><ele>305.0</ele><time>2026-04-04T10:36:35.969Z</time></trkpt><trkpt lat="44.51718" lon="8.458396"><ele>305.0</ele><time>2026-04-04T10:36:36.968Z</time></trkpt><trkpt lat="44.5172953" lon="8.4585653"><ele>305.0</ele><time>2026-04-04T10:36:37.969Z</time></trkpt><trkpt lat="44.5174108" lon="8.4587709"><ele>305.0</ele><time>2026-04-04T10:36:38.969Z</time></trkpt><trkpt lat="44.5175196" lon="8.4589844"><ele>302.6666666666667</ele><time>2026-04-04T10:36:39.969Z</time></trkpt><trkpt lat="44.5176318" lon="8.4592026"><ele>300.3333333333333</ele><time>2026-04-04T10:36:40.968Z</time></trkpt><trkpt lat="44.5177419" lon="8.4594214"><ele>298.0</ele><time>2026-04-04T10:36:41.969Z</time></trkpt><trkpt lat="44.517864" lon="8.4596388"><ele>298.66666666666663</ele><time>2026-04-04T10:36:42.968Z</time></trkpt><trkpt lat="44.5179885" lon="8.459854"><ele>299.3333333333333</ele><time>2026-04-04T10:36:43.968Z</time></trkpt><trkpt lat="44.5181143" lon="8.4600829"><ele>300.0</ele><time>2026-04-04T10:36:44.969Z</time></trkpt><trkpt lat="44.5182363" lon="8.4603211"><ele>299.6666666666667</ele><time>2026-04-04T10:36:45.969Z</time></trkpt><trkpt lat="44.5183593" lon="8.4605687"><ele>299.33333333333337</ele><time>2026-04-04T10:36:46.968Z</time></trkpt><trkpt lat="44.518475" lon="8.4608229"><ele>299.0</ele><time>2026-04-04T10:36:47.968Z</time></trkpt><trkpt lat="44.5185912" lon="8.4610906"><ele>297.5</ele><time>2026-04-04T10:36:48.969Z</time></trkpt><trkpt lat="44.5187116" lon="8.461363"><ele>296.0</ele><time>2026-04-04T10:36:49.969Z</time></trkpt><trkpt lat="44.5188368" lon="8.4616301"><ele>297.0</ele><time>2026-04-04T10:36:50.969Z</time></trkpt><trkpt lat="44.5189588" lon="8.4618959"><ele>298.0</ele><time>2026-04-04T10:36:51.969Z</time></trkpt><trkpt lat="44.5190721" lon="8.462165"><ele>299.0</ele><time>2026-04-04T10:36:52.968Z</time></trkpt><trkpt lat="44.5191832" lon="8.4624445"><ele>299.0</ele><time>2026-04-04T10:36:53.969Z</time></trkpt><trkpt lat="44.5192845" lon="8.4627384"><ele>299.0</ele><time>2026-04-04T10:36:54.968Z</time></trkpt><trkpt lat="44.5193774" lon="8.4630364"><ele>296.5</ele><time>2026-04-04T10:36:55.969Z</time></trkpt><trkpt lat="44.5194763" lon="8.4633369"><ele>294.0</ele><time>2026-04-04T10:36:56.968Z</time></trkpt><trkpt lat="44.5195747" lon="8.4636358"><ele>302.0</ele><time>2026-04-04T10:36:57.968Z</time></trkpt><trkpt lat="44.519673" lon="8.4639355"><ele>310.0</ele><time>2026-04-04T10:36:58.969Z</time></trkpt><trkpt lat="44.5197684" lon="8.4642245"><ele>310.0</ele><time>2026-04-04T10:36:59.969Z</time></trkpt><trkpt lat="44.5198556" lon="8.4644865"><ele>310.0</ele><time>2026-04-04T10:37:00.969Z</time></trkpt><trkpt lat="44.5199415" lon="8.464721"><ele>310.0</ele><time>2026-04-04T10:37:01.968Z</time></trkpt><trkpt lat="44.5200296" lon="8.4649386"><ele>307.0</ele><time>2026-04-04T10:37:02.969Z</time></trkpt><trkpt lat="44.5201003" lon="8.4651515"><ele>304.0</ele><time>2026-04-04T10:37:03.968Z</time></trkpt><trkpt lat="44.5201917" lon="8.46533"><ele>301.0</ele><time>2026-04-04T10:37:04.969Z</time></trkpt><trkpt lat="44.5202773" lon="8.4655158"><ele>299.66666666666663</ele><time>2026-04-04T10:37:05.969Z</time></trkpt><trkpt lat="44.5203818" lon="8.4656878"><ele>298.3333333333333</ele><time>2026-04-04T10:37:06.968Z</time></trkpt><trkpt lat="44.5204799" lon="8.4658194"><ele>297.0</ele><time>2026-04-04T10:37:07.968Z</time></trkpt><trkpt lat="44.5206171" lon="8.4659338"><ele>297.0</ele><time>2026-04-04T10:37:08.969Z</time></trkpt><trkpt lat="44.520768" lon="8.4660168"><ele>297.0</ele><time>2026-04-04T10:37:09.969Z</time></trkpt><trkpt lat="44.520905" lon="8.4660958"><ele>297.0</ele><time>2026-04-04T10:37:10.968Z</time></trkpt><trkpt lat="44.5210395" lon="8.466176"><ele>297.0</ele><time>2026-04-04T10:37:11.969Z</time></trkpt><trkpt lat="44.5211641" lon="8.4662643"><ele>297.0</ele><time>2026-04-04T10:37:12.969Z</time></trkpt><trkpt lat="44.5212771" lon="8.466361"><ele>297.0</ele><time>2026-04-04T10:37:13.969Z</time></trkpt><trkpt lat="44.5213874" lon="8.4664589"><ele>297.0</ele><time>2026-04-04T10:37:14.969Z</time></trkpt><trkpt lat="44.5214841" lon="8.4665747"><ele>298.6</ele><time>2026-04-04T10:37:15.968Z</time></trkpt><trkpt lat="44.5215515" lon="8.4666854"><ele>300.2</ele><time>2026-04-04T10:37:16.968Z</time></trkpt><trkpt lat="44.5215992" lon="8.4668087"><ele>301.8</ele><time>2026-04-04T10:37:17.969Z</time></trkpt><trkpt lat="44.5216171" lon="8.4669464"><ele>303.4</ele><time>2026-04-04T10:37:18.969Z</time></trkpt><trkpt lat="44.5216029" lon="8.4670905"><ele>305.0</ele><time>2026-04-04T10:37:19.969Z</time></trkpt><trkpt lat="44.5215639" lon="8.46724"><ele>305.25</ele><time>2026-04-04T10:37:20.968Z</time></trkpt><trkpt lat="44.521531" lon="8.4673968"><ele>305.5</ele><time>2026-04-04T10:37:21.969Z</time></trkpt><trkpt lat="44.5215349" lon="8.4675618"><ele>305.75</ele><time>2026-04-04T10:37:22.969Z</time></trkpt><trkpt lat="44.5215739" lon="8.4677289"><ele>306.0</ele><time>2026-04-04T10:37:23.969Z</time></trkpt><trkpt lat="44.5216453" lon="8.4678993"><ele>304.0</ele><time>2026-04-04T10:37:24.969Z</time></trkpt><trkpt lat="44.5217457" lon="8.4680611"><ele>302.0</ele><time>2026-04-04T10:37:25.969Z</time></trkpt><trkpt lat="44.5218498" lon="8.4682253"><ele>300.0</ele><time>2026-04-04T10:37:26.969Z</time></trkpt><trkpt lat="44.5219351" lon="8.4683858"><ele>300.0</ele><time>2026-04-04T10:37:27.969Z</time></trkpt><trkpt lat="44.5219875" lon="8.4685517"><ele>300.0</ele><time>2026-04-04T10:37:28.968Z</time></trkpt><trkpt lat="44.5220027" lon="8.4687174"><ele>300.0</ele><time>2026-04-04T10:37:29.969Z</time></trkpt><trkpt lat="44.5219918" lon="8.4688576"><ele>300.0</ele><time>2026-04-04T10:37:30.969Z</time></trkpt><trkpt lat="44.52198" lon="8.4689812"><ele>300.0</ele><time>2026-04-04T10:37:31.969Z</time></trkpt><trkpt lat="44.5219754" lon="8.4690715"><ele>298.8333333333333</ele><time>2026-04-04T10:37:32.969Z</time></trkpt><trkpt lat="44.5219511" lon="8.4692089"><ele>297.6666666666667</ele><time>2026-04-04T10:37:34.969Z</time></trkpt><trkpt lat="44.5219185" lon="8.4692874"><ele>296.5</ele><time>2026-04-04T10:37:35.969Z</time></trkpt><trkpt lat="44.5218739" lon="8.4693737"><ele>295.33333333333337</ele><time>2026-04-04T10:37:36.969Z</time></trkpt><trkpt lat="44.5218147" lon="8.4694676"><ele>294.1666666666667</ele><time>2026-04-04T10:37:37.969Z</time></trkpt><trkpt lat="44.5217474" lon="8.4695704"><ele>293.0</ele><time>2026-04-04T10:37:38.969Z</time></trkpt><trkpt lat="44.5216725" lon="8.4696887"><ele>292.5</ele><time>2026-04-04T10:37:39.969Z</time></trkpt><trkpt lat="44.5215939" lon="8.4698247"><ele>292.0</ele><time>2026-04-04T10:37:40.968Z</time></trkpt><trkpt lat="44.5215044" lon="8.4699778"><ele>291.5</ele><time>2026-04-04T10:37:41.969Z</time></trkpt><trkpt lat="44.5213982" lon="8.4701307"><ele>291.0</ele><time>2026-04-04T10:37:42.969Z</time></trkpt><trkpt lat="44.5212742" lon="8.4702786"><ele>292.0</ele><time>2026-04-04T10:37:43.968Z</time></trkpt><trkpt lat="44.5211361" lon="8.4704242"><ele>293.0</ele><time>2026-04-04T10:37:44.968Z</time></trkpt><trkpt lat="44.520988" lon="8.4705709"><ele>294.0</ele><time>2026-04-04T10:37:45.969Z</time></trkpt><trkpt lat="44.5208416" lon="8.470727"><ele>296.0</ele><time>2026-04-04T10:37:46.969Z</time></trkpt><trkpt lat="44.5206979" lon="8.4708914"><ele>298.0</ele><time>2026-04-04T10:37:47.969Z</time></trkpt><trkpt lat="44.5205575" lon="8.4710519"><ele>300.0</ele><time>2026-04-04T10:37:48.969Z</time></trkpt><trkpt lat="44.5204164" lon="8.4712"><ele>303.6666666666667</ele><time>2026-04-04T10:37:49.968Z</time></trkpt><trkpt lat="44.5202691" lon="8.47131"><ele>307.33333333333337</ele><time>2026-04-04T10:37:50.969Z</time></trkpt><trkpt lat="44.5201018" lon="8.4713969"><ele>311.0</ele><time>2026-04-04T10:37:51.968Z</time></trkpt><trkpt lat="44.5199407" lon="8.4714714"><ele>311.0</ele><time>2026-04-04T10:37:52.968Z</time></trkpt><trkpt lat="44.5197888" lon="8.4715552"><ele>311.0</ele><time>2026-04-04T10:37:53.969Z</time></trkpt><trkpt lat="44.5196508" lon="8.4716466"><ele>311.0</ele><time>2026-04-04T10:37:54.969Z</time></trkpt><trkpt lat="44.519538" lon="8.4717688"><ele>317.6666666666667</ele><time>2026-04-04T10:37:55.969Z</time></trkpt><trkpt lat="44.519445" lon="8.4719369"><ele>324.3333333333333</ele><time>2026-04-04T10:37:56.969Z</time></trkpt><trkpt lat="44.5193919" lon="8.4721477"><ele>331.0</ele><time>2026-04-04T10:37:57.969Z</time></trkpt><trkpt lat="44.519381" lon="8.4723744"><ele>331.0</ele><time>2026-04-04T10:37:58.969Z</time></trkpt><trkpt lat="44.5194204" lon="8.4725978"><ele>331.0</ele><time>2026-04-04T10:37:59.968Z</time></trkpt><trkpt lat="44.5194594" lon="8.4728125"><ele>331.0</ele><time>2026-04-04T10:38:00.969Z</time></trkpt><trkpt lat="44.5194631" lon="8.4730203"><ele>327.0</ele><time>2026-04-04T10:38:01.969Z</time></trkpt><trkpt lat="44.5194209" lon="8.4732215"><ele>323.0</ele><time>2026-04-04T10:38:02.969Z</time></trkpt><trkpt lat="44.5193366" lon="8.4734045"><ele>319.0</ele><time>2026-04-04T10:38:03.969Z</time></trkpt><trkpt lat="44.5192136" lon="8.4735556"><ele>319.0</ele><time>2026-04-04T10:38:04.969Z</time></trkpt><trkpt lat="44.5190642" lon="8.4736499"><ele>319.0</ele><time>2026-04-04T10:38:05.969Z</time></trkpt><trkpt lat="44.5188895" lon="8.4737183"><ele>319.0</ele><time>2026-04-04T10:38:06.969Z</time></trkpt><trkpt lat="44.5187043" lon="8.4737855"><ele>319.0</ele><time>2026-04-04T10:38:07.969Z</time></trkpt><trkpt lat="44.5185129" lon="8.4738545"><ele>319.0</ele><time>2026-04-04T10:38:08.969Z</time></trkpt><trkpt lat="44.5183254" lon="8.4739264"><ele>319.0</ele><time>2026-04-04T10:38:09.969Z</time></trkpt><trkpt lat="44.5181401" lon="8.4740067"><ele>319.0</ele><time>2026-04-04T10:38:10.969Z</time></trkpt><trkpt lat="44.5179476" lon="8.4740773"><ele>319.0</ele><time>2026-04-04T10:38:11.968Z</time></trkpt><trkpt lat="44.5177623" lon="8.474144"><ele>319.0</ele><time>2026-04-04T10:38:12.969Z</time></trkpt><trkpt lat="44.5175829" lon="8.4742006"><ele>319.0</ele><time>2026-04-04T10:38:13.968Z</time></trkpt><trkpt lat="44.5174134" lon="8.4742254"><ele>319.0</ele><time>2026-04-04T10:38:14.969Z</time></trkpt><trkpt lat="44.5172442" lon="8.474195"><ele>319.0</ele><time>2026-04-04T10:38:15.969Z</time></trkpt><trkpt lat="44.517074" lon="8.4741202"><ele>318.3333333333333</ele><time>2026-04-04T10:38:16.969Z</time></trkpt><trkpt lat="44.5169116" lon="8.474007"><ele>317.6666666666667</ele><time>2026-04-04T10:38:17.968Z</time></trkpt><trkpt lat="44.5167648" lon="8.473901"><ele>317.0</ele><time>2026-04-04T10:38:18.969Z</time></trkpt><trkpt lat="44.5166414" lon="8.4738034"><ele>319.0</ele><time>2026-04-04T10:38:19.969Z</time></trkpt><trkpt lat="44.516535" lon="8.4736837"><ele>321.0</ele><time>2026-04-04T10:38:20.969Z</time></trkpt><trkpt lat="44.5164412" lon="8.4735412"><ele>323.0</ele><time>2026-04-04T10:38:21.969Z</time></trkpt><trkpt lat="44.5163558" lon="8.4733793"><ele>325.0</ele><time>2026-04-04T10:38:22.968Z</time></trkpt><trkpt lat="44.5162796" lon="8.4731965"><ele>325.0</ele><time>2026-04-04T10:38:23.968Z</time></trkpt><trkpt lat="44.5162094" lon="8.4730033"><ele>325.0</ele><time>2026-04-04T10:38:24.968Z</time></trkpt><trkpt lat="44.5161266" lon="8.4728727"><ele>325.0</ele><time>2026-04-04T10:38:25.969Z</time></trkpt><trkpt lat="44.5159978" lon="8.4727528"><ele>325.0</ele><time>2026-04-04T10:38:26.969Z</time></trkpt><trkpt lat="44.5158574" lon="8.4726662"><ele>325.0</ele><time>2026-04-04T10:38:27.969Z</time></trkpt><trkpt lat="44.5157045" lon="8.4726197"><ele>325.0</ele><time>2026-04-04T10:38:28.969Z</time></trkpt><trkpt lat="44.5155448" lon="8.4726176"><ele>325.0</ele><time>2026-04-04T10:38:29.968Z</time></trkpt><trkpt lat="44.515381" lon="8.4726773"><ele>327.0</ele><time>2026-04-04T10:38:30.968Z</time></trkpt><trkpt lat="44.5152113" lon="8.472757"><ele>329.0</ele><time>2026-04-04T10:38:31.968Z</time></trkpt><trkpt lat="44.5150555" lon="8.4728119"><ele>331.0</ele><time>2026-04-04T10:38:32.969Z</time></trkpt><trkpt lat="44.5149054" lon="8.4728624"><ele>331.0</ele><time>2026-04-04T10:38:33.969Z</time></trkpt><trkpt lat="44.5147595" lon="8.4729079"><ele>331.0</ele><time>2026-04-04T10:38:34.969Z</time></trkpt><trkpt lat="44.5146198" lon="8.4729581"><ele>331.0</ele><time>2026-04-04T10:38:35.969Z</time></trkpt><trkpt lat="44.5144802" lon="8.4729978"><ele>331.0</ele><time>2026-04-04T10:38:36.969Z</time></trkpt><trkpt lat="44.5143495" lon="8.47304"><ele>328.25</ele><time>2026-04-04T10:38:37.968Z</time></trkpt><trkpt lat="44.5142137" lon="8.4730804"><ele>325.5</ele><time>2026-04-04T10:38:38.968Z</time></trkpt><trkpt lat="44.5140805" lon="8.4731455"><ele>322.75</ele><time>2026-04-04T10:38:39.969Z</time></trkpt><trkpt lat="44.5139514" lon="8.4732009"><ele>320.0</ele><time>2026-04-04T10:38:40.969Z</time></trkpt><trkpt lat="44.5138164" lon="8.4732489"><ele>319.5</ele><time>2026-04-04T10:38:41.969Z</time></trkpt><trkpt lat="44.5136783" lon="8.4732934"><ele>319.0</ele><time>2026-04-04T10:38:42.969Z</time></trkpt><trkpt lat="44.5135482" lon="8.4733371"><ele>318.5</ele><time>2026-04-04T10:38:43.969Z</time></trkpt><trkpt lat="44.5134261" lon="8.4733756"><ele>318.0</ele><time>2026-04-04T10:38:44.969Z</time></trkpt><trkpt lat="44.5133035" lon="8.473422"><ele>318.0</ele><time>2026-04-04T10:38:45.969Z</time></trkpt><trkpt lat="44.5131795" lon="8.4734662"><ele>318.0</ele><time>2026-04-04T10:38:46.969Z</time></trkpt><trkpt lat="44.5130537" lon="8.4735099"><ele>318.0</ele><time>2026-04-04T10:38:47.969Z</time></trkpt><trkpt lat="44.5129346" lon="8.4735504"><ele>318.0</ele><time>2026-04-04T10:38:48.969Z</time></trkpt><trkpt lat="44.5128093" lon="8.4735987"><ele>318.5</ele><time>2026-04-04T10:38:49.969Z</time></trkpt><trkpt lat="44.5126768" lon="8.4736558"><ele>319.0</ele><time>2026-04-04T10:38:50.969Z</time></trkpt><trkpt lat="44.5125401" lon="8.4737027"><ele>319.5</ele><time>2026-04-04T10:38:51.969Z</time></trkpt><trkpt lat="44.5124038" lon="8.473755"><ele>320.0</ele><time>2026-04-04T10:38:52.968Z</time></trkpt><trkpt lat="44.5122588" lon="8.4738048"><ele>320.0</ele><time>2026-04-04T10:38:53.968Z</time></trkpt><trkpt lat="44.5121182" lon="8.473855"><ele>320.0</ele><time>2026-04-04T10:38:54.969Z</time></trkpt><trkpt lat="44.5119666" lon="8.4739067"><ele>320.0</ele><time>2026-04-04T10:38:55.969Z</time></trkpt><trkpt lat="44.5118026" lon="8.4739658"><ele>320.6666666666667</ele><time>2026-04-04T10:38:56.968Z</time></trkpt><trkpt lat="44.5116335" lon="8.4740312"><ele>321.3333333333333</ele><time>2026-04-04T10:38:57.969Z</time></trkpt><trkpt lat="44.5114611" lon="8.4741037"><ele>322.0</ele><time>2026-04-04T10:38:58.969Z</time></trkpt><trkpt lat="44.51129" lon="8.4741952"><ele>321.66666666666663</ele><time>2026-04-04T10:38:59.969Z</time></trkpt><trkpt lat="44.5111285" lon="8.4743065"><ele>321.3333333333333</ele><time>2026-04-04T10:39:00.969Z</time></trkpt><trkpt lat="44.5109677" lon="8.4744502"><ele>321.0</ele><time>2026-04-04T10:39:01.968Z</time></trkpt><trkpt lat="44.5108005" lon="8.4746198"><ele>321.0</ele><time>2026-04-04T10:39:02.969Z</time></trkpt><trkpt lat="44.5106469" lon="8.474814"><ele>321.0</ele><time>2026-04-04T10:39:03.969Z</time></trkpt><trkpt lat="44.5105077" lon="8.4750267"><ele>321.0</ele><time>2026-04-04T10:39:04.969Z</time></trkpt><trkpt lat="44.5104017" lon="8.4752589"><ele>322.0</ele><time>2026-04-04T10:39:05.969Z</time></trkpt><trkpt lat="44.5103179" lon="8.4755184"><ele>323.0</ele><time>2026-04-04T10:39:06.968Z</time></trkpt><trkpt lat="44.5102429" lon="8.4758067"><ele>324.0</ele><time>2026-04-04T10:39:07.969Z</time></trkpt><trkpt lat="44.5101739" lon="8.4760989"><ele>323.6666666666667</ele><time>2026-04-04T10:39:08.969Z</time></trkpt><trkpt lat="44.510108" lon="8.4763805"><ele>323.33333333333337</ele><time>2026-04-04T10:39:09.969Z</time></trkpt><trkpt lat="44.5100427" lon="8.4766595"><ele>323.0</ele><time>2026-04-04T10:39:10.969Z</time></trkpt><trkpt lat="44.5099747" lon="8.4769415"><ele>322.6666666666667</ele><time>2026-04-04T10:39:11.969Z</time></trkpt><trkpt lat="44.5099037" lon="8.4772291"><ele>322.3333333333333</ele><time>2026-04-04T10:39:12.969Z</time></trkpt><trkpt lat="44.5098275" lon="8.4775279"><ele>322.0</ele><time>2026-04-04T10:39:13.968Z</time></trkpt><trkpt lat="44.5097622" lon="8.4778235"><ele>322.5</ele><time>2026-04-04T10:39:14.969Z</time></trkpt><trkpt lat="44.5096967" lon="8.4781243"><ele>323.0</ele><time>2026-04-04T10:39:15.969Z</time></trkpt><trkpt lat="44.509632" lon="8.478436"><ele>329.0</ele><time>2026-04-04T10:39:16.968Z</time></trkpt><trkpt lat="44.5095737" lon="8.4787473"><ele>335.0</ele><time>2026-04-04T10:39:17.969Z</time></trkpt><trkpt lat="44.5095221" lon="8.479034"><ele>341.0</ele><time>2026-04-04T10:39:18.969Z</time></trkpt><trkpt lat="44.509472" lon="8.4793083"><ele>341.0</ele><time>2026-04-04T10:39:19.969Z</time></trkpt><trkpt lat="44.5094286" lon="8.4795751"><ele>341.0</ele><time>2026-04-04T10:39:20.968Z</time></trkpt><trkpt lat="44.50938" lon="8.479834"><ele>341.0</ele><time>2026-04-04T10:39:21.969Z</time></trkpt><trkpt lat="44.5093382" lon="8.4800892"><ele>341.0</ele><time>2026-04-04T10:39:22.968Z</time></trkpt><trkpt lat="44.5092969" lon="8.4803402"><ele>341.0</ele><time>2026-04-04T10:39:23.969Z</time></trkpt><trkpt lat="44.5092516" lon="8.4805867"><ele>341.0</ele><time>2026-04-04T10:39:24.969Z</time></trkpt><trkpt lat="44.5091849" lon="8.480826"><ele>338.6666666666667</ele><time>2026-04-04T10:39:25.969Z</time></trkpt><trkpt lat="44.5090715" lon="8.481046"><ele>336.3333333333333</ele><time>2026-04-04T10:39:26.968Z</time></trkpt><trkpt lat="44.5089624" lon="8.4812634"><ele>334.0</ele><time>2026-04-04T10:39:27.968Z</time></trkpt><trkpt lat="44.5088343" lon="8.4814548"><ele>336.3333333333333</ele><time>2026-04-04T10:39:28.968Z</time></trkpt><trkpt lat="44.5087033" lon="8.4816231"><ele>338.6666666666667</ele><time>2026-04-04T10:39:29.968Z</time></trkpt><trkpt lat="44.508559" lon="8.4817634"><ele>341.0</ele><time>2026-04-04T10:39:30.967Z</time></trkpt><trkpt lat="44.5084078" lon="8.4818523"><ele>341.0</ele><time>2026-04-04T10:39:31.968Z</time></trkpt><trkpt lat="44.508257" lon="8.4819549"><ele>341.0</ele><time>2026-04-04T10:39:32.968Z</time></trkpt><trkpt lat="44.5081158" lon="8.4820715"><ele>341.0</ele><time>2026-04-04T10:39:33.968Z</time></trkpt><trkpt lat="44.5079938" lon="8.4822014"><ele>340.75</ele><time>2026-04-04T10:39:34.968Z</time></trkpt><trkpt lat="44.5078819" lon="8.4823279"><ele>340.5</ele><time>2026-04-04T10:39:35.968Z</time></trkpt><trkpt lat="44.5077873" lon="8.4824318"><ele>340.25</ele><time>2026-04-04T10:39:36.967Z</time></trkpt><trkpt lat="44.5076658" lon="8.482513"><ele>340.0</ele><time>2026-04-04T10:39:37.968Z</time></trkpt><trkpt lat="44.5075472" lon="8.4825565"><ele>340.0</ele><time>2026-04-04T10:39:38.968Z</time></trkpt><trkpt lat="44.5074218" lon="8.4825323"><ele>340.0</ele><time>2026-04-04T10:39:39.968Z</time></trkpt><trkpt lat="44.5072755" lon="8.4824852"><ele>340.0</ele><time>2026-04-04T10:39:40.968Z</time></trkpt><trkpt lat="44.5071323" lon="8.4824249"><ele>340.0</ele><time>2026-04-04T10:39:41.968Z</time></trkpt><trkpt lat="44.5069956" lon="8.4823547"><ele>339.25</ele><time>2026-04-04T10:39:42.968Z</time></trkpt><trkpt lat="44.5068793" lon="8.4822718"><ele>338.5</ele><time>2026-04-04T10:39:43.968Z</time></trkpt><trkpt lat="44.5067698" lon="8.4822119"><ele>337.75</ele><time>2026-04-04T10:39:44.968Z</time></trkpt><trkpt lat="44.5066644" lon="8.4821839"><ele>337.0</ele><time>2026-04-04T10:39:45.968Z</time></trkpt><trkpt lat="44.5065678" lon="8.4822072"><ele>337.0</ele><time>2026-04-04T10:39:46.968Z</time></trkpt><trkpt lat="44.5064767" lon="8.4822965"><ele>337.0</ele><time>2026-04-04T10:39:47.968Z</time></trkpt><trkpt lat="44.5063959" lon="8.4824187"><ele>337.0</ele><time>2026-04-04T10:39:48.968Z</time></trkpt><trkpt lat="44.5063124" lon="8.48256"><ele>337.0</ele><time>2026-04-04T10:39:49.968Z</time></trkpt><trkpt lat="44.5062224" lon="8.4826962"><ele>337.5</ele><time>2026-04-04T10:39:50.968Z</time></trkpt><trkpt lat="44.506107" lon="8.4827982"><ele>338.0</ele><time>2026-04-04T10:39:51.967Z</time></trkpt><trkpt lat="44.505977" lon="8.4828508"><ele>338.5</ele><time>2026-04-04T10:39:52.968Z</time></trkpt><trkpt lat="44.5058194" lon="8.4828549"><ele>339.0</ele><time>2026-04-04T10:39:53.968Z</time></trkpt><trkpt lat="44.5056539" lon="8.482857"><ele>339.0</ele><time>2026-04-04T10:39:54.967Z</time></trkpt><trkpt lat="44.5054808" lon="8.4829015"><ele>339.0</ele><time>2026-04-04T10:39:55.967Z</time></trkpt><trkpt lat="44.5053185" lon="8.4829642"><ele>339.0</ele><time>2026-04-04T10:39:56.967Z</time></trkpt><trkpt lat="44.5051545" lon="8.4830312"><ele>339.3333333333333</ele><time>2026-04-04T10:39:57.968Z</time></trkpt><trkpt lat="44.5049916" lon="8.4831147"><ele>339.66666666666663</ele><time>2026-04-04T10:39:58.968Z</time></trkpt><trkpt lat="44.5048395" lon="8.4831938"><ele>340.0</ele><time>2026-04-04T10:39:59.968Z</time></trkpt><trkpt lat="44.5046991" lon="8.4832508"><ele>339.0</ele><time>2026-04-04T10:40:00.967Z</time></trkpt><trkpt lat="44.5045784" lon="8.4832991"><ele>338.0</ele><time>2026-04-04T10:40:01.967Z</time></trkpt><trkpt lat="44.5044681" lon="8.4833428"><ele>337.0</ele><time>2026-04-04T10:40:02.967Z</time></trkpt><trkpt lat="44.5043678" lon="8.4833955"><ele>336.0</ele><time>2026-04-04T10:40:03.968Z</time></trkpt><trkpt lat="44.5042713" lon="8.4834534"><ele>336.0</ele><time>2026-04-04T10:40:04.968Z</time></trkpt><trkpt lat="44.504173" lon="8.4835104"><ele>336.0</ele><time>2026-04-04T10:40:05.968Z</time></trkpt><trkpt lat="44.5040672" lon="8.4835712"><ele>336.0</ele><time>2026-04-04T10:40:06.967Z</time></trkpt><trkpt lat="44.5039548" lon="8.4836289"><ele>336.0</ele><time>2026-04-04T10:40:07.968Z</time></trkpt><trkpt lat="44.503843" lon="8.4836815"><ele>335.75</ele><time>2026-04-04T10:40:08.967Z</time></trkpt><trkpt lat="44.503733" lon="8.4837284"><ele>335.5</ele><time>2026-04-04T10:40:09.968Z</time></trkpt><trkpt lat="44.5036172" lon="8.4837781"><ele>335.25</ele><time>2026-04-04T10:40:10.967Z</time></trkpt><trkpt lat="44.5035018" lon="8.4838303"><ele>335.0</ele><time>2026-04-04T10:40:11.967Z</time></trkpt><trkpt lat="44.5033944" lon="8.4838847"><ele>335.0</ele><time>2026-04-04T10:40:12.967Z</time></trkpt><trkpt lat="44.5032923" lon="8.4839368"><ele>335.0</ele><time>2026-04-04T10:40:13.967Z</time></trkpt><trkpt lat="44.5031887" lon="8.4839918"><ele>335.0</ele><time>2026-04-04T10:40:14.968Z</time></trkpt><trkpt lat="44.5030763" lon="8.4840438"><ele>335.0</ele><time>2026-04-04T10:40:15.968Z</time></trkpt><trkpt lat="44.5029647" lon="8.4840935"><ele>335.25</ele><time>2026-04-04T10:40:16.968Z</time></trkpt><trkpt lat="44.5028572" lon="8.4841536"><ele>335.5</ele><time>2026-04-04T10:40:17.968Z</time></trkpt><trkpt lat="44.5027527" lon="8.4842226"><ele>335.75</ele><time>2026-04-04T10:40:18.968Z</time></trkpt><trkpt lat="44.5026449" lon="8.4842894"><ele>336.0</ele><time>2026-04-04T10:40:19.968Z</time></trkpt><trkpt lat="44.5025258" lon="8.4843453"><ele>336.0</ele><time>2026-04-04T10:40:20.968Z</time></trkpt><trkpt lat="44.5023967" lon="8.4844012"><ele>336.0</ele><time>2026-04-04T10:40:21.968Z</time></trkpt><trkpt lat="44.5022658" lon="8.4844585"><ele>336.0</ele><time>2026-04-04T10:40:22.968Z</time></trkpt><trkpt lat="44.5021267" lon="8.4845285"><ele>336.0</ele><time>2026-04-04T10:40:23.967Z</time></trkpt><trkpt lat="44.5019813" lon="8.4846036"><ele>337.5</ele><time>2026-04-04T10:40:24.968Z</time></trkpt><trkpt lat="44.5018422" lon="8.4846697"><ele>339.0</ele><time>2026-04-04T10:40:25.967Z</time></trkpt><trkpt lat="44.5017124" lon="8.4847241"><ele>340.5</ele><time>2026-04-04T10:40:26.967Z</time></trkpt><trkpt lat="44.5015929" lon="8.4847699"><ele>342.0</ele><time>2026-04-04T10:40:27.968Z</time></trkpt><trkpt lat="44.501481" lon="8.4848221"><ele>342.0</ele><time>2026-04-04T10:40:28.968Z</time></trkpt><trkpt lat="44.5013861" lon="8.4848885"><ele>342.0</ele><time>2026-04-04T10:40:29.968Z</time></trkpt><trkpt lat="44.5012907" lon="8.485002"><ele>342.0</ele><time>2026-04-04T10:40:30.968Z</time></trkpt><trkpt lat="44.5012004" lon="8.4851582"><ele>342.0</ele><time>2026-04-04T10:40:31.968Z</time></trkpt><trkpt lat="44.5011399" lon="8.4853503"><ele>342.25</ele><time>2026-04-04T10:40:32.968Z</time></trkpt><trkpt lat="44.501094" lon="8.4855443"><ele>342.5</ele><time>2026-04-04T10:40:33.967Z</time></trkpt><trkpt lat="44.5010558" lon="8.4857256"><ele>342.75</ele><time>2026-04-04T10:40:34.968Z</time></trkpt><trkpt lat="44.5010195" lon="8.4859018"><ele>343.0</ele><time>2026-04-04T10:40:35.968Z</time></trkpt><trkpt lat="44.5009879" lon="8.486074"><ele>343.0</ele><time>2026-04-04T10:40:36.968Z</time></trkpt><trkpt lat="44.50095" lon="8.4862452"><ele>343.0</ele><time>2026-04-04T10:40:37.968Z</time></trkpt><trkpt lat="44.5009083" lon="8.4864124"><ele>343.0</ele><time>2026-04-04T10:40:38.967Z</time></trkpt><trkpt lat="44.5008591" lon="8.4865872"><ele>343.0</ele><time>2026-04-04T10:40:39.968Z</time></trkpt><trkpt lat="44.5008092" lon="8.4867638"><ele>344.0</ele><time>2026-04-04T10:40:40.968Z</time></trkpt><trkpt lat="44.5007569" lon="8.4869338"><ele>345.0</ele><time>2026-04-04T10:40:41.968Z</time></trkpt><trkpt lat="44.5007056" lon="8.4871104"><ele>346.0</ele><time>2026-04-04T10:40:42.968Z</time></trkpt><trkpt lat="44.5006632" lon="8.4872792"><ele>347.0</ele><time>2026-04-04T10:40:43.968Z</time></trkpt><trkpt lat="44.5006219" lon="8.4874467"><ele>347.25</ele><time>2026-04-04T10:40:44.968Z</time></trkpt><trkpt lat="44.5005805" lon="8.4876172"><ele>347.5</ele><time>2026-04-04T10:40:45.967Z</time></trkpt><trkpt lat="44.5005364" lon="8.4877932"><ele>347.75</ele><time>2026-04-04T10:40:46.968Z</time></trkpt><trkpt lat="44.5004889" lon="8.4879727"><ele>348.0</ele><time>2026-04-04T10:40:47.968Z</time></trkpt><trkpt lat="44.5004401" lon="8.4881476"><ele>347.25</ele><time>2026-04-04T10:40:48.968Z</time></trkpt><trkpt lat="44.5003924" lon="8.4883232"><ele>346.5</ele><time>2026-04-04T10:40:49.968Z</time></trkpt><trkpt lat="44.5003355" lon="8.4885083"><ele>345.75</ele><time>2026-04-04T10:40:50.967Z</time></trkpt><trkpt lat="44.5002879" lon="8.4887041"><ele>345.0</ele><time>2026-04-04T10:40:51.968Z</time></trkpt><trkpt lat="44.5002411" lon="8.4889051"><ele>345.0</ele><time>2026-04-04T10:40:52.968Z</time></trkpt><trkpt lat="44.5001943" lon="8.4891"><ele>345.0</ele><time>2026-04-04T10:40:53.968Z</time></trkpt><trkpt lat="44.5001437" lon="8.4892904"><ele>345.0</ele><time>2026-04-04T10:40:54.968Z</time></trkpt><trkpt lat="44.5000851" lon="8.4894818"><ele>345.0</ele><time>2026-04-04T10:40:55.968Z</time></trkpt><trkpt lat="44.5000242" lon="8.4896747"><ele>344.6666666666667</ele><time>2026-04-04T10:40:56.968Z</time></trkpt><trkpt lat="44.4999798" lon="8.489879"><ele>344.33333333333337</ele><time>2026-04-04T10:40:57.968Z</time></trkpt><trkpt lat="44.4999301" lon="8.4900797"><ele>344.0</ele><time>2026-04-04T10:40:58.968Z</time></trkpt><trkpt lat="44.4998784" lon="8.4902802"><ele>344.0</ele><time>2026-04-04T10:40:59.967Z</time></trkpt><trkpt lat="44.4998249" lon="8.4904804"><ele>344.0</ele><time>2026-04-04T10:41:00.968Z</time></trkpt><trkpt lat="44.4997682" lon="8.4906755"><ele>344.0</ele><time>2026-04-04T10:41:01.967Z</time></trkpt><trkpt lat="44.4997069" lon="8.4908606"><ele>344.0</ele><time>2026-04-04T10:41:02.967Z</time></trkpt><trkpt lat="44.4996393" lon="8.4910426"><ele>344.25</ele><time>2026-04-04T10:41:03.968Z</time></trkpt><trkpt lat="44.4995682" lon="8.4912216"><ele>344.5</ele><time>2026-04-04T10:41:04.967Z</time></trkpt><trkpt lat="44.4994902" lon="8.4913957"><ele>344.75</ele><time>2026-04-04T10:41:05.968Z</time></trkpt><trkpt lat="44.4994189" lon="8.4915681"><ele>345.0</ele><time>2026-04-04T10:41:06.968Z</time></trkpt><trkpt lat="44.4993499" lon="8.4917391"><ele>345.0</ele><time>2026-04-04T10:41:07.968Z</time></trkpt><trkpt lat="44.4992833" lon="8.4919031"><ele>345.0</ele><time>2026-04-04T10:41:08.968Z</time></trkpt><trkpt lat="44.4992186" lon="8.4920589"><ele>345.0</ele><time>2026-04-04T10:41:09.968Z</time></trkpt><trkpt lat="44.4991639" lon="8.4922181"><ele>345.0</ele><time>2026-04-04T10:41:10.967Z</time></trkpt><trkpt lat="44.4991032" lon="8.4923715"><ele>345.5</ele><time>2026-04-04T10:41:11.968Z</time></trkpt><trkpt lat="44.4990403" lon="8.4925213"><ele>346.0</ele><time>2026-04-04T10:41:12.968Z</time></trkpt><trkpt lat="44.4989751" lon="8.4926676"><ele>346.5</ele><time>2026-04-04T10:41:13.967Z</time></trkpt><trkpt lat="44.4989119" lon="8.4928185"><ele>347.0</ele><time>2026-04-04T10:41:14.968Z</time></trkpt><trkpt lat="44.4988353" lon="8.4929735"><ele>347.75</ele><time>2026-04-04T10:41:15.968Z</time></trkpt><trkpt lat="44.4987626" lon="8.4931285"><ele>348.5</ele><time>2026-04-04T10:41:16.968Z</time></trkpt><trkpt lat="44.4986985" lon="8.4932756"><ele>349.25</ele><time>2026-04-04T10:41:17.968Z</time></trkpt><trkpt lat="44.4986313" lon="8.493423"><ele>350.0</ele><time>2026-04-04T10:41:18.968Z</time></trkpt><trkpt lat="44.498572" lon="8.493576"><ele>350.0</ele><time>2026-04-04T10:41:19.968Z</time></trkpt><trkpt lat="44.4985115" lon="8.4937257"><ele>350.0</ele><time>2026-04-04T10:41:20.968Z</time></trkpt><trkpt lat="44.4984489" lon="8.4938858"><ele>350.0</ele><time>2026-04-04T10:41:21.968Z</time></trkpt><trkpt lat="44.4983843" lon="8.4940442"><ele>350.0</ele><time>2026-04-04T10:41:22.967Z</time></trkpt><trkpt lat="44.4983229" lon="8.4942078"><ele>350.5</ele><time>2026-04-04T10:41:23.968Z</time></trkpt><trkpt lat="44.4982626" lon="8.4943678"><ele>351.0</ele><time>2026-04-04T10:41:24.968Z</time></trkpt><trkpt lat="44.4982024" lon="8.4945282"><ele>351.5</ele><time>2026-04-04T10:41:25.968Z</time></trkpt><trkpt lat="44.4981323" lon="8.4947"><ele>352.0</ele><time>2026-04-04T10:41:26.968Z</time></trkpt><trkpt lat="44.4980615" lon="8.4948806"><ele>351.66666666666663</ele><time>2026-04-04T10:41:27.968Z</time></trkpt><trkpt lat="44.4979892" lon="8.4950652"><ele>351.3333333333333</ele><time>2026-04-04T10:41:28.968Z</time></trkpt><trkpt lat="44.4979107" lon="8.4952536"><ele>351.0</ele><time>2026-04-04T10:41:29.968Z</time></trkpt><trkpt lat="44.4978369" lon="8.495453"><ele>351.0</ele><time>2026-04-04T10:41:30.968Z</time></trkpt><trkpt lat="44.4977631" lon="8.495658"><ele>351.0</ele><time>2026-04-04T10:41:31.968Z</time></trkpt><trkpt lat="44.4976809" lon="8.4958399"><ele>351.0</ele><time>2026-04-04T10:41:32.968Z</time></trkpt><trkpt lat="44.4975677" lon="8.495978"><ele>351.0</ele><time>2026-04-04T10:41:33.968Z</time></trkpt><trkpt lat="44.4974247" lon="8.4960801"><ele>351.0</ele><time>2026-04-04T10:41:34.968Z</time></trkpt><trkpt lat="44.4972521" lon="8.4961182"><ele>351.0</ele><time>2026-04-04T10:41:35.968Z</time></trkpt><trkpt lat="44.4970696" lon="8.4961357"><ele>351.6666666666667</ele><time>2026-04-04T10:41:36.968Z</time></trkpt><trkpt lat="44.4968785" lon="8.4961619"><ele>352.33333333333337</ele><time>2026-04-04T10:41:37.967Z</time></trkpt><trkpt lat="44.4966902" lon="8.4961919"><ele>353.0</ele><time>2026-04-04T10:41:38.967Z</time></trkpt><trkpt lat="44.4964962" lon="8.4962272"><ele>353.0</ele><time>2026-04-04T10:41:39.967Z</time></trkpt><trkpt lat="44.4962973" lon="8.4962536"><ele>353.0</ele><time>2026-04-04T10:41:40.967Z</time></trkpt><trkpt lat="44.4960939" lon="8.4962836"><ele>353.0</ele><time>2026-04-04T10:41:41.968Z</time></trkpt><trkpt lat="44.4958955" lon="8.4962969"><ele>354.6666666666667</ele><time>2026-04-04T10:41:42.968Z</time></trkpt><trkpt lat="44.4956915" lon="8.4962991"><ele>356.3333333333333</ele><time>2026-04-04T10:41:43.967Z</time></trkpt><trkpt lat="44.4954935" lon="8.4962978"><ele>358.0</ele><time>2026-04-04T10:41:44.968Z</time></trkpt><trkpt lat="44.4953051" lon="8.4963016"><ele>361.3333333333333</ele><time>2026-04-04T10:41:45.967Z</time></trkpt><trkpt lat="44.4951211" lon="8.4963038"><ele>364.6666666666667</ele><time>2026-04-04T10:41:46.967Z</time></trkpt><trkpt lat="44.4949461" lon="8.4963033"><ele>368.0</ele><time>2026-04-04T10:41:47.968Z</time></trkpt><trkpt lat="44.4947912" lon="8.4962948"><ele>368.0</ele><time>2026-04-04T10:41:48.968Z</time></trkpt><trkpt lat="44.4946532" lon="8.4963098"><ele>368.0</ele><time>2026-04-04T10:41:49.968Z</time></trkpt><trkpt lat="44.4945212" lon="8.4963389"><ele>368.0</ele><time>2026-04-04T10:41:50.967Z</time></trkpt><trkpt lat="44.4943963" lon="8.4964025"><ele>368.0</ele><time>2026-04-04T10:41:51.968Z</time></trkpt><trkpt lat="44.4942707" lon="8.4964816"><ele>367.75</ele><time>2026-04-04T10:41:52.968Z</time></trkpt><trkpt lat="44.494134" lon="8.4965478"><ele>367.5</ele><time>2026-04-04T10:41:53.967Z</time></trkpt><trkpt lat="44.4939941" lon="8.4966124"><ele>367.25</ele><time>2026-04-04T10:41:54.968Z</time></trkpt><trkpt lat="44.4938542" lon="8.4966943"><ele>367.0</ele><time>2026-04-04T10:41:55.967Z</time></trkpt><trkpt lat="44.493708" lon="8.4967898"><ele>367.0</ele><time>2026-04-04T10:41:56.967Z</time></trkpt><trkpt lat="44.4935506" lon="8.4968769"><ele>367.0</ele><time>2026-04-04T10:41:57.967Z</time></trkpt><trkpt lat="44.4933948" lon="8.4969266"><ele>367.0</ele><time>2026-04-04T10:41:58.967Z</time></trkpt><trkpt lat="44.4932372" lon="8.4969495"><ele>367.0</ele><time>2026-04-04T10:41:59.968Z</time></trkpt><trkpt lat="44.4930867" lon="8.4969434"><ele>367.0</ele><time>2026-04-04T10:42:00.967Z</time></trkpt><trkpt lat="44.4929388" lon="8.4969079"><ele>367.0</ele><time>2026-04-04T10:42:01.968Z</time></trkpt><trkpt lat="44.4928003" lon="8.4968398"><ele>367.0</ele><time>2026-04-04T10:42:02.968Z</time></trkpt><trkpt lat="44.492677" lon="8.4967454"><ele>368.6</ele><time>2026-04-04T10:42:03.968Z</time></trkpt><trkpt lat="44.4925758" lon="8.4966283"><ele>370.20000000000005</ele><time>2026-04-04T10:42:04.967Z</time></trkpt><trkpt lat="44.4924923" lon="8.4965296"><ele>371.8</ele><time>2026-04-04T10:42:05.968Z</time></trkpt><trkpt lat="44.4924036" lon="8.4964591"><ele>373.4</ele><time>2026-04-04T10:42:06.968Z</time></trkpt><trkpt lat="44.4923035" lon="8.4964381"><ele>375.0</ele><time>2026-04-04T10:42:07.968Z</time></trkpt><trkpt lat="44.4922067" lon="8.4964788"><ele>375.0</ele><time>2026-04-04T10:42:08.968Z</time></trkpt><trkpt lat="44.4921073" lon="8.4965875"><ele>375.0</ele><time>2026-04-04T10:42:09.968Z</time></trkpt><trkpt lat="44.4920105" lon="8.4967222"><ele>375.0</ele><time>2026-04-04T10:42:10.967Z</time></trkpt><trkpt lat="44.4919118" lon="8.4968599"><ele>375.0</ele><time>2026-04-04T10:42:11.968Z</time></trkpt><trkpt lat="44.4917952" lon="8.4969524"><ele>375.5</ele><time>2026-04-04T10:42:12.968Z</time></trkpt><trkpt lat="44.4916751" lon="8.4970146"><ele>376.0</ele><time>2026-04-04T10:42:13.967Z</time></trkpt><trkpt lat="44.4915608" lon="8.4970566"><ele>376.5</ele><time>2026-04-04T10:42:14.968Z</time></trkpt><trkpt lat="44.4914569" lon="8.4970691"><ele>377.0</ele><time>2026-04-04T10:42:15.968Z</time></trkpt><trkpt lat="44.4913594" lon="8.4970443"><ele>377.0</ele><time>2026-04-04T10:42:16.968Z</time></trkpt><trkpt lat="44.4912681" lon="8.4969761"><ele>377.0</ele><time>2026-04-04T10:42:17.968Z</time></trkpt><trkpt lat="44.4911903" lon="8.4968776"><ele>377.0</ele><time>2026-04-04T10:42:18.968Z</time></trkpt><trkpt lat="44.4911419" lon="8.4967594"><ele>377.0</ele><time>2026-04-04T10:42:19.968Z</time></trkpt><trkpt lat="44.4911046" lon="8.4966437"><ele>377.0</ele><time>2026-04-04T10:42:20.968Z</time></trkpt><trkpt lat="44.4910738" lon="8.4965273"><ele>376.6666666666667</ele><time>2026-04-04T10:42:21.968Z</time></trkpt><trkpt lat="44.491067" lon="8.4963948"><ele>376.33333333333337</ele><time>2026-04-04T10:42:22.968Z</time></trkpt><trkpt lat="44.4910259" lon="8.4962988"><ele>376.0</ele><time>2026-04-04T10:42:23.968Z</time></trkpt><trkpt lat="44.4909611" lon="8.4962533"><ele>375.6666666666667</ele><time>2026-04-04T10:42:24.967Z</time></trkpt><trkpt lat="44.4908921" lon="8.4962235"><ele>375.3333333333333</ele><time>2026-04-04T10:42:25.968Z</time></trkpt><trkpt lat="44.4908031" lon="8.496238"><ele>375.0</ele><time>2026-04-04T10:42:26.968Z</time></trkpt><trkpt lat="44.4907061" lon="8.4962884"><ele>377.5</ele><time>2026-04-04T10:42:27.967Z</time></trkpt><trkpt lat="44.4906221" lon="8.4963561"><ele>380.0</ele><time>2026-04-04T10:42:28.968Z</time></trkpt><trkpt lat="44.4905646" lon="8.4964795"><ele>382.5</ele><time>2026-04-04T10:42:29.968Z</time></trkpt><trkpt lat="44.4905235" lon="8.4966564"><ele>385.0</ele><time>2026-04-04T10:42:30.967Z</time></trkpt><trkpt lat="44.4904709" lon="8.4968319"><ele>384.5</ele><time>2026-04-04T10:42:31.967Z</time></trkpt><trkpt lat="44.4903952" lon="8.4969601"><ele>384.0</ele><time>2026-04-04T10:42:32.968Z</time></trkpt><trkpt lat="44.4902907" lon="8.4970511"><ele>383.5</ele><time>2026-04-04T10:42:33.968Z</time></trkpt><trkpt lat="44.4901844" lon="8.4970867"><ele>383.0</ele><time>2026-04-04T10:42:34.968Z</time></trkpt><trkpt lat="44.4900667" lon="8.4971104"><ele>385.75</ele><time>2026-04-04T10:42:35.968Z</time></trkpt><trkpt lat="44.489943" lon="8.4971704"><ele>388.5</ele><time>2026-04-04T10:42:36.968Z</time></trkpt><trkpt lat="44.4898324" lon="8.4972683"><ele>391.25</ele><time>2026-04-04T10:42:37.968Z</time></trkpt><trkpt lat="44.4897413" lon="8.4974083"><ele>394.0</ele><time>2026-04-04T10:42:38.967Z</time></trkpt><trkpt lat="44.4896501" lon="8.4975675"><ele>394.5</ele><time>2026-04-04T10:42:39.968Z</time></trkpt><trkpt lat="44.4895467" lon="8.4977134"><ele>395.0</ele><time>2026-04-04T10:42:40.967Z</time></trkpt><trkpt lat="44.4894323" lon="8.4978132"><ele>395.5</ele><time>2026-04-04T10:42:41.968Z</time></trkpt><trkpt lat="44.4893045" lon="8.4978639"><ele>396.0</ele><time>2026-04-04T10:42:42.967Z</time></trkpt><trkpt lat="44.4891653" lon="8.497848"><ele>396.0</ele><time>2026-04-04T10:42:43.967Z</time></trkpt><trkpt lat="44.4890382" lon="8.4977569"><ele>396.0</ele><time>2026-04-04T10:42:44.967Z</time></trkpt><trkpt lat="44.4889369" lon="8.4976166"><ele>396.0</ele><time>2026-04-04T10:42:45.968Z</time></trkpt><trkpt lat="44.4888508" lon="8.4974599"><ele>396.0</ele><time>2026-04-04T10:42:46.968Z</time></trkpt><trkpt lat="44.4887811" lon="8.4973237"><ele>399.20000000000005</ele><time>2026-04-04T10:42:47.967Z</time></trkpt><trkpt lat="44.4886979" lon="8.4972281"><ele>402.40000000000003</ele><time>2026-04-04T10:42:48.968Z</time></trkpt><trkpt lat="44.48859" lon="8.4971977"><ele>405.6</ele><time>2026-04-04T10:42:49.968Z</time></trkpt><trkpt lat="44.4884888" lon="8.4972139"><ele>408.8</ele><time>2026-04-04T10:42:50.968Z</time></trkpt><trkpt lat="44.488382" lon="8.4973125"><ele>412.0</ele><time>2026-04-04T10:42:51.968Z</time></trkpt><trkpt lat="44.488276" lon="8.4974145"><ele>412.0</ele><time>2026-04-04T10:42:52.968Z</time></trkpt><trkpt lat="44.4881764" lon="8.4974794"><ele>412.0</ele><time>2026-04-04T10:42:53.968Z</time></trkpt><trkpt lat="44.488075" lon="8.4974867"><ele>412.0</ele><time>2026-04-04T10:42:54.968Z</time></trkpt><trkpt lat="44.4879756" lon="8.4974509"><ele>412.0</ele><time>2026-04-04T10:42:55.968Z</time></trkpt><trkpt lat="44.4878872" lon="8.4973752"><ele>412.0</ele><time>2026-04-04T10:42:56.968Z</time></trkpt><trkpt lat="44.487805" lon="8.4972596"><ele>411.0</ele><time>2026-04-04T10:42:57.967Z</time></trkpt><trkpt lat="44.4877182" lon="8.4971491"><ele>410.0</ele><time>2026-04-04T10:42:58.967Z</time></trkpt><trkpt lat="44.4876171" lon="8.4970546"><ele>409.0</ele><time>2026-04-04T10:42:59.968Z</time></trkpt><trkpt lat="44.4875044" lon="8.4969826"><ele>408.0</ele><time>2026-04-04T10:43:00.968Z</time></trkpt><trkpt lat="44.4873921" lon="8.4969287"><ele>408.0</ele><time>2026-04-04T10:43:01.968Z</time></trkpt><trkpt lat="44.487267" lon="8.4969228"><ele>408.0</ele><time>2026-04-04T10:43:02.968Z</time></trkpt><trkpt lat="44.4871318" lon="8.4969644"><ele>408.0</ele><time>2026-04-04T10:43:03.968Z</time></trkpt><trkpt lat="44.486976" lon="8.4970284"><ele>408.0</ele><time>2026-04-04T10:43:04.968Z</time></trkpt><trkpt lat="44.4868327" lon="8.4971082"><ele>409.5</ele><time>2026-04-04T10:43:05.968Z</time></trkpt><trkpt lat="44.4867009" lon="8.4971833"><ele>411.0</ele><time>2026-04-04T10:43:06.967Z</time></trkpt><trkpt lat="44.4865821" lon="8.4972353"><ele>412.5</ele><time>2026-04-04T10:43:07.968Z</time></trkpt><trkpt lat="44.4864737" lon="8.4972509"><ele>414.0</ele><time>2026-04-04T10:43:08.968Z</time></trkpt><trkpt lat="44.4863762" lon="8.4972536"><ele>414.0</ele><time>2026-04-04T10:43:09.968Z</time></trkpt><trkpt lat="44.4862825" lon="8.4972437"><ele>414.0</ele><time>2026-04-04T10:43:10.967Z</time></trkpt><trkpt lat="44.4861848" lon="8.4971996"><ele>414.0</ele><time>2026-04-04T10:43:11.968Z</time></trkpt><trkpt lat="44.4860839" lon="8.4971373"><ele>414.0</ele><time>2026-04-04T10:43:12.968Z</time></trkpt><trkpt lat="44.48597" lon="8.4970755"><ele>414.0</ele><time>2026-04-04T10:43:13.968Z</time></trkpt><trkpt lat="44.4858289" lon="8.497022"><ele>413.0</ele><time>2026-04-04T10:43:14.968Z</time></trkpt><trkpt lat="44.4856858" lon="8.4969589"><ele>412.0</ele><time>2026-04-04T10:43:15.968Z</time></trkpt><trkpt lat="44.4855401" lon="8.4968823"><ele>411.0</ele><time>2026-04-04T10:43:16.968Z</time></trkpt><trkpt lat="44.485389" lon="8.4967953"><ele>407.66666666666663</ele><time>2026-04-04T10:43:17.968Z</time></trkpt><trkpt lat="44.4852522" lon="8.4966809"><ele>404.3333333333333</ele><time>2026-04-04T10:43:18.968Z</time></trkpt><trkpt lat="44.4851254" lon="8.4965463"><ele>401.0</ele><time>2026-04-04T10:43:19.967Z</time></trkpt><trkpt lat="44.4850177" lon="8.496411"><ele>401.0</ele><time>2026-04-04T10:43:20.968Z</time></trkpt><trkpt lat="44.4849214" lon="8.496283"><ele>401.0</ele><time>2026-04-04T10:43:21.968Z</time></trkpt><trkpt lat="44.4848358" lon="8.4961526"><ele>401.0</ele><time>2026-04-04T10:43:22.967Z</time></trkpt><trkpt lat="44.484799" lon="8.4959867"><ele>401.0</ele><time>2026-04-04T10:43:23.968Z</time></trkpt><trkpt lat="44.4847897" lon="8.4958132"><ele>401.0</ele><time>2026-04-04T10:43:24.968Z</time></trkpt><trkpt lat="44.4848227" lon="8.4956315"><ele>401.0</ele><time>2026-04-04T10:43:25.968Z</time></trkpt><trkpt lat="44.4848656" lon="8.4954497"><ele>401.0</ele><time>2026-04-04T10:43:26.968Z</time></trkpt><trkpt lat="44.4848788" lon="8.4952853"><ele>401.0</ele><time>2026-04-04T10:43:27.967Z</time></trkpt><trkpt lat="44.4848664" lon="8.4951249"><ele>401.0</ele><time>2026-04-04T10:43:28.968Z</time></trkpt><trkpt lat="44.4848152" lon="8.4949866"><ele>401.0</ele><time>2026-04-04T10:43:29.967Z</time></trkpt><trkpt lat="44.4847305" lon="8.4948782"><ele>401.0</ele><time>2026-04-04T10:43:30.968Z</time></trkpt><trkpt lat="44.4846184" lon="8.4948204"><ele>401.0</ele><time>2026-04-04T10:43:31.968Z</time></trkpt><trkpt lat="44.4844879" lon="8.4948018"><ele>399.25</ele><time>2026-04-04T10:43:32.968Z</time></trkpt><trkpt lat="44.4843479" lon="8.4947909"><ele>397.5</ele><time>2026-04-04T10:43:33.968Z</time></trkpt><trkpt lat="44.48422" lon="8.4947382"><ele>395.75</ele><time>2026-04-04T10:43:34.968Z</time></trkpt><trkpt lat="44.4841064" lon="8.4946503"><ele>394.0</ele><time>2026-04-04T10:43:35.967Z</time></trkpt><trkpt lat="44.4839868" lon="8.4945225"><ele>394.0</ele><time>2026-04-04T10:43:36.968Z</time></trkpt><trkpt lat="44.4838685" lon="8.494413"><ele>394.0</ele><time>2026-04-04T10:43:37.968Z</time></trkpt><trkpt lat="44.4837421" lon="8.4943194"><ele>394.0</ele><time>2026-04-04T10:43:38.968Z</time></trkpt><trkpt lat="44.4836285" lon="8.4942285"><ele>394.0</ele><time>2026-04-04T10:43:39.968Z</time></trkpt><trkpt lat="44.4835304" lon="8.4941244"><ele>392.5</ele><time>2026-04-04T10:43:40.968Z</time></trkpt><trkpt lat="44.4834863" lon="8.4939785"><ele>391.0</ele><time>2026-04-04T10:43:41.968Z</time></trkpt><trkpt lat="44.4834722" lon="8.4938228"><ele>389.5</ele><time>2026-04-04T10:43:42.968Z</time></trkpt><trkpt lat="44.4834735" lon="8.4936354"><ele>388.0</ele><time>2026-04-04T10:43:43.968Z</time></trkpt><trkpt lat="44.4834795" lon="8.4934436"><ele>388.0</ele><time>2026-04-04T10:43:44.968Z</time></trkpt><trkpt lat="44.4834577" lon="8.4932726"><ele>388.0</ele><time>2026-04-04T10:43:45.968Z</time></trkpt><trkpt lat="44.4833941" lon="8.4931313"><ele>388.0</ele><time>2026-04-04T10:43:46.968Z</time></trkpt><trkpt lat="44.4832906" lon="8.4930349"><ele>388.0</ele><time>2026-04-04T10:43:47.967Z</time></trkpt><trkpt lat="44.4831632" lon="8.4929617"><ele>388.0</ele><time>2026-04-04T10:43:48.968Z</time></trkpt><trkpt lat="44.4830221" lon="8.4929199"><ele>388.0</ele><time>2026-04-04T10:43:49.968Z</time></trkpt><trkpt lat="44.4828707" lon="8.4928925"><ele>388.0</ele><time>2026-04-04T10:43:50.967Z</time></trkpt><trkpt lat="44.4827193" lon="8.4928673"><ele>388.0</ele><time>2026-04-04T10:43:51.967Z</time></trkpt><trkpt lat="44.4825704" lon="8.492821"><ele>388.0</ele><time>2026-04-04T10:43:52.968Z</time></trkpt><trkpt lat="44.4824268" lon="8.4927493"><ele>388.0</ele><time>2026-04-04T10:43:53.968Z</time></trkpt><trkpt lat="44.482295" lon="8.4926816"><ele>388.0</ele><time>2026-04-04T10:43:54.968Z</time></trkpt><trkpt lat="44.4821921" lon="8.492603"><ele>388.0</ele><time>2026-04-04T10:43:55.968Z</time></trkpt><trkpt lat="44.4820973" lon="8.4924984"><ele>385.0</ele><time>2026-04-04T10:43:56.968Z</time></trkpt><trkpt lat="44.4820308" lon="8.4923472"><ele>382.0</ele><time>2026-04-04T10:43:57.968Z</time></trkpt><trkpt lat="44.4819756" lon="8.4921795"><ele>379.0</ele><time>2026-04-04T10:43:58.968Z</time></trkpt><trkpt lat="44.4819413" lon="8.491984"><ele>376.0</ele><time>2026-04-04T10:43:59.968Z</time></trkpt><trkpt lat="44.4819369" lon="8.491758"><ele>376.0</ele><time>2026-04-04T10:44:00.967Z</time></trkpt><trkpt lat="44.4819315" lon="8.4915439"><ele>376.0</ele><time>2026-04-04T10:44:01.967Z</time></trkpt><trkpt lat="44.481915" lon="8.4913525"><ele>376.0</ele><time>2026-04-04T10:44:02.968Z</time></trkpt><trkpt lat="44.4818988" lon="8.491167"><ele>376.0</ele><time>2026-04-04T10:44:03.968Z</time></trkpt><trkpt lat="44.4818935" lon="8.4909759"><ele>375.75</ele><time>2026-04-04T10:44:04.968Z</time></trkpt><trkpt lat="44.4818766" lon="8.4907884"><ele>375.5</ele><time>2026-04-04T10:44:05.968Z</time></trkpt><trkpt lat="44.4818472" lon="8.4906207"><ele>375.25</ele><time>2026-04-04T10:44:06.968Z</time></trkpt><trkpt lat="44.4818097" lon="8.4904547"><ele>375.0</ele><time>2026-04-04T10:44:07.967Z</time></trkpt><trkpt lat="44.4817329" lon="8.4903156"><ele>373.75</ele><time>2026-04-04T10:44:08.968Z</time></trkpt><trkpt lat="44.4816326" lon="8.4902091"><ele>372.5</ele><time>2026-04-04T10:44:09.967Z</time></trkpt><trkpt lat="44.4815218" lon="8.4901322"><ele>371.25</ele><time>2026-04-04T10:44:10.968Z</time></trkpt><trkpt lat="44.4813941" lon="8.4900924"><ele>370.0</ele><time>2026-04-04T10:44:11.968Z</time></trkpt><trkpt lat="44.4812571" lon="8.4900876"><ele>369.75</ele><time>2026-04-04T10:44:12.968Z</time></trkpt><trkpt lat="44.4811212" lon="8.4900997"><ele>369.5</ele><time>2026-04-04T10:44:13.968Z</time></trkpt><trkpt lat="44.4810003" lon="8.4901155"><ele>369.25</ele><time>2026-04-04T10:44:14.967Z</time></trkpt><trkpt lat="44.4808866" lon="8.490122"><ele>369.0</ele><time>2026-04-04T10:44:15.967Z</time></trkpt><trkpt lat="44.4807797" lon="8.4901237"><ele>369.0</ele><time>2026-04-04T10:44:16.967Z</time></trkpt><trkpt lat="44.4806745" lon="8.4901292"><ele>369.0</ele><time>2026-04-04T10:44:17.968Z</time></trkpt><trkpt lat="44.4805708" lon="8.4901357"><ele>369.0</ele><time>2026-04-04T10:44:18.968Z</time></trkpt><trkpt lat="44.4804577" lon="8.4901457"><ele>369.0</ele><time>2026-04-04T10:44:19.967Z</time></trkpt><trkpt lat="44.4803505" lon="8.4901499"><ele>369.0</ele><time>2026-04-04T10:44:20.968Z</time></trkpt><trkpt lat="44.4802455" lon="8.4901589"><ele>370.6</ele><time>2026-04-04T10:44:21.968Z</time></trkpt><trkpt lat="44.4801471" lon="8.4901586"><ele>372.2</ele><time>2026-04-04T10:44:22.968Z</time></trkpt><trkpt lat="44.4800479" lon="8.4901575"><ele>373.8</ele><time>2026-04-04T10:44:23.968Z</time></trkpt><trkpt lat="44.479951" lon="8.4901505"><ele>375.40000000000003</ele><time>2026-04-04T10:44:24.967Z</time></trkpt><trkpt lat="44.4798724" lon="8.4901474"><ele>377.0</ele><time>2026-04-04T10:44:25.968Z</time></trkpt><trkpt lat="44.4797934" lon="8.4901455"><ele>377.0</ele><time>2026-04-04T10:44:26.967Z</time></trkpt><trkpt lat="44.4797154" lon="8.4901466"><ele>377.0</ele><time>2026-04-04T10:44:27.968Z</time></trkpt><trkpt lat="44.4795928" lon="8.4901556"><ele>377.0</ele><time>2026-04-04T10:44:29.967Z</time></trkpt><trkpt lat="44.4795136" lon="8.4901649"><ele>377.0</ele><time>2026-04-04T10:44:31.967Z</time></trkpt><trkpt lat="44.4794446" lon="8.4902434"><ele>377.0</ele><time>2026-04-04T10:44:34.966Z</time></trkpt><trkpt lat="44.4794174" lon="8.4903804"><ele>378.83333333333337</ele><time>2026-04-04T10:44:36.967Z</time></trkpt><trkpt lat="44.4794263" lon="8.4904791"><ele>380.6666666666667</ele><time>2026-04-04T10:44:37.967Z</time></trkpt><trkpt lat="44.479438" lon="8.490574"><ele>382.5</ele><time>2026-04-04T10:44:38.966Z</time></trkpt><trkpt lat="44.4794587" lon="8.4907218"><ele>384.33333333333337</ele><time>2026-04-04T10:44:40.966Z</time></trkpt><trkpt lat="44.4794793" lon="8.490878"><ele>386.1666666666667</ele><time>2026-04-04T10:44:42.967Z</time></trkpt><trkpt lat="44.4794893" lon="8.4909774"><ele>388.0</ele><time>2026-04-04T10:44:43.967Z</time></trkpt><trkpt lat="44.4794969" lon="8.491092"><ele>388.0</ele><time>2026-04-04T10:44:44.967Z</time></trkpt><trkpt lat="44.4795059" lon="8.4912218"><ele>388.0</ele><time>2026-04-04T10:44:45.966Z</time></trkpt><trkpt lat="44.4795182" lon="8.4913625"><ele>388.0</ele><time>2026-04-04T10:44:46.966Z</time></trkpt><trkpt lat="44.4795332" lon="8.4915062"><ele>388.0</ele><time>2026-04-04T10:44:47.966Z</time></trkpt><trkpt lat="44.4795598" lon="8.4916473"><ele>388.0</ele><time>2026-04-04T10:44:48.967Z</time></trkpt><trkpt lat="44.4795865" lon="8.4917797"><ele>387.2</ele><time>2026-04-04T10:44:49.967Z</time></trkpt><trkpt lat="44.4796125" lon="8.4919063"><ele>386.4</ele><time>2026-04-04T10:44:50.967Z</time></trkpt><trkpt lat="44.4796426" lon="8.4920275"><ele>385.59999999999997</ele><time>2026-04-04T10:44:51.966Z</time></trkpt><trkpt lat="44.4796778" lon="8.492159"><ele>384.79999999999995</ele><time>2026-04-04T10:44:52.967Z</time></trkpt><trkpt lat="44.4797083" lon="8.4922941"><ele>384.0</ele><time>2026-04-04T10:44:53.967Z</time></trkpt><trkpt lat="44.4797444" lon="8.4924393"><ele>384.0</ele><time>2026-04-04T10:44:54.967Z</time></trkpt><trkpt lat="44.4797829" lon="8.4925877"><ele>384.0</ele><time>2026-04-04T10:44:55.967Z</time></trkpt><trkpt lat="44.4798243" lon="8.4927421"><ele>384.0</ele><time>2026-04-04T10:44:56.967Z</time></trkpt><trkpt lat="44.4798736" lon="8.492904"><ele>384.0</ele><time>2026-04-04T10:44:57.966Z</time></trkpt><trkpt lat="44.4799225" lon="8.4930695"><ele>385.5</ele><time>2026-04-04T10:44:58.967Z</time></trkpt><trkpt lat="44.4799787" lon="8.4932407"><ele>387.0</ele><time>2026-04-04T10:44:59.967Z</time></trkpt><trkpt lat="44.4800414" lon="8.4934205"><ele>388.5</ele><time>2026-04-04T10:45:00.967Z</time></trkpt><trkpt lat="44.4801034" lon="8.4935996"><ele>390.0</ele><time>2026-04-04T10:45:01.967Z</time></trkpt><trkpt lat="44.4801655" lon="8.4937839"><ele>386.6666666666667</ele><time>2026-04-04T10:45:02.966Z</time></trkpt><trkpt lat="44.4802453" lon="8.4939589"><ele>383.33333333333337</ele><time>2026-04-04T10:45:03.967Z</time></trkpt><trkpt lat="44.4803502" lon="8.4941161"><ele>380.0</ele><time>2026-04-04T10:45:04.966Z</time></trkpt><trkpt lat="44.4804774" lon="8.4942467"><ele>380.0</ele><time>2026-04-04T10:45:05.966Z</time></trkpt><trkpt lat="44.4806123" lon="8.494367"><ele>380.0</ele><time>2026-04-04T10:45:06.966Z</time></trkpt><trkpt lat="44.4807536" lon="8.4944799"><ele>380.0</ele><time>2026-04-04T10:45:07.966Z</time></trkpt><trkpt lat="44.4808903" lon="8.4945842"><ele>379.33333333333337</ele><time>2026-04-04T10:45:08.967Z</time></trkpt><trkpt lat="44.4810229" lon="8.4946971"><ele>378.6666666666667</ele><time>2026-04-04T10:45:09.967Z</time></trkpt><trkpt lat="44.4811526" lon="8.4948095"><ele>378.0</ele><time>2026-04-04T10:45:10.966Z</time></trkpt><trkpt lat="44.4812785" lon="8.4949354"><ele>378.0</ele><time>2026-04-04T10:45:11.967Z</time></trkpt><trkpt lat="44.4813982" lon="8.4950706"><ele>378.0</ele><time>2026-04-04T10:45:12.967Z</time></trkpt><trkpt lat="44.4815124" lon="8.495234"><ele>378.0</ele><time>2026-04-04T10:45:13.967Z</time></trkpt><trkpt lat="44.4816176" lon="8.4954175"><ele>380.33333333333337</ele><time>2026-04-04T10:45:14.967Z</time></trkpt><trkpt lat="44.4817085" lon="8.4956154"><ele>382.6666666666667</ele><time>2026-04-04T10:45:15.967Z</time></trkpt><trkpt lat="44.4817937" lon="8.4958338"><ele>385.0</ele><time>2026-04-04T10:45:16.967Z</time></trkpt><trkpt lat="44.4818766" lon="8.4960507"><ele>385.0</ele><time>2026-04-04T10:45:17.967Z</time></trkpt><trkpt lat="44.4819582" lon="8.4962479"><ele>385.0</ele><time>2026-04-04T10:45:18.967Z</time></trkpt><trkpt lat="44.4820384" lon="8.4964331"><ele>385.0</ele><time>2026-04-04T10:45:19.967Z</time></trkpt><trkpt lat="44.4821164" lon="8.4966263"><ele>384.6666666666667</ele><time>2026-04-04T10:45:20.967Z</time></trkpt><trkpt lat="44.482191" lon="8.496825"><ele>384.33333333333337</ele><time>2026-04-04T10:45:21.967Z</time></trkpt><trkpt lat="44.4822596" lon="8.4970195"><ele>384.0</ele><time>2026-04-04T10:45:22.967Z</time></trkpt><trkpt lat="44.4823302" lon="8.4972142"><ele>384.0</ele><time>2026-04-04T10:45:23.966Z</time></trkpt><trkpt lat="44.4823973" lon="8.497414"><ele>384.0</ele><time>2026-04-04T10:45:24.967Z</time></trkpt><trkpt lat="44.4824637" lon="8.4976239"><ele>384.0</ele><time>2026-04-04T10:45:25.966Z</time></trkpt><trkpt lat="44.4825289" lon="8.4978475"><ele>384.66666666666663</ele><time>2026-04-04T10:45:26.966Z</time></trkpt><trkpt lat="44.4825969" lon="8.4980752"><ele>385.3333333333333</ele><time>2026-04-04T10:45:27.967Z</time></trkpt><trkpt lat="44.4826714" lon="8.4982914"><ele>386.0</ele><time>2026-04-04T10:45:28.967Z</time></trkpt><trkpt lat="44.4827575" lon="8.4984938"><ele>386.0</ele><time>2026-04-04T10:45:29.967Z</time></trkpt><trkpt lat="44.4828596" lon="8.4987067"><ele>386.0</ele><time>2026-04-04T10:45:30.967Z</time></trkpt><trkpt lat="44.4829708" lon="8.4989295"><ele>386.0</ele><time>2026-04-04T10:45:31.966Z</time></trkpt><trkpt lat="44.4830752" lon="8.499143"><ele>385.66666666666663</ele><time>2026-04-04T10:45:32.967Z</time></trkpt><trkpt lat="44.4831711" lon="8.499345"><ele>385.33333333333337</ele><time>2026-04-04T10:45:33.967Z</time></trkpt><trkpt lat="44.4832635" lon="8.4995264"><ele>385.0</ele><time>2026-04-04T10:45:34.966Z</time></trkpt><trkpt lat="44.4833374" lon="8.4996943"><ele>385.0</ele><time>2026-04-04T10:45:35.967Z</time></trkpt><trkpt lat="44.4834029" lon="8.499852"><ele>385.0</ele><time>2026-04-04T10:45:36.967Z</time></trkpt><trkpt lat="44.4834609" lon="8.5000201"><ele>385.0</ele><time>2026-04-04T10:45:37.967Z</time></trkpt><trkpt lat="44.4835026" lon="8.5002137"><ele>385.0</ele><time>2026-04-04T10:45:38.966Z</time></trkpt><trkpt lat="44.4835259" lon="8.5004284"><ele>385.0</ele><time>2026-04-04T10:45:39.967Z</time></trkpt><trkpt lat="44.4835378" lon="8.5006525"><ele>385.0</ele><time>2026-04-04T10:45:40.967Z</time></trkpt><trkpt lat="44.4835441" lon="8.5008641"><ele>385.0</ele><time>2026-04-04T10:45:41.967Z</time></trkpt><trkpt lat="44.483556" lon="8.5010689"><ele>385.0</ele><time>2026-04-04T10:45:42.967Z</time></trkpt><trkpt lat="44.4835913" lon="8.5012688"><ele>385.0</ele><time>2026-04-04T10:45:43.966Z</time></trkpt><trkpt lat="44.4836486" lon="8.5014645"><ele>385.0</ele><time>2026-04-04T10:45:44.967Z</time></trkpt><trkpt lat="44.4837322" lon="8.5016371"><ele>385.0</ele><time>2026-04-04T10:45:45.967Z</time></trkpt><trkpt lat="44.4838342" lon="8.5017878"><ele>385.0</ele><time>2026-04-04T10:45:46.967Z</time></trkpt><trkpt lat="44.4839272" lon="8.5019509"><ele>385.0</ele><time>2026-04-04T10:45:47.967Z</time></trkpt><trkpt lat="44.4839935" lon="8.5021407"><ele>385.0</ele><time>2026-04-04T10:45:48.967Z</time></trkpt><trkpt lat="44.4840344" lon="8.5023413"><ele>385.0</ele><time>2026-04-04T10:45:49.966Z</time></trkpt><trkpt lat="44.4840682" lon="8.5025586"><ele>385.75</ele><time>2026-04-04T10:45:50.966Z</time></trkpt><trkpt lat="44.4841088" lon="8.5027772"><ele>386.5</ele><time>2026-04-04T10:45:51.967Z</time></trkpt><trkpt lat="44.4841434" lon="8.5029769"><ele>387.25</ele><time>2026-04-04T10:45:52.967Z</time></trkpt><trkpt lat="44.4841511" lon="8.5031643"><ele>388.0</ele><time>2026-04-04T10:45:53.967Z</time></trkpt><trkpt lat="44.4841218" lon="8.5033351"><ele>388.59999999999997</ele><time>2026-04-04T10:45:54.967Z</time></trkpt><trkpt lat="44.4840877" lon="8.5034855"><ele>389.2</ele><time>2026-04-04T10:45:55.967Z</time></trkpt><trkpt lat="44.4840687" lon="8.5036249"><ele>389.8</ele><time>2026-04-04T10:45:56.967Z</time></trkpt><trkpt lat="44.484073" lon="8.5037726"><ele>390.4</ele><time>2026-04-04T10:45:57.967Z</time></trkpt><trkpt lat="44.4841018" lon="8.5039154"><ele>391.0</ele><time>2026-04-04T10:45:58.967Z</time></trkpt><trkpt lat="44.4841608" lon="8.5040461"><ele>390.75</ele><time>2026-04-04T10:45:59.966Z</time></trkpt><trkpt lat="44.4842596" lon="8.5041432"><ele>390.5</ele><time>2026-04-04T10:46:00.966Z</time></trkpt><trkpt lat="44.4843817" lon="8.5042043"><ele>390.25</ele><time>2026-04-04T10:46:01.967Z</time></trkpt><trkpt lat="44.4845099" lon="8.5042475"><ele>390.0</ele><time>2026-04-04T10:46:02.966Z</time></trkpt><trkpt lat="44.4846362" lon="8.5042624"><ele>390.0</ele><time>2026-04-04T10:46:03.967Z</time></trkpt><trkpt lat="44.4847559" lon="8.5042334"><ele>390.0</ele><time>2026-04-04T10:46:04.967Z</time></trkpt><trkpt lat="44.4848772" lon="8.5041464"><ele>390.0</ele><time>2026-04-04T10:46:05.967Z</time></trkpt><trkpt lat="44.4849704" lon="8.503999"><ele>390.0</ele><time>2026-04-04T10:46:06.966Z</time></trkpt><trkpt lat="44.4850504" lon="8.5038509"><ele>390.0</ele><time>2026-04-04T10:46:07.967Z</time></trkpt><trkpt lat="44.4851326" lon="8.5037471"><ele>390.0</ele><time>2026-04-04T10:46:08.966Z</time></trkpt><trkpt lat="44.4852241" lon="8.5037055"><ele>390.0</ele><time>2026-04-04T10:46:09.967Z</time></trkpt><trkpt lat="44.4853208" lon="8.5037073"><ele>390.0</ele><time>2026-04-04T10:46:10.966Z</time></trkpt><trkpt lat="44.4854113" lon="8.5037955"><ele>390.0</ele><time>2026-04-04T10:46:11.967Z</time></trkpt><trkpt lat="44.4854987" lon="8.5039153"><ele>390.0</ele><time>2026-04-04T10:46:12.967Z</time></trkpt><trkpt lat="44.4855856" lon="8.5040603"><ele>390.0</ele><time>2026-04-04T10:46:13.967Z</time></trkpt><trkpt lat="44.4856767" lon="8.5042082"><ele>390.0</ele><time>2026-04-04T10:46:14.967Z</time></trkpt><trkpt lat="44.4857767" lon="8.5043624"><ele>390.0</ele><time>2026-04-04T10:46:15.967Z</time></trkpt><trkpt lat="44.485884" lon="8.5045074"><ele>390.0</ele><time>2026-04-04T10:46:16.966Z</time></trkpt><trkpt lat="44.4859923" lon="8.5046442"><ele>390.0</ele><time>2026-04-04T10:46:17.967Z</time></trkpt><trkpt lat="44.4860959" lon="8.5047968"><ele>390.0</ele><time>2026-04-04T10:46:18.967Z</time></trkpt><trkpt lat="44.4862062" lon="8.5049541"><ele>390.0</ele><time>2026-04-04T10:46:19.966Z</time></trkpt><trkpt lat="44.4863125" lon="8.505091"><ele>390.0</ele><time>2026-04-04T10:46:20.966Z</time></trkpt><trkpt lat="44.4864133" lon="8.5051858"><ele>390.0</ele><time>2026-04-04T10:46:21.967Z</time></trkpt><trkpt lat="44.4865156" lon="8.5052543"><ele>390.0</ele><time>2026-04-04T10:46:22.967Z</time></trkpt><trkpt lat="44.4866227" lon="8.5052608"><ele>390.0</ele><time>2026-04-04T10:46:23.967Z</time></trkpt><trkpt lat="44.4867369" lon="8.5052151"><ele>390.0</ele><time>2026-04-04T10:46:24.966Z</time></trkpt><trkpt lat="44.4868264" lon="8.5051058"><ele>390.0</ele><time>2026-04-04T10:46:25.967Z</time></trkpt><trkpt lat="44.4869085" lon="8.5049633"><ele>390.0</ele><time>2026-04-04T10:46:26.967Z</time></trkpt><trkpt lat="44.4870006" lon="8.5048252"><ele>390.75</ele><time>2026-04-04T10:46:27.967Z</time></trkpt><trkpt lat="44.4871173" lon="8.5047141"><ele>391.5</ele><time>2026-04-04T10:46:28.966Z</time></trkpt><trkpt lat="44.4872557" lon="8.5046578"><ele>392.25</ele><time>2026-04-04T10:46:29.967Z</time></trkpt><trkpt lat="44.487406" lon="8.5046591"><ele>393.0</ele><time>2026-04-04T10:46:30.967Z</time></trkpt><trkpt lat="44.4875583" lon="8.504721"><ele>393.0</ele><time>2026-04-04T10:46:31.967Z</time></trkpt><trkpt lat="44.4877068" lon="8.5048245"><ele>393.0</ele><time>2026-04-04T10:46:32.967Z</time></trkpt><trkpt lat="44.4878537" lon="8.5049648"><ele>393.0</ele><time>2026-04-04T10:46:33.967Z</time></trkpt><trkpt lat="44.4880022" lon="8.5051204"><ele>393.66666666666663</ele><time>2026-04-04T10:46:34.967Z</time></trkpt><trkpt lat="44.4881508" lon="8.5052714"><ele>394.3333333333333</ele><time>2026-04-04T10:46:35.967Z</time></trkpt><trkpt lat="44.4882978" lon="8.5054154"><ele>395.0</ele><time>2026-04-04T10:46:36.967Z</time></trkpt><trkpt lat="44.4884558" lon="8.5055547"><ele>395.0</ele><time>2026-04-04T10:46:37.966Z</time></trkpt><trkpt lat="44.4886201" lon="8.5056891"><ele>395.0</ele><time>2026-04-04T10:46:38.967Z</time></trkpt><trkpt lat="44.4887828" lon="8.5058339"><ele>395.0</ele><time>2026-04-04T10:46:39.967Z</time></trkpt><trkpt lat="44.4889345" lon="8.5059962"><ele>396.0</ele><time>2026-04-04T10:46:40.966Z</time></trkpt><trkpt lat="44.4890485" lon="8.5061721"><ele>397.0</ele><time>2026-04-04T10:46:41.967Z</time></trkpt><trkpt lat="44.4891599" lon="8.5063967"><ele>398.0</ele><time>2026-04-04T10:46:42.967Z</time></trkpt><trkpt lat="44.4892583" lon="8.5066364"><ele>398.0</ele><time>2026-04-04T10:46:43.967Z</time></trkpt><trkpt lat="44.4893555" lon="8.5068924"><ele>398.0</ele><time>2026-04-04T10:46:44.967Z</time></trkpt><trkpt lat="44.4894538" lon="8.5071597"><ele>398.0</ele><time>2026-04-04T10:46:45.967Z</time></trkpt><trkpt lat="44.4895505" lon="8.5074228"><ele>401.3333333333333</ele><time>2026-04-04T10:46:46.967Z</time></trkpt><trkpt lat="44.4896517" lon="8.5076807"><ele>404.66666666666663</ele><time>2026-04-04T10:46:47.967Z</time></trkpt><trkpt lat="44.4897496" lon="8.507922"><ele>408.0</ele><time>2026-04-04T10:46:48.966Z</time></trkpt><trkpt lat="44.4898376" lon="8.508161"><ele>408.0</ele><time>2026-04-04T10:46:49.966Z</time></trkpt><trkpt lat="44.4899277" lon="8.5084006"><ele>408.0</ele><time>2026-04-04T10:46:50.967Z</time></trkpt><trkpt lat="44.4900128" lon="8.5086357"><ele>408.0</ele><time>2026-04-04T10:46:51.967Z</time></trkpt><trkpt lat="44.4900688" lon="8.508868"><ele>408.33333333333337</ele><time>2026-04-04T10:46:52.967Z</time></trkpt><trkpt lat="44.4901088" lon="8.5090892"><ele>408.6666666666667</ele><time>2026-04-04T10:46:53.967Z</time></trkpt><trkpt lat="44.4901485" lon="8.5093142"><ele>409.0</ele><time>2026-04-04T10:46:54.966Z</time></trkpt><trkpt lat="44.4902042" lon="8.5095328"><ele>411.0</ele><time>2026-04-04T10:46:55.967Z</time></trkpt><trkpt lat="44.4902901" lon="8.5097542"><ele>413.0</ele><time>2026-04-04T10:46:56.967Z</time></trkpt><trkpt lat="44.4904074" lon="8.5099624"><ele>415.0</ele><time>2026-04-04T10:46:57.967Z</time></trkpt><trkpt lat="44.4905453" lon="8.5101534"><ele>414.6666666666667</ele><time>2026-04-04T10:46:58.967Z</time></trkpt><trkpt lat="44.490684" lon="8.5103381"><ele>414.33333333333337</ele><time>2026-04-04T10:46:59.967Z</time></trkpt><trkpt lat="44.4908238" lon="8.5105258"><ele>414.0</ele><time>2026-04-04T10:47:00.967Z</time></trkpt><trkpt lat="44.4909579" lon="8.5107243"><ele>414.0</ele><time>2026-04-04T10:47:01.967Z</time></trkpt><trkpt lat="44.4910933" lon="8.5109192"><ele>414.0</ele><time>2026-04-04T10:47:02.967Z</time></trkpt><trkpt lat="44.4912262" lon="8.511112"><ele>414.0</ele><time>2026-04-04T10:47:03.967Z</time></trkpt><trkpt lat="44.4913668" lon="8.5113016"><ele>414.66666666666663</ele><time>2026-04-04T10:47:04.966Z</time></trkpt><trkpt lat="44.4915059" lon="8.511505"><ele>415.3333333333333</ele><time>2026-04-04T10:47:05.967Z</time></trkpt><trkpt lat="44.4916435" lon="8.5117131"><ele>416.0</ele><time>2026-04-04T10:47:06.967Z</time></trkpt><trkpt lat="44.4917783" lon="8.5119115"><ele>415.0</ele><time>2026-04-04T10:47:07.966Z</time></trkpt><trkpt lat="44.4919131" lon="8.5121014"><ele>414.0</ele><time>2026-04-04T10:47:08.967Z</time></trkpt><trkpt lat="44.4920349" lon="8.5122961"><ele>413.0</ele><time>2026-04-04T10:47:09.966Z</time></trkpt><trkpt lat="44.4921377" lon="8.5125009"><ele>415.3333333333333</ele><time>2026-04-04T10:47:10.966Z</time></trkpt><trkpt lat="44.492236" lon="8.5127185"><ele>417.66666666666663</ele><time>2026-04-04T10:47:11.966Z</time></trkpt><trkpt lat="44.4923368" lon="8.5129328"><ele>420.0</ele><time>2026-04-04T10:47:12.966Z</time></trkpt><trkpt lat="44.4924369" lon="8.5131607"><ele>420.0</ele><time>2026-04-04T10:47:13.967Z</time></trkpt><trkpt lat="44.4925297" lon="8.5133832"><ele>420.0</ele><time>2026-04-04T10:47:14.966Z</time></trkpt><trkpt lat="44.4926213" lon="8.513604"><ele>420.0</ele><time>2026-04-04T10:47:15.967Z</time></trkpt><trkpt lat="44.4927021" lon="8.5138328"><ele>420.25</ele><time>2026-04-04T10:47:16.967Z</time></trkpt><trkpt lat="44.4927589" lon="8.5140636"><ele>420.5</ele><time>2026-04-04T10:47:17.967Z</time></trkpt><trkpt lat="44.4927921" lon="8.5142674"><ele>420.75</ele><time>2026-04-04T10:47:18.967Z</time></trkpt><trkpt lat="44.4928229" lon="8.5144306"><ele>421.0</ele><time>2026-04-04T10:47:19.967Z</time></trkpt><trkpt lat="44.4928558" lon="8.5145773"><ele>421.0</ele><time>2026-04-04T10:47:20.967Z</time></trkpt><trkpt lat="44.492887" lon="8.5147116"><ele>421.0</ele><time>2026-04-04T10:47:21.967Z</time></trkpt><trkpt lat="44.4929298" lon="8.5148463"><ele>421.0</ele><time>2026-04-04T10:47:22.967Z</time></trkpt><trkpt lat="44.4929852" lon="8.5149581"><ele>421.0</ele><time>2026-04-04T10:47:23.967Z</time></trkpt><trkpt lat="44.4930666" lon="8.5150336"><ele>421.0</ele><time>2026-04-04T10:47:24.967Z</time></trkpt><trkpt lat="44.4931812" lon="8.5150577"><ele>422.33333333333337</ele><time>2026-04-04T10:47:25.967Z</time></trkpt><trkpt lat="44.4933264" lon="8.5150522"><ele>423.66666666666663</ele><time>2026-04-04T10:47:26.967Z</time></trkpt><trkpt lat="44.4934809" lon="8.5150499"><ele>425.0</ele><time>2026-04-04T10:47:27.967Z</time></trkpt><trkpt lat="44.4936398" lon="8.5150649"><ele>429.66666666666663</ele><time>2026-04-04T10:47:28.967Z</time></trkpt><trkpt lat="44.4937915" lon="8.5151009"><ele>434.33333333333337</ele><time>2026-04-04T10:47:29.967Z</time></trkpt><trkpt lat="44.4939432" lon="8.5151821"><ele>439.0</ele><time>2026-04-04T10:47:30.967Z</time></trkpt><trkpt lat="44.4940797" lon="8.5153311"><ele>436.0</ele><time>2026-04-04T10:47:31.967Z</time></trkpt><trkpt lat="44.4941871" lon="8.5155041"><ele>433.0</ele><time>2026-04-04T10:47:32.967Z</time></trkpt><trkpt lat="44.4942696" lon="8.5157018"><ele>430.0</ele><time>2026-04-04T10:47:33.967Z</time></trkpt><trkpt lat="44.4943207" lon="8.5159322"><ele>430.0</ele><time>2026-04-04T10:47:34.967Z</time></trkpt><trkpt lat="44.4944054" lon="8.5161606"><ele>430.0</ele><time>2026-04-04T10:47:35.967Z</time></trkpt><trkpt lat="44.4945192" lon="8.5163773"><ele>430.0</ele><time>2026-04-04T10:47:36.967Z</time></trkpt><trkpt lat="44.4946521" lon="8.5165844"><ele>430.33333333333337</ele><time>2026-04-04T10:47:37.967Z</time></trkpt><trkpt lat="44.4947815" lon="8.5168038"><ele>430.66666666666663</ele><time>2026-04-04T10:47:38.967Z</time></trkpt><trkpt lat="44.4948961" lon="8.5170138"><ele>431.0</ele><time>2026-04-04T10:47:39.967Z</time></trkpt><trkpt lat="44.4949917" lon="8.5172154"><ele>431.0</ele><time>2026-04-04T10:47:40.967Z</time></trkpt><trkpt lat="44.4950698" lon="8.5174261"><ele>431.0</ele><time>2026-04-04T10:47:41.966Z</time></trkpt><trkpt lat="44.4951305" lon="8.5176359"><ele>431.0</ele><time>2026-04-04T10:47:42.966Z</time></trkpt><trkpt lat="44.4951866" lon="8.5178515"><ele>429.3333333333333</ele><time>2026-04-04T10:47:43.967Z</time></trkpt><trkpt lat="44.4952609" lon="8.5180737"><ele>427.66666666666663</ele><time>2026-04-04T10:47:44.966Z</time></trkpt><trkpt lat="44.4953338" lon="8.5183027"><ele>426.0</ele><time>2026-04-04T10:47:45.966Z</time></trkpt><trkpt lat="44.4954129" lon="8.5185254"><ele>429.0</ele><time>2026-04-04T10:47:46.967Z</time></trkpt><trkpt lat="44.4954971" lon="8.5187463"><ele>432.0</ele><time>2026-04-04T10:47:47.966Z</time></trkpt><trkpt lat="44.4955824" lon="8.5189724"><ele>435.0</ele><time>2026-04-04T10:47:48.967Z</time></trkpt><trkpt lat="44.4956704" lon="8.5192055"><ele>435.0</ele><time>2026-04-04T10:47:49.966Z</time></trkpt><trkpt lat="44.4957533" lon="8.5194406"><ele>435.0</ele><time>2026-04-04T10:47:50.966Z</time></trkpt><trkpt lat="44.4958301" lon="8.5196635"><ele>435.0</ele><time>2026-04-04T10:47:51.966Z</time></trkpt><trkpt lat="44.49588" lon="8.5198627"><ele>434.5</ele><time>2026-04-04T10:47:52.967Z</time></trkpt><trkpt lat="44.4959194" lon="8.5200473"><ele>434.0</ele><time>2026-04-04T10:47:53.967Z</time></trkpt><trkpt lat="44.4959269" lon="8.5202313"><ele>433.5</ele><time>2026-04-04T10:47:54.967Z</time></trkpt><trkpt lat="44.495923" lon="8.5204278"><ele>433.0</ele><time>2026-04-04T10:47:55.967Z</time></trkpt><trkpt lat="44.4959123" lon="8.520635"><ele>433.0</ele><time>2026-04-04T10:47:56.967Z</time></trkpt><trkpt lat="44.4959108" lon="8.5208505"><ele>433.0</ele><time>2026-04-04T10:47:57.967Z</time></trkpt><trkpt lat="44.495917" lon="8.5210961"><ele>433.0</ele><time>2026-04-04T10:47:58.966Z</time></trkpt><trkpt lat="44.4959082" lon="8.5213243"><ele>433.0</ele><time>2026-04-04T10:47:59.967Z</time></trkpt><trkpt lat="44.4958738" lon="8.5215374"><ele>433.0</ele><time>2026-04-04T10:48:00.967Z</time></trkpt><trkpt lat="44.4958161" lon="8.5217226"><ele>433.0</ele><time>2026-04-04T10:48:01.967Z</time></trkpt><trkpt lat="44.4957562" lon="8.5218952"><ele>433.0</ele><time>2026-04-04T10:48:02.966Z</time></trkpt><trkpt lat="44.4956907" lon="8.5220478"><ele>433.0</ele><time>2026-04-04T10:48:03.967Z</time></trkpt><trkpt lat="44.49561" lon="8.5221658"><ele>433.0</ele><time>2026-04-04T10:48:04.967Z</time></trkpt><trkpt lat="44.4954923" lon="8.5222445"><ele>433.0</ele><time>2026-04-04T10:48:05.967Z</time></trkpt><trkpt lat="44.4953617" lon="8.5222738"><ele>433.0</ele><time>2026-04-04T10:48:06.967Z</time></trkpt><trkpt lat="44.4952305" lon="8.5222931"><ele>433.0</ele><time>2026-04-04T10:48:07.967Z</time></trkpt><trkpt lat="44.4951153" lon="8.5223315"><ele>433.0</ele><time>2026-04-04T10:48:08.966Z</time></trkpt><trkpt lat="44.4950074" lon="8.5224046"><ele>433.0</ele><time>2026-04-04T10:48:09.967Z</time></trkpt><trkpt lat="44.4949278" lon="8.5225366"><ele>433.0</ele><time>2026-04-04T10:48:10.967Z</time></trkpt><trkpt lat="44.4948788" lon="8.5227101"><ele>434.6666666666667</ele><time>2026-04-04T10:48:11.966Z</time></trkpt><trkpt lat="44.4948352" lon="8.5229062"><ele>436.33333333333337</ele><time>2026-04-04T10:48:12.967Z</time></trkpt><trkpt lat="44.4947899" lon="8.5231337"><ele>438.0</ele><time>2026-04-04T10:48:13.967Z</time></trkpt><trkpt lat="44.4947473" lon="8.5233702"><ele>438.0</ele><time>2026-04-04T10:48:14.967Z</time></trkpt><trkpt lat="44.4947164" lon="8.52361"><ele>438.0</ele><time>2026-04-04T10:48:15.967Z</time></trkpt><trkpt lat="44.4946976" lon="8.52386"><ele>438.0</ele><time>2026-04-04T10:48:16.967Z</time></trkpt><trkpt lat="44.4946786" lon="8.5241165"><ele>439.0</ele><time>2026-04-04T10:48:17.967Z</time></trkpt><trkpt lat="44.4946657" lon="8.5243643"><ele>440.0</ele><time>2026-04-04T10:48:18.967Z</time></trkpt><trkpt lat="44.4946424" lon="8.5246083"><ele>441.0</ele><time>2026-04-04T10:48:19.967Z</time></trkpt><trkpt lat="44.4946131" lon="8.5248228"><ele>442.25</ele><time>2026-04-04T10:48:20.967Z</time></trkpt><trkpt lat="44.4945547" lon="8.5250089"><ele>443.5</ele><time>2026-04-04T10:48:21.967Z</time></trkpt><trkpt lat="44.4944802" lon="8.5251723"><ele>444.75</ele><time>2026-04-04T10:48:22.967Z</time></trkpt><trkpt lat="44.4943922" lon="8.5253315"><ele>446.0</ele><time>2026-04-04T10:48:23.966Z</time></trkpt><trkpt lat="44.4943103" lon="8.5254861"><ele>448.0</ele><time>2026-04-04T10:48:24.967Z</time></trkpt><trkpt lat="44.4942471" lon="8.5256442"><ele>450.0</ele><time>2026-04-04T10:48:25.966Z</time></trkpt><trkpt lat="44.4942084" lon="8.525812"><ele>452.0</ele><time>2026-04-04T10:48:26.967Z</time></trkpt><trkpt lat="44.4941896" lon="8.5259915"><ele>454.0</ele><time>2026-04-04T10:48:27.966Z</time></trkpt><trkpt lat="44.4941929" lon="8.5261835"><ele>454.6666666666667</ele><time>2026-04-04T10:48:28.967Z</time></trkpt><trkpt lat="44.4942257" lon="8.5263811"><ele>455.33333333333337</ele><time>2026-04-04T10:48:29.966Z</time></trkpt><trkpt lat="44.4943089" lon="8.5265713"><ele>456.0</ele><time>2026-04-04T10:48:30.966Z</time></trkpt><trkpt lat="44.494381" lon="8.5267748"><ele>456.0</ele><time>2026-04-04T10:48:31.967Z</time></trkpt><trkpt lat="44.4944361" lon="8.5270044"><ele>456.0</ele><time>2026-04-04T10:48:32.967Z</time></trkpt><trkpt lat="44.4944765" lon="8.5272314"><ele>456.0</ele><time>2026-04-04T10:48:33.967Z</time></trkpt><trkpt lat="44.4944814" lon="8.5274651"><ele>457.33333333333337</ele><time>2026-04-04T10:48:34.967Z</time></trkpt><trkpt lat="44.4944745" lon="8.5276681"><ele>458.6666666666667</ele><time>2026-04-04T10:48:35.967Z</time></trkpt><trkpt lat="44.4944255" lon="8.527873"><ele>460.0</ele><time>2026-04-04T10:48:36.967Z</time></trkpt><trkpt lat="44.4943372" lon="8.5280623"><ele>463.0</ele><time>2026-04-04T10:48:37.967Z</time></trkpt><trkpt lat="44.4942452" lon="8.5282439"><ele>466.0</ele><time>2026-04-04T10:48:38.967Z</time></trkpt><trkpt lat="44.4941427" lon="8.52841"><ele>469.0</ele><time>2026-04-04T10:48:39.967Z</time></trkpt><trkpt lat="44.4940558" lon="8.5285561"><ele>469.0</ele><time>2026-04-04T10:48:40.967Z</time></trkpt><trkpt lat="44.4939858" lon="8.5286865"><ele>469.0</ele><time>2026-04-04T10:48:41.967Z</time></trkpt><trkpt lat="44.4939421" lon="8.5288065"><ele>469.0</ele><time>2026-04-04T10:48:42.967Z</time></trkpt><trkpt lat="44.493936" lon="8.5289012"><ele>469.0</ele><time>2026-04-04T10:48:43.967Z</time></trkpt><trkpt lat="44.4939626" lon="8.5290204"><ele>469.0</ele><time>2026-04-04T10:48:44.966Z</time></trkpt><trkpt lat="44.4940444" lon="8.5291366"><ele>470.5</ele><time>2026-04-04T10:48:45.967Z</time></trkpt><trkpt lat="44.4941296" lon="8.5292838"><ele>472.0</ele><time>2026-04-04T10:48:46.966Z</time></trkpt><trkpt lat="44.4942124" lon="8.5294581"><ele>473.5</ele><time>2026-04-04T10:48:47.967Z</time></trkpt><trkpt lat="44.4942899" lon="8.5296099"><ele>475.0</ele><time>2026-04-04T10:48:48.967Z</time></trkpt><trkpt lat="44.4943506" lon="8.52976"><ele>475.0</ele><time>2026-04-04T10:48:49.966Z</time></trkpt><trkpt lat="44.4944009" lon="8.5298938"><ele>475.0</ele><time>2026-04-04T10:48:50.967Z</time></trkpt><trkpt lat="44.4944464" lon="8.5300331"><ele>475.0</ele><time>2026-04-04T10:48:51.967Z</time></trkpt><trkpt lat="44.4945156" lon="8.5301496"><ele>475.0</ele><time>2026-04-04T10:48:52.967Z</time></trkpt><trkpt lat="44.4946165" lon="8.5302625"><ele>476.5</ele><time>2026-04-04T10:48:53.967Z</time></trkpt><trkpt lat="44.4947278" lon="8.5303528"><ele>478.0</ele><time>2026-04-04T10:48:54.967Z</time></trkpt><trkpt lat="44.4948384" lon="8.530451"><ele>479.5</ele><time>2026-04-04T10:48:55.967Z</time></trkpt><trkpt lat="44.4949438" lon="8.5305536"><ele>481.0</ele><time>2026-04-04T10:48:56.966Z</time></trkpt><trkpt lat="44.4950529" lon="8.530657"><ele>481.0</ele><time>2026-04-04T10:48:57.967Z</time></trkpt><trkpt lat="44.4951669" lon="8.5307785"><ele>481.0</ele><time>2026-04-04T10:48:58.967Z</time></trkpt><trkpt lat="44.4952714" lon="8.5308947"><ele>481.0</ele><time>2026-04-04T10:48:59.966Z</time></trkpt><trkpt lat="44.4953692" lon="8.5310069"><ele>481.0</ele><time>2026-04-04T10:49:00.967Z</time></trkpt><trkpt lat="44.4954601" lon="8.5311106"><ele>484.25</ele><time>2026-04-04T10:49:01.967Z</time></trkpt><trkpt lat="44.4955525" lon="8.5312175"><ele>487.5</ele><time>2026-04-04T10:49:02.967Z</time></trkpt><trkpt lat="44.4956446" lon="8.531329"><ele>490.75</ele><time>2026-04-04T10:49:03.967Z</time></trkpt><trkpt lat="44.4957247" lon="8.5314428"><ele>494.0</ele><time>2026-04-04T10:49:04.967Z</time></trkpt><trkpt lat="44.4957767" lon="8.5315542"><ele>494.0</ele><time>2026-04-04T10:49:05.967Z</time></trkpt><trkpt lat="44.4958087" lon="8.5316739"><ele>494.0</ele><time>2026-04-04T10:49:06.966Z</time></trkpt><trkpt lat="44.4957974" lon="8.5317999"><ele>494.0</ele><time>2026-04-04T10:49:07.967Z</time></trkpt><trkpt lat="44.4957706" lon="8.5319401"><ele>494.0</ele><time>2026-04-04T10:49:08.967Z</time></trkpt><trkpt lat="44.4957273" lon="8.5320777"><ele>494.0</ele><time>2026-04-04T10:49:09.967Z</time></trkpt><trkpt lat="44.4956813" lon="8.5322161"><ele>494.5</ele><time>2026-04-04T10:49:10.967Z</time></trkpt><trkpt lat="44.4956437" lon="8.5323628"><ele>495.0</ele><time>2026-04-04T10:49:11.967Z</time></trkpt><trkpt lat="44.4956293" lon="8.5325183"><ele>495.5</ele><time>2026-04-04T10:49:12.966Z</time></trkpt><trkpt lat="44.4956325" lon="8.5326939"><ele>496.0</ele><time>2026-04-04T10:49:13.966Z</time></trkpt><trkpt lat="44.4956297" lon="8.5328742"><ele>497.75</ele><time>2026-04-04T10:49:14.967Z</time></trkpt><trkpt lat="44.4956036" lon="8.533041"><ele>499.5</ele><time>2026-04-04T10:49:15.966Z</time></trkpt><trkpt lat="44.4955677" lon="8.5332094"><ele>501.25</ele><time>2026-04-04T10:49:16.967Z</time></trkpt><trkpt lat="44.4955384" lon="8.5333679"><ele>503.0</ele><time>2026-04-04T10:49:17.967Z</time></trkpt><trkpt lat="44.495523" lon="8.5335365"><ele>503.25</ele><time>2026-04-04T10:49:18.967Z</time></trkpt><trkpt lat="44.495541" lon="8.5337275"><ele>503.5</ele><time>2026-04-04T10:49:19.967Z</time></trkpt><trkpt lat="44.4955838" lon="8.5338967"><ele>503.75</ele><time>2026-04-04T10:49:20.967Z</time></trkpt><trkpt lat="44.4956376" lon="8.534067"><ele>504.0</ele><time>2026-04-04T10:49:21.966Z</time></trkpt><trkpt lat="44.4957098" lon="8.5342169"><ele>504.0</ele><time>2026-04-04T10:49:22.967Z</time></trkpt><trkpt lat="44.4957964" lon="8.5343627"><ele>504.0</ele><time>2026-04-04T10:49:23.966Z</time></trkpt><trkpt lat="44.4958965" lon="8.5345051"><ele>504.0</ele><time>2026-04-04T10:49:24.967Z</time></trkpt><trkpt lat="44.4960091" lon="8.5346365"><ele>504.0</ele><time>2026-04-04T10:49:25.967Z</time></trkpt><trkpt lat="44.4961279" lon="8.5347433"><ele>504.0</ele><time>2026-04-04T10:49:26.967Z</time></trkpt><trkpt lat="44.4962358" lon="8.5348343"><ele>504.0</ele><time>2026-04-04T10:49:27.967Z</time></trkpt><trkpt lat="44.4963331" lon="8.534906"><ele>504.0</ele><time>2026-04-04T10:49:28.967Z</time></trkpt><trkpt lat="44.4964241" lon="8.534965"><ele>504.0</ele><time>2026-04-04T10:49:29.966Z</time></trkpt><trkpt lat="44.4965013" lon="8.534959"><ele>504.0</ele><time>2026-04-04T10:49:30.967Z</time></trkpt><trkpt lat="44.496575" lon="8.5349009"><ele>504.0</ele><time>2026-04-04T10:49:31.967Z</time></trkpt><trkpt lat="44.4966569" lon="8.534778"><ele>504.0</ele><time>2026-04-04T10:49:32.967Z</time></trkpt><trkpt lat="44.4967162" lon="8.5345849"><ele>504.0</ele><time>2026-04-04T10:49:33.967Z</time></trkpt><trkpt lat="44.4967737" lon="8.5343746"><ele>504.0</ele><time>2026-04-04T10:49:34.967Z</time></trkpt><trkpt lat="44.4968386" lon="8.5342047"><ele>506.75</ele><time>2026-04-04T10:49:35.967Z</time></trkpt><trkpt lat="44.4969133" lon="8.5340978"><ele>509.5</ele><time>2026-04-04T10:49:36.966Z</time></trkpt><trkpt lat="44.4970343" lon="8.5340279"><ele>512.25</ele><time>2026-04-04T10:49:37.967Z</time></trkpt><trkpt lat="44.4971676" lon="8.5339681"><ele>515.0</ele><time>2026-04-04T10:49:38.966Z</time></trkpt><trkpt lat="44.4972952" lon="8.5339224"><ele>515.0</ele><time>2026-04-04T10:49:39.966Z</time></trkpt><trkpt lat="44.4974425" lon="8.5338845"><ele>515.0</ele><time>2026-04-04T10:49:40.967Z</time></trkpt><trkpt lat="44.4975843" lon="8.5339021"><ele>515.0</ele><time>2026-04-04T10:49:41.967Z</time></trkpt><trkpt lat="44.497731" lon="8.5339711"><ele>515.0</ele><time>2026-04-04T10:49:42.966Z</time></trkpt><trkpt lat="44.497877" lon="8.5340891"><ele>514.6666666666666</ele><time>2026-04-04T10:49:43.967Z</time></trkpt><trkpt lat="44.4980252" lon="8.5342352"><ele>514.3333333333334</ele><time>2026-04-04T10:49:44.966Z</time></trkpt><trkpt lat="44.4981611" lon="8.5344103"><ele>514.0</ele><time>2026-04-04T10:49:45.967Z</time></trkpt><trkpt lat="44.4982919" lon="8.5346123"><ele>516.3333333333334</ele><time>2026-04-04T10:49:46.967Z</time></trkpt><trkpt lat="44.4983762" lon="8.5348349"><ele>518.6666666666666</ele><time>2026-04-04T10:49:47.966Z</time></trkpt><trkpt lat="44.4984325" lon="8.5350728"><ele>521.0</ele><time>2026-04-04T10:49:48.966Z</time></trkpt><trkpt lat="44.4984557" lon="8.5353076"><ele>521.3333333333333</ele><time>2026-04-04T10:49:49.966Z</time></trkpt><trkpt lat="44.4984512" lon="8.5355421"><ele>521.6666666666666</ele><time>2026-04-04T10:49:50.966Z</time></trkpt><trkpt lat="44.4984579" lon="8.5357707"><ele>522.0</ele><time>2026-04-04T10:49:51.966Z</time></trkpt><trkpt lat="44.4984715" lon="8.5359848"><ele>522.0</ele><time>2026-04-04T10:49:52.966Z</time></trkpt><trkpt lat="44.4984639" lon="8.5361936"><ele>522.0</ele><time>2026-04-04T10:49:53.965Z</time></trkpt><trkpt lat="44.4984474" lon="8.536412"><ele>522.0</ele><time>2026-04-04T10:49:54.966Z</time></trkpt><trkpt lat="44.498441" lon="8.5366231"><ele>524.6666666666666</ele><time>2026-04-04T10:49:55.966Z</time></trkpt><trkpt lat="44.4984354" lon="8.536837"><ele>527.3333333333333</ele><time>2026-04-04T10:49:56.966Z</time></trkpt><trkpt lat="44.498428" lon="8.5370564"><ele>530.0</ele><time>2026-04-04T10:49:57.965Z</time></trkpt><trkpt lat="44.498419" lon="8.537258"><ele>530.75</ele><time>2026-04-04T10:49:58.966Z</time></trkpt><trkpt lat="44.4984309" lon="8.5374277"><ele>531.5</ele><time>2026-04-04T10:49:59.966Z</time></trkpt><trkpt lat="44.4984771" lon="8.5375928"><ele>532.25</ele><time>2026-04-04T10:50:00.966Z</time></trkpt><trkpt lat="44.4985404" lon="8.5377561"><ele>533.0</ele><time>2026-04-04T10:50:01.965Z</time></trkpt><trkpt lat="44.4985896" lon="8.5379276"><ele>533.0</ele><time>2026-04-04T10:50:02.966Z</time></trkpt><trkpt lat="44.4985985" lon="8.5380948"><ele>533.0</ele><time>2026-04-04T10:50:03.966Z</time></trkpt><trkpt lat="44.4985891" lon="8.5382499"><ele>533.0</ele><time>2026-04-04T10:50:04.966Z</time></trkpt><trkpt lat="44.498591" lon="8.5384025"><ele>533.0</ele><time>2026-04-04T10:50:05.966Z</time></trkpt><trkpt lat="44.4986187" lon="8.5385512"><ele>533.0</ele><time>2026-04-04T10:50:06.966Z</time></trkpt><trkpt lat="44.4986774" lon="8.5387024"><ele>532.0</ele><time>2026-04-04T10:50:07.966Z</time></trkpt><trkpt lat="44.4987502" lon="8.5388546"><ele>531.0</ele><time>2026-04-04T10:50:08.966Z</time></trkpt><trkpt lat="44.4988324" lon="8.539009"><ele>530.0</ele><time>2026-04-04T10:50:09.965Z</time></trkpt><trkpt lat="44.4989147" lon="8.5391694"><ele>529.0</ele><time>2026-04-04T10:50:10.965Z</time></trkpt><trkpt lat="44.4989819" lon="8.5393346"><ele>533.3333333333334</ele><time>2026-04-04T10:50:11.966Z</time></trkpt><trkpt lat="44.4990514" lon="8.5395149"><ele>537.6666666666666</ele><time>2026-04-04T10:50:12.965Z</time></trkpt><trkpt lat="44.499118" lon="8.5397137"><ele>542.0</ele><time>2026-04-04T10:50:13.966Z</time></trkpt><trkpt lat="44.4991884" lon="8.539918"><ele>543.3333333333333</ele><time>2026-04-04T10:50:14.965Z</time></trkpt><trkpt lat="44.4992615" lon="8.5401291"><ele>544.6666666666666</ele><time>2026-04-04T10:50:15.966Z</time></trkpt><trkpt lat="44.4993288" lon="8.5403507"><ele>546.0</ele><time>2026-04-04T10:50:16.966Z</time></trkpt><trkpt lat="44.4993713" lon="8.540575"><ele>547.3333333333334</ele><time>2026-04-04T10:50:17.965Z</time></trkpt><trkpt lat="44.4993692" lon="8.5408065"><ele>548.6666666666667</ele><time>2026-04-04T10:50:18.966Z</time></trkpt><trkpt lat="44.4993325" lon="8.5410252"><ele>550.0</ele><time>2026-04-04T10:50:19.966Z</time></trkpt><trkpt lat="44.4992932" lon="8.5412139"><ele>551.5</ele><time>2026-04-04T10:50:20.966Z</time></trkpt><trkpt lat="44.4992609" lon="8.5413992"><ele>553.0</ele><time>2026-04-04T10:50:21.965Z</time></trkpt><trkpt lat="44.4992608" lon="8.541592"><ele>554.5</ele><time>2026-04-04T10:50:22.966Z</time></trkpt><trkpt lat="44.4992862" lon="8.5417895"><ele>556.0</ele><time>2026-04-04T10:50:23.966Z</time></trkpt><trkpt lat="44.4993356" lon="8.5419868"><ele>555.3333333333334</ele><time>2026-04-04T10:50:24.966Z</time></trkpt><trkpt lat="44.4994162" lon="8.5421621"><ele>554.6666666666666</ele><time>2026-04-04T10:50:25.966Z</time></trkpt><trkpt lat="44.4995194" lon="8.5423192"><ele>554.0</ele><time>2026-04-04T10:50:26.965Z</time></trkpt><trkpt lat="44.4996341" lon="8.5424733"><ele>560.3333333333333</ele><time>2026-04-04T10:50:27.965Z</time></trkpt><trkpt lat="44.4997387" lon="8.5426379"><ele>566.6666666666666</ele><time>2026-04-04T10:50:28.966Z</time></trkpt><trkpt lat="44.4998165" lon="8.5428332"><ele>573.0</ele><time>2026-04-04T10:50:29.966Z</time></trkpt><trkpt lat="44.4998752" lon="8.543046"><ele>573.6666666666666</ele><time>2026-04-04T10:50:30.966Z</time></trkpt><trkpt lat="44.4999199" lon="8.543275"><ele>574.3333333333333</ele><time>2026-04-04T10:50:31.965Z</time></trkpt><trkpt lat="44.4999562" lon="8.5435273"><ele>575.0</ele><time>2026-04-04T10:50:32.965Z</time></trkpt><trkpt lat="44.4999959" lon="8.5437475"><ele>576.25</ele><time>2026-04-04T10:50:33.966Z</time></trkpt><trkpt lat="44.5000265" lon="8.5439471"><ele>577.5</ele><time>2026-04-04T10:50:34.965Z</time></trkpt><trkpt lat="44.5000451" lon="8.5441343"><ele>578.75</ele><time>2026-04-04T10:50:35.966Z</time></trkpt><trkpt lat="44.5000617" lon="8.5442975"><ele>580.0</ele><time>2026-04-04T10:50:36.966Z</time></trkpt><trkpt lat="44.5000639" lon="8.5444461"><ele>582.2</ele><time>2026-04-04T10:50:37.966Z</time></trkpt><trkpt lat="44.500044" lon="8.5445891"><ele>584.4</ele><time>2026-04-04T10:50:38.965Z</time></trkpt><trkpt lat="44.499995" lon="8.5447135"><ele>586.6</ele><time>2026-04-04T10:50:39.966Z</time></trkpt><trkpt lat="44.4999154" lon="8.5448192"><ele>588.8</ele><time>2026-04-04T10:50:40.966Z</time></trkpt><trkpt lat="44.4998134" lon="8.5448738"><ele>591.0</ele><time>2026-04-04T10:50:41.966Z</time></trkpt><trkpt lat="44.4997015" lon="8.5448915"><ele>591.5</ele><time>2026-04-04T10:50:42.966Z</time></trkpt><trkpt lat="44.4995834" lon="8.5449014"><ele>592.0</ele><time>2026-04-04T10:50:43.966Z</time></trkpt><trkpt lat="44.4994666" lon="8.5449314"><ele>592.5</ele><time>2026-04-04T10:50:44.965Z</time></trkpt><trkpt lat="44.4993416" lon="8.5449653"><ele>593.0</ele><time>2026-04-04T10:50:45.966Z</time></trkpt><trkpt lat="44.4992178" lon="8.5449781"><ele>593.0</ele><time>2026-04-04T10:50:46.966Z</time></trkpt><trkpt lat="44.4990953" lon="8.5449539"><ele>593.0</ele><time>2026-04-04T10:50:47.966Z</time></trkpt><trkpt lat="44.4989821" lon="8.5448934"><ele>593.0</ele><time>2026-04-04T10:50:48.966Z</time></trkpt><trkpt lat="44.4988822" lon="8.5447845"><ele>593.0</ele><time>2026-04-04T10:50:49.966Z</time></trkpt><trkpt lat="44.4988052" lon="8.5446523"><ele>593.0</ele><time>2026-04-04T10:50:50.966Z</time></trkpt><trkpt lat="44.4987432" lon="8.5445484"><ele>593.0</ele><time>2026-04-04T10:50:51.966Z</time></trkpt><trkpt lat="44.4986677" lon="8.5444942"><ele>593.0</ele><time>2026-04-04T10:50:52.966Z</time></trkpt><trkpt lat="44.4985789" lon="8.5445037"><ele>593.0</ele><time>2026-04-04T10:50:53.966Z</time></trkpt><trkpt lat="44.4984835" lon="8.5445708"><ele>593.0</ele><time>2026-04-04T10:50:54.966Z</time></trkpt><trkpt lat="44.4983896" lon="8.5446749"><ele>593.0</ele><time>2026-04-04T10:50:55.966Z</time></trkpt><trkpt lat="44.4982839" lon="8.5447987"><ele>593.0</ele><time>2026-04-04T10:50:56.965Z</time></trkpt><trkpt lat="44.4981818" lon="8.5449284"><ele>593.0</ele><time>2026-04-04T10:50:57.966Z</time></trkpt><trkpt lat="44.4980892" lon="8.5450646"><ele>593.0</ele><time>2026-04-04T10:50:58.965Z</time></trkpt><trkpt lat="44.4980164" lon="8.5451849"><ele>593.0</ele><time>2026-04-04T10:50:59.966Z</time></trkpt><trkpt lat="44.4979517" lon="8.5452893"><ele>593.0</ele><time>2026-04-04T10:51:00.965Z</time></trkpt><trkpt lat="44.4978956" lon="8.5453727"><ele>593.0</ele><time>2026-04-04T10:51:01.965Z</time></trkpt><trkpt lat="44.4978371" lon="8.5454411"><ele>593.0</ele><time>2026-04-04T10:51:02.965Z</time></trkpt><trkpt lat="44.4977638" lon="8.5455393"><ele>593.0</ele><time>2026-04-04T10:51:04.965Z</time></trkpt><trkpt lat="44.4978048" lon="8.5456378"><ele>593.0</ele><time>2026-04-04T10:51:07.966Z</time></trkpt><trkpt lat="44.4979419" lon="8.5455867"><ele>593.0</ele><time>2026-04-04T10:51:09.966Z</time></trkpt><trkpt lat="44.4980408" lon="8.5455293"><ele>593.0</ele><time>2026-04-04T10:51:10.965Z</time></trkpt><trkpt lat="44.4981577" lon="8.5454692"><ele>593.0</ele><time>2026-04-04T10:51:11.966Z</time></trkpt><trkpt lat="44.4982791" lon="8.5454108"><ele>593.0</ele><time>2026-04-04T10:51:12.966Z</time></trkpt><trkpt lat="44.4984053" lon="8.5453669"><ele>593.0</ele><time>2026-04-04T10:51:13.966Z</time></trkpt><trkpt lat="44.498531" lon="8.5453534"><ele>593.0</ele><time>2026-04-04T10:51:14.965Z</time></trkpt><trkpt lat="44.4986654" lon="8.5453833"><ele>593.0</ele><time>2026-04-04T10:51:15.965Z</time></trkpt><trkpt lat="44.4988029" lon="8.545449"><ele>593.0</ele><time>2026-04-04T10:51:16.966Z</time></trkpt><trkpt lat="44.4989365" lon="8.5455335"><ele>597.0</ele><time>2026-04-04T10:51:17.965Z</time></trkpt><trkpt lat="44.4990768" lon="8.5456267"><ele>601.0</ele><time>2026-04-04T10:51:18.965Z</time></trkpt><trkpt lat="44.4992197" lon="8.5457228"><ele>605.0</ele><time>2026-04-04T10:51:19.965Z</time></trkpt><trkpt lat="44.4993622" lon="8.5458015"><ele>605.0</ele><time>2026-04-04T10:51:20.966Z</time></trkpt><trkpt lat="44.4994955" lon="8.5458568"><ele>605.0</ele><time>2026-04-04T10:51:21.966Z</time></trkpt><trkpt lat="44.4996221" lon="8.5458842"><ele>605.0</ele><time>2026-04-04T10:51:22.965Z</time></trkpt><trkpt lat="44.4997461" lon="8.5458649"><ele>605.0</ele><time>2026-04-04T10:51:23.966Z</time></trkpt><trkpt lat="44.4998729" lon="8.545797"><ele>603.0</ele><time>2026-04-04T10:51:24.966Z</time></trkpt><trkpt lat="44.5000041" lon="8.5456901"><ele>601.0</ele><time>2026-04-04T10:51:25.966Z</time></trkpt><trkpt lat="44.5001289" lon="8.5455416"><ele>599.0</ele><time>2026-04-04T10:51:26.965Z</time></trkpt><trkpt lat="44.5002462" lon="8.5453593"><ele>599.3333333333333</ele><time>2026-04-04T10:51:27.966Z</time></trkpt><trkpt lat="44.5003756" lon="8.5451755"><ele>599.6666666666666</ele><time>2026-04-04T10:51:28.965Z</time></trkpt><trkpt lat="44.500517" lon="8.5449967"><ele>600.0</ele><time>2026-04-04T10:51:29.966Z</time></trkpt><trkpt lat="44.5006691" lon="8.5448221"><ele>600.0</ele><time>2026-04-04T10:51:30.965Z</time></trkpt><trkpt lat="44.5008315" lon="8.5446508"><ele>600.0</ele><time>2026-04-04T10:51:31.965Z</time></trkpt><trkpt lat="44.5009925" lon="8.5444741"><ele>600.0</ele><time>2026-04-04T10:51:32.966Z</time></trkpt><trkpt lat="44.5011521" lon="8.5443"><ele>605.6666666666666</ele><time>2026-04-04T10:51:33.966Z</time></trkpt><trkpt lat="44.5012967" lon="8.5441347"><ele>611.3333333333333</ele><time>2026-04-04T10:51:34.966Z</time></trkpt><trkpt lat="44.5014232" lon="8.5439797"><ele>617.0</ele><time>2026-04-04T10:51:35.965Z</time></trkpt><trkpt lat="44.5015406" lon="8.5438522"><ele>617.0</ele><time>2026-04-04T10:51:36.966Z</time></trkpt><trkpt lat="44.5016639" lon="8.5437499"><ele>617.0</ele><time>2026-04-04T10:51:37.965Z</time></trkpt><trkpt lat="44.5017929" lon="8.5436724"><ele>617.0</ele><time>2026-04-04T10:51:38.966Z</time></trkpt><trkpt lat="44.5019389" lon="8.5436172"><ele>617.0</ele><time>2026-04-04T10:51:39.966Z</time></trkpt><trkpt lat="44.5020789" lon="8.5435634"><ele>619.75</ele><time>2026-04-04T10:51:40.966Z</time></trkpt><trkpt lat="44.5022099" lon="8.5434895"><ele>622.5</ele><time>2026-04-04T10:51:41.965Z</time></trkpt><trkpt lat="44.5023174" lon="8.5433777"><ele>625.25</ele><time>2026-04-04T10:51:42.966Z</time></trkpt><trkpt lat="44.5024182" lon="8.5432327"><ele>628.0</ele><time>2026-04-04T10:51:43.966Z</time></trkpt><trkpt lat="44.5025089" lon="8.543052"><ele>624.6666666666667</ele><time>2026-04-04T10:51:44.965Z</time></trkpt><trkpt lat="44.502584" lon="8.5428399"><ele>621.3333333333334</ele><time>2026-04-04T10:51:45.966Z</time></trkpt><trkpt lat="44.5026438" lon="8.5426081"><ele>618.0</ele><time>2026-04-04T10:51:46.965Z</time></trkpt><trkpt lat="44.5026913" lon="8.5423788"><ele>618.0</ele><time>2026-04-04T10:51:47.966Z</time></trkpt><trkpt lat="44.5027332" lon="8.5421599"><ele>618.0</ele><time>2026-04-04T10:51:48.965Z</time></trkpt><trkpt lat="44.5027738" lon="8.5419519"><ele>618.0</ele><time>2026-04-04T10:51:49.966Z</time></trkpt><trkpt lat="44.5028129" lon="8.541758"><ele>616.75</ele><time>2026-04-04T10:51:50.966Z</time></trkpt><trkpt lat="44.502859" lon="8.5415756"><ele>615.5</ele><time>2026-04-04T10:51:51.966Z</time></trkpt><trkpt lat="44.5029028" lon="8.5413876"><ele>614.25</ele><time>2026-04-04T10:51:52.965Z</time></trkpt><trkpt lat="44.5029579" lon="8.5411988"><ele>613.0</ele><time>2026-04-04T10:51:53.966Z</time></trkpt><trkpt lat="44.503016" lon="8.5410015"><ele>624.0</ele><time>2026-04-04T10:51:54.966Z</time></trkpt><trkpt lat="44.5030656" lon="8.5407941"><ele>635.0</ele><time>2026-04-04T10:51:55.965Z</time></trkpt><trkpt lat="44.5031126" lon="8.5405821"><ele>646.0</ele><time>2026-04-04T10:51:56.966Z</time></trkpt><trkpt lat="44.5031537" lon="8.5403685"><ele>646.3333333333334</ele><time>2026-04-04T10:51:57.965Z</time></trkpt><trkpt lat="44.5031818" lon="8.5401364"><ele>646.6666666666666</ele><time>2026-04-04T10:51:58.966Z</time></trkpt><trkpt lat="44.5032071" lon="8.5399005"><ele>647.0</ele><time>2026-04-04T10:51:59.966Z</time></trkpt><trkpt lat="44.5032297" lon="8.5396665"><ele>647.3333333333333</ele><time>2026-04-04T10:52:00.966Z</time></trkpt><trkpt lat="44.5032436" lon="8.5394404"><ele>647.6666666666666</ele><time>2026-04-04T10:52:01.965Z</time></trkpt><trkpt lat="44.5032652" lon="8.5392098"><ele>648.0</ele><time>2026-04-04T10:52:02.966Z</time></trkpt><trkpt lat="44.5032854" lon="8.5389978"><ele>648.0</ele><time>2026-04-04T10:52:03.966Z</time></trkpt><trkpt lat="44.503308" lon="8.5387895"><ele>648.0</ele><time>2026-04-04T10:52:04.966Z</time></trkpt><trkpt lat="44.5033342" lon="8.5385826"><ele>648.0</ele><time>2026-04-04T10:52:05.965Z</time></trkpt><trkpt lat="44.5033628" lon="8.5383785"><ele>648.0</ele><time>2026-04-04T10:52:06.966Z</time></trkpt><trkpt lat="44.5033989" lon="8.5381872"><ele>648.5</ele><time>2026-04-04T10:52:07.965Z</time></trkpt><trkpt lat="44.5034271" lon="8.5380115"><ele>649.0</ele><time>2026-04-04T10:52:08.966Z</time></trkpt><trkpt lat="44.5034577" lon="8.5378574"><ele>649.5</ele><time>2026-04-04T10:52:09.966Z</time></trkpt><trkpt lat="44.5034834" lon="8.5377127"><ele>650.0</ele><time>2026-04-04T10:52:10.966Z</time></trkpt><trkpt lat="44.5034987" lon="8.5375625"><ele>650.0</ele><time>2026-04-04T10:52:11.966Z</time></trkpt><trkpt lat="44.5035096" lon="8.5374174"><ele>650.0</ele><time>2026-04-04T10:52:12.966Z</time></trkpt><trkpt lat="44.5035221" lon="8.5372803"><ele>650.0</ele><time>2026-04-04T10:52:13.966Z</time></trkpt><trkpt lat="44.503546" lon="8.5371561"><ele>650.0</ele><time>2026-04-04T10:52:14.966Z</time></trkpt><trkpt lat="44.5035823" lon="8.5370521"><ele>650.0</ele><time>2026-04-04T10:52:15.966Z</time></trkpt><trkpt lat="44.503634" lon="8.5369713"><ele>650.0</ele><time>2026-04-04T10:52:16.965Z</time></trkpt><trkpt lat="44.5037112" lon="8.5369283"><ele>650.0</ele><time>2026-04-04T10:52:17.966Z</time></trkpt><trkpt lat="44.503804" lon="8.5369186"><ele>650.0</ele><time>2026-04-04T10:52:18.966Z</time></trkpt><trkpt lat="44.5039109" lon="8.5369426"><ele>650.0</ele><time>2026-04-04T10:52:19.966Z</time></trkpt><trkpt lat="44.5040178" lon="8.5369533"><ele>650.0</ele><time>2026-04-04T10:52:20.965Z</time></trkpt><trkpt lat="44.5041116" lon="8.5369249"><ele>655.0</ele><time>2026-04-04T10:52:21.966Z</time></trkpt><trkpt lat="44.5041806" lon="8.5368634"><ele>660.0</ele><time>2026-04-04T10:52:22.965Z</time></trkpt><trkpt lat="44.5042412" lon="8.5367709"><ele>665.0</ele><time>2026-04-04T10:52:23.966Z</time></trkpt><trkpt lat="44.5042839" lon="8.5366579"><ele>670.0</ele><time>2026-04-04T10:52:24.966Z</time></trkpt><trkpt lat="44.5042984" lon="8.5365178"><ele>675.0</ele><time>2026-04-04T10:52:25.965Z</time></trkpt><trkpt lat="44.5043213" lon="8.5363848"><ele>675.0</ele><time>2026-04-04T10:52:26.966Z</time></trkpt><trkpt lat="44.5043535" lon="8.5362646"><ele>675.0</ele><time>2026-04-04T10:52:27.965Z</time></trkpt><trkpt lat="44.5044013" lon="8.5361679"><ele>675.0</ele><time>2026-04-04T10:52:28.966Z</time></trkpt><trkpt lat="44.504474" lon="8.5360952"><ele>675.0</ele><time>2026-04-04T10:52:29.966Z</time></trkpt><trkpt lat="44.504563" lon="8.5360485"><ele>675.0</ele><time>2026-04-04T10:52:30.965Z</time></trkpt><trkpt lat="44.5046694" lon="8.5360097"><ele>678.0</ele><time>2026-04-04T10:52:31.966Z</time></trkpt><trkpt lat="44.5047807" lon="8.5359694"><ele>681.0</ele><time>2026-04-04T10:52:32.966Z</time></trkpt><trkpt lat="44.5048984" lon="8.5359313"><ele>684.0</ele><time>2026-04-04T10:52:33.966Z</time></trkpt><trkpt lat="44.505021" lon="8.5358882"><ele>687.0</ele><time>2026-04-04T10:52:34.966Z</time></trkpt><trkpt lat="44.5051285" lon="8.5358323"><ele>687.0</ele><time>2026-04-04T10:52:35.966Z</time></trkpt><trkpt lat="44.5052385" lon="8.5357728"><ele>687.0</ele><time>2026-04-04T10:52:36.966Z</time></trkpt><trkpt lat="44.5053488" lon="8.5357204"><ele>687.0</ele><time>2026-04-04T10:52:37.966Z</time></trkpt><trkpt lat="44.5054583" lon="8.535669"><ele>687.0</ele><time>2026-04-04T10:52:38.966Z</time></trkpt><trkpt lat="44.5055688" lon="8.5356237"><ele>688.4000000000001</ele><time>2026-04-04T10:52:39.966Z</time></trkpt><trkpt lat="44.5056786" lon="8.5356081"><ele>689.8000000000001</ele><time>2026-04-04T10:52:40.966Z</time></trkpt><trkpt lat="44.505787" lon="8.5356279"><ele>691.2</ele><time>2026-04-04T10:52:41.965Z</time></trkpt><trkpt lat="44.5058922" lon="8.5356901"><ele>692.6</ele><time>2026-04-04T10:52:42.965Z</time></trkpt><trkpt lat="44.5059838" lon="8.5357828"><ele>694.0</ele><time>2026-04-04T10:52:43.965Z</time></trkpt><trkpt lat="44.5060663" lon="8.5359072"><ele>694.0</ele><time>2026-04-04T10:52:44.966Z</time></trkpt><trkpt lat="44.5061388" lon="8.536059"><ele>694.0</ele><time>2026-04-04T10:52:45.965Z</time></trkpt><trkpt lat="44.5062036" lon="8.5362115"><ele>694.0</ele><time>2026-04-04T10:52:46.966Z</time></trkpt><trkpt lat="44.506273" lon="8.5363551"><ele>694.0</ele><time>2026-04-04T10:52:47.966Z</time></trkpt><trkpt lat="44.5063497" lon="8.5364938"><ele>696.25</ele><time>2026-04-04T10:52:48.966Z</time></trkpt><trkpt lat="44.5064409" lon="8.5366105"><ele>698.5</ele><time>2026-04-04T10:52:49.966Z</time></trkpt><trkpt lat="44.5065389" lon="8.5366974"><ele>700.75</ele><time>2026-04-04T10:52:50.965Z</time></trkpt><trkpt lat="44.5066453" lon="8.5367559"><ele>703.0</ele><time>2026-04-04T10:52:51.966Z</time></trkpt><trkpt lat="44.5067568" lon="8.5368009"><ele>703.0</ele><time>2026-04-04T10:52:52.966Z</time></trkpt><trkpt lat="44.5068668" lon="8.5368353"><ele>703.0</ele><time>2026-04-04T10:52:53.966Z</time></trkpt><trkpt lat="44.5069711" lon="8.5368675"><ele>703.0</ele><time>2026-04-04T10:52:54.966Z</time></trkpt><trkpt lat="44.5070716" lon="8.5369235"><ele>703.0</ele><time>2026-04-04T10:52:55.965Z</time></trkpt><trkpt lat="44.5071656" lon="8.5370014"><ele>703.0</ele><time>2026-04-04T10:52:56.965Z</time></trkpt><trkpt lat="44.5072509" lon="8.5371005"><ele>704.2</ele><time>2026-04-04T10:52:57.966Z</time></trkpt><trkpt lat="44.5073214" lon="8.5372098"><ele>705.4</ele><time>2026-04-04T10:52:58.965Z</time></trkpt><trkpt lat="44.5073866" lon="8.5373304"><ele>706.6</ele><time>2026-04-04T10:52:59.965Z</time></trkpt><trkpt lat="44.5074481" lon="8.5374561"><ele>707.8000000000001</ele><time>2026-04-04T10:53:00.966Z</time></trkpt><trkpt lat="44.5075063" lon="8.5375867"><ele>709.0</ele><time>2026-04-04T10:53:01.966Z</time></trkpt><trkpt lat="44.5075663" lon="8.5377117"><ele>709.0</ele><time>2026-04-04T10:53:02.966Z</time></trkpt><trkpt lat="44.5076249" lon="8.5378303"><ele>709.0</ele><time>2026-04-04T10:53:03.965Z</time></trkpt><trkpt lat="44.5076828" lon="8.5379421"><ele>709.0</ele><time>2026-04-04T10:53:04.965Z</time></trkpt><trkpt lat="44.5077418" lon="8.5380567"><ele>709.0</ele><time>2026-04-04T10:53:05.966Z</time></trkpt><trkpt lat="44.5078089" lon="8.5381741"><ele>709.0</ele><time>2026-04-04T10:53:06.966Z</time></trkpt><trkpt lat="44.5078772" lon="8.538289"><ele>710.6</ele><time>2026-04-04T10:53:07.965Z</time></trkpt><trkpt lat="44.5079481" lon="8.5384043"><ele>712.2</ele><time>2026-04-04T10:53:08.965Z</time></trkpt><trkpt lat="44.5080229" lon="8.5385122"><ele>713.8000000000001</ele><time>2026-04-04T10:53:09.966Z</time></trkpt><trkpt lat="44.5080984" lon="8.5385991"><ele>715.4000000000001</ele><time>2026-04-04T10:53:10.965Z</time></trkpt><trkpt lat="44.5081789" lon="8.538699"><ele>717.0</ele><time>2026-04-04T10:53:11.965Z</time></trkpt><trkpt lat="44.508261" lon="8.5387937"><ele>718.2</ele><time>2026-04-04T10:53:12.965Z</time></trkpt><trkpt lat="44.508341" lon="8.5388809"><ele>719.4000000000001</ele><time>2026-04-04T10:53:13.966Z</time></trkpt><trkpt lat="44.5084248" lon="8.5389872"><ele>720.5999999999999</ele><time>2026-04-04T10:53:14.966Z</time></trkpt><trkpt lat="44.5085063" lon="8.5390571"><ele>721.8</ele><time>2026-04-04T10:53:15.966Z</time></trkpt><trkpt lat="44.5085891" lon="8.5391303"><ele>723.0</ele><time>2026-04-04T10:53:16.966Z</time></trkpt><trkpt lat="44.508682" lon="8.5392043"><ele>724.5999999999999</ele><time>2026-04-04T10:53:17.966Z</time></trkpt><trkpt lat="44.5087793" lon="8.5392689"><ele>726.1999999999999</ele><time>2026-04-04T10:53:18.966Z</time></trkpt><trkpt lat="44.5088759" lon="8.5393029"><ele>727.8</ele><time>2026-04-04T10:53:19.966Z</time></trkpt><trkpt lat="44.5089739" lon="8.5393199"><ele>729.4</ele><time>2026-04-04T10:53:20.966Z</time></trkpt><trkpt lat="44.5090772" lon="8.5393257"><ele>731.0</ele><time>2026-04-04T10:53:21.966Z</time></trkpt><trkpt lat="44.5091878" lon="8.5393243"><ele>731.0</ele><time>2026-04-04T10:53:22.966Z</time></trkpt><trkpt lat="44.5093027" lon="8.539296"><ele>731.0</ele><time>2026-04-04T10:53:23.966Z</time></trkpt><trkpt lat="44.5094188" lon="8.5392561"><ele>731.0</ele><time>2026-04-04T10:53:24.966Z</time></trkpt><trkpt lat="44.509524" lon="8.5392014"><ele>731.0</ele><time>2026-04-04T10:53:25.965Z</time></trkpt><trkpt lat="44.5096266" lon="8.5391446"><ele>732.25</ele><time>2026-04-04T10:53:26.965Z</time></trkpt><trkpt lat="44.5097346" lon="8.5390975"><ele>733.5</ele><time>2026-04-04T10:53:27.966Z</time></trkpt><trkpt lat="44.5098483" lon="8.5390558"><ele>734.75</ele><time>2026-04-04T10:53:28.965Z</time></trkpt><trkpt lat="44.50996" lon="8.5390337"><ele>736.0</ele><time>2026-04-04T10:53:29.966Z</time></trkpt><trkpt lat="44.5100671" lon="8.5390272"><ele>736.0</ele><time>2026-04-04T10:53:30.966Z</time></trkpt><trkpt lat="44.510181" lon="8.5390242"><ele>736.0</ele><time>2026-04-04T10:53:31.965Z</time></trkpt><trkpt lat="44.5102994" lon="8.5390004"><ele>736.0</ele><time>2026-04-04T10:53:32.966Z</time></trkpt><trkpt lat="44.5104075" lon="8.539038"><ele>736.0</ele><time>2026-04-04T10:53:33.966Z</time></trkpt><trkpt lat="44.5105266" lon="8.5390269"><ele>736.75</ele><time>2026-04-04T10:53:34.965Z</time></trkpt><trkpt lat="44.5106489" lon="8.5390039"><ele>737.5</ele><time>2026-04-04T10:53:35.965Z</time></trkpt><trkpt lat="44.5107734" lon="8.5389864"><ele>738.25</ele><time>2026-04-04T10:53:36.965Z</time></trkpt><trkpt lat="44.5108999" lon="8.5389758"><ele>739.0</ele><time>2026-04-04T10:53:37.966Z</time></trkpt><trkpt lat="44.5110245" lon="8.5389451"><ele>739.0</ele><time>2026-04-04T10:53:38.965Z</time></trkpt><trkpt lat="44.5111461" lon="8.5388867"><ele>739.0</ele><time>2026-04-04T10:53:39.965Z</time></trkpt><trkpt lat="44.5112606" lon="8.5388061"><ele>739.0</ele><time>2026-04-04T10:53:40.966Z</time></trkpt><trkpt lat="44.5113679" lon="8.5387295"><ele>739.0</ele><time>2026-04-04T10:53:41.966Z</time></trkpt><trkpt lat="44.5114857" lon="8.5386674"><ele>738.25</ele><time>2026-04-04T10:53:42.966Z</time></trkpt><trkpt lat="44.5116187" lon="8.5386326"><ele>737.5</ele><time>2026-04-04T10:53:43.966Z</time></trkpt><trkpt lat="44.5117579" lon="8.5386188"><ele>736.75</ele><time>2026-04-04T10:53:44.966Z</time></trkpt><trkpt lat="44.5119007" lon="8.5386127"><ele>736.0</ele><time>2026-04-04T10:53:45.965Z</time></trkpt><trkpt lat="44.5120428" lon="8.5385978"><ele>736.25</ele><time>2026-04-04T10:53:46.966Z</time></trkpt><trkpt lat="44.5121809" lon="8.5385604"><ele>736.5</ele><time>2026-04-04T10:53:47.966Z</time></trkpt><trkpt lat="44.512314" lon="8.5385193"><ele>736.75</ele><time>2026-04-04T10:53:48.966Z</time></trkpt><trkpt lat="44.512437" lon="8.5384696"><ele>737.0</ele><time>2026-04-04T10:53:49.966Z</time></trkpt><trkpt lat="44.512561" lon="8.5384298"><ele>737.0</ele><time>2026-04-04T10:53:50.966Z</time></trkpt><trkpt lat="44.5126811" lon="8.5383978"><ele>737.0</ele><time>2026-04-04T10:53:51.966Z</time></trkpt><trkpt lat="44.5128042" lon="8.5383878"><ele>737.0</ele><time>2026-04-04T10:53:52.965Z</time></trkpt><trkpt lat="44.5129229" lon="8.5384095"><ele>737.0</ele><time>2026-04-04T10:53:53.966Z</time></trkpt><trkpt lat="44.5130338" lon="8.5384785"><ele>737.0</ele><time>2026-04-04T10:53:54.965Z</time></trkpt><trkpt lat="44.5131309" lon="8.5385902"><ele>737.0</ele><time>2026-04-04T10:53:55.966Z</time></trkpt><trkpt lat="44.5132245" lon="8.5387174"><ele>737.0</ele><time>2026-04-04T10:53:56.966Z</time></trkpt><trkpt lat="44.5133207" lon="8.5388475"><ele>737.0</ele><time>2026-04-04T10:53:57.966Z</time></trkpt><trkpt lat="44.5134281" lon="8.5389755"><ele>738.25</ele><time>2026-04-04T10:53:58.966Z</time></trkpt><trkpt lat="44.513544" lon="8.539099"><ele>739.5</ele><time>2026-04-04T10:53:59.965Z</time></trkpt><trkpt lat="44.5136596" lon="8.5392307"><ele>740.75</ele><time>2026-04-04T10:54:00.965Z</time></trkpt><trkpt lat="44.5137662" lon="8.5393671"><ele>742.0</ele><time>2026-04-04T10:54:01.966Z</time></trkpt><trkpt lat="44.5138631" lon="8.5395139"><ele>743.5</ele><time>2026-04-04T10:54:02.965Z</time></trkpt><trkpt lat="44.5139395" lon="8.5396642"><ele>745.0</ele><time>2026-04-04T10:54:03.965Z</time></trkpt><trkpt lat="44.5140085" lon="8.5398171"><ele>746.5</ele><time>2026-04-04T10:54:04.966Z</time></trkpt><trkpt lat="44.5140891" lon="8.539945"><ele>748.0</ele><time>2026-04-04T10:54:05.966Z</time></trkpt><trkpt lat="44.5141888" lon="8.5400308"><ele>748.0</ele><time>2026-04-04T10:54:06.966Z</time></trkpt><trkpt lat="44.5143053" lon="8.5400822"><ele>748.0</ele><time>2026-04-04T10:54:07.965Z</time></trkpt><trkpt lat="44.5144327" lon="8.54013"><ele>748.0</ele><time>2026-04-04T10:54:08.966Z</time></trkpt><trkpt lat="44.514559" lon="8.5401676"><ele>748.0</ele><time>2026-04-04T10:54:09.966Z</time></trkpt><trkpt lat="44.5146886" lon="8.5402102"><ele>748.25</ele><time>2026-04-04T10:54:10.965Z</time></trkpt><trkpt lat="44.5148262" lon="8.5402634"><ele>748.5</ele><time>2026-04-04T10:54:11.966Z</time></trkpt><trkpt lat="44.5149661" lon="8.5403255"><ele>748.75</ele><time>2026-04-04T10:54:12.965Z</time></trkpt><trkpt lat="44.5151049" lon="8.5403832"><ele>749.0</ele><time>2026-04-04T10:54:13.966Z</time></trkpt><trkpt lat="44.5152403" lon="8.54044"><ele>749.5</ele><time>2026-04-04T10:54:14.965Z</time></trkpt><trkpt lat="44.5153713" lon="8.5404856"><ele>750.0</ele><time>2026-04-04T10:54:15.966Z</time></trkpt><trkpt lat="44.515506" lon="8.5405004"><ele>750.5</ele><time>2026-04-04T10:54:16.966Z</time></trkpt><trkpt lat="44.5156391" lon="8.5404846"><ele>751.0</ele><time>2026-04-04T10:54:17.965Z</time></trkpt><trkpt lat="44.5157564" lon="8.5404201"><ele>751.75</ele><time>2026-04-04T10:54:18.965Z</time></trkpt><trkpt lat="44.5158653" lon="8.5403279"><ele>752.5</ele><time>2026-04-04T10:54:19.965Z</time></trkpt><trkpt lat="44.5159642" lon="8.5401935"><ele>753.25</ele><time>2026-04-04T10:54:20.966Z</time></trkpt><trkpt lat="44.5160494" lon="8.5400235"><ele>754.0</ele><time>2026-04-04T10:54:21.966Z</time></trkpt><trkpt lat="44.5161228" lon="8.5398468"><ele>754.0</ele><time>2026-04-04T10:54:22.965Z</time></trkpt><trkpt lat="44.51617" lon="8.5396719"><ele>754.0</ele><time>2026-04-04T10:54:23.966Z</time></trkpt><trkpt lat="44.5161934" lon="8.5394938"><ele>754.0</ele><time>2026-04-04T10:54:24.965Z</time></trkpt><trkpt lat="44.5161903" lon="8.5393223"><ele>754.0</ele><time>2026-04-04T10:54:25.966Z</time></trkpt><trkpt lat="44.5161695" lon="8.53916"><ele>753.1666666666667</ele><time>2026-04-04T10:54:26.965Z</time></trkpt><trkpt lat="44.5161533" lon="8.5390263"><ele>752.3333333333334</ele><time>2026-04-04T10:54:27.966Z</time></trkpt><trkpt lat="44.516158" lon="8.5389092"><ele>751.5</ele><time>2026-04-04T10:54:28.965Z</time></trkpt><trkpt lat="44.5161885" lon="8.5388203"><ele>750.6666666666666</ele><time>2026-04-04T10:54:29.966Z</time></trkpt><trkpt lat="44.516248" lon="8.5387603"><ele>749.8333333333333</ele><time>2026-04-04T10:54:30.966Z</time></trkpt><trkpt lat="44.5163303" lon="8.5387413"><ele>749.0</ele><time>2026-04-04T10:54:31.966Z</time></trkpt><trkpt lat="44.5164277" lon="8.5387196"><ele>750.0</ele><time>2026-04-04T10:54:32.966Z</time></trkpt><trkpt lat="44.516542" lon="8.538704"><ele>751.0</ele><time>2026-04-04T10:54:33.966Z</time></trkpt><trkpt lat="44.5166602" lon="8.5386792"><ele>752.0</ele><time>2026-04-04T10:54:34.966Z</time></trkpt><trkpt lat="44.5167828" lon="8.5386319"><ele>753.0</ele><time>2026-04-04T10:54:35.966Z</time></trkpt><trkpt lat="44.5168951" lon="8.5385516"><ele>753.0</ele><time>2026-04-04T10:54:36.965Z</time></trkpt><trkpt lat="44.5169972" lon="8.5384324"><ele>753.0</ele><time>2026-04-04T10:54:37.966Z</time></trkpt><trkpt lat="44.5170983" lon="8.5382975"><ele>753.0</ele><time>2026-04-04T10:54:38.965Z</time></trkpt><trkpt lat="44.5172009" lon="8.5381572"><ele>753.0</ele><time>2026-04-04T10:54:39.966Z</time></trkpt><trkpt lat="44.5173007" lon="8.5380278"><ele>754.5</ele><time>2026-04-04T10:54:40.966Z</time></trkpt><trkpt lat="44.5173982" lon="8.5379141"><ele>756.0</ele><time>2026-04-04T10:54:41.966Z</time></trkpt><trkpt lat="44.5174911" lon="8.5378038"><ele>757.5</ele><time>2026-04-04T10:54:42.965Z</time></trkpt><trkpt lat="44.5175693" lon="8.5377061"><ele>759.0</ele><time>2026-04-04T10:54:43.966Z</time></trkpt><trkpt lat="44.5176425" lon="8.5376142"><ele>759.0</ele><time>2026-04-04T10:54:44.966Z</time></trkpt><trkpt lat="44.5177148" lon="8.5375247"><ele>759.0</ele><time>2026-04-04T10:54:45.965Z</time></trkpt><trkpt lat="44.5177621" lon="8.5374445"><ele>759.0</ele><time>2026-04-04T10:54:46.966Z</time></trkpt><trkpt lat="44.5177998" lon="8.5373599"><ele>759.0</ele><time>2026-04-04T10:54:47.966Z</time></trkpt><trkpt lat="44.517826" lon="8.5372655"><ele>759.0</ele><time>2026-04-04T10:54:48.965Z</time></trkpt><trkpt lat="44.5178433" lon="8.5371559"><ele>759.0</ele><time>2026-04-04T10:54:49.966Z</time></trkpt><trkpt lat="44.5178374" lon="8.5370444"><ele>758.8333333333334</ele><time>2026-04-04T10:54:50.964Z</time></trkpt><trkpt lat="44.5178282" lon="8.5369271"><ele>758.6666666666666</ele><time>2026-04-04T10:54:51.964Z</time></trkpt><trkpt lat="44.5178139" lon="8.5368071"><ele>758.5</ele><time>2026-04-04T10:54:52.965Z</time></trkpt><trkpt lat="44.5178116" lon="8.5366856"><ele>758.3333333333333</ele><time>2026-04-04T10:54:53.964Z</time></trkpt><trkpt lat="44.517812" lon="8.5365704"><ele>758.1666666666666</ele><time>2026-04-04T10:54:54.965Z</time></trkpt><trkpt lat="44.5178225" lon="8.5364632"><ele>758.0</ele><time>2026-04-04T10:54:55.964Z</time></trkpt><trkpt lat="44.5178454" lon="8.5363592"><ele>758.0</ele><time>2026-04-04T10:54:56.964Z</time></trkpt><trkpt lat="44.5178809" lon="8.536258"><ele>758.0</ele><time>2026-04-04T10:54:57.964Z</time></trkpt><trkpt lat="44.5179248" lon="8.536159"><ele>758.0</ele><time>2026-04-04T10:54:58.965Z</time></trkpt><trkpt lat="44.5179769" lon="8.5360621"><ele>758.0</ele><time>2026-04-04T10:54:59.965Z</time></trkpt><trkpt lat="44.5180323" lon="8.5359863"><ele>758.0</ele><time>2026-04-04T10:55:00.964Z</time></trkpt><trkpt lat="44.5181043" lon="8.5359319"><ele>758.0</ele><time>2026-04-04T10:55:01.965Z</time></trkpt><trkpt lat="44.5181883" lon="8.5359043"><ele>758.4</ele><time>2026-04-04T10:55:02.964Z</time></trkpt><trkpt lat="44.5182804" lon="8.5359099"><ele>758.8</ele><time>2026-04-04T10:55:03.965Z</time></trkpt><trkpt lat="44.5183642" lon="8.5359427"><ele>759.2</ele><time>2026-04-04T10:55:04.964Z</time></trkpt><trkpt lat="44.5184458" lon="8.5360263"><ele>759.6</ele><time>2026-04-04T10:55:05.964Z</time></trkpt><trkpt lat="44.5185093" lon="8.5361281"><ele>760.0</ele><time>2026-04-04T10:55:06.964Z</time></trkpt><trkpt lat="44.5185355" lon="8.5362658"><ele>760.0</ele><time>2026-04-04T10:55:07.965Z</time></trkpt><trkpt lat="44.5185516" lon="8.5364111"><ele>760.0</ele><time>2026-04-04T10:55:08.965Z</time></trkpt><trkpt lat="44.5185748" lon="8.5365415"><ele>760.0</ele><time>2026-04-04T10:55:09.965Z</time></trkpt><trkpt lat="44.5186157" lon="8.5366293"><ele>760.0</ele><time>2026-04-04T10:55:10.965Z</time></trkpt><trkpt lat="44.5186685" lon="8.5366875"><ele>760.0</ele><time>2026-04-04T10:55:11.965Z</time></trkpt><trkpt lat="44.5187364" lon="8.5367246"><ele>760.0</ele><time>2026-04-04T10:55:12.965Z</time></trkpt><trkpt lat="44.5188141" lon="8.5367277"><ele>757.2</ele><time>2026-04-04T10:55:13.965Z</time></trkpt><trkpt lat="44.5189075" lon="8.5367252"><ele>754.4</ele><time>2026-04-04T10:55:14.965Z</time></trkpt><trkpt lat="44.5190067" lon="8.5367236"><ele>751.5999999999999</ele><time>2026-04-04T10:55:15.965Z</time></trkpt><trkpt lat="44.5190983" lon="8.5367172"><ele>748.8</ele><time>2026-04-04T10:55:16.965Z</time></trkpt><trkpt lat="44.5191992" lon="8.5366895"><ele>746.0</ele><time>2026-04-04T10:55:17.964Z</time></trkpt><trkpt lat="44.5192819" lon="8.5366181"><ele>746.0</ele><time>2026-04-04T10:55:18.965Z</time></trkpt><trkpt lat="44.5193448" lon="8.5365125"><ele>746.0</ele><time>2026-04-04T10:55:19.965Z</time></trkpt><trkpt lat="44.5193926" lon="8.5363902"><ele>746.0</ele><time>2026-04-04T10:55:20.964Z</time></trkpt><trkpt lat="44.5194216" lon="8.5362335"><ele>746.0</ele><time>2026-04-04T10:55:21.965Z</time></trkpt><trkpt lat="44.5194434" lon="8.5360709"><ele>746.0</ele><time>2026-04-04T10:55:22.965Z</time></trkpt><trkpt lat="44.5194593" lon="8.5359079"><ele>745.0</ele><time>2026-04-04T10:55:23.965Z</time></trkpt><trkpt lat="44.5194713" lon="8.5357526"><ele>744.0</ele><time>2026-04-04T10:55:24.964Z</time></trkpt><trkpt lat="44.5194806" lon="8.5356106"><ele>743.0</ele><time>2026-04-04T10:55:25.965Z</time></trkpt><trkpt lat="44.5194819" lon="8.5354754"><ele>742.0</ele><time>2026-04-04T10:55:26.965Z</time></trkpt><trkpt lat="44.5194756" lon="8.5353454"><ele>741.0</ele><time>2026-04-04T10:55:27.964Z</time></trkpt><trkpt lat="44.5194604" lon="8.5352122"><ele>739.1999999999999</ele><time>2026-04-04T10:55:28.964Z</time></trkpt><trkpt lat="44.5194412" lon="8.5350755"><ele>737.4</ele><time>2026-04-04T10:55:29.965Z</time></trkpt><trkpt lat="44.5194218" lon="8.5349394"><ele>735.6</ele><time>2026-04-04T10:55:30.964Z</time></trkpt><trkpt lat="44.5194011" lon="8.5348024"><ele>733.8</ele><time>2026-04-04T10:55:31.964Z</time></trkpt><trkpt lat="44.519384" lon="8.5346731"><ele>732.0</ele><time>2026-04-04T10:55:32.965Z</time></trkpt><trkpt lat="44.5193638" lon="8.5345465"><ele>731.6666666666666</ele><time>2026-04-04T10:55:33.965Z</time></trkpt><trkpt lat="44.5193523" lon="8.5344279"><ele>731.3333333333334</ele><time>2026-04-04T10:55:34.965Z</time></trkpt><trkpt lat="44.5193581" lon="8.5343188"><ele>731.0</ele><time>2026-04-04T10:55:35.965Z</time></trkpt><trkpt lat="44.5193883" lon="8.534219"><ele>730.6666666666667</ele><time>2026-04-04T10:55:36.965Z</time></trkpt><trkpt lat="44.5194503" lon="8.5341418"><ele>730.3333333333334</ele><time>2026-04-04T10:55:37.965Z</time></trkpt><trkpt lat="44.5195276" lon="8.5340938"><ele>730.0</ele><time>2026-04-04T10:55:38.965Z</time></trkpt><trkpt lat="44.5196214" lon="8.5340802"><ele>731.4</ele><time>2026-04-04T10:55:39.965Z</time></trkpt><trkpt lat="44.5197233" lon="8.5340709"><ele>732.8</ele><time>2026-04-04T10:55:40.965Z</time></trkpt><trkpt lat="44.5198201" lon="8.5340417"><ele>734.2</ele><time>2026-04-04T10:55:41.964Z</time></trkpt><trkpt lat="44.5199054" lon="8.5339887"><ele>735.6</ele><time>2026-04-04T10:55:42.965Z</time></trkpt><trkpt lat="44.5199669" lon="8.5339046"><ele>737.0</ele><time>2026-04-04T10:55:43.965Z</time></trkpt><trkpt lat="44.5200005" lon="8.5337998"><ele>735.8</ele><time>2026-04-04T10:55:44.965Z</time></trkpt><trkpt lat="44.5200036" lon="8.5336719"><ele>734.6</ele><time>2026-04-04T10:55:45.965Z</time></trkpt><trkpt lat="44.5199678" lon="8.5335451"><ele>733.4</ele><time>2026-04-04T10:55:46.964Z</time></trkpt><trkpt lat="44.5199303" lon="8.5334118"><ele>732.1999999999999</ele><time>2026-04-04T10:55:47.965Z</time></trkpt><trkpt lat="44.5199155" lon="8.5332826"><ele>731.0</ele><time>2026-04-04T10:55:48.964Z</time></trkpt><trkpt lat="44.5199281" lon="8.5331649"><ele>731.0</ele><time>2026-04-04T10:55:49.965Z</time></trkpt><trkpt lat="44.5199714" lon="8.5330696"><ele>731.0</ele><time>2026-04-04T10:55:50.964Z</time></trkpt><trkpt lat="44.5200362" lon="8.5329862"><ele>731.0</ele><time>2026-04-04T10:55:51.964Z</time></trkpt><trkpt lat="44.5201158" lon="8.5328962"><ele>731.0</ele><time>2026-04-04T10:55:52.965Z</time></trkpt><trkpt lat="44.520183" lon="8.5327699"><ele>731.0</ele><time>2026-04-04T10:55:53.964Z</time></trkpt><trkpt lat="44.5202369" lon="8.532618"><ele>730.8</ele><time>2026-04-04T10:55:54.965Z</time></trkpt><trkpt lat="44.5202854" lon="8.5324585"><ele>730.5999999999999</ele><time>2026-04-04T10:55:55.964Z</time></trkpt><trkpt lat="44.5203344" lon="8.5323217"><ele>730.4</ele><time>2026-04-04T10:55:56.965Z</time></trkpt><trkpt lat="44.5204037" lon="8.5322166"><ele>730.2</ele><time>2026-04-04T10:55:57.964Z</time></trkpt><trkpt lat="44.5204966" lon="8.532148"><ele>730.0</ele><time>2026-04-04T10:55:58.964Z</time></trkpt><trkpt lat="44.5206001" lon="8.5320927"><ele>727.8</ele><time>2026-04-04T10:55:59.965Z</time></trkpt><trkpt lat="44.520695" lon="8.5320265"><ele>725.6</ele><time>2026-04-04T10:56:00.965Z</time></trkpt><trkpt lat="44.5207839" lon="8.5319399"><ele>723.4000000000001</ele><time>2026-04-04T10:56:01.965Z</time></trkpt><trkpt lat="44.5208661" lon="8.5318408"><ele>721.2</ele><time>2026-04-04T10:56:02.965Z</time></trkpt><trkpt lat="44.5209388" lon="8.5317546"><ele>719.0</ele><time>2026-04-04T10:56:03.965Z</time></trkpt><trkpt lat="44.5209998" lon="8.5316938"><ele>719.0</ele><time>2026-04-04T10:56:04.964Z</time></trkpt><trkpt lat="44.5210589" lon="8.5316526"><ele>719.0</ele><time>2026-04-04T10:56:05.964Z</time></trkpt><trkpt lat="44.5211723" lon="8.5316701"><ele>719.0</ele><time>2026-04-04T10:56:07.965Z</time></trkpt><trkpt lat="44.5212564" lon="8.5318136"><ele>719.0</ele><time>2026-04-04T10:56:09.965Z</time></trkpt><trkpt lat="44.5212917" lon="8.5319307"><ele>719.0</ele><time>2026-04-04T10:56:10.965Z</time></trkpt><trkpt lat="44.5213203" lon="8.5320833"><ele>716.6</ele><time>2026-04-04T10:56:11.964Z</time></trkpt><trkpt lat="44.5213519" lon="8.5322475"><ele>714.2</ele><time>2026-04-04T10:56:12.965Z</time></trkpt><trkpt lat="44.5213947" lon="8.5323833"><ele>711.8000000000001</ele><time>2026-04-04T10:56:13.965Z</time></trkpt><trkpt lat="44.5214487" lon="8.5324828"><ele>709.4000000000001</ele><time>2026-04-04T10:56:14.965Z</time></trkpt><trkpt lat="44.5215096" lon="8.5325555"><ele>707.0</ele><time>2026-04-04T10:56:15.965Z</time></trkpt><trkpt lat="44.5215675" lon="8.5326307"><ele>707.0</ele><time>2026-04-04T10:56:16.965Z</time></trkpt><trkpt lat="44.5216177" lon="8.5327128"><ele>707.0</ele><time>2026-04-04T10:56:17.965Z</time></trkpt><trkpt lat="44.5216555" lon="8.5327983"><ele>707.0</ele><time>2026-04-04T10:56:18.965Z</time></trkpt><trkpt lat="44.5216902" lon="8.5328886"><ele>707.0</ele><time>2026-04-04T10:56:19.965Z</time></trkpt><trkpt lat="44.521719" lon="8.532986"><ele>707.0</ele><time>2026-04-04T10:56:20.965Z</time></trkpt><trkpt lat="44.5217479" lon="8.5330759"><ele>707.0</ele><time>2026-04-04T10:56:21.964Z</time></trkpt><trkpt lat="44.5217792" lon="8.5331621"><ele>707.0</ele><time>2026-04-04T10:56:22.965Z</time></trkpt><trkpt lat="44.5218142" lon="8.5332486"><ele>708.3333333333333</ele><time>2026-04-04T10:56:23.965Z</time></trkpt><trkpt lat="44.5218835" lon="8.5333594"><ele>709.6666666666666</ele><time>2026-04-04T10:56:25.964Z</time></trkpt><trkpt lat="44.5219614" lon="8.5333439"><ele>711.0</ele><time>2026-04-04T10:56:27.965Z</time></trkpt><trkpt lat="44.5219869" lon="8.5332378"><ele>712.3333333333334</ele><time>2026-04-04T10:56:29.965Z</time></trkpt><trkpt lat="44.521978" lon="8.5331503"><ele>713.6666666666667</ele><time>2026-04-04T10:56:30.965Z</time></trkpt><trkpt lat="44.5219458" lon="8.5330452"><ele>715.0</ele><time>2026-04-04T10:56:31.964Z</time></trkpt><trkpt lat="44.5218984" lon="8.5329319"><ele>713.4</ele><time>2026-04-04T10:56:32.964Z</time></trkpt><trkpt lat="44.5218417" lon="8.5328148"><ele>711.8</ele><time>2026-04-04T10:56:33.965Z</time></trkpt><trkpt lat="44.5217869" lon="8.5327095"><ele>710.2</ele><time>2026-04-04T10:56:34.964Z</time></trkpt><trkpt lat="44.5217348" lon="8.5326047"><ele>708.6</ele><time>2026-04-04T10:56:35.965Z</time></trkpt><trkpt lat="44.5216815" lon="8.5324917"><ele>707.0</ele><time>2026-04-04T10:56:36.965Z</time></trkpt><trkpt lat="44.5216209" lon="8.5323855"><ele>707.0</ele><time>2026-04-04T10:56:37.965Z</time></trkpt><trkpt lat="44.521556" lon="8.5322823"><ele>707.0</ele><time>2026-04-04T10:56:38.965Z</time></trkpt><trkpt lat="44.5215006" lon="8.5321815"><ele>707.0</ele><time>2026-04-04T10:56:39.965Z</time></trkpt><trkpt lat="44.5214545" lon="8.532083"><ele>707.0</ele><time>2026-04-04T10:56:40.965Z</time></trkpt><trkpt lat="44.5214205" lon="8.5319786"><ele>707.0</ele><time>2026-04-04T10:56:41.965Z</time></trkpt><trkpt lat="44.5213911" lon="8.5318839"><ele>707.0</ele><time>2026-04-04T10:56:42.964Z</time></trkpt><trkpt lat="44.5213824" lon="8.5317836"><ele>706.4285714285714</ele><time>2026-04-04T10:56:43.965Z</time></trkpt><trkpt lat="44.5213937" lon="8.5316856"><ele>705.8571428571429</ele><time>2026-04-04T10:56:44.964Z</time></trkpt><trkpt lat="44.5214258" lon="8.5316046"><ele>705.2857142857142</ele><time>2026-04-04T10:56:45.964Z</time></trkpt><trkpt lat="44.521484" lon="8.5315422"><ele>704.7142857142858</ele><time>2026-04-04T10:56:46.965Z</time></trkpt><trkpt lat="44.5215502" lon="8.5315161"><ele>704.1428571428571</ele><time>2026-04-04T10:56:47.965Z</time></trkpt><trkpt lat="44.521623" lon="8.5315297"><ele>703.5714285714286</ele><time>2026-04-04T10:56:48.965Z</time></trkpt><trkpt lat="44.5217062" lon="8.5315782"><ele>703.0</ele><time>2026-04-04T10:56:49.965Z</time></trkpt><trkpt lat="44.5218051" lon="8.5316494"><ele>703.0</ele><time>2026-04-04T10:56:50.965Z</time></trkpt><trkpt lat="44.5219104" lon="8.5317055"><ele>703.0</ele><time>2026-04-04T10:56:51.965Z</time></trkpt><trkpt lat="44.5220181" lon="8.5317288"><ele>703.0</ele><time>2026-04-04T10:56:52.965Z</time></trkpt><trkpt lat="44.5221214" lon="8.5317384"><ele>703.0</ele><time>2026-04-04T10:56:53.964Z</time></trkpt><trkpt lat="44.5222228" lon="8.5317503"><ele>703.0</ele><time>2026-04-04T10:56:54.965Z</time></trkpt><trkpt lat="44.5223187" lon="8.5317734"><ele>699.0</ele><time>2026-04-04T10:56:55.964Z</time></trkpt><trkpt lat="44.5224167" lon="8.5318036"><ele>695.0</ele><time>2026-04-04T10:56:56.965Z</time></trkpt><trkpt lat="44.5225145" lon="8.5318357"><ele>691.0</ele><time>2026-04-04T10:56:57.965Z</time></trkpt><trkpt lat="44.5226184" lon="8.5318779"><ele>687.0</ele><time>2026-04-04T10:56:58.964Z</time></trkpt><trkpt lat="44.5227291" lon="8.531929"><ele>683.0</ele><time>2026-04-04T10:56:59.964Z</time></trkpt><trkpt lat="44.522846" lon="8.5319948"><ele>681.5</ele><time>2026-04-04T10:57:00.965Z</time></trkpt><trkpt lat="44.5229744" lon="8.5320791"><ele>680.0</ele><time>2026-04-04T10:57:01.964Z</time></trkpt><trkpt lat="44.5231101" lon="8.532167"><ele>678.5</ele><time>2026-04-04T10:57:02.965Z</time></trkpt><trkpt lat="44.5232342" lon="8.5322468"><ele>677.0</ele><time>2026-04-04T10:57:03.965Z</time></trkpt><trkpt lat="44.5233524" lon="8.5323238"><ele>677.0</ele><time>2026-04-04T10:57:04.964Z</time></trkpt><trkpt lat="44.5234675" lon="8.5323992"><ele>677.0</ele><time>2026-04-04T10:57:05.965Z</time></trkpt><trkpt lat="44.5235836" lon="8.5324867"><ele>677.0</ele><time>2026-04-04T10:57:06.965Z</time></trkpt><trkpt lat="44.5236957" lon="8.5325682"><ele>677.0</ele><time>2026-04-04T10:57:07.965Z</time></trkpt><trkpt lat="44.5238057" lon="8.5326263"><ele>679.0</ele><time>2026-04-04T10:57:08.965Z</time></trkpt><trkpt lat="44.5239117" lon="8.5326369"><ele>681.0</ele><time>2026-04-04T10:57:09.964Z</time></trkpt><trkpt lat="44.5240064" lon="8.5325881"><ele>683.0</ele><time>2026-04-04T10:57:10.964Z</time></trkpt><trkpt lat="44.5240918" lon="8.5324976"><ele>685.0</ele><time>2026-04-04T10:57:11.965Z</time></trkpt><trkpt lat="44.5241656" lon="8.5323697"><ele>687.0</ele><time>2026-04-04T10:57:12.964Z</time></trkpt><trkpt lat="44.5242337" lon="8.5322308"><ele>687.0</ele><time>2026-04-04T10:57:13.965Z</time></trkpt><trkpt lat="44.5242949" lon="8.5320996"><ele>687.0</ele><time>2026-04-04T10:57:14.965Z</time></trkpt><trkpt lat="44.5243572" lon="8.532002"><ele>687.0</ele><time>2026-04-04T10:57:15.965Z</time></trkpt><trkpt lat="44.5244402" lon="8.5319511"><ele>687.0</ele><time>2026-04-04T10:57:16.965Z</time></trkpt><trkpt lat="44.5245285" lon="8.5319334"><ele>687.0</ele><time>2026-04-04T10:57:17.965Z</time></trkpt><trkpt lat="44.5246349" lon="8.5319535"><ele>687.25</ele><time>2026-04-04T10:57:18.965Z</time></trkpt><trkpt lat="44.5247483" lon="8.531991"><ele>687.5</ele><time>2026-04-04T10:57:19.964Z</time></trkpt><trkpt lat="44.5248732" lon="8.5320256"><ele>687.75</ele><time>2026-04-04T10:57:20.965Z</time></trkpt><trkpt lat="44.5250096" lon="8.5320478"><ele>688.0</ele><time>2026-04-04T10:57:21.964Z</time></trkpt><trkpt lat="44.5251388" lon="8.5320391"><ele>688.0</ele><time>2026-04-04T10:57:22.964Z</time></trkpt><trkpt lat="44.5252581" lon="8.5320131"><ele>688.0</ele><time>2026-04-04T10:57:23.965Z</time></trkpt><trkpt lat="44.5253766" lon="8.5319761"><ele>688.0</ele><time>2026-04-04T10:57:24.964Z</time></trkpt><trkpt lat="44.525493" lon="8.5319399"><ele>688.0</ele><time>2026-04-04T10:57:25.965Z</time></trkpt><trkpt lat="44.5256061" lon="8.5319275"><ele>688.75</ele><time>2026-04-04T10:57:26.965Z</time></trkpt><trkpt lat="44.5257149" lon="8.5319399"><ele>689.5</ele><time>2026-04-04T10:57:27.964Z</time></trkpt><trkpt lat="44.5258259" lon="8.5319682"><ele>690.25</ele><time>2026-04-04T10:57:28.965Z</time></trkpt><trkpt lat="44.5259391" lon="8.5320035"><ele>691.0</ele><time>2026-04-04T10:57:29.965Z</time></trkpt><trkpt lat="44.526054" lon="8.5320386"><ele>691.25</ele><time>2026-04-04T10:57:30.965Z</time></trkpt><trkpt lat="44.5261681" lon="8.5320748"><ele>691.5</ele><time>2026-04-04T10:57:31.965Z</time></trkpt><trkpt lat="44.5262842" lon="8.5321137"><ele>691.75</ele><time>2026-04-04T10:57:32.965Z</time></trkpt><trkpt lat="44.5263963" lon="8.5321394"><ele>692.0</ele><time>2026-04-04T10:57:33.965Z</time></trkpt><trkpt lat="44.5264944" lon="8.5321648"><ele>692.6</ele><time>2026-04-04T10:57:34.965Z</time></trkpt><trkpt lat="44.5265752" lon="8.5321942"><ele>693.2</ele><time>2026-04-04T10:57:35.965Z</time></trkpt><trkpt lat="44.5266603" lon="8.5322416"><ele>693.8</ele><time>2026-04-04T10:57:36.964Z</time></trkpt><trkpt lat="44.5267412" lon="8.5323051"><ele>694.4</ele><time>2026-04-04T10:57:37.965Z</time></trkpt><trkpt lat="44.5268272" lon="8.5323913"><ele>695.0</ele><time>2026-04-04T10:57:38.965Z</time></trkpt><trkpt lat="44.5269196" lon="8.5324876"><ele>695.0</ele><time>2026-04-04T10:57:39.965Z</time></trkpt><trkpt lat="44.527012" lon="8.5325749"><ele>695.0</ele><time>2026-04-04T10:57:40.965Z</time></trkpt><trkpt lat="44.5271046" lon="8.5326486"><ele>695.0</ele><time>2026-04-04T10:57:41.965Z</time></trkpt><trkpt lat="44.5272008" lon="8.5327134"><ele>695.0</ele><time>2026-04-04T10:57:42.964Z</time></trkpt><trkpt lat="44.5273052" lon="8.5327752"><ele>695.0</ele><time>2026-04-04T10:57:43.964Z</time></trkpt><trkpt lat="44.527407" lon="8.532839"><ele>696.0</ele><time>2026-04-04T10:57:44.965Z</time></trkpt><trkpt lat="44.5275165" lon="8.5328987"><ele>697.0</ele><time>2026-04-04T10:57:45.965Z</time></trkpt><trkpt lat="44.527627" lon="8.5329573"><ele>698.0</ele><time>2026-04-04T10:57:46.965Z</time></trkpt><trkpt lat="44.527744" lon="8.5330072"><ele>699.0</ele><time>2026-04-04T10:57:47.965Z</time></trkpt><trkpt lat="44.5278607" lon="8.5330358"><ele>701.5</ele><time>2026-04-04T10:57:48.965Z</time></trkpt><trkpt lat="44.5279829" lon="8.533059"><ele>704.0</ele><time>2026-04-04T10:57:49.965Z</time></trkpt><trkpt lat="44.5281049" lon="8.5330699"><ele>706.5</ele><time>2026-04-04T10:57:50.965Z</time></trkpt><trkpt lat="44.5282243" lon="8.5330785"><ele>709.0</ele><time>2026-04-04T10:57:51.965Z</time></trkpt><trkpt lat="44.5283454" lon="8.5330953"><ele>709.0</ele><time>2026-04-04T10:57:52.965Z</time></trkpt><trkpt lat="44.5284596" lon="8.5331069"><ele>709.0</ele><time>2026-04-04T10:57:53.965Z</time></trkpt><trkpt lat="44.5285729" lon="8.5331279"><ele>709.0</ele><time>2026-04-04T10:57:54.965Z</time></trkpt><trkpt lat="44.528686" lon="8.5331498"><ele>709.0</ele><time>2026-04-04T10:57:55.965Z</time></trkpt><trkpt lat="44.5287965" lon="8.5331665"><ele>711.0</ele><time>2026-04-04T10:57:56.964Z</time></trkpt><trkpt lat="44.5289125" lon="8.5331798"><ele>713.0</ele><time>2026-04-04T10:57:57.964Z</time></trkpt><trkpt lat="44.5290278" lon="8.5331878"><ele>715.0</ele><time>2026-04-04T10:57:58.965Z</time></trkpt><trkpt lat="44.5291454" lon="8.5331819"><ele>717.0</ele><time>2026-04-04T10:57:59.964Z</time></trkpt><trkpt lat="44.5292547" lon="8.533162"><ele>717.0</ele><time>2026-04-04T10:58:00.964Z</time></trkpt><trkpt lat="44.5293689" lon="8.5331287"><ele>717.0</ele><time>2026-04-04T10:58:01.965Z</time></trkpt><trkpt lat="44.5294723" lon="8.5330741"><ele>717.0</ele><time>2026-04-04T10:58:02.965Z</time></trkpt><trkpt lat="44.5295686" lon="8.5330091"><ele>717.0</ele><time>2026-04-04T10:58:03.965Z</time></trkpt><trkpt lat="44.5296628" lon="8.532952"><ele>717.0</ele><time>2026-04-04T10:58:04.965Z</time></trkpt><trkpt lat="44.5297537" lon="8.5328867"><ele>717.0</ele><time>2026-04-04T10:58:05.965Z</time></trkpt><trkpt lat="44.5298447" lon="8.5328231"><ele>717.0</ele><time>2026-04-04T10:58:06.964Z</time></trkpt><trkpt lat="44.5299318" lon="8.5327681"><ele>717.0</ele><time>2026-04-04T10:58:07.964Z</time></trkpt><trkpt lat="44.5300216" lon="8.5327236"><ele>717.0</ele><time>2026-04-04T10:58:08.965Z</time></trkpt><trkpt lat="44.5301115" lon="8.5326807"><ele>717.0</ele><time>2026-04-04T10:58:09.965Z</time></trkpt><trkpt lat="44.5302125" lon="8.5326404"><ele>717.0</ele><time>2026-04-04T10:58:10.965Z</time></trkpt><trkpt lat="44.5303165" lon="8.5326133"><ele>717.0</ele><time>2026-04-04T10:58:11.965Z</time></trkpt><trkpt lat="44.5304266" lon="8.5326011"><ele>717.0</ele><time>2026-04-04T10:58:12.965Z</time></trkpt><trkpt lat="44.5305365" lon="8.5325973"><ele>717.0</ele><time>2026-04-04T10:58:13.965Z</time></trkpt><trkpt lat="44.5306453" lon="8.5325826"><ele>717.0</ele><time>2026-04-04T10:58:14.965Z</time></trkpt><trkpt lat="44.5307458" lon="8.5325801"><ele>718.0</ele><time>2026-04-04T10:58:15.965Z</time></trkpt><trkpt lat="44.5308431" lon="8.5325995"><ele>719.0</ele><time>2026-04-04T10:58:16.964Z</time></trkpt><trkpt lat="44.5309284" lon="8.5326532"><ele>720.0</ele><time>2026-04-04T10:58:17.965Z</time></trkpt><trkpt lat="44.5310224" lon="8.5327176"><ele>721.0</ele><time>2026-04-04T10:58:18.965Z</time></trkpt><trkpt lat="44.5311189" lon="8.5327951"><ele>722.0</ele><time>2026-04-04T10:58:19.965Z</time></trkpt><trkpt lat="44.5312267" lon="8.532876"><ele>724.5</ele><time>2026-04-04T10:58:20.965Z</time></trkpt><trkpt lat="44.5313404" lon="8.5329515"><ele>727.0</ele><time>2026-04-04T10:58:21.965Z</time></trkpt><trkpt lat="44.5314586" lon="8.5330173"><ele>729.5</ele><time>2026-04-04T10:58:22.964Z</time></trkpt><trkpt lat="44.531569" lon="8.5330652"><ele>732.0</ele><time>2026-04-04T10:58:23.965Z</time></trkpt><trkpt lat="44.5316851" lon="8.5330969"><ele>732.0</ele><time>2026-04-04T10:58:24.965Z</time></trkpt><trkpt lat="44.5317999" lon="8.5331231"><ele>732.0</ele><time>2026-04-04T10:58:25.965Z</time></trkpt><trkpt lat="44.5319175" lon="8.5331392"><ele>732.0</ele><time>2026-04-04T10:58:26.965Z</time></trkpt><trkpt lat="44.5320382" lon="8.5331627"><ele>732.0</ele><time>2026-04-04T10:58:27.965Z</time></trkpt><trkpt lat="44.5321521" lon="8.5331967"><ele>734.25</ele><time>2026-04-04T10:58:28.964Z</time></trkpt><trkpt lat="44.532278" lon="8.5332363"><ele>736.5</ele><time>2026-04-04T10:58:29.965Z</time></trkpt><trkpt lat="44.5324121" lon="8.5332832"><ele>738.75</ele><time>2026-04-04T10:58:30.965Z</time></trkpt><trkpt lat="44.5325485" lon="8.533328"><ele>741.0</ele><time>2026-04-04T10:58:31.965Z</time></trkpt><trkpt lat="44.5326791" lon="8.533371"><ele>741.0</ele><time>2026-04-04T10:58:32.965Z</time></trkpt><trkpt lat="44.5328016" lon="8.5334135"><ele>741.0</ele><time>2026-04-04T10:58:33.965Z</time></trkpt><trkpt lat="44.5329143" lon="8.5334497"><ele>741.0</ele><time>2026-04-04T10:58:34.965Z</time></trkpt><trkpt lat="44.5330273" lon="8.5334877"><ele>741.0</ele><time>2026-04-04T10:58:35.965Z</time></trkpt><trkpt lat="44.533137" lon="8.533524"><ele>740.25</ele><time>2026-04-04T10:58:36.965Z</time></trkpt><trkpt lat="44.5332485" lon="8.5335683"><ele>739.5</ele><time>2026-04-04T10:58:37.965Z</time></trkpt><trkpt lat="44.5333591" lon="8.53361"><ele>738.75</ele><time>2026-04-04T10:58:38.965Z</time></trkpt><trkpt lat="44.5334696" lon="8.5336483"><ele>738.0</ele><time>2026-04-04T10:58:39.965Z</time></trkpt><trkpt lat="44.5335777" lon="8.5336795"><ele>738.0</ele><time>2026-04-04T10:58:40.965Z</time></trkpt><trkpt lat="44.5336865" lon="8.5337031"><ele>738.0</ele><time>2026-04-04T10:58:41.965Z</time></trkpt><trkpt lat="44.533797" lon="8.533719"><ele>738.0</ele><time>2026-04-04T10:58:42.965Z</time></trkpt><trkpt lat="44.5339018" lon="8.5337286"><ele>738.0</ele><time>2026-04-04T10:58:43.965Z</time></trkpt><trkpt lat="44.5340031" lon="8.5337329"><ele>738.0</ele><time>2026-04-04T10:58:44.965Z</time></trkpt><trkpt lat="44.534092" lon="8.5337362"><ele>738.1666666666666</ele><time>2026-04-04T10:58:45.964Z</time></trkpt><trkpt lat="44.5341755" lon="8.5337382"><ele>738.3333333333334</ele><time>2026-04-04T10:58:46.965Z</time></trkpt><trkpt lat="44.5342547" lon="8.533745"><ele>738.5</ele><time>2026-04-04T10:58:47.965Z</time></trkpt><trkpt lat="44.534336" lon="8.533754"><ele>738.6666666666667</ele><time>2026-04-04T10:58:48.965Z</time></trkpt><trkpt lat="44.534419" lon="8.5337614"><ele>738.8333333333334</ele><time>2026-04-04T10:58:49.964Z</time></trkpt><trkpt lat="44.5345112" lon="8.5337649"><ele>739.0</ele><time>2026-04-04T10:58:50.965Z</time></trkpt><trkpt lat="44.5346098" lon="8.5337633"><ele>739.0</ele><time>2026-04-04T10:58:51.964Z</time></trkpt><trkpt lat="44.5347096" lon="8.5337642"><ele>739.0</ele><time>2026-04-04T10:58:52.965Z</time></trkpt><trkpt lat="44.5348098" lon="8.5337693"><ele>739.0</ele><time>2026-04-04T10:58:53.965Z</time></trkpt><trkpt lat="44.5349126" lon="8.533775"><ele>739.0</ele><time>2026-04-04T10:58:54.964Z</time></trkpt><trkpt lat="44.5350231" lon="8.5337888"><ele>739.0</ele><time>2026-04-04T10:58:55.965Z</time></trkpt><trkpt lat="44.5351342" lon="8.5338165"><ele>739.0</ele><time>2026-04-04T10:58:56.965Z</time></trkpt><trkpt lat="44.5352499" lon="8.5338525"><ele>739.0</ele><time>2026-04-04T10:58:57.965Z</time></trkpt><trkpt lat="44.535367" lon="8.533898"><ele>739.0</ele><time>2026-04-04T10:58:58.965Z</time></trkpt><trkpt lat="44.5354984" lon="8.5339543"><ele>739.0</ele><time>2026-04-04T10:58:59.965Z</time></trkpt><trkpt lat="44.535621" lon="8.5340188"><ele>739.25</ele><time>2026-04-04T10:59:00.965Z</time></trkpt><trkpt lat="44.5357454" lon="8.534092"><ele>739.5</ele><time>2026-04-04T10:59:01.964Z</time></trkpt><trkpt lat="44.5358666" lon="8.5341757"><ele>739.75</ele><time>2026-04-04T10:59:02.965Z</time></trkpt><trkpt lat="44.5359831" lon="8.5342672"><ele>740.0</ele><time>2026-04-04T10:59:03.965Z</time></trkpt><trkpt lat="44.5360952" lon="8.5343736"><ele>740.0</ele><time>2026-04-04T10:59:04.965Z</time></trkpt><trkpt lat="44.5362131" lon="8.5344854"><ele>740.0</ele><time>2026-04-04T10:59:05.965Z</time></trkpt><trkpt lat="44.5363295" lon="8.5346045"><ele>740.0</ele><time>2026-04-04T10:59:06.964Z</time></trkpt><trkpt lat="44.5364366" lon="8.534732"><ele>740.0</ele><time>2026-04-04T10:59:07.965Z</time></trkpt><trkpt lat="44.5365396" lon="8.5348607"><ele>740.25</ele><time>2026-04-04T10:59:08.964Z</time></trkpt><trkpt lat="44.5366356" lon="8.5349893"><ele>740.5</ele><time>2026-04-04T10:59:09.964Z</time></trkpt><trkpt lat="44.5367184" lon="8.5351063"><ele>740.75</ele><time>2026-04-04T10:59:10.965Z</time></trkpt><trkpt lat="44.5368022" lon="8.5352128"><ele>741.0</ele><time>2026-04-04T10:59:11.965Z</time></trkpt><trkpt lat="44.5368893" lon="8.5353099"><ele>741.0</ele><time>2026-04-04T10:59:12.964Z</time></trkpt><trkpt lat="44.5369891" lon="8.5353924"><ele>741.0</ele><time>2026-04-04T10:59:13.964Z</time></trkpt><trkpt lat="44.5371028" lon="8.5354588"><ele>741.0</ele><time>2026-04-04T10:59:14.964Z</time></trkpt><trkpt lat="44.5372224" lon="8.5355"><ele>741.0</ele><time>2026-04-04T10:59:15.964Z</time></trkpt><trkpt lat="44.5373452" lon="8.5355237"><ele>739.5</ele><time>2026-04-04T10:59:16.964Z</time></trkpt><trkpt lat="44.5374585" lon="8.5355521"><ele>738.0</ele><time>2026-04-04T10:59:17.963Z</time></trkpt><trkpt lat="44.5375699" lon="8.5356002"><ele>736.5</ele><time>2026-04-04T10:59:18.964Z</time></trkpt><trkpt lat="44.5376702" lon="8.5356822"><ele>735.0</ele><time>2026-04-04T10:59:19.964Z</time></trkpt><trkpt lat="44.5377595" lon="8.5357872"><ele>735.0</ele><time>2026-04-04T10:59:20.964Z</time></trkpt><trkpt lat="44.5378385" lon="8.5359053"><ele>735.0</ele><time>2026-04-04T10:59:21.964Z</time></trkpt><trkpt lat="44.5379158" lon="8.5360352"><ele>735.0</ele><time>2026-04-04T10:59:22.963Z</time></trkpt><trkpt lat="44.537995" lon="8.5361716"><ele>735.0</ele><time>2026-04-04T10:59:23.964Z</time></trkpt><trkpt lat="44.5380721" lon="8.5362967"><ele>733.6</ele><time>2026-04-04T10:59:24.964Z</time></trkpt><trkpt lat="44.5381472" lon="8.5364115"><ele>732.2</ele><time>2026-04-04T10:59:25.964Z</time></trkpt><trkpt lat="44.5382322" lon="8.5365108"><ele>730.8</ele><time>2026-04-04T10:59:26.964Z</time></trkpt><trkpt lat="44.5383268" lon="8.5365665"><ele>729.4</ele><time>2026-04-04T10:59:27.964Z</time></trkpt><trkpt lat="44.5384281" lon="8.5365706"><ele>728.0</ele><time>2026-04-04T10:59:28.964Z</time></trkpt><trkpt lat="44.5385454" lon="8.5365185"><ele>728.0</ele><time>2026-04-04T10:59:29.964Z</time></trkpt><trkpt lat="44.5386629" lon="8.5364404"><ele>728.0</ele><time>2026-04-04T10:59:30.963Z</time></trkpt><trkpt lat="44.538787" lon="8.5363701"><ele>728.0</ele><time>2026-04-04T10:59:31.964Z</time></trkpt><trkpt lat="44.5389114" lon="8.5362972"><ele>728.0</ele><time>2026-04-04T10:59:32.963Z</time></trkpt><trkpt lat="44.5390315" lon="8.5362282"><ele>728.5999999999999</ele><time>2026-04-04T10:59:33.963Z</time></trkpt><trkpt lat="44.5391422" lon="8.5361774"><ele>729.1999999999999</ele><time>2026-04-04T10:59:34.963Z</time></trkpt><trkpt lat="44.5392464" lon="8.536146"><ele>729.8</ele><time>2026-04-04T10:59:35.964Z</time></trkpt><trkpt lat="44.5393385" lon="8.5361526"><ele>730.4</ele><time>2026-04-04T10:59:36.964Z</time></trkpt><trkpt lat="44.5394119" lon="8.5361716"><ele>731.0</ele><time>2026-04-04T10:59:37.964Z</time></trkpt><trkpt lat="44.5394818" lon="8.5362141"><ele>729.5</ele><time>2026-04-04T10:59:38.964Z</time></trkpt><trkpt lat="44.5395571" lon="8.5362948"><ele>728.0</ele><time>2026-04-04T10:59:39.963Z</time></trkpt><trkpt lat="44.5396391" lon="8.5364211"><ele>726.5</ele><time>2026-04-04T10:59:40.964Z</time></trkpt><trkpt lat="44.5397311" lon="8.5365402"><ele>725.0</ele><time>2026-04-04T10:59:41.964Z</time></trkpt><trkpt lat="44.5398325" lon="8.5366406"><ele>725.0</ele><time>2026-04-04T10:59:42.963Z</time></trkpt><trkpt lat="44.5399419" lon="8.5367028"><ele>725.0</ele><time>2026-04-04T10:59:43.964Z</time></trkpt><trkpt lat="44.5400718" lon="8.5367395"><ele>725.0</ele><time>2026-04-04T10:59:44.964Z</time></trkpt><trkpt lat="44.5402063" lon="8.5367636"><ele>725.0</ele><time>2026-04-04T10:59:45.964Z</time></trkpt><trkpt lat="44.5403353" lon="8.5367755"><ele>724.25</ele><time>2026-04-04T10:59:46.964Z</time></trkpt><trkpt lat="44.540456" lon="8.5368008"><ele>723.5</ele><time>2026-04-04T10:59:47.964Z</time></trkpt><trkpt lat="44.5405716" lon="8.5368365"><ele>722.75</ele><time>2026-04-04T10:59:48.964Z</time></trkpt><trkpt lat="44.5406807" lon="8.5368639"><ele>722.0</ele><time>2026-04-04T10:59:49.964Z</time></trkpt><trkpt lat="44.5407856" lon="8.5368844"><ele>722.0</ele><time>2026-04-04T10:59:50.964Z</time></trkpt><trkpt lat="44.5408861" lon="8.5368867"><ele>722.0</ele><time>2026-04-04T10:59:51.964Z</time></trkpt><trkpt lat="44.5409813" lon="8.5368667"><ele>722.0</ele><time>2026-04-04T10:59:52.964Z</time></trkpt><trkpt lat="44.5410611" lon="8.5367937"><ele>722.0</ele><time>2026-04-04T10:59:53.964Z</time></trkpt><trkpt lat="44.5411248" lon="8.536672"><ele>722.0</ele><time>2026-04-04T10:59:54.964Z</time></trkpt><trkpt lat="44.5411943" lon="8.5365063"><ele>723.5</ele><time>2026-04-04T10:59:55.964Z</time></trkpt><trkpt lat="44.5412518" lon="8.536344"><ele>725.0</ele><time>2026-04-04T10:59:56.964Z</time></trkpt><trkpt lat="44.5413085" lon="8.5361873"><ele>726.5</ele><time>2026-04-04T10:59:57.964Z</time></trkpt><trkpt lat="44.5413864" lon="8.5360278"><ele>728.0</ele><time>2026-04-04T10:59:58.964Z</time></trkpt><trkpt lat="44.5414405" lon="8.5358746"><ele>728.0</ele><time>2026-04-04T10:59:59.963Z</time></trkpt><trkpt lat="44.5415119" lon="8.5357347"><ele>728.0</ele><time>2026-04-04T11:00:00.963Z</time></trkpt><trkpt lat="44.5415896" lon="8.5355998"><ele>728.0</ele><time>2026-04-04T11:00:01.964Z</time></trkpt><trkpt lat="44.5416722" lon="8.5354703"><ele>728.0</ele><time>2026-04-04T11:00:02.963Z</time></trkpt><trkpt lat="44.5417547" lon="8.5353426"><ele>727.75</ele><time>2026-04-04T11:00:03.964Z</time></trkpt><trkpt lat="44.5418322" lon="8.5352208"><ele>727.5</ele><time>2026-04-04T11:00:04.963Z</time></trkpt><trkpt lat="44.5419115" lon="8.5351099"><ele>727.25</ele><time>2026-04-04T11:00:05.964Z</time></trkpt><trkpt lat="44.5419937" lon="8.5350007"><ele>727.0</ele><time>2026-04-04T11:00:06.964Z</time></trkpt><trkpt lat="44.5420695" lon="8.5348883"><ele>727.0</ele><time>2026-04-04T11:00:07.964Z</time></trkpt><trkpt lat="44.542157" lon="8.5347839"><ele>727.0</ele><time>2026-04-04T11:00:08.964Z</time></trkpt><trkpt lat="44.5422446" lon="8.5346704"><ele>727.0</ele><time>2026-04-04T11:00:09.963Z</time></trkpt><trkpt lat="44.5423411" lon="8.5345642"><ele>727.0</ele><time>2026-04-04T11:00:10.964Z</time></trkpt><trkpt lat="44.542449" lon="8.5344692"><ele>720.5</ele><time>2026-04-04T11:00:11.963Z</time></trkpt><trkpt lat="44.5425587" lon="8.5343763"><ele>714.0</ele><time>2026-04-04T11:00:12.964Z</time></trkpt><trkpt lat="44.54266" lon="8.5342732"><ele>707.5</ele><time>2026-04-04T11:00:13.964Z</time></trkpt><trkpt lat="44.5427508" lon="8.534151"><ele>701.0</ele><time>2026-04-04T11:00:14.964Z</time></trkpt><trkpt lat="44.5428375" lon="8.5340096"><ele>702.5</ele><time>2026-04-04T11:00:15.964Z</time></trkpt><trkpt lat="44.5429252" lon="8.5338819"><ele>704.0</ele><time>2026-04-04T11:00:16.964Z</time></trkpt><trkpt lat="44.5430214" lon="8.5337632"><ele>705.5</ele><time>2026-04-04T11:00:17.963Z</time></trkpt><trkpt lat="44.5431114" lon="8.533654"><ele>707.0</ele><time>2026-04-04T11:00:18.964Z</time></trkpt><trkpt lat="44.5431846" lon="8.5335314"><ele>707.0</ele><time>2026-04-04T11:00:19.963Z</time></trkpt><trkpt lat="44.5432383" lon="8.5333846"><ele>707.0</ele><time>2026-04-04T11:00:20.964Z</time></trkpt><trkpt lat="44.5432727" lon="8.5332234"><ele>707.0</ele><time>2026-04-04T11:00:21.964Z</time></trkpt><trkpt lat="44.5433125" lon="8.533057"><ele>707.0</ele><time>2026-04-04T11:00:22.964Z</time></trkpt><trkpt lat="44.5433561" lon="8.5329115"><ele>703.2</ele><time>2026-04-04T11:00:23.964Z</time></trkpt><trkpt lat="44.5434156" lon="8.5327756"><ele>699.4000000000001</ele><time>2026-04-04T11:00:24.964Z</time></trkpt><trkpt lat="44.5434853" lon="8.5326578"><ele>695.5999999999999</ele><time>2026-04-04T11:00:25.963Z</time></trkpt><trkpt lat="44.5435502" lon="8.5325526"><ele>691.8</ele><time>2026-04-04T11:00:26.964Z</time></trkpt><trkpt lat="44.5436029" lon="8.5324355"><ele>688.0</ele><time>2026-04-04T11:00:27.964Z</time></trkpt><trkpt lat="44.5436451" lon="8.5323041"><ele>688.0</ele><time>2026-04-04T11:00:28.963Z</time></trkpt><trkpt lat="44.5436782" lon="8.532173"><ele>688.0</ele><time>2026-04-04T11:00:29.964Z</time></trkpt><trkpt lat="44.5437177" lon="8.532061"><ele>688.0</ele><time>2026-04-04T11:00:30.964Z</time></trkpt><trkpt lat="44.543773" lon="8.5319825"><ele>688.0</ele><time>2026-04-04T11:00:31.964Z</time></trkpt><trkpt lat="44.5438474" lon="8.5319374"><ele>688.0</ele><time>2026-04-04T11:00:32.964Z</time></trkpt><trkpt lat="44.5439366" lon="8.5319274"><ele>688.0</ele><time>2026-04-04T11:00:33.964Z</time></trkpt><trkpt lat="44.5440311" lon="8.5319245"><ele>690.8</ele><time>2026-04-04T11:00:34.964Z</time></trkpt><trkpt lat="44.5441177" lon="8.5318832"><ele>693.5999999999999</ele><time>2026-04-04T11:00:35.964Z</time></trkpt><trkpt lat="44.5441816" lon="8.5317937"><ele>696.4000000000001</ele><time>2026-04-04T11:00:36.964Z</time></trkpt><trkpt lat="44.5442247" lon="8.531664"><ele>699.2</ele><time>2026-04-04T11:00:37.964Z</time></trkpt><trkpt lat="44.5442404" lon="8.5315174"><ele>702.0</ele><time>2026-04-04T11:00:38.964Z</time></trkpt><trkpt lat="44.5442439" lon="8.531369"><ele>698.6</ele><time>2026-04-04T11:00:39.963Z</time></trkpt><trkpt lat="44.5442414" lon="8.5312204"><ele>695.2</ele><time>2026-04-04T11:00:40.964Z</time></trkpt><trkpt lat="44.5442382" lon="8.5310837"><ele>691.8</ele><time>2026-04-04T11:00:41.964Z</time></trkpt><trkpt lat="44.5442469" lon="8.530957"><ele>688.4</ele><time>2026-04-04T11:00:42.963Z</time></trkpt><trkpt lat="44.5442774" lon="8.5308444"><ele>685.0</ele><time>2026-04-04T11:00:43.964Z</time></trkpt><trkpt lat="44.5443325" lon="8.5307598"><ele>685.0</ele><time>2026-04-04T11:00:44.964Z</time></trkpt><trkpt lat="44.544411" lon="8.5307045"><ele>685.0</ele><time>2026-04-04T11:00:45.964Z</time></trkpt><trkpt lat="44.5444992" lon="8.5306906"><ele>685.0</ele><time>2026-04-04T11:00:46.963Z</time></trkpt><trkpt lat="44.5445957" lon="8.5307173"><ele>685.0</ele><time>2026-04-04T11:00:47.964Z</time></trkpt><trkpt lat="44.5447011" lon="8.5307284"><ele>685.0</ele><time>2026-04-04T11:00:48.963Z</time></trkpt><trkpt lat="44.5448056" lon="8.5306979"><ele>685.2</ele><time>2026-04-04T11:00:49.963Z</time></trkpt><trkpt lat="44.5449031" lon="8.5306224"><ele>685.4</ele><time>2026-04-04T11:00:50.963Z</time></trkpt><trkpt lat="44.5449776" lon="8.5305156"><ele>685.5999999999999</ele><time>2026-04-04T11:00:51.963Z</time></trkpt><trkpt lat="44.5450477" lon="8.5304108"><ele>685.8</ele><time>2026-04-04T11:00:52.964Z</time></trkpt><trkpt lat="44.5451241" lon="8.5303282"><ele>686.0</ele><time>2026-04-04T11:00:53.964Z</time></trkpt><trkpt lat="44.5452125" lon="8.5302779"><ele>686.0</ele><time>2026-04-04T11:00:54.964Z</time></trkpt><trkpt lat="44.545311" lon="8.5302629"><ele>686.0</ele><time>2026-04-04T11:00:55.963Z</time></trkpt><trkpt lat="44.5454193" lon="8.5302626"><ele>686.0</ele><time>2026-04-04T11:00:56.964Z</time></trkpt><trkpt lat="44.5455361" lon="8.5302722"><ele>686.0</ele><time>2026-04-04T11:00:57.964Z</time></trkpt><trkpt lat="44.5456618" lon="8.5302843"><ele>688.25</ele><time>2026-04-04T11:00:58.963Z</time></trkpt><trkpt lat="44.54579" lon="8.5302906"><ele>690.5</ele><time>2026-04-04T11:00:59.963Z</time></trkpt><trkpt lat="44.5459225" lon="8.5302946"><ele>692.75</ele><time>2026-04-04T11:01:00.963Z</time></trkpt><trkpt lat="44.5460539" lon="8.5302985"><ele>695.0</ele><time>2026-04-04T11:01:01.964Z</time></trkpt><trkpt lat="44.5461789" lon="8.5303085"><ele>697.75</ele><time>2026-04-04T11:01:02.964Z</time></trkpt><trkpt lat="44.5462985" lon="8.5303184"><ele>700.5</ele><time>2026-04-04T11:01:03.964Z</time></trkpt><trkpt lat="44.5464167" lon="8.530319"><ele>703.25</ele><time>2026-04-04T11:01:04.964Z</time></trkpt><trkpt lat="44.5465308" lon="8.5302993"><ele>706.0</ele><time>2026-04-04T11:01:05.964Z</time></trkpt><trkpt lat="44.54664" lon="8.5302391"><ele>706.0</ele><time>2026-04-04T11:01:06.964Z</time></trkpt><trkpt lat="44.546743" lon="8.5301442"><ele>706.0</ele><time>2026-04-04T11:01:07.964Z</time></trkpt><trkpt lat="44.5468268" lon="8.5300175"><ele>706.0</ele><time>2026-04-04T11:01:08.964Z</time></trkpt><trkpt lat="44.5468192" lon="8.5298104"><ele>706.0</ele><time>2026-04-04T11:01:09.964Z</time></trkpt><trkpt lat="44.546793" lon="8.5295901"><ele>704.0</ele><time>2026-04-04T11:01:10.963Z</time></trkpt><trkpt lat="44.5467782" lon="8.5293733"><ele>702.0</ele><time>2026-04-04T11:01:11.963Z</time></trkpt><trkpt lat="44.5467772" lon="8.5291958"><ele>700.0</ele><time>2026-04-04T11:01:12.964Z</time></trkpt><trkpt lat="44.5467963" lon="8.5290154"><ele>698.0</ele><time>2026-04-04T11:01:13.964Z</time></trkpt><trkpt lat="44.5468314" lon="8.5288408"><ele>697.0</ele><time>2026-04-04T11:01:14.964Z</time></trkpt><trkpt lat="44.5468398" lon="8.5286574"><ele>696.0</ele><time>2026-04-04T11:01:15.963Z</time></trkpt><trkpt lat="44.5468206" lon="8.5284536"><ele>695.0</ele><time>2026-04-04T11:01:16.964Z</time></trkpt><trkpt lat="44.5467896" lon="8.5282611"><ele>694.0</ele><time>2026-04-04T11:01:17.964Z</time></trkpt><trkpt lat="44.546776" lon="8.5280931"><ele>694.0</ele><time>2026-04-04T11:01:18.964Z</time></trkpt><trkpt lat="44.5467715" lon="8.5279334"><ele>694.0</ele><time>2026-04-04T11:01:19.963Z</time></trkpt><trkpt lat="44.5467693" lon="8.5277797"><ele>694.0</ele><time>2026-04-04T11:01:20.964Z</time></trkpt><trkpt lat="44.546755" lon="8.5276354"><ele>694.0</ele><time>2026-04-04T11:01:21.964Z</time></trkpt><trkpt lat="44.5467502" lon="8.5274804"><ele>694.0</ele><time>2026-04-04T11:01:22.964Z</time></trkpt><trkpt lat="44.5467559" lon="8.5273175"><ele>693.75</ele><time>2026-04-04T11:01:23.963Z</time></trkpt><trkpt lat="44.5467892" lon="8.5271403"><ele>693.5</ele><time>2026-04-04T11:01:24.964Z</time></trkpt><trkpt lat="44.5468235" lon="8.526953"><ele>693.25</ele><time>2026-04-04T11:01:25.963Z</time></trkpt><trkpt lat="44.5468437" lon="8.5267607"><ele>693.0</ele><time>2026-04-04T11:01:26.964Z</time></trkpt><trkpt lat="44.5468397" lon="8.5265623"><ele>693.3333333333334</ele><time>2026-04-04T11:01:27.964Z</time></trkpt><trkpt lat="44.5468262" lon="8.5263614"><ele>693.6666666666667</ele><time>2026-04-04T11:01:28.964Z</time></trkpt><trkpt lat="44.5468143" lon="8.5261516"><ele>694.0</ele><time>2026-04-04T11:01:29.964Z</time></trkpt><trkpt lat="44.5468099" lon="8.5259161"><ele>694.0</ele><time>2026-04-04T11:01:30.964Z</time></trkpt><trkpt lat="44.5468218" lon="8.5256914"><ele>694.0</ele><time>2026-04-04T11:01:31.964Z</time></trkpt><trkpt lat="44.5468442" lon="8.525478"><ele>694.0</ele><time>2026-04-04T11:01:32.963Z</time></trkpt><trkpt lat="44.5468786" lon="8.5252831"><ele>693.5</ele><time>2026-04-04T11:01:33.964Z</time></trkpt><trkpt lat="44.5469128" lon="8.525125"><ele>693.0</ele><time>2026-04-04T11:01:34.964Z</time></trkpt><trkpt lat="44.5469627" lon="8.5249764"><ele>692.5</ele><time>2026-04-04T11:01:35.963Z</time></trkpt><trkpt lat="44.5470221" lon="8.5248525"><ele>692.0</ele><time>2026-04-04T11:01:36.964Z</time></trkpt><trkpt lat="44.5470995" lon="8.5247378"><ele>694.25</ele><time>2026-04-04T11:01:37.964Z</time></trkpt><trkpt lat="44.5472021" lon="8.5246329"><ele>696.5</ele><time>2026-04-04T11:01:38.964Z</time></trkpt><trkpt lat="44.5472997" lon="8.5245488"><ele>698.75</ele><time>2026-04-04T11:01:39.964Z</time></trkpt><trkpt lat="44.5473962" lon="8.5244744"><ele>701.0</ele><time>2026-04-04T11:01:40.963Z</time></trkpt><trkpt lat="44.547492" lon="8.5243957"><ele>701.0</ele><time>2026-04-04T11:01:41.963Z</time></trkpt><trkpt lat="44.5475849" lon="8.5243199"><ele>701.0</ele><time>2026-04-04T11:01:42.964Z</time></trkpt><trkpt lat="44.5476776" lon="8.5242331"><ele>701.0</ele><time>2026-04-04T11:01:43.964Z</time></trkpt><trkpt lat="44.547764" lon="8.524134"><ele>701.0</ele><time>2026-04-04T11:01:44.963Z</time></trkpt><trkpt lat="44.5478431" lon="8.5240238"><ele>701.0</ele><time>2026-04-04T11:01:45.963Z</time></trkpt><trkpt lat="44.5479111" lon="8.5238955"><ele>701.0</ele><time>2026-04-04T11:01:46.963Z</time></trkpt><trkpt lat="44.5479826" lon="8.5237641"><ele>701.0</ele><time>2026-04-04T11:01:47.964Z</time></trkpt><trkpt lat="44.5480579" lon="8.5236397"><ele>701.0</ele><time>2026-04-04T11:01:48.964Z</time></trkpt><trkpt lat="44.5481334" lon="8.5235261"><ele>701.0</ele><time>2026-04-04T11:01:49.964Z</time></trkpt><trkpt lat="44.5482157" lon="8.5234302"><ele>702.75</ele><time>2026-04-04T11:01:50.964Z</time></trkpt><trkpt lat="44.5483162" lon="8.5233619"><ele>704.5</ele><time>2026-04-04T11:01:51.964Z</time></trkpt><trkpt lat="44.548414" lon="8.5232789"><ele>706.25</ele><time>2026-04-04T11:01:52.963Z</time></trkpt><trkpt lat="44.5485076" lon="8.5231848"><ele>708.0</ele><time>2026-04-04T11:01:53.964Z</time></trkpt><trkpt lat="44.5485995" lon="8.523072"><ele>708.0</ele><time>2026-04-04T11:01:54.964Z</time></trkpt><trkpt lat="44.5486875" lon="8.5229515"><ele>708.0</ele><time>2026-04-04T11:01:55.964Z</time></trkpt><trkpt lat="44.5487591" lon="8.5228258"><ele>708.0</ele><time>2026-04-04T11:01:56.964Z</time></trkpt><trkpt lat="44.5488057" lon="8.5226944"><ele>708.0</ele><time>2026-04-04T11:01:57.964Z</time></trkpt><trkpt lat="44.5488161" lon="8.522548"><ele>708.0</ele><time>2026-04-04T11:01:58.964Z</time></trkpt><trkpt lat="44.5488034" lon="8.5223885"><ele>713.5</ele><time>2026-04-04T11:01:59.964Z</time></trkpt><trkpt lat="44.5487916" lon="8.5222144"><ele>719.0</ele><time>2026-04-04T11:02:00.964Z</time></trkpt><trkpt lat="44.5487961" lon="8.5220303"><ele>724.5</ele><time>2026-04-04T11:02:01.964Z</time></trkpt><trkpt lat="44.5487931" lon="8.5218635"><ele>730.0</ele><time>2026-04-04T11:02:02.964Z</time></trkpt><trkpt lat="44.5487913" lon="8.5216952"><ele>730.0</ele><time>2026-04-04T11:02:03.963Z</time></trkpt><trkpt lat="44.5487961" lon="8.5215201"><ele>730.0</ele><time>2026-04-04T11:02:04.964Z</time></trkpt><trkpt lat="44.5487998" lon="8.5213424"><ele>730.0</ele><time>2026-04-04T11:02:05.964Z</time></trkpt><trkpt lat="44.5488095" lon="8.5211567"><ele>730.0</ele><time>2026-04-04T11:02:06.964Z</time></trkpt><trkpt lat="44.5488224" lon="8.5209738"><ele>729.8</ele><time>2026-04-04T11:02:07.964Z</time></trkpt><trkpt lat="44.5488497" lon="8.5207924"><ele>729.6</ele><time>2026-04-04T11:02:08.964Z</time></trkpt><trkpt lat="44.5488701" lon="8.5206302"><ele>729.4000000000001</ele><time>2026-04-04T11:02:09.964Z</time></trkpt><trkpt lat="44.5489051" lon="8.5205005"><ele>729.2</ele><time>2026-04-04T11:02:10.964Z</time></trkpt><trkpt lat="44.5489551" lon="8.520397"><ele>729.0</ele><time>2026-04-04T11:02:11.964Z</time></trkpt><trkpt lat="44.5490186" lon="8.5203196"><ele>728.3333333333334</ele><time>2026-04-04T11:02:12.963Z</time></trkpt><trkpt lat="44.5490876" lon="8.5202529"><ele>727.6666666666666</ele><time>2026-04-04T11:02:13.963Z</time></trkpt><trkpt lat="44.549161" lon="8.520194"><ele>727.0</ele><time>2026-04-04T11:02:14.964Z</time></trkpt><trkpt lat="44.5492283" lon="8.5201144"><ele>726.3333333333333</ele><time>2026-04-04T11:02:15.963Z</time></trkpt><trkpt lat="44.5492842" lon="8.5200123"><ele>725.6666666666666</ele><time>2026-04-04T11:02:16.963Z</time></trkpt><trkpt lat="44.5493164" lon="8.5198951"><ele>725.0</ele><time>2026-04-04T11:02:17.964Z</time></trkpt><trkpt lat="44.5493326" lon="8.5197703"><ele>725.0</ele><time>2026-04-04T11:02:18.964Z</time></trkpt><trkpt lat="44.5493441" lon="8.519643"><ele>725.0</ele><time>2026-04-04T11:02:19.964Z</time></trkpt><trkpt lat="44.5493496" lon="8.5195114"><ele>725.0</ele><time>2026-04-04T11:02:20.964Z</time></trkpt><trkpt lat="44.5493564" lon="8.5193759"><ele>725.0</ele><time>2026-04-04T11:02:21.964Z</time></trkpt><trkpt lat="44.5493639" lon="8.5192368"><ele>725.0</ele><time>2026-04-04T11:02:22.964Z</time></trkpt><trkpt lat="44.5493706" lon="8.5191025"><ele>725.8</ele><time>2026-04-04T11:02:23.964Z</time></trkpt><trkpt lat="44.5493779" lon="8.5189703"><ele>726.6</ele><time>2026-04-04T11:02:24.963Z</time></trkpt><trkpt lat="44.5493807" lon="8.518842"><ele>727.4000000000001</ele><time>2026-04-04T11:02:25.964Z</time></trkpt><trkpt lat="44.5493838" lon="8.5187105"><ele>728.2</ele><time>2026-04-04T11:02:26.964Z</time></trkpt><trkpt lat="44.5493898" lon="8.5185691"><ele>729.0</ele><time>2026-04-04T11:02:27.964Z</time></trkpt><trkpt lat="44.5493975" lon="8.5184204"><ele>729.6</ele><time>2026-04-04T11:02:28.964Z</time></trkpt><trkpt lat="44.5494059" lon="8.5182701"><ele>730.2</ele><time>2026-04-04T11:02:29.964Z</time></trkpt><trkpt lat="44.5494211" lon="8.518121"><ele>730.8000000000001</ele><time>2026-04-04T11:02:30.964Z</time></trkpt><trkpt lat="44.5494321" lon="8.5179794"><ele>731.4000000000001</ele><time>2026-04-04T11:02:31.964Z</time></trkpt><trkpt lat="44.5494502" lon="8.5178414"><ele>732.0</ele><time>2026-04-04T11:02:32.964Z</time></trkpt><trkpt lat="44.5494812" lon="8.5176975"><ele>734.5</ele><time>2026-04-04T11:02:33.964Z</time></trkpt><trkpt lat="44.5495241" lon="8.5175545"><ele>737.0</ele><time>2026-04-04T11:02:34.964Z</time></trkpt><trkpt lat="44.5495675" lon="8.5174073"><ele>739.5</ele><time>2026-04-04T11:02:35.964Z</time></trkpt><trkpt lat="44.5496189" lon="8.517259"><ele>742.0</ele><time>2026-04-04T11:02:36.964Z</time></trkpt><trkpt lat="44.5496697" lon="8.517114"><ele>738.25</ele><time>2026-04-04T11:02:37.964Z</time></trkpt><trkpt lat="44.5497156" lon="8.5169608"><ele>734.5</ele><time>2026-04-04T11:02:38.964Z</time></trkpt><trkpt lat="44.5497641" lon="8.5168189"><ele>730.75</ele><time>2026-04-04T11:02:39.964Z</time></trkpt><trkpt lat="44.5498297" lon="8.5166838"><ele>727.0</ele><time>2026-04-04T11:02:40.964Z</time></trkpt><trkpt lat="44.5499003" lon="8.5165493"><ele>727.0</ele><time>2026-04-04T11:02:41.964Z</time></trkpt><trkpt lat="44.5499757" lon="8.51641"><ele>727.0</ele><time>2026-04-04T11:02:42.964Z</time></trkpt><trkpt lat="44.5500483" lon="8.5162685"><ele>727.0</ele><time>2026-04-04T11:02:43.963Z</time></trkpt><trkpt lat="44.5501221" lon="8.5161158"><ele>727.0</ele><time>2026-04-04T11:02:44.964Z</time></trkpt><trkpt lat="44.5502004" lon="8.5159684"><ele>726.25</ele><time>2026-04-04T11:02:45.964Z</time></trkpt><trkpt lat="44.5502852" lon="8.5158264"><ele>725.5</ele><time>2026-04-04T11:02:46.963Z</time></trkpt><trkpt lat="44.5503723" lon="8.5156897"><ele>724.75</ele><time>2026-04-04T11:02:47.964Z</time></trkpt><trkpt lat="44.5504584" lon="8.515561"><ele>724.0</ele><time>2026-04-04T11:02:48.964Z</time></trkpt><trkpt lat="44.5505501" lon="8.5154331"><ele>726.0</ele><time>2026-04-04T11:02:49.964Z</time></trkpt><trkpt lat="44.5506379" lon="8.5152998"><ele>728.0</ele><time>2026-04-04T11:02:50.964Z</time></trkpt><trkpt lat="44.5507203" lon="8.5151606"><ele>730.0</ele><time>2026-04-04T11:02:51.964Z</time></trkpt><trkpt lat="44.5507968" lon="8.5150108"><ele>732.0</ele><time>2026-04-04T11:02:52.963Z</time></trkpt><trkpt lat="44.5508655" lon="8.5148377"><ele>732.0</ele><time>2026-04-04T11:02:53.963Z</time></trkpt><trkpt lat="44.5509216" lon="8.5146762"><ele>732.0</ele><time>2026-04-04T11:02:54.963Z</time></trkpt><trkpt lat="44.5509689" lon="8.5145199"><ele>732.0</ele><time>2026-04-04T11:02:55.963Z</time></trkpt><trkpt lat="44.5510033" lon="8.5143714"><ele>732.0</ele><time>2026-04-04T11:02:56.964Z</time></trkpt><trkpt lat="44.5510283" lon="8.5142385"><ele>732.0</ele><time>2026-04-04T11:02:57.964Z</time></trkpt><trkpt lat="44.5510295" lon="8.5141024"><ele>732.0</ele><time>2026-04-04T11:02:58.964Z</time></trkpt><trkpt lat="44.5510117" lon="8.5139777"><ele>732.0</ele><time>2026-04-04T11:02:59.964Z</time></trkpt><trkpt lat="44.5509725" lon="8.5138505"><ele>732.0</ele><time>2026-04-04T11:03:00.964Z</time></trkpt><trkpt lat="44.5509186" lon="8.5137363"><ele>732.0</ele><time>2026-04-04T11:03:01.964Z</time></trkpt><trkpt lat="44.5508574" lon="8.5136198"><ele>731.4000000000001</ele><time>2026-04-04T11:03:02.963Z</time></trkpt><trkpt lat="44.5508153" lon="8.5134972"><ele>730.8000000000001</ele><time>2026-04-04T11:03:03.964Z</time></trkpt><trkpt lat="44.5507994" lon="8.5133713"><ele>730.2</ele><time>2026-04-04T11:03:04.964Z</time></trkpt><trkpt lat="44.5508198" lon="8.513232"><ele>729.6</ele><time>2026-04-04T11:03:05.964Z</time></trkpt><trkpt lat="44.5508727" lon="8.5130881"><ele>729.0</ele><time>2026-04-04T11:03:06.964Z</time></trkpt><trkpt lat="44.5509475" lon="8.5129472"><ele>729.25</ele><time>2026-04-04T11:03:07.963Z</time></trkpt><trkpt lat="44.5510385" lon="8.5128103"><ele>729.5</ele><time>2026-04-04T11:03:08.964Z</time></trkpt><trkpt lat="44.5511227" lon="8.5126734"><ele>729.75</ele><time>2026-04-04T11:03:09.963Z</time></trkpt><trkpt lat="44.5511929" lon="8.5125204"><ele>730.0</ele><time>2026-04-04T11:03:10.964Z</time></trkpt><trkpt lat="44.5512353" lon="8.5123709"><ele>727.25</ele><time>2026-04-04T11:03:11.963Z</time></trkpt><trkpt lat="44.5512896" lon="8.5122062"><ele>724.5</ele><time>2026-04-04T11:03:12.963Z</time></trkpt><trkpt lat="44.5513693" lon="8.5120536"><ele>721.75</ele><time>2026-04-04T11:03:13.964Z</time></trkpt><trkpt lat="44.5514626" lon="8.511904"><ele>719.0</ele><time>2026-04-04T11:03:14.964Z</time></trkpt><trkpt lat="44.551572" lon="8.5117765"><ele>719.0</ele><time>2026-04-04T11:03:15.964Z</time></trkpt><trkpt lat="44.5516795" lon="8.5116514"><ele>719.0</ele><time>2026-04-04T11:03:16.964Z</time></trkpt><trkpt lat="44.5517768" lon="8.5115196"><ele>719.0</ele><time>2026-04-04T11:03:17.964Z</time></trkpt><trkpt lat="44.5518718" lon="8.5113983"><ele>719.0</ele><time>2026-04-04T11:03:18.963Z</time></trkpt><trkpt lat="44.5519676" lon="8.5112807"><ele>716.75</ele><time>2026-04-04T11:03:19.964Z</time></trkpt><trkpt lat="44.5520634" lon="8.5111657"><ele>714.5</ele><time>2026-04-04T11:03:20.963Z</time></trkpt><trkpt lat="44.5521608" lon="8.5110656"><ele>712.25</ele><time>2026-04-04T11:03:21.963Z</time></trkpt><trkpt lat="44.5522635" lon="8.5109854"><ele>710.0</ele><time>2026-04-04T11:03:22.962Z</time></trkpt><trkpt lat="44.5523772" lon="8.5109197"><ele>710.0</ele><time>2026-04-04T11:03:23.962Z</time></trkpt><trkpt lat="44.5524862" lon="8.5108799"><ele>710.0</ele><time>2026-04-04T11:03:24.963Z</time></trkpt><trkpt lat="44.5525946" lon="8.510867"><ele>710.0</ele><time>2026-04-04T11:03:25.963Z</time></trkpt><trkpt lat="44.5526972" lon="8.5108705"><ele>710.0</ele><time>2026-04-04T11:03:26.963Z</time></trkpt><trkpt lat="44.5527875" lon="8.5108546"><ele>710.0</ele><time>2026-04-04T11:03:27.963Z</time></trkpt><trkpt lat="44.552856" lon="8.5108158"><ele>710.3333333333333</ele><time>2026-04-04T11:03:28.963Z</time></trkpt><trkpt lat="44.552913" lon="8.5107432"><ele>710.6666666666666</ele><time>2026-04-04T11:03:29.963Z</time></trkpt><trkpt lat="44.5529671" lon="8.5106477"><ele>711.0</ele><time>2026-04-04T11:03:30.963Z</time></trkpt><trkpt lat="44.5530233" lon="8.5105473"><ele>711.3333333333334</ele><time>2026-04-04T11:03:31.963Z</time></trkpt><trkpt lat="44.5530845" lon="8.5104502"><ele>711.6666666666667</ele><time>2026-04-04T11:03:32.963Z</time></trkpt><trkpt lat="44.5531514" lon="8.510368"><ele>712.0</ele><time>2026-04-04T11:03:33.963Z</time></trkpt><trkpt lat="44.5532299" lon="8.5102964"><ele>712.0</ele><time>2026-04-04T11:03:34.963Z</time></trkpt><trkpt lat="44.5533108" lon="8.5102277"><ele>712.0</ele><time>2026-04-04T11:03:35.962Z</time></trkpt><trkpt lat="44.5533932" lon="8.5101566"><ele>712.0</ele><time>2026-04-04T11:03:36.962Z</time></trkpt><trkpt lat="44.5534775" lon="8.5100805"><ele>712.0</ele><time>2026-04-04T11:03:37.963Z</time></trkpt><trkpt lat="44.5535531" lon="8.5099815"><ele>712.0</ele><time>2026-04-04T11:03:38.962Z</time></trkpt><trkpt lat="44.553612" lon="8.5098647"><ele>712.0</ele><time>2026-04-04T11:03:39.963Z</time></trkpt><trkpt lat="44.553657" lon="8.509722"><ele>712.0</ele><time>2026-04-04T11:03:40.963Z</time></trkpt><trkpt lat="44.5536773" lon="8.5095686"><ele>712.0</ele><time>2026-04-04T11:03:41.963Z</time></trkpt><trkpt lat="44.5536742" lon="8.5094103"><ele>712.0</ele><time>2026-04-04T11:03:42.963Z</time></trkpt><trkpt lat="44.5536583" lon="8.5092477"><ele>713.6</ele><time>2026-04-04T11:03:43.962Z</time></trkpt><trkpt lat="44.5536473" lon="8.5090915"><ele>715.2</ele><time>2026-04-04T11:03:44.963Z</time></trkpt><trkpt lat="44.5536532" lon="8.5089544"><ele>716.8</ele><time>2026-04-04T11:03:45.963Z</time></trkpt><trkpt lat="44.553675" lon="8.5088344"><ele>718.4</ele><time>2026-04-04T11:03:46.963Z</time></trkpt><trkpt lat="44.5537147" lon="8.5087207"><ele>720.0</ele><time>2026-04-04T11:03:47.963Z</time></trkpt><trkpt lat="44.5537596" lon="8.5086168"><ele>720.0</ele><time>2026-04-04T11:03:48.963Z</time></trkpt><trkpt lat="44.5538041" lon="8.5085042"><ele>720.0</ele><time>2026-04-04T11:03:49.963Z</time></trkpt><trkpt lat="44.5538446" lon="8.5083803"><ele>720.0</ele><time>2026-04-04T11:03:50.963Z</time></trkpt><trkpt lat="44.5538803" lon="8.5082671"><ele>720.0</ele><time>2026-04-04T11:03:51.963Z</time></trkpt><trkpt lat="44.5539009" lon="8.5081604"><ele>720.0</ele><time>2026-04-04T11:03:52.962Z</time></trkpt><trkpt lat="44.553911" lon="8.5080549"><ele>720.0</ele><time>2026-04-04T11:03:53.963Z</time></trkpt><trkpt lat="44.5539119" lon="8.5079545"><ele>717.6</ele><time>2026-04-04T11:03:54.963Z</time></trkpt><trkpt lat="44.5538996" lon="8.5078618"><ele>715.2</ele><time>2026-04-04T11:03:55.963Z</time></trkpt><trkpt lat="44.5538553" lon="8.5077086"><ele>712.8</ele><time>2026-04-04T11:03:57.963Z</time></trkpt><trkpt lat="44.5538267" lon="8.5075312"><ele>710.4</ele><time>2026-04-04T11:03:59.962Z</time></trkpt><trkpt lat="44.5538658" lon="8.5073802"><ele>708.0</ele><time>2026-04-04T11:04:01.963Z</time></trkpt><trkpt lat="44.5539833" lon="8.5073392"><ele>708.0</ele><time>2026-04-04T11:04:03.962Z</time></trkpt><trkpt lat="44.5540582" lon="8.5073416"><ele>708.0</ele><time>2026-04-04T11:04:04.963Z</time></trkpt><trkpt lat="44.5541381" lon="8.5073518"><ele>708.0</ele><time>2026-04-04T11:04:05.963Z</time></trkpt><trkpt lat="44.5542251" lon="8.5073718"><ele>708.0</ele><time>2026-04-04T11:04:06.963Z</time></trkpt><trkpt lat="44.5543032" lon="8.5073901"><ele>708.0</ele><time>2026-04-04T11:04:07.963Z</time></trkpt><trkpt lat="44.5543766" lon="8.5073894"><ele>708.0</ele><time>2026-04-04T11:04:08.962Z</time></trkpt><trkpt lat="44.5544518" lon="8.5073563"><ele>708.0</ele><time>2026-04-04T11:04:09.963Z</time></trkpt><trkpt lat="44.5545254" lon="8.5072814"><ele>708.0</ele><time>2026-04-04T11:04:10.962Z</time></trkpt><trkpt lat="44.5545996" lon="8.5071879"><ele>708.0</ele><time>2026-04-04T11:04:11.962Z</time></trkpt><trkpt lat="44.5546763" lon="8.5070834"><ele>708.0</ele><time>2026-04-04T11:04:12.963Z</time></trkpt><trkpt lat="44.5547495" lon="8.5069714"><ele>708.0</ele><time>2026-04-04T11:04:13.963Z</time></trkpt><trkpt lat="44.5548158" lon="8.5068372"><ele>706.0</ele><time>2026-04-04T11:04:14.963Z</time></trkpt><trkpt lat="44.5548758" lon="8.5066973"><ele>704.0</ele><time>2026-04-04T11:04:15.963Z</time></trkpt><trkpt lat="44.5549363" lon="8.5065535"><ele>702.0</ele><time>2026-04-04T11:04:16.963Z</time></trkpt><trkpt lat="44.5549905" lon="8.506427"><ele>700.0</ele><time>2026-04-04T11:04:17.963Z</time></trkpt><trkpt lat="44.5550398" lon="8.506304"><ele>698.0</ele><time>2026-04-04T11:04:18.962Z</time></trkpt><trkpt lat="44.5550758" lon="8.506181"><ele>695.4</ele><time>2026-04-04T11:04:19.962Z</time></trkpt><trkpt lat="44.5550885" lon="8.5060421"><ele>692.8</ele><time>2026-04-04T11:04:20.963Z</time></trkpt><trkpt lat="44.5550831" lon="8.5059025"><ele>690.2</ele><time>2026-04-04T11:04:21.963Z</time></trkpt><trkpt lat="44.5550591" lon="8.50576"><ele>687.6</ele><time>2026-04-04T11:04:22.963Z</time></trkpt><trkpt lat="44.5550341" lon="8.5056199"><ele>685.0</ele><time>2026-04-04T11:04:23.963Z</time></trkpt><trkpt lat="44.5550307" lon="8.5054682"><ele>683.2</ele><time>2026-04-04T11:04:24.963Z</time></trkpt><trkpt lat="44.5550658" lon="8.50533"><ele>681.4</ele><time>2026-04-04T11:04:25.963Z</time></trkpt><trkpt lat="44.5551358" lon="8.5052264"><ele>679.5999999999999</ele><time>2026-04-04T11:04:26.963Z</time></trkpt><trkpt lat="44.5552253" lon="8.5051611"><ele>677.8</ele><time>2026-04-04T11:04:27.963Z</time></trkpt><trkpt lat="44.5553251" lon="8.5051094"><ele>676.0</ele><time>2026-04-04T11:04:28.963Z</time></trkpt><trkpt lat="44.5554212" lon="8.5050525"><ele>675.1999999999999</ele><time>2026-04-04T11:04:29.963Z</time></trkpt><trkpt lat="44.5555157" lon="8.5049878"><ele>674.4</ele><time>2026-04-04T11:04:30.963Z</time></trkpt><trkpt lat="44.5555903" lon="8.5049006"><ele>673.6</ele><time>2026-04-04T11:04:31.963Z</time></trkpt><trkpt lat="44.5556476" lon="8.5047832"><ele>672.8</ele><time>2026-04-04T11:04:32.963Z</time></trkpt><trkpt lat="44.5556794" lon="8.5046554"><ele>672.0</ele><time>2026-04-04T11:04:33.962Z</time></trkpt><trkpt lat="44.5556895" lon="8.504518"><ele>671.2</ele><time>2026-04-04T11:04:34.963Z</time></trkpt><trkpt lat="44.5556828" lon="8.5043771"><ele>670.4000000000001</ele><time>2026-04-04T11:04:35.963Z</time></trkpt><trkpt lat="44.5556719" lon="8.5042441"><ele>669.5999999999999</ele><time>2026-04-04T11:04:36.963Z</time></trkpt><trkpt lat="44.5556581" lon="8.5041237"><ele>668.8</ele><time>2026-04-04T11:04:37.963Z</time></trkpt><trkpt lat="44.5556369" lon="8.5040117"><ele>668.0</ele><time>2026-04-04T11:04:38.963Z</time></trkpt><trkpt lat="44.5556094" lon="8.5038953"><ele>668.0</ele><time>2026-04-04T11:04:39.963Z</time></trkpt><trkpt lat="44.5555771" lon="8.5037722"><ele>668.0</ele><time>2026-04-04T11:04:40.962Z</time></trkpt><trkpt lat="44.5555394" lon="8.5036356"><ele>668.0</ele><time>2026-04-04T11:04:41.963Z</time></trkpt><trkpt lat="44.5555004" lon="8.5035013"><ele>668.0</ele><time>2026-04-04T11:04:42.963Z</time></trkpt><trkpt lat="44.5554634" lon="8.5033643"><ele>668.0</ele><time>2026-04-04T11:04:43.963Z</time></trkpt><trkpt lat="44.5554233" lon="8.5032241"><ele>667.8</ele><time>2026-04-04T11:04:44.963Z</time></trkpt><trkpt lat="44.5553743" lon="8.5030866"><ele>667.5999999999999</ele><time>2026-04-04T11:04:45.962Z</time></trkpt><trkpt lat="44.5553188" lon="8.5029543"><ele>667.4000000000001</ele><time>2026-04-04T11:04:46.963Z</time></trkpt><trkpt lat="44.5552574" lon="8.5028294"><ele>667.2</ele><time>2026-04-04T11:04:47.962Z</time></trkpt><trkpt lat="44.5551938" lon="8.5027064"><ele>667.0</ele><time>2026-04-04T11:04:48.963Z</time></trkpt><trkpt lat="44.5551311" lon="8.502585"><ele>669.0</ele><time>2026-04-04T11:04:49.963Z</time></trkpt><trkpt lat="44.5550686" lon="8.5024612"><ele>671.0</ele><time>2026-04-04T11:04:50.963Z</time></trkpt><trkpt lat="44.5550036" lon="8.5023379"><ele>673.0</ele><time>2026-04-04T11:04:51.963Z</time></trkpt><trkpt lat="44.5549455" lon="8.5022019"><ele>675.0</ele><time>2026-04-04T11:04:52.963Z</time></trkpt><trkpt lat="44.554894" lon="8.5020653"><ele>677.0</ele><time>2026-04-04T11:04:53.963Z</time></trkpt><trkpt lat="44.5548438" lon="8.5019333"><ele>678.0</ele><time>2026-04-04T11:04:54.963Z</time></trkpt><trkpt lat="44.554792" lon="8.5018104"><ele>679.0</ele><time>2026-04-04T11:04:55.963Z</time></trkpt><trkpt lat="44.5547405" lon="8.5016908"><ele>680.0</ele><time>2026-04-04T11:04:56.963Z</time></trkpt><trkpt lat="44.5546839" lon="8.501576"><ele>681.0</ele><time>2026-04-04T11:04:57.962Z</time></trkpt><trkpt lat="44.5546158" lon="8.5014809"><ele>682.0</ele><time>2026-04-04T11:04:58.963Z</time></trkpt><trkpt lat="44.554547" lon="8.5013883"><ele>681.8333333333334</ele><time>2026-04-04T11:04:59.963Z</time></trkpt><trkpt lat="44.5544898" lon="8.501304"><ele>681.6666666666667</ele><time>2026-04-04T11:05:00.963Z</time></trkpt><trkpt lat="44.5544452" lon="8.5012218"><ele>681.5</ele><time>2026-04-04T11:05:01.963Z</time></trkpt><trkpt lat="44.5544236" lon="8.5011354"><ele>681.3333333333334</ele><time>2026-04-04T11:05:02.962Z</time></trkpt><trkpt lat="44.5544611" lon="8.5009744"><ele>681.1666666666666</ele><time>2026-04-04T11:05:04.962Z</time></trkpt><trkpt lat="44.5545208" lon="8.5009136"><ele>681.0</ele><time>2026-04-04T11:05:05.963Z</time></trkpt><trkpt lat="44.5546143" lon="8.5008847"><ele>681.0</ele><time>2026-04-04T11:05:06.963Z</time></trkpt><trkpt lat="44.5547264" lon="8.5008806"><ele>681.0</ele><time>2026-04-04T11:05:07.962Z</time></trkpt><trkpt lat="44.5548363" lon="8.5008765"><ele>681.0</ele><time>2026-04-04T11:05:08.963Z</time></trkpt><trkpt lat="44.5549326" lon="8.5008594"><ele>681.0</ele><time>2026-04-04T11:05:09.963Z</time></trkpt><trkpt lat="44.5550133" lon="8.500812"><ele>681.0</ele><time>2026-04-04T11:05:10.963Z</time></trkpt><trkpt lat="44.5550786" lon="8.5007382"><ele>681.0</ele><time>2026-04-04T11:05:11.963Z</time></trkpt><trkpt lat="44.5551268" lon="8.5006493"><ele>681.0</ele><time>2026-04-04T11:05:12.963Z</time></trkpt><trkpt lat="44.5551484" lon="8.5005356"><ele>681.0</ele><time>2026-04-04T11:05:13.962Z</time></trkpt><trkpt lat="44.5551412" lon="8.5003993"><ele>681.0</ele><time>2026-04-04T11:05:14.963Z</time></trkpt><trkpt lat="44.5551251" lon="8.5002399"><ele>681.0</ele><time>2026-04-04T11:05:15.963Z</time></trkpt><trkpt lat="44.5551089" lon="8.5000667"><ele>679.25</ele><time>2026-04-04T11:05:16.963Z</time></trkpt><trkpt lat="44.5551122" lon="8.4998901"><ele>677.5</ele><time>2026-04-04T11:05:17.962Z</time></trkpt><trkpt lat="44.5551196" lon="8.4997139"><ele>675.75</ele><time>2026-04-04T11:05:18.963Z</time></trkpt><trkpt lat="44.5551345" lon="8.4995312"><ele>674.0</ele><time>2026-04-04T11:05:19.963Z</time></trkpt><trkpt lat="44.555153" lon="8.4993436"><ele>672.75</ele><time>2026-04-04T11:05:20.963Z</time></trkpt><trkpt lat="44.5551727" lon="8.4991533"><ele>671.5</ele><time>2026-04-04T11:05:21.963Z</time></trkpt><trkpt lat="44.5551812" lon="8.4989726"><ele>670.25</ele><time>2026-04-04T11:05:22.962Z</time></trkpt><trkpt lat="44.5551852" lon="8.498799"><ele>669.0</ele><time>2026-04-04T11:05:23.963Z</time></trkpt><trkpt lat="44.5551867" lon="8.498628"><ele>669.0</ele><time>2026-04-04T11:05:24.962Z</time></trkpt><trkpt lat="44.5551795" lon="8.4984573"><ele>669.0</ele><time>2026-04-04T11:05:25.963Z</time></trkpt><trkpt lat="44.5551537" lon="8.4982884"><ele>669.0</ele><time>2026-04-04T11:05:26.963Z</time></trkpt><trkpt lat="44.5551405" lon="8.4981171"><ele>669.0</ele><time>2026-04-04T11:05:27.963Z</time></trkpt><trkpt lat="44.5551429" lon="8.4979431"><ele>669.25</ele><time>2026-04-04T11:05:28.963Z</time></trkpt><trkpt lat="44.555158" lon="8.4977618"><ele>669.5</ele><time>2026-04-04T11:05:29.963Z</time></trkpt><trkpt lat="44.5551798" lon="8.4975764"><ele>669.75</ele><time>2026-04-04T11:05:30.963Z</time></trkpt><trkpt lat="44.5552069" lon="8.4973887"><ele>670.0</ele><time>2026-04-04T11:05:31.963Z</time></trkpt><trkpt lat="44.5552373" lon="8.4972019"><ele>669.5</ele><time>2026-04-04T11:05:32.962Z</time></trkpt><trkpt lat="44.555264" lon="8.4970283"><ele>669.0</ele><time>2026-04-04T11:05:33.963Z</time></trkpt><trkpt lat="44.5552948" lon="8.4968597"><ele>668.5</ele><time>2026-04-04T11:05:34.963Z</time></trkpt><trkpt lat="44.5553336" lon="8.4966952"><ele>668.0</ele><time>2026-04-04T11:05:35.963Z</time></trkpt><trkpt lat="44.555393" lon="8.4965326"><ele>669.25</ele><time>2026-04-04T11:05:36.963Z</time></trkpt><trkpt lat="44.5554619" lon="8.4963753"><ele>670.5</ele><time>2026-04-04T11:05:37.962Z</time></trkpt><trkpt lat="44.5555256" lon="8.4962318"><ele>671.75</ele><time>2026-04-04T11:05:38.962Z</time></trkpt><trkpt lat="44.5555896" lon="8.4960963"><ele>673.0</ele><time>2026-04-04T11:05:39.963Z</time></trkpt><trkpt lat="44.5556711" lon="8.4959504"><ele>673.0</ele><time>2026-04-04T11:05:40.963Z</time></trkpt><trkpt lat="44.5557515" lon="8.4957827"><ele>673.0</ele><time>2026-04-04T11:05:41.962Z</time></trkpt><trkpt lat="44.5558242" lon="8.4956108"><ele>673.0</ele><time>2026-04-04T11:05:42.963Z</time></trkpt><trkpt lat="44.5558814" lon="8.4954481"><ele>673.0</ele><time>2026-04-04T11:05:43.963Z</time></trkpt><trkpt lat="44.5559251" lon="8.495283"><ele>673.25</ele><time>2026-04-04T11:05:44.962Z</time></trkpt><trkpt lat="44.5559485" lon="8.4951052"><ele>673.5</ele><time>2026-04-04T11:05:45.963Z</time></trkpt><trkpt lat="44.5559497" lon="8.4949201"><ele>673.75</ele><time>2026-04-04T11:05:46.963Z</time></trkpt><trkpt lat="44.5559242" lon="8.4947176"><ele>674.0</ele><time>2026-04-04T11:05:47.962Z</time></trkpt><trkpt lat="44.5558763" lon="8.4945182"><ele>672.75</ele><time>2026-04-04T11:05:48.962Z</time></trkpt><trkpt lat="44.5558039" lon="8.494334"><ele>671.5</ele><time>2026-04-04T11:05:49.963Z</time></trkpt><trkpt lat="44.5557155" lon="8.4941904"><ele>670.25</ele><time>2026-04-04T11:05:50.962Z</time></trkpt><trkpt lat="44.5556252" lon="8.4940699"><ele>669.0</ele><time>2026-04-04T11:05:51.963Z</time></trkpt><trkpt lat="44.5555467" lon="8.4939644"><ele>669.0</ele><time>2026-04-04T11:05:52.963Z</time></trkpt><trkpt lat="44.5554699" lon="8.4938605"><ele>669.0</ele><time>2026-04-04T11:05:53.963Z</time></trkpt><trkpt lat="44.5553846" lon="8.4937711"><ele>669.0</ele><time>2026-04-04T11:05:54.963Z</time></trkpt><trkpt lat="44.5552962" lon="8.4936935"><ele>669.0</ele><time>2026-04-04T11:05:55.963Z</time></trkpt><trkpt lat="44.5552158" lon="8.4936134"><ele>669.0</ele><time>2026-04-04T11:05:56.963Z</time></trkpt><trkpt lat="44.5551436" lon="8.4935189"><ele>670.6</ele><time>2026-04-04T11:05:57.963Z</time></trkpt><trkpt lat="44.5550826" lon="8.4933998"><ele>672.2</ele><time>2026-04-04T11:05:58.963Z</time></trkpt><trkpt lat="44.5550334" lon="8.4932643"><ele>673.8000000000001</ele><time>2026-04-04T11:05:59.963Z</time></trkpt><trkpt lat="44.5549911" lon="8.4931148"><ele>675.4000000000001</ele><time>2026-04-04T11:06:00.963Z</time></trkpt><trkpt lat="44.5549661" lon="8.4929536"><ele>677.0</ele><time>2026-04-04T11:06:01.962Z</time></trkpt><trkpt lat="44.5549494" lon="8.4927978"><ele>678.0</ele><time>2026-04-04T11:06:02.963Z</time></trkpt><trkpt lat="44.5549412" lon="8.4926516"><ele>679.0</ele><time>2026-04-04T11:06:03.962Z</time></trkpt><trkpt lat="44.5549433" lon="8.4925017"><ele>680.0</ele><time>2026-04-04T11:06:04.963Z</time></trkpt><trkpt lat="44.5549429" lon="8.4923567"><ele>681.0</ele><time>2026-04-04T11:06:05.963Z</time></trkpt><trkpt lat="44.5549191" lon="8.4922266"><ele>682.0</ele><time>2026-04-04T11:06:06.963Z</time></trkpt><trkpt lat="44.554868" lon="8.4921048"><ele>683.0</ele><time>2026-04-04T11:06:07.963Z</time></trkpt><trkpt lat="44.5547945" lon="8.4919977"><ele>684.0</ele><time>2026-04-04T11:06:08.963Z</time></trkpt><trkpt lat="44.5547021" lon="8.4919103"><ele>685.0</ele><time>2026-04-04T11:06:09.963Z</time></trkpt><trkpt lat="44.5545944" lon="8.491838"><ele>686.0</ele><time>2026-04-04T11:06:10.963Z</time></trkpt><trkpt lat="44.5544954" lon="8.4917592"><ele>686.0</ele><time>2026-04-04T11:06:11.962Z</time></trkpt><trkpt lat="44.5543975" lon="8.4916881"><ele>686.0</ele><time>2026-04-04T11:06:12.962Z</time></trkpt><trkpt lat="44.5543131" lon="8.4916085"><ele>686.0</ele><time>2026-04-04T11:06:13.963Z</time></trkpt><trkpt lat="44.554242" lon="8.4915217"><ele>686.0</ele><time>2026-04-04T11:06:14.963Z</time></trkpt><trkpt lat="44.5541898" lon="8.4914178"><ele>686.0</ele><time>2026-04-04T11:06:15.963Z</time></trkpt><trkpt lat="44.5541606" lon="8.4912954"><ele>685.1999999999999</ele><time>2026-04-04T11:06:16.963Z</time></trkpt><trkpt lat="44.5541499" lon="8.4911555"><ele>684.4</ele><time>2026-04-04T11:06:17.963Z</time></trkpt><trkpt lat="44.554161" lon="8.4910193"><ele>683.6</ele><time>2026-04-04T11:06:18.963Z</time></trkpt><trkpt lat="44.554165" lon="8.4908896"><ele>682.8</ele><time>2026-04-04T11:06:19.963Z</time></trkpt><trkpt lat="44.5541529" lon="8.4907569"><ele>682.0</ele><time>2026-04-04T11:06:20.963Z</time></trkpt><trkpt lat="44.554126" lon="8.4906411"><ele>682.0</ele><time>2026-04-04T11:06:21.962Z</time></trkpt><trkpt lat="44.5540979" lon="8.4905443"><ele>682.0</ele><time>2026-04-04T11:06:22.962Z</time></trkpt><trkpt lat="44.5540617" lon="8.4903932"><ele>682.0</ele><time>2026-04-04T11:06:24.963Z</time></trkpt><trkpt lat="44.5540458" lon="8.4902291"><ele>682.0</ele><time>2026-04-04T11:06:26.962Z</time></trkpt><trkpt lat="44.5540449" lon="8.490137"><ele>682.0</ele><time>2026-04-04T11:06:27.963Z</time></trkpt><trkpt lat="44.5540415" lon="8.4900386"><ele>682.0</ele><time>2026-04-04T11:06:28.963Z</time></trkpt><trkpt lat="44.5540374" lon="8.4899293"><ele>682.2</ele><time>2026-04-04T11:06:29.963Z</time></trkpt><trkpt lat="44.5540351" lon="8.4898063"><ele>682.4000000000001</ele><time>2026-04-04T11:06:30.963Z</time></trkpt><trkpt lat="44.5540318" lon="8.4896764"><ele>682.5999999999999</ele><time>2026-04-04T11:06:31.963Z</time></trkpt><trkpt lat="44.5540246" lon="8.4895476"><ele>682.8</ele><time>2026-04-04T11:06:32.963Z</time></trkpt><trkpt lat="44.5540174" lon="8.4894082"><ele>683.0</ele><time>2026-04-04T11:06:33.963Z</time></trkpt><trkpt lat="44.5540096" lon="8.4892695"><ele>683.4</ele><time>2026-04-04T11:06:34.962Z</time></trkpt><trkpt lat="44.5540017" lon="8.4891233"><ele>683.8</ele><time>2026-04-04T11:06:35.962Z</time></trkpt><trkpt lat="44.553994" lon="8.4889698"><ele>684.2</ele><time>2026-04-04T11:06:36.962Z</time></trkpt><trkpt lat="44.5539861" lon="8.4888106"><ele>684.6</ele><time>2026-04-04T11:06:37.963Z</time></trkpt><trkpt lat="44.5539804" lon="8.488649"><ele>685.0</ele><time>2026-04-04T11:06:38.962Z</time></trkpt><trkpt lat="44.5539758" lon="8.4884797"><ele>685.0</ele><time>2026-04-04T11:06:39.963Z</time></trkpt><trkpt lat="44.5539751" lon="8.4882999"><ele>685.0</ele><time>2026-04-04T11:06:40.962Z</time></trkpt><trkpt lat="44.5539833" lon="8.4881198"><ele>685.0</ele><time>2026-04-04T11:06:41.963Z</time></trkpt><trkpt lat="44.553996" lon="8.487943"><ele>685.0</ele><time>2026-04-04T11:06:42.962Z</time></trkpt><trkpt lat="44.5540304" lon="8.487768"><ele>686.0</ele><time>2026-04-04T11:06:43.963Z</time></trkpt><trkpt lat="44.5540887" lon="8.4875881"><ele>687.0</ele><time>2026-04-04T11:06:44.963Z</time></trkpt><trkpt lat="44.5541588" lon="8.4874211"><ele>688.0</ele><time>2026-04-04T11:06:45.963Z</time></trkpt><trkpt lat="44.5542215" lon="8.487276"><ele>689.0</ele><time>2026-04-04T11:06:46.962Z</time></trkpt><trkpt lat="44.5542764" lon="8.4871355"><ele>689.25</ele><time>2026-04-04T11:06:47.963Z</time></trkpt><trkpt lat="44.5543097" lon="8.4869806"><ele>689.5</ele><time>2026-04-04T11:06:48.963Z</time></trkpt><trkpt lat="44.5543276" lon="8.4868159"><ele>689.75</ele><time>2026-04-04T11:06:49.962Z</time></trkpt><trkpt lat="44.5543218" lon="8.4866505"><ele>690.0</ele><time>2026-04-04T11:06:50.962Z</time></trkpt><trkpt lat="44.5542936" lon="8.4864794"><ele>690.0</ele><time>2026-04-04T11:06:51.963Z</time></trkpt><trkpt lat="44.5542576" lon="8.4862973"><ele>690.0</ele><time>2026-04-04T11:06:52.963Z</time></trkpt><trkpt lat="44.5541995" lon="8.4861317"><ele>690.0</ele><time>2026-04-04T11:06:53.962Z</time></trkpt><trkpt lat="44.5541297" lon="8.48598"><ele>690.0</ele><time>2026-04-04T11:06:54.962Z</time></trkpt><trkpt lat="44.5540614" lon="8.4858365"><ele>690.0</ele><time>2026-04-04T11:06:55.963Z</time></trkpt><trkpt lat="44.5539842" lon="8.4857258"><ele>690.0</ele><time>2026-04-04T11:06:56.963Z</time></trkpt><trkpt lat="44.5539054" lon="8.4856171"><ele>690.0</ele><time>2026-04-04T11:06:57.962Z</time></trkpt><trkpt lat="44.55384" lon="8.4854906"><ele>690.0</ele><time>2026-04-04T11:06:58.963Z</time></trkpt><trkpt lat="44.5537774" lon="8.4853982"><ele>690.0</ele><time>2026-04-04T11:06:59.963Z</time></trkpt><trkpt lat="44.5537148" lon="8.4853247"><ele>690.8</ele><time>2026-04-04T11:07:00.962Z</time></trkpt><trkpt lat="44.5536565" lon="8.4852578"><ele>691.6</ele><time>2026-04-04T11:07:01.962Z</time></trkpt><trkpt lat="44.5536076" lon="8.4851898"><ele>692.4000000000001</ele><time>2026-04-04T11:07:02.963Z</time></trkpt><trkpt lat="44.5535692" lon="8.4850422"><ele>693.2</ele><time>2026-04-04T11:07:04.963Z</time></trkpt><trkpt lat="44.5535219" lon="8.4848803"><ele>694.0</ele><time>2026-04-04T11:07:06.962Z</time></trkpt><trkpt lat="44.5534802" lon="8.4847895"><ele>694.0</ele><time>2026-04-04T11:07:07.963Z</time></trkpt><trkpt lat="44.5534142" lon="8.4846964"><ele>694.0</ele><time>2026-04-04T11:07:08.963Z</time></trkpt><trkpt lat="44.5533375" lon="8.4846036"><ele>694.0</ele><time>2026-04-04T11:07:09.963Z</time></trkpt><trkpt lat="44.5532732" lon="8.4844854"><ele>694.0</ele><time>2026-04-04T11:07:10.963Z</time></trkpt><trkpt lat="44.5532352" lon="8.4843606"><ele>694.0</ele><time>2026-04-04T11:07:11.963Z</time></trkpt><trkpt lat="44.5532209" lon="8.4842271"><ele>693.2</ele><time>2026-04-04T11:07:12.963Z</time></trkpt><trkpt lat="44.553216" lon="8.4840894"><ele>692.4000000000001</ele><time>2026-04-04T11:07:13.962Z</time></trkpt><trkpt lat="44.5532139" lon="8.4839466"><ele>691.6</ele><time>2026-04-04T11:07:14.962Z</time></trkpt><trkpt lat="44.5532114" lon="8.4838027"><ele>690.8</ele><time>2026-04-04T11:07:15.962Z</time></trkpt><trkpt lat="44.5532153" lon="8.483652"><ele>690.0</ele><time>2026-04-04T11:07:16.961Z</time></trkpt><trkpt lat="44.5532052" lon="8.4834982"><ele>688.4</ele><time>2026-04-04T11:07:17.962Z</time></trkpt><trkpt lat="44.5531873" lon="8.4833452"><ele>686.8</ele><time>2026-04-04T11:07:18.961Z</time></trkpt><trkpt lat="44.5531518" lon="8.4831993"><ele>685.2</ele><time>2026-04-04T11:07:19.961Z</time></trkpt><trkpt lat="44.5531034" lon="8.4830637"><ele>683.6</ele><time>2026-04-04T11:07:20.961Z</time></trkpt><trkpt lat="44.5530511" lon="8.482924"><ele>682.0</ele><time>2026-04-04T11:07:21.961Z</time></trkpt><trkpt lat="44.5529918" lon="8.4827829"><ele>681.0</ele><time>2026-04-04T11:07:22.962Z</time></trkpt><trkpt lat="44.5529254" lon="8.482645"><ele>680.0</ele><time>2026-04-04T11:07:23.962Z</time></trkpt><trkpt lat="44.5528619" lon="8.4825164"><ele>679.0</ele><time>2026-04-04T11:07:24.962Z</time></trkpt><trkpt lat="44.5528067" lon="8.4824035"><ele>678.0</ele><time>2026-04-04T11:07:25.962Z</time></trkpt><trkpt lat="44.5527654" lon="8.4823054"><ele>677.0</ele><time>2026-04-04T11:07:26.962Z</time></trkpt><trkpt lat="44.5527326" lon="8.4822288"><ele>677.0</ele><time>2026-04-04T11:07:27.961Z</time></trkpt><trkpt lat="44.5527123" lon="8.4821071"><ele>677.0</ele><time>2026-04-04T11:07:29.962Z</time></trkpt><trkpt lat="44.5527732" lon="8.4820481"><ele>677.0</ele><time>2026-04-04T11:07:32.962Z</time></trkpt><trkpt lat="44.552864" lon="8.4821085"><ele>677.0</ele><time>2026-04-04T11:07:34.961Z</time></trkpt><trkpt lat="44.552928" lon="8.482172"><ele>677.0</ele><time>2026-04-04T11:07:35.961Z</time></trkpt><trkpt lat="44.5529975" lon="8.4822285"><ele>677.0</ele><time>2026-04-04T11:07:36.961Z</time></trkpt><trkpt lat="44.5530758" lon="8.4822712"><ele>676.2</ele><time>2026-04-04T11:07:37.962Z</time></trkpt><trkpt lat="44.5531679" lon="8.4822769"><ele>675.4000000000001</ele><time>2026-04-04T11:07:38.962Z</time></trkpt><trkpt lat="44.5532662" lon="8.4822659"><ele>674.5999999999999</ele><time>2026-04-04T11:07:39.962Z</time></trkpt><trkpt lat="44.5533728" lon="8.4822436"><ele>673.8</ele><time>2026-04-04T11:07:40.962Z</time></trkpt><trkpt lat="44.553478" lon="8.4822046"><ele>673.0</ele><time>2026-04-04T11:07:41.962Z</time></trkpt><trkpt lat="44.5535729" lon="8.4821358"><ele>671.5</ele><time>2026-04-04T11:07:42.962Z</time></trkpt><trkpt lat="44.5536574" lon="8.4820354"><ele>670.0</ele><time>2026-04-04T11:07:43.961Z</time></trkpt><trkpt lat="44.5537391" lon="8.4819147"><ele>668.5</ele><time>2026-04-04T11:07:44.961Z</time></trkpt><trkpt lat="44.5538307" lon="8.4818012"><ele>667.0</ele><time>2026-04-04T11:07:45.961Z</time></trkpt><trkpt lat="44.5539341" lon="8.4817053"><ele>666.5</ele><time>2026-04-04T11:07:46.961Z</time></trkpt><trkpt lat="44.5540489" lon="8.4816404"><ele>666.0</ele><time>2026-04-04T11:07:47.962Z</time></trkpt><trkpt lat="44.5541689" lon="8.481609"><ele>665.5</ele><time>2026-04-04T11:07:48.961Z</time></trkpt><trkpt lat="44.5542809" lon="8.481603"><ele>665.0</ele><time>2026-04-04T11:07:49.962Z</time></trkpt><trkpt lat="44.5543789" lon="8.4815821"><ele>665.0</ele><time>2026-04-04T11:07:50.962Z</time></trkpt><trkpt lat="44.5544645" lon="8.481511"><ele>665.0</ele><time>2026-04-04T11:07:51.962Z</time></trkpt><trkpt lat="44.554526" lon="8.4813838"><ele>665.0</ele><time>2026-04-04T11:07:52.962Z</time></trkpt><trkpt lat="44.554552" lon="8.4812277"><ele>665.0</ele><time>2026-04-04T11:07:53.962Z</time></trkpt><trkpt lat="44.554564" lon="8.4810715"><ele>665.0</ele><time>2026-04-04T11:07:54.962Z</time></trkpt><trkpt lat="44.5545786" lon="8.4809265"><ele>664.2</ele><time>2026-04-04T11:07:55.962Z</time></trkpt><trkpt lat="44.554606" lon="8.4807902"><ele>663.4</ele><time>2026-04-04T11:07:56.962Z</time></trkpt><trkpt lat="44.5546483" lon="8.4806646"><ele>662.5999999999999</ele><time>2026-04-04T11:07:57.961Z</time></trkpt><trkpt lat="44.5546973" lon="8.4805384"><ele>661.8</ele><time>2026-04-04T11:07:58.961Z</time></trkpt><trkpt lat="44.554747" lon="8.4804106"><ele>661.0</ele><time>2026-04-04T11:07:59.962Z</time></trkpt><trkpt lat="44.5547987" lon="8.4802801"><ele>661.0</ele><time>2026-04-04T11:08:00.962Z</time></trkpt><trkpt lat="44.5548578" lon="8.4801463"><ele>661.0</ele><time>2026-04-04T11:08:01.962Z</time></trkpt><trkpt lat="44.5549172" lon="8.4800065"><ele>661.0</ele><time>2026-04-04T11:08:02.962Z</time></trkpt><trkpt lat="44.5549859" lon="8.4798639"><ele>661.0</ele><time>2026-04-04T11:08:03.962Z</time></trkpt><trkpt lat="44.5550628" lon="8.4797285"><ele>661.0</ele><time>2026-04-04T11:08:04.962Z</time></trkpt><trkpt lat="44.5551445" lon="8.4796068"><ele>661.0</ele><time>2026-04-04T11:08:05.962Z</time></trkpt><trkpt lat="44.5552221" lon="8.4794713"><ele>661.0</ele><time>2026-04-04T11:08:06.962Z</time></trkpt><trkpt lat="44.5552936" lon="8.4793335"><ele>661.0</ele><time>2026-04-04T11:08:07.962Z</time></trkpt><trkpt lat="44.5553636" lon="8.4792028"><ele>661.4</ele><time>2026-04-04T11:08:08.962Z</time></trkpt><trkpt lat="44.5554338" lon="8.4790891"><ele>661.8</ele><time>2026-04-04T11:08:09.962Z</time></trkpt><trkpt lat="44.5555116" lon="8.4789896"><ele>662.1999999999999</ele><time>2026-04-04T11:08:10.961Z</time></trkpt><trkpt lat="44.5555915" lon="8.4789142"><ele>662.5999999999999</ele><time>2026-04-04T11:08:11.962Z</time></trkpt><trkpt lat="44.5556753" lon="8.4788518"><ele>663.0</ele><time>2026-04-04T11:08:12.962Z</time></trkpt><trkpt lat="44.5557577" lon="8.4787902"><ele>660.8</ele><time>2026-04-04T11:08:13.961Z</time></trkpt><trkpt lat="44.5558261" lon="8.4787248"><ele>658.5999999999999</ele><time>2026-04-04T11:08:14.962Z</time></trkpt><trkpt lat="44.5558845" lon="8.4786346"><ele>656.4000000000001</ele><time>2026-04-04T11:08:15.961Z</time></trkpt><trkpt lat="44.5559222" lon="8.4785285"><ele>654.2</ele><time>2026-04-04T11:08:16.961Z</time></trkpt><trkpt lat="44.5559461" lon="8.4783895"><ele>652.0</ele><time>2026-04-04T11:08:17.962Z</time></trkpt><trkpt lat="44.5559939" lon="8.4782759"><ele>652.0</ele><time>2026-04-04T11:08:18.962Z</time></trkpt><trkpt lat="44.5560629" lon="8.4781842"><ele>652.0</ele><time>2026-04-04T11:08:19.962Z</time></trkpt><trkpt lat="44.5561486" lon="8.4781387"><ele>652.0</ele><time>2026-04-04T11:08:20.962Z</time></trkpt><trkpt lat="44.556253" lon="8.4781265"><ele>652.0</ele><time>2026-04-04T11:08:21.961Z</time></trkpt><trkpt lat="44.5563708" lon="8.4781453"><ele>652.0</ele><time>2026-04-04T11:08:22.962Z</time></trkpt><trkpt lat="44.5564831" lon="8.4781407"><ele>652.8</ele><time>2026-04-04T11:08:23.961Z</time></trkpt><trkpt lat="44.5565942" lon="8.4781148"><ele>653.6</ele><time>2026-04-04T11:08:24.961Z</time></trkpt><trkpt lat="44.5567055" lon="8.4780689"><ele>654.4</ele><time>2026-04-04T11:08:25.962Z</time></trkpt><trkpt lat="44.5568012" lon="8.4780074"><ele>655.1999999999999</ele><time>2026-04-04T11:08:26.962Z</time></trkpt><trkpt lat="44.5568918" lon="8.4779326"><ele>656.0</ele><time>2026-04-04T11:08:27.962Z</time></trkpt><trkpt lat="44.5569755" lon="8.477871"><ele>654.0</ele><time>2026-04-04T11:08:28.962Z</time></trkpt><trkpt lat="44.5570578" lon="8.4778325"><ele>652.0</ele><time>2026-04-04T11:08:29.962Z</time></trkpt><trkpt lat="44.5571507" lon="8.4778199"><ele>650.0</ele><time>2026-04-04T11:08:30.962Z</time></trkpt><trkpt lat="44.557241" lon="8.4778504"><ele>648.0</ele><time>2026-04-04T11:08:31.961Z</time></trkpt><trkpt lat="44.5573286" lon="8.4779371"><ele>646.0</ele><time>2026-04-04T11:08:32.962Z</time></trkpt><trkpt lat="44.557417" lon="8.4780624"><ele>646.0</ele><time>2026-04-04T11:08:33.962Z</time></trkpt><trkpt lat="44.55751" lon="8.4782051"><ele>646.0</ele><time>2026-04-04T11:08:34.962Z</time></trkpt><trkpt lat="44.5576197" lon="8.478318"><ele>646.0</ele><time>2026-04-04T11:08:35.961Z</time></trkpt><trkpt lat="44.5577452" lon="8.4784036"><ele>646.0</ele><time>2026-04-04T11:08:36.962Z</time></trkpt><trkpt lat="44.5578748" lon="8.4784706"><ele>645.25</ele><time>2026-04-04T11:08:37.962Z</time></trkpt><trkpt lat="44.5580032" lon="8.4785242"><ele>644.5</ele><time>2026-04-04T11:08:38.962Z</time></trkpt><trkpt lat="44.5581244" lon="8.4785331"><ele>643.75</ele><time>2026-04-04T11:08:39.962Z</time></trkpt><trkpt lat="44.5582394" lon="8.4784934"><ele>643.0</ele><time>2026-04-04T11:08:40.962Z</time></trkpt><trkpt lat="44.5583474" lon="8.4784108"><ele>643.0</ele><time>2026-04-04T11:08:41.962Z</time></trkpt><trkpt lat="44.558449" lon="8.4782818"><ele>643.0</ele><time>2026-04-04T11:08:42.962Z</time></trkpt><trkpt lat="44.5585492" lon="8.4781275"><ele>643.0</ele><time>2026-04-04T11:08:43.961Z</time></trkpt><trkpt lat="44.5586419" lon="8.4779643"><ele>643.0</ele><time>2026-04-04T11:08:44.962Z</time></trkpt><trkpt lat="44.5587259" lon="8.4777965"><ele>642.5</ele><time>2026-04-04T11:08:45.962Z</time></trkpt><trkpt lat="44.5588099" lon="8.4776334"><ele>642.0</ele><time>2026-04-04T11:08:46.962Z</time></trkpt><trkpt lat="44.5588927" lon="8.4774732"><ele>641.5</ele><time>2026-04-04T11:08:47.962Z</time></trkpt><trkpt lat="44.5589743" lon="8.4773118"><ele>641.0</ele><time>2026-04-04T11:08:48.962Z</time></trkpt><trkpt lat="44.5590553" lon="8.4771507"><ele>639.0</ele><time>2026-04-04T11:08:49.961Z</time></trkpt><trkpt lat="44.5591384" lon="8.4769838"><ele>637.0</ele><time>2026-04-04T11:08:50.962Z</time></trkpt><trkpt lat="44.559217" lon="8.4768261"><ele>635.0</ele><time>2026-04-04T11:08:51.962Z</time></trkpt><trkpt lat="44.5592828" lon="8.4766758"><ele>633.0</ele><time>2026-04-04T11:08:52.962Z</time></trkpt><trkpt lat="44.5593563" lon="8.4765315"><ele>633.0</ele><time>2026-04-04T11:08:53.961Z</time></trkpt><trkpt lat="44.5594531" lon="8.4764038"><ele>633.0</ele><time>2026-04-04T11:08:54.962Z</time></trkpt><trkpt lat="44.55955" lon="8.4763148"><ele>633.0</ele><time>2026-04-04T11:08:55.962Z</time></trkpt><trkpt lat="44.5596528" lon="8.4762329"><ele>633.0</ele><time>2026-04-04T11:08:56.962Z</time></trkpt><trkpt lat="44.5597614" lon="8.4761313"><ele>632.25</ele><time>2026-04-04T11:08:57.961Z</time></trkpt><trkpt lat="44.5598764" lon="8.476032"><ele>631.5</ele><time>2026-04-04T11:08:58.962Z</time></trkpt><trkpt lat="44.5599936" lon="8.4759256"><ele>630.75</ele><time>2026-04-04T11:08:59.962Z</time></trkpt><trkpt lat="44.5601078" lon="8.475804"><ele>630.0</ele><time>2026-04-04T11:09:00.962Z</time></trkpt><trkpt lat="44.5602127" lon="8.4756674"><ele>630.0</ele><time>2026-04-04T11:09:01.962Z</time></trkpt><trkpt lat="44.5603134" lon="8.4755262"><ele>630.0</ele><time>2026-04-04T11:09:02.962Z</time></trkpt><trkpt lat="44.5604112" lon="8.4753807"><ele>630.0</ele><time>2026-04-04T11:09:03.961Z</time></trkpt><trkpt lat="44.5604939" lon="8.4752221"><ele>630.0</ele><time>2026-04-04T11:09:04.961Z</time></trkpt><trkpt lat="44.5605631" lon="8.4750548"><ele>628.5</ele><time>2026-04-04T11:09:05.962Z</time></trkpt><trkpt lat="44.5606251" lon="8.4748746"><ele>627.0</ele><time>2026-04-04T11:09:06.962Z</time></trkpt><trkpt lat="44.5606906" lon="8.4746983"><ele>625.5</ele><time>2026-04-04T11:09:07.962Z</time></trkpt><trkpt lat="44.5607599" lon="8.4745327"><ele>624.0</ele><time>2026-04-04T11:09:08.961Z</time></trkpt><trkpt lat="44.5608164" lon="8.4743538"><ele>624.0</ele><time>2026-04-04T11:09:09.962Z</time></trkpt><trkpt lat="44.5608981" lon="8.4741817"><ele>624.0</ele><time>2026-04-04T11:09:10.961Z</time></trkpt><trkpt lat="44.5609828" lon="8.4740164"><ele>624.0</ele><time>2026-04-04T11:09:11.962Z</time></trkpt><trkpt lat="44.5610683" lon="8.4738594"><ele>624.0</ele><time>2026-04-04T11:09:12.962Z</time></trkpt><trkpt lat="44.5611594" lon="8.4736999"><ele>624.5</ele><time>2026-04-04T11:09:13.962Z</time></trkpt><trkpt lat="44.5612571" lon="8.4735509"><ele>625.0</ele><time>2026-04-04T11:09:14.962Z</time></trkpt><trkpt lat="44.5613631" lon="8.4734179"><ele>625.5</ele><time>2026-04-04T11:09:15.962Z</time></trkpt><trkpt lat="44.5614699" lon="8.4732933"><ele>626.0</ele><time>2026-04-04T11:09:16.961Z</time></trkpt><trkpt lat="44.5615795" lon="8.4731686"><ele>626.0</ele><time>2026-04-04T11:09:17.962Z</time></trkpt><trkpt lat="44.5616823" lon="8.473028"><ele>626.0</ele><time>2026-04-04T11:09:18.962Z</time></trkpt><trkpt lat="44.5617701" lon="8.4728734"><ele>626.0</ele><time>2026-04-04T11:09:19.962Z</time></trkpt><trkpt lat="44.5618344" lon="8.472714"><ele>626.0</ele><time>2026-04-04T11:09:20.962Z</time></trkpt><trkpt lat="44.5618976" lon="8.4725539"><ele>626.5</ele><time>2026-04-04T11:09:21.962Z</time></trkpt><trkpt lat="44.5619692" lon="8.4724096"><ele>627.0</ele><time>2026-04-04T11:09:22.962Z</time></trkpt><trkpt lat="44.5620452" lon="8.4722607"><ele>627.5</ele><time>2026-04-04T11:09:23.962Z</time></trkpt><trkpt lat="44.5621334" lon="8.4721247"><ele>628.0</ele><time>2026-04-04T11:09:24.962Z</time></trkpt><trkpt lat="44.5622279" lon="8.4720092"><ele>628.0</ele><time>2026-04-04T11:09:25.962Z</time></trkpt><trkpt lat="44.5623252" lon="8.4719054"><ele>628.0</ele><time>2026-04-04T11:09:26.962Z</time></trkpt><trkpt lat="44.5624274" lon="8.4718009"><ele>628.0</ele><time>2026-04-04T11:09:27.962Z</time></trkpt><trkpt lat="44.5625295" lon="8.4716798"><ele>628.0</ele><time>2026-04-04T11:09:28.962Z</time></trkpt><trkpt lat="44.5626358" lon="8.4715505"><ele>628.0</ele><time>2026-04-04T11:09:29.962Z</time></trkpt><trkpt lat="44.5627221" lon="8.4714033"><ele>628.0</ele><time>2026-04-04T11:09:30.962Z</time></trkpt><trkpt lat="44.562793" lon="8.4712441"><ele>628.0</ele><time>2026-04-04T11:09:31.961Z</time></trkpt><trkpt lat="44.5628527" lon="8.4710902"><ele>628.0</ele><time>2026-04-04T11:09:32.962Z</time></trkpt><trkpt lat="44.5629166" lon="8.4709403"><ele>627.5</ele><time>2026-04-04T11:09:33.961Z</time></trkpt><trkpt lat="44.5629799" lon="8.4708028"><ele>627.0</ele><time>2026-04-04T11:09:34.962Z</time></trkpt><trkpt lat="44.563058" lon="8.4706719"><ele>626.5</ele><time>2026-04-04T11:09:35.962Z</time></trkpt><trkpt lat="44.5631489" lon="8.4705382"><ele>626.0</ele><time>2026-04-04T11:09:36.962Z</time></trkpt><trkpt lat="44.5632425" lon="8.4704007"><ele>625.75</ele><time>2026-04-04T11:09:37.962Z</time></trkpt><trkpt lat="44.5633349" lon="8.4702586"><ele>625.5</ele><time>2026-04-04T11:09:38.962Z</time></trkpt><trkpt lat="44.5634263" lon="8.4701271"><ele>625.25</ele><time>2026-04-04T11:09:39.962Z</time></trkpt><trkpt lat="44.563526" lon="8.4700213"><ele>625.0</ele><time>2026-04-04T11:09:40.962Z</time></trkpt><trkpt lat="44.563638" lon="8.4699301"><ele>625.25</ele><time>2026-04-04T11:09:41.962Z</time></trkpt><trkpt lat="44.5637631" lon="8.469867"><ele>625.5</ele><time>2026-04-04T11:09:42.962Z</time></trkpt><trkpt lat="44.5638958" lon="8.4698174"><ele>625.75</ele><time>2026-04-04T11:09:43.962Z</time></trkpt><trkpt lat="44.5640314" lon="8.4697744"><ele>626.0</ele><time>2026-04-04T11:09:44.962Z</time></trkpt><trkpt lat="44.5641698" lon="8.4697386"><ele>626.0</ele><time>2026-04-04T11:09:45.962Z</time></trkpt><trkpt lat="44.5643065" lon="8.469714"><ele>626.0</ele><time>2026-04-04T11:09:46.962Z</time></trkpt><trkpt lat="44.5644412" lon="8.46971"><ele>626.0</ele><time>2026-04-04T11:09:47.962Z</time></trkpt><trkpt lat="44.564574" lon="8.4697229"><ele>626.0</ele><time>2026-04-04T11:09:48.961Z</time></trkpt><trkpt lat="44.5646989" lon="8.4697477"><ele>626.4</ele><time>2026-04-04T11:09:49.961Z</time></trkpt><trkpt lat="44.5648173" lon="8.4697803"><ele>626.8</ele><time>2026-04-04T11:09:50.961Z</time></trkpt><trkpt lat="44.5649289" lon="8.4698086"><ele>627.1999999999999</ele><time>2026-04-04T11:09:51.962Z</time></trkpt><trkpt lat="44.5650292" lon="8.4698401"><ele>627.6</ele><time>2026-04-04T11:09:52.962Z</time></trkpt><trkpt lat="44.5651291" lon="8.4698724"><ele>628.0</ele><time>2026-04-04T11:09:53.961Z</time></trkpt><trkpt lat="44.5652308" lon="8.4698953"><ele>628.0</ele><time>2026-04-04T11:09:54.962Z</time></trkpt><trkpt lat="44.565335" lon="8.4699078"><ele>628.0</ele><time>2026-04-04T11:09:55.962Z</time></trkpt><trkpt lat="44.5654428" lon="8.4699191"><ele>628.0</ele><time>2026-04-04T11:09:56.962Z</time></trkpt><trkpt lat="44.5655581" lon="8.4699392"><ele>628.0</ele><time>2026-04-04T11:09:57.962Z</time></trkpt><trkpt lat="44.5656829" lon="8.4699541"><ele>627.25</ele><time>2026-04-04T11:09:58.962Z</time></trkpt><trkpt lat="44.5658101" lon="8.4699684"><ele>626.5</ele><time>2026-04-04T11:09:59.961Z</time></trkpt><trkpt lat="44.5659374" lon="8.4699768"><ele>625.75</ele><time>2026-04-04T11:10:00.962Z</time></trkpt><trkpt lat="44.566072" lon="8.4699881"><ele>625.0</ele><time>2026-04-04T11:10:01.962Z</time></trkpt><trkpt lat="44.5662089" lon="8.4700025"><ele>624.25</ele><time>2026-04-04T11:10:02.962Z</time></trkpt><trkpt lat="44.5663455" lon="8.4700145"><ele>623.5</ele><time>2026-04-04T11:10:03.961Z</time></trkpt><trkpt lat="44.5664825" lon="8.4700203"><ele>622.75</ele><time>2026-04-04T11:10:04.962Z</time></trkpt><trkpt lat="44.5666183" lon="8.4700184"><ele>622.0</ele><time>2026-04-04T11:10:05.961Z</time></trkpt><trkpt lat="44.5667442" lon="8.4700084"><ele>622.0</ele><time>2026-04-04T11:10:06.962Z</time></trkpt><trkpt lat="44.5668708" lon="8.4700069"><ele>622.0</ele><time>2026-04-04T11:10:07.961Z</time></trkpt><trkpt lat="44.566996" lon="8.4700124"><ele>622.0</ele><time>2026-04-04T11:10:08.962Z</time></trkpt><trkpt lat="44.5671244" lon="8.4700194"><ele>622.0</ele><time>2026-04-04T11:10:09.962Z</time></trkpt><trkpt lat="44.5672526" lon="8.4700337"><ele>620.75</ele><time>2026-04-04T11:10:10.961Z</time></trkpt><trkpt lat="44.5673717" lon="8.470046"><ele>619.5</ele><time>2026-04-04T11:10:11.962Z</time></trkpt><trkpt lat="44.5674852" lon="8.470071"><ele>618.25</ele><time>2026-04-04T11:10:12.961Z</time></trkpt><trkpt lat="44.5675937" lon="8.4701004"><ele>617.0</ele><time>2026-04-04T11:10:13.962Z</time></trkpt><trkpt lat="44.5677037" lon="8.4701363"><ele>617.0</ele><time>2026-04-04T11:10:14.961Z</time></trkpt><trkpt lat="44.5678161" lon="8.4701717"><ele>617.0</ele><time>2026-04-04T11:10:15.961Z</time></trkpt><trkpt lat="44.5679367" lon="8.4702146"><ele>617.0</ele><time>2026-04-04T11:10:16.962Z</time></trkpt><trkpt lat="44.5680534" lon="8.4702651"><ele>617.0</ele><time>2026-04-04T11:10:17.962Z</time></trkpt><trkpt lat="44.5681665" lon="8.4703251"><ele>616.75</ele><time>2026-04-04T11:10:18.962Z</time></trkpt><trkpt lat="44.5682825" lon="8.4703747"><ele>616.5</ele><time>2026-04-04T11:10:19.962Z</time></trkpt><trkpt lat="44.5684043" lon="8.470424"><ele>616.25</ele><time>2026-04-04T11:10:20.962Z</time></trkpt><trkpt lat="44.5685302" lon="8.4704654"><ele>616.0</ele><time>2026-04-04T11:10:21.962Z</time></trkpt><trkpt lat="44.5686569" lon="8.4704941"><ele>617.0</ele><time>2026-04-04T11:10:22.962Z</time></trkpt><trkpt lat="44.5687788" lon="8.4705147"><ele>618.0</ele><time>2026-04-04T11:10:23.962Z</time></trkpt><trkpt lat="44.5688965" lon="8.4705396"><ele>619.0</ele><time>2026-04-04T11:10:24.961Z</time></trkpt><trkpt lat="44.569008" lon="8.470565"><ele>620.0</ele><time>2026-04-04T11:10:25.962Z</time></trkpt><trkpt lat="44.5691179" lon="8.4706043"><ele>620.0</ele><time>2026-04-04T11:10:26.962Z</time></trkpt><trkpt lat="44.5692321" lon="8.4706584"><ele>620.0</ele><time>2026-04-04T11:10:27.961Z</time></trkpt><trkpt lat="44.5693518" lon="8.4707293"><ele>620.0</ele><time>2026-04-04T11:10:28.961Z</time></trkpt><trkpt lat="44.5694682" lon="8.47079"><ele>620.0</ele><time>2026-04-04T11:10:29.962Z</time></trkpt><trkpt lat="44.569588" lon="8.4708526"><ele>620.0</ele><time>2026-04-04T11:10:30.962Z</time></trkpt><trkpt lat="44.5696959" lon="8.4708972"><ele>620.0</ele><time>2026-04-04T11:10:31.962Z</time></trkpt><trkpt lat="44.5697909" lon="8.4709267"><ele>620.0</ele><time>2026-04-04T11:10:32.962Z</time></trkpt><trkpt lat="44.5698713" lon="8.4709411"><ele>620.0</ele><time>2026-04-04T11:10:33.962Z</time></trkpt><trkpt lat="44.5699455" lon="8.4709512"><ele>620.0</ele><time>2026-04-04T11:10:34.962Z</time></trkpt><trkpt lat="44.5700196" lon="8.4709609"><ele>620.0</ele><time>2026-04-04T11:10:35.962Z</time></trkpt><trkpt lat="44.5701026" lon="8.4709747"><ele>620.0</ele><time>2026-04-04T11:10:36.961Z</time></trkpt><trkpt lat="44.5701971" lon="8.4709874"><ele>620.0</ele><time>2026-04-04T11:10:37.962Z</time></trkpt><trkpt lat="44.5703042" lon="8.4709939"><ele>620.0</ele><time>2026-04-04T11:10:38.961Z</time></trkpt><trkpt lat="44.5704249" lon="8.4709902"><ele>620.0</ele><time>2026-04-04T11:10:39.961Z</time></trkpt><trkpt lat="44.5705474" lon="8.4709828"><ele>620.0</ele><time>2026-04-04T11:10:40.961Z</time></trkpt><trkpt lat="44.5706649" lon="8.4709779"><ele>619.0</ele><time>2026-04-04T11:10:41.961Z</time></trkpt><trkpt lat="44.5707817" lon="8.4709793"><ele>618.0</ele><time>2026-04-04T11:10:42.962Z</time></trkpt><trkpt lat="44.5708944" lon="8.4709797"><ele>617.0</ele><time>2026-04-04T11:10:43.962Z</time></trkpt><trkpt lat="44.5710033" lon="8.4709666"><ele>616.0</ele><time>2026-04-04T11:10:44.962Z</time></trkpt><trkpt lat="44.5711101" lon="8.4709477"><ele>615.0</ele><time>2026-04-04T11:10:45.962Z</time></trkpt><trkpt lat="44.5712078" lon="8.4709058"><ele>614.25</ele><time>2026-04-04T11:10:46.961Z</time></trkpt><trkpt lat="44.5713048" lon="8.4708379"><ele>613.5</ele><time>2026-04-04T11:10:47.961Z</time></trkpt><trkpt lat="44.5714091" lon="8.4707477"><ele>612.75</ele><time>2026-04-04T11:10:48.962Z</time></trkpt><trkpt lat="44.5715108" lon="8.4706435"><ele>612.0</ele><time>2026-04-04T11:10:49.962Z</time></trkpt><trkpt lat="44.5716047" lon="8.4705273"><ele>610.5</ele><time>2026-04-04T11:10:50.962Z</time></trkpt><trkpt lat="44.5716825" lon="8.4703801"><ele>609.0</ele><time>2026-04-04T11:10:51.962Z</time></trkpt><trkpt lat="44.5717502" lon="8.4702228"><ele>607.5</ele><time>2026-04-04T11:10:52.962Z</time></trkpt><trkpt lat="44.5718047" lon="8.4700616"><ele>606.0</ele><time>2026-04-04T11:10:53.962Z</time></trkpt><trkpt lat="44.5718609" lon="8.4698985"><ele>606.0</ele><time>2026-04-04T11:10:54.961Z</time></trkpt><trkpt lat="44.571932" lon="8.4697474"><ele>606.0</ele><time>2026-04-04T11:10:55.962Z</time></trkpt><trkpt lat="44.5720139" lon="8.4696034"><ele>606.0</ele><time>2026-04-04T11:10:56.962Z</time></trkpt><trkpt lat="44.5720992" lon="8.4694676"><ele>606.0</ele><time>2026-04-04T11:10:57.962Z</time></trkpt><trkpt lat="44.5721862" lon="8.4693336"><ele>604.75</ele><time>2026-04-04T11:10:58.962Z</time></trkpt><trkpt lat="44.5722799" lon="8.4692034"><ele>603.5</ele><time>2026-04-04T11:10:59.961Z</time></trkpt><trkpt lat="44.5723729" lon="8.4690797"><ele>602.25</ele><time>2026-04-04T11:11:00.962Z</time></trkpt><trkpt lat="44.5724652" lon="8.4689631"><ele>601.0</ele><time>2026-04-04T11:11:01.962Z</time></trkpt><trkpt lat="44.5725543" lon="8.4688612"><ele>601.0</ele><time>2026-04-04T11:11:02.962Z</time></trkpt><trkpt lat="44.5726467" lon="8.4687784"><ele>601.0</ele><time>2026-04-04T11:11:03.962Z</time></trkpt><trkpt lat="44.5727494" lon="8.4687165"><ele>601.0</ele><time>2026-04-04T11:11:04.962Z</time></trkpt><trkpt lat="44.5728458" lon="8.4686827"><ele>601.0</ele><time>2026-04-04T11:11:05.962Z</time></trkpt><trkpt lat="44.5729316" lon="8.4686524"><ele>601.0</ele><time>2026-04-04T11:11:06.962Z</time></trkpt><trkpt lat="44.5729956" lon="8.4686048"><ele>601.4</ele><time>2026-04-04T11:11:07.962Z</time></trkpt><trkpt lat="44.5730433" lon="8.4685283"><ele>601.8</ele><time>2026-04-04T11:11:08.962Z</time></trkpt><trkpt lat="44.5730967" lon="8.4684107"><ele>602.1999999999999</ele><time>2026-04-04T11:11:09.962Z</time></trkpt><trkpt lat="44.5731552" lon="8.4682913"><ele>602.6</ele><time>2026-04-04T11:11:10.961Z</time></trkpt><trkpt lat="44.573217" lon="8.4681764"><ele>603.0</ele><time>2026-04-04T11:11:11.962Z</time></trkpt><trkpt lat="44.5732815" lon="8.4680747"><ele>603.0</ele><time>2026-04-04T11:11:12.961Z</time></trkpt><trkpt lat="44.5733576" lon="8.4679847"><ele>603.0</ele><time>2026-04-04T11:11:13.96Z</time></trkpt><trkpt lat="44.5734435" lon="8.4679027"><ele>603.0</ele><time>2026-04-04T11:11:14.961Z</time></trkpt><trkpt lat="44.5735324" lon="8.4678226"><ele>603.0</ele><time>2026-04-04T11:11:15.961Z</time></trkpt><trkpt lat="44.5736212" lon="8.4677502"><ele>603.0</ele><time>2026-04-04T11:11:16.961Z</time></trkpt><trkpt lat="44.5737073" lon="8.4676817"><ele>601.4</ele><time>2026-04-04T11:11:17.96Z</time></trkpt><trkpt lat="44.5737952" lon="8.4676124"><ele>599.8</ele><time>2026-04-04T11:11:18.961Z</time></trkpt><trkpt lat="44.5738814" lon="8.467547"><ele>598.2</ele><time>2026-04-04T11:11:19.96Z</time></trkpt><trkpt lat="44.5739732" lon="8.4674829"><ele>596.6</ele><time>2026-04-04T11:11:20.961Z</time></trkpt><trkpt lat="44.5740661" lon="8.4674051"><ele>595.0</ele><time>2026-04-04T11:11:21.961Z</time></trkpt><trkpt lat="44.5741562" lon="8.4673094"><ele>595.0</ele><time>2026-04-04T11:11:22.961Z</time></trkpt><trkpt lat="44.5742406" lon="8.4671944"><ele>595.0</ele><time>2026-04-04T11:11:23.961Z</time></trkpt><trkpt lat="44.5743219" lon="8.4670707"><ele>595.0</ele><time>2026-04-04T11:11:24.96Z</time></trkpt><trkpt lat="44.5743969" lon="8.4669449"><ele>595.0</ele><time>2026-04-04T11:11:25.961Z</time></trkpt><trkpt lat="44.5744701" lon="8.4668318"><ele>594.6</ele><time>2026-04-04T11:11:26.96Z</time></trkpt><trkpt lat="44.5745466" lon="8.4667427"><ele>594.2</ele><time>2026-04-04T11:11:27.96Z</time></trkpt><trkpt lat="44.5746282" lon="8.4666689"><ele>593.8</ele><time>2026-04-04T11:11:28.961Z</time></trkpt><trkpt lat="44.574719" lon="8.4666151"><ele>593.4</ele><time>2026-04-04T11:11:29.961Z</time></trkpt><trkpt lat="44.5748066" lon="8.4665669"><ele>593.0</ele><time>2026-04-04T11:11:30.961Z</time></trkpt><trkpt lat="44.5748973" lon="8.4665212"><ele>593.0</ele><time>2026-04-04T11:11:31.961Z</time></trkpt><trkpt lat="44.574993" lon="8.4664821"><ele>593.0</ele><time>2026-04-04T11:11:32.961Z</time></trkpt><trkpt lat="44.5750993" lon="8.4664586"><ele>593.0</ele><time>2026-04-04T11:11:33.96Z</time></trkpt><trkpt lat="44.5752056" lon="8.4664451"><ele>593.0</ele><time>2026-04-04T11:11:34.961Z</time></trkpt><trkpt lat="44.5753144" lon="8.4664464"><ele>593.0</ele><time>2026-04-04T11:11:35.961Z</time></trkpt><trkpt lat="44.5754252" lon="8.4664554"><ele>593.25</ele><time>2026-04-04T11:11:36.961Z</time></trkpt><trkpt lat="44.5755415" lon="8.4664632"><ele>593.5</ele><time>2026-04-04T11:11:37.96Z</time></trkpt><trkpt lat="44.5756623" lon="8.4664662"><ele>593.75</ele><time>2026-04-04T11:11:38.96Z</time></trkpt><trkpt lat="44.5757827" lon="8.4664543"><ele>594.0</ele><time>2026-04-04T11:11:39.96Z</time></trkpt><trkpt lat="44.5759002" lon="8.4664312"><ele>594.0</ele><time>2026-04-04T11:11:40.96Z</time></trkpt><trkpt lat="44.5760144" lon="8.4664088"><ele>594.0</ele><time>2026-04-04T11:11:41.961Z</time></trkpt><trkpt lat="44.5761251" lon="8.4663981"><ele>594.0</ele><time>2026-04-04T11:11:42.961Z</time></trkpt><trkpt lat="44.5762324" lon="8.4663811"><ele>594.0</ele><time>2026-04-04T11:11:43.961Z</time></trkpt><trkpt lat="44.5763385" lon="8.466367"><ele>594.0</ele><time>2026-04-04T11:11:44.96Z</time></trkpt><trkpt lat="44.576435" lon="8.4663349"><ele>595.0</ele><time>2026-04-04T11:11:45.961Z</time></trkpt><trkpt lat="44.5765373" lon="8.4663088"><ele>596.0</ele><time>2026-04-04T11:11:46.961Z</time></trkpt><trkpt lat="44.5766388" lon="8.4662727"><ele>597.0</ele><time>2026-04-04T11:11:47.961Z</time></trkpt><trkpt lat="44.5767348" lon="8.466225"><ele>598.0</ele><time>2026-04-04T11:11:48.96Z</time></trkpt><trkpt lat="44.5768256" lon="8.4661557"><ele>599.0</ele><time>2026-04-04T11:11:49.961Z</time></trkpt><trkpt lat="44.5769082" lon="8.4660758"><ele>595.8</ele><time>2026-04-04T11:11:50.961Z</time></trkpt><trkpt lat="44.5769871" lon="8.4659865"><ele>592.5999999999999</ele><time>2026-04-04T11:11:51.96Z</time></trkpt><trkpt lat="44.5770597" lon="8.4658982"><ele>589.4</ele><time>2026-04-04T11:11:52.96Z</time></trkpt><trkpt lat="44.5771348" lon="8.4658084"><ele>586.1999999999999</ele><time>2026-04-04T11:11:53.961Z</time></trkpt><trkpt lat="44.5772085" lon="8.4657268"><ele>583.0</ele><time>2026-04-04T11:11:54.961Z</time></trkpt><trkpt lat="44.5772858" lon="8.4656553"><ele>583.0</ele><time>2026-04-04T11:11:55.96Z</time></trkpt><trkpt lat="44.5773742" lon="8.4655895"><ele>583.0</ele><time>2026-04-04T11:11:56.96Z</time></trkpt><trkpt lat="44.5774658" lon="8.4655319"><ele>583.0</ele><time>2026-04-04T11:11:57.961Z</time></trkpt><trkpt lat="44.5775581" lon="8.4654587"><ele>583.0</ele><time>2026-04-04T11:11:58.961Z</time></trkpt><trkpt lat="44.577649" lon="8.4653717"><ele>583.0</ele><time>2026-04-04T11:11:59.961Z</time></trkpt><trkpt lat="44.5777406" lon="8.4652684"><ele>578.5</ele><time>2026-04-04T11:12:00.961Z</time></trkpt><trkpt lat="44.5778204" lon="8.4651521"><ele>574.0</ele><time>2026-04-04T11:12:01.961Z</time></trkpt><trkpt lat="44.5778947" lon="8.4650324"><ele>569.5</ele><time>2026-04-04T11:12:02.961Z</time></trkpt><trkpt lat="44.5779704" lon="8.4649022"><ele>565.0</ele><time>2026-04-04T11:12:03.96Z</time></trkpt><trkpt lat="44.5780488" lon="8.4647696"><ele>565.0</ele><time>2026-04-04T11:12:04.961Z</time></trkpt><trkpt lat="44.5781425" lon="8.4646467"><ele>565.0</ele><time>2026-04-04T11:12:05.961Z</time></trkpt><trkpt lat="44.5782413" lon="8.4645167"><ele>565.0</ele><time>2026-04-04T11:12:06.961Z</time></trkpt><trkpt lat="44.5783393" lon="8.4643843"><ele>565.0</ele><time>2026-04-04T11:12:07.96Z</time></trkpt><trkpt lat="44.5784406" lon="8.4642456"><ele>563.5</ele><time>2026-04-04T11:12:08.961Z</time></trkpt><trkpt lat="44.5785403" lon="8.4641153"><ele>562.0</ele><time>2026-04-04T11:12:09.961Z</time></trkpt><trkpt lat="44.5786382" lon="8.4639865"><ele>560.5</ele><time>2026-04-04T11:12:10.96Z</time></trkpt><trkpt lat="44.5787326" lon="8.4638592"><ele>559.0</ele><time>2026-04-04T11:12:11.96Z</time></trkpt><trkpt lat="44.578814" lon="8.4637351"><ele>558.6</ele><time>2026-04-04T11:12:12.961Z</time></trkpt><trkpt lat="44.5788889" lon="8.4636044"><ele>558.2</ele><time>2026-04-04T11:12:13.961Z</time></trkpt><trkpt lat="44.5789646" lon="8.4634856"><ele>557.8000000000001</ele><time>2026-04-04T11:12:14.961Z</time></trkpt><trkpt lat="44.5790415" lon="8.4633812"><ele>557.4</ele><time>2026-04-04T11:12:15.961Z</time></trkpt><trkpt lat="44.5791251" lon="8.4632889"><ele>557.0</ele><time>2026-04-04T11:12:16.961Z</time></trkpt><trkpt lat="44.5792274" lon="8.463238"><ele>557.0</ele><time>2026-04-04T11:12:17.96Z</time></trkpt><trkpt lat="44.5793379" lon="8.4631842"><ele>557.0</ele><time>2026-04-04T11:12:18.961Z</time></trkpt><trkpt lat="44.5794389" lon="8.4631049"><ele>557.0</ele><time>2026-04-04T11:12:19.961Z</time></trkpt><trkpt lat="44.5795277" lon="8.4630007"><ele>557.0</ele><time>2026-04-04T11:12:20.961Z</time></trkpt><trkpt lat="44.5796033" lon="8.4628694"><ele>558.0</ele><time>2026-04-04T11:12:21.961Z</time></trkpt><trkpt lat="44.5796735" lon="8.4627275"><ele>559.0</ele><time>2026-04-04T11:12:22.961Z</time></trkpt><trkpt lat="44.579741" lon="8.4625925"><ele>560.0</ele><time>2026-04-04T11:12:23.961Z</time></trkpt><trkpt lat="44.5798181" lon="8.4624778"><ele>561.0</ele><time>2026-04-04T11:12:24.96Z</time></trkpt><trkpt lat="44.5799092" lon="8.4623913"><ele>561.0</ele><time>2026-04-04T11:12:25.961Z</time></trkpt><trkpt lat="44.580023" lon="8.4623265"><ele>561.0</ele><time>2026-04-04T11:12:26.96Z</time></trkpt><trkpt lat="44.580151" lon="8.4622666"><ele>561.0</ele><time>2026-04-04T11:12:27.961Z</time></trkpt><trkpt lat="44.5802878" lon="8.4622243"><ele>561.0</ele><time>2026-04-04T11:12:28.961Z</time></trkpt><trkpt lat="44.5804157" lon="8.4621934"><ele>561.25</ele><time>2026-04-04T11:12:29.961Z</time></trkpt><trkpt lat="44.5805412" lon="8.4621602"><ele>561.5</ele><time>2026-04-04T11:12:30.96Z</time></trkpt><trkpt lat="44.5806617" lon="8.4621193"><ele>561.75</ele><time>2026-04-04T11:12:31.961Z</time></trkpt><trkpt lat="44.5807821" lon="8.4620833"><ele>562.0</ele><time>2026-04-04T11:12:32.96Z</time></trkpt><trkpt lat="44.5808863" lon="8.4620267"><ele>562.0</ele><time>2026-04-04T11:12:33.96Z</time></trkpt><trkpt lat="44.5809793" lon="8.4619406"><ele>562.0</ele><time>2026-04-04T11:12:34.96Z</time></trkpt><trkpt lat="44.5810661" lon="8.4618263"><ele>562.0</ele><time>2026-04-04T11:12:35.961Z</time></trkpt><trkpt lat="44.5811524" lon="8.4616892"><ele>562.0</ele><time>2026-04-04T11:12:36.961Z</time></trkpt><trkpt lat="44.5812321" lon="8.4615515"><ele>559.75</ele><time>2026-04-04T11:12:37.961Z</time></trkpt><trkpt lat="44.581316" lon="8.4613907"><ele>557.5</ele><time>2026-04-04T11:12:38.961Z</time></trkpt><trkpt lat="44.5813988" lon="8.4612465"><ele>555.25</ele><time>2026-04-04T11:12:39.961Z</time></trkpt><trkpt lat="44.5814816" lon="8.4611199"><ele>553.0</ele><time>2026-04-04T11:12:40.961Z</time></trkpt><trkpt lat="44.5815689" lon="8.4610155"><ele>552.75</ele><time>2026-04-04T11:12:41.96Z</time></trkpt><trkpt lat="44.5816628" lon="8.4609189"><ele>552.5</ele><time>2026-04-04T11:12:42.96Z</time></trkpt><trkpt lat="44.5817646" lon="8.4608465"><ele>552.25</ele><time>2026-04-04T11:12:43.961Z</time></trkpt><trkpt lat="44.5818749" lon="8.4607911"><ele>552.0</ele><time>2026-04-04T11:12:44.96Z</time></trkpt><trkpt lat="44.5819834" lon="8.4607462"><ele>553.2</ele><time>2026-04-04T11:12:45.96Z</time></trkpt><trkpt lat="44.5820827" lon="8.460693"><ele>554.4000000000001</ele><time>2026-04-04T11:12:46.961Z</time></trkpt><trkpt lat="44.5821696" lon="8.4606129"><ele>555.5999999999999</ele><time>2026-04-04T11:12:47.961Z</time></trkpt><trkpt lat="44.582233" lon="8.4604952"><ele>556.8</ele><time>2026-04-04T11:12:48.961Z</time></trkpt><trkpt lat="44.5822829" lon="8.4603455"><ele>558.0</ele><time>2026-04-04T11:12:49.961Z</time></trkpt><trkpt lat="44.5823289" lon="8.4601783"><ele>557.75</ele><time>2026-04-04T11:12:50.961Z</time></trkpt><trkpt lat="44.5823742" lon="8.4600205"><ele>557.5</ele><time>2026-04-04T11:12:51.961Z</time></trkpt><trkpt lat="44.5824209" lon="8.4598721"><ele>557.25</ele><time>2026-04-04T11:12:52.96Z</time></trkpt><trkpt lat="44.5824728" lon="8.4597262"><ele>557.0</ele><time>2026-04-04T11:12:53.96Z</time></trkpt><trkpt lat="44.5825233" lon="8.4595891"><ele>557.0</ele><time>2026-04-04T11:12:54.961Z</time></trkpt><trkpt lat="44.5825709" lon="8.4594656"><ele>557.0</ele><time>2026-04-04T11:12:55.961Z</time></trkpt><trkpt lat="44.5826115" lon="8.4593542"><ele>557.0</ele><time>2026-04-04T11:12:56.961Z</time></trkpt><trkpt lat="44.5826502" lon="8.4592707"><ele>557.0</ele><time>2026-04-04T11:12:57.961Z</time></trkpt><trkpt lat="44.5827415" lon="8.459195"><ele>557.0</ele><time>2026-04-04T11:12:59.961Z</time></trkpt><trkpt lat="44.5827759" lon="8.45927"><ele>557.0</ele><time>2026-04-04T11:13:01.961Z</time></trkpt><trkpt lat="44.5827665" lon="8.4593588"><ele>557.0</ele><time>2026-04-04T11:13:02.96Z</time></trkpt><trkpt lat="44.5827423" lon="8.4594592"><ele>557.0</ele><time>2026-04-04T11:13:03.961Z</time></trkpt><trkpt lat="44.5827031" lon="8.4595798"><ele>557.0</ele><time>2026-04-04T11:13:04.961Z</time></trkpt><trkpt lat="44.5826518" lon="8.4597035"><ele>557.0</ele><time>2026-04-04T11:13:05.961Z</time></trkpt><trkpt lat="44.5826022" lon="8.4598338"><ele>557.0</ele><time>2026-04-04T11:13:06.961Z</time></trkpt><trkpt lat="44.5825639" lon="8.459946"><ele>558.3333333333333</ele><time>2026-04-04T11:13:07.961Z</time></trkpt><trkpt lat="44.5825373" lon="8.4600415"><ele>559.6666666666666</ele><time>2026-04-04T11:13:08.96Z</time></trkpt><trkpt lat="44.5825249" lon="8.4601333"><ele>561.0</ele><time>2026-04-04T11:13:09.961Z</time></trkpt><trkpt lat="44.5825596" lon="8.4603062"><ele>562.3333333333334</ele><time>2026-04-04T11:13:11.961Z</time></trkpt><trkpt lat="44.5826258" lon="8.4603782"><ele>563.6666666666667</ele><time>2026-04-04T11:13:12.96Z</time></trkpt><trkpt lat="44.5826982" lon="8.4604245"><ele>565.0</ele><time>2026-04-04T11:13:13.961Z</time></trkpt><trkpt lat="44.5827828" lon="8.4604477"><ele>567.4</ele><time>2026-04-04T11:13:14.96Z</time></trkpt><trkpt lat="44.5828747" lon="8.4604674"><ele>569.8</ele><time>2026-04-04T11:13:15.96Z</time></trkpt><trkpt lat="44.5829716" lon="8.4604942"><ele>572.2</ele><time>2026-04-04T11:13:16.96Z</time></trkpt><trkpt lat="44.5830702" lon="8.460525"><ele>574.6</ele><time>2026-04-04T11:13:17.96Z</time></trkpt><trkpt lat="44.5831778" lon="8.4605604"><ele>577.0</ele><time>2026-04-04T11:13:18.96Z</time></trkpt><trkpt lat="44.5832849" lon="8.460598"><ele>577.0</ele><time>2026-04-04T11:13:19.961Z</time></trkpt><trkpt lat="44.5833957" lon="8.4606299"><ele>577.0</ele><time>2026-04-04T11:13:20.961Z</time></trkpt><trkpt lat="44.5835109" lon="8.4606673"><ele>577.0</ele><time>2026-04-04T11:13:21.96Z</time></trkpt><trkpt lat="44.583632" lon="8.4606878"><ele>577.0</ele><time>2026-04-04T11:13:22.961Z</time></trkpt><trkpt lat="44.5837609" lon="8.4607042"><ele>579.75</ele><time>2026-04-04T11:13:23.961Z</time></trkpt><trkpt lat="44.5838928" lon="8.4607185"><ele>582.5</ele><time>2026-04-04T11:13:24.961Z</time></trkpt><trkpt lat="44.5840204" lon="8.4607422"><ele>585.25</ele><time>2026-04-04T11:13:25.961Z</time></trkpt><trkpt lat="44.5841481" lon="8.4607709"><ele>588.0</ele><time>2026-04-04T11:13:26.961Z</time></trkpt><trkpt lat="44.5842793" lon="8.460784"><ele>588.0</ele><time>2026-04-04T11:13:27.961Z</time></trkpt><trkpt lat="44.5844143" lon="8.4607932"><ele>588.0</ele><time>2026-04-04T11:13:28.961Z</time></trkpt><trkpt lat="44.5845448" lon="8.4608"><ele>588.0</ele><time>2026-04-04T11:13:29.961Z</time></trkpt><trkpt lat="44.5846597" lon="8.4608146"><ele>588.0</ele><time>2026-04-04T11:13:30.961Z</time></trkpt><trkpt lat="44.5847593" lon="8.4608463"><ele>588.6</ele><time>2026-04-04T11:13:31.961Z</time></trkpt><trkpt lat="44.5848488" lon="8.4608762"><ele>589.1999999999999</ele><time>2026-04-04T11:13:32.961Z</time></trkpt><trkpt lat="44.5849403" lon="8.4608839"><ele>589.8</ele><time>2026-04-04T11:13:33.961Z</time></trkpt><trkpt lat="44.5850225" lon="8.4608443"><ele>590.4</ele><time>2026-04-04T11:13:34.961Z</time></trkpt><trkpt lat="44.5851099" lon="8.4607635"><ele>591.0</ele><time>2026-04-04T11:13:35.961Z</time></trkpt><trkpt lat="44.5852022" lon="8.4606714"><ele>591.0</ele><time>2026-04-04T11:13:36.961Z</time></trkpt><trkpt lat="44.5853041" lon="8.460585"><ele>591.0</ele><time>2026-04-04T11:13:37.961Z</time></trkpt><trkpt lat="44.5854129" lon="8.4605179"><ele>591.0</ele><time>2026-04-04T11:13:38.961Z</time></trkpt><trkpt lat="44.5855221" lon="8.4604467"><ele>591.0</ele><time>2026-04-04T11:13:39.961Z</time></trkpt><trkpt lat="44.5856311" lon="8.4603738"><ele>595.5</ele><time>2026-04-04T11:13:40.961Z</time></trkpt><trkpt lat="44.5857387" lon="8.4603262"><ele>600.0</ele><time>2026-04-04T11:13:41.961Z</time></trkpt><trkpt lat="44.5858444" lon="8.4602913"><ele>604.5</ele><time>2026-04-04T11:13:42.961Z</time></trkpt><trkpt lat="44.5859584" lon="8.4602536"><ele>609.0</ele><time>2026-04-04T11:13:43.96Z</time></trkpt><trkpt lat="44.5860772" lon="8.4602349"><ele>608.0</ele><time>2026-04-04T11:13:44.96Z</time></trkpt><trkpt lat="44.5861947" lon="8.4602335"><ele>607.0</ele><time>2026-04-04T11:13:45.961Z</time></trkpt><trkpt lat="44.5863131" lon="8.4602371"><ele>606.0</ele><time>2026-04-04T11:13:46.961Z</time></trkpt><trkpt lat="44.586432" lon="8.4602548"><ele>605.0</ele><time>2026-04-04T11:13:47.961Z</time></trkpt><trkpt lat="44.5865494" lon="8.4602778"><ele>605.0</ele><time>2026-04-04T11:13:48.961Z</time></trkpt><trkpt lat="44.5866635" lon="8.4603037"><ele>605.0</ele><time>2026-04-04T11:13:49.96Z</time></trkpt><trkpt lat="44.5867775" lon="8.4603234"><ele>605.0</ele><time>2026-04-04T11:13:50.961Z</time></trkpt><trkpt lat="44.5868854" lon="8.4603421"><ele>605.0</ele><time>2026-04-04T11:13:51.961Z</time></trkpt><trkpt lat="44.5869825" lon="8.4603653"><ele>605.0</ele><time>2026-04-04T11:13:52.961Z</time></trkpt><trkpt lat="44.5870703" lon="8.4603823"><ele>604.5</ele><time>2026-04-04T11:13:53.961Z</time></trkpt><trkpt lat="44.5871522" lon="8.460388"><ele>604.0</ele><time>2026-04-04T11:13:54.961Z</time></trkpt><trkpt lat="44.5872316" lon="8.4603783"><ele>603.5</ele><time>2026-04-04T11:13:55.96Z</time></trkpt><trkpt lat="44.5873081" lon="8.4603471"><ele>603.0</ele><time>2026-04-04T11:13:56.961Z</time></trkpt><trkpt lat="44.5873794" lon="8.4602967"><ele>602.5</ele><time>2026-04-04T11:13:57.961Z</time></trkpt><trkpt lat="44.5874444" lon="8.4602142"><ele>602.0</ele><time>2026-04-04T11:13:58.961Z</time></trkpt><trkpt lat="44.5875131" lon="8.4601146"><ele>602.0</ele><time>2026-04-04T11:13:59.96Z</time></trkpt><trkpt lat="44.5875855" lon="8.4599987"><ele>602.0</ele><time>2026-04-04T11:14:00.96Z</time></trkpt><trkpt lat="44.5876574" lon="8.4598827"><ele>602.0</ele><time>2026-04-04T11:14:01.961Z</time></trkpt><trkpt lat="44.587736" lon="8.4597646"><ele>602.0</ele><time>2026-04-04T11:14:02.961Z</time></trkpt><trkpt lat="44.5878176" lon="8.4596561"><ele>602.0</ele><time>2026-04-04T11:14:03.96Z</time></trkpt><trkpt lat="44.5879016" lon="8.4595504"><ele>602.0</ele><time>2026-04-04T11:14:04.96Z</time></trkpt><trkpt lat="44.5879826" lon="8.459453"><ele>602.0</ele><time>2026-04-04T11:14:05.961Z</time></trkpt><trkpt lat="44.5880676" lon="8.4593605"><ele>602.0</ele><time>2026-04-04T11:14:06.96Z</time></trkpt><trkpt lat="44.5881483" lon="8.4592891"><ele>602.0</ele><time>2026-04-04T11:14:07.961Z</time></trkpt><trkpt lat="44.5882331" lon="8.4592464"><ele>602.0</ele><time>2026-04-04T11:14:08.96Z</time></trkpt><trkpt lat="44.5883201" lon="8.4592339"><ele>602.0</ele><time>2026-04-04T11:14:09.96Z</time></trkpt><trkpt lat="44.5883999" lon="8.4592444"><ele>602.0</ele><time>2026-04-04T11:14:10.96Z</time></trkpt><trkpt lat="44.5884805" lon="8.4592749"><ele>602.0</ele><time>2026-04-04T11:14:11.961Z</time></trkpt><trkpt lat="44.588561" lon="8.4593197"><ele>602.0</ele><time>2026-04-04T11:14:12.96Z</time></trkpt><trkpt lat="44.5886434" lon="8.4593755"><ele>602.0</ele><time>2026-04-04T11:14:13.961Z</time></trkpt><trkpt lat="44.5887338" lon="8.4594186"><ele>602.0</ele><time>2026-04-04T11:14:14.961Z</time></trkpt><trkpt lat="44.5888197" lon="8.4594607"><ele>603.0</ele><time>2026-04-04T11:14:15.961Z</time></trkpt><trkpt lat="44.5889056" lon="8.4595001"><ele>604.0</ele><time>2026-04-04T11:14:16.96Z</time></trkpt><trkpt lat="44.5889897" lon="8.4595399"><ele>605.0</ele><time>2026-04-04T11:14:17.96Z</time></trkpt><trkpt lat="44.5890744" lon="8.4595786"><ele>606.0</ele><time>2026-04-04T11:14:18.961Z</time></trkpt><trkpt lat="44.5891605" lon="8.4596246"><ele>607.0</ele><time>2026-04-04T11:14:19.96Z</time></trkpt><trkpt lat="44.5892463" lon="8.4596806"><ele>605.2</ele><time>2026-04-04T11:14:20.961Z</time></trkpt><trkpt lat="44.5893318" lon="8.4597383"><ele>603.4000000000001</ele><time>2026-04-04T11:14:21.96Z</time></trkpt><trkpt lat="44.5894209" lon="8.4598118"><ele>601.5999999999999</ele><time>2026-04-04T11:14:22.961Z</time></trkpt><trkpt lat="44.5895111" lon="8.4598888"><ele>599.8</ele><time>2026-04-04T11:14:23.961Z</time></trkpt><trkpt lat="44.5896045" lon="8.4599491"><ele>598.0</ele><time>2026-04-04T11:14:24.96Z</time></trkpt><trkpt lat="44.5897011" lon="8.4600017"><ele>598.0</ele><time>2026-04-04T11:14:25.961Z</time></trkpt><trkpt lat="44.5897909" lon="8.4600547"><ele>598.0</ele><time>2026-04-04T11:14:26.96Z</time></trkpt><trkpt lat="44.5898806" lon="8.4601036"><ele>598.0</ele><time>2026-04-04T11:14:27.961Z</time></trkpt><trkpt lat="44.5899676" lon="8.4601557"><ele>598.0</ele><time>2026-04-04T11:14:28.961Z</time></trkpt><trkpt lat="44.5900524" lon="8.4602024"><ele>598.0</ele><time>2026-04-04T11:14:29.96Z</time></trkpt><trkpt lat="44.5901327" lon="8.460236"><ele>598.0</ele><time>2026-04-04T11:14:30.961Z</time></trkpt><trkpt lat="44.5902058" lon="8.4602601"><ele>598.0</ele><time>2026-04-04T11:14:31.961Z</time></trkpt><trkpt lat="44.5902701" lon="8.4602828"><ele>598.0</ele><time>2026-04-04T11:14:32.96Z</time></trkpt><trkpt lat="44.5903533" lon="8.4603512"><ele>598.0</ele><time>2026-04-04T11:14:34.961Z</time></trkpt><trkpt lat="44.5903521" lon="8.4604473"><ele>598.0</ele><time>2026-04-04T11:14:36.961Z</time></trkpt><trkpt lat="44.5902706" lon="8.4604824"><ele>598.0</ele><time>2026-04-04T11:14:38.961Z</time></trkpt><trkpt lat="44.5901415" lon="8.4604383"><ele>598.0</ele><time>2026-04-04T11:14:40.961Z</time></trkpt><trkpt lat="44.5900598" lon="8.4603726"><ele>598.0</ele><time>2026-04-04T11:14:41.961Z</time></trkpt><trkpt lat="44.5899665" lon="8.4603014"><ele>598.0</ele><time>2026-04-04T11:14:42.961Z</time></trkpt><trkpt lat="44.5898739" lon="8.4602514"><ele>598.0</ele><time>2026-04-04T11:14:43.961Z</time></trkpt><trkpt lat="44.5897791" lon="8.4602239"><ele>598.0</ele><time>2026-04-04T11:14:44.961Z</time></trkpt><trkpt lat="44.5896891" lon="8.460226"><ele>598.0</ele><time>2026-04-04T11:14:45.961Z</time></trkpt><trkpt lat="44.589599" lon="8.4602412"><ele>598.0</ele><time>2026-04-04T11:14:46.96Z</time></trkpt><trkpt lat="44.5895058" lon="8.460256"><ele>598.0</ele><time>2026-04-04T11:14:47.961Z</time></trkpt><trkpt lat="44.5894142" lon="8.4602585"><ele>598.0</ele><time>2026-04-04T11:14:48.961Z</time></trkpt><trkpt lat="44.5893348" lon="8.4602448"><ele>598.0</ele><time>2026-04-04T11:14:49.961Z</time></trkpt><trkpt lat="44.5892631" lon="8.4602092"><ele>598.0</ele><time>2026-04-04T11:14:50.961Z</time></trkpt><trkpt lat="44.5892054" lon="8.4601614"><ele>595.6</ele><time>2026-04-04T11:14:51.961Z</time></trkpt><trkpt lat="44.5891193" lon="8.4601092"><ele>593.1999999999999</ele><time>2026-04-04T11:14:53.96Z</time></trkpt><trkpt lat="44.589081" lon="8.4602349"><ele>590.8</ele><time>2026-04-04T11:14:56.961Z</time></trkpt><trkpt lat="44.5891981" lon="8.4603517"><ele>588.4</ele><time>2026-04-04T11:14:58.961Z</time></trkpt><trkpt lat="44.5892962" lon="8.4603846"><ele>586.0</ele><time>2026-04-04T11:14:59.96Z</time></trkpt><trkpt lat="44.5894105" lon="8.4603975"><ele>589.0</ele><time>2026-04-04T11:15:00.961Z</time></trkpt><trkpt lat="44.5895369" lon="8.4604019"><ele>592.0</ele><time>2026-04-04T11:15:01.961Z</time></trkpt><trkpt lat="44.5896622" lon="8.4604088"><ele>595.0</ele><time>2026-04-04T11:15:02.961Z</time></trkpt><trkpt lat="44.5897817" lon="8.4604383"><ele>598.0</ele><time>2026-04-04T11:15:03.961Z</time></trkpt><trkpt lat="44.5898913" lon="8.4604974"><ele>591.0</ele><time>2026-04-04T11:15:04.961Z</time></trkpt><trkpt lat="44.589997" lon="8.4605777"><ele>584.0</ele><time>2026-04-04T11:15:05.961Z</time></trkpt><trkpt lat="44.5901036" lon="8.4606698"><ele>577.0</ele><time>2026-04-04T11:15:06.961Z</time></trkpt><trkpt lat="44.5902044" lon="8.46076"><ele>570.0</ele><time>2026-04-04T11:15:07.96Z</time></trkpt><trkpt lat="44.5903023" lon="8.4608661"><ele>573.0</ele><time>2026-04-04T11:15:08.961Z</time></trkpt><trkpt lat="44.5904039" lon="8.4609585"><ele>576.0</ele><time>2026-04-04T11:15:09.959Z</time></trkpt><trkpt lat="44.5905077" lon="8.4610408"><ele>579.0</ele><time>2026-04-04T11:15:10.96Z</time></trkpt><trkpt lat="44.5906135" lon="8.4611253"><ele>582.0</ele><time>2026-04-04T11:15:11.96Z</time></trkpt><trkpt lat="44.590715" lon="8.4612098"><ele>576.2</ele><time>2026-04-04T11:15:12.959Z</time></trkpt><trkpt lat="44.5908091" lon="8.4612941"><ele>570.4000000000001</ele><time>2026-04-04T11:15:13.96Z</time></trkpt><trkpt lat="44.5908987" lon="8.4613825"><ele>564.5999999999999</ele><time>2026-04-04T11:15:14.96Z</time></trkpt><trkpt lat="44.5909934" lon="8.4614649"><ele>558.8</ele><time>2026-04-04T11:15:15.96Z</time></trkpt><trkpt lat="44.5910912" lon="8.461529"><ele>553.0</ele><time>2026-04-04T11:15:16.96Z</time></trkpt><trkpt lat="44.5911935" lon="8.4615612"><ele>552.5</ele><time>2026-04-04T11:15:17.959Z</time></trkpt><trkpt lat="44.5913068" lon="8.4615608"><ele>552.0</ele><time>2026-04-04T11:15:18.96Z</time></trkpt><trkpt lat="44.5914183" lon="8.4615209"><ele>551.5</ele><time>2026-04-04T11:15:19.96Z</time></trkpt><trkpt lat="44.5915362" lon="8.4614613"><ele>551.0</ele><time>2026-04-04T11:15:20.96Z</time></trkpt><trkpt lat="44.5916645" lon="8.4613967"><ele>551.0</ele><time>2026-04-04T11:15:21.96Z</time></trkpt><trkpt lat="44.5917976" lon="8.4613762"><ele>551.0</ele><time>2026-04-04T11:15:22.959Z</time></trkpt><trkpt lat="44.5919353" lon="8.4613824"><ele>551.0</ele><time>2026-04-04T11:15:23.959Z</time></trkpt><trkpt lat="44.5920695" lon="8.4613971"><ele>551.0</ele><time>2026-04-04T11:15:24.959Z</time></trkpt><trkpt lat="44.5921993" lon="8.4614129"><ele>550.0</ele><time>2026-04-04T11:15:25.959Z</time></trkpt><trkpt lat="44.5923287" lon="8.461435"><ele>549.0</ele><time>2026-04-04T11:15:26.959Z</time></trkpt><trkpt lat="44.5924518" lon="8.4614526"><ele>548.0</ele><time>2026-04-04T11:15:27.959Z</time></trkpt><trkpt lat="44.592573" lon="8.461481"><ele>547.0</ele><time>2026-04-04T11:15:28.959Z</time></trkpt><trkpt lat="44.5926877" lon="8.4615252"><ele>547.0</ele><time>2026-04-04T11:15:29.96Z</time></trkpt><trkpt lat="44.5927904" lon="8.4616083"><ele>547.0</ele><time>2026-04-04T11:15:30.959Z</time></trkpt><trkpt lat="44.592889" lon="8.4617167"><ele>547.0</ele><time>2026-04-04T11:15:31.96Z</time></trkpt><trkpt lat="44.5929786" lon="8.4618551"><ele>547.0</ele><time>2026-04-04T11:15:32.96Z</time></trkpt><trkpt lat="44.5930604" lon="8.4619971"><ele>546.25</ele><time>2026-04-04T11:15:33.96Z</time></trkpt><trkpt lat="44.5931354" lon="8.4621378"><ele>545.5</ele><time>2026-04-04T11:15:34.96Z</time></trkpt><trkpt lat="44.5932004" lon="8.4622819"><ele>544.75</ele><time>2026-04-04T11:15:35.96Z</time></trkpt><trkpt lat="44.5932639" lon="8.4624187"><ele>544.0</ele><time>2026-04-04T11:15:36.959Z</time></trkpt><trkpt lat="44.5933221" lon="8.4625589"><ele>544.0</ele><time>2026-04-04T11:15:37.96Z</time></trkpt><trkpt lat="44.5933805" lon="8.4627059"><ele>544.0</ele><time>2026-04-04T11:15:38.96Z</time></trkpt><trkpt lat="44.5934357" lon="8.4628513"><ele>544.0</ele><time>2026-04-04T11:15:39.96Z</time></trkpt><trkpt lat="44.5934827" lon="8.4629848"><ele>544.0</ele><time>2026-04-04T11:15:40.96Z</time></trkpt><trkpt lat="44.5935251" lon="8.4631076"><ele>544.0</ele><time>2026-04-04T11:15:41.96Z</time></trkpt><trkpt lat="44.593561" lon="8.4632321"><ele>544.5</ele><time>2026-04-04T11:15:42.96Z</time></trkpt><trkpt lat="44.593591" lon="8.4633469"><ele>545.0</ele><time>2026-04-04T11:15:43.959Z</time></trkpt><trkpt lat="44.5936135" lon="8.463452"><ele>545.5</ele><time>2026-04-04T11:15:44.959Z</time></trkpt><trkpt lat="44.5936556" lon="8.4635914"><ele>546.0</ele><time>2026-04-04T11:15:46.959Z</time></trkpt><trkpt lat="44.5936826" lon="8.4636759"><ele>546.5</ele><time>2026-04-04T11:15:50.96Z</time></trkpt><trkpt lat="44.5937479" lon="8.4637048"><ele>547.0</ele><time>2026-04-04T11:28:47.955Z</time></trkpt><trkpt lat="44.5937839" lon="8.4637784"><ele>543.4</ele><time>2026-04-04T11:29:06.956Z</time></trkpt><trkpt lat="44.5938463" lon="8.4638983"><ele>539.8000000000001</ele><time>2026-04-04T11:29:08.956Z</time></trkpt><trkpt lat="44.5938975" lon="8.4640254"><ele>536.2</ele><time>2026-04-04T11:29:10.956Z</time></trkpt><trkpt lat="44.59396" lon="8.4641407"><ele>532.6</ele><time>2026-04-04T11:29:12.956Z</time></trkpt><trkpt lat="44.594033" lon="8.4642376"><ele>529.0</ele><time>2026-04-04T11:29:14.955Z</time></trkpt><trkpt lat="44.5941358" lon="8.4643034"><ele>529.0</ele><time>2026-04-04T11:29:16.956Z</time></trkpt><trkpt lat="44.594232" lon="8.4643424"><ele>529.0</ele><time>2026-04-04T11:29:18.956Z</time></trkpt><trkpt lat="44.5943252" lon="8.4643993"><ele>529.0</ele><time>2026-04-04T11:29:20.955Z</time></trkpt><trkpt lat="44.5944249" lon="8.4644696"><ele>529.0</ele><time>2026-04-04T11:29:22.956Z</time></trkpt><trkpt lat="44.5945315" lon="8.4645577"><ele>529.0</ele><time>2026-04-04T11:29:24.956Z</time></trkpt><trkpt lat="44.594586" lon="8.4646204"><ele>527.2857142857143</ele><time>2026-04-04T11:29:25.955Z</time></trkpt><trkpt lat="44.5946409" lon="8.4646817"><ele>525.5714285714286</ele><time>2026-04-04T11:29:26.956Z</time></trkpt><trkpt lat="44.5947023" lon="8.4647307"><ele>523.8571428571429</ele><time>2026-04-04T11:29:27.956Z</time></trkpt><trkpt lat="44.5947709" lon="8.464755"><ele>522.1428571428571</ele><time>2026-04-04T11:29:28.956Z</time></trkpt><trkpt lat="44.5948443" lon="8.4647687"><ele>520.4285714285714</ele><time>2026-04-04T11:29:29.955Z</time></trkpt><trkpt lat="44.5949131" lon="8.4647773"><ele>518.7142857142858</ele><time>2026-04-04T11:29:30.956Z</time></trkpt><trkpt lat="44.5949824" lon="8.4648037"><ele>517.0</ele><time>2026-04-04T11:29:31.956Z</time></trkpt><trkpt lat="44.5950419" lon="8.4648557"><ele>517.0</ele><time>2026-04-04T11:29:32.956Z</time></trkpt><trkpt lat="44.5950939" lon="8.4649414"><ele>517.0</ele><time>2026-04-04T11:29:33.955Z</time></trkpt><trkpt lat="44.5951352" lon="8.4650464"><ele>517.0</ele><time>2026-04-04T11:29:34.955Z</time></trkpt><trkpt lat="44.5951752" lon="8.4651481"><ele>517.0</ele><time>2026-04-04T11:29:35.956Z</time></trkpt><trkpt lat="44.5952093" lon="8.4652469"><ele>517.0</ele><time>2026-04-04T11:29:36.956Z</time></trkpt><trkpt lat="44.5952593" lon="8.4653256"><ele>517.0</ele><time>2026-04-04T11:29:37.955Z</time></trkpt><trkpt lat="44.595321" lon="8.4653917"><ele>516.8333333333334</ele><time>2026-04-04T11:29:38.955Z</time></trkpt><trkpt lat="44.5953969" lon="8.4654362"><ele>516.6666666666667</ele><time>2026-04-04T11:29:39.955Z</time></trkpt><trkpt lat="44.5954761" lon="8.4654628"><ele>516.5</ele><time>2026-04-04T11:29:40.956Z</time></trkpt><trkpt lat="44.5955527" lon="8.4654793"><ele>516.3333333333334</ele><time>2026-04-04T11:29:41.956Z</time></trkpt><trkpt lat="44.5956304" lon="8.4654818"><ele>516.1666666666666</ele><time>2026-04-04T11:29:42.956Z</time></trkpt><trkpt lat="44.5957012" lon="8.4654657"><ele>516.0</ele><time>2026-04-04T11:29:43.956Z</time></trkpt><trkpt lat="44.5957666" lon="8.4654354"><ele>515.9999999999999</ele><time>2026-04-04T11:29:44.956Z</time></trkpt><trkpt lat="44.5958226" lon="8.4653914"><ele>516.0</ele><time>2026-04-04T11:29:45.956Z</time></trkpt><trkpt lat="44.5958798" lon="8.465331"><ele>516.0</ele><time>2026-04-04T11:29:46.956Z</time></trkpt><trkpt lat="44.5959301" lon="8.4652609"><ele>516.0</ele><time>2026-04-04T11:29:47.956Z</time></trkpt><trkpt lat="44.5959769" lon="8.4651928"><ele>516.0</ele><time>2026-04-04T11:29:48.956Z</time></trkpt><trkpt lat="44.5960179" lon="8.4651238"><ele>515.9999999999999</ele><time>2026-04-04T11:29:49.956Z</time></trkpt><trkpt lat="44.5960685" lon="8.4650675"><ele>516.0</ele><time>2026-04-04T11:29:50.956Z</time></trkpt><trkpt lat="44.5961337" lon="8.4650243"><ele>513.2857142857142</ele><time>2026-04-04T11:29:51.955Z</time></trkpt><trkpt lat="44.5962057" lon="8.4650052"><ele>510.57142857142856</ele><time>2026-04-04T11:29:52.956Z</time></trkpt><trkpt lat="44.5962809" lon="8.4650124"><ele>507.85714285714283</ele><time>2026-04-04T11:29:53.955Z</time></trkpt><trkpt lat="44.5963574" lon="8.465016"><ele>505.1428571428571</ele><time>2026-04-04T11:29:54.956Z</time></trkpt><trkpt lat="44.5964269" lon="8.4650113"><ele>502.42857142857144</ele><time>2026-04-04T11:29:55.956Z</time></trkpt><trkpt lat="44.5964928" lon="8.4650147"><ele>499.7142857142857</ele><time>2026-04-04T11:29:56.956Z</time></trkpt><trkpt lat="44.5965638" lon="8.4650369"><ele>497.0</ele><time>2026-04-04T11:29:57.955Z</time></trkpt><trkpt lat="44.5966308" lon="8.4650772"><ele>496.99999999999994</ele><time>2026-04-04T11:29:58.955Z</time></trkpt><trkpt lat="44.5966967" lon="8.4651457"><ele>497.0</ele><time>2026-04-04T11:29:59.956Z</time></trkpt><trkpt lat="44.5967505" lon="8.4652308"><ele>497.0</ele><time>2026-04-04T11:30:00.956Z</time></trkpt><trkpt lat="44.596807" lon="8.4653057"><ele>497.0</ele><time>2026-04-04T11:30:01.956Z</time></trkpt><trkpt lat="44.596862" lon="8.4653968"><ele>496.99999999999994</ele><time>2026-04-04T11:30:02.956Z</time></trkpt><trkpt lat="44.5969192" lon="8.4654935"><ele>497.0</ele><time>2026-04-04T11:30:03.956Z</time></trkpt><trkpt lat="44.5969871" lon="8.4655968"><ele>494.40000000000003</ele><time>2026-04-04T11:30:04.956Z</time></trkpt><trkpt lat="44.5970639" lon="8.4656825"><ele>491.80000000000007</ele><time>2026-04-04T11:30:05.956Z</time></trkpt><trkpt lat="44.5971438" lon="8.4657527"><ele>489.2</ele><time>2026-04-04T11:30:06.956Z</time></trkpt><trkpt lat="44.5972312" lon="8.4658129"><ele>486.6</ele><time>2026-04-04T11:30:07.956Z</time></trkpt><trkpt lat="44.5973211" lon="8.4658416"><ele>484.0</ele><time>2026-04-04T11:30:08.956Z</time></trkpt><trkpt lat="44.597418" lon="8.4658245"><ele>484.0</ele><time>2026-04-04T11:30:09.956Z</time></trkpt><trkpt lat="44.5975175" lon="8.4657659"><ele>484.0</ele><time>2026-04-04T11:30:10.956Z</time></trkpt><trkpt lat="44.5976038" lon="8.4656724"><ele>484.0</ele><time>2026-04-04T11:30:11.955Z</time></trkpt><trkpt lat="44.5976945" lon="8.465579"><ele>484.0</ele><time>2026-04-04T11:30:12.955Z</time></trkpt><trkpt lat="44.5978013" lon="8.4654964"><ele>481.5</ele><time>2026-04-04T11:30:13.954Z</time></trkpt><trkpt lat="44.5979183" lon="8.4654246"><ele>479.0</ele><time>2026-04-04T11:30:14.955Z</time></trkpt><trkpt lat="44.5980354" lon="8.4653626"><ele>476.5</ele><time>2026-04-04T11:30:15.955Z</time></trkpt><trkpt lat="44.5981495" lon="8.4652999"><ele>474.0</ele><time>2026-04-04T11:30:16.955Z</time></trkpt><trkpt lat="44.5982747" lon="8.465259"><ele>474.0</ele><time>2026-04-04T11:30:17.955Z</time></trkpt><trkpt lat="44.5984112" lon="8.4652349"><ele>474.0</ele><time>2026-04-04T11:30:18.954Z</time></trkpt><trkpt lat="44.5985477" lon="8.465247"><ele>474.0</ele><time>2026-04-04T11:30:19.955Z</time></trkpt><trkpt lat="44.5986881" lon="8.4652778"><ele>474.0</ele><time>2026-04-04T11:30:20.955Z</time></trkpt><trkpt lat="44.5988253" lon="8.4653208"><ele>474.75</ele><time>2026-04-04T11:30:21.955Z</time></trkpt><trkpt lat="44.5989633" lon="8.4653614"><ele>475.5</ele><time>2026-04-04T11:30:22.954Z</time></trkpt><trkpt lat="44.5990992" lon="8.465398"><ele>476.25</ele><time>2026-04-04T11:30:23.954Z</time></trkpt><trkpt lat="44.5992332" lon="8.4654495"><ele>477.0</ele><time>2026-04-04T11:30:24.955Z</time></trkpt><trkpt lat="44.5993501" lon="8.4655102"><ele>477.0</ele><time>2026-04-04T11:30:25.955Z</time></trkpt><trkpt lat="44.5994692" lon="8.465552"><ele>477.0</ele><time>2026-04-04T11:30:26.955Z</time></trkpt><trkpt lat="44.5995946" lon="8.4655687"><ele>477.0</ele><time>2026-04-04T11:30:27.955Z</time></trkpt><trkpt lat="44.5997199" lon="8.4655444"><ele>477.0</ele><time>2026-04-04T11:30:28.955Z</time></trkpt><trkpt lat="44.5998486" lon="8.4654952"><ele>476.25</ele><time>2026-04-04T11:30:29.955Z</time></trkpt><trkpt lat="44.5999684" lon="8.4654104"><ele>475.5</ele><time>2026-04-04T11:30:30.955Z</time></trkpt><trkpt lat="44.6000715" lon="8.4652984"><ele>474.75</ele><time>2026-04-04T11:30:31.955Z</time></trkpt><trkpt lat="44.6001694" lon="8.4651939"><ele>474.0</ele><time>2026-04-04T11:30:32.955Z</time></trkpt><trkpt lat="44.6002681" lon="8.4651103"><ele>474.79999999999995</ele><time>2026-04-04T11:30:33.955Z</time></trkpt><trkpt lat="44.6003748" lon="8.4650439"><ele>475.59999999999997</ele><time>2026-04-04T11:30:34.955Z</time></trkpt><trkpt lat="44.6004738" lon="8.465002"><ele>476.4</ele><time>2026-04-04T11:30:35.955Z</time></trkpt><trkpt lat="44.6005608" lon="8.4649978"><ele>477.2</ele><time>2026-04-04T11:30:36.954Z</time></trkpt><trkpt lat="44.6006426" lon="8.4650159"><ele>478.0</ele><time>2026-04-04T11:30:37.955Z</time></trkpt><trkpt lat="44.6007302" lon="8.4650492"><ele>478.0</ele><time>2026-04-04T11:30:38.955Z</time></trkpt><trkpt lat="44.6008216" lon="8.4651002"><ele>477.99999999999994</ele><time>2026-04-04T11:30:39.955Z</time></trkpt><trkpt lat="44.6009153" lon="8.4651611"><ele>477.99999999999994</ele><time>2026-04-04T11:30:40.954Z</time></trkpt><trkpt lat="44.6010057" lon="8.4652412"><ele>478.0</ele><time>2026-04-04T11:30:41.955Z</time></trkpt><trkpt lat="44.601088" lon="8.4653283"><ele>478.0</ele><time>2026-04-04T11:30:42.955Z</time></trkpt><trkpt lat="44.6011678" lon="8.4654133"><ele>478.0</ele><time>2026-04-04T11:30:43.955Z</time></trkpt><trkpt lat="44.6012664" lon="8.4654621"><ele>478.0</ele><time>2026-04-04T11:30:44.955Z</time></trkpt><trkpt lat="44.6013855" lon="8.4654709"><ele>478.0</ele><time>2026-04-04T11:30:45.955Z</time></trkpt><trkpt lat="44.6015205" lon="8.4654549"><ele>478.0</ele><time>2026-04-04T11:30:46.955Z</time></trkpt><trkpt lat="44.6016611" lon="8.4654404"><ele>473.75</ele><time>2026-04-04T11:30:47.955Z</time></trkpt><trkpt lat="44.6017941" lon="8.4654435"><ele>469.5</ele><time>2026-04-04T11:30:48.955Z</time></trkpt><trkpt lat="44.6019237" lon="8.465428"><ele>465.25</ele><time>2026-04-04T11:30:49.955Z</time></trkpt><trkpt lat="44.6020469" lon="8.4653651"><ele>461.0</ele><time>2026-04-04T11:30:50.955Z</time></trkpt><trkpt lat="44.6021726" lon="8.4652641"><ele>460.5</ele><time>2026-04-04T11:30:51.955Z</time></trkpt><trkpt lat="44.6022936" lon="8.4651486"><ele>460.0</ele><time>2026-04-04T11:30:52.955Z</time></trkpt><trkpt lat="44.6024068" lon="8.4650246"><ele>459.5</ele><time>2026-04-04T11:30:53.955Z</time></trkpt><trkpt lat="44.6025088" lon="8.4648994"><ele>459.0</ele><time>2026-04-04T11:30:54.955Z</time></trkpt><trkpt lat="44.6025835" lon="8.4647788"><ele>459.0</ele><time>2026-04-04T11:30:55.954Z</time></trkpt><trkpt lat="44.6026287" lon="8.4646353"><ele>459.0</ele><time>2026-04-04T11:30:56.955Z</time></trkpt><trkpt lat="44.6026515" lon="8.4644638"><ele>459.0</ele><time>2026-04-04T11:30:57.955Z</time></trkpt><trkpt lat="44.602667" lon="8.464276"><ele>459.0</ele><time>2026-04-04T11:30:58.955Z</time></trkpt><trkpt lat="44.6026929" lon="8.4640914"><ele>456.25</ele><time>2026-04-04T11:30:59.954Z</time></trkpt><trkpt lat="44.6027471" lon="8.4639238"><ele>453.5</ele><time>2026-04-04T11:31:00.955Z</time></trkpt><trkpt lat="44.6028218" lon="8.4637634"><ele>450.75</ele><time>2026-04-04T11:31:01.955Z</time></trkpt><trkpt lat="44.6028924" lon="8.4636077"><ele>448.0</ele><time>2026-04-04T11:31:02.955Z</time></trkpt><trkpt lat="44.6029396" lon="8.4634566"><ele>447.4</ele><time>2026-04-04T11:31:03.955Z</time></trkpt><trkpt lat="44.6029586" lon="8.4633086"><ele>446.79999999999995</ele><time>2026-04-04T11:31:04.955Z</time></trkpt><trkpt lat="44.6029649" lon="8.4631719"><ele>446.2</ele><time>2026-04-04T11:31:05.955Z</time></trkpt><trkpt lat="44.60297" lon="8.4630572"><ele>445.6</ele><time>2026-04-04T11:31:06.954Z</time></trkpt><trkpt lat="44.6029912" lon="8.4629663"><ele>445.0</ele><time>2026-04-04T11:31:07.955Z</time></trkpt><trkpt lat="44.6030788" lon="8.4628845"><ele>445.0</ele><time>2026-04-04T11:31:09.955Z</time></trkpt><trkpt lat="44.6031935" lon="8.4629731"><ele>445.0</ele><time>2026-04-04T11:31:11.954Z</time></trkpt><trkpt lat="44.6032727" lon="8.4630937"><ele>445.0</ele><time>2026-04-04T11:31:12.955Z</time></trkpt><trkpt lat="44.6033604" lon="8.4632384"><ele>445.0</ele><time>2026-04-04T11:31:13.955Z</time></trkpt><trkpt lat="44.6034481" lon="8.4633525"><ele>445.0</ele><time>2026-04-04T11:31:14.955Z</time></trkpt><trkpt lat="44.6035472" lon="8.4634352"><ele>445.0</ele><time>2026-04-04T11:31:15.955Z</time></trkpt><trkpt lat="44.6036562" lon="8.4634803"><ele>445.0</ele><time>2026-04-04T11:31:16.955Z</time></trkpt><trkpt lat="44.6037661" lon="8.4634783"><ele>445.0</ele><time>2026-04-04T11:31:17.955Z</time></trkpt><trkpt lat="44.603873" lon="8.4634208"><ele>440.6666666666667</ele><time>2026-04-04T11:31:18.955Z</time></trkpt><trkpt lat="44.6039874" lon="8.4633051"><ele>436.33333333333337</ele><time>2026-04-04T11:31:19.954Z</time></trkpt><trkpt lat="44.6041225" lon="8.4631834"><ele>432.0</ele><time>2026-04-04T11:31:20.954Z</time></trkpt><trkpt lat="44.6042702" lon="8.463089"><ele>432.0</ele><time>2026-04-04T11:31:21.955Z</time></trkpt><trkpt lat="44.6044203" lon="8.4630405"><ele>432.0</ele><time>2026-04-04T11:31:22.955Z</time></trkpt><trkpt lat="44.60456" lon="8.4630261"><ele>432.0</ele><time>2026-04-04T11:31:23.955Z</time></trkpt><trkpt lat="44.6046876" lon="8.4630234"><ele>432.0</ele><time>2026-04-04T11:31:24.955Z</time></trkpt><trkpt lat="44.6048014" lon="8.4630419"><ele>433.0</ele><time>2026-04-04T11:31:25.954Z</time></trkpt><trkpt lat="44.6049091" lon="8.4630785"><ele>434.0</ele><time>2026-04-04T11:31:26.955Z</time></trkpt><trkpt lat="44.6050195" lon="8.463121"><ele>435.0</ele><time>2026-04-04T11:31:27.954Z</time></trkpt><trkpt lat="44.6051369" lon="8.4631578"><ele>436.0</ele><time>2026-04-04T11:31:28.954Z</time></trkpt><trkpt lat="44.605266" lon="8.4631851"><ele>437.25</ele><time>2026-04-04T11:31:29.955Z</time></trkpt><trkpt lat="44.605399" lon="8.4631959"><ele>438.5</ele><time>2026-04-04T11:31:30.954Z</time></trkpt><trkpt lat="44.6055308" lon="8.4632162"><ele>439.75</ele><time>2026-04-04T11:31:31.954Z</time></trkpt><trkpt lat="44.6056591" lon="8.4632623"><ele>441.0</ele><time>2026-04-04T11:31:32.955Z</time></trkpt><trkpt lat="44.6057846" lon="8.4633299"><ele>441.0</ele><time>2026-04-04T11:31:33.955Z</time></trkpt><trkpt lat="44.6059147" lon="8.4634304"><ele>441.0</ele><time>2026-04-04T11:31:34.954Z</time></trkpt><trkpt lat="44.6060283" lon="8.4635537"><ele>441.0</ele><time>2026-04-04T11:31:35.955Z</time></trkpt><trkpt lat="44.6061271" lon="8.4636977"><ele>441.0</ele><time>2026-04-04T11:31:36.955Z</time></trkpt><trkpt lat="44.6062027" lon="8.4638515"><ele>442.0</ele><time>2026-04-04T11:31:37.955Z</time></trkpt><trkpt lat="44.6062626" lon="8.4640032"><ele>443.0</ele><time>2026-04-04T11:31:38.954Z</time></trkpt><trkpt lat="44.606313" lon="8.4641411"><ele>444.0</ele><time>2026-04-04T11:31:39.954Z</time></trkpt><trkpt lat="44.6063766" lon="8.4642599"><ele>445.0</ele><time>2026-04-04T11:31:40.955Z</time></trkpt><trkpt lat="44.6064619" lon="8.4643539"><ele>446.0</ele><time>2026-04-04T11:31:41.955Z</time></trkpt><trkpt lat="44.6065645" lon="8.4644443"><ele>446.0</ele><time>2026-04-04T11:31:42.954Z</time></trkpt><trkpt lat="44.6066805" lon="8.4645374"><ele>446.0</ele><time>2026-04-04T11:31:43.955Z</time></trkpt><trkpt lat="44.6068007" lon="8.4646159"><ele>446.0</ele><time>2026-04-04T11:31:44.955Z</time></trkpt><trkpt lat="44.6069367" lon="8.4646888"><ele>446.0</ele><time>2026-04-04T11:31:45.954Z</time></trkpt><trkpt lat="44.6070776" lon="8.4647411"><ele>442.75</ele><time>2026-04-04T11:31:46.954Z</time></trkpt><trkpt lat="44.6072123" lon="8.4647878"><ele>439.5</ele><time>2026-04-04T11:31:47.955Z</time></trkpt><trkpt lat="44.6073337" lon="8.4648406"><ele>436.25</ele><time>2026-04-04T11:31:48.955Z</time></trkpt><trkpt lat="44.6074339" lon="8.4648736"><ele>433.0</ele><time>2026-04-04T11:31:49.955Z</time></trkpt><trkpt lat="44.6075427" lon="8.4648683"><ele>433.0</ele><time>2026-04-04T11:31:50.955Z</time></trkpt><trkpt lat="44.6076548" lon="8.4648327"><ele>433.0</ele><time>2026-04-04T11:31:51.955Z</time></trkpt><trkpt lat="44.6077721" lon="8.4647761"><ele>433.0</ele><time>2026-04-04T11:31:52.955Z</time></trkpt><trkpt lat="44.6078815" lon="8.4647058"><ele>433.0</ele><time>2026-04-04T11:31:53.955Z</time></trkpt><trkpt lat="44.6079731" lon="8.4646127"><ele>433.25</ele><time>2026-04-04T11:31:54.955Z</time></trkpt><trkpt lat="44.6080564" lon="8.4644824"><ele>433.5</ele><time>2026-04-04T11:31:55.955Z</time></trkpt><trkpt lat="44.6081307" lon="8.4643269"><ele>433.75</ele><time>2026-04-04T11:31:56.954Z</time></trkpt><trkpt lat="44.6081954" lon="8.4641507"><ele>434.0</ele><time>2026-04-04T11:31:57.954Z</time></trkpt><trkpt lat="44.6082535" lon="8.4639791"><ele>434.0</ele><time>2026-04-04T11:31:58.954Z</time></trkpt><trkpt lat="44.6083397" lon="8.4638313"><ele>434.0</ele><time>2026-04-04T11:31:59.955Z</time></trkpt><trkpt lat="44.6084646" lon="8.4637129"><ele>434.0</ele><time>2026-04-04T11:32:00.955Z</time></trkpt><trkpt lat="44.6086192" lon="8.46363"><ele>432.0</ele><time>2026-04-04T11:32:01.955Z</time></trkpt><trkpt lat="44.6087804" lon="8.4635702"><ele>430.0</ele><time>2026-04-04T11:32:02.955Z</time></trkpt><trkpt lat="44.6089387" lon="8.4635143"><ele>428.0</ele><time>2026-04-04T11:32:03.955Z</time></trkpt><trkpt lat="44.6090986" lon="8.4634494"><ele>428.0</ele><time>2026-04-04T11:32:04.955Z</time></trkpt><trkpt lat="44.6092613" lon="8.463401"><ele>428.0</ele><time>2026-04-04T11:32:05.954Z</time></trkpt><trkpt lat="44.6094129" lon="8.4633771"><ele>428.0</ele><time>2026-04-04T11:32:06.955Z</time></trkpt><trkpt lat="44.6095572" lon="8.463397"><ele>429.79999999999995</ele><time>2026-04-04T11:32:07.954Z</time></trkpt><trkpt lat="44.6096824" lon="8.4634131"><ele>431.59999999999997</ele><time>2026-04-04T11:32:08.955Z</time></trkpt><trkpt lat="44.6097881" lon="8.4633882"><ele>433.40000000000003</ele><time>2026-04-04T11:32:09.955Z</time></trkpt><trkpt lat="44.6098803" lon="8.4633221"><ele>435.20000000000005</ele><time>2026-04-04T11:32:10.954Z</time></trkpt><trkpt lat="44.6099612" lon="8.4632328"><ele>437.0</ele><time>2026-04-04T11:32:11.955Z</time></trkpt><trkpt lat="44.6100483" lon="8.463151"><ele>437.0</ele><time>2026-04-04T11:32:12.954Z</time></trkpt><trkpt lat="44.6101484" lon="8.4630924"><ele>437.0</ele><time>2026-04-04T11:32:13.955Z</time></trkpt><trkpt lat="44.6102584" lon="8.4630709"><ele>437.0</ele><time>2026-04-04T11:32:14.954Z</time></trkpt><trkpt lat="44.6103745" lon="8.4630757"><ele>437.0</ele><time>2026-04-04T11:32:15.955Z</time></trkpt><trkpt lat="44.6105052" lon="8.463097"><ele>439.25</ele><time>2026-04-04T11:32:16.954Z</time></trkpt><trkpt lat="44.6106323" lon="8.4631046"><ele>441.5</ele><time>2026-04-04T11:32:17.955Z</time></trkpt><trkpt lat="44.610758" lon="8.4630836"><ele>443.75</ele><time>2026-04-04T11:32:18.955Z</time></trkpt><trkpt lat="44.6108708" lon="8.4630314"><ele>446.0</ele><time>2026-04-04T11:32:19.954Z</time></trkpt><trkpt lat="44.6109713" lon="8.4629853"><ele>446.0</ele><time>2026-04-04T11:32:20.955Z</time></trkpt><trkpt lat="44.611069" lon="8.4629759"><ele>446.0</ele><time>2026-04-04T11:32:21.955Z</time></trkpt><trkpt lat="44.611174" lon="8.4630027"><ele>446.0</ele><time>2026-04-04T11:32:22.954Z</time></trkpt><trkpt lat="44.6112834" lon="8.4630672"><ele>446.0</ele><time>2026-04-04T11:32:23.955Z</time></trkpt><trkpt lat="44.6114043" lon="8.4631506"><ele>444.0</ele><time>2026-04-04T11:32:24.955Z</time></trkpt><trkpt lat="44.6115356" lon="8.4632225"><ele>442.0</ele><time>2026-04-04T11:32:25.955Z</time></trkpt><trkpt lat="44.6116719" lon="8.4632614"><ele>440.0</ele><time>2026-04-04T11:32:26.955Z</time></trkpt><trkpt lat="44.6118148" lon="8.4632947"><ele>438.0</ele><time>2026-04-04T11:32:27.955Z</time></trkpt><trkpt lat="44.6119633" lon="8.4633262"><ele>439.25</ele><time>2026-04-04T11:32:28.955Z</time></trkpt><trkpt lat="44.612108" lon="8.4633512"><ele>440.5</ele><time>2026-04-04T11:32:29.955Z</time></trkpt><trkpt lat="44.6122488" lon="8.4633822"><ele>441.75</ele><time>2026-04-04T11:32:30.955Z</time></trkpt><trkpt lat="44.6123893" lon="8.4634235"><ele>443.0</ele><time>2026-04-04T11:32:31.955Z</time></trkpt><trkpt lat="44.6125261" lon="8.4634747"><ele>443.0</ele><time>2026-04-04T11:32:32.955Z</time></trkpt><trkpt lat="44.6126561" lon="8.4635322"><ele>443.0</ele><time>2026-04-04T11:32:33.955Z</time></trkpt><trkpt lat="44.6127724" lon="8.463614"><ele>443.0</ele><time>2026-04-04T11:32:34.954Z</time></trkpt><trkpt lat="44.6128544" lon="8.4637381"><ele>443.0</ele><time>2026-04-04T11:32:35.954Z</time></trkpt><trkpt lat="44.6129026" lon="8.4638924"><ele>445.2</ele><time>2026-04-04T11:32:36.954Z</time></trkpt><trkpt lat="44.6129258" lon="8.4640619"><ele>447.4</ele><time>2026-04-04T11:32:37.955Z</time></trkpt><trkpt lat="44.6129533" lon="8.4642059"><ele>449.59999999999997</ele><time>2026-04-04T11:32:38.955Z</time></trkpt><trkpt lat="44.6130065" lon="8.4643188"><ele>451.79999999999995</ele><time>2026-04-04T11:32:39.954Z</time></trkpt><trkpt lat="44.6130849" lon="8.4643804"><ele>454.0</ele><time>2026-04-04T11:32:40.953Z</time></trkpt><trkpt lat="44.6131777" lon="8.4643906"><ele>454.0</ele><time>2026-04-04T11:32:41.954Z</time></trkpt><trkpt lat="44.6132868" lon="8.4643591"><ele>454.0</ele><time>2026-04-04T11:32:42.953Z</time></trkpt><trkpt lat="44.6134047" lon="8.4643201"><ele>454.0</ele><time>2026-04-04T11:32:43.954Z</time></trkpt><trkpt lat="44.6135287" lon="8.4643004"><ele>454.0</ele><time>2026-04-04T11:32:44.953Z</time></trkpt><trkpt lat="44.6136553" lon="8.4643054"><ele>453.25</ele><time>2026-04-04T11:32:45.954Z</time></trkpt><trkpt lat="44.6137844" lon="8.4643212"><ele>452.5</ele><time>2026-04-04T11:32:46.953Z</time></trkpt><trkpt lat="44.613908" lon="8.4643608"><ele>451.75</ele><time>2026-04-04T11:32:47.954Z</time></trkpt><trkpt lat="44.6140204" lon="8.4644248"><ele>451.0</ele><time>2026-04-04T11:32:48.954Z</time></trkpt><trkpt lat="44.614121" lon="8.4645155"><ele>447.0</ele><time>2026-04-04T11:32:49.954Z</time></trkpt><trkpt lat="44.6142074" lon="8.4646208"><ele>443.0</ele><time>2026-04-04T11:32:50.954Z</time></trkpt><trkpt lat="44.6142971" lon="8.4647076"><ele>439.0</ele><time>2026-04-04T11:32:51.953Z</time></trkpt><trkpt lat="44.6144056" lon="8.4647611"><ele>435.0</ele><time>2026-04-04T11:32:52.954Z</time></trkpt><trkpt lat="44.6145347" lon="8.4647922"><ele>435.0</ele><time>2026-04-04T11:32:53.953Z</time></trkpt><trkpt lat="44.614674" lon="8.4648396"><ele>435.0</ele><time>2026-04-04T11:32:54.954Z</time></trkpt><trkpt lat="44.6148261" lon="8.464894"><ele>435.0</ele><time>2026-04-04T11:32:55.953Z</time></trkpt><trkpt lat="44.6149857" lon="8.4649566"><ele>435.0</ele><time>2026-04-04T11:32:56.954Z</time></trkpt><trkpt lat="44.6151525" lon="8.4650105"><ele>435.0</ele><time>2026-04-04T11:32:57.954Z</time></trkpt><trkpt lat="44.6153263" lon="8.4650427"><ele>435.0</ele><time>2026-04-04T11:32:58.954Z</time></trkpt><trkpt lat="44.6155006" lon="8.46507"><ele>434.66666666666663</ele><time>2026-04-04T11:32:59.954Z</time></trkpt><trkpt lat="44.6156656" lon="8.4650993"><ele>434.3333333333333</ele><time>2026-04-04T11:33:00.953Z</time></trkpt><trkpt lat="44.6158171" lon="8.4651121"><ele>434.0</ele><time>2026-04-04T11:33:01.954Z</time></trkpt><trkpt lat="44.6159559" lon="8.4651185"><ele>434.0</ele><time>2026-04-04T11:33:02.954Z</time></trkpt><trkpt lat="44.616087" lon="8.4651261"><ele>434.0</ele><time>2026-04-04T11:33:03.954Z</time></trkpt><trkpt lat="44.6162157" lon="8.4651099"><ele>434.0</ele><time>2026-04-04T11:33:04.954Z</time></trkpt><trkpt lat="44.6163414" lon="8.4650405"><ele>434.0</ele><time>2026-04-04T11:33:05.954Z</time></trkpt><trkpt lat="44.6164532" lon="8.464924"><ele>433.0</ele><time>2026-04-04T11:33:06.954Z</time></trkpt><trkpt lat="44.6165559" lon="8.4647781"><ele>432.0</ele><time>2026-04-04T11:33:07.954Z</time></trkpt><trkpt lat="44.6166437" lon="8.4646096"><ele>431.0</ele><time>2026-04-04T11:33:08.954Z</time></trkpt><trkpt lat="44.6167226" lon="8.4644281"><ele>430.0</ele><time>2026-04-04T11:33:09.954Z</time></trkpt><trkpt lat="44.6167988" lon="8.4642711"><ele>429.5</ele><time>2026-04-04T11:33:10.954Z</time></trkpt><trkpt lat="44.6168718" lon="8.4641499"><ele>429.0</ele><time>2026-04-04T11:33:11.953Z</time></trkpt><trkpt lat="44.6169603" lon="8.4640521"><ele>428.5</ele><time>2026-04-04T11:33:12.953Z</time></trkpt><trkpt lat="44.6170717" lon="8.4639779"><ele>428.0</ele><time>2026-04-04T11:33:13.954Z</time></trkpt><trkpt lat="44.6172084" lon="8.4639295"><ele>427.5</ele><time>2026-04-04T11:33:14.954Z</time></trkpt><trkpt lat="44.6173524" lon="8.4639066"><ele>427.0</ele><time>2026-04-04T11:33:15.953Z</time></trkpt><trkpt lat="44.6174989" lon="8.463896"><ele>426.5</ele><time>2026-04-04T11:33:16.953Z</time></trkpt><trkpt lat="44.6176556" lon="8.4638893"><ele>426.0</ele><time>2026-04-04T11:33:17.954Z</time></trkpt><trkpt lat="44.6178196" lon="8.4638991"><ele>427.33333333333337</ele><time>2026-04-04T11:33:18.954Z</time></trkpt><trkpt lat="44.6179883" lon="8.4639235"><ele>428.6666666666667</ele><time>2026-04-04T11:33:19.954Z</time></trkpt><trkpt lat="44.6181589" lon="8.463951"><ele>430.0</ele><time>2026-04-04T11:33:20.953Z</time></trkpt><trkpt lat="44.6183284" lon="8.4639813"><ele>430.0</ele><time>2026-04-04T11:33:21.953Z</time></trkpt><trkpt lat="44.6185003" lon="8.4640097"><ele>430.0</ele><time>2026-04-04T11:33:22.954Z</time></trkpt><trkpt lat="44.6186722" lon="8.4640297"><ele>430.0</ele><time>2026-04-04T11:33:23.953Z</time></trkpt><trkpt lat="44.6188339" lon="8.4640275"><ele>432.75</ele><time>2026-04-04T11:33:24.954Z</time></trkpt><trkpt lat="44.6189919" lon="8.4640095"><ele>435.5</ele><time>2026-04-04T11:33:25.954Z</time></trkpt><trkpt lat="44.6191393" lon="8.4639725"><ele>438.25</ele><time>2026-04-04T11:33:26.954Z</time></trkpt><trkpt lat="44.619268" lon="8.4639412"><ele>441.0</ele><time>2026-04-04T11:33:27.954Z</time></trkpt><trkpt lat="44.6193982" lon="8.4639349"><ele>440.0</ele><time>2026-04-04T11:33:28.953Z</time></trkpt><trkpt lat="44.6195264" lon="8.4639633"><ele>439.0</ele><time>2026-04-04T11:33:29.954Z</time></trkpt><trkpt lat="44.6196549" lon="8.4640183"><ele>438.0</ele><time>2026-04-04T11:33:30.954Z</time></trkpt><trkpt lat="44.6197768" lon="8.4641005"><ele>437.0</ele><time>2026-04-04T11:33:31.954Z</time></trkpt><trkpt lat="44.6198888" lon="8.46419"><ele>437.0</ele><time>2026-04-04T11:33:32.953Z</time></trkpt><trkpt lat="44.6200001" lon="8.4642592"><ele>437.0</ele><time>2026-04-04T11:33:33.953Z</time></trkpt><trkpt lat="44.6201108" lon="8.4642926"><ele>437.0</ele><time>2026-04-04T11:33:34.953Z</time></trkpt><trkpt lat="44.6202283" lon="8.464284"><ele>437.0</ele><time>2026-04-04T11:33:35.953Z</time></trkpt><trkpt lat="44.6203488" lon="8.4642355"><ele>442.3333333333333</ele><time>2026-04-04T11:33:36.954Z</time></trkpt><trkpt lat="44.6204786" lon="8.464144"><ele>447.66666666666663</ele><time>2026-04-04T11:33:37.954Z</time></trkpt><trkpt lat="44.6206119" lon="8.4640145"><ele>453.0</ele><time>2026-04-04T11:33:38.954Z</time></trkpt><trkpt lat="44.6207464" lon="8.4638878"><ele>448.66666666666663</ele><time>2026-04-04T11:33:39.953Z</time></trkpt><trkpt lat="44.6208822" lon="8.4637677"><ele>444.3333333333333</ele><time>2026-04-04T11:33:40.954Z</time></trkpt><trkpt lat="44.621028" lon="8.4636472"><ele>440.0</ele><time>2026-04-04T11:33:41.953Z</time></trkpt><trkpt lat="44.6211727" lon="8.4635185"><ele>448.66666666666663</ele><time>2026-04-04T11:33:42.954Z</time></trkpt><trkpt lat="44.6213047" lon="8.463383"><ele>457.33333333333337</ele><time>2026-04-04T11:33:43.954Z</time></trkpt><trkpt lat="44.6214402" lon="8.4632599"><ele>466.0</ele><time>2026-04-04T11:33:44.954Z</time></trkpt><trkpt lat="44.6215803" lon="8.4631293"><ele>466.0</ele><time>2026-04-04T11:33:45.953Z</time></trkpt><trkpt lat="44.6217127" lon="8.4629872"><ele>466.0</ele><time>2026-04-04T11:33:46.954Z</time></trkpt><trkpt lat="44.6218399" lon="8.4628259"><ele>466.0</ele><time>2026-04-04T11:33:47.953Z</time></trkpt><trkpt lat="44.6219657" lon="8.4626521"><ele>467.0</ele><time>2026-04-04T11:33:48.954Z</time></trkpt><trkpt lat="44.6220892" lon="8.4624782"><ele>468.0</ele><time>2026-04-04T11:33:49.954Z</time></trkpt><trkpt lat="44.6222121" lon="8.4623044"><ele>469.0</ele><time>2026-04-04T11:33:50.953Z</time></trkpt><trkpt lat="44.6223335" lon="8.462131"><ele>463.33333333333337</ele><time>2026-04-04T11:33:51.953Z</time></trkpt><trkpt lat="44.6224471" lon="8.4619733"><ele>457.66666666666663</ele><time>2026-04-04T11:33:52.954Z</time></trkpt><trkpt lat="44.62255" lon="8.4618198"><ele>452.0</ele><time>2026-04-04T11:33:53.953Z</time></trkpt><trkpt lat="44.6226443" lon="8.4616687"><ele>452.0</ele><time>2026-04-04T11:33:54.954Z</time></trkpt><trkpt lat="44.622738" lon="8.4615081"><ele>452.0</ele><time>2026-04-04T11:33:55.954Z</time></trkpt><trkpt lat="44.622808" lon="8.461339"><ele>452.0</ele><time>2026-04-04T11:33:56.954Z</time></trkpt><trkpt lat="44.6228618" lon="8.4611506"><ele>452.0</ele><time>2026-04-04T11:33:57.954Z</time></trkpt><trkpt lat="44.6229069" lon="8.4609685"><ele>454.0</ele><time>2026-04-04T11:33:58.954Z</time></trkpt><trkpt lat="44.6229503" lon="8.4607968"><ele>456.0</ele><time>2026-04-04T11:33:59.953Z</time></trkpt><trkpt lat="44.623005" lon="8.4606386"><ele>458.0</ele><time>2026-04-04T11:34:00.954Z</time></trkpt><trkpt lat="44.6230772" lon="8.4604969"><ele>460.0</ele><time>2026-04-04T11:34:01.954Z</time></trkpt><trkpt lat="44.6231766" lon="8.4603759"><ele>453.5</ele><time>2026-04-04T11:34:02.953Z</time></trkpt><trkpt lat="44.6232827" lon="8.4602683"><ele>447.0</ele><time>2026-04-04T11:34:03.954Z</time></trkpt><trkpt lat="44.6233783" lon="8.4601507"><ele>440.5</ele><time>2026-04-04T11:34:04.954Z</time></trkpt><trkpt lat="44.6234647" lon="8.4600412"><ele>434.0</ele><time>2026-04-04T11:34:05.954Z</time></trkpt><trkpt lat="44.623553" lon="8.4599523"><ele>438.5</ele><time>2026-04-04T11:34:06.954Z</time></trkpt><trkpt lat="44.6236561" lon="8.4598775"><ele>443.0</ele><time>2026-04-04T11:34:07.953Z</time></trkpt><trkpt lat="44.6237747" lon="8.4598251"><ele>447.5</ele><time>2026-04-04T11:34:08.954Z</time></trkpt><trkpt lat="44.6239074" lon="8.4598048"><ele>452.0</ele><time>2026-04-04T11:34:09.953Z</time></trkpt><trkpt lat="44.624041" lon="8.459794"><ele>452.0</ele><time>2026-04-04T11:34:10.954Z</time></trkpt><trkpt lat="44.624168" lon="8.4597924"><ele>452.0</ele><time>2026-04-04T11:34:11.954Z</time></trkpt><trkpt lat="44.6242884" lon="8.4598106"><ele>452.0</ele><time>2026-04-04T11:34:12.953Z</time></trkpt><trkpt lat="44.6244041" lon="8.4598513"><ele>452.0</ele><time>2026-04-04T11:34:13.954Z</time></trkpt><trkpt lat="44.6245162" lon="8.4599461"><ele>453.6</ele><time>2026-04-04T11:34:14.954Z</time></trkpt><trkpt lat="44.6246167" lon="8.4600153"><ele>455.20000000000005</ele><time>2026-04-04T11:34:15.954Z</time></trkpt><trkpt lat="44.6247071" lon="8.4600444"><ele>456.8</ele><time>2026-04-04T11:34:16.954Z</time></trkpt><trkpt lat="44.624786" lon="8.4600101"><ele>458.4</ele><time>2026-04-04T11:34:17.954Z</time></trkpt><trkpt lat="44.6248651" lon="8.4599436"><ele>460.0</ele><time>2026-04-04T11:34:18.953Z</time></trkpt><trkpt lat="44.6249462" lon="8.4598553"><ele>460.0</ele><time>2026-04-04T11:34:19.954Z</time></trkpt><trkpt lat="44.6250328" lon="8.4597475"><ele>460.0</ele><time>2026-04-04T11:34:20.954Z</time></trkpt><trkpt lat="44.6251307" lon="8.4596285"><ele>460.0</ele><time>2026-04-04T11:34:21.954Z</time></trkpt><trkpt lat="44.6252452" lon="8.4595097"><ele>460.0</ele><time>2026-04-04T11:34:22.953Z</time></trkpt><trkpt lat="44.6253771" lon="8.4594141"><ele>458.75</ele><time>2026-04-04T11:34:23.954Z</time></trkpt><trkpt lat="44.6255009" lon="8.4593452"><ele>457.5</ele><time>2026-04-04T11:34:24.954Z</time></trkpt><trkpt lat="44.625627" lon="8.459312"><ele>456.25</ele><time>2026-04-04T11:34:25.954Z</time></trkpt><trkpt lat="44.6257496" lon="8.4592769"><ele>455.0</ele><time>2026-04-04T11:34:26.954Z</time></trkpt><trkpt lat="44.6258704" lon="8.4592122"><ele>455.0</ele><time>2026-04-04T11:34:27.954Z</time></trkpt><trkpt lat="44.6259739" lon="8.4591058"><ele>455.0</ele><time>2026-04-04T11:34:28.954Z</time></trkpt><trkpt lat="44.6260694" lon="8.4589728"><ele>455.0</ele><time>2026-04-04T11:34:29.954Z</time></trkpt><trkpt lat="44.6261677" lon="8.4588232"><ele>455.0</ele><time>2026-04-04T11:34:30.953Z</time></trkpt><trkpt lat="44.6262803" lon="8.458686"><ele>454.0</ele><time>2026-04-04T11:34:31.953Z</time></trkpt><trkpt lat="44.626407" lon="8.4585636"><ele>453.0</ele><time>2026-04-04T11:34:32.954Z</time></trkpt><trkpt lat="44.6265459" lon="8.4584567"><ele>452.0</ele><time>2026-04-04T11:34:33.953Z</time></trkpt><trkpt lat="44.626688" lon="8.4583774"><ele>452.0</ele><time>2026-04-04T11:34:34.954Z</time></trkpt><trkpt lat="44.6268206" lon="8.4583306"><ele>452.0</ele><time>2026-04-04T11:34:35.954Z</time></trkpt><trkpt lat="44.6269509" lon="8.4583225"><ele>452.0</ele><time>2026-04-04T11:34:36.954Z</time></trkpt><trkpt lat="44.6270921" lon="8.4583284"><ele>452.0</ele><time>2026-04-04T11:34:37.953Z</time></trkpt><trkpt lat="44.6272386" lon="8.4583179"><ele>455.0</ele><time>2026-04-04T11:34:38.954Z</time></trkpt><trkpt lat="44.6273808" lon="8.4582691"><ele>458.0</ele><time>2026-04-04T11:34:39.953Z</time></trkpt><trkpt lat="44.6275152" lon="8.4581756"><ele>461.0</ele><time>2026-04-04T11:34:40.954Z</time></trkpt><trkpt lat="44.6276392" lon="8.4580485"><ele>461.0</ele><time>2026-04-04T11:34:41.953Z</time></trkpt><trkpt lat="44.6277621" lon="8.4579147"><ele>461.0</ele><time>2026-04-04T11:34:42.954Z</time></trkpt><trkpt lat="44.6278904" lon="8.4577937"><ele>461.0</ele><time>2026-04-04T11:34:43.953Z</time></trkpt><trkpt lat="44.6280152" lon="8.457676"><ele>461.0</ele><time>2026-04-04T11:34:44.953Z</time></trkpt><trkpt lat="44.6281469" lon="8.4575666"><ele>461.0</ele><time>2026-04-04T11:34:45.954Z</time></trkpt><trkpt lat="44.6282856" lon="8.4574627"><ele>461.0</ele><time>2026-04-04T11:34:46.953Z</time></trkpt><trkpt lat="44.6284048" lon="8.4573527"><ele>461.0</ele><time>2026-04-04T11:34:47.954Z</time></trkpt><trkpt lat="44.6285159" lon="8.4572199"><ele>461.0</ele><time>2026-04-04T11:34:48.954Z</time></trkpt><trkpt lat="44.6286224" lon="8.4570692"><ele>461.0</ele><time>2026-04-04T11:34:49.954Z</time></trkpt><trkpt lat="44.6287283" lon="8.4569136"><ele>460.0</ele><time>2026-04-04T11:34:50.953Z</time></trkpt><trkpt lat="44.6288354" lon="8.4567631"><ele>459.0</ele><time>2026-04-04T11:34:51.954Z</time></trkpt><trkpt lat="44.6289464" lon="8.4566146"><ele>458.0</ele><time>2026-04-04T11:34:52.954Z</time></trkpt><trkpt lat="44.6290582" lon="8.4564741"><ele>458.0</ele><time>2026-04-04T11:34:53.954Z</time></trkpt><trkpt lat="44.6291737" lon="8.4563302"><ele>458.0</ele><time>2026-04-04T11:34:54.953Z</time></trkpt><trkpt lat="44.6292851" lon="8.4561943"><ele>458.0</ele><time>2026-04-04T11:34:55.953Z</time></trkpt><trkpt lat="44.6293906" lon="8.4560701"><ele>458.0</ele><time>2026-04-04T11:34:56.954Z</time></trkpt><trkpt lat="44.6294894" lon="8.455964"><ele>461.0</ele><time>2026-04-04T11:34:57.954Z</time></trkpt><trkpt lat="44.6295874" lon="8.4558872"><ele>464.0</ele><time>2026-04-04T11:34:58.954Z</time></trkpt><trkpt lat="44.629705" lon="8.4558286"><ele>467.0</ele><time>2026-04-04T11:34:59.954Z</time></trkpt><trkpt lat="44.6298323" lon="8.4558072"><ele>470.0</ele><time>2026-04-04T11:35:00.954Z</time></trkpt><trkpt lat="44.6299595" lon="8.4558252"><ele>470.0</ele><time>2026-04-04T11:35:01.953Z</time></trkpt><trkpt lat="44.6300843" lon="8.4558812"><ele>470.0</ele><time>2026-04-04T11:35:02.953Z</time></trkpt><trkpt lat="44.6302003" lon="8.4559778"><ele>470.0</ele><time>2026-04-04T11:35:03.953Z</time></trkpt><trkpt lat="44.6303149" lon="8.4560583"><ele>470.0</ele><time>2026-04-04T11:35:04.953Z</time></trkpt><trkpt lat="44.6304123" lon="8.4561484"><ele>470.5</ele><time>2026-04-04T11:35:05.954Z</time></trkpt><trkpt lat="44.6305076" lon="8.456214"><ele>471.0</ele><time>2026-04-04T11:35:06.954Z</time></trkpt><trkpt lat="44.6306078" lon="8.4562653"><ele>471.5</ele><time>2026-04-04T11:35:07.953Z</time></trkpt><trkpt lat="44.6307242" lon="8.456291"><ele>472.0</ele><time>2026-04-04T11:35:08.953Z</time></trkpt><trkpt lat="44.630847" lon="8.4563021"><ele>472.0</ele><time>2026-04-04T11:35:09.953Z</time></trkpt><trkpt lat="44.6309832" lon="8.456269"><ele>472.0</ele><time>2026-04-04T11:35:10.954Z</time></trkpt><trkpt lat="44.631131" lon="8.4561969"><ele>472.0</ele><time>2026-04-04T11:35:11.953Z</time></trkpt><trkpt lat="44.6312724" lon="8.4560933"><ele>469.5</ele><time>2026-04-04T11:35:12.953Z</time></trkpt><trkpt lat="44.6314" lon="8.4559757"><ele>467.0</ele><time>2026-04-04T11:35:13.953Z</time></trkpt><trkpt lat="44.6315089" lon="8.4558473"><ele>464.5</ele><time>2026-04-04T11:35:14.954Z</time></trkpt><trkpt lat="44.6316109" lon="8.4557143"><ele>462.0</ele><time>2026-04-04T11:35:15.952Z</time></trkpt><trkpt lat="44.631715" lon="8.455583"><ele>462.0</ele><time>2026-04-04T11:35:16.953Z</time></trkpt><trkpt lat="44.6318143" lon="8.4554724"><ele>462.0</ele><time>2026-04-04T11:35:17.953Z</time></trkpt><trkpt lat="44.6319308" lon="8.4554093"><ele>462.0</ele><time>2026-04-04T11:35:18.953Z</time></trkpt><trkpt lat="44.6320634" lon="8.4553844"><ele>462.0</ele><time>2026-04-04T11:35:19.953Z</time></trkpt><trkpt lat="44.6321962" lon="8.4554095"><ele>461.5</ele><time>2026-04-04T11:35:20.953Z</time></trkpt><trkpt lat="44.6323301" lon="8.455467"><ele>461.0</ele><time>2026-04-04T11:35:21.953Z</time></trkpt><trkpt lat="44.6324621" lon="8.4555567"><ele>460.5</ele><time>2026-04-04T11:35:22.953Z</time></trkpt><trkpt lat="44.6325926" lon="8.4556751"><ele>460.0</ele><time>2026-04-04T11:35:23.953Z</time></trkpt><trkpt lat="44.6327186" lon="8.4558161"><ele>464.33333333333337</ele><time>2026-04-04T11:35:24.953Z</time></trkpt><trkpt lat="44.6328401" lon="8.4559628"><ele>468.66666666666663</ele><time>2026-04-04T11:35:25.953Z</time></trkpt><trkpt lat="44.6329639" lon="8.4561065"><ele>473.0</ele><time>2026-04-04T11:35:26.952Z</time></trkpt><trkpt lat="44.6330812" lon="8.456254"><ele>469.0</ele><time>2026-04-04T11:35:27.953Z</time></trkpt><trkpt lat="44.6331975" lon="8.4564026"><ele>465.0</ele><time>2026-04-04T11:35:28.953Z</time></trkpt><trkpt lat="44.6333137" lon="8.4565459"><ele>461.0</ele><time>2026-04-04T11:35:29.953Z</time></trkpt><trkpt lat="44.6334214" lon="8.4566781"><ele>461.0</ele><time>2026-04-04T11:35:30.953Z</time></trkpt><trkpt lat="44.6335196" lon="8.4568061"><ele>461.0</ele><time>2026-04-04T11:35:31.953Z</time></trkpt><trkpt lat="44.6336185" lon="8.4569285"><ele>461.0</ele><time>2026-04-04T11:35:32.952Z</time></trkpt><trkpt lat="44.6337238" lon="8.4570333"><ele>461.0</ele><time>2026-04-04T11:35:33.952Z</time></trkpt><trkpt lat="44.6338359" lon="8.457122"><ele>460.5</ele><time>2026-04-04T11:35:34.952Z</time></trkpt><trkpt lat="44.6339584" lon="8.4572028"><ele>460.0</ele><time>2026-04-04T11:35:35.953Z</time></trkpt><trkpt lat="44.6340762" lon="8.4572726"><ele>459.5</ele><time>2026-04-04T11:35:36.953Z</time></trkpt><trkpt lat="44.6341889" lon="8.4573496"><ele>459.0</ele><time>2026-04-04T11:35:37.953Z</time></trkpt><trkpt lat="44.6342877" lon="8.4574317"><ele>459.0</ele><time>2026-04-04T11:35:38.952Z</time></trkpt><trkpt lat="44.634378" lon="8.4574769"><ele>459.0</ele><time>2026-04-04T11:35:39.953Z</time></trkpt><trkpt lat="44.6344648" lon="8.4574814"><ele>459.0</ele><time>2026-04-04T11:35:40.953Z</time></trkpt><trkpt lat="44.6345442" lon="8.4574405"><ele>459.0</ele><time>2026-04-04T11:35:41.953Z</time></trkpt><trkpt lat="44.6346125" lon="8.4573765"><ele>459.0</ele><time>2026-04-04T11:35:42.953Z</time></trkpt><trkpt lat="44.6346663" lon="8.4572899"><ele>459.0</ele><time>2026-04-04T11:35:43.952Z</time></trkpt><trkpt lat="44.6347052" lon="8.4571611"><ele>457.25</ele><time>2026-04-04T11:35:44.952Z</time></trkpt><trkpt lat="44.6347304" lon="8.4570059"><ele>455.5</ele><time>2026-04-04T11:35:45.952Z</time></trkpt><trkpt lat="44.6347429" lon="8.4568148"><ele>453.75</ele><time>2026-04-04T11:35:46.952Z</time></trkpt><trkpt lat="44.6347663" lon="8.4566267"><ele>452.0</ele><time>2026-04-04T11:35:47.953Z</time></trkpt><trkpt lat="44.6347954" lon="8.4564508"><ele>452.0</ele><time>2026-04-04T11:35:48.953Z</time></trkpt><trkpt lat="44.6348296" lon="8.4562819"><ele>452.0</ele><time>2026-04-04T11:35:49.953Z</time></trkpt><trkpt lat="44.6348582" lon="8.456109"><ele>452.0</ele><time>2026-04-04T11:35:50.952Z</time></trkpt><trkpt lat="44.6348804" lon="8.455941"><ele>452.0</ele><time>2026-04-04T11:35:51.953Z</time></trkpt><trkpt lat="44.6349009" lon="8.4557657"><ele>452.0</ele><time>2026-04-04T11:35:52.953Z</time></trkpt><trkpt lat="44.6349224" lon="8.4555817"><ele>452.0</ele><time>2026-04-04T11:35:53.952Z</time></trkpt><trkpt lat="44.6349469" lon="8.455398"><ele>452.0</ele><time>2026-04-04T11:35:54.953Z</time></trkpt><trkpt lat="44.6349732" lon="8.4552183"><ele>452.0</ele><time>2026-04-04T11:35:55.952Z</time></trkpt><trkpt lat="44.6350026" lon="8.4550299"><ele>451.75</ele><time>2026-04-04T11:35:56.953Z</time></trkpt><trkpt lat="44.6350327" lon="8.4548359"><ele>451.5</ele><time>2026-04-04T11:35:57.953Z</time></trkpt><trkpt lat="44.6350666" lon="8.4546352"><ele>451.25</ele><time>2026-04-04T11:35:58.953Z</time></trkpt><trkpt lat="44.6351056" lon="8.4544264"><ele>451.0</ele><time>2026-04-04T11:35:59.952Z</time></trkpt><trkpt lat="44.6351448" lon="8.454216"><ele>450.6666666666667</ele><time>2026-04-04T11:36:00.953Z</time></trkpt><trkpt lat="44.6351902" lon="8.4540095"><ele>450.33333333333337</ele><time>2026-04-04T11:36:01.953Z</time></trkpt><trkpt lat="44.6352382" lon="8.4538056"><ele>450.0</ele><time>2026-04-04T11:36:02.952Z</time></trkpt><trkpt lat="44.6352859" lon="8.4536052"><ele>442.66666666666663</ele><time>2026-04-04T11:36:03.952Z</time></trkpt><trkpt lat="44.6353405" lon="8.4534056"><ele>435.3333333333333</ele><time>2026-04-04T11:36:04.952Z</time></trkpt><trkpt lat="44.6353949" lon="8.4532026"><ele>428.0</ele><time>2026-04-04T11:36:05.952Z</time></trkpt><trkpt lat="44.6354506" lon="8.4530022"><ele>429.75</ele><time>2026-04-04T11:36:06.953Z</time></trkpt><trkpt lat="44.635514" lon="8.4528099"><ele>431.5</ele><time>2026-04-04T11:36:07.953Z</time></trkpt><trkpt lat="44.6355722" lon="8.4526308"><ele>433.25</ele><time>2026-04-04T11:36:08.953Z</time></trkpt><trkpt lat="44.6356343" lon="8.4524663"><ele>435.0</ele><time>2026-04-04T11:36:09.953Z</time></trkpt><trkpt lat="44.6357048" lon="8.4523145"><ele>435.0</ele><time>2026-04-04T11:36:10.952Z</time></trkpt><trkpt lat="44.6357966" lon="8.4521717"><ele>435.0</ele><time>2026-04-04T11:36:11.953Z</time></trkpt><trkpt lat="44.6359135" lon="8.4520635"><ele>435.0</ele><time>2026-04-04T11:36:12.953Z</time></trkpt><trkpt lat="44.6360407" lon="8.4519956"><ele>435.0</ele><time>2026-04-04T11:36:13.952Z</time></trkpt><trkpt lat="44.636176" lon="8.4519633"><ele>435.75</ele><time>2026-04-04T11:36:14.953Z</time></trkpt><trkpt lat="44.6363076" lon="8.4519634"><ele>436.5</ele><time>2026-04-04T11:36:15.953Z</time></trkpt><trkpt lat="44.6364287" lon="8.4519979"><ele>437.25</ele><time>2026-04-04T11:36:16.953Z</time></trkpt><trkpt lat="44.6365344" lon="8.4520497"><ele>438.0</ele><time>2026-04-04T11:36:17.953Z</time></trkpt><trkpt lat="44.6366316" lon="8.4520995"><ele>438.0</ele><time>2026-04-04T11:36:18.952Z</time></trkpt><trkpt lat="44.636735" lon="8.452128"><ele>438.0</ele><time>2026-04-04T11:36:19.952Z</time></trkpt><trkpt lat="44.6368361" lon="8.4521142"><ele>438.0</ele><time>2026-04-04T11:36:20.953Z</time></trkpt><trkpt lat="44.6369447" lon="8.4520513"><ele>438.0</ele><time>2026-04-04T11:36:21.953Z</time></trkpt><trkpt lat="44.637046" lon="8.4519437"><ele>434.75</ele><time>2026-04-04T11:36:22.953Z</time></trkpt><trkpt lat="44.6371415" lon="8.4518185"><ele>431.5</ele><time>2026-04-04T11:36:23.953Z</time></trkpt><trkpt lat="44.6372346" lon="8.4516939"><ele>428.25</ele><time>2026-04-04T11:36:24.952Z</time></trkpt><trkpt lat="44.637323" lon="8.4515822"><ele>425.0</ele><time>2026-04-04T11:36:25.953Z</time></trkpt><trkpt lat="44.6374171" lon="8.4514903"><ele>425.0</ele><time>2026-04-04T11:36:26.953Z</time></trkpt><trkpt lat="44.6375224" lon="8.4514231"><ele>425.0</ele><time>2026-04-04T11:36:27.953Z</time></trkpt><trkpt lat="44.6376353" lon="8.4513696"><ele>425.0</ele><time>2026-04-04T11:36:28.953Z</time></trkpt><trkpt lat="44.6377484" lon="8.4513445"><ele>425.0</ele><time>2026-04-04T11:36:29.953Z</time></trkpt><trkpt lat="44.6378547" lon="8.4513728"><ele>422.4</ele><time>2026-04-04T11:36:30.953Z</time></trkpt><trkpt lat="44.6379565" lon="8.4514146"><ele>419.8</ele><time>2026-04-04T11:36:31.953Z</time></trkpt><trkpt lat="44.6380637" lon="8.451424"><ele>417.20000000000005</ele><time>2026-04-04T11:36:32.953Z</time></trkpt><trkpt lat="44.6381663" lon="8.4513934"><ele>414.6</ele><time>2026-04-04T11:36:33.953Z</time></trkpt><trkpt lat="44.638266" lon="8.4513475"><ele>412.0</ele><time>2026-04-04T11:36:34.953Z</time></trkpt><trkpt lat="44.6383654" lon="8.4513108"><ele>412.6</ele><time>2026-04-04T11:36:35.953Z</time></trkpt><trkpt lat="44.6384616" lon="8.4512845"><ele>413.20000000000005</ele><time>2026-04-04T11:36:36.953Z</time></trkpt><trkpt lat="44.6385548" lon="8.4512859"><ele>413.8</ele><time>2026-04-04T11:36:37.953Z</time></trkpt><trkpt lat="44.6386547" lon="8.4513002"><ele>414.4</ele><time>2026-04-04T11:36:38.953Z</time></trkpt><trkpt lat="44.6387619" lon="8.4512817"><ele>415.0</ele><time>2026-04-04T11:36:39.953Z</time></trkpt><trkpt lat="44.638872" lon="8.4512528"><ele>415.0</ele><time>2026-04-04T11:36:40.953Z</time></trkpt><trkpt lat="44.6389823" lon="8.4512068"><ele>415.0</ele><time>2026-04-04T11:36:41.953Z</time></trkpt><trkpt lat="44.6390957" lon="8.4511499"><ele>415.0</ele><time>2026-04-04T11:36:42.953Z</time></trkpt><trkpt lat="44.6392031" lon="8.4510961"><ele>415.0</ele><time>2026-04-04T11:36:43.953Z</time></trkpt><trkpt lat="44.6393031" lon="8.4510476"><ele>415.0</ele><time>2026-04-04T11:36:44.953Z</time></trkpt><trkpt lat="44.6393996" lon="8.4510145"><ele>415.0</ele><time>2026-04-04T11:36:45.952Z</time></trkpt><trkpt lat="44.6394977" lon="8.45102"><ele>415.0</ele><time>2026-04-04T11:36:46.953Z</time></trkpt><trkpt lat="44.6395986" lon="8.4510559"><ele>415.0</ele><time>2026-04-04T11:36:47.952Z</time></trkpt><trkpt lat="44.6396885" lon="8.4511413"><ele>415.0</ele><time>2026-04-04T11:36:48.952Z</time></trkpt><trkpt lat="44.6397802" lon="8.4512546"><ele>412.0</ele><time>2026-04-04T11:36:49.953Z</time></trkpt><trkpt lat="44.6398646" lon="8.4513921"><ele>409.0</ele><time>2026-04-04T11:36:50.953Z</time></trkpt><trkpt lat="44.6399412" lon="8.4515455"><ele>406.0</ele><time>2026-04-04T11:36:51.953Z</time></trkpt><trkpt lat="44.6400191" lon="8.4516733"><ele>403.0</ele><time>2026-04-04T11:36:52.952Z</time></trkpt><trkpt lat="44.6400963" lon="8.4517798"><ele>403.0</ele><time>2026-04-04T11:36:53.952Z</time></trkpt><trkpt lat="44.6401716" lon="8.4518729"><ele>403.0</ele><time>2026-04-04T11:36:54.952Z</time></trkpt><trkpt lat="44.6402437" lon="8.4519509"><ele>403.0</ele><time>2026-04-04T11:36:55.953Z</time></trkpt><trkpt lat="44.6403144" lon="8.4520213"><ele>403.0</ele><time>2026-04-04T11:36:56.952Z</time></trkpt><trkpt lat="44.6403926" lon="8.4520808"><ele>403.0</ele><time>2026-04-04T11:36:57.952Z</time></trkpt><trkpt lat="44.6404845" lon="8.4521188"><ele>404.0</ele><time>2026-04-04T11:36:58.953Z</time></trkpt><trkpt lat="44.6405952" lon="8.4521305"><ele>405.0</ele><time>2026-04-04T11:36:59.952Z</time></trkpt><trkpt lat="44.6407105" lon="8.4520998"><ele>406.0</ele><time>2026-04-04T11:37:00.952Z</time></trkpt><trkpt lat="44.6408292" lon="8.4520368"><ele>407.0</ele><time>2026-04-04T11:37:01.953Z</time></trkpt><trkpt lat="44.6409462" lon="8.4519638"><ele>407.0</ele><time>2026-04-04T11:37:02.953Z</time></trkpt><trkpt lat="44.6410651" lon="8.4519014"><ele>407.0</ele><time>2026-04-04T11:37:03.953Z</time></trkpt><trkpt lat="44.6411831" lon="8.4518446"><ele>407.0</ele><time>2026-04-04T11:37:04.952Z</time></trkpt><trkpt lat="44.6413028" lon="8.4518265"><ele>407.0</ele><time>2026-04-04T11:37:05.953Z</time></trkpt><trkpt lat="44.6414168" lon="8.4518139"><ele>403.5</ele><time>2026-04-04T11:37:06.953Z</time></trkpt><trkpt lat="44.64153" lon="8.4517867"><ele>400.0</ele><time>2026-04-04T11:37:07.953Z</time></trkpt><trkpt lat="44.6416389" lon="8.4517419"><ele>396.5</ele><time>2026-04-04T11:37:08.953Z</time></trkpt><trkpt lat="44.6417452" lon="8.4516806"><ele>393.0</ele><time>2026-04-04T11:37:09.953Z</time></trkpt><trkpt lat="44.6418477" lon="8.451629"><ele>393.0</ele><time>2026-04-04T11:37:10.953Z</time></trkpt><trkpt lat="44.6419499" lon="8.4515879"><ele>393.0</ele><time>2026-04-04T11:37:11.952Z</time></trkpt><trkpt lat="44.6420575" lon="8.4515628"><ele>393.0</ele><time>2026-04-04T11:37:12.953Z</time></trkpt><trkpt lat="44.6421663" lon="8.451572"><ele>393.0</ele><time>2026-04-04T11:37:13.952Z</time></trkpt><trkpt lat="44.6422812" lon="8.4516284"><ele>393.0</ele><time>2026-04-04T11:37:14.953Z</time></trkpt><trkpt lat="44.6423992" lon="8.4517266"><ele>391.75</ele><time>2026-04-04T11:37:15.953Z</time></trkpt><trkpt lat="44.6425056" lon="8.4518506"><ele>390.5</ele><time>2026-04-04T11:37:16.953Z</time></trkpt><trkpt lat="44.6426042" lon="8.4519866"><ele>389.25</ele><time>2026-04-04T11:37:17.953Z</time></trkpt><trkpt lat="44.6427003" lon="8.4521099"><ele>388.0</ele><time>2026-04-04T11:37:18.953Z</time></trkpt><trkpt lat="44.6427974" lon="8.45222"><ele>386.5</ele><time>2026-04-04T11:37:19.953Z</time></trkpt><trkpt lat="44.6428928" lon="8.452338"><ele>385.0</ele><time>2026-04-04T11:37:20.953Z</time></trkpt><trkpt lat="44.6429926" lon="8.4524507"><ele>383.5</ele><time>2026-04-04T11:37:21.953Z</time></trkpt><trkpt lat="44.6430896" lon="8.4525808"><ele>382.0</ele><time>2026-04-04T11:37:22.952Z</time></trkpt><trkpt lat="44.6431787" lon="8.4527222"><ele>382.0</ele><time>2026-04-04T11:37:23.953Z</time></trkpt><trkpt lat="44.6432601" lon="8.4528736"><ele>382.0</ele><time>2026-04-04T11:37:24.953Z</time></trkpt><trkpt lat="44.6433335" lon="8.4530285"><ele>382.0</ele><time>2026-04-04T11:37:25.953Z</time></trkpt><trkpt lat="44.6434084" lon="8.4531691"><ele>382.0</ele><time>2026-04-04T11:37:26.953Z</time></trkpt><trkpt lat="44.6434989" lon="8.4532927"><ele>379.0</ele><time>2026-04-04T11:37:27.953Z</time></trkpt><trkpt lat="44.6435848" lon="8.4533904"><ele>376.0</ele><time>2026-04-04T11:37:28.953Z</time></trkpt><trkpt lat="44.6436694" lon="8.4534601"><ele>373.0</ele><time>2026-04-04T11:37:29.953Z</time></trkpt><trkpt lat="44.6437422" lon="8.4534986"><ele>370.0</ele><time>2026-04-04T11:37:30.953Z</time></trkpt><trkpt lat="44.643816" lon="8.4535112"><ele>367.0</ele><time>2026-04-04T11:37:31.952Z</time></trkpt><trkpt lat="44.643888" lon="8.4534972"><ele>364.0</ele><time>2026-04-04T11:37:32.953Z</time></trkpt><trkpt lat="44.6439594" lon="8.4534554"><ele>363.0</ele><time>2026-04-04T11:37:33.953Z</time></trkpt><trkpt lat="44.6440257" lon="8.4533832"><ele>362.0</ele><time>2026-04-04T11:37:34.952Z</time></trkpt><trkpt lat="44.6440893" lon="8.4532793"><ele>361.0</ele><time>2026-04-04T11:37:35.953Z</time></trkpt><trkpt lat="44.6441537" lon="8.4531546"><ele>360.0</ele><time>2026-04-04T11:37:36.953Z</time></trkpt><trkpt lat="44.6442102" lon="8.453026"><ele>359.0</ele><time>2026-04-04T11:37:37.953Z</time></trkpt><trkpt lat="44.6442683" lon="8.452921"><ele>362.4</ele><time>2026-04-04T11:37:38.953Z</time></trkpt><trkpt lat="44.6443477" lon="8.4528389"><ele>365.79999999999995</ele><time>2026-04-04T11:37:39.953Z</time></trkpt><trkpt lat="44.6444428" lon="8.452783"><ele>369.20000000000005</ele><time>2026-04-04T11:37:40.953Z</time></trkpt><trkpt lat="44.6445438" lon="8.4527668"><ele>372.6</ele><time>2026-04-04T11:37:41.953Z</time></trkpt><trkpt lat="44.6446468" lon="8.4527985"><ele>376.0</ele><time>2026-04-04T11:37:42.953Z</time></trkpt><trkpt lat="44.6447517" lon="8.452865"><ele>376.75</ele><time>2026-04-04T11:37:43.953Z</time></trkpt><trkpt lat="44.6448501" lon="8.4529513"><ele>377.5</ele><time>2026-04-04T11:37:44.953Z</time></trkpt><trkpt lat="44.6449424" lon="8.4530477"><ele>378.25</ele><time>2026-04-04T11:37:45.952Z</time></trkpt><trkpt lat="44.645028" lon="8.4531612"><ele>379.0</ele><time>2026-04-04T11:37:46.953Z</time></trkpt><trkpt lat="44.6451022" lon="8.4532825"><ele>376.2</ele><time>2026-04-04T11:37:47.953Z</time></trkpt><trkpt lat="44.6451647" lon="8.4534106"><ele>373.4</ele><time>2026-04-04T11:37:48.953Z</time></trkpt><trkpt lat="44.6452202" lon="8.4535385"><ele>370.6</ele><time>2026-04-04T11:37:49.953Z</time></trkpt><trkpt lat="44.6452659" lon="8.4536786"><ele>367.8</ele><time>2026-04-04T11:37:50.952Z</time></trkpt><trkpt lat="44.6452933" lon="8.4538261"><ele>365.0</ele><time>2026-04-04T11:37:51.952Z</time></trkpt><trkpt lat="44.6453162" lon="8.4539771"><ele>365.0</ele><time>2026-04-04T11:37:52.953Z</time></trkpt><trkpt lat="44.6453483" lon="8.454121"><ele>365.0</ele><time>2026-04-04T11:37:53.953Z</time></trkpt><trkpt lat="44.6453971" lon="8.4542487"><ele>365.0</ele><time>2026-04-04T11:37:54.953Z</time></trkpt><trkpt lat="44.6454447" lon="8.4543756"><ele>365.0</ele><time>2026-04-04T11:37:55.953Z</time></trkpt><trkpt lat="44.64549" lon="8.4544955"><ele>365.0</ele><time>2026-04-04T11:37:56.953Z</time></trkpt><trkpt lat="44.6455354" lon="8.4546098"><ele>361.6666666666667</ele><time>2026-04-04T11:37:57.953Z</time></trkpt><trkpt lat="44.6455892" lon="8.454719"><ele>358.33333333333337</ele><time>2026-04-04T11:37:58.953Z</time></trkpt><trkpt lat="44.6456451" lon="8.4548198"><ele>355.0</ele><time>2026-04-04T11:37:59.952Z</time></trkpt><trkpt lat="44.6457056" lon="8.4549045"><ele>351.6666666666667</ele><time>2026-04-04T11:38:00.953Z</time></trkpt><trkpt lat="44.6457596" lon="8.4549857"><ele>348.3333333333333</ele><time>2026-04-04T11:38:01.953Z</time></trkpt><trkpt lat="44.6458128" lon="8.4550638"><ele>345.0</ele><time>2026-04-04T11:38:02.952Z</time></trkpt><trkpt lat="44.6458662" lon="8.4551238"><ele>345.0</ele><time>2026-04-04T11:38:03.951Z</time></trkpt><trkpt lat="44.6459281" lon="8.4551584"><ele>345.0</ele><time>2026-04-04T11:38:04.951Z</time></trkpt><trkpt lat="44.64604" lon="8.4551515"><ele>345.0</ele><time>2026-04-04T11:38:06.952Z</time></trkpt><trkpt lat="44.6460939" lon="8.4550814"><ele>345.0</ele><time>2026-04-04T11:38:07.952Z</time></trkpt><trkpt lat="44.6461539" lon="8.4549882"><ele>345.0</ele><time>2026-04-04T11:38:08.952Z</time></trkpt><trkpt lat="44.6462232" lon="8.4549104"><ele>345.0</ele><time>2026-04-04T11:38:09.952Z</time></trkpt><trkpt lat="44.6462946" lon="8.4548689"><ele>345.4</ele><time>2026-04-04T11:38:10.952Z</time></trkpt><trkpt lat="44.6463733" lon="8.4548643"><ele>345.8</ele><time>2026-04-04T11:38:11.952Z</time></trkpt><trkpt lat="44.6464544" lon="8.4548933"><ele>346.20000000000005</ele><time>2026-04-04T11:38:12.951Z</time></trkpt><trkpt lat="44.6465467" lon="8.4549458"><ele>346.6</ele><time>2026-04-04T11:38:13.951Z</time></trkpt><trkpt lat="44.6466416" lon="8.4549951"><ele>347.0</ele><time>2026-04-04T11:38:14.952Z</time></trkpt><trkpt lat="44.6467422" lon="8.4550284"><ele>347.0</ele><time>2026-04-04T11:38:15.951Z</time></trkpt><trkpt lat="44.6468475" lon="8.4550491"><ele>347.0</ele><time>2026-04-04T11:38:16.952Z</time></trkpt><trkpt lat="44.6469561" lon="8.4550637"><ele>347.0</ele><time>2026-04-04T11:38:17.951Z</time></trkpt><trkpt lat="44.6470655" lon="8.4550779"><ele>347.0</ele><time>2026-04-04T11:38:18.952Z</time></trkpt><trkpt lat="44.6471769" lon="8.4550839"><ele>347.0</ele><time>2026-04-04T11:38:19.951Z</time></trkpt><trkpt lat="44.6472924" lon="8.4550921"><ele>346.0</ele><time>2026-04-04T11:38:20.952Z</time></trkpt><trkpt lat="44.6474097" lon="8.4551024"><ele>345.0</ele><time>2026-04-04T11:38:21.952Z</time></trkpt><trkpt lat="44.6475286" lon="8.4551073"><ele>344.0</ele><time>2026-04-04T11:38:22.952Z</time></trkpt><trkpt lat="44.647643" lon="8.4550974"><ele>343.0</ele><time>2026-04-04T11:38:23.952Z</time></trkpt><trkpt lat="44.6477528" lon="8.4550752"><ele>340.0</ele><time>2026-04-04T11:38:24.952Z</time></trkpt><trkpt lat="44.6478589" lon="8.4550572"><ele>337.0</ele><time>2026-04-04T11:38:25.951Z</time></trkpt><trkpt lat="44.6479728" lon="8.4550281"><ele>334.0</ele><time>2026-04-04T11:38:26.952Z</time></trkpt><trkpt lat="44.6480895" lon="8.4549999"><ele>331.0</ele><time>2026-04-04T11:38:27.952Z</time></trkpt><trkpt lat="44.6482012" lon="8.4549692"><ele>331.0</ele><time>2026-04-04T11:38:28.951Z</time></trkpt><trkpt lat="44.6483129" lon="8.4549234"><ele>331.0</ele><time>2026-04-04T11:38:29.952Z</time></trkpt><trkpt lat="44.6484315" lon="8.4548678"><ele>331.0</ele><time>2026-04-04T11:38:30.951Z</time></trkpt><trkpt lat="44.6485542" lon="8.4548175"><ele>331.0</ele><time>2026-04-04T11:38:31.952Z</time></trkpt><trkpt lat="44.6486675" lon="8.4547728"><ele>329.8</ele><time>2026-04-04T11:38:32.952Z</time></trkpt><trkpt lat="44.648773" lon="8.4547333"><ele>328.6</ele><time>2026-04-04T11:38:33.952Z</time></trkpt><trkpt lat="44.648885" lon="8.4547118"><ele>327.4</ele><time>2026-04-04T11:38:34.952Z</time></trkpt><trkpt lat="44.6489974" lon="8.4547059"><ele>326.2</ele><time>2026-04-04T11:38:35.951Z</time></trkpt><trkpt lat="44.6491107" lon="8.4547202"><ele>325.0</ele><time>2026-04-04T11:38:36.952Z</time></trkpt><trkpt lat="44.6492212" lon="8.4547608"><ele>325.0</ele><time>2026-04-04T11:38:37.952Z</time></trkpt><trkpt lat="44.6493186" lon="8.4548357"><ele>325.0</ele><time>2026-04-04T11:38:38.952Z</time></trkpt><trkpt lat="44.6494073" lon="8.4549254"><ele>325.0</ele><time>2026-04-04T11:38:39.952Z</time></trkpt><trkpt lat="44.6494826" lon="8.455026"><ele>325.0</ele><time>2026-04-04T11:38:40.952Z</time></trkpt><trkpt lat="44.6495415" lon="8.4551372"><ele>325.0</ele><time>2026-04-04T11:38:41.952Z</time></trkpt><trkpt lat="44.6495993" lon="8.4552381"><ele>325.6</ele><time>2026-04-04T11:38:42.951Z</time></trkpt><trkpt lat="44.6496621" lon="8.4553255"><ele>326.2</ele><time>2026-04-04T11:38:43.951Z</time></trkpt><trkpt lat="44.6497434" lon="8.4553796"><ele>326.79999999999995</ele><time>2026-04-04T11:38:44.951Z</time></trkpt><trkpt lat="44.6498359" lon="8.4553937"><ele>327.4</ele><time>2026-04-04T11:38:45.952Z</time></trkpt><trkpt lat="44.649932" lon="8.4553996"><ele>328.0</ele><time>2026-04-04T11:38:46.952Z</time></trkpt><trkpt lat="44.6500256" lon="8.4554192"><ele>323.4</ele><time>2026-04-04T11:38:47.952Z</time></trkpt><trkpt lat="44.6501202" lon="8.4554633"><ele>318.79999999999995</ele><time>2026-04-04T11:38:48.952Z</time></trkpt><trkpt lat="44.6502096" lon="8.4555337"><ele>314.2</ele><time>2026-04-04T11:38:49.952Z</time></trkpt><trkpt lat="44.6502977" lon="8.4556106"><ele>309.6</ele><time>2026-04-04T11:38:50.952Z</time></trkpt><trkpt lat="44.6503813" lon="8.4556814"><ele>305.0</ele><time>2026-04-04T11:38:51.952Z</time></trkpt><trkpt lat="44.6504707" lon="8.4557305"><ele>304.25</ele><time>2026-04-04T11:38:52.952Z</time></trkpt><trkpt lat="44.6505734" lon="8.4557451"><ele>303.5</ele><time>2026-04-04T11:38:53.951Z</time></trkpt><trkpt lat="44.6506964" lon="8.455739"><ele>302.75</ele><time>2026-04-04T11:38:54.952Z</time></trkpt><trkpt lat="44.6508477" lon="8.4556944"><ele>302.0</ele><time>2026-04-04T11:38:55.952Z</time></trkpt><trkpt lat="44.651026" lon="8.4556458"><ele>301.6666666666667</ele><time>2026-04-04T11:38:56.951Z</time></trkpt><trkpt lat="44.6512141" lon="8.4555905"><ele>301.3333333333333</ele><time>2026-04-04T11:38:57.952Z</time></trkpt><trkpt lat="44.6513975" lon="8.455558"><ele>301.0</ele><time>2026-04-04T11:38:58.952Z</time></trkpt><trkpt lat="44.6515671" lon="8.4555703"><ele>301.0</ele><time>2026-04-04T11:38:59.951Z</time></trkpt><trkpt lat="44.6517316" lon="8.4556232"><ele>301.0</ele><time>2026-04-04T11:39:00.952Z</time></trkpt><trkpt lat="44.6518759" lon="8.4557128"><ele>301.0</ele><time>2026-04-04T11:39:01.952Z</time></trkpt><trkpt lat="44.6520089" lon="8.4558079"><ele>300.75</ele><time>2026-04-04T11:39:02.952Z</time></trkpt><trkpt lat="44.6521401" lon="8.4558827"><ele>300.5</ele><time>2026-04-04T11:39:03.952Z</time></trkpt><trkpt lat="44.6522774" lon="8.4559155"><ele>300.25</ele><time>2026-04-04T11:39:04.951Z</time></trkpt><trkpt lat="44.6524284" lon="8.455905"><ele>300.0</ele><time>2026-04-04T11:39:05.952Z</time></trkpt><trkpt lat="44.652579" lon="8.4558588"><ele>300.0</ele><time>2026-04-04T11:39:06.952Z</time></trkpt><trkpt lat="44.6527259" lon="8.4558021"><ele>300.0</ele><time>2026-04-04T11:39:07.952Z</time></trkpt><trkpt lat="44.652872" lon="8.455768"><ele>300.0</ele><time>2026-04-04T11:39:08.951Z</time></trkpt><trkpt lat="44.6530178" lon="8.4557482"><ele>300.0</ele><time>2026-04-04T11:39:09.952Z</time></trkpt><trkpt lat="44.6531562" lon="8.4557296"><ele>300.25</ele><time>2026-04-04T11:39:10.952Z</time></trkpt><trkpt lat="44.6532872" lon="8.4556986"><ele>300.5</ele><time>2026-04-04T11:39:11.952Z</time></trkpt><trkpt lat="44.6534162" lon="8.4556449"><ele>300.75</ele><time>2026-04-04T11:39:12.951Z</time></trkpt><trkpt lat="44.6535487" lon="8.4555865"><ele>301.0</ele><time>2026-04-04T11:39:13.952Z</time></trkpt><trkpt lat="44.6536762" lon="8.4555296"><ele>299.75</ele><time>2026-04-04T11:39:14.952Z</time></trkpt><trkpt lat="44.6537981" lon="8.4554761"><ele>298.5</ele><time>2026-04-04T11:39:15.952Z</time></trkpt><trkpt lat="44.6539189" lon="8.4554413"><ele>297.25</ele><time>2026-04-04T11:39:16.952Z</time></trkpt><trkpt lat="44.6540457" lon="8.4554087"><ele>296.0</ele><time>2026-04-04T11:39:17.952Z</time></trkpt><trkpt lat="44.6541755" lon="8.4554156"><ele>296.25</ele><time>2026-04-04T11:39:18.952Z</time></trkpt><trkpt lat="44.6543119" lon="8.4554333"><ele>296.5</ele><time>2026-04-04T11:39:19.951Z</time></trkpt><trkpt lat="44.6544476" lon="8.4554519"><ele>296.75</ele><time>2026-04-04T11:39:20.952Z</time></trkpt><trkpt lat="44.6545793" lon="8.455478"><ele>297.0</ele><time>2026-04-04T11:39:21.952Z</time></trkpt><trkpt lat="44.6547059" lon="8.4555307"><ele>297.0</ele><time>2026-04-04T11:39:22.951Z</time></trkpt><trkpt lat="44.6548318" lon="8.4556226"><ele>297.0</ele><time>2026-04-04T11:39:23.952Z</time></trkpt><trkpt lat="44.6549436" lon="8.4557347"><ele>297.0</ele><time>2026-04-04T11:39:24.952Z</time></trkpt><trkpt lat="44.6550503" lon="8.4558383"><ele>297.0</ele><time>2026-04-04T11:39:25.952Z</time></trkpt><trkpt lat="44.655147" lon="8.4559443"><ele>297.0</ele><time>2026-04-04T11:39:26.951Z</time></trkpt><trkpt lat="44.655239" lon="8.4560407"><ele>297.0</ele><time>2026-04-04T11:39:27.952Z</time></trkpt><trkpt lat="44.6553277" lon="8.4561065"><ele>297.0</ele><time>2026-04-04T11:39:28.951Z</time></trkpt><trkpt lat="44.6554215" lon="8.4561511"><ele>297.0</ele><time>2026-04-04T11:39:29.952Z</time></trkpt><trkpt lat="44.655504" lon="8.4561664"><ele>297.0</ele><time>2026-04-04T11:39:30.952Z</time></trkpt><trkpt lat="44.6555764" lon="8.4561537"><ele>295.8</ele><time>2026-04-04T11:39:31.952Z</time></trkpt><trkpt lat="44.6556424" lon="8.456116"><ele>294.6</ele><time>2026-04-04T11:39:32.952Z</time></trkpt><trkpt lat="44.6557019" lon="8.456034"><ele>293.40000000000003</ele><time>2026-04-04T11:39:33.952Z</time></trkpt><trkpt lat="44.6557594" lon="8.455908"><ele>292.2</ele><time>2026-04-04T11:39:34.952Z</time></trkpt><trkpt lat="44.6558152" lon="8.4557729"><ele>291.0</ele><time>2026-04-04T11:39:35.952Z</time></trkpt><trkpt lat="44.6558694" lon="8.4556511"><ele>291.0</ele><time>2026-04-04T11:39:36.952Z</time></trkpt><trkpt lat="44.6559223" lon="8.4555484"><ele>291.0</ele><time>2026-04-04T11:39:37.951Z</time></trkpt><trkpt lat="44.6559749" lon="8.4554459"><ele>291.0</ele><time>2026-04-04T11:39:38.952Z</time></trkpt><trkpt lat="44.656022" lon="8.4553446"><ele>291.0</ele><time>2026-04-04T11:39:39.952Z</time></trkpt><trkpt lat="44.6560538" lon="8.4552349"><ele>291.0</ele><time>2026-04-04T11:39:40.952Z</time></trkpt><trkpt lat="44.6560719" lon="8.4551217"><ele>291.0</ele><time>2026-04-04T11:39:41.951Z</time></trkpt><trkpt lat="44.6560675" lon="8.4550154"><ele>290.5</ele><time>2026-04-04T11:39:42.951Z</time></trkpt><trkpt lat="44.6560314" lon="8.4549226"><ele>290.0</ele><time>2026-04-04T11:39:43.951Z</time></trkpt><trkpt lat="44.6559837" lon="8.4548209"><ele>289.5</ele><time>2026-04-04T11:39:44.952Z</time></trkpt><trkpt lat="44.655945" lon="8.4547249"><ele>289.0</ele><time>2026-04-04T11:39:45.952Z</time></trkpt><trkpt lat="44.6559322" lon="8.454634"><ele>288.5</ele><time>2026-04-04T11:39:46.952Z</time></trkpt><trkpt lat="44.6559742" lon="8.4545345"><ele>288.0</ele><time>2026-04-04T11:39:48.952Z</time></trkpt><trkpt lat="44.6560788" lon="8.4545572"><ele>283.5</ele><time>2026-04-04T11:39:50.952Z</time></trkpt><trkpt lat="44.6561376" lon="8.4546448"><ele>279.0</ele><time>2026-04-04T11:39:51.952Z</time></trkpt><trkpt lat="44.6561917" lon="8.4547898"><ele>274.5</ele><time>2026-04-04T11:39:52.952Z</time></trkpt><trkpt lat="44.6562348" lon="8.45498"><ele>270.0</ele><time>2026-04-04T11:39:53.951Z</time></trkpt><trkpt lat="44.6562661" lon="8.4551766"><ele>270.0</ele><time>2026-04-04T11:39:54.952Z</time></trkpt><trkpt lat="44.6562889" lon="8.4553436"><ele>270.0</ele><time>2026-04-04T11:39:55.951Z</time></trkpt><trkpt lat="44.6563064" lon="8.4554894"><ele>270.0</ele><time>2026-04-04T11:39:56.952Z</time></trkpt><trkpt lat="44.656324" lon="8.4556169"><ele>270.0</ele><time>2026-04-04T11:39:57.952Z</time></trkpt><trkpt lat="44.6563524" lon="8.4557289"><ele>270.0</ele><time>2026-04-04T11:39:58.951Z</time></trkpt><trkpt lat="44.6563987" lon="8.4558283"><ele>271.6</ele><time>2026-04-04T11:39:59.952Z</time></trkpt><trkpt lat="44.6564626" lon="8.4558985"><ele>273.2</ele><time>2026-04-04T11:40:00.951Z</time></trkpt><trkpt lat="44.6565465" lon="8.4559435"><ele>274.8</ele><time>2026-04-04T11:40:01.952Z</time></trkpt><trkpt lat="44.6566552" lon="8.4559451"><ele>276.4</ele><time>2026-04-04T11:40:02.952Z</time></trkpt><trkpt lat="44.6567815" lon="8.455906"><ele>278.0</ele><time>2026-04-04T11:40:03.952Z</time></trkpt><trkpt lat="44.6569257" lon="8.4558239"><ele>276.5</ele><time>2026-04-04T11:40:04.952Z</time></trkpt><trkpt lat="44.6570662" lon="8.4557527"><ele>275.0</ele><time>2026-04-04T11:40:05.951Z</time></trkpt><trkpt lat="44.6571937" lon="8.4556862"><ele>273.5</ele><time>2026-04-04T11:40:06.952Z</time></trkpt><trkpt lat="44.6573087" lon="8.4556285"><ele>272.0</ele><time>2026-04-04T11:40:07.952Z</time></trkpt><trkpt lat="44.6574193" lon="8.4555876"><ele>272.0</ele><time>2026-04-04T11:40:08.952Z</time></trkpt><trkpt lat="44.6575135" lon="8.4555419"><ele>272.0</ele><time>2026-04-04T11:40:09.952Z</time></trkpt><trkpt lat="44.6575938" lon="8.4554618"><ele>272.0</ele><time>2026-04-04T11:40:10.952Z</time></trkpt><trkpt lat="44.6576536" lon="8.4553552"><ele>272.0</ele><time>2026-04-04T11:40:11.952Z</time></trkpt><trkpt lat="44.6577039" lon="8.4552339"><ele>272.0</ele><time>2026-04-04T11:40:12.952Z</time></trkpt><trkpt lat="44.6577571" lon="8.4551321"><ele>269.6</ele><time>2026-04-04T11:40:13.952Z</time></trkpt><trkpt lat="44.6578292" lon="8.455053"><ele>267.2</ele><time>2026-04-04T11:40:14.952Z</time></trkpt><trkpt lat="44.6579208" lon="8.4549999"><ele>264.8</ele><time>2026-04-04T11:40:15.952Z</time></trkpt><trkpt lat="44.6580232" lon="8.454977"><ele>262.4</ele><time>2026-04-04T11:40:16.951Z</time></trkpt><trkpt lat="44.6581237" lon="8.4549676"><ele>260.0</ele><time>2026-04-04T11:40:17.952Z</time></trkpt><trkpt lat="44.6582218" lon="8.454956"><ele>260.0</ele><time>2026-04-04T11:40:18.952Z</time></trkpt><trkpt lat="44.6583179" lon="8.4549092"><ele>260.0</ele><time>2026-04-04T11:40:19.951Z</time></trkpt><trkpt lat="44.6584071" lon="8.4548325"><ele>260.0</ele><time>2026-04-04T11:40:20.952Z</time></trkpt><trkpt lat="44.6584866" lon="8.4547334"><ele>260.0</ele><time>2026-04-04T11:40:21.952Z</time></trkpt><trkpt lat="44.6585567" lon="8.4546268"><ele>260.0</ele><time>2026-04-04T11:40:22.952Z</time></trkpt><trkpt lat="44.6586244" lon="8.4545196"><ele>257.6666666666667</ele><time>2026-04-04T11:40:23.952Z</time></trkpt><trkpt lat="44.6586856" lon="8.4544231"><ele>255.33333333333334</ele><time>2026-04-04T11:40:24.951Z</time></trkpt><trkpt lat="44.6587467" lon="8.4543408"><ele>253.0</ele><time>2026-04-04T11:40:25.952Z</time></trkpt><trkpt lat="44.6588169" lon="8.454282"><ele>250.66666666666669</ele><time>2026-04-04T11:40:26.952Z</time></trkpt><trkpt lat="44.6588795" lon="8.4542535"><ele>248.33333333333334</ele><time>2026-04-04T11:40:27.952Z</time></trkpt><trkpt lat="44.6589907" lon="8.4543081"><ele>246.0</ele><time>2026-04-04T11:40:29.952Z</time></trkpt><trkpt lat="44.6590392" lon="8.4543953"><ele>246.0</ele><time>2026-04-04T11:40:30.952Z</time></trkpt><trkpt lat="44.6590992" lon="8.4544967"><ele>246.00000000000003</ele><time>2026-04-04T11:40:31.951Z</time></trkpt><trkpt lat="44.6591718" lon="8.4545784"><ele>246.00000000000003</ele><time>2026-04-04T11:40:32.952Z</time></trkpt><trkpt lat="44.6592568" lon="8.4546367"><ele>246.0</ele><time>2026-04-04T11:40:33.952Z</time></trkpt><trkpt lat="44.6593458" lon="8.4546784"><ele>246.0</ele><time>2026-04-04T11:40:34.951Z</time></trkpt><trkpt lat="44.6594324" lon="8.4547111"><ele>245.33333333333334</ele><time>2026-04-04T11:40:35.951Z</time></trkpt><trkpt lat="44.6595173" lon="8.4547448"><ele>244.66666666666669</ele><time>2026-04-04T11:40:36.952Z</time></trkpt><trkpt lat="44.6595928" lon="8.4547827"><ele>244.0</ele><time>2026-04-04T11:40:37.952Z</time></trkpt><trkpt lat="44.6596583" lon="8.4548371"><ele>243.33333333333334</ele><time>2026-04-04T11:40:38.952Z</time></trkpt><trkpt lat="44.6597136" lon="8.4549209"><ele>242.66666666666669</ele><time>2026-04-04T11:40:39.952Z</time></trkpt><trkpt lat="44.659761" lon="8.4550143"><ele>242.0</ele><time>2026-04-04T11:40:40.951Z</time></trkpt><trkpt lat="44.6597888" lon="8.455126"><ele>242.00000000000003</ele><time>2026-04-04T11:40:41.952Z</time></trkpt><trkpt lat="44.6597945" lon="8.4552509"><ele>242.0</ele><time>2026-04-04T11:40:42.952Z</time></trkpt><trkpt lat="44.6598004" lon="8.4553772"><ele>242.0</ele><time>2026-04-04T11:40:43.951Z</time></trkpt><trkpt lat="44.6598172" lon="8.4555022"><ele>242.0</ele><time>2026-04-04T11:40:44.951Z</time></trkpt><trkpt lat="44.6598584" lon="8.4556055"><ele>242.00000000000003</ele><time>2026-04-04T11:40:45.952Z</time></trkpt><trkpt lat="44.6599253" lon="8.4556882"><ele>242.0</ele><time>2026-04-04T11:40:46.951Z</time></trkpt><trkpt lat="44.660009" lon="8.4557519"><ele>242.2</ele><time>2026-04-04T11:40:47.951Z</time></trkpt><trkpt lat="44.6601136" lon="8.4558122"><ele>242.39999999999998</ele><time>2026-04-04T11:40:48.952Z</time></trkpt><trkpt lat="44.660219" lon="8.4558586"><ele>242.60000000000002</ele><time>2026-04-04T11:40:49.951Z</time></trkpt><trkpt lat="44.6603229" lon="8.4559011"><ele>242.8</ele><time>2026-04-04T11:40:50.952Z</time></trkpt><trkpt lat="44.6604343" lon="8.4559471"><ele>243.0</ele><time>2026-04-04T11:40:51.951Z</time></trkpt><trkpt lat="44.6605588" lon="8.456"><ele>239.75</ele><time>2026-04-04T11:40:52.952Z</time></trkpt><trkpt lat="44.6606834" lon="8.456051"><ele>236.5</ele><time>2026-04-04T11:40:53.952Z</time></trkpt><trkpt lat="44.6608188" lon="8.456071"><ele>233.25</ele><time>2026-04-04T11:40:54.952Z</time></trkpt><trkpt lat="44.6609578" lon="8.456074"><ele>230.0</ele><time>2026-04-04T11:40:55.952Z</time></trkpt><trkpt lat="44.6610919" lon="8.4560698"><ele>226.75</ele><time>2026-04-04T11:40:56.95Z</time></trkpt><trkpt lat="44.6612132" lon="8.4560525"><ele>223.5</ele><time>2026-04-04T11:40:57.951Z</time></trkpt><trkpt lat="44.6613342" lon="8.4560358"><ele>220.25</ele><time>2026-04-04T11:40:58.951Z</time></trkpt><trkpt lat="44.6614481" lon="8.4560186"><ele>217.0</ele><time>2026-04-04T11:40:59.951Z</time></trkpt><trkpt lat="44.6615624" lon="8.4560093"><ele>217.0</ele><time>2026-04-04T11:41:00.951Z</time></trkpt><trkpt lat="44.6616828" lon="8.4560145"><ele>217.0</ele><time>2026-04-04T11:41:01.951Z</time></trkpt><trkpt lat="44.6618011" lon="8.4560235"><ele>217.0</ele><time>2026-04-04T11:41:02.951Z</time></trkpt><trkpt lat="44.6619176" lon="8.4560426"><ele>217.0</ele><time>2026-04-04T11:41:03.95Z</time></trkpt><trkpt lat="44.6620252" lon="8.4560663"><ele>216.39999999999998</ele><time>2026-04-04T11:41:04.951Z</time></trkpt><trkpt lat="44.6621349" lon="8.4560996"><ele>215.79999999999998</ele><time>2026-04-04T11:41:05.95Z</time></trkpt><trkpt lat="44.6622403" lon="8.4561396"><ele>215.2</ele><time>2026-04-04T11:41:06.951Z</time></trkpt><trkpt lat="44.6623307" lon="8.4562012"><ele>214.6</ele><time>2026-04-04T11:41:07.951Z</time></trkpt><trkpt lat="44.6624149" lon="8.4562767"><ele>214.0</ele><time>2026-04-04T11:41:08.951Z</time></trkpt><trkpt lat="44.6624874" lon="8.4563546"><ele>213.99999999999997</ele><time>2026-04-04T11:41:09.951Z</time></trkpt><trkpt lat="44.6625454" lon="8.4564388"><ele>214.0</ele><time>2026-04-04T11:41:10.95Z</time></trkpt><trkpt lat="44.6625831" lon="8.4565351"><ele>214.0</ele><time>2026-04-04T11:41:11.951Z</time></trkpt><trkpt lat="44.6626145" lon="8.4566461"><ele>214.0</ele><time>2026-04-04T11:41:12.95Z</time></trkpt><trkpt lat="44.6626347" lon="8.4567689"><ele>213.99999999999997</ele><time>2026-04-04T11:41:13.95Z</time></trkpt><trkpt lat="44.6626398" lon="8.4568927"><ele>214.0</ele><time>2026-04-04T11:41:14.951Z</time></trkpt><trkpt lat="44.6626378" lon="8.4570334"><ele>213.0</ele><time>2026-04-04T11:41:15.951Z</time></trkpt><trkpt lat="44.6626232" lon="8.4571761"><ele>211.99999999999997</ele><time>2026-04-04T11:41:16.951Z</time></trkpt><trkpt lat="44.6626086" lon="8.4573267"><ele>211.0</ele><time>2026-04-04T11:41:17.951Z</time></trkpt><trkpt lat="44.6625942" lon="8.4574817"><ele>210.0</ele><time>2026-04-04T11:41:18.95Z</time></trkpt><trkpt lat="44.6625831" lon="8.457634"><ele>209.0</ele><time>2026-04-04T11:41:19.951Z</time></trkpt><trkpt lat="44.6625823" lon="8.4577813"><ele>209.0</ele><time>2026-04-04T11:41:20.95Z</time></trkpt><trkpt lat="44.6625854" lon="8.4579172"><ele>209.0</ele><time>2026-04-04T11:41:21.951Z</time></trkpt><trkpt lat="44.6625985" lon="8.4580462"><ele>209.0</ele><time>2026-04-04T11:41:22.951Z</time></trkpt><trkpt lat="44.662629" lon="8.4581742"><ele>209.0</ele><time>2026-04-04T11:41:23.95Z</time></trkpt><trkpt lat="44.66267" lon="8.4583016"><ele>209.0</ele><time>2026-04-04T11:41:24.95Z</time></trkpt><trkpt lat="44.6627154" lon="8.4584291"><ele>209.25</ele><time>2026-04-04T11:41:25.951Z</time></trkpt><trkpt lat="44.662756" lon="8.4585716"><ele>209.5</ele><time>2026-04-04T11:41:26.951Z</time></trkpt><trkpt lat="44.6627868" lon="8.4587289"><ele>209.75</ele><time>2026-04-04T11:41:27.951Z</time></trkpt><trkpt lat="44.6628056" lon="8.4588911"><ele>210.0</ele><time>2026-04-04T11:41:28.951Z</time></trkpt><trkpt lat="44.6628131" lon="8.4590471"><ele>205.6</ele><time>2026-04-04T11:41:29.951Z</time></trkpt><trkpt lat="44.6628147" lon="8.4592002"><ele>201.2</ele><time>2026-04-04T11:41:30.951Z</time></trkpt><trkpt lat="44.662819" lon="8.4593502"><ele>196.8</ele><time>2026-04-04T11:41:31.951Z</time></trkpt><trkpt lat="44.6628245" lon="8.4595014"><ele>192.4</ele><time>2026-04-04T11:41:32.95Z</time></trkpt><trkpt lat="44.662833" lon="8.4596463"><ele>188.0</ele><time>2026-04-04T11:41:33.951Z</time></trkpt><trkpt lat="44.6628413" lon="8.4597824"><ele>187.66666666666666</ele><time>2026-04-04T11:41:34.95Z</time></trkpt><trkpt lat="44.6628493" lon="8.4598984"><ele>187.33333333333331</ele><time>2026-04-04T11:41:35.95Z</time></trkpt><trkpt lat="44.6628478" lon="8.460007"><ele>187.0</ele><time>2026-04-04T11:41:36.951Z</time></trkpt><trkpt lat="44.6628382" lon="8.4601081"><ele>186.66666666666666</ele><time>2026-04-04T11:41:37.951Z</time></trkpt><trkpt lat="44.6628193" lon="8.4602052"><ele>186.33333333333334</ele><time>2026-04-04T11:41:38.951Z</time></trkpt><trkpt lat="44.6628112" lon="8.4603044"><ele>186.0</ele><time>2026-04-04T11:41:39.951Z</time></trkpt><trkpt lat="44.6627999" lon="8.4604111"><ele>185.5</ele><time>2026-04-04T11:41:40.951Z</time></trkpt><trkpt lat="44.6628007" lon="8.4605154"><ele>185.0</ele><time>2026-04-04T11:41:41.951Z</time></trkpt><trkpt lat="44.6628166" lon="8.4606191"><ele>184.5</ele><time>2026-04-04T11:41:42.951Z</time></trkpt><trkpt lat="44.6628655" lon="8.4607238"><ele>184.0</ele><time>2026-04-04T11:41:43.95Z</time></trkpt><trkpt lat="44.6629271" lon="8.4608243"><ele>183.5</ele><time>2026-04-04T11:41:44.951Z</time></trkpt><trkpt lat="44.6629908" lon="8.4609235"><ele>183.0</ele><time>2026-04-04T11:41:45.95Z</time></trkpt><trkpt lat="44.6630571" lon="8.4610116"><ele>183.0</ele><time>2026-04-04T11:41:46.951Z</time></trkpt><trkpt lat="44.6631246" lon="8.4610963"><ele>183.0</ele><time>2026-04-04T11:41:47.951Z</time></trkpt><trkpt lat="44.6631884" lon="8.4611739"><ele>183.0</ele><time>2026-04-04T11:41:48.951Z</time></trkpt><trkpt lat="44.663251" lon="8.461249"><ele>183.0</ele><time>2026-04-04T11:41:49.951Z</time></trkpt><trkpt lat="44.6633135" lon="8.4613276"><ele>183.0</ele><time>2026-04-04T11:41:50.95Z</time></trkpt><trkpt lat="44.6633684" lon="8.4614045"><ele>183.0</ele><time>2026-04-04T11:41:51.951Z</time></trkpt><trkpt lat="44.6634292" lon="8.461511"><ele>182.5</ele><time>2026-04-04T11:41:52.951Z</time></trkpt><trkpt lat="44.6634825" lon="8.4616464"><ele>182.0</ele><time>2026-04-04T11:41:53.951Z</time></trkpt><trkpt lat="44.6635218" lon="8.4617962"><ele>181.5</ele><time>2026-04-04T11:41:54.951Z</time></trkpt><trkpt lat="44.6635396" lon="8.4619485"><ele>181.0</ele><time>2026-04-04T11:41:55.951Z</time></trkpt><trkpt lat="44.6635415" lon="8.4621118"><ele>180.0</ele><time>2026-04-04T11:41:56.951Z</time></trkpt><trkpt lat="44.6635425" lon="8.4622758"><ele>179.0</ele><time>2026-04-04T11:41:57.951Z</time></trkpt><trkpt lat="44.6635491" lon="8.4624289"><ele>178.0</ele><time>2026-04-04T11:41:58.951Z</time></trkpt><trkpt lat="44.6635614" lon="8.4625697"><ele>177.0</ele><time>2026-04-04T11:41:59.95Z</time></trkpt><trkpt lat="44.6635674" lon="8.4627141"><ele>176.0</ele><time>2026-04-04T11:42:00.951Z</time></trkpt><trkpt lat="44.6635673" lon="8.4628587"><ele>174.75</ele><time>2026-04-04T11:42:01.951Z</time></trkpt><trkpt lat="44.6635557" lon="8.4630111"><ele>173.5</ele><time>2026-04-04T11:42:02.95Z</time></trkpt><trkpt lat="44.6635296" lon="8.4631584"><ele>172.25</ele><time>2026-04-04T11:42:03.951Z</time></trkpt><trkpt lat="44.6634993" lon="8.4633179"><ele>171.0</ele><time>2026-04-04T11:42:04.951Z</time></trkpt><trkpt lat="44.6634613" lon="8.4634834"><ele>171.0</ele><time>2026-04-04T11:42:05.951Z</time></trkpt><trkpt lat="44.6634234" lon="8.4636465"><ele>171.0</ele><time>2026-04-04T11:42:06.95Z</time></trkpt><trkpt lat="44.6633851" lon="8.4638053"><ele>171.0</ele><time>2026-04-04T11:42:07.95Z</time></trkpt><trkpt lat="44.6633522" lon="8.4639622"><ele>171.0</ele><time>2026-04-04T11:42:08.951Z</time></trkpt><trkpt lat="44.6633261" lon="8.4641064"><ele>170.16666666666666</ele><time>2026-04-04T11:42:09.951Z</time></trkpt><trkpt lat="44.6633127" lon="8.4642296"><ele>169.33333333333334</ele><time>2026-04-04T11:42:10.951Z</time></trkpt><trkpt lat="44.6633061" lon="8.4643331"><ele>168.5</ele><time>2026-04-04T11:42:11.951Z</time></trkpt><trkpt lat="44.6633077" lon="8.4644695"><ele>167.66666666666669</ele><time>2026-04-04T11:42:13.951Z</time></trkpt><trkpt lat="44.6633337" lon="8.4645576"><ele>166.83333333333334</ele><time>2026-04-04T11:42:19.95Z</time></trkpt><trkpt lat="44.6633522" lon="8.4646448"><ele>166.0</ele><time>2026-04-04T11:42:30.95Z</time></trkpt><trkpt lat="44.6633573" lon="8.4647614"><ele>165.5</ele><time>2026-04-04T11:42:31.951Z</time></trkpt><trkpt lat="44.6633596" lon="8.4649031"><ele>165.0</ele><time>2026-04-04T11:42:32.951Z</time></trkpt><trkpt lat="44.6633611" lon="8.465059"><ele>164.5</ele><time>2026-04-04T11:42:33.951Z</time></trkpt><trkpt lat="44.6633474" lon="8.4652315"><ele>164.0</ele><time>2026-04-04T11:42:34.951Z</time></trkpt><trkpt lat="44.6633383" lon="8.4654139"><ele>163.25</ele><time>2026-04-04T11:42:35.95Z</time></trkpt><trkpt lat="44.6633294" lon="8.4655971"><ele>162.5</ele><time>2026-04-04T11:42:36.951Z</time></trkpt><trkpt lat="44.6633198" lon="8.4657782"><ele>161.75</ele><time>2026-04-04T11:42:37.951Z</time></trkpt><trkpt lat="44.6633201" lon="8.4659575"><ele>161.0</ele><time>2026-04-04T11:42:38.951Z</time></trkpt><trkpt lat="44.6633084" lon="8.4661323"><ele>159.25</ele><time>2026-04-04T11:42:39.95Z</time></trkpt><trkpt lat="44.6633027" lon="8.4663067"><ele>157.5</ele><time>2026-04-04T11:42:40.95Z</time></trkpt><trkpt lat="44.6632947" lon="8.4664748"><ele>155.75</ele><time>2026-04-04T11:42:41.951Z</time></trkpt><trkpt lat="44.6632825" lon="8.4666386"><ele>154.0</ele><time>2026-04-04T11:42:42.95Z</time></trkpt><trkpt lat="44.6632755" lon="8.4667836"><ele>154.0</ele><time>2026-04-04T11:42:43.95Z</time></trkpt><trkpt lat="44.6632678" lon="8.4669261"><ele>154.0</ele><time>2026-04-04T11:42:44.95Z</time></trkpt><trkpt lat="44.6632573" lon="8.4670856"><ele>154.0</ele><time>2026-04-04T11:42:45.951Z</time></trkpt><trkpt lat="44.6632548" lon="8.4672422"><ele>154.0</ele><time>2026-04-04T11:42:46.95Z</time></trkpt><trkpt lat="44.6632518" lon="8.4673965"><ele>154.0</ele><time>2026-04-04T11:42:47.95Z</time></trkpt><trkpt lat="44.6632472" lon="8.4675488"><ele>154.6</ele><time>2026-04-04T11:42:48.951Z</time></trkpt><trkpt lat="44.6632423" lon="8.4677018"><ele>155.2</ele><time>2026-04-04T11:42:49.95Z</time></trkpt><trkpt lat="44.663245" lon="8.4678498"><ele>155.79999999999998</ele><time>2026-04-04T11:42:50.951Z</time></trkpt><trkpt lat="44.6632476" lon="8.4679948"><ele>156.4</ele><time>2026-04-04T11:42:51.951Z</time></trkpt><trkpt lat="44.6632526" lon="8.4681352"><ele>157.0</ele><time>2026-04-04T11:42:52.95Z</time></trkpt><trkpt lat="44.6632628" lon="8.4682739"><ele>157.0</ele><time>2026-04-04T11:42:53.951Z</time></trkpt><trkpt lat="44.6632886" lon="8.4684022"><ele>157.0</ele><time>2026-04-04T11:42:54.951Z</time></trkpt><trkpt lat="44.6633328" lon="8.4685148"><ele>157.0</ele><time>2026-04-04T11:42:55.95Z</time></trkpt><trkpt lat="44.663397" lon="8.4686023"><ele>157.0</ele><time>2026-04-04T11:42:56.95Z</time></trkpt><trkpt lat="44.6634774" lon="8.4686626"><ele>157.0</ele><time>2026-04-04T11:42:57.95Z</time></trkpt><trkpt lat="44.6635581" lon="8.4687077"><ele>156.5</ele><time>2026-04-04T11:42:58.951Z</time></trkpt><trkpt lat="44.6636208" lon="8.4687361"><ele>156.0</ele><time>2026-04-04T11:42:59.951Z</time></trkpt><trkpt lat="44.6637159" lon="8.4687778"><ele>155.5</ele><time>2026-04-04T11:43:01.95Z</time></trkpt><trkpt lat="44.6638197" lon="8.4687664"><ele>155.0</ele><time>2026-04-04T11:43:03.951Z</time></trkpt><trkpt lat="44.663893" lon="8.4687374"><ele>154.5</ele><time>2026-04-04T11:43:04.95Z</time></trkpt><trkpt lat="44.6639727" lon="8.4687016"><ele>154.0</ele><time>2026-04-04T11:43:05.951Z</time></trkpt><trkpt lat="44.6640638" lon="8.468676"><ele>154.0</ele><time>2026-04-04T11:43:06.951Z</time></trkpt><trkpt lat="44.664156" lon="8.4686588"><ele>154.0</ele><time>2026-04-04T11:43:07.951Z</time></trkpt><trkpt lat="44.6642573" lon="8.4686558"><ele>154.0</ele><time>2026-04-04T11:43:08.951Z</time></trkpt><trkpt lat="44.6643609" lon="8.4686502"><ele>154.0</ele><time>2026-04-04T11:43:09.95Z</time></trkpt><trkpt lat="44.6644709" lon="8.4686472"><ele>154.0</ele><time>2026-04-04T11:43:10.951Z</time></trkpt><trkpt lat="44.6645804" lon="8.4686395"><ele>154.0</ele><time>2026-04-04T11:43:11.951Z</time></trkpt><trkpt lat="44.6646765" lon="8.4686368"><ele>154.0</ele><time>2026-04-04T11:43:12.951Z</time></trkpt><trkpt lat="44.6647647" lon="8.4686354"><ele>154.0</ele><time>2026-04-04T11:43:13.951Z</time></trkpt><trkpt lat="44.6648447" lon="8.4686318"><ele>154.0</ele><time>2026-04-04T11:43:14.951Z</time></trkpt><trkpt lat="44.6649225" lon="8.4686278"><ele>154.0</ele><time>2026-04-04T11:43:15.951Z</time></trkpt><trkpt lat="44.6649981" lon="8.4686235"><ele>154.0</ele><time>2026-04-04T11:43:16.95Z</time></trkpt><trkpt lat="44.6650643" lon="8.4686194"><ele>154.0</ele><time>2026-04-04T11:43:17.951Z</time></trkpt><trkpt lat="44.6651654" lon="8.4686636"><ele>154.0</ele><time>2026-04-04T11:43:19.951Z</time></trkpt><trkpt lat="44.6652242" lon="8.4687839"><ele>154.0</ele><time>2026-04-04T11:43:21.951Z</time></trkpt><trkpt lat="44.6652907" lon="8.468837"><ele>154.0</ele><time>2026-04-04T11:43:23.951Z</time></trkpt><trkpt lat="44.6653714" lon="8.4687711"><ele>154.0</ele><time>2026-04-04T11:43:25.951Z</time></trkpt><trkpt lat="44.6654253" lon="8.4687186"><ele>154.0</ele><time>2026-04-04T11:43:26.951Z</time></trkpt><trkpt lat="44.6654878" lon="8.468679"><ele>153.16666666666669</ele><time>2026-04-04T11:43:27.951Z</time></trkpt><trkpt lat="44.6655541" lon="8.4686569"><ele>152.33333333333334</ele><time>2026-04-04T11:43:28.95Z</time></trkpt><trkpt lat="44.6656217" lon="8.4686448"><ele>151.5</ele><time>2026-04-04T11:43:29.951Z</time></trkpt><trkpt lat="44.6656871" lon="8.4686376"><ele>150.66666666666666</ele><time>2026-04-04T11:43:30.951Z</time></trkpt><trkpt lat="44.6658067" lon="8.4686404"><ele>149.83333333333331</ele><time>2026-04-04T11:43:32.951Z</time></trkpt><trkpt lat="44.6659308" lon="8.4686494"><ele>149.0</ele><time>2026-04-04T11:43:34.951Z</time></trkpt><trkpt lat="44.6659973" lon="8.4686525"><ele>149.0</ele><time>2026-04-04T11:43:35.951Z</time></trkpt><trkpt lat="44.6660642" lon="8.4686553"><ele>149.0</ele><time>2026-04-04T11:43:36.95Z</time></trkpt><trkpt lat="44.6661305" lon="8.4686599"><ele>149.0</ele><time>2026-04-04T11:43:37.951Z</time></trkpt><trkpt lat="44.6662017" lon="8.4686598"><ele>149.0</ele><time>2026-04-04T11:43:38.95Z</time></trkpt><trkpt lat="44.666274" lon="8.4686633"><ele>149.0</ele><time>2026-04-04T11:43:39.951Z</time></trkpt><trkpt lat="44.6663487" lon="8.4686632"><ele>149.0</ele><time>2026-04-04T11:43:40.95Z</time></trkpt><trkpt lat="44.6664223" lon="8.468662"><ele>149.0</ele><time>2026-04-04T11:43:41.95Z</time></trkpt><trkpt lat="44.6664971" lon="8.4686625"><ele>149.16666666666666</ele><time>2026-04-04T11:43:42.951Z</time></trkpt><trkpt lat="44.66657" lon="8.4686666"><ele>149.33333333333331</ele><time>2026-04-04T11:43:43.951Z</time></trkpt><trkpt lat="44.6666449" lon="8.4686746"><ele>149.5</ele><time>2026-04-04T11:43:44.951Z</time></trkpt><trkpt lat="44.6667224" lon="8.4686864"><ele>149.66666666666666</ele><time>2026-04-04T11:43:45.95Z</time></trkpt><trkpt lat="44.6667993" lon="8.4686888"><ele>149.83333333333334</ele><time>2026-04-04T11:43:46.951Z</time></trkpt><trkpt lat="44.6668785" lon="8.4686896"><ele>150.0</ele><time>2026-04-04T11:43:47.951Z</time></trkpt><trkpt lat="44.6669483" lon="8.4686995"><ele>150.0</ele><time>2026-04-04T11:43:48.951Z</time></trkpt><trkpt lat="44.6670136" lon="8.4687045"><ele>150.0</ele><time>2026-04-04T11:43:49.95Z</time></trkpt><trkpt lat="44.6671415" lon="8.4687102"><ele>150.0</ele><time>2026-04-04T11:43:51.95Z</time></trkpt><trkpt lat="44.6672588" lon="8.4687223"><ele>150.0</ele><time>2026-04-04T11:43:53.95Z</time></trkpt><trkpt lat="44.6673391" lon="8.4687543"><ele>150.0</ele><time>2026-04-04T11:43:55.951Z</time></trkpt><trkpt lat="44.6674305" lon="8.468768"><ele>150.0</ele><time>2026-04-04T11:43:57.95Z</time></trkpt><trkpt lat="44.6675328" lon="8.4687527"><ele>150.0</ele><time>2026-04-04T11:43:59.95Z</time></trkpt><trkpt lat="44.6676066" lon="8.4686612"><ele>150.0</ele><time>2026-04-04T11:44:01.95Z</time></trkpt><trkpt lat="44.6676276" lon="8.468573"><ele>150.0</ele><time>2026-04-04T11:44:02.949Z</time></trkpt><trkpt lat="44.6676466" lon="8.4684497"><ele>150.0</ele><time>2026-04-04T11:44:03.95Z</time></trkpt><trkpt lat="44.667667" lon="8.4683099"><ele>150.0</ele><time>2026-04-04T11:44:04.95Z</time></trkpt><trkpt lat="44.6676992" lon="8.4681714"><ele>150.0</ele><time>2026-04-04T11:44:05.95Z</time></trkpt><trkpt lat="44.6677351" lon="8.4680343"><ele>150.0</ele><time>2026-04-04T11:44:06.949Z</time></trkpt><trkpt lat="44.6677691" lon="8.4678865"><ele>150.0</ele><time>2026-04-04T11:44:07.949Z</time></trkpt><trkpt lat="44.6678003" lon="8.4677338"><ele>150.0</ele><time>2026-04-04T11:44:08.95Z</time></trkpt><trkpt lat="44.6678244" lon="8.4675814"><ele>149.75</ele><time>2026-04-04T11:44:09.949Z</time></trkpt><trkpt lat="44.6678517" lon="8.4674217"><ele>149.5</ele><time>2026-04-04T11:44:10.95Z</time></trkpt><trkpt lat="44.6678744" lon="8.4672538"><ele>149.25</ele><time>2026-04-04T11:44:11.95Z</time></trkpt><trkpt lat="44.6678905" lon="8.4670936"><ele>149.0</ele><time>2026-04-04T11:44:12.949Z</time></trkpt><trkpt lat="44.6678967" lon="8.4669405"><ele>149.0</ele><time>2026-04-04T11:44:13.95Z</time></trkpt><trkpt lat="44.6678909" lon="8.4668034"><ele>149.0</ele><time>2026-04-04T11:44:14.95Z</time></trkpt><trkpt lat="44.6678814" lon="8.466663"><ele>149.0</ele><time>2026-04-04T11:44:15.949Z</time></trkpt><trkpt lat="44.6678622" lon="8.4665105"><ele>149.0</ele><time>2026-04-04T11:44:16.95Z</time></trkpt><trkpt lat="44.6678432" lon="8.4663406"><ele>149.0</ele><time>2026-04-04T11:44:17.95Z</time></trkpt><trkpt lat="44.6678234" lon="8.4661573"><ele>149.0</ele><time>2026-04-04T11:44:18.949Z</time></trkpt><trkpt lat="44.667804" lon="8.46597"><ele>149.0</ele><time>2026-04-04T11:44:19.95Z</time></trkpt><trkpt lat="44.6677813" lon="8.4657776"><ele>149.0</ele><time>2026-04-04T11:44:20.95Z</time></trkpt><trkpt lat="44.6677582" lon="8.46558"><ele>149.0</ele><time>2026-04-04T11:44:21.95Z</time></trkpt><trkpt lat="44.6677339" lon="8.4653731"><ele>148.5</ele><time>2026-04-04T11:44:22.949Z</time></trkpt><trkpt lat="44.6677129" lon="8.4651719"><ele>148.0</ele><time>2026-04-04T11:44:23.95Z</time></trkpt><trkpt lat="44.6676981" lon="8.4649698"><ele>147.5</ele><time>2026-04-04T11:44:24.949Z</time></trkpt><trkpt lat="44.6676908" lon="8.4647469"><ele>147.0</ele><time>2026-04-04T11:44:25.95Z</time></trkpt><trkpt lat="44.6676802" lon="8.4645264"><ele>147.0</ele><time>2026-04-04T11:44:26.95Z</time></trkpt><trkpt lat="44.6676575" lon="8.4643148"><ele>147.0</ele><time>2026-04-04T11:44:27.95Z</time></trkpt><trkpt lat="44.6676325" lon="8.4641023"><ele>147.0</ele><time>2026-04-04T11:44:28.949Z</time></trkpt><trkpt lat="44.6676122" lon="8.4638838"><ele>146.66666666666666</ele><time>2026-04-04T11:44:29.95Z</time></trkpt><trkpt lat="44.6675938" lon="8.4636588"><ele>146.33333333333331</ele><time>2026-04-04T11:44:30.95Z</time></trkpt><trkpt lat="44.6675722" lon="8.4634387"><ele>146.0</ele><time>2026-04-04T11:44:31.95Z</time></trkpt><trkpt lat="44.667548" lon="8.46322"><ele>146.0</ele><time>2026-04-04T11:44:32.95Z</time></trkpt><trkpt lat="44.6675238" lon="8.4629949"><ele>146.0</ele><time>2026-04-04T11:44:33.95Z</time></trkpt><trkpt lat="44.6675035" lon="8.462766"><ele>146.0</ele><time>2026-04-04T11:44:34.949Z</time></trkpt><trkpt lat="44.6674849" lon="8.4625345"><ele>146.33333333333331</ele><time>2026-04-04T11:44:35.95Z</time></trkpt><trkpt lat="44.6674653" lon="8.4623026"><ele>146.66666666666666</ele><time>2026-04-04T11:44:36.95Z</time></trkpt><trkpt lat="44.6674454" lon="8.4620693"><ele>147.0</ele><time>2026-04-04T11:44:37.95Z</time></trkpt><trkpt lat="44.6674244" lon="8.4618357"><ele>147.66666666666666</ele><time>2026-04-04T11:44:38.949Z</time></trkpt><trkpt lat="44.6674035" lon="8.4616008"><ele>148.33333333333331</ele><time>2026-04-04T11:44:39.95Z</time></trkpt><trkpt lat="44.6673801" lon="8.4613705"><ele>149.0</ele><time>2026-04-04T11:44:40.95Z</time></trkpt><trkpt lat="44.667361" lon="8.4611401"><ele>149.66666666666666</ele><time>2026-04-04T11:44:41.95Z</time></trkpt><trkpt lat="44.6673482" lon="8.4609086"><ele>150.33333333333334</ele><time>2026-04-04T11:44:42.95Z</time></trkpt><trkpt lat="44.6673409" lon="8.4606771"><ele>151.0</ele><time>2026-04-04T11:44:43.949Z</time></trkpt><trkpt lat="44.6673386" lon="8.4604504"><ele>151.0</ele><time>2026-04-04T11:44:44.95Z</time></trkpt><trkpt lat="44.6673426" lon="8.4602214"><ele>151.0</ele><time>2026-04-04T11:44:45.95Z</time></trkpt><trkpt lat="44.6673485" lon="8.4599918"><ele>151.0</ele><time>2026-04-04T11:44:46.95Z</time></trkpt><trkpt lat="44.6673597" lon="8.4597643"><ele>150.66666666666669</ele><time>2026-04-04T11:44:47.95Z</time></trkpt><trkpt lat="44.6673748" lon="8.4595386"><ele>150.33333333333334</ele><time>2026-04-04T11:44:48.95Z</time></trkpt><trkpt lat="44.6673923" lon="8.4593123"><ele>150.0</ele><time>2026-04-04T11:44:49.95Z</time></trkpt><trkpt lat="44.6674122" lon="8.4590863"><ele>150.0</ele><time>2026-04-04T11:44:50.95Z</time></trkpt><trkpt lat="44.6674354" lon="8.4588583"><ele>150.0</ele><time>2026-04-04T11:44:51.949Z</time></trkpt><trkpt lat="44.6674608" lon="8.458633"><ele>150.0</ele><time>2026-04-04T11:44:52.949Z</time></trkpt><trkpt lat="44.6674912" lon="8.4584193"><ele>150.0</ele><time>2026-04-04T11:44:53.95Z</time></trkpt><trkpt lat="44.6675264" lon="8.4582283"><ele>150.0</ele><time>2026-04-04T11:44:54.95Z</time></trkpt><trkpt lat="44.667562" lon="8.4580502"><ele>150.0</ele><time>2026-04-04T11:44:55.949Z</time></trkpt><trkpt lat="44.6675965" lon="8.4578791"><ele>150.0</ele><time>2026-04-04T11:44:56.95Z</time></trkpt><trkpt lat="44.6676293" lon="8.4577172"><ele>150.0</ele><time>2026-04-04T11:44:57.95Z</time></trkpt><trkpt lat="44.6676656" lon="8.457558"><ele>150.0</ele><time>2026-04-04T11:44:58.949Z</time></trkpt><trkpt lat="44.6677124" lon="8.4574021"><ele>150.0</ele><time>2026-04-04T11:44:59.949Z</time></trkpt><trkpt lat="44.6677609" lon="8.4572564"><ele>150.0</ele><time>2026-04-04T11:45:00.95Z</time></trkpt><trkpt lat="44.6678121" lon="8.4571193"><ele>150.4</ele><time>2026-04-04T11:45:01.95Z</time></trkpt><trkpt lat="44.6678554" lon="8.456992"><ele>150.8</ele><time>2026-04-04T11:45:02.95Z</time></trkpt><trkpt lat="44.6678955" lon="8.4568714"><ele>151.2</ele><time>2026-04-04T11:45:03.949Z</time></trkpt><trkpt lat="44.6679451" lon="8.4567613"><ele>151.6</ele><time>2026-04-04T11:45:04.949Z</time></trkpt><trkpt lat="44.6680046" lon="8.4566644"><ele>152.0</ele><time>2026-04-04T11:45:05.95Z</time></trkpt><trkpt lat="44.6680706" lon="8.4565675"><ele>152.0</ele><time>2026-04-04T11:45:06.95Z</time></trkpt><trkpt lat="44.6681324" lon="8.4564706"><ele>152.0</ele><time>2026-04-04T11:45:07.949Z</time></trkpt><trkpt lat="44.6681719" lon="8.4563648"><ele>152.0</ele><time>2026-04-04T11:45:08.95Z</time></trkpt><trkpt lat="44.6681909" lon="8.4562376"><ele>152.0</ele><time>2026-04-04T11:45:09.95Z</time></trkpt><trkpt lat="44.6682045" lon="8.4561088"><ele>152.0</ele><time>2026-04-04T11:45:10.949Z</time></trkpt><trkpt lat="44.6682238" lon="8.4559766"><ele>152.0</ele><time>2026-04-04T11:45:11.95Z</time></trkpt><trkpt lat="44.6682486" lon="8.4558466"><ele>152.0</ele><time>2026-04-04T11:45:12.95Z</time></trkpt><trkpt lat="44.6682903" lon="8.4557084"><ele>152.0</ele><time>2026-04-04T11:45:13.949Z</time></trkpt><trkpt lat="44.6683409" lon="8.4555602"><ele>152.0</ele><time>2026-04-04T11:45:14.949Z</time></trkpt><trkpt lat="44.6683914" lon="8.4554247"><ele>152.0</ele><time>2026-04-04T11:45:15.95Z</time></trkpt><trkpt lat="44.6684427" lon="8.4552903"><ele>152.4</ele><time>2026-04-04T11:45:16.95Z</time></trkpt><trkpt lat="44.6684952" lon="8.4551543"><ele>152.79999999999998</ele><time>2026-04-04T11:45:17.95Z</time></trkpt><trkpt lat="44.6685422" lon="8.4550249"><ele>153.2</ele><time>2026-04-04T11:45:18.95Z</time></trkpt><trkpt lat="44.6685886" lon="8.4549007"><ele>153.6</ele><time>2026-04-04T11:45:19.95Z</time></trkpt><trkpt lat="44.6686332" lon="8.4547782"><ele>154.0</ele><time>2026-04-04T11:45:20.95Z</time></trkpt><trkpt lat="44.6686711" lon="8.4546606"><ele>153.83333333333334</ele><time>2026-04-04T11:45:21.949Z</time></trkpt><trkpt lat="44.6687146" lon="8.4545527"><ele>153.66666666666669</ele><time>2026-04-04T11:45:22.95Z</time></trkpt><trkpt lat="44.6687569" lon="8.4544578"><ele>153.5</ele><time>2026-04-04T11:45:23.949Z</time></trkpt><trkpt lat="44.6688041" lon="8.4543662"><ele>153.33333333333334</ele><time>2026-04-04T11:45:24.95Z</time></trkpt><trkpt lat="44.6688471" lon="8.4542719"><ele>153.16666666666666</ele><time>2026-04-04T11:45:25.95Z</time></trkpt><trkpt lat="44.6688836" lon="8.4541832"><ele>153.0</ele><time>2026-04-04T11:45:26.95Z</time></trkpt><trkpt lat="44.668916" lon="8.4540971"><ele>153.0</ele><time>2026-04-04T11:45:27.95Z</time></trkpt><trkpt lat="44.6689465" lon="8.4540088"><ele>153.0</ele><time>2026-04-04T11:45:28.95Z</time></trkpt><trkpt lat="44.6689765" lon="8.4539245"><ele>153.0</ele><time>2026-04-04T11:45:29.949Z</time></trkpt><trkpt lat="44.6690373" lon="8.4537735"><ele>153.0</ele><time>2026-04-04T11:45:31.95Z</time></trkpt><trkpt lat="44.6690975" lon="8.4536385"><ele>153.0</ele><time>2026-04-04T11:45:33.95Z</time></trkpt><trkpt lat="44.6691653" lon="8.4535339"><ele>153.16666666666666</ele><time>2026-04-04T11:45:35.95Z</time></trkpt><trkpt lat="44.6692546" lon="8.4534421"><ele>153.33333333333334</ele><time>2026-04-04T11:45:37.95Z</time></trkpt><trkpt lat="44.6693063" lon="8.4533835"><ele>153.5</ele><time>2026-04-04T11:45:38.95Z</time></trkpt><trkpt lat="44.6693532" lon="8.4533041"><ele>153.66666666666669</ele><time>2026-04-04T11:45:39.95Z</time></trkpt><trkpt lat="44.6693791" lon="8.4531981"><ele>153.83333333333334</ele><time>2026-04-04T11:45:40.949Z</time></trkpt><trkpt lat="44.6693955" lon="8.4530698"><ele>154.0</ele><time>2026-04-04T11:45:41.95Z</time></trkpt><trkpt lat="44.6694127" lon="8.4529334"><ele>154.5</ele><time>2026-04-04T11:45:42.949Z</time></trkpt><trkpt lat="44.6694523" lon="8.4527818"><ele>155.0</ele><time>2026-04-04T11:45:43.95Z</time></trkpt><trkpt lat="44.6695092" lon="8.4526317"><ele>155.5</ele><time>2026-04-04T11:45:44.95Z</time></trkpt><trkpt lat="44.6695765" lon="8.4524708"><ele>156.0</ele><time>2026-04-04T11:45:45.949Z</time></trkpt><trkpt lat="44.6696501" lon="8.4522981"><ele>155.75</ele><time>2026-04-04T11:45:46.95Z</time></trkpt><trkpt lat="44.6697237" lon="8.4521212"><ele>155.5</ele><time>2026-04-04T11:45:47.95Z</time></trkpt><trkpt lat="44.6697945" lon="8.4519413"><ele>155.25</ele><time>2026-04-04T11:45:48.95Z</time></trkpt><trkpt lat="44.6698663" lon="8.4517546"><ele>155.0</ele><time>2026-04-04T11:45:49.949Z</time></trkpt><trkpt lat="44.6699372" lon="8.4515647"><ele>155.0</ele><time>2026-04-04T11:45:50.949Z</time></trkpt><trkpt lat="44.6700128" lon="8.4513728"><ele>155.0</ele><time>2026-04-04T11:45:51.95Z</time></trkpt><trkpt lat="44.6700872" lon="8.451183"><ele>155.0</ele><time>2026-04-04T11:45:52.95Z</time></trkpt><trkpt lat="44.6701662" lon="8.4509826"><ele>155.0</ele><time>2026-04-04T11:45:53.95Z</time></trkpt><trkpt lat="44.6702426" lon="8.4507799"><ele>155.0</ele><time>2026-04-04T11:45:54.95Z</time></trkpt><trkpt lat="44.6703218" lon="8.4505805"><ele>155.0</ele><time>2026-04-04T11:45:55.95Z</time></trkpt><trkpt lat="44.6704013" lon="8.4503776"><ele>155.33333333333331</ele><time>2026-04-04T11:45:56.95Z</time></trkpt><trkpt lat="44.6704862" lon="8.4501721"><ele>155.66666666666666</ele><time>2026-04-04T11:45:57.95Z</time></trkpt><trkpt lat="44.6705791" lon="8.4499697"><ele>156.0</ele><time>2026-04-04T11:45:58.949Z</time></trkpt><trkpt lat="44.670669" lon="8.4497643"><ele>156.33333333333334</ele><time>2026-04-04T11:45:59.95Z</time></trkpt><trkpt lat="44.6707554" lon="8.4495586"><ele>156.66666666666669</ele><time>2026-04-04T11:46:00.95Z</time></trkpt><trkpt lat="44.6708384" lon="8.4493513"><ele>157.0</ele><time>2026-04-04T11:46:01.95Z</time></trkpt><trkpt lat="44.670923" lon="8.44914"><ele>157.0</ele><time>2026-04-04T11:46:02.95Z</time></trkpt><trkpt lat="44.6710055" lon="8.4489312"><ele>157.0</ele><time>2026-04-04T11:46:03.949Z</time></trkpt><trkpt lat="44.6710896" lon="8.44872"><ele>157.0</ele><time>2026-04-04T11:46:04.95Z</time></trkpt><trkpt lat="44.6711726" lon="8.4485098"><ele>157.0</ele><time>2026-04-04T11:46:05.95Z</time></trkpt><trkpt lat="44.6712621" lon="8.448296"><ele>157.0</ele><time>2026-04-04T11:46:06.949Z</time></trkpt><trkpt lat="44.671352" lon="8.4480782"><ele>157.0</ele><time>2026-04-04T11:46:07.95Z</time></trkpt><trkpt lat="44.6714388" lon="8.4478493"><ele>157.0</ele><time>2026-04-04T11:46:08.95Z</time></trkpt><trkpt lat="44.6715232" lon="8.4476186"><ele>157.0</ele><time>2026-04-04T11:46:09.949Z</time></trkpt><trkpt lat="44.6716191" lon="8.4473901"><ele>157.0</ele><time>2026-04-04T11:46:10.95Z</time></trkpt><trkpt lat="44.6717174" lon="8.4471549"><ele>157.0</ele><time>2026-04-04T11:46:11.949Z</time></trkpt><trkpt lat="44.6718111" lon="8.4469181"><ele>157.0</ele><time>2026-04-04T11:46:12.95Z</time></trkpt><trkpt lat="44.6719083" lon="8.4466809"><ele>157.0</ele><time>2026-04-04T11:46:13.95Z</time></trkpt><trkpt lat="44.6720067" lon="8.4464438"><ele>159.33333333333334</ele><time>2026-04-04T11:46:14.95Z</time></trkpt><trkpt lat="44.6721028" lon="8.4462079"><ele>161.66666666666666</ele><time>2026-04-04T11:46:15.949Z</time></trkpt><trkpt lat="44.6721994" lon="8.4459684"><ele>164.0</ele><time>2026-04-04T11:46:16.949Z</time></trkpt><trkpt lat="44.6723031" lon="8.4457218"><ele>164.0</ele><time>2026-04-04T11:46:17.949Z</time></trkpt><trkpt lat="44.6724004" lon="8.4454749"><ele>164.0</ele><time>2026-04-04T11:46:18.95Z</time></trkpt><trkpt lat="44.6725" lon="8.4452377"><ele>164.0</ele><time>2026-04-04T11:46:19.95Z</time></trkpt><trkpt lat="44.6726015" lon="8.4449948"><ele>164.66666666666666</ele><time>2026-04-04T11:46:20.949Z</time></trkpt><trkpt lat="44.6727048" lon="8.4447463"><ele>165.33333333333334</ele><time>2026-04-04T11:46:21.949Z</time></trkpt><trkpt lat="44.6728069" lon="8.4444911"><ele>166.0</ele><time>2026-04-04T11:46:22.95Z</time></trkpt><trkpt lat="44.6729061" lon="8.4442427"><ele>164.66666666666669</ele><time>2026-04-04T11:46:23.949Z</time></trkpt><trkpt lat="44.6730019" lon="8.4439939"><ele>163.33333333333334</ele><time>2026-04-04T11:46:24.95Z</time></trkpt><trkpt lat="44.6730984" lon="8.4437429"><ele>162.0</ele><time>2026-04-04T11:46:25.95Z</time></trkpt><trkpt lat="44.6731967" lon="8.4434952"><ele>162.0</ele><time>2026-04-04T11:46:26.95Z</time></trkpt><trkpt lat="44.6732988" lon="8.4432445"><ele>162.0</ele><time>2026-04-04T11:46:27.95Z</time></trkpt><trkpt lat="44.6734019" lon="8.4429943"><ele>162.0</ele><time>2026-04-04T11:46:28.95Z</time></trkpt><trkpt lat="44.6735028" lon="8.4427477"><ele>162.0</ele><time>2026-04-04T11:46:29.95Z</time></trkpt><trkpt lat="44.6736068" lon="8.4424972"><ele>162.0</ele><time>2026-04-04T11:46:30.95Z</time></trkpt><trkpt lat="44.6737114" lon="8.442252"><ele>162.0</ele><time>2026-04-04T11:46:31.95Z</time></trkpt><trkpt lat="44.6738138" lon="8.4420037"><ele>162.33333333333334</ele><time>2026-04-04T11:46:32.95Z</time></trkpt><trkpt lat="44.6739141" lon="8.4417536"><ele>162.66666666666669</ele><time>2026-04-04T11:46:33.95Z</time></trkpt><trkpt lat="44.6740141" lon="8.4415098"><ele>163.0</ele><time>2026-04-04T11:46:34.95Z</time></trkpt><trkpt lat="44.6741075" lon="8.4412808"><ele>163.0</ele><time>2026-04-04T11:46:35.95Z</time></trkpt><trkpt lat="44.674194" lon="8.4410708"><ele>163.0</ele><time>2026-04-04T11:46:36.949Z</time></trkpt><trkpt lat="44.6742731" lon="8.4408743"><ele>163.0</ele><time>2026-04-04T11:46:37.949Z</time></trkpt><trkpt lat="44.6743541" lon="8.4406745"><ele>163.0</ele><time>2026-04-04T11:46:38.949Z</time></trkpt><trkpt lat="44.6744361" lon="8.4404753"><ele>163.0</ele><time>2026-04-04T11:46:39.95Z</time></trkpt><trkpt lat="44.6745187" lon="8.4402694"><ele>163.0</ele><time>2026-04-04T11:46:40.949Z</time></trkpt><trkpt lat="44.6745895" lon="8.440055"><ele>163.33333333333334</ele><time>2026-04-04T11:46:41.95Z</time></trkpt><trkpt lat="44.6746579" lon="8.439832"><ele>163.66666666666666</ele><time>2026-04-04T11:46:42.95Z</time></trkpt><trkpt lat="44.6747221" lon="8.4396075"><ele>164.0</ele><time>2026-04-04T11:46:43.949Z</time></trkpt><trkpt lat="44.6747797" lon="8.439383"><ele>164.0</ele><time>2026-04-04T11:46:44.949Z</time></trkpt><trkpt lat="44.6748323" lon="8.4391591"><ele>164.0</ele><time>2026-04-04T11:46:45.949Z</time></trkpt><trkpt lat="44.6748909" lon="8.438928"><ele>164.0</ele><time>2026-04-04T11:46:46.95Z</time></trkpt><trkpt lat="44.6749501" lon="8.4387"><ele>163.0</ele><time>2026-04-04T11:46:47.949Z</time></trkpt><trkpt lat="44.6750089" lon="8.4384643"><ele>162.0</ele><time>2026-04-04T11:46:48.949Z</time></trkpt><trkpt lat="44.6750696" lon="8.4382302"><ele>161.0</ele><time>2026-04-04T11:46:49.949Z</time></trkpt><trkpt lat="44.6751256" lon="8.4379998"><ele>158.66666666666666</ele><time>2026-04-04T11:46:50.95Z</time></trkpt><trkpt lat="44.6751763" lon="8.4377752"><ele>156.33333333333334</ele><time>2026-04-04T11:46:51.95Z</time></trkpt><trkpt lat="44.6752345" lon="8.4375431"><ele>154.0</ele><time>2026-04-04T11:46:52.95Z</time></trkpt><trkpt lat="44.6752851" lon="8.4373128"><ele>159.33333333333334</ele><time>2026-04-04T11:46:53.949Z</time></trkpt><trkpt lat="44.6753313" lon="8.4370905"><ele>164.66666666666666</ele><time>2026-04-04T11:46:54.949Z</time></trkpt><trkpt lat="44.6753842" lon="8.4368765"><ele>170.0</ele><time>2026-04-04T11:46:55.949Z</time></trkpt><trkpt lat="44.6754368" lon="8.4366532"><ele>170.0</ele><time>2026-04-04T11:46:56.95Z</time></trkpt><trkpt lat="44.6754953" lon="8.4364306"><ele>170.0</ele><time>2026-04-04T11:46:57.95Z</time></trkpt><trkpt lat="44.6755567" lon="8.4362096"><ele>170.0</ele><time>2026-04-04T11:46:58.95Z</time></trkpt><trkpt lat="44.6756172" lon="8.4359892"><ele>168.66666666666666</ele><time>2026-04-04T11:46:59.949Z</time></trkpt><trkpt lat="44.6756751" lon="8.4357693"><ele>167.33333333333334</ele><time>2026-04-04T11:47:00.95Z</time></trkpt><trkpt lat="44.675727" lon="8.4355446"><ele>166.0</ele><time>2026-04-04T11:47:01.95Z</time></trkpt><trkpt lat="44.6757739" lon="8.4353166"><ele>164.66666666666669</ele><time>2026-04-04T11:47:02.95Z</time></trkpt><trkpt lat="44.6758211" lon="8.4350896"><ele>163.33333333333334</ele><time>2026-04-04T11:47:03.95Z</time></trkpt><trkpt lat="44.6758563" lon="8.43485"><ele>162.0</ele><time>2026-04-04T11:47:04.949Z</time></trkpt><trkpt lat="44.6758845" lon="8.4346099"><ele>161.66666666666666</ele><time>2026-04-04T11:47:05.949Z</time></trkpt><trkpt lat="44.6759008" lon="8.4343669"><ele>161.33333333333331</ele><time>2026-04-04T11:47:06.949Z</time></trkpt><trkpt lat="44.6758988" lon="8.4341247"><ele>161.0</ele><time>2026-04-04T11:47:07.949Z</time></trkpt><trkpt lat="44.6758878" lon="8.4338777"><ele>161.0</ele><time>2026-04-04T11:47:08.948Z</time></trkpt><trkpt lat="44.6758709" lon="8.4336281"><ele>161.0</ele><time>2026-04-04T11:47:09.949Z</time></trkpt><trkpt lat="44.6758505" lon="8.4333805"><ele>161.0</ele><time>2026-04-04T11:47:10.949Z</time></trkpt><trkpt lat="44.6758291" lon="8.4331355"><ele>162.33333333333331</ele><time>2026-04-04T11:47:11.949Z</time></trkpt><trkpt lat="44.6758001" lon="8.4328963"><ele>163.66666666666666</ele><time>2026-04-04T11:47:12.949Z</time></trkpt><trkpt lat="44.6757549" lon="8.4326614"><ele>165.0</ele><time>2026-04-04T11:47:13.949Z</time></trkpt><trkpt lat="44.6756989" lon="8.4324388"><ele>165.0</ele><time>2026-04-04T11:47:14.948Z</time></trkpt><trkpt lat="44.6756452" lon="8.4322299"><ele>165.0</ele><time>2026-04-04T11:47:15.949Z</time></trkpt><trkpt lat="44.6755866" lon="8.4320295"><ele>165.0</ele><time>2026-04-04T11:47:16.949Z</time></trkpt><trkpt lat="44.6755241" lon="8.4318368"><ele>164.25</ele><time>2026-04-04T11:47:17.949Z</time></trkpt><trkpt lat="44.6754561" lon="8.4316484"><ele>163.5</ele><time>2026-04-04T11:47:18.949Z</time></trkpt><trkpt lat="44.6753795" lon="8.4314733"><ele>162.75</ele><time>2026-04-04T11:47:19.948Z</time></trkpt><trkpt lat="44.6752995" lon="8.4312973"><ele>162.0</ele><time>2026-04-04T11:47:20.949Z</time></trkpt><trkpt lat="44.6752135" lon="8.4311261"><ele>162.0</ele><time>2026-04-04T11:47:21.948Z</time></trkpt><trkpt lat="44.6751269" lon="8.4309563"><ele>162.0</ele><time>2026-04-04T11:47:22.949Z</time></trkpt><trkpt lat="44.675035" lon="8.4307885"><ele>162.0</ele><time>2026-04-04T11:47:23.949Z</time></trkpt><trkpt lat="44.6749354" lon="8.4306249"><ele>163.33333333333334</ele><time>2026-04-04T11:47:24.949Z</time></trkpt><trkpt lat="44.674829" lon="8.4304727"><ele>164.66666666666669</ele><time>2026-04-04T11:47:25.949Z</time></trkpt><trkpt lat="44.6747168" lon="8.4303287"><ele>166.0</ele><time>2026-04-04T11:47:26.948Z</time></trkpt><trkpt lat="44.6746021" lon="8.4301828"><ele>166.0</ele><time>2026-04-04T11:47:27.949Z</time></trkpt><trkpt lat="44.6744821" lon="8.430033"><ele>166.0</ele><time>2026-04-04T11:47:28.948Z</time></trkpt><trkpt lat="44.6743536" lon="8.4298881"><ele>166.0</ele><time>2026-04-04T11:47:29.949Z</time></trkpt><trkpt lat="44.6742218" lon="8.4297431"><ele>171.0</ele><time>2026-04-04T11:47:30.949Z</time></trkpt><trkpt lat="44.6740931" lon="8.429612"><ele>176.0</ele><time>2026-04-04T11:47:31.948Z</time></trkpt><trkpt lat="44.6739682" lon="8.4294902"><ele>181.0</ele><time>2026-04-04T11:47:32.949Z</time></trkpt><trkpt lat="44.67385" lon="8.4293847"><ele>181.0</ele><time>2026-04-04T11:47:33.949Z</time></trkpt><trkpt lat="44.673737" lon="8.4292806"><ele>181.0</ele><time>2026-04-04T11:47:34.949Z</time></trkpt><trkpt lat="44.6736261" lon="8.4291829"><ele>181.0</ele><time>2026-04-04T11:47:35.949Z</time></trkpt><trkpt lat="44.6735206" lon="8.4290949"><ele>181.0</ele><time>2026-04-04T11:47:36.949Z</time></trkpt><trkpt lat="44.673417" lon="8.4290084"><ele>180.25</ele><time>2026-04-04T11:47:37.949Z</time></trkpt><trkpt lat="44.6733182" lon="8.4289239"><ele>179.5</ele><time>2026-04-04T11:47:38.948Z</time></trkpt><trkpt lat="44.6732187" lon="8.4288428"><ele>178.75</ele><time>2026-04-04T11:47:39.948Z</time></trkpt><trkpt lat="44.6731209" lon="8.4287576"><ele>178.0</ele><time>2026-04-04T11:47:40.949Z</time></trkpt><trkpt lat="44.6730171" lon="8.4286747"><ele>178.0</ele><time>2026-04-04T11:47:41.949Z</time></trkpt><trkpt lat="44.6729082" lon="8.4285896"><ele>178.0</ele><time>2026-04-04T11:47:42.949Z</time></trkpt><trkpt lat="44.6727943" lon="8.4285026"><ele>178.0</ele><time>2026-04-04T11:47:43.948Z</time></trkpt><trkpt lat="44.6726792" lon="8.4284072"><ele>178.0</ele><time>2026-04-04T11:47:44.949Z</time></trkpt><trkpt lat="44.6725612" lon="8.4283126"><ele>175.25</ele><time>2026-04-04T11:47:45.949Z</time></trkpt><trkpt lat="44.6724399" lon="8.4282255"><ele>172.5</ele><time>2026-04-04T11:47:46.949Z</time></trkpt><trkpt lat="44.6723199" lon="8.4281376"><ele>169.75</ele><time>2026-04-04T11:47:47.949Z</time></trkpt><trkpt lat="44.6721932" lon="8.428046"><ele>167.0</ele><time>2026-04-04T11:47:48.949Z</time></trkpt><trkpt lat="44.6720631" lon="8.4279508"><ele>166.66666666666666</ele><time>2026-04-04T11:47:49.948Z</time></trkpt><trkpt lat="44.6719262" lon="8.4278539"><ele>166.33333333333334</ele><time>2026-04-04T11:47:50.949Z</time></trkpt><trkpt lat="44.671781" lon="8.4277512"><ele>166.0</ele><time>2026-04-04T11:47:51.949Z</time></trkpt><trkpt lat="44.6716339" lon="8.4276418"><ele>166.0</ele><time>2026-04-04T11:47:52.949Z</time></trkpt><trkpt lat="44.6714805" lon="8.4275301"><ele>166.0</ele><time>2026-04-04T11:47:53.949Z</time></trkpt><trkpt lat="44.67132" lon="8.4274226"><ele>166.0</ele><time>2026-04-04T11:47:54.948Z</time></trkpt><trkpt lat="44.6711682" lon="8.4273157"><ele>166.0</ele><time>2026-04-04T11:47:55.949Z</time></trkpt><trkpt lat="44.671018" lon="8.4272106"><ele>166.0</ele><time>2026-04-04T11:47:56.948Z</time></trkpt><trkpt lat="44.6708688" lon="8.4271038"><ele>166.0</ele><time>2026-04-04T11:47:57.949Z</time></trkpt><trkpt lat="44.670715" lon="8.4269898"><ele>166.0</ele><time>2026-04-04T11:47:58.949Z</time></trkpt><trkpt lat="44.6705605" lon="8.4268735"><ele>166.0</ele><time>2026-04-04T11:47:59.949Z</time></trkpt><trkpt lat="44.6704142" lon="8.426767"><ele>166.0</ele><time>2026-04-04T11:48:00.949Z</time></trkpt><trkpt lat="44.6702675" lon="8.4266596"><ele>165.66666666666669</ele><time>2026-04-04T11:48:01.949Z</time></trkpt><trkpt lat="44.6701148" lon="8.4265529"><ele>165.33333333333334</ele><time>2026-04-04T11:48:02.949Z</time></trkpt><trkpt lat="44.6699477" lon="8.4264374"><ele>165.0</ele><time>2026-04-04T11:48:03.949Z</time></trkpt><trkpt lat="44.6697786" lon="8.4263231"><ele>164.66666666666666</ele><time>2026-04-04T11:48:04.948Z</time></trkpt><trkpt lat="44.6696152" lon="8.426209"><ele>164.33333333333331</ele><time>2026-04-04T11:48:05.949Z</time></trkpt><trkpt lat="44.6694479" lon="8.4260923"><ele>164.0</ele><time>2026-04-04T11:48:06.949Z</time></trkpt><trkpt lat="44.6692852" lon="8.4259612"><ele>164.0</ele><time>2026-04-04T11:48:07.948Z</time></trkpt><trkpt lat="44.6691217" lon="8.4258093"><ele>164.0</ele><time>2026-04-04T11:48:08.949Z</time></trkpt><trkpt lat="44.668966" lon="8.4256529"><ele>164.0</ele><time>2026-04-04T11:48:09.949Z</time></trkpt><trkpt lat="44.6688238" lon="8.4254845"><ele>164.33333333333331</ele><time>2026-04-04T11:48:10.948Z</time></trkpt><trkpt lat="44.6686938" lon="8.4252937"><ele>164.66666666666666</ele><time>2026-04-04T11:48:11.949Z</time></trkpt><trkpt lat="44.668579" lon="8.4250982"><ele>165.0</ele><time>2026-04-04T11:48:12.948Z</time></trkpt><trkpt lat="44.6684756" lon="8.4248975"><ele>165.0</ele><time>2026-04-04T11:48:13.949Z</time></trkpt><trkpt lat="44.6683861" lon="8.4246945"><ele>165.0</ele><time>2026-04-04T11:48:14.949Z</time></trkpt><trkpt lat="44.6682988" lon="8.4245001"><ele>165.0</ele><time>2026-04-04T11:48:15.948Z</time></trkpt><trkpt lat="44.6682205" lon="8.4243093"><ele>165.0</ele><time>2026-04-04T11:48:16.949Z</time></trkpt><trkpt lat="44.6681438" lon="8.4241361"><ele>165.0</ele><time>2026-04-04T11:48:17.948Z</time></trkpt><trkpt lat="44.6680644" lon="8.4239794"><ele>165.0</ele><time>2026-04-04T11:48:18.948Z</time></trkpt><trkpt lat="44.6679943" lon="8.4238283"><ele>165.0</ele><time>2026-04-04T11:48:19.949Z</time></trkpt><trkpt lat="44.6679305" lon="8.4236955"><ele>165.0</ele><time>2026-04-04T11:48:20.949Z</time></trkpt><trkpt lat="44.6678784" lon="8.4235717"><ele>165.0</ele><time>2026-04-04T11:48:21.949Z</time></trkpt><trkpt lat="44.6678312" lon="8.423457"><ele>165.0</ele><time>2026-04-04T11:48:22.948Z</time></trkpt><trkpt lat="44.6677913" lon="8.4233491"><ele>165.0</ele><time>2026-04-04T11:48:23.948Z</time></trkpt><trkpt lat="44.6677609" lon="8.423242"><ele>165.0</ele><time>2026-04-04T11:48:24.949Z</time></trkpt><trkpt lat="44.6677479" lon="8.4231291"><ele>165.0</ele><time>2026-04-04T11:48:25.949Z</time></trkpt><trkpt lat="44.6677413" lon="8.4230143"><ele>164.33333333333334</ele><time>2026-04-04T11:48:26.949Z</time></trkpt><trkpt lat="44.6677303" lon="8.4229226"><ele>163.66666666666666</ele><time>2026-04-04T11:48:27.949Z</time></trkpt><trkpt lat="44.6676938" lon="8.4228441"><ele>163.0</ele><time>2026-04-04T11:48:28.949Z</time></trkpt><trkpt lat="44.6676314" lon="8.422794"><ele>162.33333333333331</ele><time>2026-04-04T11:48:29.949Z</time></trkpt><trkpt lat="44.6675547" lon="8.4227672"><ele>161.66666666666666</ele><time>2026-04-04T11:48:30.949Z</time></trkpt><trkpt lat="44.6674652" lon="8.4227409"><ele>161.0</ele><time>2026-04-04T11:48:31.949Z</time></trkpt><trkpt lat="44.6673584" lon="8.4226893"><ele>161.0</ele><time>2026-04-04T11:48:32.949Z</time></trkpt><trkpt lat="44.6672511" lon="8.4226003"><ele>161.0</ele><time>2026-04-04T11:48:33.948Z</time></trkpt><trkpt lat="44.66714" lon="8.4224886"><ele>161.0</ele><time>2026-04-04T11:48:34.949Z</time></trkpt><trkpt lat="44.6670261" lon="8.4223757"><ele>161.0</ele><time>2026-04-04T11:48:35.949Z</time></trkpt><trkpt lat="44.6669068" lon="8.4222579"><ele>159.25</ele><time>2026-04-04T11:48:36.949Z</time></trkpt><trkpt lat="44.6667833" lon="8.4221331"><ele>157.5</ele><time>2026-04-04T11:48:37.949Z</time></trkpt><trkpt lat="44.6666644" lon="8.422007"><ele>155.75</ele><time>2026-04-04T11:48:38.949Z</time></trkpt><trkpt lat="44.6665493" lon="8.4218832"><ele>154.0</ele><time>2026-04-04T11:48:39.949Z</time></trkpt><trkpt lat="44.6664276" lon="8.4217603"><ele>154.0</ele><time>2026-04-04T11:48:40.949Z</time></trkpt><trkpt lat="44.6663034" lon="8.4216339"><ele>154.0</ele><time>2026-04-04T11:48:41.949Z</time></trkpt><trkpt lat="44.6661735" lon="8.4215008"><ele>154.0</ele><time>2026-04-04T11:48:42.948Z</time></trkpt><trkpt lat="44.6660503" lon="8.4213506"><ele>156.0</ele><time>2026-04-04T11:48:43.949Z</time></trkpt><trkpt lat="44.6659348" lon="8.4211907"><ele>158.0</ele><time>2026-04-04T11:48:44.949Z</time></trkpt><trkpt lat="44.665828" lon="8.421021"><ele>160.0</ele><time>2026-04-04T11:48:45.949Z</time></trkpt><trkpt lat="44.6657407" lon="8.4208292"><ele>160.0</ele><time>2026-04-04T11:48:46.949Z</time></trkpt><trkpt lat="44.6656642" lon="8.4206241"><ele>160.0</ele><time>2026-04-04T11:48:47.949Z</time></trkpt><trkpt lat="44.6656004" lon="8.4204008"><ele>160.0</ele><time>2026-04-04T11:48:48.949Z</time></trkpt><trkpt lat="44.665536" lon="8.4201759"><ele>160.0</ele><time>2026-04-04T11:48:49.949Z</time></trkpt><trkpt lat="44.6654827" lon="8.4199389"><ele>160.0</ele><time>2026-04-04T11:48:50.949Z</time></trkpt><trkpt lat="44.6654401" lon="8.4197023"><ele>160.0</ele><time>2026-04-04T11:48:51.949Z</time></trkpt><trkpt lat="44.6654155" lon="8.4194571"><ele>160.66666666666669</ele><time>2026-04-04T11:48:52.949Z</time></trkpt><trkpt lat="44.6653985" lon="8.419202"><ele>161.33333333333334</ele><time>2026-04-04T11:48:53.949Z</time></trkpt><trkpt lat="44.6653832" lon="8.4189426"><ele>162.0</ele><time>2026-04-04T11:48:54.949Z</time></trkpt><trkpt lat="44.6653748" lon="8.4186734"><ele>162.0</ele><time>2026-04-04T11:48:55.949Z</time></trkpt><trkpt lat="44.6653617" lon="8.4184013"><ele>162.0</ele><time>2026-04-04T11:48:56.949Z</time></trkpt><trkpt lat="44.665349" lon="8.4181252"><ele>162.0</ele><time>2026-04-04T11:48:57.949Z</time></trkpt><trkpt lat="44.6653315" lon="8.4178568"><ele>162.0</ele><time>2026-04-04T11:48:58.949Z</time></trkpt><trkpt lat="44.6653158" lon="8.4175945"><ele>162.0</ele><time>2026-04-04T11:48:59.949Z</time></trkpt><trkpt lat="44.6652987" lon="8.4173374"><ele>162.0</ele><time>2026-04-04T11:49:00.949Z</time></trkpt><trkpt lat="44.6652833" lon="8.4170759"><ele>163.0</ele><time>2026-04-04T11:49:01.949Z</time></trkpt><trkpt lat="44.6652646" lon="8.4168127"><ele>164.0</ele><time>2026-04-04T11:49:02.948Z</time></trkpt><trkpt lat="44.6652447" lon="8.4165464"><ele>165.0</ele><time>2026-04-04T11:49:03.949Z</time></trkpt><trkpt lat="44.6652279" lon="8.4162714"><ele>165.0</ele><time>2026-04-04T11:49:04.949Z</time></trkpt><trkpt lat="44.6652101" lon="8.4159893"><ele>165.0</ele><time>2026-04-04T11:49:05.949Z</time></trkpt><trkpt lat="44.6651928" lon="8.4157091"><ele>165.0</ele><time>2026-04-04T11:49:06.948Z</time></trkpt><trkpt lat="44.6651716" lon="8.4154295"><ele>164.33333333333334</ele><time>2026-04-04T11:49:07.948Z</time></trkpt><trkpt lat="44.6651513" lon="8.4151441"><ele>163.66666666666669</ele><time>2026-04-04T11:49:08.949Z</time></trkpt><trkpt lat="44.6651312" lon="8.4148548"><ele>163.0</ele><time>2026-04-04T11:49:09.949Z</time></trkpt><trkpt lat="44.6651123" lon="8.4145669"><ele>162.66666666666669</ele><time>2026-04-04T11:49:10.949Z</time></trkpt><trkpt lat="44.6650902" lon="8.414279"><ele>162.33333333333334</ele><time>2026-04-04T11:49:11.948Z</time></trkpt><trkpt lat="44.6650671" lon="8.4139876"><ele>162.0</ele><time>2026-04-04T11:49:12.948Z</time></trkpt><trkpt lat="44.6650462" lon="8.4136904"><ele>162.0</ele><time>2026-04-04T11:49:13.949Z</time></trkpt><trkpt lat="44.6650223" lon="8.4133929"><ele>162.0</ele><time>2026-04-04T11:49:14.948Z</time></trkpt><trkpt lat="44.665" lon="8.4130958"><ele>162.0</ele><time>2026-04-04T11:49:15.949Z</time></trkpt><trkpt lat="44.6649769" lon="8.4128014"><ele>162.0</ele><time>2026-04-04T11:49:16.949Z</time></trkpt><trkpt lat="44.6649585" lon="8.4125059"><ele>162.0</ele><time>2026-04-04T11:49:17.948Z</time></trkpt><trkpt lat="44.6649378" lon="8.412212"><ele>162.0</ele><time>2026-04-04T11:49:18.948Z</time></trkpt><trkpt lat="44.6649164" lon="8.4119199"><ele>161.33333333333334</ele><time>2026-04-04T11:49:19.949Z</time></trkpt><trkpt lat="44.6648984" lon="8.4116211"><ele>160.66666666666669</ele><time>2026-04-04T11:49:20.949Z</time></trkpt><trkpt lat="44.6648826" lon="8.4113289"><ele>160.0</ele><time>2026-04-04T11:49:21.949Z</time></trkpt><trkpt lat="44.6648662" lon="8.4110372"><ele>160.0</ele><time>2026-04-04T11:49:22.949Z</time></trkpt><trkpt lat="44.6648437" lon="8.4107418"><ele>160.0</ele><time>2026-04-04T11:49:23.948Z</time></trkpt><trkpt lat="44.6648233" lon="8.410444"><ele>160.0</ele><time>2026-04-04T11:49:24.949Z</time></trkpt><trkpt lat="44.6648051" lon="8.4101413"><ele>159.66666666666669</ele><time>2026-04-04T11:49:25.949Z</time></trkpt><trkpt lat="44.6647799" lon="8.4098404"><ele>159.33333333333334</ele><time>2026-04-04T11:49:26.949Z</time></trkpt><trkpt lat="44.6647581" lon="8.4095408"><ele>159.0</ele><time>2026-04-04T11:49:27.949Z</time></trkpt><trkpt lat="44.6647387" lon="8.4092398"><ele>159.0</ele><time>2026-04-04T11:49:28.949Z</time></trkpt><trkpt lat="44.66472" lon="8.4089431"><ele>159.0</ele><time>2026-04-04T11:49:29.949Z</time></trkpt><trkpt lat="44.6646971" lon="8.4086529"><ele>159.0</ele><time>2026-04-04T11:49:30.949Z</time></trkpt><trkpt lat="44.664675" lon="8.4083627"><ele>159.0</ele><time>2026-04-04T11:49:31.949Z</time></trkpt><trkpt lat="44.6646566" lon="8.4080739"><ele>159.0</ele><time>2026-04-04T11:49:32.949Z</time></trkpt><trkpt lat="44.6646406" lon="8.4077951"><ele>159.0</ele><time>2026-04-04T11:49:33.949Z</time></trkpt><trkpt lat="44.6646206" lon="8.4075299"><ele>160.0</ele><time>2026-04-04T11:49:34.949Z</time></trkpt><trkpt lat="44.6645875" lon="8.4072717"><ele>161.0</ele><time>2026-04-04T11:49:35.949Z</time></trkpt><trkpt lat="44.6645432" lon="8.4070112"><ele>162.0</ele><time>2026-04-04T11:49:36.949Z</time></trkpt><trkpt lat="44.6644838" lon="8.4067471"><ele>162.33333333333334</ele><time>2026-04-04T11:49:37.949Z</time></trkpt><trkpt lat="44.664405" lon="8.4064843"><ele>162.66666666666669</ele><time>2026-04-04T11:49:38.949Z</time></trkpt><trkpt lat="44.6643105" lon="8.4062309"><ele>163.0</ele><time>2026-04-04T11:49:39.949Z</time></trkpt><trkpt lat="44.6642063" lon="8.4059897"><ele>163.33333333333334</ele><time>2026-04-04T11:49:40.949Z</time></trkpt><trkpt lat="44.6640895" lon="8.4057626"><ele>163.66666666666666</ele><time>2026-04-04T11:49:41.949Z</time></trkpt><trkpt lat="44.6639622" lon="8.405534"><ele>164.0</ele><time>2026-04-04T11:49:42.949Z</time></trkpt><trkpt lat="44.6638314" lon="8.4053026"><ele>164.33333333333331</ele><time>2026-04-04T11:49:43.949Z</time></trkpt><trkpt lat="44.663705" lon="8.4050709"><ele>164.66666666666666</ele><time>2026-04-04T11:49:44.948Z</time></trkpt><trkpt lat="44.6635777" lon="8.4048383"><ele>165.0</ele><time>2026-04-04T11:49:45.948Z</time></trkpt><trkpt lat="44.6634524" lon="8.4046089"><ele>165.33333333333334</ele><time>2026-04-04T11:49:46.948Z</time></trkpt><trkpt lat="44.6633274" lon="8.4043802"><ele>165.66666666666669</ele><time>2026-04-04T11:49:47.948Z</time></trkpt><trkpt lat="44.6632011" lon="8.4041468"><ele>166.0</ele><time>2026-04-04T11:49:48.949Z</time></trkpt><trkpt lat="44.6630699" lon="8.4039157"><ele>165.66666666666669</ele><time>2026-04-04T11:49:49.949Z</time></trkpt><trkpt lat="44.6629393" lon="8.4036841"><ele>165.33333333333334</ele><time>2026-04-04T11:49:50.948Z</time></trkpt><trkpt lat="44.6628096" lon="8.4034589"><ele>165.0</ele><time>2026-04-04T11:49:51.949Z</time></trkpt><trkpt lat="44.662676" lon="8.4032336"><ele>165.0</ele><time>2026-04-04T11:49:52.949Z</time></trkpt><trkpt lat="44.6625427" lon="8.4030131"><ele>165.0</ele><time>2026-04-04T11:49:53.949Z</time></trkpt><trkpt lat="44.6624148" lon="8.4027878"><ele>165.0</ele><time>2026-04-04T11:49:54.949Z</time></trkpt><trkpt lat="44.6622889" lon="8.402559"><ele>165.0</ele><time>2026-04-04T11:49:55.948Z</time></trkpt><trkpt lat="44.6621613" lon="8.4023304"><ele>165.0</ele><time>2026-04-04T11:49:56.949Z</time></trkpt><trkpt lat="44.6620366" lon="8.4020975"><ele>165.0</ele><time>2026-04-04T11:49:57.949Z</time></trkpt><trkpt lat="44.6619152" lon="8.4018599"><ele>165.33333333333334</ele><time>2026-04-04T11:49:58.949Z</time></trkpt><trkpt lat="44.6617944" lon="8.401618"><ele>165.66666666666669</ele><time>2026-04-04T11:49:59.948Z</time></trkpt><trkpt lat="44.661674" lon="8.4013739"><ele>166.0</ele><time>2026-04-04T11:50:00.949Z</time></trkpt><trkpt lat="44.6615571" lon="8.4011285"><ele>166.0</ele><time>2026-04-04T11:50:01.948Z</time></trkpt><trkpt lat="44.6614389" lon="8.4008917"><ele>166.0</ele><time>2026-04-04T11:50:02.949Z</time></trkpt><trkpt lat="44.6613153" lon="8.4006533"><ele>166.0</ele><time>2026-04-04T11:50:03.949Z</time></trkpt><trkpt lat="44.6611943" lon="8.4004096"><ele>166.33333333333334</ele><time>2026-04-04T11:50:04.949Z</time></trkpt><trkpt lat="44.6610704" lon="8.4001683"><ele>166.66666666666666</ele><time>2026-04-04T11:50:05.949Z</time></trkpt><trkpt lat="44.6609481" lon="8.3999205"><ele>167.0</ele><time>2026-04-04T11:50:06.949Z</time></trkpt><trkpt lat="44.6608286" lon="8.3996721"><ele>167.33333333333331</ele><time>2026-04-04T11:50:07.948Z</time></trkpt><trkpt lat="44.660705" lon="8.3994225"><ele>167.66666666666666</ele><time>2026-04-04T11:50:08.948Z</time></trkpt><trkpt lat="44.660589" lon="8.3991703"><ele>168.0</ele><time>2026-04-04T11:50:09.949Z</time></trkpt><trkpt lat="44.6604703" lon="8.3989224"><ele>168.33333333333334</ele><time>2026-04-04T11:50:10.949Z</time></trkpt><trkpt lat="44.6603494" lon="8.3986827"><ele>168.66666666666669</ele><time>2026-04-04T11:50:11.949Z</time></trkpt><trkpt lat="44.6602278" lon="8.3984443"><ele>169.0</ele><time>2026-04-04T11:50:12.949Z</time></trkpt><trkpt lat="44.6601039" lon="8.3982011"><ele>168.33333333333334</ele><time>2026-04-04T11:50:13.949Z</time></trkpt><trkpt lat="44.6599857" lon="8.3979528"><ele>167.66666666666666</ele><time>2026-04-04T11:50:14.949Z</time></trkpt><trkpt lat="44.6598722" lon="8.3977061"><ele>167.0</ele><time>2026-04-04T11:50:15.949Z</time></trkpt><trkpt lat="44.6597517" lon="8.3974633"><ele>167.0</ele><time>2026-04-04T11:50:16.949Z</time></trkpt><trkpt lat="44.6596289" lon="8.3972207"><ele>167.0</ele><time>2026-04-04T11:50:17.949Z</time></trkpt><trkpt lat="44.6595108" lon="8.3969803"><ele>167.0</ele><time>2026-04-04T11:50:18.949Z</time></trkpt><trkpt lat="44.6593906" lon="8.3967411"><ele>167.0</ele><time>2026-04-04T11:50:19.948Z</time></trkpt><trkpt lat="44.6592681" lon="8.3965041"><ele>167.0</ele><time>2026-04-04T11:50:20.949Z</time></trkpt><trkpt lat="44.6591437" lon="8.3962716"><ele>167.0</ele><time>2026-04-04T11:50:21.949Z</time></trkpt><trkpt lat="44.6590251" lon="8.3960443"><ele>167.0</ele><time>2026-04-04T11:50:22.949Z</time></trkpt><trkpt lat="44.6589157" lon="8.3958082"><ele>167.0</ele><time>2026-04-04T11:50:23.948Z</time></trkpt><trkpt lat="44.6588076" lon="8.3955707"><ele>167.0</ele><time>2026-04-04T11:50:24.949Z</time></trkpt><trkpt lat="44.658704" lon="8.3953437"><ele>167.33333333333331</ele><time>2026-04-04T11:50:25.948Z</time></trkpt><trkpt lat="44.658608" lon="8.3951364"><ele>167.66666666666666</ele><time>2026-04-04T11:50:26.948Z</time></trkpt><trkpt lat="44.6585145" lon="8.3949501"><ele>168.0</ele><time>2026-04-04T11:50:27.948Z</time></trkpt><trkpt lat="44.6584276" lon="8.3947682"><ele>168.75</ele><time>2026-04-04T11:50:28.948Z</time></trkpt><trkpt lat="44.6583436" lon="8.3946003"><ele>169.5</ele><time>2026-04-04T11:50:29.948Z</time></trkpt><trkpt lat="44.6582649" lon="8.3944333"><ele>170.25</ele><time>2026-04-04T11:50:30.948Z</time></trkpt><trkpt lat="44.6581845" lon="8.3942756"><ele>171.0</ele><time>2026-04-04T11:50:31.948Z</time></trkpt><trkpt lat="44.6581017" lon="8.394117"><ele>171.0</ele><time>2026-04-04T11:50:32.948Z</time></trkpt><trkpt lat="44.6580124" lon="8.3939669"><ele>171.0</ele><time>2026-04-04T11:50:33.948Z</time></trkpt><trkpt lat="44.6579258" lon="8.3938201"><ele>171.0</ele><time>2026-04-04T11:50:34.948Z</time></trkpt><trkpt lat="44.657841" lon="8.3936851"><ele>171.0</ele><time>2026-04-04T11:50:35.947Z</time></trkpt><trkpt lat="44.6577666" lon="8.3935582"><ele>171.0</ele><time>2026-04-04T11:50:36.947Z</time></trkpt><trkpt lat="44.657703" lon="8.3934326"><ele>171.0</ele><time>2026-04-04T11:50:37.947Z</time></trkpt><trkpt lat="44.6576505" lon="8.3932855"><ele>171.0</ele><time>2026-04-04T11:50:38.947Z</time></trkpt><trkpt lat="44.6575964" lon="8.3931304"><ele>171.0</ele><time>2026-04-04T11:50:39.948Z</time></trkpt><trkpt lat="44.6575311" lon="8.3929805"><ele>171.0</ele><time>2026-04-04T11:50:40.948Z</time></trkpt><trkpt lat="44.6574681" lon="8.3928271"><ele>171.0</ele><time>2026-04-04T11:50:41.948Z</time></trkpt><trkpt lat="44.6574076" lon="8.3926539"><ele>171.0</ele><time>2026-04-04T11:50:42.948Z</time></trkpt><trkpt lat="44.6573612" lon="8.3924631"><ele>171.0</ele><time>2026-04-04T11:50:43.947Z</time></trkpt><trkpt lat="44.6573166" lon="8.3922549"><ele>172.0</ele><time>2026-04-04T11:50:44.947Z</time></trkpt><trkpt lat="44.6572677" lon="8.3920462"><ele>173.0</ele><time>2026-04-04T11:50:45.948Z</time></trkpt><trkpt lat="44.6572322" lon="8.3918335"><ele>174.0</ele><time>2026-04-04T11:50:46.947Z</time></trkpt><trkpt lat="44.6572021" lon="8.3916289"><ele>174.0</ele><time>2026-04-04T11:50:47.948Z</time></trkpt><trkpt lat="44.6571792" lon="8.3914334"><ele>174.0</ele><time>2026-04-04T11:50:48.948Z</time></trkpt><trkpt lat="44.6571648" lon="8.3912366"><ele>174.0</ele><time>2026-04-04T11:50:49.948Z</time></trkpt><trkpt lat="44.6571568" lon="8.3910395"><ele>174.0</ele><time>2026-04-04T11:50:50.948Z</time></trkpt><trkpt lat="44.6571528" lon="8.3908312"><ele>174.66666666666666</ele><time>2026-04-04T11:50:51.948Z</time></trkpt><trkpt lat="44.6571505" lon="8.3906188"><ele>175.33333333333331</ele><time>2026-04-04T11:50:52.948Z</time></trkpt><trkpt lat="44.6571523" lon="8.3904053"><ele>176.0</ele><time>2026-04-04T11:50:53.947Z</time></trkpt><trkpt lat="44.6571602" lon="8.3901948"><ele>176.0</ele><time>2026-04-04T11:50:54.948Z</time></trkpt><trkpt lat="44.6571711" lon="8.3899872"><ele>176.0</ele><time>2026-04-04T11:50:55.948Z</time></trkpt><trkpt lat="44.6571886" lon="8.389789"><ele>176.0</ele><time>2026-04-04T11:50:56.947Z</time></trkpt><trkpt lat="44.6572049" lon="8.3895942"><ele>176.0</ele><time>2026-04-04T11:50:57.948Z</time></trkpt><trkpt lat="44.657218" lon="8.3894064"><ele>174.75</ele><time>2026-04-04T11:50:58.948Z</time></trkpt><trkpt lat="44.6572302" lon="8.3892279"><ele>173.5</ele><time>2026-04-04T11:50:59.947Z</time></trkpt><trkpt lat="44.6572362" lon="8.3890488"><ele>172.25</ele><time>2026-04-04T11:51:00.948Z</time></trkpt><trkpt lat="44.6572535" lon="8.388857"><ele>171.0</ele><time>2026-04-04T11:51:01.947Z</time></trkpt><trkpt lat="44.6572706" lon="8.3886616"><ele>170.5</ele><time>2026-04-04T11:51:02.947Z</time></trkpt><trkpt lat="44.6572922" lon="8.388478"><ele>170.0</ele><time>2026-04-04T11:51:03.947Z</time></trkpt><trkpt lat="44.657309" lon="8.3882953"><ele>169.5</ele><time>2026-04-04T11:51:04.948Z</time></trkpt><trkpt lat="44.6573246" lon="8.3881175"><ele>169.0</ele><time>2026-04-04T11:51:05.948Z</time></trkpt><trkpt lat="44.6573462" lon="8.387939"><ele>169.0</ele><time>2026-04-04T11:51:06.947Z</time></trkpt><trkpt lat="44.6573588" lon="8.3877574"><ele>169.0</ele><time>2026-04-04T11:51:07.948Z</time></trkpt><trkpt lat="44.6573802" lon="8.3875734"><ele>169.0</ele><time>2026-04-04T11:51:08.948Z</time></trkpt><trkpt lat="44.6574186" lon="8.3873892"><ele>169.0</ele><time>2026-04-04T11:51:09.948Z</time></trkpt><trkpt lat="44.6574705" lon="8.3872005"><ele>169.33333333333334</ele><time>2026-04-04T11:51:10.947Z</time></trkpt><trkpt lat="44.6575335" lon="8.387011"><ele>169.66666666666666</ele><time>2026-04-04T11:51:11.947Z</time></trkpt><trkpt lat="44.6576003" lon="8.3868171"><ele>170.0</ele><time>2026-04-04T11:51:12.947Z</time></trkpt><trkpt lat="44.6576714" lon="8.3866251"><ele>170.0</ele><time>2026-04-04T11:51:13.948Z</time></trkpt><trkpt lat="44.6577378" lon="8.3864318"><ele>170.0</ele><time>2026-04-04T11:51:14.948Z</time></trkpt><trkpt lat="44.6577979" lon="8.3862405"><ele>170.0</ele><time>2026-04-04T11:51:15.948Z</time></trkpt><trkpt lat="44.657854" lon="8.3860489"><ele>170.0</ele><time>2026-04-04T11:51:16.948Z</time></trkpt><trkpt lat="44.65791" lon="8.385861"><ele>170.0</ele><time>2026-04-04T11:51:17.948Z</time></trkpt><trkpt lat="44.6579615" lon="8.3856757"><ele>170.0</ele><time>2026-04-04T11:51:18.948Z</time></trkpt><trkpt lat="44.6580085" lon="8.3854991"><ele>170.0</ele><time>2026-04-04T11:51:19.948Z</time></trkpt><trkpt lat="44.6580408" lon="8.3853334"><ele>170.0</ele><time>2026-04-04T11:51:20.948Z</time></trkpt><trkpt lat="44.6580597" lon="8.3851687"><ele>170.0</ele><time>2026-04-04T11:51:21.947Z</time></trkpt><trkpt lat="44.6580755" lon="8.3849989"><ele>170.0</ele><time>2026-04-04T11:51:22.948Z</time></trkpt><trkpt lat="44.6580848" lon="8.3848252"><ele>170.0</ele><time>2026-04-04T11:51:23.947Z</time></trkpt><trkpt lat="44.6580979" lon="8.3846472"><ele>170.0</ele><time>2026-04-04T11:51:24.947Z</time></trkpt><trkpt lat="44.6581149" lon="8.3844762"><ele>170.5</ele><time>2026-04-04T11:51:25.948Z</time></trkpt><trkpt lat="44.6581279" lon="8.3843105"><ele>171.0</ele><time>2026-04-04T11:51:26.947Z</time></trkpt><trkpt lat="44.6581394" lon="8.3841429"><ele>171.5</ele><time>2026-04-04T11:51:27.947Z</time></trkpt><trkpt lat="44.6581494" lon="8.3839672"><ele>172.0</ele><time>2026-04-04T11:51:28.947Z</time></trkpt><trkpt lat="44.6581548" lon="8.3837943"><ele>172.0</ele><time>2026-04-04T11:51:29.948Z</time></trkpt><trkpt lat="44.6581638" lon="8.383625"><ele>172.0</ele><time>2026-04-04T11:51:30.948Z</time></trkpt><trkpt lat="44.6581706" lon="8.3834614"><ele>172.0</ele><time>2026-04-04T11:51:31.948Z</time></trkpt><trkpt lat="44.6581694" lon="8.3832883"><ele>172.0</ele><time>2026-04-04T11:51:32.948Z</time></trkpt><trkpt lat="44.6581738" lon="8.3831184"><ele>172.0</ele><time>2026-04-04T11:51:33.948Z</time></trkpt><trkpt lat="44.6581787" lon="8.3829481"><ele>172.0</ele><time>2026-04-04T11:51:34.947Z</time></trkpt><trkpt lat="44.6581808" lon="8.3827789"><ele>172.0</ele><time>2026-04-04T11:51:35.948Z</time></trkpt><trkpt lat="44.658181" lon="8.3825991"><ele>172.0</ele><time>2026-04-04T11:51:36.948Z</time></trkpt><trkpt lat="44.6581821" lon="8.3824212"><ele>172.0</ele><time>2026-04-04T11:51:37.947Z</time></trkpt><trkpt lat="44.6581801" lon="8.3822426"><ele>172.0</ele><time>2026-04-04T11:51:38.947Z</time></trkpt><trkpt lat="44.6581787" lon="8.3820623"><ele>172.0</ele><time>2026-04-04T11:51:39.948Z</time></trkpt><trkpt lat="44.6581795" lon="8.3818751"><ele>172.0</ele><time>2026-04-04T11:51:40.948Z</time></trkpt><trkpt lat="44.6581806" lon="8.3816825"><ele>172.0</ele><time>2026-04-04T11:51:41.948Z</time></trkpt><trkpt lat="44.6581796" lon="8.3814898"><ele>172.0</ele><time>2026-04-04T11:51:42.948Z</time></trkpt><trkpt lat="44.6581798" lon="8.3812949"><ele>172.0</ele><time>2026-04-04T11:51:43.948Z</time></trkpt><trkpt lat="44.6581786" lon="8.3811055"><ele>172.0</ele><time>2026-04-04T11:51:44.948Z</time></trkpt><trkpt lat="44.6581803" lon="8.3809154"><ele>172.0</ele><time>2026-04-04T11:51:45.948Z</time></trkpt><trkpt lat="44.6581782" lon="8.3807192"><ele>172.0</ele><time>2026-04-04T11:51:46.947Z</time></trkpt><trkpt lat="44.6581752" lon="8.3805363"><ele>172.0</ele><time>2026-04-04T11:51:47.948Z</time></trkpt><trkpt lat="44.6581758" lon="8.3803736"><ele>172.0</ele><time>2026-04-04T11:51:48.948Z</time></trkpt><trkpt lat="44.6581798" lon="8.3802255"><ele>172.33333333333334</ele><time>2026-04-04T11:51:49.947Z</time></trkpt><trkpt lat="44.6581808" lon="8.3800956"><ele>172.66666666666669</ele><time>2026-04-04T11:51:50.948Z</time></trkpt><trkpt lat="44.6581789" lon="8.3799749"><ele>173.0</ele><time>2026-04-04T11:51:51.948Z</time></trkpt><trkpt lat="44.6581773" lon="8.3798647"><ele>173.33333333333334</ele><time>2026-04-04T11:51:52.948Z</time></trkpt><trkpt lat="44.6581779" lon="8.3797562"><ele>173.66666666666666</ele><time>2026-04-04T11:51:53.948Z</time></trkpt><trkpt lat="44.6581755" lon="8.3796438"><ele>174.0</ele><time>2026-04-04T11:51:54.947Z</time></trkpt><trkpt lat="44.6581724" lon="8.3795181"><ele>174.0</ele><time>2026-04-04T11:51:55.948Z</time></trkpt><trkpt lat="44.6581679" lon="8.3793813"><ele>174.0</ele><time>2026-04-04T11:51:56.947Z</time></trkpt><trkpt lat="44.6581707" lon="8.3792314"><ele>174.0</ele><time>2026-04-04T11:51:57.948Z</time></trkpt><trkpt lat="44.6581814" lon="8.3790642"><ele>174.0</ele><time>2026-04-04T11:51:58.948Z</time></trkpt><trkpt lat="44.6581859" lon="8.3788994"><ele>174.0</ele><time>2026-04-04T11:51:59.947Z</time></trkpt><trkpt lat="44.6581925" lon="8.3787385"><ele>174.0</ele><time>2026-04-04T11:52:00.948Z</time></trkpt><trkpt lat="44.6582037" lon="8.3785805"><ele>174.0</ele><time>2026-04-04T11:52:01.947Z</time></trkpt><trkpt lat="44.65822" lon="8.3784233"><ele>174.0</ele><time>2026-04-04T11:52:02.948Z</time></trkpt><trkpt lat="44.6582414" lon="8.3782611"><ele>174.0</ele><time>2026-04-04T11:52:03.948Z</time></trkpt><trkpt lat="44.658264" lon="8.3780998"><ele>174.0</ele><time>2026-04-04T11:52:04.948Z</time></trkpt><trkpt lat="44.6582927" lon="8.3779301"><ele>174.0</ele><time>2026-04-04T11:52:05.947Z</time></trkpt><trkpt lat="44.6583191" lon="8.3777583"><ele>174.0</ele><time>2026-04-04T11:52:06.947Z</time></trkpt><trkpt lat="44.6583418" lon="8.3775874"><ele>174.0</ele><time>2026-04-04T11:52:07.948Z</time></trkpt><trkpt lat="44.6583688" lon="8.3774082"><ele>174.0</ele><time>2026-04-04T11:52:08.948Z</time></trkpt><trkpt lat="44.658402" lon="8.3772377"><ele>174.0</ele><time>2026-04-04T11:52:09.948Z</time></trkpt><trkpt lat="44.6584294" lon="8.3770749"><ele>174.0</ele><time>2026-04-04T11:52:10.947Z</time></trkpt><trkpt lat="44.6584576" lon="8.3769108"><ele>174.0</ele><time>2026-04-04T11:52:11.947Z</time></trkpt><trkpt lat="44.6584848" lon="8.3767352"><ele>174.0</ele><time>2026-04-04T11:52:12.948Z</time></trkpt><trkpt lat="44.6585081" lon="8.3765644"><ele>174.0</ele><time>2026-04-04T11:52:13.947Z</time></trkpt><trkpt lat="44.6585364" lon="8.3763952"><ele>174.0</ele><time>2026-04-04T11:52:14.947Z</time></trkpt><trkpt lat="44.6585645" lon="8.3762179"><ele>174.0</ele><time>2026-04-04T11:52:15.948Z</time></trkpt><trkpt lat="44.6585915" lon="8.3760361"><ele>174.0</ele><time>2026-04-04T11:52:16.948Z</time></trkpt><trkpt lat="44.6586267" lon="8.3758639"><ele>174.0</ele><time>2026-04-04T11:52:17.948Z</time></trkpt><trkpt lat="44.6586583" lon="8.3756775"><ele>174.0</ele><time>2026-04-04T11:52:18.948Z</time></trkpt><trkpt lat="44.6586914" lon="8.3754909"><ele>174.0</ele><time>2026-04-04T11:52:19.948Z</time></trkpt><trkpt lat="44.6587249" lon="8.3753074"><ele>173.75</ele><time>2026-04-04T11:52:20.948Z</time></trkpt><trkpt lat="44.6587522" lon="8.3751264"><ele>173.5</ele><time>2026-04-04T11:52:21.948Z</time></trkpt><trkpt lat="44.658774" lon="8.3749501"><ele>173.25</ele><time>2026-04-04T11:52:22.948Z</time></trkpt><trkpt lat="44.6588016" lon="8.3747842"><ele>173.0</ele><time>2026-04-04T11:52:23.948Z</time></trkpt><trkpt lat="44.6588293" lon="8.3746186"><ele>172.5</ele><time>2026-04-04T11:52:24.947Z</time></trkpt><trkpt lat="44.6588585" lon="8.3744518"><ele>172.0</ele><time>2026-04-04T11:52:25.948Z</time></trkpt><trkpt lat="44.6588882" lon="8.3742945"><ele>171.5</ele><time>2026-04-04T11:52:26.948Z</time></trkpt><trkpt lat="44.6589146" lon="8.374139"><ele>171.0</ele><time>2026-04-04T11:52:27.947Z</time></trkpt><trkpt lat="44.6589423" lon="8.3739874"><ele>171.0</ele><time>2026-04-04T11:52:28.947Z</time></trkpt><trkpt lat="44.6589679" lon="8.3738357"><ele>171.0</ele><time>2026-04-04T11:52:29.948Z</time></trkpt><trkpt lat="44.6589905" lon="8.3736885"><ele>171.0</ele><time>2026-04-04T11:52:30.948Z</time></trkpt><trkpt lat="44.6590124" lon="8.3735364"><ele>171.0</ele><time>2026-04-04T11:52:31.948Z</time></trkpt><trkpt lat="44.659035" lon="8.3733838"><ele>171.0</ele><time>2026-04-04T11:52:32.948Z</time></trkpt><trkpt lat="44.6590501" lon="8.3732309"><ele>171.0</ele><time>2026-04-04T11:52:33.948Z</time></trkpt><trkpt lat="44.6590703" lon="8.3730607"><ele>171.0</ele><time>2026-04-04T11:52:34.947Z</time></trkpt><trkpt lat="44.6590819" lon="8.3728891"><ele>171.0</ele><time>2026-04-04T11:52:35.948Z</time></trkpt><trkpt lat="44.6590826" lon="8.372721"><ele>171.0</ele><time>2026-04-04T11:52:36.948Z</time></trkpt><trkpt lat="44.6590839" lon="8.3725392"><ele>171.5</ele><time>2026-04-04T11:52:37.947Z</time></trkpt><trkpt lat="44.6590803" lon="8.372349"><ele>172.0</ele><time>2026-04-04T11:52:38.947Z</time></trkpt><trkpt lat="44.6590673" lon="8.3721565"><ele>172.5</ele><time>2026-04-04T11:52:39.948Z</time></trkpt><trkpt lat="44.6590548" lon="8.3719541"><ele>173.0</ele><time>2026-04-04T11:52:40.948Z</time></trkpt><trkpt lat="44.6590397" lon="8.3717632"><ele>173.0</ele><time>2026-04-04T11:52:41.948Z</time></trkpt><trkpt lat="44.6590244" lon="8.3715718"><ele>173.0</ele><time>2026-04-04T11:52:42.947Z</time></trkpt><trkpt lat="44.659009" lon="8.3713884"><ele>173.0</ele><time>2026-04-04T11:52:43.947Z</time></trkpt><trkpt lat="44.6589986" lon="8.3712168"><ele>173.0</ele><time>2026-04-04T11:52:44.948Z</time></trkpt><trkpt lat="44.6589841" lon="8.3710743"><ele>173.0</ele><time>2026-04-04T11:52:45.948Z</time></trkpt><trkpt lat="44.6589717" lon="8.3709348"><ele>173.0</ele><time>2026-04-04T11:52:46.948Z</time></trkpt><trkpt lat="44.6589612" lon="8.3707996"><ele>173.0</ele><time>2026-04-04T11:52:47.948Z</time></trkpt><trkpt lat="44.6589536" lon="8.3706668"><ele>173.0</ele><time>2026-04-04T11:52:48.948Z</time></trkpt><trkpt lat="44.6589471" lon="8.3705433"><ele>173.0</ele><time>2026-04-04T11:52:49.948Z</time></trkpt><trkpt lat="44.6589426" lon="8.3704385"><ele>172.66666666666666</ele><time>2026-04-04T11:52:50.948Z</time></trkpt><trkpt lat="44.6589415" lon="8.3703498"><ele>172.33333333333331</ele><time>2026-04-04T11:52:51.948Z</time></trkpt><trkpt lat="44.658947" lon="8.370192"><ele>172.0</ele><time>2026-04-04T11:52:53.947Z</time></trkpt><trkpt lat="44.659016" lon="8.3700777"><ele>171.66666666666666</ele><time>2026-04-04T11:52:55.948Z</time></trkpt><trkpt lat="44.659078" lon="8.3700507"><ele>171.33333333333334</ele><time>2026-04-04T11:52:56.947Z</time></trkpt><trkpt lat="44.6591634" lon="8.3700338"><ele>171.0</ele><time>2026-04-04T11:52:57.948Z</time></trkpt><trkpt lat="44.6592656" lon="8.3700288"><ele>171.0</ele><time>2026-04-04T11:52:58.948Z</time></trkpt><trkpt lat="44.6593799" lon="8.3700239"><ele>171.0</ele><time>2026-04-04T11:52:59.948Z</time></trkpt><trkpt lat="44.6595015" lon="8.3700094"><ele>171.0</ele><time>2026-04-04T11:53:00.948Z</time></trkpt><trkpt lat="44.6596233" lon="8.3699982"><ele>171.0</ele><time>2026-04-04T11:53:01.948Z</time></trkpt><trkpt lat="44.6597488" lon="8.3699818"><ele>172.25</ele><time>2026-04-04T11:53:02.947Z</time></trkpt><trkpt lat="44.6598826" lon="8.3699565"><ele>173.5</ele><time>2026-04-04T11:53:03.948Z</time></trkpt><trkpt lat="44.6600229" lon="8.369931"><ele>174.75</ele><time>2026-04-04T11:53:04.947Z</time></trkpt><trkpt lat="44.6601594" lon="8.3698918"><ele>176.0</ele><time>2026-04-04T11:53:05.948Z</time></trkpt><trkpt lat="44.6603003" lon="8.3698658"><ele>176.0</ele><time>2026-04-04T11:53:06.947Z</time></trkpt><trkpt lat="44.6604294" lon="8.3698376"><ele>176.0</ele><time>2026-04-04T11:53:07.948Z</time></trkpt><trkpt lat="44.6605388" lon="8.3698018"><ele>176.0</ele><time>2026-04-04T11:53:08.948Z</time></trkpt><trkpt lat="44.6606397" lon="8.3697649"><ele>176.0</ele><time>2026-04-04T11:53:09.948Z</time></trkpt><trkpt lat="44.6607424" lon="8.3697333"><ele>176.0</ele><time>2026-04-04T11:53:10.948Z</time></trkpt><trkpt lat="44.6608464" lon="8.3697037"><ele>176.0</ele><time>2026-04-04T11:53:11.947Z</time></trkpt><trkpt lat="44.6609561" lon="8.369682"><ele>176.0</ele><time>2026-04-04T11:53:12.948Z</time></trkpt><trkpt lat="44.6610665" lon="8.3696591"><ele>176.0</ele><time>2026-04-04T11:53:13.948Z</time></trkpt><trkpt lat="44.6611745" lon="8.3696393"><ele>176.0</ele><time>2026-04-04T11:53:14.948Z</time></trkpt><trkpt lat="44.6612755" lon="8.3696086"><ele>176.8</ele><time>2026-04-04T11:53:15.948Z</time></trkpt><trkpt lat="44.6613725" lon="8.3695697"><ele>177.60000000000002</ele><time>2026-04-04T11:53:16.948Z</time></trkpt><trkpt lat="44.6614724" lon="8.3695305"><ele>178.4</ele><time>2026-04-04T11:53:17.948Z</time></trkpt><trkpt lat="44.6615751" lon="8.3695033"><ele>179.2</ele><time>2026-04-04T11:53:18.947Z</time></trkpt><trkpt lat="44.6616751" lon="8.3694946"><ele>180.0</ele><time>2026-04-04T11:53:19.948Z</time></trkpt><trkpt lat="44.6617773" lon="8.3695106"><ele>180.0</ele><time>2026-04-04T11:53:20.948Z</time></trkpt><trkpt lat="44.6618806" lon="8.3695507"><ele>180.0</ele><time>2026-04-04T11:53:21.947Z</time></trkpt><trkpt lat="44.6619867" lon="8.3695991"><ele>180.0</ele><time>2026-04-04T11:53:22.948Z</time></trkpt><trkpt lat="44.6620967" lon="8.3696585"><ele>180.0</ele><time>2026-04-04T11:53:23.947Z</time></trkpt><trkpt lat="44.6622049" lon="8.3697095"><ele>180.25</ele><time>2026-04-04T11:53:24.947Z</time></trkpt><trkpt lat="44.6623184" lon="8.3697473"><ele>180.5</ele><time>2026-04-04T11:53:25.948Z</time></trkpt><trkpt lat="44.6624348" lon="8.3697877"><ele>180.75</ele><time>2026-04-04T11:53:26.947Z</time></trkpt><trkpt lat="44.6625502" lon="8.3698361"><ele>181.0</ele><time>2026-04-04T11:53:27.948Z</time></trkpt><trkpt lat="44.6626525" lon="8.3698718"><ele>181.0</ele><time>2026-04-04T11:53:28.947Z</time></trkpt><trkpt lat="44.6627431" lon="8.3699098"><ele>181.0</ele><time>2026-04-04T11:53:29.947Z</time></trkpt><trkpt lat="44.662825" lon="8.3699428"><ele>181.0</ele><time>2026-04-04T11:53:30.947Z</time></trkpt><trkpt lat="44.662888" lon="8.3699305"><ele>181.0</ele><time>2026-04-04T11:53:31.948Z</time></trkpt><trkpt lat="44.662935" lon="8.3698246"><ele>181.0</ele><time>2026-04-04T11:53:33.947Z</time></trkpt><trkpt lat="44.6628985" lon="8.3697041"><ele>181.0</ele><time>2026-04-04T11:53:35.947Z</time></trkpt><trkpt lat="44.662835" lon="8.3695224"><ele>181.0</ele><time>2026-04-04T11:53:37.948Z</time></trkpt><trkpt lat="44.6627725" lon="8.3693568"><ele>181.0</ele><time>2026-04-04T11:53:38.947Z</time></trkpt><trkpt lat="44.6627161" lon="8.3691628"><ele>181.0</ele><time>2026-04-04T11:53:39.948Z</time></trkpt><trkpt lat="44.6626622" lon="8.3689582"><ele>181.0</ele><time>2026-04-04T11:53:40.948Z</time></trkpt><trkpt lat="44.6626165" lon="8.3687539"><ele>180.75</ele><time>2026-04-04T11:53:41.947Z</time></trkpt><trkpt lat="44.6625814" lon="8.3685505"><ele>180.5</ele><time>2026-04-04T11:53:42.948Z</time></trkpt><trkpt lat="44.662542" lon="8.3683408"><ele>180.25</ele><time>2026-04-04T11:53:43.948Z</time></trkpt><trkpt lat="44.6625001" lon="8.3681444"><ele>180.0</ele><time>2026-04-04T11:53:44.947Z</time></trkpt><trkpt lat="44.6624597" lon="8.3679625"><ele>179.25</ele><time>2026-04-04T11:53:45.948Z</time></trkpt><trkpt lat="44.6624324" lon="8.3678086"><ele>178.5</ele><time>2026-04-04T11:53:46.948Z</time></trkpt><trkpt lat="44.6624091" lon="8.3676406"><ele>177.75</ele><time>2026-04-04T11:53:47.947Z</time></trkpt><trkpt lat="44.6624156" lon="8.3674492"><ele>177.0</ele><time>2026-04-04T11:53:48.948Z</time></trkpt><trkpt lat="44.6624371" lon="8.3672471"><ele>176.0</ele><time>2026-04-04T11:53:49.948Z</time></trkpt><trkpt lat="44.6624639" lon="8.3670586"><ele>175.0</ele><time>2026-04-04T11:53:50.948Z</time></trkpt><trkpt lat="44.6624891" lon="8.3668817"><ele>174.0</ele><time>2026-04-04T11:53:51.947Z</time></trkpt><trkpt lat="44.6625279" lon="8.3666974"><ele>173.0</ele><time>2026-04-04T11:53:52.948Z</time></trkpt><trkpt lat="44.6625663" lon="8.3665112"><ele>172.0</ele><time>2026-04-04T11:53:53.947Z</time></trkpt><trkpt lat="44.6626004" lon="8.3663022"><ele>171.0</ele><time>2026-04-04T11:53:54.948Z</time></trkpt><trkpt lat="44.6626454" lon="8.3660798"><ele>170.0</ele><time>2026-04-04T11:53:55.948Z</time></trkpt><trkpt lat="44.662689" lon="8.3658672"><ele>170.0</ele><time>2026-04-04T11:53:56.947Z</time></trkpt><trkpt lat="44.6627318" lon="8.3656629"><ele>170.0</ele><time>2026-04-04T11:53:57.947Z</time></trkpt><trkpt lat="44.6627871" lon="8.3654575"><ele>170.0</ele><time>2026-04-04T11:53:58.947Z</time></trkpt><trkpt lat="44.6628523" lon="8.3652487"><ele>171.0</ele><time>2026-04-04T11:53:59.947Z</time></trkpt><trkpt lat="44.6629255" lon="8.365039"><ele>172.0</ele><time>2026-04-04T11:54:00.947Z</time></trkpt><trkpt lat="44.6630024" lon="8.3648248"><ele>173.0</ele><time>2026-04-04T11:54:01.948Z</time></trkpt><trkpt lat="44.6630757" lon="8.3646172"><ele>173.0</ele><time>2026-04-04T11:54:02.947Z</time></trkpt><trkpt lat="44.6631349" lon="8.3644353"><ele>173.0</ele><time>2026-04-04T11:54:03.948Z</time></trkpt><trkpt lat="44.6631848" lon="8.364255"><ele>173.0</ele><time>2026-04-04T11:54:04.948Z</time></trkpt><trkpt lat="44.6632302" lon="8.3640874"><ele>173.0</ele><time>2026-04-04T11:54:05.946Z</time></trkpt><trkpt lat="44.6632624" lon="8.3639116"><ele>173.0</ele><time>2026-04-04T11:54:06.947Z</time></trkpt><trkpt lat="44.6632498" lon="8.3637345"><ele>173.0</ele><time>2026-04-04T11:54:07.947Z</time></trkpt><trkpt lat="44.6631951" lon="8.3635582"><ele>173.0</ele><time>2026-04-04T11:54:08.947Z</time></trkpt><trkpt lat="44.6631123" lon="8.3633831"><ele>173.0</ele><time>2026-04-04T11:54:09.947Z</time></trkpt><trkpt lat="44.6630138" lon="8.3631943"><ele>174.33333333333331</ele><time>2026-04-04T11:54:10.947Z</time></trkpt><trkpt lat="44.6629177" lon="8.3629876"><ele>175.66666666666666</ele><time>2026-04-04T11:54:11.947Z</time></trkpt><trkpt lat="44.6628222" lon="8.3627818"><ele>177.0</ele><time>2026-04-04T11:54:12.947Z</time></trkpt><trkpt lat="44.6627263" lon="8.3625751"><ele>174.66666666666666</ele><time>2026-04-04T11:54:13.947Z</time></trkpt><trkpt lat="44.6626258" lon="8.3623694"><ele>172.33333333333331</ele><time>2026-04-04T11:54:14.947Z</time></trkpt><trkpt lat="44.6625205" lon="8.3621584"><ele>170.0</ele><time>2026-04-04T11:54:15.947Z</time></trkpt><trkpt lat="44.6624069" lon="8.3619456"><ele>170.0</ele><time>2026-04-04T11:54:16.947Z</time></trkpt><trkpt lat="44.6622873" lon="8.3617326"><ele>170.0</ele><time>2026-04-04T11:54:17.946Z</time></trkpt><trkpt lat="44.662163" lon="8.3615167"><ele>170.0</ele><time>2026-04-04T11:54:18.946Z</time></trkpt><trkpt lat="44.6620429" lon="8.3613"><ele>169.0</ele><time>2026-04-04T11:54:19.947Z</time></trkpt><trkpt lat="44.6619292" lon="8.3610769"><ele>168.0</ele><time>2026-04-04T11:54:20.947Z</time></trkpt><trkpt lat="44.6618179" lon="8.3608593"><ele>167.0</ele><time>2026-04-04T11:54:21.946Z</time></trkpt><trkpt lat="44.6617153" lon="8.3606511"><ele>166.33333333333331</ele><time>2026-04-04T11:54:22.947Z</time></trkpt><trkpt lat="44.6616126" lon="8.3604466"><ele>165.66666666666666</ele><time>2026-04-04T11:54:23.947Z</time></trkpt><trkpt lat="44.661519" lon="8.3602429"><ele>165.0</ele><time>2026-04-04T11:54:24.947Z</time></trkpt><trkpt lat="44.6614414" lon="8.3600235"><ele>165.0</ele><time>2026-04-04T11:54:25.947Z</time></trkpt><trkpt lat="44.6613902" lon="8.3597731"><ele>165.0</ele><time>2026-04-04T11:54:26.947Z</time></trkpt><trkpt lat="44.6613536" lon="8.3595042"><ele>165.0</ele><time>2026-04-04T11:54:27.946Z</time></trkpt><trkpt lat="44.6613247" lon="8.3592341"><ele>165.66666666666666</ele><time>2026-04-04T11:54:28.947Z</time></trkpt><trkpt lat="44.6612923" lon="8.358961"><ele>166.33333333333331</ele><time>2026-04-04T11:54:29.947Z</time></trkpt><trkpt lat="44.6612605" lon="8.3586878"><ele>167.0</ele><time>2026-04-04T11:54:30.947Z</time></trkpt><trkpt lat="44.6612357" lon="8.3584284"><ele>168.33333333333331</ele><time>2026-04-04T11:54:31.946Z</time></trkpt><trkpt lat="44.6612096" lon="8.3581667"><ele>169.66666666666666</ele><time>2026-04-04T11:54:32.946Z</time></trkpt><trkpt lat="44.6611854" lon="8.3578954"><ele>171.0</ele><time>2026-04-04T11:54:33.947Z</time></trkpt><trkpt lat="44.6611502" lon="8.3576137"><ele>171.33333333333334</ele><time>2026-04-04T11:54:34.947Z</time></trkpt><trkpt lat="44.6611167" lon="8.3573425"><ele>171.66666666666669</ele><time>2026-04-04T11:54:35.947Z</time></trkpt><trkpt lat="44.6610908" lon="8.3570652"><ele>172.0</ele><time>2026-04-04T11:54:36.947Z</time></trkpt><trkpt lat="44.6610636" lon="8.3567893"><ele>170.33333333333334</ele><time>2026-04-04T11:54:37.947Z</time></trkpt><trkpt lat="44.6610331" lon="8.3565038"><ele>168.66666666666666</ele><time>2026-04-04T11:54:38.946Z</time></trkpt><trkpt lat="44.6609914" lon="8.3562219"><ele>167.0</ele><time>2026-04-04T11:54:39.947Z</time></trkpt><trkpt lat="44.6609542" lon="8.3559417"><ele>167.0</ele><time>2026-04-04T11:54:40.947Z</time></trkpt><trkpt lat="44.6609186" lon="8.3556601"><ele>167.0</ele><time>2026-04-04T11:54:41.946Z</time></trkpt><trkpt lat="44.66089" lon="8.3553777"><ele>167.0</ele><time>2026-04-04T11:54:42.947Z</time></trkpt><trkpt lat="44.6608592" lon="8.3550984"><ele>168.0</ele><time>2026-04-04T11:54:43.947Z</time></trkpt><trkpt lat="44.6608239" lon="8.3548232"><ele>169.0</ele><time>2026-04-04T11:54:44.947Z</time></trkpt><trkpt lat="44.6607903" lon="8.3545438"><ele>170.0</ele><time>2026-04-04T11:54:45.946Z</time></trkpt><trkpt lat="44.6607553" lon="8.3542676"><ele>170.0</ele><time>2026-04-04T11:54:46.946Z</time></trkpt><trkpt lat="44.6607251" lon="8.3539915"><ele>170.0</ele><time>2026-04-04T11:54:47.947Z</time></trkpt><trkpt lat="44.6607013" lon="8.3537177"><ele>170.0</ele><time>2026-04-04T11:54:48.947Z</time></trkpt><trkpt lat="44.660668" lon="8.3534539"><ele>170.66666666666666</ele><time>2026-04-04T11:54:49.946Z</time></trkpt><trkpt lat="44.660637" lon="8.3531858"><ele>171.33333333333334</ele><time>2026-04-04T11:54:50.946Z</time></trkpt><trkpt lat="44.6606058" lon="8.3529169"><ele>172.0</ele><time>2026-04-04T11:54:51.947Z</time></trkpt><trkpt lat="44.6605808" lon="8.3526522"><ele>173.66666666666669</ele><time>2026-04-04T11:54:52.947Z</time></trkpt><trkpt lat="44.6605571" lon="8.3523901"><ele>175.33333333333334</ele><time>2026-04-04T11:54:53.946Z</time></trkpt><trkpt lat="44.6605315" lon="8.3521338"><ele>177.0</ele><time>2026-04-04T11:54:54.947Z</time></trkpt><trkpt lat="44.6605012" lon="8.3518922"><ele>179.66666666666666</ele><time>2026-04-04T11:54:55.946Z</time></trkpt><trkpt lat="44.6604651" lon="8.3516627"><ele>182.33333333333331</ele><time>2026-04-04T11:54:56.947Z</time></trkpt><trkpt lat="44.6604176" lon="8.3514389"><ele>185.0</ele><time>2026-04-04T11:54:57.947Z</time></trkpt><trkpt lat="44.6603626" lon="8.3512168"><ele>185.66666666666666</ele><time>2026-04-04T11:54:58.947Z</time></trkpt><trkpt lat="44.6603179" lon="8.3509855"><ele>186.33333333333334</ele><time>2026-04-04T11:54:59.947Z</time></trkpt><trkpt lat="44.6602898" lon="8.3507434"><ele>187.0</ele><time>2026-04-04T11:55:00.947Z</time></trkpt><trkpt lat="44.6602813" lon="8.3504932"><ele>183.66666666666669</ele><time>2026-04-04T11:55:01.947Z</time></trkpt><trkpt lat="44.6602716" lon="8.3502563"><ele>180.33333333333334</ele><time>2026-04-04T11:55:02.947Z</time></trkpt><trkpt lat="44.6602651" lon="8.3500182"><ele>177.0</ele><time>2026-04-04T11:55:03.946Z</time></trkpt><trkpt lat="44.6602687" lon="8.3497794"><ele>177.66666666666666</ele><time>2026-04-04T11:55:04.946Z</time></trkpt><trkpt lat="44.6602646" lon="8.3495393"><ele>178.33333333333331</ele><time>2026-04-04T11:55:05.947Z</time></trkpt><trkpt lat="44.6602547" lon="8.3492919"><ele>179.0</ele><time>2026-04-04T11:55:06.947Z</time></trkpt><trkpt lat="44.6602441" lon="8.3490435"><ele>179.66666666666666</ele><time>2026-04-04T11:55:07.947Z</time></trkpt><trkpt lat="44.6602371" lon="8.3487987"><ele>180.33333333333334</ele><time>2026-04-04T11:55:08.946Z</time></trkpt><trkpt lat="44.660234" lon="8.3485487"><ele>181.0</ele><time>2026-04-04T11:55:09.946Z</time></trkpt><trkpt lat="44.6602261" lon="8.3483157"><ele>181.0</ele><time>2026-04-04T11:55:10.947Z</time></trkpt><trkpt lat="44.6602267" lon="8.3480964"><ele>181.0</ele><time>2026-04-04T11:55:11.947Z</time></trkpt><trkpt lat="44.6602311" lon="8.3478862"><ele>181.0</ele><time>2026-04-04T11:55:12.947Z</time></trkpt><trkpt lat="44.6602368" lon="8.347676"><ele>182.33333333333334</ele><time>2026-04-04T11:55:13.946Z</time></trkpt><trkpt lat="44.6602285" lon="8.3474697"><ele>183.66666666666666</ele><time>2026-04-04T11:55:14.947Z</time></trkpt><trkpt lat="44.6602072" lon="8.3472596"><ele>185.0</ele><time>2026-04-04T11:55:15.947Z</time></trkpt><trkpt lat="44.6601689" lon="8.3470462"><ele>186.66666666666666</ele><time>2026-04-04T11:55:16.947Z</time></trkpt><trkpt lat="44.6601062" lon="8.3468425"><ele>188.33333333333334</ele><time>2026-04-04T11:55:17.946Z</time></trkpt><trkpt lat="44.6600181" lon="8.3466462"><ele>190.0</ele><time>2026-04-04T11:55:18.946Z</time></trkpt><trkpt lat="44.6599028" lon="8.3464647"><ele>191.66666666666669</ele><time>2026-04-04T11:55:19.947Z</time></trkpt><trkpt lat="44.6597827" lon="8.3462974"><ele>193.33333333333334</ele><time>2026-04-04T11:55:20.947Z</time></trkpt><trkpt lat="44.6596604" lon="8.3461479"><ele>195.0</ele><time>2026-04-04T11:55:21.947Z</time></trkpt><trkpt lat="44.6595507" lon="8.345991"><ele>193.66666666666666</ele><time>2026-04-04T11:55:22.947Z</time></trkpt><trkpt lat="44.6594495" lon="8.3458308"><ele>192.33333333333331</ele><time>2026-04-04T11:55:23.946Z</time></trkpt><trkpt lat="44.6593475" lon="8.3456758"><ele>191.0</ele><time>2026-04-04T11:55:24.947Z</time></trkpt><trkpt lat="44.6592518" lon="8.3455014"><ele>191.0</ele><time>2026-04-04T11:55:25.946Z</time></trkpt><trkpt lat="44.6591749" lon="8.3453152"><ele>191.0</ele><time>2026-04-04T11:55:26.947Z</time></trkpt><trkpt lat="44.6591042" lon="8.3451187"><ele>191.0</ele><time>2026-04-04T11:55:27.947Z</time></trkpt><trkpt lat="44.6590487" lon="8.344916"><ele>191.0</ele><time>2026-04-04T11:55:28.947Z</time></trkpt><trkpt lat="44.6590139" lon="8.344685"><ele>191.0</ele><time>2026-04-04T11:55:29.946Z</time></trkpt><trkpt lat="44.6589987" lon="8.3444564"><ele>191.0</ele><time>2026-04-04T11:55:30.946Z</time></trkpt><trkpt lat="44.6589979" lon="8.3442283"><ele>191.0</ele><time>2026-04-04T11:55:31.947Z</time></trkpt><trkpt lat="44.6590035" lon="8.3440133"><ele>191.0</ele><time>2026-04-04T11:55:32.947Z</time></trkpt><trkpt lat="44.6590054" lon="8.34381"><ele>191.0</ele><time>2026-04-04T11:55:33.947Z</time></trkpt><trkpt lat="44.6589932" lon="8.3436054"><ele>191.0</ele><time>2026-04-04T11:55:34.946Z</time></trkpt><trkpt lat="44.6589656" lon="8.3434105"><ele>191.0</ele><time>2026-04-04T11:55:35.946Z</time></trkpt><trkpt lat="44.6589121" lon="8.3432399"><ele>191.0</ele><time>2026-04-04T11:55:36.947Z</time></trkpt><trkpt lat="44.6588386" lon="8.3430754"><ele>191.0</ele><time>2026-04-04T11:55:37.946Z</time></trkpt><trkpt lat="44.6587447" lon="8.3429314"><ele>191.0</ele><time>2026-04-04T11:55:38.947Z</time></trkpt><trkpt lat="44.6586327" lon="8.3428205"><ele>192.33333333333331</ele><time>2026-04-04T11:55:39.947Z</time></trkpt><trkpt lat="44.6584904" lon="8.3427223"><ele>193.66666666666666</ele><time>2026-04-04T11:55:40.947Z</time></trkpt><trkpt lat="44.658334" lon="8.3426401"><ele>195.0</ele><time>2026-04-04T11:55:41.947Z</time></trkpt><trkpt lat="44.658175" lon="8.3425728"><ele>195.0</ele><time>2026-04-04T11:55:42.947Z</time></trkpt><trkpt lat="44.6580135" lon="8.3425"><ele>195.0</ele><time>2026-04-04T11:55:43.947Z</time></trkpt><trkpt lat="44.6578522" lon="8.3424178"><ele>195.0</ele><time>2026-04-04T11:55:44.947Z</time></trkpt><trkpt lat="44.6576842" lon="8.3423378"><ele>194.66666666666669</ele><time>2026-04-04T11:55:45.947Z</time></trkpt><trkpt lat="44.6575177" lon="8.3422599"><ele>194.33333333333334</ele><time>2026-04-04T11:55:46.947Z</time></trkpt><trkpt lat="44.657353" lon="8.3421804"><ele>194.0</ele><time>2026-04-04T11:55:47.946Z</time></trkpt><trkpt lat="44.6571889" lon="8.3420971"><ele>194.66666666666669</ele><time>2026-04-04T11:55:48.947Z</time></trkpt><trkpt lat="44.6570228" lon="8.3420228"><ele>195.33333333333331</ele><time>2026-04-04T11:55:49.947Z</time></trkpt><trkpt lat="44.6568633" lon="8.3419411"><ele>196.0</ele><time>2026-04-04T11:55:50.947Z</time></trkpt><trkpt lat="44.6567049" lon="8.3418608"><ele>196.0</ele><time>2026-04-04T11:55:51.947Z</time></trkpt><trkpt lat="44.6565479" lon="8.3417738"><ele>196.0</ele><time>2026-04-04T11:55:52.946Z</time></trkpt><trkpt lat="44.6563913" lon="8.3416905"><ele>196.0</ele><time>2026-04-04T11:55:53.947Z</time></trkpt><trkpt lat="44.6562314" lon="8.3416083"><ele>193.66666666666666</ele><time>2026-04-04T11:55:54.947Z</time></trkpt><trkpt lat="44.6560752" lon="8.3415303"><ele>191.33333333333331</ele><time>2026-04-04T11:55:55.947Z</time></trkpt><trkpt lat="44.6559245" lon="8.3414565"><ele>189.0</ele><time>2026-04-04T11:55:56.946Z</time></trkpt><trkpt lat="44.6557725" lon="8.3413823"><ele>190.66666666666669</ele><time>2026-04-04T11:55:57.947Z</time></trkpt><trkpt lat="44.6556113" lon="8.3413031"><ele>192.33333333333334</ele><time>2026-04-04T11:55:58.947Z</time></trkpt><trkpt lat="44.6554498" lon="8.3412334"><ele>194.0</ele><time>2026-04-04T11:55:59.946Z</time></trkpt><trkpt lat="44.655279" lon="8.3411772"><ele>194.0</ele><time>2026-04-04T11:56:00.947Z</time></trkpt><trkpt lat="44.6551055" lon="8.3411359"><ele>194.0</ele><time>2026-04-04T11:56:01.947Z</time></trkpt><trkpt lat="44.6549271" lon="8.3411028"><ele>194.0</ele><time>2026-04-04T11:56:02.947Z</time></trkpt><trkpt lat="44.6547495" lon="8.3410789"><ele>194.0</ele><time>2026-04-04T11:56:03.947Z</time></trkpt><trkpt lat="44.6545748" lon="8.3410601"><ele>194.0</ele><time>2026-04-04T11:56:04.947Z</time></trkpt><trkpt lat="44.6544038" lon="8.3410407"><ele>194.0</ele><time>2026-04-04T11:56:05.947Z</time></trkpt><trkpt lat="44.654245" lon="8.3410165"><ele>192.25</ele><time>2026-04-04T11:56:06.947Z</time></trkpt><trkpt lat="44.6540949" lon="8.3409924"><ele>190.5</ele><time>2026-04-04T11:56:07.947Z</time></trkpt><trkpt lat="44.6539538" lon="8.3409669"><ele>188.75</ele><time>2026-04-04T11:56:08.947Z</time></trkpt><trkpt lat="44.653815" lon="8.340955"><ele>187.0</ele><time>2026-04-04T11:56:09.947Z</time></trkpt><trkpt lat="44.6536727" lon="8.340973"><ele>183.33333333333334</ele><time>2026-04-04T11:56:10.947Z</time></trkpt><trkpt lat="44.6535152" lon="8.3410145"><ele>179.66666666666666</ele><time>2026-04-04T11:56:11.947Z</time></trkpt><trkpt lat="44.6533551" lon="8.3410715"><ele>176.0</ele><time>2026-04-04T11:56:12.947Z</time></trkpt><trkpt lat="44.6531921" lon="8.3411378"><ele>176.0</ele><time>2026-04-04T11:56:13.947Z</time></trkpt><trkpt lat="44.6530321" lon="8.3412012"><ele>176.0</ele><time>2026-04-04T11:56:14.947Z</time></trkpt><trkpt lat="44.6528738" lon="8.3412669"><ele>176.0</ele><time>2026-04-04T11:56:15.946Z</time></trkpt><trkpt lat="44.6527189" lon="8.3413347"><ele>177.33333333333331</ele><time>2026-04-04T11:56:16.947Z</time></trkpt><trkpt lat="44.6525627" lon="8.3414099"><ele>178.66666666666666</ele><time>2026-04-04T11:56:17.946Z</time></trkpt><trkpt lat="44.6524135" lon="8.3415052"><ele>180.0</ele><time>2026-04-04T11:56:18.947Z</time></trkpt><trkpt lat="44.6522644" lon="8.3416232"><ele>180.0</ele><time>2026-04-04T11:56:19.947Z</time></trkpt><trkpt lat="44.6521159" lon="8.34173"><ele>180.0</ele><time>2026-04-04T11:56:20.946Z</time></trkpt><trkpt lat="44.6519563" lon="8.3418165"><ele>180.0</ele><time>2026-04-04T11:56:21.947Z</time></trkpt><trkpt lat="44.6517944" lon="8.3418868"><ele>181.33333333333334</ele><time>2026-04-04T11:56:22.946Z</time></trkpt><trkpt lat="44.6516288" lon="8.3419467"><ele>182.66666666666669</ele><time>2026-04-04T11:56:23.947Z</time></trkpt><trkpt lat="44.6514568" lon="8.3420032"><ele>184.0</ele><time>2026-04-04T11:56:24.947Z</time></trkpt><trkpt lat="44.6512892" lon="8.3420624"><ele>185.66666666666669</ele><time>2026-04-04T11:56:25.947Z</time></trkpt><trkpt lat="44.6511143" lon="8.3421161"><ele>187.33333333333334</ele><time>2026-04-04T11:56:26.947Z</time></trkpt><trkpt lat="44.6509404" lon="8.3421743"><ele>189.0</ele><time>2026-04-04T11:56:27.947Z</time></trkpt><trkpt lat="44.6507655" lon="8.3422302"><ele>186.0</ele><time>2026-04-04T11:56:28.946Z</time></trkpt><trkpt lat="44.6505853" lon="8.3422807"><ele>183.0</ele><time>2026-04-04T11:56:29.947Z</time></trkpt><trkpt lat="44.6504112" lon="8.3423295"><ele>180.0</ele><time>2026-04-04T11:56:30.947Z</time></trkpt><trkpt lat="44.650245" lon="8.342363"><ele>180.0</ele><time>2026-04-04T11:56:31.946Z</time></trkpt><trkpt lat="44.650089" lon="8.3423841"><ele>180.0</ele><time>2026-04-04T11:56:32.947Z</time></trkpt><trkpt lat="44.6499332" lon="8.3423849"><ele>180.0</ele><time>2026-04-04T11:56:33.946Z</time></trkpt><trkpt lat="44.6497723" lon="8.3423674"><ele>180.0</ele><time>2026-04-04T11:56:34.946Z</time></trkpt><trkpt lat="44.6496241" lon="8.3423341"><ele>180.0</ele><time>2026-04-04T11:56:35.947Z</time></trkpt><trkpt lat="44.6494832" lon="8.3423016"><ele>180.0</ele><time>2026-04-04T11:56:36.947Z</time></trkpt><trkpt lat="44.6493411" lon="8.3422455"><ele>180.0</ele><time>2026-04-04T11:56:37.946Z</time></trkpt><trkpt lat="44.6492056" lon="8.3421665"><ele>182.66666666666666</ele><time>2026-04-04T11:56:38.947Z</time></trkpt><trkpt lat="44.6490813" lon="8.3420611"><ele>185.33333333333331</ele><time>2026-04-04T11:56:39.947Z</time></trkpt><trkpt lat="44.648962" lon="8.3419231"><ele>188.0</ele><time>2026-04-04T11:56:40.947Z</time></trkpt><trkpt lat="44.6488467" lon="8.3417609"><ele>188.0</ele><time>2026-04-04T11:56:41.947Z</time></trkpt><trkpt lat="44.6487407" lon="8.3415809"><ele>188.0</ele><time>2026-04-04T11:56:42.946Z</time></trkpt><trkpt lat="44.6486404" lon="8.3413815"><ele>188.0</ele><time>2026-04-04T11:56:43.946Z</time></trkpt><trkpt lat="44.6485448" lon="8.3411872"><ele>184.66666666666666</ele><time>2026-04-04T11:56:44.947Z</time></trkpt><trkpt lat="44.6484478" lon="8.3410031"><ele>181.33333333333334</ele><time>2026-04-04T11:56:45.946Z</time></trkpt><trkpt lat="44.648353" lon="8.340826"><ele>178.0</ele><time>2026-04-04T11:56:46.947Z</time></trkpt><trkpt lat="44.6482606" lon="8.3406539"><ele>179.5</ele><time>2026-04-04T11:56:47.947Z</time></trkpt><trkpt lat="44.6481726" lon="8.3404889"><ele>181.0</ele><time>2026-04-04T11:56:48.947Z</time></trkpt><trkpt lat="44.6480975" lon="8.3403241"><ele>182.5</ele><time>2026-04-04T11:56:49.947Z</time></trkpt><trkpt lat="44.6480378" lon="8.3401486"><ele>184.0</ele><time>2026-04-04T11:56:50.947Z</time></trkpt><trkpt lat="44.6479923" lon="8.3399453"><ele>184.0</ele><time>2026-04-04T11:56:51.947Z</time></trkpt><trkpt lat="44.6479666" lon="8.3397353"><ele>184.0</ele><time>2026-04-04T11:56:52.946Z</time></trkpt><trkpt lat="44.6479597" lon="8.3395121"><ele>184.0</ele><time>2026-04-04T11:56:53.946Z</time></trkpt><trkpt lat="44.6479795" lon="8.3392799"><ele>184.0</ele><time>2026-04-04T11:56:54.947Z</time></trkpt><trkpt lat="44.6480264" lon="8.3390415"><ele>184.0</ele><time>2026-04-04T11:56:55.947Z</time></trkpt><trkpt lat="44.6480764" lon="8.3388108"><ele>184.0</ele><time>2026-04-04T11:56:56.947Z</time></trkpt><trkpt lat="44.6481327" lon="8.3385868"><ele>184.33333333333334</ele><time>2026-04-04T11:56:57.947Z</time></trkpt><trkpt lat="44.6481899" lon="8.33838"><ele>184.66666666666666</ele><time>2026-04-04T11:56:58.947Z</time></trkpt><trkpt lat="44.648239" lon="8.3381769"><ele>185.0</ele><time>2026-04-04T11:56:59.947Z</time></trkpt><trkpt lat="44.6482953" lon="8.3379659"><ele>184.33333333333331</ele><time>2026-04-04T11:57:00.947Z</time></trkpt><trkpt lat="44.6483578" lon="8.3377505"><ele>183.66666666666666</ele><time>2026-04-04T11:57:01.947Z</time></trkpt><trkpt lat="44.648411" lon="8.3375375"><ele>183.0</ele><time>2026-04-04T11:57:02.947Z</time></trkpt><trkpt lat="44.6484586" lon="8.3373164"><ele>183.0</ele><time>2026-04-04T11:57:03.947Z</time></trkpt><trkpt lat="44.6484928" lon="8.3370875"><ele>183.0</ele><time>2026-04-04T11:57:04.946Z</time></trkpt><trkpt lat="44.6485183" lon="8.3368692"><ele>183.0</ele><time>2026-04-04T11:57:05.947Z</time></trkpt><trkpt lat="44.6485355" lon="8.3366605"><ele>183.0</ele><time>2026-04-04T11:57:06.947Z</time></trkpt><trkpt lat="44.6485471" lon="8.3364525"><ele>183.0</ele><time>2026-04-04T11:57:07.947Z</time></trkpt><trkpt lat="44.6485501" lon="8.3362428"><ele>183.0</ele><time>2026-04-04T11:57:08.947Z</time></trkpt><trkpt lat="44.6485454" lon="8.33602"><ele>182.66666666666666</ele><time>2026-04-04T11:57:09.947Z</time></trkpt><trkpt lat="44.6485293" lon="8.3357976"><ele>182.33333333333331</ele><time>2026-04-04T11:57:10.947Z</time></trkpt><trkpt lat="44.6485133" lon="8.3355759"><ele>182.0</ele><time>2026-04-04T11:57:11.947Z</time></trkpt><trkpt lat="44.6485005" lon="8.3353487"><ele>182.66666666666666</ele><time>2026-04-04T11:57:12.947Z</time></trkpt><trkpt lat="44.6484908" lon="8.3351146"><ele>183.33333333333334</ele><time>2026-04-04T11:57:13.946Z</time></trkpt><trkpt lat="44.648479" lon="8.3348766"><ele>184.0</ele><time>2026-04-04T11:57:14.947Z</time></trkpt><trkpt lat="44.6484585" lon="8.3346334"><ele>185.0</ele><time>2026-04-04T11:57:15.947Z</time></trkpt><trkpt lat="44.6484336" lon="8.3343897"><ele>186.0</ele><time>2026-04-04T11:57:16.946Z</time></trkpt><trkpt lat="44.6484109" lon="8.3341592"><ele>187.0</ele><time>2026-04-04T11:57:17.946Z</time></trkpt><trkpt lat="44.6483984" lon="8.333935"><ele>187.5</ele><time>2026-04-04T11:57:18.947Z</time></trkpt><trkpt lat="44.6483798" lon="8.3337253"><ele>188.0</ele><time>2026-04-04T11:57:19.947Z</time></trkpt><trkpt lat="44.6483656" lon="8.3335187"><ele>188.5</ele><time>2026-04-04T11:57:20.947Z</time></trkpt><trkpt lat="44.6483513" lon="8.3333092"><ele>189.0</ele><time>2026-04-04T11:57:21.947Z</time></trkpt><trkpt lat="44.6483267" lon="8.3330973"><ele>189.5</ele><time>2026-04-04T11:57:22.947Z</time></trkpt><trkpt lat="44.6483008" lon="8.3329012"><ele>190.0</ele><time>2026-04-04T11:57:23.946Z</time></trkpt><trkpt lat="44.6482831" lon="8.3327108"><ele>190.5</ele><time>2026-04-04T11:57:24.947Z</time></trkpt><trkpt lat="44.6482702" lon="8.3325239"><ele>191.0</ele><time>2026-04-04T11:57:25.947Z</time></trkpt><trkpt lat="44.6482571" lon="8.3323308"><ele>190.66666666666666</ele><time>2026-04-04T11:57:26.947Z</time></trkpt><trkpt lat="44.6482454" lon="8.3321301"><ele>190.33333333333334</ele><time>2026-04-04T11:57:27.947Z</time></trkpt><trkpt lat="44.648249" lon="8.3319148"><ele>190.0</ele><time>2026-04-04T11:57:28.946Z</time></trkpt><trkpt lat="44.6482598" lon="8.331695"><ele>190.0</ele><time>2026-04-04T11:57:29.947Z</time></trkpt><trkpt lat="44.6482757" lon="8.3314662"><ele>190.0</ele><time>2026-04-04T11:57:30.946Z</time></trkpt><trkpt lat="44.6482876" lon="8.3312413"><ele>190.0</ele><time>2026-04-04T11:57:31.947Z</time></trkpt><trkpt lat="44.6482964" lon="8.3310338"><ele>190.0</ele><time>2026-04-04T11:57:32.947Z</time></trkpt><trkpt lat="44.6483048" lon="8.3308378"><ele>190.0</ele><time>2026-04-04T11:57:33.947Z</time></trkpt><trkpt lat="44.6483192" lon="8.3306586"><ele>190.0</ele><time>2026-04-04T11:57:34.947Z</time></trkpt><trkpt lat="44.6483299" lon="8.3304828"><ele>190.0</ele><time>2026-04-04T11:57:35.946Z</time></trkpt><trkpt lat="44.6483435" lon="8.3303128"><ele>190.0</ele><time>2026-04-04T11:57:36.947Z</time></trkpt><trkpt lat="44.6483533" lon="8.330155"><ele>190.0</ele><time>2026-04-04T11:57:37.947Z</time></trkpt><trkpt lat="44.6483638" lon="8.3300031"><ele>190.0</ele><time>2026-04-04T11:57:38.947Z</time></trkpt><trkpt lat="44.6483745" lon="8.3298527"><ele>190.0</ele><time>2026-04-04T11:57:39.947Z</time></trkpt><trkpt lat="44.6483801" lon="8.3297027"><ele>190.0</ele><time>2026-04-04T11:57:40.946Z</time></trkpt><trkpt lat="44.6483887" lon="8.3295585"><ele>190.0</ele><time>2026-04-04T11:57:41.947Z</time></trkpt><trkpt lat="44.6483939" lon="8.3294192"><ele>190.0</ele><time>2026-04-04T11:57:42.946Z</time></trkpt><trkpt lat="44.6483902" lon="8.329284"><ele>190.0</ele><time>2026-04-04T11:57:43.947Z</time></trkpt><trkpt lat="44.6483884" lon="8.3291394"><ele>190.0</ele><time>2026-04-04T11:57:44.947Z</time></trkpt><trkpt lat="44.6483961" lon="8.3289916"><ele>190.0</ele><time>2026-04-04T11:57:45.947Z</time></trkpt><trkpt lat="44.6484042" lon="8.3288465"><ele>190.0</ele><time>2026-04-04T11:57:46.947Z</time></trkpt><trkpt lat="44.6484101" lon="8.3286944"><ele>190.0</ele><time>2026-04-04T11:57:47.947Z</time></trkpt><trkpt lat="44.6484181" lon="8.3285357"><ele>190.0</ele><time>2026-04-04T11:57:48.947Z</time></trkpt><trkpt lat="44.6484249" lon="8.3283771"><ele>190.0</ele><time>2026-04-04T11:57:49.947Z</time></trkpt><trkpt lat="44.6484229" lon="8.3282152"><ele>190.25</ele><time>2026-04-04T11:57:50.946Z</time></trkpt><trkpt lat="44.6484091" lon="8.3280502"><ele>190.5</ele><time>2026-04-04T11:57:51.947Z</time></trkpt><trkpt lat="44.6483814" lon="8.3278752"><ele>190.75</ele><time>2026-04-04T11:57:52.946Z</time></trkpt><trkpt lat="44.648346" lon="8.3277007"><ele>191.0</ele><time>2026-04-04T11:57:53.947Z</time></trkpt><trkpt lat="44.6483051" lon="8.3275388"><ele>191.0</ele><time>2026-04-04T11:57:54.947Z</time></trkpt><trkpt lat="44.6482727" lon="8.3273809"><ele>191.0</ele><time>2026-04-04T11:57:55.946Z</time></trkpt><trkpt lat="44.6482406" lon="8.3272234"><ele>191.0</ele><time>2026-04-04T11:57:56.945Z</time></trkpt><trkpt lat="44.6481993" lon="8.3270657"><ele>191.0</ele><time>2026-04-04T11:57:57.945Z</time></trkpt><trkpt lat="44.6481581" lon="8.3269077"><ele>191.8</ele><time>2026-04-04T11:57:58.946Z</time></trkpt><trkpt lat="44.648133" lon="8.3267478"><ele>192.60000000000002</ele><time>2026-04-04T11:57:59.945Z</time></trkpt><trkpt lat="44.6481161" lon="8.3265956"><ele>193.4</ele><time>2026-04-04T11:58:00.945Z</time></trkpt><trkpt lat="44.6481089" lon="8.3264561"><ele>194.2</ele><time>2026-04-04T11:58:01.946Z</time></trkpt><trkpt lat="44.6481057" lon="8.3263345"><ele>195.0</ele><time>2026-04-04T11:58:02.946Z</time></trkpt><trkpt lat="44.6481059" lon="8.32623"><ele>195.4</ele><time>2026-04-04T11:58:03.946Z</time></trkpt><trkpt lat="44.6481159" lon="8.3261361"><ele>195.8</ele><time>2026-04-04T11:58:04.945Z</time></trkpt><trkpt lat="44.6481581" lon="8.3259861"><ele>196.2</ele><time>2026-04-04T11:58:06.946Z</time></trkpt><trkpt lat="44.6482612" lon="8.3258618"><ele>196.6</ele><time>2026-04-04T11:58:08.945Z</time></trkpt><trkpt lat="44.6483314" lon="8.3257982"><ele>197.0</ele><time>2026-04-04T11:58:09.946Z</time></trkpt><trkpt lat="44.6484012" lon="8.3257423"><ele>197.00000000000003</ele><time>2026-04-04T11:58:10.946Z</time></trkpt><trkpt lat="44.6484669" lon="8.3256842"><ele>197.0</ele><time>2026-04-04T11:58:11.946Z</time></trkpt><trkpt lat="44.6485197" lon="8.3256269"><ele>197.0</ele><time>2026-04-04T11:58:12.946Z</time></trkpt><trkpt lat="44.6486041" lon="8.3254931"><ele>197.0</ele><time>2026-04-04T11:58:14.946Z</time></trkpt><trkpt lat="44.6486455" lon="8.3254049"><ele>197.00000000000003</ele><time>2026-04-04T11:58:15.946Z</time></trkpt><trkpt lat="44.6486934" lon="8.3253003"><ele>197.0</ele><time>2026-04-04T11:58:16.946Z</time></trkpt><trkpt lat="44.6487557" lon="8.3251709"><ele>197.5</ele><time>2026-04-04T11:58:17.946Z</time></trkpt><trkpt lat="44.6488227" lon="8.3250256"><ele>198.0</ele><time>2026-04-04T11:58:18.946Z</time></trkpt><trkpt lat="44.6488973" lon="8.3248765"><ele>198.5</ele><time>2026-04-04T11:58:19.946Z</time></trkpt><trkpt lat="44.6489875" lon="8.3247185"><ele>199.0</ele><time>2026-04-04T11:58:20.946Z</time></trkpt><trkpt lat="44.6490847" lon="8.3245623"><ele>197.0</ele><time>2026-04-04T11:58:21.946Z</time></trkpt><trkpt lat="44.6491905" lon="8.3243824"><ele>195.0</ele><time>2026-04-04T11:58:22.946Z</time></trkpt><trkpt lat="44.6492973" lon="8.3241935"><ele>193.0</ele><time>2026-04-04T11:58:23.946Z</time></trkpt><trkpt lat="44.64939" lon="8.3240104"><ele>194.0</ele><time>2026-04-04T11:58:24.946Z</time></trkpt><trkpt lat="44.6494903" lon="8.3238186"><ele>195.0</ele><time>2026-04-04T11:58:25.945Z</time></trkpt><trkpt lat="44.6495936" lon="8.3236235"><ele>196.0</ele><time>2026-04-04T11:58:26.946Z</time></trkpt><trkpt lat="44.6496963" lon="8.323426"><ele>196.0</ele><time>2026-04-04T11:58:27.946Z</time></trkpt><trkpt lat="44.6497972" lon="8.3232233"><ele>196.0</ele><time>2026-04-04T11:58:28.946Z</time></trkpt><trkpt lat="44.6498918" lon="8.323031"><ele>196.0</ele><time>2026-04-04T11:58:29.946Z</time></trkpt><trkpt lat="44.6499827" lon="8.3228532"><ele>197.25</ele><time>2026-04-04T11:58:30.946Z</time></trkpt><trkpt lat="44.6500678" lon="8.322689"><ele>198.5</ele><time>2026-04-04T11:58:31.946Z</time></trkpt><trkpt lat="44.6501465" lon="8.3225339"><ele>199.75</ele><time>2026-04-04T11:58:32.946Z</time></trkpt><trkpt lat="44.6502167" lon="8.3223821"><ele>201.0</ele><time>2026-04-04T11:58:33.946Z</time></trkpt><trkpt lat="44.6502958" lon="8.322218"><ele>201.0</ele><time>2026-04-04T11:58:34.946Z</time></trkpt><trkpt lat="44.6503638" lon="8.3220466"><ele>201.0</ele><time>2026-04-04T11:58:35.946Z</time></trkpt><trkpt lat="44.65043" lon="8.3218679"><ele>201.0</ele><time>2026-04-04T11:58:36.946Z</time></trkpt><trkpt lat="44.6504975" lon="8.3216789"><ele>201.0</ele><time>2026-04-04T11:58:37.946Z</time></trkpt><trkpt lat="44.650566" lon="8.3214817"><ele>197.66666666666666</ele><time>2026-04-04T11:58:38.946Z</time></trkpt><trkpt lat="44.650644" lon="8.3212809"><ele>194.33333333333331</ele><time>2026-04-04T11:58:39.946Z</time></trkpt><trkpt lat="44.6507221" lon="8.3210854"><ele>191.0</ele><time>2026-04-04T11:58:40.946Z</time></trkpt><trkpt lat="44.6508064" lon="8.3208867"><ele>191.0</ele><time>2026-04-04T11:58:41.946Z</time></trkpt><trkpt lat="44.6509058" lon="8.3206799"><ele>191.0</ele><time>2026-04-04T11:58:42.946Z</time></trkpt><trkpt lat="44.6510105" lon="8.3204677"><ele>191.0</ele><time>2026-04-04T11:58:43.945Z</time></trkpt><trkpt lat="44.6511203" lon="8.320254"><ele>192.0</ele><time>2026-04-04T11:58:44.945Z</time></trkpt><trkpt lat="44.6512234" lon="8.3200388"><ele>193.0</ele><time>2026-04-04T11:58:45.945Z</time></trkpt><trkpt lat="44.6513276" lon="8.319817"><ele>194.0</ele><time>2026-04-04T11:58:46.946Z</time></trkpt><trkpt lat="44.6514202" lon="8.3195872"><ele>194.0</ele><time>2026-04-04T11:58:47.946Z</time></trkpt><trkpt lat="44.6515197" lon="8.319364"><ele>194.0</ele><time>2026-04-04T11:58:48.946Z</time></trkpt><trkpt lat="44.6516256" lon="8.3191419"><ele>194.0</ele><time>2026-04-04T11:58:49.945Z</time></trkpt><trkpt lat="44.6517327" lon="8.3189162"><ele>192.0</ele><time>2026-04-04T11:58:50.946Z</time></trkpt><trkpt lat="44.651842" lon="8.3186977"><ele>190.0</ele><time>2026-04-04T11:58:51.945Z</time></trkpt><trkpt lat="44.6519465" lon="8.3184774"><ele>188.0</ele><time>2026-04-04T11:58:52.946Z</time></trkpt><trkpt lat="44.6520466" lon="8.3182558"><ele>192.66666666666666</ele><time>2026-04-04T11:58:53.945Z</time></trkpt><trkpt lat="44.6521381" lon="8.3180305"><ele>197.33333333333331</ele><time>2026-04-04T11:58:54.946Z</time></trkpt><trkpt lat="44.6522216" lon="8.317798"><ele>202.0</ele><time>2026-04-04T11:58:55.946Z</time></trkpt><trkpt lat="44.6522915" lon="8.317555"><ele>202.0</ele><time>2026-04-04T11:58:56.945Z</time></trkpt><trkpt lat="44.6523481" lon="8.3173079"><ele>202.0</ele><time>2026-04-04T11:58:57.945Z</time></trkpt><trkpt lat="44.6524056" lon="8.3170576"><ele>202.0</ele><time>2026-04-04T11:58:58.946Z</time></trkpt><trkpt lat="44.6524656" lon="8.3168032"><ele>200.0</ele><time>2026-04-04T11:58:59.946Z</time></trkpt><trkpt lat="44.6525268" lon="8.3165494"><ele>198.0</ele><time>2026-04-04T11:59:00.946Z</time></trkpt><trkpt lat="44.6525858" lon="8.3163088"><ele>196.0</ele><time>2026-04-04T11:59:01.946Z</time></trkpt><trkpt lat="44.6526379" lon="8.3160737"><ele>195.66666666666666</ele><time>2026-04-04T11:59:02.946Z</time></trkpt><trkpt lat="44.6526953" lon="8.3158398"><ele>195.33333333333331</ele><time>2026-04-04T11:59:03.946Z</time></trkpt><trkpt lat="44.6527465" lon="8.3156126"><ele>195.0</ele><time>2026-04-04T11:59:04.946Z</time></trkpt><trkpt lat="44.6527966" lon="8.3153893"><ele>196.33333333333331</ele><time>2026-04-04T11:59:05.946Z</time></trkpt><trkpt lat="44.6528524" lon="8.3151596"><ele>197.66666666666666</ele><time>2026-04-04T11:59:06.945Z</time></trkpt><trkpt lat="44.6529131" lon="8.3149371"><ele>199.0</ele><time>2026-04-04T11:59:07.945Z</time></trkpt><trkpt lat="44.6529842" lon="8.3147138"><ele>199.0</ele><time>2026-04-04T11:59:08.946Z</time></trkpt><trkpt lat="44.6530613" lon="8.3144947"><ele>199.0</ele><time>2026-04-04T11:59:09.946Z</time></trkpt><trkpt lat="44.6531543" lon="8.3142868"><ele>199.0</ele><time>2026-04-04T11:59:10.946Z</time></trkpt><trkpt lat="44.653274" lon="8.3141038"><ele>199.0</ele><time>2026-04-04T11:59:11.945Z</time></trkpt><trkpt lat="44.653406" lon="8.3139428"><ele>199.0</ele><time>2026-04-04T11:59:12.945Z</time></trkpt><trkpt lat="44.6535524" lon="8.3137938"><ele>199.0</ele><time>2026-04-04T11:59:13.945Z</time></trkpt><trkpt lat="44.6537059" lon="8.3136481"><ele>197.66666666666666</ele><time>2026-04-04T11:59:14.945Z</time></trkpt><trkpt lat="44.6538527" lon="8.3134955"><ele>196.33333333333331</ele><time>2026-04-04T11:59:15.946Z</time></trkpt><trkpt lat="44.653992" lon="8.3133361"><ele>195.0</ele><time>2026-04-04T11:59:16.946Z</time></trkpt><trkpt lat="44.6541346" lon="8.3131731"><ele>196.0</ele><time>2026-04-04T11:59:17.946Z</time></trkpt><trkpt lat="44.6542789" lon="8.3130075"><ele>197.0</ele><time>2026-04-04T11:59:18.946Z</time></trkpt><trkpt lat="44.654421" lon="8.3128403"><ele>198.0</ele><time>2026-04-04T11:59:19.945Z</time></trkpt><trkpt lat="44.6545629" lon="8.312672"><ele>198.0</ele><time>2026-04-04T11:59:20.945Z</time></trkpt><trkpt lat="44.6547002" lon="8.3125014"><ele>198.0</ele><time>2026-04-04T11:59:21.946Z</time></trkpt><trkpt lat="44.6548434" lon="8.3123364"><ele>198.0</ele><time>2026-04-04T11:59:22.946Z</time></trkpt><trkpt lat="44.6549749" lon="8.3121846"><ele>197.66666666666669</ele><time>2026-04-04T11:59:23.945Z</time></trkpt><trkpt lat="44.6551023" lon="8.3120362"><ele>197.33333333333334</ele><time>2026-04-04T11:59:24.946Z</time></trkpt><trkpt lat="44.6552356" lon="8.3118884"><ele>197.0</ele><time>2026-04-04T11:59:25.946Z</time></trkpt><trkpt lat="44.6553565" lon="8.3117421"><ele>197.0</ele><time>2026-04-04T11:59:26.945Z</time></trkpt><trkpt lat="44.6554746" lon="8.3115929"><ele>197.0</ele><time>2026-04-04T11:59:27.946Z</time></trkpt><trkpt lat="44.655604" lon="8.3114389"><ele>197.0</ele><time>2026-04-04T11:59:28.945Z</time></trkpt><trkpt lat="44.6557333" lon="8.3112808"><ele>195.66666666666669</ele><time>2026-04-04T11:59:29.946Z</time></trkpt><trkpt lat="44.6558685" lon="8.3111234"><ele>194.33333333333331</ele><time>2026-04-04T11:59:30.945Z</time></trkpt><trkpt lat="44.6560018" lon="8.3109694"><ele>193.0</ele><time>2026-04-04T11:59:31.946Z</time></trkpt><trkpt lat="44.6561356" lon="8.3108142"><ele>193.0</ele><time>2026-04-04T11:59:32.946Z</time></trkpt><trkpt lat="44.6562642" lon="8.3106497"><ele>193.0</ele><time>2026-04-04T11:59:33.945Z</time></trkpt><trkpt lat="44.6563902" lon="8.3104785"><ele>193.0</ele><time>2026-04-04T11:59:34.945Z</time></trkpt><trkpt lat="44.6565163" lon="8.3103057"><ele>193.0</ele><time>2026-04-04T11:59:35.946Z</time></trkpt><trkpt lat="44.6566415" lon="8.3101368"><ele>193.0</ele><time>2026-04-04T11:59:36.946Z</time></trkpt><trkpt lat="44.656753" lon="8.3099719"><ele>193.0</ele><time>2026-04-04T11:59:37.946Z</time></trkpt><trkpt lat="44.6568601" lon="8.3098082"><ele>192.66666666666666</ele><time>2026-04-04T11:59:38.946Z</time></trkpt><trkpt lat="44.6569684" lon="8.3096445"><ele>192.33333333333331</ele><time>2026-04-04T11:59:39.946Z</time></trkpt><trkpt lat="44.6570695" lon="8.3094779"><ele>192.0</ele><time>2026-04-04T11:59:40.946Z</time></trkpt><trkpt lat="44.6571754" lon="8.3093047"><ele>192.0</ele><time>2026-04-04T11:59:41.946Z</time></trkpt><trkpt lat="44.6572808" lon="8.3091415"><ele>192.0</ele><time>2026-04-04T11:59:42.946Z</time></trkpt><trkpt lat="44.657387" lon="8.3089792"><ele>192.0</ele><time>2026-04-04T11:59:43.945Z</time></trkpt><trkpt lat="44.657494" lon="8.3088183"><ele>192.0</ele><time>2026-04-04T11:59:44.946Z</time></trkpt><trkpt lat="44.6576047" lon="8.3086562"><ele>192.0</ele><time>2026-04-04T11:59:45.946Z</time></trkpt><trkpt lat="44.6577189" lon="8.3084916"><ele>192.0</ele><time>2026-04-04T11:59:46.946Z</time></trkpt><trkpt lat="44.6578237" lon="8.308323"><ele>192.33333333333331</ele><time>2026-04-04T11:59:47.946Z</time></trkpt><trkpt lat="44.6579339" lon="8.3081549"><ele>192.66666666666666</ele><time>2026-04-04T11:59:48.946Z</time></trkpt><trkpt lat="44.658046" lon="8.3079787"><ele>193.0</ele><time>2026-04-04T11:59:49.946Z</time></trkpt><trkpt lat="44.6581571" lon="8.3077996"><ele>192.33333333333331</ele><time>2026-04-04T11:59:50.945Z</time></trkpt><trkpt lat="44.6582659" lon="8.3076192"><ele>191.66666666666666</ele><time>2026-04-04T11:59:51.946Z</time></trkpt><trkpt lat="44.6583739" lon="8.3074394"><ele>191.0</ele><time>2026-04-04T11:59:52.946Z</time></trkpt><trkpt lat="44.6584841" lon="8.307262"><ele>190.33333333333331</ele><time>2026-04-04T11:59:53.945Z</time></trkpt><trkpt lat="44.6585916" lon="8.3070941"><ele>189.66666666666666</ele><time>2026-04-04T11:59:54.946Z</time></trkpt><trkpt lat="44.6586962" lon="8.3069371"><ele>189.0</ele><time>2026-04-04T11:59:55.946Z</time></trkpt><trkpt lat="44.6587986" lon="8.306786"><ele>189.0</ele><time>2026-04-04T11:59:56.946Z</time></trkpt><trkpt lat="44.6589037" lon="8.3066469"><ele>189.0</ele><time>2026-04-04T11:59:57.946Z</time></trkpt><trkpt lat="44.6590195" lon="8.3065143"><ele>189.0</ele><time>2026-04-04T11:59:58.946Z</time></trkpt><trkpt lat="44.6591392" lon="8.3063863"><ele>189.0</ele><time>2026-04-04T11:59:59.945Z</time></trkpt><trkpt lat="44.6592558" lon="8.3062568"><ele>187.66666666666666</ele><time>2026-04-04T12:00:00.946Z</time></trkpt><trkpt lat="44.6593642" lon="8.3061058"><ele>186.33333333333331</ele><time>2026-04-04T12:00:01.946Z</time></trkpt><trkpt lat="44.6594661" lon="8.3059392"><ele>185.0</ele><time>2026-04-04T12:00:02.945Z</time></trkpt><trkpt lat="44.6595616" lon="8.3057612"><ele>185.0</ele><time>2026-04-04T12:00:03.945Z</time></trkpt><trkpt lat="44.6596514" lon="8.3055831"><ele>185.0</ele><time>2026-04-04T12:00:04.945Z</time></trkpt><trkpt lat="44.6597404" lon="8.3054029"><ele>185.0</ele><time>2026-04-04T12:00:05.946Z</time></trkpt><trkpt lat="44.6598241" lon="8.3052245"><ele>184.75</ele><time>2026-04-04T12:00:06.946Z</time></trkpt><trkpt lat="44.6598987" lon="8.3050469"><ele>184.5</ele><time>2026-04-04T12:00:07.946Z</time></trkpt><trkpt lat="44.6599677" lon="8.3048669"><ele>184.25</ele><time>2026-04-04T12:00:08.945Z</time></trkpt><trkpt lat="44.6600358" lon="8.304691"><ele>184.0</ele><time>2026-04-04T12:00:09.945Z</time></trkpt><trkpt lat="44.6601046" lon="8.3045196"><ele>184.0</ele><time>2026-04-04T12:00:10.946Z</time></trkpt><trkpt lat="44.6601827" lon="8.3043516"><ele>184.0</ele><time>2026-04-04T12:00:11.946Z</time></trkpt><trkpt lat="44.6602577" lon="8.3041836"><ele>184.0</ele><time>2026-04-04T12:00:12.946Z</time></trkpt><trkpt lat="44.6603314" lon="8.3040133"><ele>184.0</ele><time>2026-04-04T12:00:13.946Z</time></trkpt><trkpt lat="44.6604059" lon="8.3038433"><ele>184.0</ele><time>2026-04-04T12:00:14.946Z</time></trkpt><trkpt lat="44.6604803" lon="8.3036706"><ele>184.0</ele><time>2026-04-04T12:00:15.945Z</time></trkpt><trkpt lat="44.6605596" lon="8.3034964"><ele>184.0</ele><time>2026-04-04T12:00:16.946Z</time></trkpt><trkpt lat="44.6606397" lon="8.3033204"><ele>184.0</ele><time>2026-04-04T12:00:17.946Z</time></trkpt><trkpt lat="44.6607215" lon="8.3031521"><ele>183.25</ele><time>2026-04-04T12:00:18.945Z</time></trkpt><trkpt lat="44.660801" lon="8.3029839"><ele>182.5</ele><time>2026-04-04T12:00:19.946Z</time></trkpt><trkpt lat="44.6608832" lon="8.3028134"><ele>181.75</ele><time>2026-04-04T12:00:20.945Z</time></trkpt><trkpt lat="44.6609648" lon="8.3026397"><ele>181.0</ele><time>2026-04-04T12:00:21.945Z</time></trkpt><trkpt lat="44.6610463" lon="8.3024662"><ele>181.5</ele><time>2026-04-04T12:00:22.946Z</time></trkpt><trkpt lat="44.6611258" lon="8.3022917"><ele>182.0</ele><time>2026-04-04T12:00:23.946Z</time></trkpt><trkpt lat="44.6612056" lon="8.302117"><ele>182.5</ele><time>2026-04-04T12:00:24.945Z</time></trkpt><trkpt lat="44.6612845" lon="8.3019456"><ele>183.0</ele><time>2026-04-04T12:00:25.945Z</time></trkpt><trkpt lat="44.661364" lon="8.3017642"><ele>183.0</ele><time>2026-04-04T12:00:26.946Z</time></trkpt><trkpt lat="44.6614377" lon="8.3015894"><ele>183.0</ele><time>2026-04-04T12:00:27.946Z</time></trkpt><trkpt lat="44.661516" lon="8.3014043"><ele>183.0</ele><time>2026-04-04T12:00:28.946Z</time></trkpt><trkpt lat="44.6615859" lon="8.3012288"><ele>183.0</ele><time>2026-04-04T12:00:29.945Z</time></trkpt><trkpt lat="44.6616569" lon="8.301055"><ele>183.0</ele><time>2026-04-04T12:00:30.946Z</time></trkpt><trkpt lat="44.6617309" lon="8.300882"><ele>183.0</ele><time>2026-04-04T12:00:31.945Z</time></trkpt><trkpt lat="44.661807" lon="8.3007165"><ele>183.0</ele><time>2026-04-04T12:00:32.946Z</time></trkpt><trkpt lat="44.6618799" lon="8.3005516"><ele>183.0</ele><time>2026-04-04T12:00:33.945Z</time></trkpt><trkpt lat="44.6619603" lon="8.3003844"><ele>184.0</ele><time>2026-04-04T12:00:34.946Z</time></trkpt><trkpt lat="44.6620403" lon="8.3002137"><ele>185.0</ele><time>2026-04-04T12:00:35.946Z</time></trkpt><trkpt lat="44.6621202" lon="8.3000395"><ele>186.0</ele><time>2026-04-04T12:00:36.946Z</time></trkpt><trkpt lat="44.662194" lon="8.2998654"><ele>187.0</ele><time>2026-04-04T12:00:37.946Z</time></trkpt><trkpt lat="44.6622646" lon="8.2997057"><ele>188.0</ele><time>2026-04-04T12:00:38.946Z</time></trkpt><trkpt lat="44.6623344" lon="8.2995462"><ele>189.0</ele><time>2026-04-04T12:00:39.946Z</time></trkpt><trkpt lat="44.6623951" lon="8.2993955"><ele>190.0</ele><time>2026-04-04T12:00:40.946Z</time></trkpt><trkpt lat="44.6624659" lon="8.2992428"><ele>191.0</ele><time>2026-04-04T12:00:41.945Z</time></trkpt><trkpt lat="44.6625375" lon="8.2990883"><ele>191.0</ele><time>2026-04-04T12:00:42.946Z</time></trkpt><trkpt lat="44.6626064" lon="8.2989266"><ele>191.0</ele><time>2026-04-04T12:00:43.946Z</time></trkpt><trkpt lat="44.6626578" lon="8.298763"><ele>191.0</ele><time>2026-04-04T12:00:44.945Z</time></trkpt><trkpt lat="44.662689" lon="8.2985956"><ele>191.0</ele><time>2026-04-04T12:00:45.946Z</time></trkpt><trkpt lat="44.6626947" lon="8.2984188"><ele>191.5</ele><time>2026-04-04T12:00:46.945Z</time></trkpt><trkpt lat="44.6626901" lon="8.2982403"><ele>192.0</ele><time>2026-04-04T12:00:47.946Z</time></trkpt><trkpt lat="44.6626979" lon="8.2980633"><ele>192.5</ele><time>2026-04-04T12:00:48.946Z</time></trkpt><trkpt lat="44.6627281" lon="8.2978964"><ele>193.0</ele><time>2026-04-04T12:00:49.946Z</time></trkpt><trkpt lat="44.6627827" lon="8.2977328"><ele>193.75</ele><time>2026-04-04T12:00:50.945Z</time></trkpt><trkpt lat="44.6628542" lon="8.2975788"><ele>194.5</ele><time>2026-04-04T12:00:51.945Z</time></trkpt><trkpt lat="44.6629312" lon="8.2974411"><ele>195.25</ele><time>2026-04-04T12:00:52.945Z</time></trkpt><trkpt lat="44.6630091" lon="8.2973173"><ele>196.0</ele><time>2026-04-04T12:00:53.946Z</time></trkpt><trkpt lat="44.6630878" lon="8.2971966"><ele>198.0</ele><time>2026-04-04T12:00:54.945Z</time></trkpt><trkpt lat="44.6631684" lon="8.2970677"><ele>200.0</ele><time>2026-04-04T12:00:55.946Z</time></trkpt><trkpt lat="44.6632636" lon="8.2969335"><ele>202.0</ele><time>2026-04-04T12:00:56.945Z</time></trkpt><trkpt lat="44.6633446" lon="8.2967933"><ele>204.0</ele><time>2026-04-04T12:00:57.946Z</time></trkpt><trkpt lat="44.6634215" lon="8.2966616"><ele>204.0</ele><time>2026-04-04T12:00:58.946Z</time></trkpt><trkpt lat="44.6634993" lon="8.2965386"><ele>204.0</ele><time>2026-04-04T12:00:59.946Z</time></trkpt><trkpt lat="44.6635747" lon="8.2964159"><ele>204.0</ele><time>2026-04-04T12:01:00.945Z</time></trkpt><trkpt lat="44.663652" lon="8.2962868"><ele>204.0</ele><time>2026-04-04T12:01:01.946Z</time></trkpt><trkpt lat="44.6637324" lon="8.2961674"><ele>205.5</ele><time>2026-04-04T12:01:02.946Z</time></trkpt><trkpt lat="44.6638084" lon="8.2960488"><ele>207.0</ele><time>2026-04-04T12:01:03.946Z</time></trkpt><trkpt lat="44.6638844" lon="8.2959327"><ele>208.5</ele><time>2026-04-04T12:01:04.946Z</time></trkpt><trkpt lat="44.6639586" lon="8.2958112"><ele>210.0</ele><time>2026-04-04T12:01:05.946Z</time></trkpt><trkpt lat="44.6640364" lon="8.2956949"><ele>210.0</ele><time>2026-04-04T12:01:06.946Z</time></trkpt><trkpt lat="44.6641201" lon="8.2955929"><ele>210.0</ele><time>2026-04-04T12:01:07.946Z</time></trkpt><trkpt lat="44.6642039" lon="8.2954927"><ele>210.0</ele><time>2026-04-04T12:01:08.945Z</time></trkpt><trkpt lat="44.6642871" lon="8.2954051"><ele>210.0</ele><time>2026-04-04T12:01:09.945Z</time></trkpt><trkpt lat="44.6643619" lon="8.2953268"><ele>210.0</ele><time>2026-04-04T12:01:10.945Z</time></trkpt><trkpt lat="44.664414" lon="8.2952352"><ele>210.16666666666666</ele><time>2026-04-04T12:01:11.946Z</time></trkpt><trkpt lat="44.6644669" lon="8.2951502"><ele>210.33333333333331</ele><time>2026-04-04T12:01:12.946Z</time></trkpt><trkpt lat="44.6645065" lon="8.2950668"><ele>210.5</ele><time>2026-04-04T12:01:13.946Z</time></trkpt><trkpt lat="44.664533" lon="8.2949847"><ele>210.66666666666666</ele><time>2026-04-04T12:01:14.946Z</time></trkpt><trkpt lat="44.6645722" lon="8.2948319"><ele>210.83333333333331</ele><time>2026-04-04T12:01:16.945Z</time></trkpt><trkpt lat="44.6645796" lon="8.2946738"><ele>211.0</ele><time>2026-04-04T12:01:18.945Z</time></trkpt><trkpt lat="44.6645617" lon="8.2945003"><ele>213.16666666666666</ele><time>2026-04-04T12:01:20.946Z</time></trkpt><trkpt lat="44.6645496" lon="8.2944099"><ele>215.33333333333331</ele><time>2026-04-04T12:01:21.946Z</time></trkpt><trkpt lat="44.6645301" lon="8.2943176"><ele>217.5</ele><time>2026-04-04T12:01:22.945Z</time></trkpt><trkpt lat="44.6644964" lon="8.2942366"><ele>219.66666666666669</ele><time>2026-04-04T12:01:23.945Z</time></trkpt><trkpt lat="44.6644222" lon="8.2941082"><ele>221.83333333333334</ele><time>2026-04-04T12:01:25.945Z</time></trkpt><trkpt lat="44.6643469" lon="8.2940041"><ele>224.0</ele><time>2026-04-04T12:01:27.946Z</time></trkpt><trkpt lat="44.664291" lon="8.2939135"><ele>225.39999999999998</ele><time>2026-04-04T12:01:29.946Z</time></trkpt><trkpt lat="44.6642468" lon="8.2938254"><ele>226.79999999999998</ele><time>2026-04-04T12:01:32.946Z</time></trkpt><trkpt lat="44.6641861" lon="8.2936935"><ele>228.20000000000002</ele><time>2026-04-04T12:01:34.946Z</time></trkpt><trkpt lat="44.6641529" lon="8.2935899"><ele>229.60000000000002</ele><time>2026-04-04T12:01:35.946Z</time></trkpt><trkpt lat="44.6641119" lon="8.2934668"><ele>231.0</ele><time>2026-04-04T12:01:36.945Z</time></trkpt><trkpt lat="44.6640568" lon="8.2933269"><ele>231.0</ele><time>2026-04-04T12:01:37.945Z</time></trkpt><trkpt lat="44.6639987" lon="8.2931824"><ele>231.0</ele><time>2026-04-04T12:01:38.946Z</time></trkpt><trkpt lat="44.6639377" lon="8.2930368"><ele>231.0</ele><time>2026-04-04T12:01:39.946Z</time></trkpt><trkpt lat="44.6638826" lon="8.292896"><ele>231.0</ele><time>2026-04-04T12:01:40.945Z</time></trkpt><trkpt lat="44.6638331" lon="8.2927618"><ele>231.0</ele><time>2026-04-04T12:01:41.945Z</time></trkpt><trkpt lat="44.6637946" lon="8.2926317"><ele>231.00000000000003</ele><time>2026-04-04T12:01:42.946Z</time></trkpt><trkpt lat="44.6637733" lon="8.2924949"><ele>231.00000000000003</ele><time>2026-04-04T12:01:43.946Z</time></trkpt><trkpt lat="44.6637775" lon="8.2923474"><ele>231.0</ele><time>2026-04-04T12:01:44.945Z</time></trkpt><trkpt lat="44.6638066" lon="8.2921868"><ele>231.0</ele><time>2026-04-04T12:01:45.946Z</time></trkpt><trkpt lat="44.6638755" lon="8.2920271"><ele>231.0</ele><time>2026-04-04T12:01:46.946Z</time></trkpt><trkpt lat="44.6639308" lon="8.29186"><ele>231.0</ele><time>2026-04-04T12:01:47.946Z</time></trkpt><trkpt lat="44.6639805" lon="8.2916917"><ele>231.0</ele><time>2026-04-04T12:01:48.946Z</time></trkpt><trkpt lat="44.664024" lon="8.2915225"><ele>231.0</ele><time>2026-04-04T12:01:49.946Z</time></trkpt><trkpt lat="44.6640616" lon="8.2913673"><ele>230.75</ele><time>2026-04-04T12:01:50.946Z</time></trkpt><trkpt lat="44.6640972" lon="8.2912112"><ele>230.5</ele><time>2026-04-04T12:01:51.946Z</time></trkpt><trkpt lat="44.6641123" lon="8.2910511"><ele>230.25</ele><time>2026-04-04T12:01:52.945Z</time></trkpt><trkpt lat="44.6641014" lon="8.2908853"><ele>230.0</ele><time>2026-04-04T12:01:53.945Z</time></trkpt><trkpt lat="44.6640497" lon="8.2907172"><ele>231.0</ele><time>2026-04-04T12:01:54.946Z</time></trkpt><trkpt lat="44.66398" lon="8.2905445"><ele>232.0</ele><time>2026-04-04T12:01:55.946Z</time></trkpt><trkpt lat="44.6639071" lon="8.2903723"><ele>233.0</ele><time>2026-04-04T12:01:56.946Z</time></trkpt><trkpt lat="44.6638342" lon="8.2901975"><ele>234.0</ele><time>2026-04-04T12:01:57.946Z</time></trkpt><trkpt lat="44.6637675" lon="8.2900254"><ele>234.0</ele><time>2026-04-04T12:01:58.946Z</time></trkpt><trkpt lat="44.6636937" lon="8.2898688"><ele>234.0</ele><time>2026-04-04T12:01:59.944Z</time></trkpt><trkpt lat="44.663626" lon="8.2897164"><ele>234.0</ele><time>2026-04-04T12:02:00.945Z</time></trkpt><trkpt lat="44.6635693" lon="8.2895499"><ele>234.0</ele><time>2026-04-04T12:02:01.945Z</time></trkpt><trkpt lat="44.6635229" lon="8.2893623"><ele>234.5</ele><time>2026-04-04T12:02:02.944Z</time></trkpt><trkpt lat="44.6634934" lon="8.289157"><ele>235.0</ele><time>2026-04-04T12:02:03.945Z</time></trkpt><trkpt lat="44.6634852" lon="8.2889579"><ele>235.5</ele><time>2026-04-04T12:02:04.945Z</time></trkpt><trkpt lat="44.66349" lon="8.2887657"><ele>236.0</ele><time>2026-04-04T12:02:05.944Z</time></trkpt><trkpt lat="44.6635006" lon="8.2885914"><ele>236.0</ele><time>2026-04-04T12:02:06.945Z</time></trkpt><trkpt lat="44.6634928" lon="8.2884332"><ele>236.0</ele><time>2026-04-04T12:02:07.945Z</time></trkpt><trkpt lat="44.6634587" lon="8.2882702"><ele>236.0</ele><time>2026-04-04T12:02:08.945Z</time></trkpt><trkpt lat="44.66339" lon="8.2881469"><ele>236.0</ele><time>2026-04-04T12:02:09.944Z</time></trkpt><trkpt lat="44.6633062" lon="8.2880567"><ele>237.0</ele><time>2026-04-04T12:02:10.945Z</time></trkpt><trkpt lat="44.6631999" lon="8.2880302"><ele>238.0</ele><time>2026-04-04T12:02:11.945Z</time></trkpt><trkpt lat="44.6630744" lon="8.2880216"><ele>239.0</ele><time>2026-04-04T12:02:12.944Z</time></trkpt><trkpt lat="44.6629415" lon="8.2880254"><ele>240.0</ele><time>2026-04-04T12:02:13.944Z</time></trkpt><trkpt lat="44.6628113" lon="8.2880328"><ele>240.0</ele><time>2026-04-04T12:02:14.945Z</time></trkpt><trkpt lat="44.6626889" lon="8.2880618"><ele>240.0</ele><time>2026-04-04T12:02:15.944Z</time></trkpt><trkpt lat="44.6625772" lon="8.2881191"><ele>240.0</ele><time>2026-04-04T12:02:16.945Z</time></trkpt><trkpt lat="44.6624703" lon="8.2882068"><ele>240.0</ele><time>2026-04-04T12:02:17.945Z</time></trkpt><trkpt lat="44.6623701" lon="8.2883285"><ele>239.0</ele><time>2026-04-04T12:02:18.944Z</time></trkpt><trkpt lat="44.6622724" lon="8.2884712"><ele>238.0</ele><time>2026-04-04T12:02:19.945Z</time></trkpt><trkpt lat="44.6621781" lon="8.2886143"><ele>237.0</ele><time>2026-04-04T12:02:20.945Z</time></trkpt><trkpt lat="44.6620853" lon="8.2887337"><ele>236.0</ele><time>2026-04-04T12:02:21.945Z</time></trkpt><trkpt lat="44.6619993" lon="8.2888245"><ele>238.0</ele><time>2026-04-04T12:02:22.944Z</time></trkpt><trkpt lat="44.6619097" lon="8.2888779"><ele>240.0</ele><time>2026-04-04T12:02:23.945Z</time></trkpt><trkpt lat="44.6617997" lon="8.2888879"><ele>242.0</ele><time>2026-04-04T12:02:24.945Z</time></trkpt><trkpt lat="44.6616845" lon="8.2888534"><ele>244.0</ele><time>2026-04-04T12:02:25.945Z</time></trkpt><trkpt lat="44.6615672" lon="8.2887709"><ele>244.0</ele><time>2026-04-04T12:02:26.945Z</time></trkpt><trkpt lat="44.6614547" lon="8.2886281"><ele>244.0</ele><time>2026-04-04T12:02:27.944Z</time></trkpt><trkpt lat="44.6613514" lon="8.288453"><ele>244.0</ele><time>2026-04-04T12:02:28.945Z</time></trkpt><trkpt lat="44.661242" lon="8.2882804"><ele>243.66666666666666</ele><time>2026-04-04T12:02:29.945Z</time></trkpt><trkpt lat="44.6611157" lon="8.2881319"><ele>243.33333333333331</ele><time>2026-04-04T12:02:30.944Z</time></trkpt><trkpt lat="44.6609791" lon="8.2880293"><ele>243.0</ele><time>2026-04-04T12:02:31.945Z</time></trkpt><trkpt lat="44.6608156" lon="8.2879801"><ele>244.66666666666669</ele><time>2026-04-04T12:02:32.945Z</time></trkpt><trkpt lat="44.6606435" lon="8.2879684"><ele>246.33333333333334</ele><time>2026-04-04T12:02:33.945Z</time></trkpt><trkpt lat="44.6604659" lon="8.2879726"><ele>248.0</ele><time>2026-04-04T12:02:34.945Z</time></trkpt><trkpt lat="44.6602934" lon="8.2879804"><ele>249.33333333333334</ele><time>2026-04-04T12:02:35.945Z</time></trkpt><trkpt lat="44.6601205" lon="8.2879801"><ele>250.66666666666669</ele><time>2026-04-04T12:02:36.945Z</time></trkpt><trkpt lat="44.6599503" lon="8.2879884"><ele>252.0</ele><time>2026-04-04T12:02:37.944Z</time></trkpt><trkpt lat="44.6597787" lon="8.2879924"><ele>252.0</ele><time>2026-04-04T12:02:38.945Z</time></trkpt><trkpt lat="44.6596059" lon="8.2879896"><ele>252.0</ele><time>2026-04-04T12:02:39.945Z</time></trkpt><trkpt lat="44.6594328" lon="8.2879873"><ele>252.0</ele><time>2026-04-04T12:02:40.944Z</time></trkpt><trkpt lat="44.6592717" lon="8.2879813"><ele>252.33333333333331</ele><time>2026-04-04T12:02:41.945Z</time></trkpt><trkpt lat="44.6591152" lon="8.2879684"><ele>252.66666666666666</ele><time>2026-04-04T12:02:42.945Z</time></trkpt><trkpt lat="44.6589641" lon="8.2879482"><ele>253.0</ele><time>2026-04-04T12:02:43.945Z</time></trkpt><trkpt lat="44.6588133" lon="8.2879134"><ele>253.0</ele><time>2026-04-04T12:02:44.944Z</time></trkpt><trkpt lat="44.658663" lon="8.2878733"><ele>253.0</ele><time>2026-04-04T12:02:45.945Z</time></trkpt><trkpt lat="44.6585102" lon="8.2878323"><ele>253.0</ele><time>2026-04-04T12:02:46.944Z</time></trkpt><trkpt lat="44.6583529" lon="8.2877828"><ele>253.0</ele><time>2026-04-04T12:02:47.945Z</time></trkpt><trkpt lat="44.658197" lon="8.2877243"><ele>253.0</ele><time>2026-04-04T12:02:48.945Z</time></trkpt><trkpt lat="44.6580454" lon="8.2876642"><ele>253.0</ele><time>2026-04-04T12:02:49.945Z</time></trkpt><trkpt lat="44.6578956" lon="8.2875811"><ele>253.0</ele><time>2026-04-04T12:02:50.945Z</time></trkpt><trkpt lat="44.6577397" lon="8.287479"><ele>253.0</ele><time>2026-04-04T12:02:51.945Z</time></trkpt><trkpt lat="44.6575894" lon="8.2873476"><ele>253.0</ele><time>2026-04-04T12:02:52.945Z</time></trkpt><trkpt lat="44.6574577" lon="8.2871805"><ele>254.33333333333331</ele><time>2026-04-04T12:02:53.945Z</time></trkpt><trkpt lat="44.6573406" lon="8.2870044"><ele>255.66666666666669</ele><time>2026-04-04T12:02:54.944Z</time></trkpt><trkpt lat="44.6572312" lon="8.2868331"><ele>257.0</ele><time>2026-04-04T12:02:55.945Z</time></trkpt><trkpt lat="44.6571262" lon="8.2866721"><ele>257.0</ele><time>2026-04-04T12:02:56.945Z</time></trkpt><trkpt lat="44.6570287" lon="8.2865183"><ele>257.0</ele><time>2026-04-04T12:02:57.944Z</time></trkpt><trkpt lat="44.6569363" lon="8.2863769"><ele>257.0</ele><time>2026-04-04T12:02:58.945Z</time></trkpt><trkpt lat="44.6568467" lon="8.2862476"><ele>257.0</ele><time>2026-04-04T12:02:59.944Z</time></trkpt><trkpt lat="44.656762" lon="8.2861197"><ele>255.75</ele><time>2026-04-04T12:03:00.945Z</time></trkpt><trkpt lat="44.6566856" lon="8.2859737"><ele>254.5</ele><time>2026-04-04T12:03:01.945Z</time></trkpt><trkpt lat="44.656634" lon="8.285825"><ele>253.25</ele><time>2026-04-04T12:03:02.945Z</time></trkpt><trkpt lat="44.6566112" lon="8.2856567"><ele>252.0</ele><time>2026-04-04T12:03:03.944Z</time></trkpt><trkpt lat="44.6566147" lon="8.2854606"><ele>250.75</ele><time>2026-04-04T12:03:04.945Z</time></trkpt><trkpt lat="44.6566292" lon="8.2852602"><ele>249.5</ele><time>2026-04-04T12:03:05.945Z</time></trkpt><trkpt lat="44.6566507" lon="8.2850621"><ele>248.25</ele><time>2026-04-04T12:03:06.945Z</time></trkpt><trkpt lat="44.6566964" lon="8.2848689"><ele>247.0</ele><time>2026-04-04T12:03:07.944Z</time></trkpt><trkpt lat="44.6567645" lon="8.2846777"><ele>251.0</ele><time>2026-04-04T12:03:08.945Z</time></trkpt><trkpt lat="44.656846" lon="8.2844957"><ele>255.0</ele><time>2026-04-04T12:03:09.945Z</time></trkpt><trkpt lat="44.6569323" lon="8.2843275"><ele>259.0</ele><time>2026-04-04T12:03:10.945Z</time></trkpt><trkpt lat="44.6570303" lon="8.2841753"><ele>263.0</ele><time>2026-04-04T12:03:11.945Z</time></trkpt><trkpt lat="44.657137" lon="8.2840389"><ele>252.33333333333334</ele><time>2026-04-04T12:03:12.945Z</time></trkpt><trkpt lat="44.6572612" lon="8.2839088"><ele>241.66666666666669</ele><time>2026-04-04T12:03:13.945Z</time></trkpt><trkpt lat="44.6573919" lon="8.2837799"><ele>231.0</ele><time>2026-04-04T12:03:14.945Z</time></trkpt><trkpt lat="44.6575356" lon="8.2836451"><ele>231.0</ele><time>2026-04-04T12:03:15.944Z</time></trkpt><trkpt lat="44.6576876" lon="8.2835112"><ele>231.0</ele><time>2026-04-04T12:03:16.944Z</time></trkpt><trkpt lat="44.6578361" lon="8.283375"><ele>231.0</ele><time>2026-04-04T12:03:17.945Z</time></trkpt><trkpt lat="44.6579761" lon="8.2832336"><ele>230.33333333333331</ele><time>2026-04-04T12:03:18.945Z</time></trkpt><trkpt lat="44.6581125" lon="8.2830836"><ele>229.66666666666666</ele><time>2026-04-04T12:03:19.945Z</time></trkpt><trkpt lat="44.658242" lon="8.2829416"><ele>229.0</ele><time>2026-04-04T12:03:20.945Z</time></trkpt><trkpt lat="44.6583751" lon="8.2828065"><ele>229.0</ele><time>2026-04-04T12:03:21.945Z</time></trkpt><trkpt lat="44.6584925" lon="8.282694"><ele>229.0</ele><time>2026-04-04T12:03:22.945Z</time></trkpt><trkpt lat="44.6586097" lon="8.2825934"><ele>229.0</ele><time>2026-04-04T12:03:23.944Z</time></trkpt><trkpt lat="44.6587275" lon="8.2824473"><ele>229.0</ele><time>2026-04-04T12:03:24.945Z</time></trkpt><trkpt lat="44.6588399" lon="8.282273"><ele>230.33333333333331</ele><time>2026-04-04T12:03:25.945Z</time></trkpt><trkpt lat="44.6589558" lon="8.2821132"><ele>231.66666666666669</ele><time>2026-04-04T12:03:26.945Z</time></trkpt><trkpt lat="44.6590892" lon="8.2819618"><ele>233.0</ele><time>2026-04-04T12:03:27.945Z</time></trkpt><trkpt lat="44.6592343" lon="8.2818057"><ele>233.0</ele><time>2026-04-04T12:03:28.945Z</time></trkpt><trkpt lat="44.659386" lon="8.2816375"><ele>233.0</ele><time>2026-04-04T12:03:29.945Z</time></trkpt><trkpt lat="44.6595422" lon="8.2814689"><ele>233.0</ele><time>2026-04-04T12:03:30.945Z</time></trkpt><trkpt lat="44.6597165" lon="8.2813074"><ele>231.0</ele><time>2026-04-04T12:03:31.945Z</time></trkpt><trkpt lat="44.6598759" lon="8.2811384"><ele>229.0</ele><time>2026-04-04T12:03:32.945Z</time></trkpt><trkpt lat="44.6600278" lon="8.2809656"><ele>227.0</ele><time>2026-04-04T12:03:33.945Z</time></trkpt><trkpt lat="44.6601887" lon="8.2808024"><ele>229.33333333333334</ele><time>2026-04-04T12:03:34.945Z</time></trkpt><trkpt lat="44.6603459" lon="8.2806418"><ele>231.66666666666669</ele><time>2026-04-04T12:03:35.945Z</time></trkpt><trkpt lat="44.6604921" lon="8.2804897"><ele>234.0</ele><time>2026-04-04T12:03:36.944Z</time></trkpt><trkpt lat="44.6606324" lon="8.2803422"><ele>234.0</ele><time>2026-04-04T12:03:37.945Z</time></trkpt><trkpt lat="44.6607623" lon="8.2802053"><ele>234.0</ele><time>2026-04-04T12:03:38.944Z</time></trkpt><trkpt lat="44.6608865" lon="8.2800643"><ele>234.0</ele><time>2026-04-04T12:03:39.944Z</time></trkpt><trkpt lat="44.660997" lon="8.27992"><ele>237.25</ele><time>2026-04-04T12:03:40.945Z</time></trkpt><trkpt lat="44.6610796" lon="8.2797456"><ele>240.5</ele><time>2026-04-04T12:03:41.945Z</time></trkpt><trkpt lat="44.6611358" lon="8.2795526"><ele>243.75</ele><time>2026-04-04T12:03:42.945Z</time></trkpt><trkpt lat="44.6611698" lon="8.2793544"><ele>247.0</ele><time>2026-04-04T12:03:43.945Z</time></trkpt><trkpt lat="44.6612075" lon="8.2791677"><ele>247.0</ele><time>2026-04-04T12:03:44.945Z</time></trkpt><trkpt lat="44.6612603" lon="8.2790149"><ele>247.0</ele><time>2026-04-04T12:03:45.945Z</time></trkpt><trkpt lat="44.6613596" lon="8.2788891"><ele>247.0</ele><time>2026-04-04T12:03:46.945Z</time></trkpt><trkpt lat="44.6614819" lon="8.2787691"><ele>247.0</ele><time>2026-04-04T12:03:47.945Z</time></trkpt><trkpt lat="44.6616116" lon="8.2786407"><ele>242.0</ele><time>2026-04-04T12:03:48.945Z</time></trkpt><trkpt lat="44.6617551" lon="8.2785233"><ele>237.0</ele><time>2026-04-04T12:03:49.945Z</time></trkpt><trkpt lat="44.6619066" lon="8.2784234"><ele>232.0</ele><time>2026-04-04T12:03:50.945Z</time></trkpt><trkpt lat="44.6620711" lon="8.2783308"><ele>232.0</ele><time>2026-04-04T12:03:51.945Z</time></trkpt><trkpt lat="44.6622408" lon="8.2782491"><ele>232.0</ele><time>2026-04-04T12:03:52.945Z</time></trkpt><trkpt lat="44.6624166" lon="8.27817"><ele>232.0</ele><time>2026-04-04T12:03:53.945Z</time></trkpt><trkpt lat="44.6625944" lon="8.2781064"><ele>228.33333333333331</ele><time>2026-04-04T12:03:54.944Z</time></trkpt><trkpt lat="44.6627651" lon="8.2780397"><ele>224.66666666666669</ele><time>2026-04-04T12:03:55.944Z</time></trkpt><trkpt lat="44.6629254" lon="8.2779742"><ele>221.0</ele><time>2026-04-04T12:03:56.945Z</time></trkpt><trkpt lat="44.6630751" lon="8.2779101"><ele>221.0</ele><time>2026-04-04T12:03:57.945Z</time></trkpt><trkpt lat="44.6632165" lon="8.2778585"><ele>221.0</ele><time>2026-04-04T12:03:58.945Z</time></trkpt><trkpt lat="44.6633495" lon="8.277777"><ele>221.0</ele><time>2026-04-04T12:03:59.945Z</time></trkpt><trkpt lat="44.6634692" lon="8.2776401"><ele>221.0</ele><time>2026-04-04T12:04:00.945Z</time></trkpt><trkpt lat="44.6635742" lon="8.2774632"><ele>221.33333333333334</ele><time>2026-04-04T12:04:01.945Z</time></trkpt><trkpt lat="44.663672" lon="8.2772589"><ele>221.66666666666669</ele><time>2026-04-04T12:04:02.945Z</time></trkpt><trkpt lat="44.6637815" lon="8.2770515"><ele>222.0</ele><time>2026-04-04T12:04:03.945Z</time></trkpt><trkpt lat="44.6639047" lon="8.2768613"><ele>222.0</ele><time>2026-04-04T12:04:04.945Z</time></trkpt><trkpt lat="44.664034" lon="8.2766749"><ele>222.0</ele><time>2026-04-04T12:04:05.944Z</time></trkpt><trkpt lat="44.6641527" lon="8.2765088"><ele>222.0</ele><time>2026-04-04T12:04:06.945Z</time></trkpt><trkpt lat="44.6642648" lon="8.2763374"><ele>218.33333333333331</ele><time>2026-04-04T12:04:07.945Z</time></trkpt><trkpt lat="44.6643641" lon="8.2761451"><ele>214.66666666666666</ele><time>2026-04-04T12:04:08.945Z</time></trkpt><trkpt lat="44.6644393" lon="8.2759219"><ele>211.0</ele><time>2026-04-04T12:04:09.944Z</time></trkpt><trkpt lat="44.6644739" lon="8.2756695"><ele>220.0</ele><time>2026-04-04T12:04:10.945Z</time></trkpt><trkpt lat="44.6644839" lon="8.2754055"><ele>229.0</ele><time>2026-04-04T12:04:11.945Z</time></trkpt><trkpt lat="44.6644956" lon="8.2751432"><ele>238.0</ele><time>2026-04-04T12:04:12.944Z</time></trkpt><trkpt lat="44.6645199" lon="8.2748739"><ele>235.66666666666666</ele><time>2026-04-04T12:04:13.945Z</time></trkpt><trkpt lat="44.6645489" lon="8.2746044"><ele>233.33333333333331</ele><time>2026-04-04T12:04:14.944Z</time></trkpt><trkpt lat="44.6645569" lon="8.2743379"><ele>231.0</ele><time>2026-04-04T12:04:15.945Z</time></trkpt><trkpt lat="44.6645406" lon="8.274082"><ele>228.0</ele><time>2026-04-04T12:04:16.945Z</time></trkpt><trkpt lat="44.6645012" lon="8.2738402"><ele>225.0</ele><time>2026-04-04T12:04:17.945Z</time></trkpt><trkpt lat="44.664457" lon="8.2735996"><ele>222.0</ele><time>2026-04-04T12:04:18.945Z</time></trkpt><trkpt lat="44.6643988" lon="8.273365"><ele>220.66666666666669</ele><time>2026-04-04T12:04:19.945Z</time></trkpt><trkpt lat="44.6643398" lon="8.2731344"><ele>219.33333333333334</ele><time>2026-04-04T12:04:20.945Z</time></trkpt><trkpt lat="44.6642795" lon="8.2729169"><ele>218.0</ele><time>2026-04-04T12:04:21.945Z</time></trkpt><trkpt lat="44.6642154" lon="8.2727144"><ele>218.0</ele><time>2026-04-04T12:04:22.945Z</time></trkpt><trkpt lat="44.6641411" lon="8.2725158"><ele>218.0</ele><time>2026-04-04T12:04:23.944Z</time></trkpt><trkpt lat="44.6640427" lon="8.2723366"><ele>218.0</ele><time>2026-04-04T12:04:24.944Z</time></trkpt><trkpt lat="44.6639232" lon="8.2721695"><ele>215.0</ele><time>2026-04-04T12:04:25.945Z</time></trkpt><trkpt lat="44.6637855" lon="8.2720271"><ele>212.0</ele><time>2026-04-04T12:04:26.945Z</time></trkpt><trkpt lat="44.663644" lon="8.2718921"><ele>209.0</ele><time>2026-04-04T12:04:27.944Z</time></trkpt><trkpt lat="44.6635121" lon="8.2717405"><ele>209.0</ele><time>2026-04-04T12:04:28.945Z</time></trkpt><trkpt lat="44.6633865" lon="8.2715891"><ele>209.0</ele><time>2026-04-04T12:04:29.945Z</time></trkpt><trkpt lat="44.663272" lon="8.2714359"><ele>209.0</ele><time>2026-04-04T12:04:30.944Z</time></trkpt><trkpt lat="44.6631594" lon="8.2712899"><ele>208.0</ele><time>2026-04-04T12:04:31.945Z</time></trkpt><trkpt lat="44.6630572" lon="8.271166"><ele>207.0</ele><time>2026-04-04T12:04:32.945Z</time></trkpt><trkpt lat="44.6629535" lon="8.271046"><ele>206.0</ele><time>2026-04-04T12:04:33.945Z</time></trkpt><trkpt lat="44.6628353" lon="8.2709304"><ele>205.0</ele><time>2026-04-04T12:04:34.945Z</time></trkpt><trkpt lat="44.6627068" lon="8.2708211"><ele>205.0</ele><time>2026-04-04T12:04:35.944Z</time></trkpt><trkpt lat="44.6625944" lon="8.2706911"><ele>205.0</ele><time>2026-04-04T12:04:36.944Z</time></trkpt><trkpt lat="44.6624746" lon="8.2705777"><ele>205.0</ele><time>2026-04-04T12:04:37.945Z</time></trkpt><trkpt lat="44.6623708" lon="8.2704528"><ele>205.0</ele><time>2026-04-04T12:04:38.944Z</time></trkpt><trkpt lat="44.6622455" lon="8.2703651"><ele>205.0</ele><time>2026-04-04T12:04:39.944Z</time></trkpt><trkpt lat="44.6621258" lon="8.2702732"><ele>205.0</ele><time>2026-04-04T12:04:40.944Z</time></trkpt><trkpt lat="44.6620072" lon="8.270176"><ele>205.0</ele><time>2026-04-04T12:04:41.945Z</time></trkpt><trkpt lat="44.6618909" lon="8.2700785"><ele>205.0</ele><time>2026-04-04T12:04:42.944Z</time></trkpt><trkpt lat="44.66178" lon="8.2699839"><ele>205.0</ele><time>2026-04-04T12:04:43.944Z</time></trkpt><trkpt lat="44.6616664" lon="8.2698848"><ele>205.0</ele><time>2026-04-04T12:04:44.945Z</time></trkpt><trkpt lat="44.6615465" lon="8.2698062"><ele>205.0</ele><time>2026-04-04T12:04:45.945Z</time></trkpt><trkpt lat="44.6614242" lon="8.2697386"><ele>205.0</ele><time>2026-04-04T12:04:46.945Z</time></trkpt><trkpt lat="44.661284" lon="8.2696914"><ele>207.75</ele><time>2026-04-04T12:04:47.945Z</time></trkpt><trkpt lat="44.6611415" lon="8.2696404"><ele>210.5</ele><time>2026-04-04T12:04:48.945Z</time></trkpt><trkpt lat="44.6610012" lon="8.2695891"><ele>213.25</ele><time>2026-04-04T12:04:49.945Z</time></trkpt><trkpt lat="44.6608614" lon="8.2695357"><ele>216.0</ele><time>2026-04-04T12:04:50.945Z</time></trkpt><trkpt lat="44.660718" lon="8.2694752"><ele>216.0</ele><time>2026-04-04T12:04:51.945Z</time></trkpt><trkpt lat="44.6605801" lon="8.2694125"><ele>216.0</ele><time>2026-04-04T12:04:52.944Z</time></trkpt><trkpt lat="44.6604344" lon="8.2693503"><ele>216.0</ele><time>2026-04-04T12:04:53.944Z</time></trkpt><trkpt lat="44.6602935" lon="8.2692861"><ele>216.0</ele><time>2026-04-04T12:04:54.945Z</time></trkpt><trkpt lat="44.6601515" lon="8.2692255"><ele>214.75</ele><time>2026-04-04T12:04:55.945Z</time></trkpt><trkpt lat="44.6600109" lon="8.2691644"><ele>213.5</ele><time>2026-04-04T12:04:56.944Z</time></trkpt><trkpt lat="44.6598636" lon="8.2691052"><ele>212.25</ele><time>2026-04-04T12:04:57.945Z</time></trkpt><trkpt lat="44.659721" lon="8.2690462"><ele>211.0</ele><time>2026-04-04T12:04:58.944Z</time></trkpt><trkpt lat="44.6595694" lon="8.2689834"><ele>213.66666666666666</ele><time>2026-04-04T12:04:59.944Z</time></trkpt><trkpt lat="44.6594182" lon="8.2689159"><ele>216.33333333333331</ele><time>2026-04-04T12:05:00.945Z</time></trkpt><trkpt lat="44.6592691" lon="8.2688547"><ele>219.0</ele><time>2026-04-04T12:05:01.945Z</time></trkpt><trkpt lat="44.6591173" lon="8.26879"><ele>219.0</ele><time>2026-04-04T12:05:02.945Z</time></trkpt><trkpt lat="44.6589587" lon="8.2687227"><ele>219.0</ele><time>2026-04-04T12:05:03.945Z</time></trkpt><trkpt lat="44.6587972" lon="8.2686345"><ele>219.0</ele><time>2026-04-04T12:05:04.945Z</time></trkpt><trkpt lat="44.6586367" lon="8.2685357"><ele>216.0</ele><time>2026-04-04T12:05:05.944Z</time></trkpt><trkpt lat="44.658473" lon="8.2684232"><ele>213.0</ele><time>2026-04-04T12:05:06.945Z</time></trkpt><trkpt lat="44.6583119" lon="8.2683089"><ele>210.0</ele><time>2026-04-04T12:05:07.944Z</time></trkpt><trkpt lat="44.6581562" lon="8.2681936"><ele>211.66666666666669</ele><time>2026-04-04T12:05:08.944Z</time></trkpt><trkpt lat="44.6580032" lon="8.2680681"><ele>213.33333333333334</ele><time>2026-04-04T12:05:09.945Z</time></trkpt><trkpt lat="44.6578488" lon="8.2679449"><ele>215.0</ele><time>2026-04-04T12:05:10.945Z</time></trkpt><trkpt lat="44.6576998" lon="8.2678312"><ele>215.0</ele><time>2026-04-04T12:05:11.945Z</time></trkpt><trkpt lat="44.6575498" lon="8.2677213"><ele>215.0</ele><time>2026-04-04T12:05:12.945Z</time></trkpt><trkpt lat="44.6573986" lon="8.2676119"><ele>215.0</ele><time>2026-04-04T12:05:13.944Z</time></trkpt><trkpt lat="44.6572445" lon="8.2674956"><ele>215.0</ele><time>2026-04-04T12:05:14.945Z</time></trkpt><trkpt lat="44.6570913" lon="8.2673772"><ele>215.0</ele><time>2026-04-04T12:05:15.944Z</time></trkpt><trkpt lat="44.656944" lon="8.2672643"><ele>215.0</ele><time>2026-04-04T12:05:16.945Z</time></trkpt><trkpt lat="44.656797" lon="8.2671478"><ele>213.33333333333334</ele><time>2026-04-04T12:05:17.945Z</time></trkpt><trkpt lat="44.6566469" lon="8.2670479"><ele>211.66666666666669</ele><time>2026-04-04T12:05:18.945Z</time></trkpt><trkpt lat="44.6564865" lon="8.2669414"><ele>210.0</ele><time>2026-04-04T12:05:19.945Z</time></trkpt><trkpt lat="44.6563117" lon="8.2668493"><ele>210.0</ele><time>2026-04-04T12:05:20.945Z</time></trkpt><trkpt lat="44.6561337" lon="8.2667711"><ele>210.0</ele><time>2026-04-04T12:05:21.945Z</time></trkpt><trkpt lat="44.6559488" lon="8.2667008"><ele>210.0</ele><time>2026-04-04T12:05:22.944Z</time></trkpt><trkpt lat="44.6557596" lon="8.266656"><ele>209.33333333333331</ele><time>2026-04-04T12:05:23.944Z</time></trkpt><trkpt lat="44.65557" lon="8.2666385"><ele>208.66666666666666</ele><time>2026-04-04T12:05:24.944Z</time></trkpt><trkpt lat="44.6553901" lon="8.2666105"><ele>208.0</ele><time>2026-04-04T12:05:25.945Z</time></trkpt><trkpt lat="44.6552023" lon="8.2665945"><ele>208.0</ele><time>2026-04-04T12:05:26.944Z</time></trkpt><trkpt lat="44.6550109" lon="8.2665728"><ele>208.0</ele><time>2026-04-04T12:05:27.945Z</time></trkpt><trkpt lat="44.6548098" lon="8.266557"><ele>208.0</ele><time>2026-04-04T12:05:28.945Z</time></trkpt><trkpt lat="44.6546073" lon="8.2665456"><ele>206.33333333333331</ele><time>2026-04-04T12:05:29.945Z</time></trkpt><trkpt lat="44.6544019" lon="8.2665354"><ele>204.66666666666669</ele><time>2026-04-04T12:05:30.945Z</time></trkpt><trkpt lat="44.6541982" lon="8.266509"><ele>203.0</ele><time>2026-04-04T12:05:31.945Z</time></trkpt><trkpt lat="44.6539883" lon="8.2664774"><ele>208.66666666666669</ele><time>2026-04-04T12:05:32.945Z</time></trkpt><trkpt lat="44.6537733" lon="8.2664433"><ele>214.33333333333331</ele><time>2026-04-04T12:05:33.945Z</time></trkpt><trkpt lat="44.653564" lon="8.2664037"><ele>220.0</ele><time>2026-04-04T12:05:34.945Z</time></trkpt><trkpt lat="44.653354" lon="8.266371"><ele>220.0</ele><time>2026-04-04T12:05:35.945Z</time></trkpt><trkpt lat="44.6531461" lon="8.2663402"><ele>220.0</ele><time>2026-04-04T12:05:36.944Z</time></trkpt><trkpt lat="44.6529411" lon="8.2663196"><ele>220.0</ele><time>2026-04-04T12:05:37.945Z</time></trkpt><trkpt lat="44.6527323" lon="8.2662946"><ele>218.66666666666666</ele><time>2026-04-04T12:05:38.945Z</time></trkpt><trkpt lat="44.6525262" lon="8.2662684"><ele>217.33333333333331</ele><time>2026-04-04T12:05:39.945Z</time></trkpt><trkpt lat="44.6523192" lon="8.2662431"><ele>216.0</ele><time>2026-04-04T12:05:40.945Z</time></trkpt><trkpt lat="44.6521221" lon="8.2662218"><ele>214.66666666666669</ele><time>2026-04-04T12:05:41.945Z</time></trkpt><trkpt lat="44.6519224" lon="8.2662004"><ele>213.33333333333334</ele><time>2026-04-04T12:05:42.945Z</time></trkpt><trkpt lat="44.6517208" lon="8.2661779"><ele>212.0</ele><time>2026-04-04T12:05:43.945Z</time></trkpt><trkpt lat="44.6515261" lon="8.2661555"><ele>212.0</ele><time>2026-04-04T12:05:44.945Z</time></trkpt><trkpt lat="44.6513449" lon="8.2661296"><ele>212.0</ele><time>2026-04-04T12:05:45.945Z</time></trkpt><trkpt lat="44.6511784" lon="8.2661012"><ele>212.0</ele><time>2026-04-04T12:05:46.945Z</time></trkpt><trkpt lat="44.651006" lon="8.2660486"><ele>210.66666666666669</ele><time>2026-04-04T12:05:47.945Z</time></trkpt><trkpt lat="44.6508468" lon="8.2659553"><ele>209.33333333333331</ele><time>2026-04-04T12:05:48.945Z</time></trkpt><trkpt lat="44.6507009" lon="8.2658182"><ele>208.0</ele><time>2026-04-04T12:05:49.945Z</time></trkpt><trkpt lat="44.65058" lon="8.2656388"><ele>212.66666666666666</ele><time>2026-04-04T12:05:50.945Z</time></trkpt><trkpt lat="44.6504851" lon="8.2654356"><ele>217.33333333333331</ele><time>2026-04-04T12:05:51.945Z</time></trkpt><trkpt lat="44.6504206" lon="8.2652155"><ele>222.0</ele><time>2026-04-04T12:05:52.945Z</time></trkpt><trkpt lat="44.650375" lon="8.2649734"><ele>224.0</ele><time>2026-04-04T12:05:53.945Z</time></trkpt><trkpt lat="44.6503536" lon="8.2647067"><ele>226.0</ele><time>2026-04-04T12:05:54.945Z</time></trkpt><trkpt lat="44.650354" lon="8.2644309"><ele>228.0</ele><time>2026-04-04T12:05:55.944Z</time></trkpt><trkpt lat="44.6503793" lon="8.2641595"><ele>224.0</ele><time>2026-04-04T12:05:56.945Z</time></trkpt><trkpt lat="44.6504269" lon="8.2638992"><ele>220.0</ele><time>2026-04-04T12:05:57.945Z</time></trkpt><trkpt lat="44.6504937" lon="8.2636471"><ele>216.0</ele><time>2026-04-04T12:05:58.944Z</time></trkpt><trkpt lat="44.650582" lon="8.2633848"><ele>216.0</ele><time>2026-04-04T12:05:59.945Z</time></trkpt><trkpt lat="44.650665" lon="8.263127"><ele>216.0</ele><time>2026-04-04T12:06:00.944Z</time></trkpt><trkpt lat="44.6507433" lon="8.2628679"><ele>216.0</ele><time>2026-04-04T12:06:01.944Z</time></trkpt><trkpt lat="44.6508187" lon="8.2626088"><ele>212.0</ele><time>2026-04-04T12:06:02.944Z</time></trkpt><trkpt lat="44.6508852" lon="8.2623506"><ele>208.0</ele><time>2026-04-04T12:06:03.944Z</time></trkpt><trkpt lat="44.6509565" lon="8.262089"><ele>204.0</ele><time>2026-04-04T12:06:04.944Z</time></trkpt><trkpt lat="44.651027" lon="8.2618295"><ele>204.0</ele><time>2026-04-04T12:06:05.944Z</time></trkpt><trkpt lat="44.6511004" lon="8.2615697"><ele>204.0</ele><time>2026-04-04T12:06:06.944Z</time></trkpt><trkpt lat="44.6511742" lon="8.2613069"><ele>204.0</ele><time>2026-04-04T12:06:07.944Z</time></trkpt><trkpt lat="44.6512489" lon="8.2610444"><ele>204.0</ele><time>2026-04-04T12:06:08.944Z</time></trkpt><trkpt lat="44.6513214" lon="8.2607829"><ele>204.0</ele><time>2026-04-04T12:06:09.944Z</time></trkpt><trkpt lat="44.6513963" lon="8.2605223"><ele>204.0</ele><time>2026-04-04T12:06:10.944Z</time></trkpt><trkpt lat="44.6514701" lon="8.2602684"><ele>203.0</ele><time>2026-04-04T12:06:11.944Z</time></trkpt><trkpt lat="44.65154" lon="8.2600131"><ele>202.0</ele><time>2026-04-04T12:06:12.943Z</time></trkpt><trkpt lat="44.6516065" lon="8.2597637"><ele>201.0</ele><time>2026-04-04T12:06:13.944Z</time></trkpt><trkpt lat="44.651671" lon="8.2595159"><ele>200.66666666666669</ele><time>2026-04-04T12:06:14.943Z</time></trkpt><trkpt lat="44.6517381" lon="8.2592606"><ele>200.33333333333334</ele><time>2026-04-04T12:06:15.944Z</time></trkpt><trkpt lat="44.6518055" lon="8.2589953"><ele>200.0</ele><time>2026-04-04T12:06:16.943Z</time></trkpt><trkpt lat="44.6518831" lon="8.2587292"><ele>201.33333333333334</ele><time>2026-04-04T12:06:17.944Z</time></trkpt><trkpt lat="44.6519634" lon="8.2584594"><ele>202.66666666666669</ele><time>2026-04-04T12:06:18.943Z</time></trkpt><trkpt lat="44.6520426" lon="8.2581902"><ele>204.0</ele><time>2026-04-04T12:06:19.944Z</time></trkpt><trkpt lat="44.6521219" lon="8.2579205"><ele>204.0</ele><time>2026-04-04T12:06:20.944Z</time></trkpt><trkpt lat="44.652207" lon="8.2576419"><ele>204.0</ele><time>2026-04-04T12:06:21.944Z</time></trkpt><trkpt lat="44.652295" lon="8.2573622"><ele>204.0</ele><time>2026-04-04T12:06:22.944Z</time></trkpt><trkpt lat="44.6523742" lon="8.2570897"><ele>203.33333333333331</ele><time>2026-04-04T12:06:23.944Z</time></trkpt><trkpt lat="44.652451" lon="8.2568131"><ele>202.66666666666666</ele><time>2026-04-04T12:06:24.944Z</time></trkpt><trkpt lat="44.6525268" lon="8.2565421"><ele>202.0</ele><time>2026-04-04T12:06:25.944Z</time></trkpt><trkpt lat="44.6526108" lon="8.256267"><ele>200.66666666666666</ele><time>2026-04-04T12:06:26.943Z</time></trkpt><trkpt lat="44.6526848" lon="8.2559956"><ele>199.33333333333331</ele><time>2026-04-04T12:06:27.944Z</time></trkpt><trkpt lat="44.652759" lon="8.2557259"><ele>198.0</ele><time>2026-04-04T12:06:28.944Z</time></trkpt><trkpt lat="44.6528383" lon="8.2554516"><ele>203.66666666666669</ele><time>2026-04-04T12:06:29.944Z</time></trkpt><trkpt lat="44.6529127" lon="8.2551757"><ele>209.33333333333334</ele><time>2026-04-04T12:06:30.944Z</time></trkpt><trkpt lat="44.6529791" lon="8.2548927"><ele>215.0</ele><time>2026-04-04T12:06:31.944Z</time></trkpt><trkpt lat="44.6530433" lon="8.2546071"><ele>215.0</ele><time>2026-04-04T12:06:32.943Z</time></trkpt><trkpt lat="44.6530952" lon="8.2543185"><ele>215.0</ele><time>2026-04-04T12:06:33.944Z</time></trkpt><trkpt lat="44.6531373" lon="8.2540263"><ele>215.0</ele><time>2026-04-04T12:06:34.944Z</time></trkpt><trkpt lat="44.6531665" lon="8.2537248"><ele>214.33333333333334</ele><time>2026-04-04T12:06:35.944Z</time></trkpt><trkpt lat="44.6531921" lon="8.253431"><ele>213.66666666666669</ele><time>2026-04-04T12:06:36.943Z</time></trkpt><trkpt lat="44.6532154" lon="8.2531299"><ele>213.0</ele><time>2026-04-04T12:06:37.944Z</time></trkpt><trkpt lat="44.6532404" lon="8.2528376"><ele>213.0</ele><time>2026-04-04T12:06:38.944Z</time></trkpt><trkpt lat="44.653254" lon="8.2525541"><ele>213.0</ele><time>2026-04-04T12:06:39.944Z</time></trkpt><trkpt lat="44.6532772" lon="8.2522724"><ele>213.0</ele><time>2026-04-04T12:06:40.944Z</time></trkpt><trkpt lat="44.6532929" lon="8.2519922"><ele>213.33333333333331</ele><time>2026-04-04T12:06:41.944Z</time></trkpt><trkpt lat="44.6533022" lon="8.2517185"><ele>213.66666666666666</ele><time>2026-04-04T12:06:42.944Z</time></trkpt><trkpt lat="44.6533117" lon="8.2514359"><ele>214.0</ele><time>2026-04-04T12:06:43.944Z</time></trkpt><trkpt lat="44.6533091" lon="8.2511559"><ele>214.0</ele><time>2026-04-04T12:06:44.943Z</time></trkpt><trkpt lat="44.6533181" lon="8.2508715"><ele>214.0</ele><time>2026-04-04T12:06:45.943Z</time></trkpt><trkpt lat="44.65333" lon="8.2505802"><ele>214.0</ele><time>2026-04-04T12:06:46.944Z</time></trkpt><trkpt lat="44.653346" lon="8.2502911"><ele>214.0</ele><time>2026-04-04T12:06:47.943Z</time></trkpt><trkpt lat="44.6533591" lon="8.2499975"><ele>214.0</ele><time>2026-04-04T12:06:48.943Z</time></trkpt><trkpt lat="44.6533527" lon="8.24971"><ele>214.0</ele><time>2026-04-04T12:06:49.943Z</time></trkpt><trkpt lat="44.6533296" lon="8.2494389"><ele>216.66666666666666</ele><time>2026-04-04T12:06:50.944Z</time></trkpt><trkpt lat="44.6532943" lon="8.2491679"><ele>219.33333333333331</ele><time>2026-04-04T12:06:51.944Z</time></trkpt><trkpt lat="44.6532467" lon="8.2488873"><ele>222.0</ele><time>2026-04-04T12:06:52.943Z</time></trkpt><trkpt lat="44.6531968" lon="8.2486179"><ele>226.33333333333331</ele><time>2026-04-04T12:06:53.944Z</time></trkpt><trkpt lat="44.6531422" lon="8.248342"><ele>230.66666666666666</ele><time>2026-04-04T12:06:54.944Z</time></trkpt><trkpt lat="44.65308" lon="8.2480782"><ele>235.0</ele><time>2026-04-04T12:06:55.944Z</time></trkpt><trkpt lat="44.6529895" lon="8.2478284"><ele>235.66666666666666</ele><time>2026-04-04T12:06:56.944Z</time></trkpt><trkpt lat="44.6528759" lon="8.2476132"><ele>236.33333333333331</ele><time>2026-04-04T12:06:57.943Z</time></trkpt><trkpt lat="44.6527544" lon="8.2474239"><ele>237.0</ele><time>2026-04-04T12:06:58.944Z</time></trkpt><trkpt lat="44.6526132" lon="8.2472689"><ele>237.0</ele><time>2026-04-04T12:06:59.943Z</time></trkpt><trkpt lat="44.6524627" lon="8.2471436"><ele>237.0</ele><time>2026-04-04T12:07:00.944Z</time></trkpt><trkpt lat="44.6523187" lon="8.2470224"><ele>237.0</ele><time>2026-04-04T12:07:01.944Z</time></trkpt><trkpt lat="44.6521843" lon="8.2468744"><ele>237.0</ele><time>2026-04-04T12:07:02.943Z</time></trkpt><trkpt lat="44.6520602" lon="8.2467108"><ele>237.0</ele><time>2026-04-04T12:07:03.944Z</time></trkpt><trkpt lat="44.6519388" lon="8.2465495"><ele>237.0</ele><time>2026-04-04T12:07:04.944Z</time></trkpt><trkpt lat="44.6518229" lon="8.2463893"><ele>234.33333333333331</ele><time>2026-04-04T12:07:05.944Z</time></trkpt><trkpt lat="44.6517048" lon="8.2462388"><ele>231.66666666666666</ele><time>2026-04-04T12:07:06.944Z</time></trkpt><trkpt lat="44.651573" lon="8.2461141"><ele>229.0</ele><time>2026-04-04T12:07:07.944Z</time></trkpt><trkpt lat="44.6514178" lon="8.2460317"><ele>229.0</ele><time>2026-04-04T12:07:08.943Z</time></trkpt><trkpt lat="44.6512556" lon="8.2459633"><ele>229.0</ele><time>2026-04-04T12:07:09.944Z</time></trkpt><trkpt lat="44.6510638" lon="8.2459143"><ele>229.0</ele><time>2026-04-04T12:07:10.944Z</time></trkpt><trkpt lat="44.6508589" lon="8.2458544"><ele>225.66666666666666</ele><time>2026-04-04T12:07:11.944Z</time></trkpt><trkpt lat="44.6506708" lon="8.2457872"><ele>222.33333333333331</ele><time>2026-04-04T12:07:12.944Z</time></trkpt><trkpt lat="44.6504882" lon="8.2457414"><ele>219.0</ele><time>2026-04-04T12:07:13.944Z</time></trkpt><trkpt lat="44.6503209" lon="8.2457063"><ele>218.25</ele><time>2026-04-04T12:07:14.943Z</time></trkpt><trkpt lat="44.6501693" lon="8.2456662"><ele>217.5</ele><time>2026-04-04T12:07:15.943Z</time></trkpt><trkpt lat="44.6500229" lon="8.2456204"><ele>216.75</ele><time>2026-04-04T12:07:16.943Z</time></trkpt><trkpt lat="44.649885" lon="8.2455743"><ele>216.0</ele><time>2026-04-04T12:07:17.943Z</time></trkpt><trkpt lat="44.6497469" lon="8.2455206"><ele>217.5</ele><time>2026-04-04T12:07:18.944Z</time></trkpt><trkpt lat="44.6496047" lon="8.2454733"><ele>219.0</ele><time>2026-04-04T12:07:19.944Z</time></trkpt><trkpt lat="44.6494629" lon="8.2454267"><ele>220.5</ele><time>2026-04-04T12:07:20.944Z</time></trkpt><trkpt lat="44.6493166" lon="8.2453747"><ele>222.0</ele><time>2026-04-04T12:07:21.944Z</time></trkpt><trkpt lat="44.6491668" lon="8.2453262"><ele>222.0</ele><time>2026-04-04T12:07:22.944Z</time></trkpt><trkpt lat="44.6490188" lon="8.2452874"><ele>222.0</ele><time>2026-04-04T12:07:23.944Z</time></trkpt><trkpt lat="44.6488737" lon="8.2452589"><ele>222.0</ele><time>2026-04-04T12:07:24.944Z</time></trkpt><trkpt lat="44.6487355" lon="8.2452158"><ele>222.0</ele><time>2026-04-04T12:07:25.944Z</time></trkpt><trkpt lat="44.648586" lon="8.2451897"><ele>221.0</ele><time>2026-04-04T12:07:26.943Z</time></trkpt><trkpt lat="44.6484138" lon="8.245193"><ele>220.0</ele><time>2026-04-04T12:07:27.944Z</time></trkpt><trkpt lat="44.6482312" lon="8.2451708"><ele>219.0</ele><time>2026-04-04T12:07:28.944Z</time></trkpt><trkpt lat="44.648078" lon="8.2451215"><ele>219.0</ele><time>2026-04-04T12:07:29.944Z</time></trkpt><trkpt lat="44.6479165" lon="8.245101"><ele>219.0</ele><time>2026-04-04T12:07:30.944Z</time></trkpt><trkpt lat="44.647755" lon="8.245083"><ele>219.0</ele><time>2026-04-04T12:07:31.944Z</time></trkpt><trkpt lat="44.6476011" lon="8.2450669"><ele>219.66666666666669</ele><time>2026-04-04T12:07:32.944Z</time></trkpt><trkpt lat="44.6474479" lon="8.2450526"><ele>220.33333333333334</ele><time>2026-04-04T12:07:33.944Z</time></trkpt><trkpt lat="44.6472964" lon="8.2450432"><ele>221.0</ele><time>2026-04-04T12:07:34.944Z</time></trkpt><trkpt lat="44.6471447" lon="8.2450227"><ele>221.0</ele><time>2026-04-04T12:07:35.943Z</time></trkpt><trkpt lat="44.6469883" lon="8.245006"><ele>221.0</ele><time>2026-04-04T12:07:36.944Z</time></trkpt><trkpt lat="44.6468283" lon="8.2449916"><ele>221.0</ele><time>2026-04-04T12:07:37.943Z</time></trkpt><trkpt lat="44.6466764" lon="8.2449847"><ele>221.25</ele><time>2026-04-04T12:07:38.944Z</time></trkpt><trkpt lat="44.6465225" lon="8.2449883"><ele>221.5</ele><time>2026-04-04T12:07:39.944Z</time></trkpt><trkpt lat="44.6463773" lon="8.2449921"><ele>221.75</ele><time>2026-04-04T12:07:40.944Z</time></trkpt><trkpt lat="44.6462314" lon="8.2450318"><ele>222.0</ele><time>2026-04-04T12:07:41.944Z</time></trkpt><trkpt lat="44.646084" lon="8.2450662"><ele>222.0</ele><time>2026-04-04T12:07:42.944Z</time></trkpt><trkpt lat="44.6459338" lon="8.2451155"><ele>222.0</ele><time>2026-04-04T12:07:43.943Z</time></trkpt><trkpt lat="44.645776" lon="8.2451655"><ele>222.0</ele><time>2026-04-04T12:07:44.944Z</time></trkpt><trkpt lat="44.645625" lon="8.2452131"><ele>222.0</ele><time>2026-04-04T12:07:45.944Z</time></trkpt><trkpt lat="44.6454772" lon="8.2452547"><ele>222.0</ele><time>2026-04-04T12:07:46.944Z</time></trkpt><trkpt lat="44.6453319" lon="8.2452982"><ele>222.0</ele><time>2026-04-04T12:07:47.944Z</time></trkpt><trkpt lat="44.6451881" lon="8.2453626"><ele>222.33333333333331</ele><time>2026-04-04T12:07:48.944Z</time></trkpt><trkpt lat="44.6450478" lon="8.2454526"><ele>222.66666666666666</ele><time>2026-04-04T12:07:49.944Z</time></trkpt><trkpt lat="44.6449158" lon="8.2455681"><ele>223.0</ele><time>2026-04-04T12:07:50.943Z</time></trkpt><trkpt lat="44.6447944" lon="8.2457114"><ele>221.33333333333331</ele><time>2026-04-04T12:07:51.943Z</time></trkpt><trkpt lat="44.6446744" lon="8.245849"><ele>219.66666666666669</ele><time>2026-04-04T12:07:52.944Z</time></trkpt><trkpt lat="44.6445542" lon="8.2459843"><ele>218.0</ele><time>2026-04-04T12:07:53.944Z</time></trkpt><trkpt lat="44.6444268" lon="8.2461208"><ele>219.0</ele><time>2026-04-04T12:07:54.943Z</time></trkpt><trkpt lat="44.6443034" lon="8.2462493"><ele>220.0</ele><time>2026-04-04T12:07:55.944Z</time></trkpt><trkpt lat="44.644184" lon="8.2463807"><ele>221.0</ele><time>2026-04-04T12:07:56.944Z</time></trkpt><trkpt lat="44.6440716" lon="8.2465058"><ele>222.0</ele><time>2026-04-04T12:07:57.944Z</time></trkpt><trkpt lat="44.6439572" lon="8.2466208"><ele>222.0</ele><time>2026-04-04T12:07:58.944Z</time></trkpt><trkpt lat="44.6438419" lon="8.2467349"><ele>222.0</ele><time>2026-04-04T12:07:59.943Z</time></trkpt><trkpt lat="44.6437283" lon="8.2468463"><ele>222.0</ele><time>2026-04-04T12:08:00.944Z</time></trkpt><trkpt lat="44.6436035" lon="8.2469627"><ele>222.0</ele><time>2026-04-04T12:08:01.944Z</time></trkpt><trkpt lat="44.6434721" lon="8.2470709"><ele>221.33333333333331</ele><time>2026-04-04T12:08:02.944Z</time></trkpt><trkpt lat="44.6433287" lon="8.2471664"><ele>220.66666666666666</ele><time>2026-04-04T12:08:03.944Z</time></trkpt><trkpt lat="44.6431812" lon="8.2472506"><ele>220.0</ele><time>2026-04-04T12:08:04.943Z</time></trkpt><trkpt lat="44.6430303" lon="8.247328"><ele>220.0</ele><time>2026-04-04T12:08:05.943Z</time></trkpt><trkpt lat="44.6428744" lon="8.2474017"><ele>220.0</ele><time>2026-04-04T12:08:06.944Z</time></trkpt><trkpt lat="44.6427171" lon="8.2474669"><ele>220.0</ele><time>2026-04-04T12:08:07.944Z</time></trkpt><trkpt lat="44.6425569" lon="8.2475233"><ele>222.33333333333331</ele><time>2026-04-04T12:08:08.944Z</time></trkpt><trkpt lat="44.6424" lon="8.2475771"><ele>224.66666666666669</ele><time>2026-04-04T12:08:09.944Z</time></trkpt><trkpt lat="44.6422354" lon="8.2476204"><ele>227.0</ele><time>2026-04-04T12:08:10.943Z</time></trkpt><trkpt lat="44.6420632" lon="8.2476631"><ele>228.33333333333334</ele><time>2026-04-04T12:08:11.944Z</time></trkpt><trkpt lat="44.6418917" lon="8.2477059"><ele>229.66666666666669</ele><time>2026-04-04T12:08:12.944Z</time></trkpt><trkpt lat="44.6417312" lon="8.2477502"><ele>231.0</ele><time>2026-04-04T12:08:13.944Z</time></trkpt><trkpt lat="44.6415775" lon="8.2478004"><ele>231.0</ele><time>2026-04-04T12:08:14.944Z</time></trkpt><trkpt lat="44.6414248" lon="8.2478435"><ele>231.0</ele><time>2026-04-04T12:08:15.943Z</time></trkpt><trkpt lat="44.6412644" lon="8.2478913"><ele>231.0</ele><time>2026-04-04T12:08:16.943Z</time></trkpt><trkpt lat="44.6410948" lon="8.2479343"><ele>233.33333333333331</ele><time>2026-04-04T12:08:17.943Z</time></trkpt><trkpt lat="44.6409165" lon="8.2479746"><ele>235.66666666666666</ele><time>2026-04-04T12:08:18.944Z</time></trkpt><trkpt lat="44.6407357" lon="8.2480218"><ele>238.0</ele><time>2026-04-04T12:08:19.943Z</time></trkpt><trkpt lat="44.6405583" lon="8.2480723"><ele>238.0</ele><time>2026-04-04T12:08:20.943Z</time></trkpt><trkpt lat="44.6403796" lon="8.2481204"><ele>238.0</ele><time>2026-04-04T12:08:21.944Z</time></trkpt><trkpt lat="44.6401961" lon="8.2481735"><ele>238.0</ele><time>2026-04-04T12:08:22.943Z</time></trkpt><trkpt lat="44.6400149" lon="8.2482279"><ele>237.33333333333331</ele><time>2026-04-04T12:08:23.944Z</time></trkpt><trkpt lat="44.6398344" lon="8.2482806"><ele>236.66666666666669</ele><time>2026-04-04T12:08:24.943Z</time></trkpt><trkpt lat="44.6396605" lon="8.248331"><ele>236.0</ele><time>2026-04-04T12:08:25.943Z</time></trkpt><trkpt lat="44.6394915" lon="8.2483698"><ele>237.0</ele><time>2026-04-04T12:08:26.944Z</time></trkpt><trkpt lat="44.6393262" lon="8.2484059"><ele>238.0</ele><time>2026-04-04T12:08:27.944Z</time></trkpt><trkpt lat="44.6391575" lon="8.248427"><ele>239.0</ele><time>2026-04-04T12:08:28.944Z</time></trkpt><trkpt lat="44.638982" lon="8.2484215"><ele>239.0</ele><time>2026-04-04T12:08:29.943Z</time></trkpt><trkpt lat="44.6388113" lon="8.2484008"><ele>239.0</ele><time>2026-04-04T12:08:30.943Z</time></trkpt><trkpt lat="44.6386354" lon="8.2483662"><ele>239.0</ele><time>2026-04-04T12:08:31.944Z</time></trkpt><trkpt lat="44.6384654" lon="8.2483202"><ele>239.0</ele><time>2026-04-04T12:08:32.944Z</time></trkpt><trkpt lat="44.63829" lon="8.2482654"><ele>239.0</ele><time>2026-04-04T12:08:33.944Z</time></trkpt><trkpt lat="44.6381199" lon="8.2482019"><ele>239.0</ele><time>2026-04-04T12:08:34.944Z</time></trkpt><trkpt lat="44.6379549" lon="8.2481267"><ele>239.5</ele><time>2026-04-04T12:08:35.944Z</time></trkpt><trkpt lat="44.6377996" lon="8.2480643"><ele>240.0</ele><time>2026-04-04T12:08:36.944Z</time></trkpt><trkpt lat="44.6376566" lon="8.248009"><ele>240.5</ele><time>2026-04-04T12:08:37.944Z</time></trkpt><trkpt lat="44.6375345" lon="8.2479309"><ele>241.0</ele><time>2026-04-04T12:08:38.944Z</time></trkpt><trkpt lat="44.6374067" lon="8.2478427"><ele>241.0</ele><time>2026-04-04T12:08:39.944Z</time></trkpt><trkpt lat="44.637299" lon="8.247704"><ele>241.0</ele><time>2026-04-04T12:08:40.944Z</time></trkpt><trkpt lat="44.6372089" lon="8.2475436"><ele>241.0</ele><time>2026-04-04T12:08:41.944Z</time></trkpt><trkpt lat="44.6371526" lon="8.2473481"><ele>241.0</ele><time>2026-04-04T12:08:42.944Z</time></trkpt><trkpt lat="44.6371161" lon="8.2471513"><ele>243.0</ele><time>2026-04-04T12:08:43.944Z</time></trkpt><trkpt lat="44.6371148" lon="8.2469204"><ele>245.0</ele><time>2026-04-04T12:08:44.943Z</time></trkpt><trkpt lat="44.6371381" lon="8.2466787"><ele>247.0</ele><time>2026-04-04T12:08:45.944Z</time></trkpt><trkpt lat="44.6371774" lon="8.2464372"><ele>247.0</ele><time>2026-04-04T12:08:46.944Z</time></trkpt><trkpt lat="44.6372022" lon="8.2461874"><ele>247.0</ele><time>2026-04-04T12:08:47.944Z</time></trkpt><trkpt lat="44.6372125" lon="8.2459321"><ele>247.0</ele><time>2026-04-04T12:08:48.944Z</time></trkpt><trkpt lat="44.6371911" lon="8.2456784"><ele>245.0</ele><time>2026-04-04T12:08:49.944Z</time></trkpt><trkpt lat="44.6371443" lon="8.2454185"><ele>243.0</ele><time>2026-04-04T12:08:50.944Z</time></trkpt><trkpt lat="44.6370909" lon="8.2451497"><ele>241.0</ele><time>2026-04-04T12:08:51.943Z</time></trkpt><trkpt lat="44.6370412" lon="8.2448728"><ele>239.0</ele><time>2026-04-04T12:08:52.944Z</time></trkpt><trkpt lat="44.6369966" lon="8.2445899"><ele>237.0</ele><time>2026-04-04T12:08:53.944Z</time></trkpt><trkpt lat="44.6369506" lon="8.2443068"><ele>235.0</ele><time>2026-04-04T12:08:54.944Z</time></trkpt><trkpt lat="44.6369036" lon="8.2440329"><ele>229.33333333333331</ele><time>2026-04-04T12:08:55.944Z</time></trkpt><trkpt lat="44.636852" lon="8.2437623"><ele>223.66666666666669</ele><time>2026-04-04T12:08:56.944Z</time></trkpt><trkpt lat="44.636801" lon="8.2434918"><ele>218.0</ele><time>2026-04-04T12:08:57.943Z</time></trkpt><trkpt lat="44.6367501" lon="8.243215"><ele>218.33333333333334</ele><time>2026-04-04T12:08:58.944Z</time></trkpt><trkpt lat="44.6367002" lon="8.2429368"><ele>218.66666666666669</ele><time>2026-04-04T12:08:59.944Z</time></trkpt><trkpt lat="44.6366583" lon="8.2426529"><ele>219.0</ele><time>2026-04-04T12:09:00.944Z</time></trkpt><trkpt lat="44.636619" lon="8.2423812"><ele>219.33333333333331</ele><time>2026-04-04T12:09:01.943Z</time></trkpt><trkpt lat="44.636586" lon="8.2421046"><ele>219.66666666666666</ele><time>2026-04-04T12:09:02.944Z</time></trkpt><trkpt lat="44.6365442" lon="8.2418196"><ele>220.0</ele><time>2026-04-04T12:09:03.944Z</time></trkpt><trkpt lat="44.6364886" lon="8.2415534"><ele>220.66666666666666</ele><time>2026-04-04T12:09:04.944Z</time></trkpt><trkpt lat="44.6364384" lon="8.2412868"><ele>221.33333333333331</ele><time>2026-04-04T12:09:05.943Z</time></trkpt><trkpt lat="44.6363999" lon="8.2410206"><ele>222.0</ele><time>2026-04-04T12:09:06.943Z</time></trkpt><trkpt lat="44.6363632" lon="8.2407666"><ele>222.66666666666669</ele><time>2026-04-04T12:09:07.943Z</time></trkpt><trkpt lat="44.6363284" lon="8.2405001"><ele>223.33333333333334</ele><time>2026-04-04T12:09:08.944Z</time></trkpt><trkpt lat="44.6363083" lon="8.2402246"><ele>224.0</ele><time>2026-04-04T12:09:09.944Z</time></trkpt><trkpt lat="44.6362981" lon="8.2399539"><ele>224.66666666666669</ele><time>2026-04-04T12:09:10.944Z</time></trkpt><trkpt lat="44.6362905" lon="8.2396851"><ele>225.33333333333331</ele><time>2026-04-04T12:09:11.944Z</time></trkpt><trkpt lat="44.636281" lon="8.2394155"><ele>226.0</ele><time>2026-04-04T12:09:12.944Z</time></trkpt><trkpt lat="44.6362645" lon="8.2391414"><ele>227.66666666666666</ele><time>2026-04-04T12:09:13.944Z</time></trkpt><trkpt lat="44.636249" lon="8.2388771"><ele>229.33333333333331</ele><time>2026-04-04T12:09:14.944Z</time></trkpt><trkpt lat="44.6362459" lon="8.2386197"><ele>231.0</ele><time>2026-04-04T12:09:15.943Z</time></trkpt><trkpt lat="44.6362436" lon="8.2383632"><ele>232.33333333333331</ele><time>2026-04-04T12:09:16.944Z</time></trkpt><trkpt lat="44.6362416" lon="8.2381126"><ele>233.66666666666666</ele><time>2026-04-04T12:09:17.944Z</time></trkpt><trkpt lat="44.6362394" lon="8.2378828"><ele>235.0</ele><time>2026-04-04T12:09:18.944Z</time></trkpt><trkpt lat="44.6362327" lon="8.2376534"><ele>235.0</ele><time>2026-04-04T12:09:19.944Z</time></trkpt><trkpt lat="44.6362394" lon="8.2374296"><ele>235.0</ele><time>2026-04-04T12:09:20.944Z</time></trkpt><trkpt lat="44.6362525" lon="8.2371957"><ele>235.0</ele><time>2026-04-04T12:09:21.944Z</time></trkpt><trkpt lat="44.6362964" lon="8.236951"><ele>235.0</ele><time>2026-04-04T12:09:22.944Z</time></trkpt><trkpt lat="44.6363504" lon="8.2366981"><ele>235.0</ele><time>2026-04-04T12:09:23.944Z</time></trkpt><trkpt lat="44.6364163" lon="8.2364447"><ele>235.0</ele><time>2026-04-04T12:09:24.944Z</time></trkpt><trkpt lat="44.6364768" lon="8.23619"><ele>234.33333333333331</ele><time>2026-04-04T12:09:25.944Z</time></trkpt><trkpt lat="44.6365376" lon="8.2359275"><ele>233.66666666666669</ele><time>2026-04-04T12:09:26.944Z</time></trkpt><trkpt lat="44.6366046" lon="8.2356662"><ele>233.0</ele><time>2026-04-04T12:09:27.943Z</time></trkpt><trkpt lat="44.6366747" lon="8.2353993"><ele>229.33333333333334</ele><time>2026-04-04T12:09:28.943Z</time></trkpt><trkpt lat="44.6367424" lon="8.2351257"><ele>225.66666666666669</ele><time>2026-04-04T12:09:29.944Z</time></trkpt><trkpt lat="44.6368113" lon="8.2348598"><ele>222.0</ele><time>2026-04-04T12:09:30.943Z</time></trkpt><trkpt lat="44.636877" lon="8.2345859"><ele>220.33333333333331</ele><time>2026-04-04T12:09:31.943Z</time></trkpt><trkpt lat="44.636932" lon="8.2343054"><ele>218.66666666666666</ele><time>2026-04-04T12:09:32.944Z</time></trkpt><trkpt lat="44.6369941" lon="8.2340176"><ele>217.0</ele><time>2026-04-04T12:09:33.944Z</time></trkpt><trkpt lat="44.637056" lon="8.233733"><ele>220.0</ele><time>2026-04-04T12:09:34.943Z</time></trkpt><trkpt lat="44.637114" lon="8.2334664"><ele>223.0</ele><time>2026-04-04T12:09:35.944Z</time></trkpt><trkpt lat="44.6371719" lon="8.2332226"><ele>226.0</ele><time>2026-04-04T12:09:36.944Z</time></trkpt><trkpt lat="44.6372154" lon="8.2329731"><ele>226.0</ele><time>2026-04-04T12:09:37.944Z</time></trkpt><trkpt lat="44.6372807" lon="8.2327242"><ele>226.0</ele><time>2026-04-04T12:09:38.944Z</time></trkpt><trkpt lat="44.6373547" lon="8.2324957"><ele>226.0</ele><time>2026-04-04T12:09:39.944Z</time></trkpt><trkpt lat="44.6374293" lon="8.2322719"><ele>226.0</ele><time>2026-04-04T12:09:40.943Z</time></trkpt><trkpt lat="44.6374978" lon="8.2320668"><ele>226.0</ele><time>2026-04-04T12:09:41.943Z</time></trkpt><trkpt lat="44.6375631" lon="8.2318627"><ele>226.0</ele><time>2026-04-04T12:09:42.944Z</time></trkpt><trkpt lat="44.6376116" lon="8.2316461"><ele>227.0</ele><time>2026-04-04T12:09:43.944Z</time></trkpt><trkpt lat="44.6376391" lon="8.2314182"><ele>228.0</ele><time>2026-04-04T12:09:44.944Z</time></trkpt><trkpt lat="44.6376378" lon="8.2311857"><ele>229.0</ele><time>2026-04-04T12:09:45.944Z</time></trkpt><trkpt lat="44.6376162" lon="8.2309493"><ele>229.0</ele><time>2026-04-04T12:09:46.943Z</time></trkpt><trkpt lat="44.6375828" lon="8.2307214"><ele>229.0</ele><time>2026-04-04T12:09:47.944Z</time></trkpt><trkpt lat="44.6375502" lon="8.230493"><ele>229.0</ele><time>2026-04-04T12:09:48.943Z</time></trkpt><trkpt lat="44.6375178" lon="8.2302793"><ele>230.0</ele><time>2026-04-04T12:09:49.944Z</time></trkpt><trkpt lat="44.6374846" lon="8.2300738"><ele>231.0</ele><time>2026-04-04T12:09:50.944Z</time></trkpt><trkpt lat="44.6374598" lon="8.2298632"><ele>232.0</ele><time>2026-04-04T12:09:51.944Z</time></trkpt><trkpt lat="44.6374392" lon="8.2296571"><ele>232.75</ele><time>2026-04-04T12:09:52.943Z</time></trkpt><trkpt lat="44.6374054" lon="8.2294721"><ele>233.5</ele><time>2026-04-04T12:09:53.944Z</time></trkpt><trkpt lat="44.6373479" lon="8.229305"><ele>234.25</ele><time>2026-04-04T12:09:54.944Z</time></trkpt><trkpt lat="44.6372603" lon="8.2291677"><ele>235.0</ele><time>2026-04-04T12:09:55.944Z</time></trkpt><trkpt lat="44.6371588" lon="8.2290496"><ele>236.75</ele><time>2026-04-04T12:09:56.943Z</time></trkpt><trkpt lat="44.6370478" lon="8.2289575"><ele>238.5</ele><time>2026-04-04T12:09:57.944Z</time></trkpt><trkpt lat="44.6369372" lon="8.2288658"><ele>240.25</ele><time>2026-04-04T12:09:58.943Z</time></trkpt><trkpt lat="44.6368418" lon="8.2287729"><ele>242.0</ele><time>2026-04-04T12:09:59.944Z</time></trkpt><trkpt lat="44.636743" lon="8.2286934"><ele>238.0</ele><time>2026-04-04T12:10:00.944Z</time></trkpt><trkpt lat="44.6366315" lon="8.2286174"><ele>234.0</ele><time>2026-04-04T12:10:01.944Z</time></trkpt><trkpt lat="44.6365027" lon="8.2285523"><ele>230.0</ele><time>2026-04-04T12:10:02.944Z</time></trkpt><trkpt lat="44.6363945" lon="8.228484"><ele>226.0</ele><time>2026-04-04T12:10:03.943Z</time></trkpt><trkpt lat="44.6362898" lon="8.2284101"><ele>226.0</ele><time>2026-04-04T12:10:04.944Z</time></trkpt><trkpt lat="44.6361982" lon="8.2283291"><ele>226.00000000000003</ele><time>2026-04-04T12:10:05.943Z</time></trkpt><trkpt lat="44.6361189" lon="8.2282363"><ele>226.00000000000003</ele><time>2026-04-04T12:10:06.943Z</time></trkpt><trkpt lat="44.636052" lon="8.2281314"><ele>226.0</ele><time>2026-04-04T12:10:07.943Z</time></trkpt><trkpt lat="44.6359913" lon="8.2280074"><ele>226.0</ele><time>2026-04-04T12:10:08.943Z</time></trkpt><trkpt lat="44.6359273" lon="8.2278772"><ele>225.75</ele><time>2026-04-04T12:10:09.944Z</time></trkpt><trkpt lat="44.6358602" lon="8.2277344"><ele>225.5</ele><time>2026-04-04T12:10:10.943Z</time></trkpt><trkpt lat="44.6357953" lon="8.2275733"><ele>225.25</ele><time>2026-04-04T12:10:11.944Z</time></trkpt><trkpt lat="44.6357253" lon="8.2274132"><ele>225.0</ele><time>2026-04-04T12:10:12.944Z</time></trkpt><trkpt lat="44.6356592" lon="8.2272428"><ele>225.0</ele><time>2026-04-04T12:10:13.944Z</time></trkpt><trkpt lat="44.6355944" lon="8.2270753"><ele>225.0</ele><time>2026-04-04T12:10:14.944Z</time></trkpt><trkpt lat="44.6355214" lon="8.2269317"><ele>225.0</ele><time>2026-04-04T12:10:15.944Z</time></trkpt><trkpt lat="44.6354586" lon="8.2268026"><ele>225.0</ele><time>2026-04-04T12:10:16.943Z</time></trkpt><trkpt lat="44.6353888" lon="8.2266875"><ele>225.0</ele><time>2026-04-04T12:10:17.944Z</time></trkpt><trkpt lat="44.6353044" lon="8.226577"><ele>225.0</ele><time>2026-04-04T12:10:18.944Z</time></trkpt><trkpt lat="44.6351907" lon="8.2264951"><ele>225.0</ele><time>2026-04-04T12:10:19.942Z</time></trkpt><trkpt lat="44.6350628" lon="8.2264107"><ele>225.0</ele><time>2026-04-04T12:10:20.943Z</time></trkpt><trkpt lat="44.6349237" lon="8.2263364"><ele>225.0</ele><time>2026-04-04T12:10:21.943Z</time></trkpt><trkpt lat="44.6347894" lon="8.2262608"><ele>225.0</ele><time>2026-04-04T12:10:22.943Z</time></trkpt><trkpt lat="44.6346768" lon="8.2261639"><ele>225.0</ele><time>2026-04-04T12:10:23.943Z</time></trkpt><trkpt lat="44.6345508" lon="8.2260866"><ele>225.0</ele><time>2026-04-04T12:10:24.943Z</time></trkpt><trkpt lat="44.6344237" lon="8.2260081"><ele>225.25</ele><time>2026-04-04T12:10:25.943Z</time></trkpt><trkpt lat="44.634295" lon="8.2259293"><ele>225.5</ele><time>2026-04-04T12:10:26.943Z</time></trkpt><trkpt lat="44.6341598" lon="8.2258485"><ele>225.75</ele><time>2026-04-04T12:10:27.943Z</time></trkpt><trkpt lat="44.6340218" lon="8.2257675"><ele>226.0</ele><time>2026-04-04T12:10:28.942Z</time></trkpt><trkpt lat="44.633887" lon="8.2256809"><ele>226.0</ele><time>2026-04-04T12:10:29.943Z</time></trkpt><trkpt lat="44.6337478" lon="8.2256011"><ele>226.0</ele><time>2026-04-04T12:10:30.943Z</time></trkpt><trkpt lat="44.6336038" lon="8.2255186"><ele>226.0</ele><time>2026-04-04T12:10:31.943Z</time></trkpt><trkpt lat="44.633458" lon="8.2254358"><ele>226.0</ele><time>2026-04-04T12:10:32.943Z</time></trkpt><trkpt lat="44.6333165" lon="8.22535"><ele>226.0</ele><time>2026-04-04T12:10:33.943Z</time></trkpt><trkpt lat="44.6331769" lon="8.2252716"><ele>226.0</ele><time>2026-04-04T12:10:34.943Z</time></trkpt><trkpt lat="44.6330391" lon="8.2251807"><ele>226.0</ele><time>2026-04-04T12:10:35.943Z</time></trkpt><trkpt lat="44.6328956" lon="8.22508"><ele>226.0</ele><time>2026-04-04T12:10:36.942Z</time></trkpt><trkpt lat="44.6327487" lon="8.2249887"><ele>226.0</ele><time>2026-04-04T12:10:37.943Z</time></trkpt><trkpt lat="44.6326" lon="8.2248924"><ele>227.33333333333331</ele><time>2026-04-04T12:10:38.943Z</time></trkpt><trkpt lat="44.6324447" lon="8.2247995"><ele>228.66666666666669</ele><time>2026-04-04T12:10:39.942Z</time></trkpt><trkpt lat="44.6322876" lon="8.2247136"><ele>230.0</ele><time>2026-04-04T12:10:40.943Z</time></trkpt><trkpt lat="44.6321316" lon="8.2246246"><ele>230.0</ele><time>2026-04-04T12:10:41.943Z</time></trkpt><trkpt lat="44.631981" lon="8.2245354"><ele>230.0</ele><time>2026-04-04T12:10:42.943Z</time></trkpt><trkpt lat="44.6318274" lon="8.2244393"><ele>230.0</ele><time>2026-04-04T12:10:43.943Z</time></trkpt><trkpt lat="44.6316702" lon="8.2243422"><ele>229.66666666666669</ele><time>2026-04-04T12:10:44.943Z</time></trkpt><trkpt lat="44.6315094" lon="8.224248"><ele>229.33333333333331</ele><time>2026-04-04T12:10:45.943Z</time></trkpt><trkpt lat="44.6313465" lon="8.2241604"><ele>229.0</ele><time>2026-04-04T12:10:46.943Z</time></trkpt><trkpt lat="44.6311856" lon="8.2240665"><ele>230.0</ele><time>2026-04-04T12:10:47.943Z</time></trkpt><trkpt lat="44.6310229" lon="8.2239759"><ele>231.0</ele><time>2026-04-04T12:10:48.942Z</time></trkpt><trkpt lat="44.6308634" lon="8.2238802"><ele>232.0</ele><time>2026-04-04T12:10:49.943Z</time></trkpt><trkpt lat="44.6306989" lon="8.2237858"><ele>232.0</ele><time>2026-04-04T12:10:50.943Z</time></trkpt><trkpt lat="44.6305384" lon="8.2236839"><ele>232.0</ele><time>2026-04-04T12:10:51.943Z</time></trkpt><trkpt lat="44.6303716" lon="8.2235846"><ele>232.0</ele><time>2026-04-04T12:10:52.943Z</time></trkpt><trkpt lat="44.6302078" lon="8.223486"><ele>231.66666666666666</ele><time>2026-04-04T12:10:53.943Z</time></trkpt><trkpt lat="44.6300415" lon="8.2233843"><ele>231.33333333333331</ele><time>2026-04-04T12:10:54.943Z</time></trkpt><trkpt lat="44.6298768" lon="8.2232795"><ele>231.0</ele><time>2026-04-04T12:10:55.943Z</time></trkpt><trkpt lat="44.6297054" lon="8.2231714"><ele>232.0</ele><time>2026-04-04T12:10:56.943Z</time></trkpt><trkpt lat="44.629531" lon="8.2230634"><ele>233.0</ele><time>2026-04-04T12:10:57.942Z</time></trkpt><trkpt lat="44.629358" lon="8.2229538"><ele>234.0</ele><time>2026-04-04T12:10:58.942Z</time></trkpt><trkpt lat="44.629182" lon="8.2228458"><ele>234.0</ele><time>2026-04-04T12:10:59.942Z</time></trkpt><trkpt lat="44.6290067" lon="8.2227372"><ele>234.0</ele><time>2026-04-04T12:11:00.942Z</time></trkpt><trkpt lat="44.6288279" lon="8.2226256"><ele>234.0</ele><time>2026-04-04T12:11:01.943Z</time></trkpt><trkpt lat="44.6286455" lon="8.222514"><ele>233.33333333333331</ele><time>2026-04-04T12:11:02.942Z</time></trkpt><trkpt lat="44.6284683" lon="8.2224047"><ele>232.66666666666666</ele><time>2026-04-04T12:11:03.943Z</time></trkpt><trkpt lat="44.6282888" lon="8.2223019"><ele>232.0</ele><time>2026-04-04T12:11:04.943Z</time></trkpt><trkpt lat="44.6281062" lon="8.2221953"><ele>231.33333333333331</ele><time>2026-04-04T12:11:05.943Z</time></trkpt><trkpt lat="44.6279216" lon="8.2220881"><ele>230.66666666666669</ele><time>2026-04-04T12:11:06.943Z</time></trkpt><trkpt lat="44.6277389" lon="8.2219837"><ele>230.0</ele><time>2026-04-04T12:11:07.943Z</time></trkpt><trkpt lat="44.6275533" lon="8.2218763"><ele>230.0</ele><time>2026-04-04T12:11:08.943Z</time></trkpt><trkpt lat="44.6273694" lon="8.2217647"><ele>230.0</ele><time>2026-04-04T12:11:09.943Z</time></trkpt><trkpt lat="44.6271884" lon="8.2216505"><ele>230.0</ele><time>2026-04-04T12:11:10.943Z</time></trkpt><trkpt lat="44.6270068" lon="8.2215396"><ele>231.0</ele><time>2026-04-04T12:11:11.943Z</time></trkpt><trkpt lat="44.6268276" lon="8.2214279"><ele>232.0</ele><time>2026-04-04T12:11:12.942Z</time></trkpt><trkpt lat="44.6266519" lon="8.2213199"><ele>233.0</ele><time>2026-04-04T12:11:13.943Z</time></trkpt><trkpt lat="44.6264841" lon="8.2212133"><ele>233.0</ele><time>2026-04-04T12:11:14.943Z</time></trkpt><trkpt lat="44.6263003" lon="8.221109"><ele>233.0</ele><time>2026-04-04T12:11:15.942Z</time></trkpt><trkpt lat="44.6261181" lon="8.221002"><ele>233.0</ele><time>2026-04-04T12:11:16.942Z</time></trkpt><trkpt lat="44.6259404" lon="8.220899"><ele>232.33333333333334</ele><time>2026-04-04T12:11:17.943Z</time></trkpt><trkpt lat="44.6257746" lon="8.2207912"><ele>231.66666666666669</ele><time>2026-04-04T12:11:18.943Z</time></trkpt><trkpt lat="44.6256156" lon="8.2206736"><ele>231.0</ele><time>2026-04-04T12:11:19.942Z</time></trkpt><trkpt lat="44.6254626" lon="8.2205393"><ele>231.0</ele><time>2026-04-04T12:11:20.943Z</time></trkpt><trkpt lat="44.6253236" lon="8.2203848"><ele>231.0</ele><time>2026-04-04T12:11:21.943Z</time></trkpt><trkpt lat="44.625195" lon="8.2202106"><ele>231.0</ele><time>2026-04-04T12:11:22.943Z</time></trkpt><trkpt lat="44.6250741" lon="8.2200209"><ele>231.66666666666669</ele><time>2026-04-04T12:11:23.942Z</time></trkpt><trkpt lat="44.6249699" lon="8.2198295"><ele>232.33333333333334</ele><time>2026-04-04T12:11:24.942Z</time></trkpt><trkpt lat="44.6248753" lon="8.2196288"><ele>233.0</ele><time>2026-04-04T12:11:25.943Z</time></trkpt><trkpt lat="44.6247846" lon="8.2194301"><ele>233.66666666666669</ele><time>2026-04-04T12:11:26.943Z</time></trkpt><trkpt lat="44.6246986" lon="8.2192294"><ele>234.33333333333331</ele><time>2026-04-04T12:11:27.943Z</time></trkpt><trkpt lat="44.6246112" lon="8.2190213"><ele>235.0</ele><time>2026-04-04T12:11:28.943Z</time></trkpt><trkpt lat="44.6245192" lon="8.2188184"><ele>234.0</ele><time>2026-04-04T12:11:29.943Z</time></trkpt><trkpt lat="44.6244261" lon="8.2186226"><ele>233.0</ele><time>2026-04-04T12:11:30.943Z</time></trkpt><trkpt lat="44.624331" lon="8.2184308"><ele>232.0</ele><time>2026-04-04T12:11:31.942Z</time></trkpt><trkpt lat="44.6242236" lon="8.2182415"><ele>239.0</ele><time>2026-04-04T12:11:32.942Z</time></trkpt><trkpt lat="44.6241072" lon="8.2180717"><ele>246.0</ele><time>2026-04-04T12:11:33.943Z</time></trkpt><trkpt lat="44.6239774" lon="8.2179261"><ele>253.0</ele><time>2026-04-04T12:11:34.943Z</time></trkpt><trkpt lat="44.623841" lon="8.2177758"><ele>253.0</ele><time>2026-04-04T12:11:35.943Z</time></trkpt><trkpt lat="44.6237054" lon="8.2176287"><ele>253.0</ele><time>2026-04-04T12:11:36.942Z</time></trkpt><trkpt lat="44.6235705" lon="8.2174978"><ele>253.0</ele><time>2026-04-04T12:11:37.943Z</time></trkpt><trkpt lat="44.6234508" lon="8.2173529"><ele>250.5</ele><time>2026-04-04T12:11:38.943Z</time></trkpt><trkpt lat="44.6233434" lon="8.2172018"><ele>248.0</ele><time>2026-04-04T12:11:39.943Z</time></trkpt><trkpt lat="44.6232488" lon="8.2170433"><ele>245.5</ele><time>2026-04-04T12:11:40.942Z</time></trkpt><trkpt lat="44.6231594" lon="8.2168905"><ele>243.0</ele><time>2026-04-04T12:11:41.942Z</time></trkpt><trkpt lat="44.6230582" lon="8.2167643"><ele>243.0</ele><time>2026-04-04T12:11:42.943Z</time></trkpt><trkpt lat="44.6229449" lon="8.2166582"><ele>243.0</ele><time>2026-04-04T12:11:43.943Z</time></trkpt><trkpt lat="44.6228438" lon="8.2165056"><ele>243.0</ele><time>2026-04-04T12:11:44.943Z</time></trkpt><trkpt lat="44.6227477" lon="8.2163306"><ele>243.0</ele><time>2026-04-04T12:11:45.943Z</time></trkpt><trkpt lat="44.6226608" lon="8.21617"><ele>241.25</ele><time>2026-04-04T12:11:46.942Z</time></trkpt><trkpt lat="44.6225827" lon="8.2159945"><ele>239.5</ele><time>2026-04-04T12:11:47.943Z</time></trkpt><trkpt lat="44.6225084" lon="8.2158201"><ele>237.75</ele><time>2026-04-04T12:11:48.943Z</time></trkpt><trkpt lat="44.6224424" lon="8.2156366"><ele>236.0</ele><time>2026-04-04T12:11:49.943Z</time></trkpt><trkpt lat="44.6223721" lon="8.2154705"><ele>239.75</ele><time>2026-04-04T12:11:50.942Z</time></trkpt><trkpt lat="44.6222938" lon="8.2153063"><ele>243.5</ele><time>2026-04-04T12:11:51.943Z</time></trkpt><trkpt lat="44.6222077" lon="8.2151429"><ele>247.25</ele><time>2026-04-04T12:11:52.942Z</time></trkpt><trkpt lat="44.6221192" lon="8.2149873"><ele>251.0</ele><time>2026-04-04T12:11:53.943Z</time></trkpt><trkpt lat="44.6220312" lon="8.2148305"><ele>250.5</ele><time>2026-04-04T12:11:54.942Z</time></trkpt><trkpt lat="44.6219459" lon="8.2146762"><ele>250.0</ele><time>2026-04-04T12:11:55.943Z</time></trkpt><trkpt lat="44.6218536" lon="8.2145269"><ele>249.5</ele><time>2026-04-04T12:11:56.943Z</time></trkpt><trkpt lat="44.6217479" lon="8.2143702"><ele>249.0</ele><time>2026-04-04T12:11:57.943Z</time></trkpt><trkpt lat="44.6216321" lon="8.2142404"><ele>249.0</ele><time>2026-04-04T12:11:58.942Z</time></trkpt><trkpt lat="44.6215029" lon="8.2141294"><ele>249.0</ele><time>2026-04-04T12:11:59.943Z</time></trkpt><trkpt lat="44.6213627" lon="8.2140354"><ele>249.0</ele><time>2026-04-04T12:12:00.942Z</time></trkpt><trkpt lat="44.6212239" lon="8.2139502"><ele>250.25</ele><time>2026-04-04T12:12:01.943Z</time></trkpt><trkpt lat="44.621092" lon="8.2138714"><ele>251.5</ele><time>2026-04-04T12:12:02.943Z</time></trkpt><trkpt lat="44.6209588" lon="8.2137898"><ele>252.75</ele><time>2026-04-04T12:12:03.942Z</time></trkpt><trkpt lat="44.6208388" lon="8.2136923"><ele>254.0</ele><time>2026-04-04T12:12:04.943Z</time></trkpt><trkpt lat="44.6207203" lon="8.2135762"><ele>254.0</ele><time>2026-04-04T12:12:05.942Z</time></trkpt><trkpt lat="44.6206036" lon="8.2134543"><ele>254.0</ele><time>2026-04-04T12:12:06.942Z</time></trkpt><trkpt lat="44.6204895" lon="8.2133315"><ele>254.0</ele><time>2026-04-04T12:12:07.943Z</time></trkpt><trkpt lat="44.6203688" lon="8.2132115"><ele>254.0</ele><time>2026-04-04T12:12:08.943Z</time></trkpt><trkpt lat="44.6202473" lon="8.2130928"><ele>255.0</ele><time>2026-04-04T12:12:09.943Z</time></trkpt><trkpt lat="44.6201211" lon="8.2129841"><ele>256.0</ele><time>2026-04-04T12:12:10.942Z</time></trkpt><trkpt lat="44.619981" lon="8.2128872"><ele>257.0</ele><time>2026-04-04T12:12:11.943Z</time></trkpt><trkpt lat="44.61983" lon="8.2128177"><ele>257.0</ele><time>2026-04-04T12:12:12.943Z</time></trkpt><trkpt lat="44.6196835" lon="8.2127518"><ele>257.0</ele><time>2026-04-04T12:12:13.943Z</time></trkpt><trkpt lat="44.6195386" lon="8.2126778"><ele>257.0</ele><time>2026-04-04T12:12:14.943Z</time></trkpt><trkpt lat="44.6193893" lon="8.2125898"><ele>256.6666666666667</ele><time>2026-04-04T12:12:15.943Z</time></trkpt><trkpt lat="44.6192367" lon="8.2124966"><ele>256.3333333333333</ele><time>2026-04-04T12:12:16.943Z</time></trkpt><trkpt lat="44.6190868" lon="8.2124004"><ele>256.0</ele><time>2026-04-04T12:12:17.943Z</time></trkpt><trkpt lat="44.6189365" lon="8.2123054"><ele>256.0</ele><time>2026-04-04T12:12:18.942Z</time></trkpt><trkpt lat="44.6187895" lon="8.2122224"><ele>256.0</ele><time>2026-04-04T12:12:19.943Z</time></trkpt><trkpt lat="44.6186336" lon="8.2121379"><ele>256.0</ele><time>2026-04-04T12:12:20.943Z</time></trkpt><trkpt lat="44.6184758" lon="8.2120425"><ele>253.66666666666666</ele><time>2026-04-04T12:12:21.943Z</time></trkpt><trkpt lat="44.6183187" lon="8.2119491"><ele>251.33333333333331</ele><time>2026-04-04T12:12:22.943Z</time></trkpt><trkpt lat="44.6181699" lon="8.2118602"><ele>249.0</ele><time>2026-04-04T12:12:23.943Z</time></trkpt><trkpt lat="44.6180302" lon="8.2117755"><ele>249.0</ele><time>2026-04-04T12:12:24.942Z</time></trkpt><trkpt lat="44.6178914" lon="8.2116924"><ele>249.0</ele><time>2026-04-04T12:12:25.942Z</time></trkpt><trkpt lat="44.6177519" lon="8.2116083"><ele>249.0</ele><time>2026-04-04T12:12:26.942Z</time></trkpt><trkpt lat="44.6176249" lon="8.2115072"><ele>249.0</ele><time>2026-04-04T12:12:27.942Z</time></trkpt><trkpt lat="44.6175141" lon="8.2114"><ele>248.75</ele><time>2026-04-04T12:12:28.943Z</time></trkpt><trkpt lat="44.6174261" lon="8.2112685"><ele>248.5</ele><time>2026-04-04T12:12:29.943Z</time></trkpt><trkpt lat="44.6173628" lon="8.2111115"><ele>248.25</ele><time>2026-04-04T12:12:30.943Z</time></trkpt><trkpt lat="44.6173251" lon="8.2109219"><ele>248.0</ele><time>2026-04-04T12:12:31.943Z</time></trkpt><trkpt lat="44.617319" lon="8.2107046"><ele>248.0</ele><time>2026-04-04T12:12:32.943Z</time></trkpt><trkpt lat="44.6173409" lon="8.2104776"><ele>248.0</ele><time>2026-04-04T12:12:33.942Z</time></trkpt><trkpt lat="44.6173768" lon="8.2102373"><ele>248.0</ele><time>2026-04-04T12:12:34.943Z</time></trkpt><trkpt lat="44.6174083" lon="8.2099943"><ele>248.33333333333334</ele><time>2026-04-04T12:12:35.943Z</time></trkpt><trkpt lat="44.6174293" lon="8.2097548"><ele>248.66666666666669</ele><time>2026-04-04T12:12:36.943Z</time></trkpt><trkpt lat="44.6174443" lon="8.2095172"><ele>249.0</ele><time>2026-04-04T12:12:37.943Z</time></trkpt><trkpt lat="44.6174577" lon="8.2092796"><ele>249.0</ele><time>2026-04-04T12:12:38.942Z</time></trkpt><trkpt lat="44.6174738" lon="8.2090435"><ele>249.0</ele><time>2026-04-04T12:12:39.943Z</time></trkpt><trkpt lat="44.6174918" lon="8.2088112"><ele>249.0</ele><time>2026-04-04T12:12:40.943Z</time></trkpt><trkpt lat="44.6175141" lon="8.2085773"><ele>248.5</ele><time>2026-04-04T12:12:41.943Z</time></trkpt><trkpt lat="44.6175334" lon="8.2083674"><ele>248.0</ele><time>2026-04-04T12:12:42.942Z</time></trkpt><trkpt lat="44.6175544" lon="8.2081618"><ele>247.5</ele><time>2026-04-04T12:12:43.942Z</time></trkpt><trkpt lat="44.6175706" lon="8.2079674"><ele>247.0</ele><time>2026-04-04T12:12:44.942Z</time></trkpt><trkpt lat="44.6175819" lon="8.2077705"><ele>247.0</ele><time>2026-04-04T12:12:45.943Z</time></trkpt><trkpt lat="44.6176044" lon="8.2075698"><ele>247.0</ele><time>2026-04-04T12:12:46.943Z</time></trkpt><trkpt lat="44.6176174" lon="8.2073696"><ele>247.0</ele><time>2026-04-04T12:12:47.943Z</time></trkpt><trkpt lat="44.6176026" lon="8.2071657"><ele>247.0</ele><time>2026-04-04T12:12:48.943Z</time></trkpt><trkpt lat="44.617563" lon="8.206956"><ele>247.33333333333331</ele><time>2026-04-04T12:12:49.943Z</time></trkpt><trkpt lat="44.617507" lon="8.2067355"><ele>247.66666666666669</ele><time>2026-04-04T12:12:50.943Z</time></trkpt><trkpt lat="44.6174471" lon="8.2065115"><ele>248.0</ele><time>2026-04-04T12:12:51.943Z</time></trkpt><trkpt lat="44.6173933" lon="8.2062784"><ele>249.66666666666669</ele><time>2026-04-04T12:12:52.942Z</time></trkpt><trkpt lat="44.6173408" lon="8.2060382"><ele>251.33333333333331</ele><time>2026-04-04T12:12:53.943Z</time></trkpt><trkpt lat="44.6172861" lon="8.2057871"><ele>253.0</ele><time>2026-04-04T12:12:54.942Z</time></trkpt><trkpt lat="44.6172309" lon="8.2055329"><ele>254.33333333333331</ele><time>2026-04-04T12:12:55.943Z</time></trkpt><trkpt lat="44.6171752" lon="8.2052766"><ele>255.66666666666669</ele><time>2026-04-04T12:12:56.942Z</time></trkpt><trkpt lat="44.6171187" lon="8.2050205"><ele>257.0</ele><time>2026-04-04T12:12:57.942Z</time></trkpt><trkpt lat="44.6170664" lon="8.2047641"><ele>257.0</ele><time>2026-04-04T12:12:58.943Z</time></trkpt><trkpt lat="44.6170124" lon="8.2045097"><ele>257.0</ele><time>2026-04-04T12:12:59.943Z</time></trkpt><trkpt lat="44.6169612" lon="8.2042583"><ele>257.0</ele><time>2026-04-04T12:13:00.942Z</time></trkpt><trkpt lat="44.6169109" lon="8.2040106"><ele>251.0</ele><time>2026-04-04T12:13:01.943Z</time></trkpt><trkpt lat="44.6168606" lon="8.2037782"><ele>245.0</ele><time>2026-04-04T12:13:02.943Z</time></trkpt><trkpt lat="44.61681" lon="8.2035458"><ele>239.0</ele><time>2026-04-04T12:13:03.943Z</time></trkpt><trkpt lat="44.6167586" lon="8.2033079"><ele>241.0</ele><time>2026-04-04T12:13:04.943Z</time></trkpt><trkpt lat="44.6167077" lon="8.2030853"><ele>243.0</ele><time>2026-04-04T12:13:05.943Z</time></trkpt><trkpt lat="44.6166575" lon="8.202875"><ele>245.0</ele><time>2026-04-04T12:13:06.943Z</time></trkpt><trkpt lat="44.6166109" lon="8.2026852"><ele>245.0</ele><time>2026-04-04T12:13:07.942Z</time></trkpt><trkpt lat="44.6165849" lon="8.202473"><ele>245.0</ele><time>2026-04-04T12:13:08.942Z</time></trkpt><trkpt lat="44.6165807" lon="8.2022424"><ele>245.0</ele><time>2026-04-04T12:13:09.943Z</time></trkpt><trkpt lat="44.6165878" lon="8.2020054"><ele>247.33333333333334</ele><time>2026-04-04T12:13:10.943Z</time></trkpt><trkpt lat="44.6165964" lon="8.20176"><ele>249.66666666666669</ele><time>2026-04-04T12:13:11.942Z</time></trkpt><trkpt lat="44.6166047" lon="8.2015069"><ele>252.0</ele><time>2026-04-04T12:13:12.943Z</time></trkpt><trkpt lat="44.6166127" lon="8.2012392"><ele>253.33333333333331</ele><time>2026-04-04T12:13:13.942Z</time></trkpt><trkpt lat="44.6166047" lon="8.2009748"><ele>254.66666666666666</ele><time>2026-04-04T12:13:14.943Z</time></trkpt><trkpt lat="44.6165917" lon="8.2007184"><ele>256.0</ele><time>2026-04-04T12:13:15.942Z</time></trkpt><trkpt lat="44.6165785" lon="8.2004579"><ele>259.0</ele><time>2026-04-04T12:13:16.943Z</time></trkpt><trkpt lat="44.6165643" lon="8.2002002"><ele>262.0</ele><time>2026-04-04T12:13:17.942Z</time></trkpt><trkpt lat="44.6165498" lon="8.1999384"><ele>265.0</ele><time>2026-04-04T12:13:18.943Z</time></trkpt><trkpt lat="44.6165369" lon="8.1996766"><ele>271.66666666666663</ele><time>2026-04-04T12:13:19.943Z</time></trkpt><trkpt lat="44.6165234" lon="8.1994049"><ele>278.3333333333333</ele><time>2026-04-04T12:13:20.943Z</time></trkpt><trkpt lat="44.6164861" lon="8.1991492"><ele>285.0</ele><time>2026-04-04T12:13:21.943Z</time></trkpt><trkpt lat="44.6164359" lon="8.1989055"><ele>294.6666666666667</ele><time>2026-04-04T12:13:22.942Z</time></trkpt><trkpt lat="44.6163868" lon="8.1986663"><ele>304.33333333333337</ele><time>2026-04-04T12:13:23.943Z</time></trkpt><trkpt lat="44.6163166" lon="8.1984237"><ele>314.0</ele><time>2026-04-04T12:13:24.943Z</time></trkpt><trkpt lat="44.6162497" lon="8.1981885"><ele>320.6666666666667</ele><time>2026-04-04T12:13:25.943Z</time></trkpt><trkpt lat="44.6161868" lon="8.1979536"><ele>327.3333333333333</ele><time>2026-04-04T12:13:26.943Z</time></trkpt><trkpt lat="44.6161283" lon="8.1977178"><ele>334.0</ele><time>2026-04-04T12:13:27.942Z</time></trkpt><trkpt lat="44.6160427" lon="8.1974848"><ele>308.0</ele><time>2026-04-04T12:13:28.942Z</time></trkpt><trkpt lat="44.6157809" lon="8.1973761"><ele>282.0</ele><time>2026-04-04T12:13:29.943Z</time></trkpt><trkpt lat="44.6153878" lon="8.1973648"><ele>280.0</ele><time>2026-04-04T12:13:30.942Z</time></trkpt><trkpt lat="44.6151439" lon="8.1973215"><ele>278.0</ele><time>2026-04-04T12:13:31.943Z</time></trkpt><trkpt lat="44.6149761" lon="8.1972038"><ele>276.0</ele><time>2026-04-04T12:13:32.943Z</time></trkpt><trkpt lat="44.6148207" lon="8.1970512"><ele>276.0</ele><time>2026-04-04T12:13:33.943Z</time></trkpt><trkpt lat="44.614671" lon="8.1969112"><ele>276.0</ele><time>2026-04-04T12:13:34.943Z</time></trkpt><trkpt lat="44.6145167" lon="8.1967788"><ele>276.0</ele><time>2026-04-04T12:13:35.943Z</time></trkpt><trkpt lat="44.614357" lon="8.1966631"><ele>275.3333333333333</ele><time>2026-04-04T12:13:36.943Z</time></trkpt><trkpt lat="44.6141961" lon="8.1965549"><ele>274.66666666666663</ele><time>2026-04-04T12:13:37.943Z</time></trkpt><trkpt lat="44.6140403" lon="8.1964174"><ele>274.0</ele><time>2026-04-04T12:13:38.943Z</time></trkpt><trkpt lat="44.6138834" lon="8.1962844"><ele>274.0</ele><time>2026-04-04T12:13:39.943Z</time></trkpt><trkpt lat="44.6137248" lon="8.1961606"><ele>274.0</ele><time>2026-04-04T12:13:40.943Z</time></trkpt><trkpt lat="44.6135582" lon="8.1960425"><ele>274.0</ele><time>2026-04-04T12:13:41.942Z</time></trkpt><trkpt lat="44.6133845" lon="8.1959321"><ele>272.0</ele><time>2026-04-04T12:13:42.943Z</time></trkpt><trkpt lat="44.6132128" lon="8.1958257"><ele>270.0</ele><time>2026-04-04T12:13:43.943Z</time></trkpt><trkpt lat="44.6130408" lon="8.1957216"><ele>268.0</ele><time>2026-04-04T12:13:44.943Z</time></trkpt><trkpt lat="44.6128654" lon="8.1956094"><ele>263.3333333333333</ele><time>2026-04-04T12:13:45.943Z</time></trkpt><trkpt lat="44.612692" lon="8.1954821"><ele>258.6666666666667</ele><time>2026-04-04T12:13:46.942Z</time></trkpt><trkpt lat="44.6125239" lon="8.1953409"><ele>254.0</ele><time>2026-04-04T12:13:47.943Z</time></trkpt><trkpt lat="44.6123583" lon="8.1951746"><ele>254.0</ele><time>2026-04-04T12:13:48.943Z</time></trkpt><trkpt lat="44.6121914" lon="8.1950166"><ele>254.0</ele><time>2026-04-04T12:13:49.942Z</time></trkpt><trkpt lat="44.6120265" lon="8.1948757"><ele>254.0</ele><time>2026-04-04T12:13:50.943Z</time></trkpt><trkpt lat="44.611875" lon="8.1947498"><ele>254.0</ele><time>2026-04-04T12:13:51.942Z</time></trkpt><trkpt lat="44.6117352" lon="8.1946276"><ele>254.0</ele><time>2026-04-04T12:13:52.943Z</time></trkpt><trkpt lat="44.6115997" lon="8.1944909"><ele>254.0</ele><time>2026-04-04T12:13:53.943Z</time></trkpt><trkpt lat="44.6114492" lon="8.1943456"><ele>254.0</ele><time>2026-04-04T12:13:54.943Z</time></trkpt><trkpt lat="44.6112974" lon="8.1942168"><ele>254.0</ele><time>2026-04-04T12:13:55.943Z</time></trkpt><trkpt lat="44.6111372" lon="8.1940969"><ele>254.0</ele><time>2026-04-04T12:13:56.943Z</time></trkpt><trkpt lat="44.6109751" lon="8.1939728"><ele>258.33333333333337</ele><time>2026-04-04T12:13:57.943Z</time></trkpt><trkpt lat="44.6108125" lon="8.1938552"><ele>262.6666666666667</ele><time>2026-04-04T12:13:58.943Z</time></trkpt><trkpt lat="44.6106502" lon="8.1937365"><ele>267.0</ele><time>2026-04-04T12:13:59.943Z</time></trkpt><trkpt lat="44.6104893" lon="8.1936314"><ele>267.0</ele><time>2026-04-04T12:14:00.943Z</time></trkpt><trkpt lat="44.6103342" lon="8.1935342"><ele>267.0</ele><time>2026-04-04T12:14:01.942Z</time></trkpt><trkpt lat="44.6101882" lon="8.1934459"><ele>267.0</ele><time>2026-04-04T12:14:02.943Z</time></trkpt><trkpt lat="44.6100538" lon="8.1933707"><ele>267.0</ele><time>2026-04-04T12:14:03.943Z</time></trkpt><trkpt lat="44.6099265" lon="8.1933007"><ele>267.0</ele><time>2026-04-04T12:14:04.942Z</time></trkpt><trkpt lat="44.6098175" lon="8.1932531"><ele>267.0</ele><time>2026-04-04T12:14:05.943Z</time></trkpt><trkpt lat="44.6097245" lon="8.1931984"><ele>267.0</ele><time>2026-04-04T12:14:06.943Z</time></trkpt><trkpt lat="44.6096392" lon="8.1931454"><ele>267.0</ele><time>2026-04-04T12:14:07.943Z</time></trkpt><trkpt lat="44.6095414" lon="8.1931049"><ele>267.25</ele><time>2026-04-04T12:14:08.943Z</time></trkpt><trkpt lat="44.6094338" lon="8.1930856"><ele>267.5</ele><time>2026-04-04T12:14:09.942Z</time></trkpt><trkpt lat="44.6093151" lon="8.1930854"><ele>267.75</ele><time>2026-04-04T12:14:10.943Z</time></trkpt><trkpt lat="44.6091762" lon="8.1930857"><ele>268.0</ele><time>2026-04-04T12:14:11.943Z</time></trkpt><trkpt lat="44.6090264" lon="8.1930825"><ele>268.0</ele><time>2026-04-04T12:14:12.943Z</time></trkpt><trkpt lat="44.6088697" lon="8.1930724"><ele>268.0</ele><time>2026-04-04T12:14:13.943Z</time></trkpt><trkpt lat="44.6087021" lon="8.1930739"><ele>268.0</ele><time>2026-04-04T12:14:14.943Z</time></trkpt><trkpt lat="44.6085308" lon="8.1930628"><ele>266.3333333333333</ele><time>2026-04-04T12:14:15.942Z</time></trkpt><trkpt lat="44.6083488" lon="8.1930481"><ele>264.6666666666667</ele><time>2026-04-04T12:14:16.943Z</time></trkpt><trkpt lat="44.6081689" lon="8.1930433"><ele>263.0</ele><time>2026-04-04T12:14:17.943Z</time></trkpt><trkpt lat="44.6079851" lon="8.1930286"><ele>265.6666666666667</ele><time>2026-04-04T12:14:18.943Z</time></trkpt><trkpt lat="44.6077975" lon="8.1930004"><ele>268.3333333333333</ele><time>2026-04-04T12:14:19.943Z</time></trkpt><trkpt lat="44.60761" lon="8.192969"><ele>271.0</ele><time>2026-04-04T12:14:20.943Z</time></trkpt><trkpt lat="44.6074294" lon="8.1929401"><ele>271.0</ele><time>2026-04-04T12:14:21.943Z</time></trkpt><trkpt lat="44.6072479" lon="8.1929334"><ele>271.0</ele><time>2026-04-04T12:14:22.943Z</time></trkpt><trkpt lat="44.6070628" lon="8.1929533"><ele>271.0</ele><time>2026-04-04T12:14:23.942Z</time></trkpt><trkpt lat="44.6068839" lon="8.1929942"><ele>277.66666666666663</ele><time>2026-04-04T12:14:24.942Z</time></trkpt><trkpt lat="44.6067102" lon="8.1930498"><ele>284.3333333333333</ele><time>2026-04-04T12:14:25.942Z</time></trkpt><trkpt lat="44.6065283" lon="8.193106"><ele>291.0</ele><time>2026-04-04T12:14:26.943Z</time></trkpt><trkpt lat="44.6063442" lon="8.1931598"><ele>283.3333333333333</ele><time>2026-04-04T12:14:27.943Z</time></trkpt><trkpt lat="44.6061571" lon="8.1932307"><ele>275.66666666666663</ele><time>2026-04-04T12:14:28.943Z</time></trkpt><trkpt lat="44.6059792" lon="8.1933123"><ele>268.0</ele><time>2026-04-04T12:14:29.943Z</time></trkpt><trkpt lat="44.6057989" lon="8.193397"><ele>268.0</ele><time>2026-04-04T12:14:30.943Z</time></trkpt><trkpt lat="44.605623" lon="8.1934978"><ele>268.0</ele><time>2026-04-04T12:14:31.942Z</time></trkpt><trkpt lat="44.6054549" lon="8.1936027"><ele>268.0</ele><time>2026-04-04T12:14:32.943Z</time></trkpt><trkpt lat="44.6052977" lon="8.1937061"><ele>276.3333333333333</ele><time>2026-04-04T12:14:33.942Z</time></trkpt><trkpt lat="44.6051395" lon="8.1938027"><ele>284.6666666666667</ele><time>2026-04-04T12:14:34.942Z</time></trkpt><trkpt lat="44.6049868" lon="8.1938914"><ele>293.0</ele><time>2026-04-04T12:14:35.942Z</time></trkpt><trkpt lat="44.604828" lon="8.1939782"><ele>288.0</ele><time>2026-04-04T12:14:36.943Z</time></trkpt><trkpt lat="44.604669" lon="8.1940556"><ele>283.0</ele><time>2026-04-04T12:14:37.943Z</time></trkpt><trkpt lat="44.604515" lon="8.1941383"><ele>278.0</ele><time>2026-04-04T12:14:38.943Z</time></trkpt><trkpt lat="44.604366" lon="8.1942317"><ele>278.0</ele><time>2026-04-04T12:14:39.943Z</time></trkpt><trkpt lat="44.6042191" lon="8.1943128"><ele>278.0</ele><time>2026-04-04T12:14:40.943Z</time></trkpt><trkpt lat="44.6040639" lon="8.1943792"><ele>278.0</ele><time>2026-04-04T12:14:41.943Z</time></trkpt><trkpt lat="44.6038992" lon="8.1944397"><ele>278.0</ele><time>2026-04-04T12:14:42.942Z</time></trkpt><trkpt lat="44.6037351" lon="8.1945017"><ele>278.0</ele><time>2026-04-04T12:14:43.942Z</time></trkpt><trkpt lat="44.6035656" lon="8.1945681"><ele>278.0</ele><time>2026-04-04T12:14:44.943Z</time></trkpt><trkpt lat="44.6033902" lon="8.1946391"><ele>282.6666666666667</ele><time>2026-04-04T12:14:45.943Z</time></trkpt><trkpt lat="44.6032148" lon="8.1947112"><ele>287.3333333333333</ele><time>2026-04-04T12:14:46.943Z</time></trkpt><trkpt lat="44.6030526" lon="8.1947776"><ele>292.0</ele><time>2026-04-04T12:14:47.943Z</time></trkpt><trkpt lat="44.6029021" lon="8.1948304"><ele>286.75</ele><time>2026-04-04T12:14:48.943Z</time></trkpt><trkpt lat="44.6027689" lon="8.194875"><ele>281.5</ele><time>2026-04-04T12:14:49.943Z</time></trkpt><trkpt lat="44.6026503" lon="8.1949047"><ele>276.25</ele><time>2026-04-04T12:14:50.943Z</time></trkpt><trkpt lat="44.6025366" lon="8.194916"><ele>271.0</ele><time>2026-04-04T12:14:51.943Z</time></trkpt><trkpt lat="44.602431" lon="8.1949089"><ele>271.0</ele><time>2026-04-04T12:14:52.943Z</time></trkpt><trkpt lat="44.602322" lon="8.1948807"><ele>271.0</ele><time>2026-04-04T12:14:53.943Z</time></trkpt><trkpt lat="44.6022054" lon="8.1948458"><ele>271.0</ele><time>2026-04-04T12:14:54.943Z</time></trkpt><trkpt lat="44.6020889" lon="8.1948015"><ele>271.0</ele><time>2026-04-04T12:14:55.943Z</time></trkpt><trkpt lat="44.6019745" lon="8.1947521"><ele>278.8</ele><time>2026-04-04T12:14:56.943Z</time></trkpt><trkpt lat="44.6018566" lon="8.1947013"><ele>286.6</ele><time>2026-04-04T12:14:57.943Z</time></trkpt><trkpt lat="44.6017476" lon="8.1946682"><ele>294.4</ele><time>2026-04-04T12:14:58.943Z</time></trkpt><trkpt lat="44.6016517" lon="8.1946389"><ele>302.2</ele><time>2026-04-04T12:14:59.942Z</time></trkpt><trkpt lat="44.6015686" lon="8.1946144"><ele>310.0</ele><time>2026-04-04T12:15:00.943Z</time></trkpt><trkpt lat="44.6014975" lon="8.1945959"><ele>310.0</ele><time>2026-04-04T12:15:01.943Z</time></trkpt><trkpt lat="44.6013837" lon="8.1945963"><ele>310.0</ele><time>2026-04-04T12:15:03.943Z</time></trkpt><trkpt lat="44.6012978" lon="8.1947076"><ele>310.0</ele><time>2026-04-04T12:15:05.942Z</time></trkpt><trkpt lat="44.6012484" lon="8.1947954"><ele>310.0</ele><time>2026-04-04T12:15:06.942Z</time></trkpt><trkpt lat="44.6011911" lon="8.1948695"><ele>310.0</ele><time>2026-04-04T12:15:07.942Z</time></trkpt><trkpt lat="44.6011183" lon="8.1949101"><ele>307.25</ele><time>2026-04-04T12:15:08.942Z</time></trkpt><trkpt lat="44.601025" lon="8.1949037"><ele>304.5</ele><time>2026-04-04T12:15:09.941Z</time></trkpt><trkpt lat="44.6009258" lon="8.1948458"><ele>301.75</ele><time>2026-04-04T12:15:10.942Z</time></trkpt><trkpt lat="44.6008136" lon="8.1947626"><ele>299.0</ele><time>2026-04-04T12:15:11.942Z</time></trkpt><trkpt lat="44.6006764" lon="8.194662"><ele>299.0</ele><time>2026-04-04T12:15:12.942Z</time></trkpt><trkpt lat="44.6005379" lon="8.1945462"><ele>299.0</ele><time>2026-04-04T12:15:13.942Z</time></trkpt><trkpt lat="44.6003978" lon="8.1944279"><ele>299.0</ele><time>2026-04-04T12:15:14.942Z</time></trkpt><trkpt lat="44.6002468" lon="8.1943134"><ele>292.0</ele><time>2026-04-04T12:15:15.942Z</time></trkpt><trkpt lat="44.6000889" lon="8.1942178"><ele>285.0</ele><time>2026-04-04T12:15:16.942Z</time></trkpt><trkpt lat="44.5999275" lon="8.1941219"><ele>278.0</ele><time>2026-04-04T12:15:17.941Z</time></trkpt><trkpt lat="44.599764" lon="8.1940192"><ele>278.6666666666667</ele><time>2026-04-04T12:15:18.941Z</time></trkpt><trkpt lat="44.5996004" lon="8.1939001"><ele>279.3333333333333</ele><time>2026-04-04T12:15:19.941Z</time></trkpt><trkpt lat="44.5994421" lon="8.1937742"><ele>280.0</ele><time>2026-04-04T12:15:20.942Z</time></trkpt><trkpt lat="44.5992825" lon="8.1936478"><ele>280.0</ele><time>2026-04-04T12:15:21.942Z</time></trkpt><trkpt lat="44.5991285" lon="8.1935072"><ele>280.0</ele><time>2026-04-04T12:15:22.942Z</time></trkpt><trkpt lat="44.5989784" lon="8.1933759"><ele>280.0</ele><time>2026-04-04T12:15:23.942Z</time></trkpt><trkpt lat="44.5988181" lon="8.1932773"><ele>276.66666666666663</ele><time>2026-04-04T12:15:24.941Z</time></trkpt><trkpt lat="44.5986476" lon="8.193207"><ele>273.3333333333333</ele><time>2026-04-04T12:15:25.941Z</time></trkpt><trkpt lat="44.5984708" lon="8.193182"><ele>270.0</ele><time>2026-04-04T12:15:26.942Z</time></trkpt><trkpt lat="44.5982848" lon="8.1931743"><ele>278.0</ele><time>2026-04-04T12:15:27.942Z</time></trkpt><trkpt lat="44.5980978" lon="8.1931626"><ele>286.0</ele><time>2026-04-04T12:15:28.941Z</time></trkpt><trkpt lat="44.5979121" lon="8.1931298"><ele>294.0</ele><time>2026-04-04T12:15:29.942Z</time></trkpt><trkpt lat="44.5977214" lon="8.1930887"><ele>294.0</ele><time>2026-04-04T12:15:30.942Z</time></trkpt><trkpt lat="44.5975225" lon="8.193037"><ele>294.0</ele><time>2026-04-04T12:15:31.942Z</time></trkpt><trkpt lat="44.59732" lon="8.192988"><ele>294.0</ele><time>2026-04-04T12:15:32.941Z</time></trkpt><trkpt lat="44.5971181" lon="8.1929654"><ele>285.0</ele><time>2026-04-04T12:15:33.942Z</time></trkpt><trkpt lat="44.5969236" lon="8.1929296"><ele>276.0</ele><time>2026-04-04T12:15:34.942Z</time></trkpt><trkpt lat="44.5967316" lon="8.1928784"><ele>267.0</ele><time>2026-04-04T12:15:35.942Z</time></trkpt><trkpt lat="44.5965435" lon="8.1928177"><ele>267.0</ele><time>2026-04-04T12:15:36.941Z</time></trkpt><trkpt lat="44.5963601" lon="8.1927615"><ele>267.0</ele><time>2026-04-04T12:15:37.942Z</time></trkpt><trkpt lat="44.5961759" lon="8.1927098"><ele>267.0</ele><time>2026-04-04T12:15:38.942Z</time></trkpt><trkpt lat="44.5960004" lon="8.1926618"><ele>263.0</ele><time>2026-04-04T12:15:39.941Z</time></trkpt><trkpt lat="44.595828" lon="8.1925985"><ele>259.0</ele><time>2026-04-04T12:15:40.942Z</time></trkpt><trkpt lat="44.5956587" lon="8.1925283"><ele>255.0</ele><time>2026-04-04T12:15:41.942Z</time></trkpt><trkpt lat="44.5954944" lon="8.1924325"><ele>254.33333333333331</ele><time>2026-04-04T12:15:42.942Z</time></trkpt><trkpt lat="44.5953396" lon="8.1923129"><ele>253.66666666666666</ele><time>2026-04-04T12:15:43.942Z</time></trkpt><trkpt lat="44.5951883" lon="8.1921704"><ele>253.0</ele><time>2026-04-04T12:15:44.942Z</time></trkpt><trkpt lat="44.5950426" lon="8.1920238"><ele>253.0</ele><time>2026-04-04T12:15:45.941Z</time></trkpt><trkpt lat="44.5948954" lon="8.1918762"><ele>253.0</ele><time>2026-04-04T12:15:46.941Z</time></trkpt><trkpt lat="44.594751" lon="8.1917246"><ele>253.0</ele><time>2026-04-04T12:15:47.941Z</time></trkpt><trkpt lat="44.5946037" lon="8.1915704"><ele>253.33333333333331</ele><time>2026-04-04T12:15:48.942Z</time></trkpt><trkpt lat="44.5944532" lon="8.1914201"><ele>253.66666666666669</ele><time>2026-04-04T12:15:49.942Z</time></trkpt><trkpt lat="44.594304" lon="8.1912746"><ele>254.0</ele><time>2026-04-04T12:15:50.942Z</time></trkpt><trkpt lat="44.5941561" lon="8.1911371"><ele>254.0</ele><time>2026-04-04T12:15:51.942Z</time></trkpt><trkpt lat="44.594006" lon="8.190998"><ele>254.0</ele><time>2026-04-04T12:15:52.942Z</time></trkpt><trkpt lat="44.5938569" lon="8.1908617"><ele>254.0</ele><time>2026-04-04T12:15:53.942Z</time></trkpt><trkpt lat="44.5937132" lon="8.1907263"><ele>253.0</ele><time>2026-04-04T12:15:54.942Z</time></trkpt><trkpt lat="44.5935733" lon="8.190597"><ele>252.0</ele><time>2026-04-04T12:15:55.942Z</time></trkpt><trkpt lat="44.5934473" lon="8.190466"><ele>251.0</ele><time>2026-04-04T12:15:56.942Z</time></trkpt><trkpt lat="44.5933227" lon="8.1903451"><ele>251.0</ele><time>2026-04-04T12:15:57.942Z</time></trkpt><trkpt lat="44.5931891" lon="8.1902343"><ele>251.0</ele><time>2026-04-04T12:15:58.941Z</time></trkpt><trkpt lat="44.593045" lon="8.1901523"><ele>251.0</ele><time>2026-04-04T12:15:59.942Z</time></trkpt><trkpt lat="44.5928945" lon="8.1901171"><ele>249.33333333333334</ele><time>2026-04-04T12:16:00.941Z</time></trkpt><trkpt lat="44.5927378" lon="8.1901185"><ele>247.66666666666669</ele><time>2026-04-04T12:16:01.942Z</time></trkpt><trkpt lat="44.5925836" lon="8.1901557"><ele>246.0</ele><time>2026-04-04T12:16:02.941Z</time></trkpt><trkpt lat="44.5924284" lon="8.1901984"><ele>246.0</ele><time>2026-04-04T12:16:03.941Z</time></trkpt><trkpt lat="44.5922716" lon="8.1902331"><ele>246.0</ele><time>2026-04-04T12:16:04.941Z</time></trkpt><trkpt lat="44.5921139" lon="8.1902647"><ele>246.0</ele><time>2026-04-04T12:16:05.942Z</time></trkpt><trkpt lat="44.5919493" lon="8.1902927"><ele>245.33333333333331</ele><time>2026-04-04T12:16:06.942Z</time></trkpt><trkpt lat="44.591786" lon="8.1903221"><ele>244.66666666666666</ele><time>2026-04-04T12:16:07.942Z</time></trkpt><trkpt lat="44.5916223" lon="8.1903473"><ele>244.0</ele><time>2026-04-04T12:16:08.942Z</time></trkpt><trkpt lat="44.5914635" lon="8.1903793"><ele>244.0</ele><time>2026-04-04T12:16:09.942Z</time></trkpt><trkpt lat="44.5913024" lon="8.1904088"><ele>244.0</ele><time>2026-04-04T12:16:10.942Z</time></trkpt><trkpt lat="44.5911385" lon="8.1904376"><ele>244.0</ele><time>2026-04-04T12:16:11.942Z</time></trkpt><trkpt lat="44.5909714" lon="8.1904576"><ele>244.66666666666666</ele><time>2026-04-04T12:16:12.941Z</time></trkpt><trkpt lat="44.5908044" lon="8.1904842"><ele>245.33333333333331</ele><time>2026-04-04T12:16:13.942Z</time></trkpt><trkpt lat="44.5906459" lon="8.1905149"><ele>246.0</ele><time>2026-04-04T12:16:14.942Z</time></trkpt><trkpt lat="44.5904935" lon="8.1905404"><ele>246.0</ele><time>2026-04-04T12:16:15.941Z</time></trkpt><trkpt lat="44.5903458" lon="8.1905642"><ele>246.0</ele><time>2026-04-04T12:16:16.942Z</time></trkpt><trkpt lat="44.5902017" lon="8.1905912"><ele>246.0</ele><time>2026-04-04T12:16:17.942Z</time></trkpt><trkpt lat="44.5900599" lon="8.1906186"><ele>246.0</ele><time>2026-04-04T12:16:18.942Z</time></trkpt><trkpt lat="44.5899176" lon="8.1906503"><ele>245.75</ele><time>2026-04-04T12:16:19.942Z</time></trkpt><trkpt lat="44.5897696" lon="8.1906762"><ele>245.5</ele><time>2026-04-04T12:16:20.942Z</time></trkpt><trkpt lat="44.5896202" lon="8.190704"><ele>245.25</ele><time>2026-04-04T12:16:21.942Z</time></trkpt><trkpt lat="44.589472" lon="8.1907242"><ele>245.0</ele><time>2026-04-04T12:16:22.941Z</time></trkpt><trkpt lat="44.5893246" lon="8.1907485"><ele>245.0</ele><time>2026-04-04T12:16:23.942Z</time></trkpt><trkpt lat="44.589174" lon="8.1907705"><ele>245.0</ele><time>2026-04-04T12:16:24.941Z</time></trkpt><trkpt lat="44.5890194" lon="8.1907884"><ele>245.0</ele><time>2026-04-04T12:16:25.942Z</time></trkpt><trkpt lat="44.5888708" lon="8.1908113"><ele>245.0</ele><time>2026-04-04T12:16:26.942Z</time></trkpt><trkpt lat="44.5887297" lon="8.190834"><ele>245.0</ele><time>2026-04-04T12:16:27.942Z</time></trkpt><trkpt lat="44.5885809" lon="8.1908576"><ele>245.0</ele><time>2026-04-04T12:16:28.942Z</time></trkpt><trkpt lat="44.5884285" lon="8.1908936"><ele>245.0</ele><time>2026-04-04T12:16:29.942Z</time></trkpt><trkpt lat="44.5882737" lon="8.190931"><ele>245.66666666666669</ele><time>2026-04-04T12:16:30.942Z</time></trkpt><trkpt lat="44.5881068" lon="8.1909444"><ele>246.33333333333331</ele><time>2026-04-04T12:16:31.942Z</time></trkpt><trkpt lat="44.5879562" lon="8.1909715"><ele>247.0</ele><time>2026-04-04T12:16:32.942Z</time></trkpt><trkpt lat="44.587806" lon="8.1909979"><ele>247.33333333333331</ele><time>2026-04-04T12:16:33.942Z</time></trkpt><trkpt lat="44.5876532" lon="8.1910149"><ele>247.66666666666669</ele><time>2026-04-04T12:16:34.942Z</time></trkpt><trkpt lat="44.587497" lon="8.1910471"><ele>248.0</ele><time>2026-04-04T12:16:35.941Z</time></trkpt><trkpt lat="44.5873345" lon="8.1910763"><ele>248.0</ele><time>2026-04-04T12:16:36.941Z</time></trkpt><trkpt lat="44.5871677" lon="8.191097"><ele>248.0</ele><time>2026-04-04T12:16:37.942Z</time></trkpt><trkpt lat="44.5869993" lon="8.191128"><ele>248.0</ele><time>2026-04-04T12:16:38.942Z</time></trkpt><trkpt lat="44.5868342" lon="8.1911614"><ele>249.0</ele><time>2026-04-04T12:16:39.941Z</time></trkpt><trkpt lat="44.5866798" lon="8.1911895"><ele>250.0</ele><time>2026-04-04T12:16:40.941Z</time></trkpt><trkpt lat="44.5865128" lon="8.1912216"><ele>251.0</ele><time>2026-04-04T12:16:41.942Z</time></trkpt><trkpt lat="44.586341" lon="8.1912465"><ele>251.66666666666669</ele><time>2026-04-04T12:16:42.942Z</time></trkpt><trkpt lat="44.5861655" lon="8.1912699"><ele>252.33333333333331</ele><time>2026-04-04T12:16:43.942Z</time></trkpt><trkpt lat="44.5859753" lon="8.1912928"><ele>253.0</ele><time>2026-04-04T12:16:44.942Z</time></trkpt><trkpt lat="44.5857921" lon="8.1913176"><ele>253.0</ele><time>2026-04-04T12:16:45.941Z</time></trkpt><trkpt lat="44.5856147" lon="8.1913433"><ele>253.0</ele><time>2026-04-04T12:16:46.942Z</time></trkpt><trkpt lat="44.5854416" lon="8.1913746"><ele>253.0</ele><time>2026-04-04T12:16:47.942Z</time></trkpt><trkpt lat="44.5852756" lon="8.1914065"><ele>253.0</ele><time>2026-04-04T12:16:48.942Z</time></trkpt><trkpt lat="44.5851103" lon="8.191434"><ele>253.0</ele><time>2026-04-04T12:16:49.941Z</time></trkpt><trkpt lat="44.5849402" lon="8.1914566"><ele>253.0</ele><time>2026-04-04T12:16:50.942Z</time></trkpt><trkpt lat="44.5847763" lon="8.1914872"><ele>252.66666666666666</ele><time>2026-04-04T12:16:51.942Z</time></trkpt><trkpt lat="44.5846144" lon="8.1915167"><ele>252.33333333333331</ele><time>2026-04-04T12:16:52.942Z</time></trkpt><trkpt lat="44.5844517" lon="8.1915476"><ele>252.0</ele><time>2026-04-04T12:16:53.942Z</time></trkpt><trkpt lat="44.5842947" lon="8.1915778"><ele>252.66666666666669</ele><time>2026-04-04T12:16:54.941Z</time></trkpt><trkpt lat="44.584137" lon="8.1916005"><ele>253.33333333333334</ele><time>2026-04-04T12:16:55.942Z</time></trkpt><trkpt lat="44.583976" lon="8.1916236"><ele>254.0</ele><time>2026-04-04T12:16:56.941Z</time></trkpt><trkpt lat="44.5838222" lon="8.1916422"><ele>254.66666666666669</ele><time>2026-04-04T12:16:57.942Z</time></trkpt><trkpt lat="44.5836714" lon="8.1916659"><ele>255.33333333333331</ele><time>2026-04-04T12:16:58.941Z</time></trkpt><trkpt lat="44.583519" lon="8.1916916"><ele>256.0</ele><time>2026-04-04T12:16:59.942Z</time></trkpt><trkpt lat="44.5833746" lon="8.1917101"><ele>256.0</ele><time>2026-04-04T12:17:00.942Z</time></trkpt><trkpt lat="44.5832324" lon="8.1917298"><ele>256.0</ele><time>2026-04-04T12:17:01.942Z</time></trkpt><trkpt lat="44.5830765" lon="8.1917718"><ele>256.0</ele><time>2026-04-04T12:17:02.941Z</time></trkpt><trkpt lat="44.5829263" lon="8.1918068"><ele>257.3333333333333</ele><time>2026-04-04T12:17:03.942Z</time></trkpt><trkpt lat="44.5827794" lon="8.1918464"><ele>258.6666666666667</ele><time>2026-04-04T12:17:04.941Z</time></trkpt><trkpt lat="44.5826186" lon="8.1918781"><ele>260.0</ele><time>2026-04-04T12:17:05.942Z</time></trkpt><trkpt lat="44.5824607" lon="8.1919103"><ele>260.0</ele><time>2026-04-04T12:17:06.942Z</time></trkpt><trkpt lat="44.582299" lon="8.1919337"><ele>260.0</ele><time>2026-04-04T12:17:07.942Z</time></trkpt><trkpt lat="44.5821313" lon="8.1919576"><ele>260.0</ele><time>2026-04-04T12:17:08.942Z</time></trkpt><trkpt lat="44.5819679" lon="8.1919744"><ele>260.25</ele><time>2026-04-04T12:17:09.941Z</time></trkpt><trkpt lat="44.5818191" lon="8.1919971"><ele>260.5</ele><time>2026-04-04T12:17:10.941Z</time></trkpt><trkpt lat="44.5816718" lon="8.19201"><ele>260.75</ele><time>2026-04-04T12:17:11.942Z</time></trkpt><trkpt lat="44.5815362" lon="8.1920348"><ele>261.0</ele><time>2026-04-04T12:17:12.942Z</time></trkpt><trkpt lat="44.5814016" lon="8.1920619"><ele>261.0</ele><time>2026-04-04T12:17:13.941Z</time></trkpt><trkpt lat="44.5812795" lon="8.1920848"><ele>261.0</ele><time>2026-04-04T12:17:14.942Z</time></trkpt><trkpt lat="44.5811649" lon="8.1921043"><ele>261.0</ele><time>2026-04-04T12:17:15.941Z</time></trkpt><trkpt lat="44.5810591" lon="8.1921292"><ele>261.0</ele><time>2026-04-04T12:17:16.942Z</time></trkpt><trkpt lat="44.5809592" lon="8.1921583"><ele>261.0</ele><time>2026-04-04T12:17:17.942Z</time></trkpt><trkpt lat="44.5808627" lon="8.19219"><ele>259.40000000000003</ele><time>2026-04-04T12:17:18.942Z</time></trkpt><trkpt lat="44.5807634" lon="8.1922095"><ele>257.8</ele><time>2026-04-04T12:17:19.942Z</time></trkpt><trkpt lat="44.5806654" lon="8.1922219"><ele>256.20000000000005</ele><time>2026-04-04T12:17:20.941Z</time></trkpt><trkpt lat="44.5805497" lon="8.1922188"><ele>254.60000000000002</ele><time>2026-04-04T12:17:21.942Z</time></trkpt><trkpt lat="44.5804445" lon="8.192203"><ele>253.0</ele><time>2026-04-04T12:17:22.942Z</time></trkpt><trkpt lat="44.5803337" lon="8.1921656"><ele>252.8</ele><time>2026-04-04T12:17:23.941Z</time></trkpt><trkpt lat="44.5802247" lon="8.1921178"><ele>252.60000000000002</ele><time>2026-04-04T12:17:24.942Z</time></trkpt><trkpt lat="44.5801318" lon="8.1920613"><ele>252.39999999999998</ele><time>2026-04-04T12:17:25.942Z</time></trkpt><trkpt lat="44.5800496" lon="8.1919989"><ele>252.2</ele><time>2026-04-04T12:17:26.942Z</time></trkpt><trkpt lat="44.5799631" lon="8.1919185"><ele>252.0</ele><time>2026-04-04T12:17:27.942Z</time></trkpt><trkpt lat="44.5798712" lon="8.1918383"><ele>252.0</ele><time>2026-04-04T12:17:28.941Z</time></trkpt><trkpt lat="44.5797801" lon="8.1917629"><ele>252.0</ele><time>2026-04-04T12:17:29.942Z</time></trkpt><trkpt lat="44.5796953" lon="8.1916967"><ele>252.0</ele><time>2026-04-04T12:17:30.942Z</time></trkpt><trkpt lat="44.5796133" lon="8.1916364"><ele>252.0</ele><time>2026-04-04T12:17:31.942Z</time></trkpt><trkpt lat="44.5795254" lon="8.1915813"><ele>252.0</ele><time>2026-04-04T12:17:32.942Z</time></trkpt><trkpt lat="44.5794267" lon="8.1915192"><ele>252.33333333333334</ele><time>2026-04-04T12:17:33.942Z</time></trkpt><trkpt lat="44.5793327" lon="8.1914567"><ele>252.66666666666669</ele><time>2026-04-04T12:17:34.941Z</time></trkpt><trkpt lat="44.5792449" lon="8.1913973"><ele>253.0</ele><time>2026-04-04T12:17:35.942Z</time></trkpt><trkpt lat="44.5791692" lon="8.191342"><ele>253.33333333333334</ele><time>2026-04-04T12:17:36.941Z</time></trkpt><trkpt lat="44.5791017" lon="8.191297"><ele>253.66666666666669</ele><time>2026-04-04T12:17:37.941Z</time></trkpt><trkpt lat="44.5790413" lon="8.1912507"><ele>254.0</ele><time>2026-04-04T12:17:38.941Z</time></trkpt><trkpt lat="44.5789861" lon="8.1912074"><ele>254.00000000000003</ele><time>2026-04-04T12:17:39.942Z</time></trkpt><trkpt lat="44.5788741" lon="8.1911211"><ele>254.0</ele><time>2026-04-04T12:17:41.941Z</time></trkpt><trkpt lat="44.5788132" lon="8.1910756"><ele>254.0</ele><time>2026-04-04T12:17:42.942Z</time></trkpt><trkpt lat="44.5787485" lon="8.1910275"><ele>254.0</ele><time>2026-04-04T12:17:43.941Z</time></trkpt><trkpt lat="44.5786762" lon="8.1909735"><ele>254.00000000000003</ele><time>2026-04-04T12:17:44.942Z</time></trkpt><trkpt lat="44.5785957" lon="8.1909132"><ele>254.0</ele><time>2026-04-04T12:17:45.942Z</time></trkpt><trkpt lat="44.5785115" lon="8.1908452"><ele>253.75</ele><time>2026-04-04T12:17:46.942Z</time></trkpt><trkpt lat="44.5784181" lon="8.1907733"><ele>253.5</ele><time>2026-04-04T12:17:47.942Z</time></trkpt><trkpt lat="44.5783156" lon="8.1906724"><ele>253.25</ele><time>2026-04-04T12:17:48.942Z</time></trkpt><trkpt lat="44.5782064" lon="8.1905605"><ele>253.0</ele><time>2026-04-04T12:17:49.942Z</time></trkpt><trkpt lat="44.5781021" lon="8.190445"><ele>253.0</ele><time>2026-04-04T12:17:50.942Z</time></trkpt><trkpt lat="44.5780048" lon="8.1903265"><ele>253.0</ele><time>2026-04-04T12:17:51.942Z</time></trkpt><trkpt lat="44.5779238" lon="8.19022"><ele>253.0</ele><time>2026-04-04T12:17:52.942Z</time></trkpt><trkpt lat="44.5778612" lon="8.1901079"><ele>253.0</ele><time>2026-04-04T12:17:53.942Z</time></trkpt><trkpt lat="44.5778167" lon="8.1899883"><ele>253.0</ele><time>2026-04-04T12:17:54.941Z</time></trkpt><trkpt lat="44.5777893" lon="8.1898712"><ele>252.0</ele><time>2026-04-04T12:17:55.941Z</time></trkpt><trkpt lat="44.5777716" lon="8.1897506"><ele>251.0</ele><time>2026-04-04T12:17:56.941Z</time></trkpt><trkpt lat="44.5777642" lon="8.1896163"><ele>250.0</ele><time>2026-04-04T12:17:57.941Z</time></trkpt><trkpt lat="44.5777618" lon="8.1894573"><ele>249.0</ele><time>2026-04-04T12:17:58.942Z</time></trkpt><trkpt lat="44.5777583" lon="8.1892796"><ele>248.0</ele><time>2026-04-04T12:17:59.942Z</time></trkpt><trkpt lat="44.5777568" lon="8.1890936"><ele>248.25</ele><time>2026-04-04T12:18:00.941Z</time></trkpt><trkpt lat="44.577779" lon="8.1889169"><ele>248.5</ele><time>2026-04-04T12:18:01.942Z</time></trkpt><trkpt lat="44.5778106" lon="8.1887433"><ele>248.75</ele><time>2026-04-04T12:18:02.942Z</time></trkpt><trkpt lat="44.5778464" lon="8.1885793"><ele>249.0</ele><time>2026-04-04T12:18:03.941Z</time></trkpt><trkpt lat="44.5778932" lon="8.1884293"><ele>249.39999999999998</ele><time>2026-04-04T12:18:04.942Z</time></trkpt><trkpt lat="44.5779497" lon="8.1882976"><ele>249.79999999999998</ele><time>2026-04-04T12:18:05.942Z</time></trkpt><trkpt lat="44.5780043" lon="8.1881834"><ele>250.20000000000002</ele><time>2026-04-04T12:18:06.942Z</time></trkpt><trkpt lat="44.578063" lon="8.188067"><ele>250.60000000000002</ele><time>2026-04-04T12:18:07.942Z</time></trkpt><trkpt lat="44.5781167" lon="8.1879611"><ele>251.0</ele><time>2026-04-04T12:18:08.942Z</time></trkpt><trkpt lat="44.5781761" lon="8.1878695"><ele>251.00000000000003</ele><time>2026-04-04T12:18:09.942Z</time></trkpt><trkpt lat="44.578235" lon="8.1877896"><ele>251.0</ele><time>2026-04-04T12:18:10.941Z</time></trkpt><trkpt lat="44.5782904" lon="8.1877081"><ele>251.0</ele><time>2026-04-04T12:18:11.942Z</time></trkpt><trkpt lat="44.5783485" lon="8.1876242"><ele>251.0</ele><time>2026-04-04T12:18:12.941Z</time></trkpt><trkpt lat="44.5784072" lon="8.1875404"><ele>251.00000000000003</ele><time>2026-04-04T12:18:13.942Z</time></trkpt><trkpt lat="44.5784619" lon="8.187453"><ele>251.0</ele><time>2026-04-04T12:18:14.942Z</time></trkpt><trkpt lat="44.5785125" lon="8.1873663"><ele>250.83333333333334</ele><time>2026-04-04T12:18:15.941Z</time></trkpt><trkpt lat="44.5785582" lon="8.1872878"><ele>250.66666666666669</ele><time>2026-04-04T12:18:16.941Z</time></trkpt><trkpt lat="44.5786295" lon="8.1871627"><ele>250.5</ele><time>2026-04-04T12:18:18.942Z</time></trkpt><trkpt lat="44.5787087" lon="8.1870771"><ele>250.33333333333331</ele><time>2026-04-04T12:18:20.942Z</time></trkpt><trkpt lat="44.5787706" lon="8.1870494"><ele>250.16666666666666</ele><time>2026-04-04T12:18:21.942Z</time></trkpt><trkpt lat="44.5788501" lon="8.1870196"><ele>250.0</ele><time>2026-04-04T12:18:22.942Z</time></trkpt><trkpt lat="44.5789497" lon="8.1869833"><ele>250.0</ele><time>2026-04-04T12:18:23.941Z</time></trkpt><trkpt lat="44.5790698" lon="8.1869499"><ele>250.0</ele><time>2026-04-04T12:18:24.942Z</time></trkpt><trkpt lat="44.5792067" lon="8.186908"><ele>250.0</ele><time>2026-04-04T12:18:25.942Z</time></trkpt><trkpt lat="44.5793561" lon="8.1868678"><ele>250.0</ele><time>2026-04-04T12:18:26.942Z</time></trkpt><trkpt lat="44.5795094" lon="8.1868081"><ele>253.66666666666666</ele><time>2026-04-04T12:18:27.942Z</time></trkpt><trkpt lat="44.5796601" lon="8.1867378"><ele>257.3333333333333</ele><time>2026-04-04T12:18:28.942Z</time></trkpt><trkpt lat="44.5798096" lon="8.1866804"><ele>261.0</ele><time>2026-04-04T12:18:29.941Z</time></trkpt><trkpt lat="44.579951" lon="8.1866179"><ele>261.0</ele><time>2026-04-04T12:18:30.942Z</time></trkpt><trkpt lat="44.5800925" lon="8.1865602"><ele>261.0</ele><time>2026-04-04T12:18:31.941Z</time></trkpt><trkpt lat="44.5802315" lon="8.1864913"><ele>261.0</ele><time>2026-04-04T12:18:32.942Z</time></trkpt><trkpt lat="44.5803711" lon="8.1864249"><ele>261.0</ele><time>2026-04-04T12:18:33.941Z</time></trkpt><trkpt lat="44.5805097" lon="8.1863561"><ele>259.5</ele><time>2026-04-04T12:18:34.942Z</time></trkpt><trkpt lat="44.5806479" lon="8.1862992"><ele>258.0</ele><time>2026-04-04T12:18:35.941Z</time></trkpt><trkpt lat="44.5807799" lon="8.1862429"><ele>256.5</ele><time>2026-04-04T12:18:36.941Z</time></trkpt><trkpt lat="44.5809083" lon="8.1861916"><ele>255.0</ele><time>2026-04-04T12:18:37.942Z</time></trkpt><trkpt lat="44.5810231" lon="8.1861426"><ele>255.0</ele><time>2026-04-04T12:18:38.941Z</time></trkpt><trkpt lat="44.581136" lon="8.1860938"><ele>255.0</ele><time>2026-04-04T12:18:39.942Z</time></trkpt><trkpt lat="44.5812419" lon="8.1860418"><ele>255.0</ele><time>2026-04-04T12:18:40.941Z</time></trkpt><trkpt lat="44.5813425" lon="8.1859704"><ele>255.0</ele><time>2026-04-04T12:18:41.941Z</time></trkpt><trkpt lat="44.5814288" lon="8.1858892"><ele>255.0</ele><time>2026-04-04T12:18:42.942Z</time></trkpt><trkpt lat="44.5815021" lon="8.1858022"><ele>254.8</ele><time>2026-04-04T12:18:43.942Z</time></trkpt><trkpt lat="44.5815592" lon="8.1857042"><ele>254.6</ele><time>2026-04-04T12:18:44.941Z</time></trkpt><trkpt lat="44.5816136" lon="8.1855918"><ele>254.39999999999998</ele><time>2026-04-04T12:18:45.941Z</time></trkpt><trkpt lat="44.5816674" lon="8.1854803"><ele>254.2</ele><time>2026-04-04T12:18:46.942Z</time></trkpt><trkpt lat="44.581716" lon="8.1853638"><ele>254.0</ele><time>2026-04-04T12:18:47.941Z</time></trkpt><trkpt lat="44.5817558" lon="8.1852438"><ele>254.0</ele><time>2026-04-04T12:18:48.941Z</time></trkpt><trkpt lat="44.5817775" lon="8.1851347"><ele>253.99999999999997</ele><time>2026-04-04T12:18:49.942Z</time></trkpt><trkpt lat="44.5817908" lon="8.1850441"><ele>253.99999999999997</ele><time>2026-04-04T12:18:50.942Z</time></trkpt><trkpt lat="44.5818168" lon="8.1849026"><ele>254.0</ele><time>2026-04-04T12:18:52.942Z</time></trkpt><trkpt lat="44.5818358" lon="8.184735"><ele>254.0</ele><time>2026-04-04T12:18:54.941Z</time></trkpt><trkpt lat="44.5818375" lon="8.184623"><ele>254.0</ele><time>2026-04-04T12:18:55.941Z</time></trkpt><trkpt lat="44.581834" lon="8.1844945"><ele>253.99999999999997</ele><time>2026-04-04T12:18:56.942Z</time></trkpt><trkpt lat="44.5818397" lon="8.1843463"><ele>253.99999999999997</ele><time>2026-04-04T12:18:57.942Z</time></trkpt><trkpt lat="44.5818494" lon="8.184175"><ele>254.0</ele><time>2026-04-04T12:18:58.942Z</time></trkpt><trkpt lat="44.5818573" lon="8.1839977"><ele>254.0</ele><time>2026-04-04T12:18:59.942Z</time></trkpt><trkpt lat="44.581869" lon="8.1837981"><ele>253.66666666666669</ele><time>2026-04-04T12:19:00.942Z</time></trkpt><trkpt lat="44.5818809" lon="8.1835853"><ele>253.33333333333331</ele><time>2026-04-04T12:19:01.942Z</time></trkpt><trkpt lat="44.5818989" lon="8.1833725"><ele>253.0</ele><time>2026-04-04T12:19:02.942Z</time></trkpt><trkpt lat="44.5819149" lon="8.1831696"><ele>252.75</ele><time>2026-04-04T12:19:03.941Z</time></trkpt><trkpt lat="44.581931" lon="8.1829733"><ele>252.5</ele><time>2026-04-04T12:19:04.942Z</time></trkpt><trkpt lat="44.5819461" lon="8.1827738"><ele>252.25</ele><time>2026-04-04T12:19:05.942Z</time></trkpt><trkpt lat="44.5819565" lon="8.1825953"><ele>252.0</ele><time>2026-04-04T12:19:06.942Z</time></trkpt><trkpt lat="44.5819667" lon="8.182419"><ele>252.25</ele><time>2026-04-04T12:19:07.942Z</time></trkpt><trkpt lat="44.5819718" lon="8.1822356"><ele>252.5</ele><time>2026-04-04T12:19:08.942Z</time></trkpt><trkpt lat="44.5819791" lon="8.1820473"><ele>252.75</ele><time>2026-04-04T12:19:09.941Z</time></trkpt><trkpt lat="44.5819896" lon="8.1818594"><ele>253.0</ele><time>2026-04-04T12:19:10.942Z</time></trkpt><trkpt lat="44.5820034" lon="8.1816656"><ele>253.75</ele><time>2026-04-04T12:19:11.942Z</time></trkpt><trkpt lat="44.5820169" lon="8.1814789"><ele>254.5</ele><time>2026-04-04T12:19:12.942Z</time></trkpt><trkpt lat="44.5820278" lon="8.1812902"><ele>255.25</ele><time>2026-04-04T12:19:13.942Z</time></trkpt><trkpt lat="44.5820417" lon="8.1811029"><ele>256.0</ele><time>2026-04-04T12:19:14.941Z</time></trkpt><trkpt lat="44.5820565" lon="8.1809147"><ele>256.0</ele><time>2026-04-04T12:19:15.941Z</time></trkpt><trkpt lat="44.5820669" lon="8.1807253"><ele>256.0</ele><time>2026-04-04T12:19:16.942Z</time></trkpt><trkpt lat="44.5820817" lon="8.1805346"><ele>256.0</ele><time>2026-04-04T12:19:17.941Z</time></trkpt><trkpt lat="44.5820993" lon="8.1803424"><ele>256.0</ele><time>2026-04-04T12:19:18.942Z</time></trkpt><trkpt lat="44.5821138" lon="8.1801481"><ele>256.75</ele><time>2026-04-04T12:19:19.942Z</time></trkpt><trkpt lat="44.5821269" lon="8.1799618"><ele>257.5</ele><time>2026-04-04T12:19:20.942Z</time></trkpt><trkpt lat="44.5821363" lon="8.1797785"><ele>258.25</ele><time>2026-04-04T12:19:21.941Z</time></trkpt><trkpt lat="44.5821486" lon="8.1796015"><ele>259.0</ele><time>2026-04-04T12:19:22.941Z</time></trkpt><trkpt lat="44.5821569" lon="8.1794369"><ele>259.2</ele><time>2026-04-04T12:19:23.942Z</time></trkpt><trkpt lat="44.5821678" lon="8.1792803"><ele>259.4</ele><time>2026-04-04T12:19:24.942Z</time></trkpt><trkpt lat="44.5821805" lon="8.1791252"><ele>259.6</ele><time>2026-04-04T12:19:25.941Z</time></trkpt><trkpt lat="44.5821912" lon="8.1789785"><ele>259.8</ele><time>2026-04-04T12:19:26.942Z</time></trkpt><trkpt lat="44.582199" lon="8.1788357"><ele>260.0</ele><time>2026-04-04T12:19:27.942Z</time></trkpt><trkpt lat="44.582206" lon="8.1786853"><ele>260.0</ele><time>2026-04-04T12:19:28.941Z</time></trkpt><trkpt lat="44.582214" lon="8.1785241"><ele>260.0</ele><time>2026-04-04T12:19:29.941Z</time></trkpt><trkpt lat="44.5822161" lon="8.1783317"><ele>260.0</ele><time>2026-04-04T12:19:30.942Z</time></trkpt><trkpt lat="44.5822259" lon="8.1781074"><ele>260.0</ele><time>2026-04-04T12:19:31.941Z</time></trkpt><trkpt lat="44.5822488" lon="8.1778633"><ele>261.0</ele><time>2026-04-04T12:19:32.942Z</time></trkpt><trkpt lat="44.5822791" lon="8.1775978"><ele>262.0</ele><time>2026-04-04T12:19:33.942Z</time></trkpt><trkpt lat="44.582312" lon="8.1773188"><ele>263.0</ele><time>2026-04-04T12:19:34.941Z</time></trkpt><trkpt lat="44.5823465" lon="8.1770341"><ele>263.0</ele><time>2026-04-04T12:19:35.941Z</time></trkpt><trkpt lat="44.5823794" lon="8.1767416"><ele>263.0</ele><time>2026-04-04T12:19:36.942Z</time></trkpt><trkpt lat="44.5824197" lon="8.1764508"><ele>263.0</ele><time>2026-04-04T12:19:37.942Z</time></trkpt><trkpt lat="44.582459" lon="8.1761762"><ele>263.0</ele><time>2026-04-04T12:19:38.941Z</time></trkpt><trkpt lat="44.5825016" lon="8.175898"><ele>263.0</ele><time>2026-04-04T12:19:39.942Z</time></trkpt><trkpt lat="44.5825403" lon="8.1756406"><ele>263.0</ele><time>2026-04-04T12:19:40.942Z</time></trkpt><trkpt lat="44.5825727" lon="8.1754"><ele>261.6666666666667</ele><time>2026-04-04T12:19:41.942Z</time></trkpt><trkpt lat="44.5826021" lon="8.1751707"><ele>260.3333333333333</ele><time>2026-04-04T12:19:42.942Z</time></trkpt><trkpt lat="44.5826405" lon="8.1749306"><ele>259.0</ele><time>2026-04-04T12:19:43.941Z</time></trkpt><trkpt lat="44.5827035" lon="8.174708"><ele>258.0</ele><time>2026-04-04T12:19:44.942Z</time></trkpt><trkpt lat="44.5827867" lon="8.1744871"><ele>257.0</ele><time>2026-04-04T12:19:45.941Z</time></trkpt><trkpt lat="44.5828988" lon="8.1742698"><ele>256.0</ele><time>2026-04-04T12:19:46.942Z</time></trkpt><trkpt lat="44.5830008" lon="8.1740331"><ele>261.3333333333333</ele><time>2026-04-04T12:19:47.941Z</time></trkpt><trkpt lat="44.5830757" lon="8.1737728"><ele>266.6666666666667</ele><time>2026-04-04T12:19:48.941Z</time></trkpt><trkpt lat="44.5831382" lon="8.1734855"><ele>272.0</ele><time>2026-04-04T12:19:49.942Z</time></trkpt><trkpt lat="44.5831967" lon="8.1731938"><ele>272.6666666666667</ele><time>2026-04-04T12:19:50.941Z</time></trkpt><trkpt lat="44.5832506" lon="8.1729168"><ele>273.3333333333333</ele><time>2026-04-04T12:19:51.941Z</time></trkpt><trkpt lat="44.5832897" lon="8.1726421"><ele>274.0</ele><time>2026-04-04T12:19:52.942Z</time></trkpt><trkpt lat="44.5833159" lon="8.1723574"><ele>276.66666666666663</ele><time>2026-04-04T12:19:53.942Z</time></trkpt><trkpt lat="44.5833154" lon="8.1720701"><ele>279.3333333333333</ele><time>2026-04-04T12:19:54.941Z</time></trkpt><trkpt lat="44.583301" lon="8.1717869"><ele>282.0</ele><time>2026-04-04T12:19:55.942Z</time></trkpt><trkpt lat="44.5832607" lon="8.171504"><ele>288.3333333333333</ele><time>2026-04-04T12:19:56.942Z</time></trkpt><trkpt lat="44.5831974" lon="8.1712156"><ele>294.66666666666663</ele><time>2026-04-04T12:19:57.942Z</time></trkpt><trkpt lat="44.5831223" lon="8.1709232"><ele>301.0</ele><time>2026-04-04T12:19:58.942Z</time></trkpt><trkpt lat="44.5830553" lon="8.1706137"><ele>305.0</ele><time>2026-04-04T12:19:59.942Z</time></trkpt><trkpt lat="44.5830111" lon="8.170294"><ele>309.0</ele><time>2026-04-04T12:20:00.941Z</time></trkpt><trkpt lat="44.5829777" lon="8.1699761"><ele>312.3333333333333</ele><time>2026-04-04T12:20:01.942Z</time></trkpt><trkpt lat="44.5829402" lon="8.1696746"><ele>315.66666666666663</ele><time>2026-04-04T12:20:02.941Z</time></trkpt><trkpt lat="44.5828975" lon="8.1693885"><ele>319.0</ele><time>2026-04-04T12:20:03.941Z</time></trkpt><trkpt lat="44.5828421" lon="8.1691154"><ele>310.0</ele><time>2026-04-04T12:20:04.942Z</time></trkpt><trkpt lat="44.5827636" lon="8.1688551"><ele>301.0</ele><time>2026-04-04T12:20:05.942Z</time></trkpt><trkpt lat="44.5826744" lon="8.1686059"><ele>292.0</ele><time>2026-04-04T12:20:06.942Z</time></trkpt><trkpt lat="44.582561" lon="8.1683699"><ele>298.0</ele><time>2026-04-04T12:20:07.941Z</time></trkpt><trkpt lat="44.5824322" lon="8.1681417"><ele>304.0</ele><time>2026-04-04T12:20:08.94Z</time></trkpt><trkpt lat="44.5822809" lon="8.1679483"><ele>310.0</ele><time>2026-04-04T12:20:09.94Z</time></trkpt><trkpt lat="44.5821157" lon="8.1677654"><ele>302.3333333333333</ele><time>2026-04-04T12:20:10.94Z</time></trkpt><trkpt lat="44.5819396" lon="8.1675784"><ele>294.6666666666667</ele><time>2026-04-04T12:20:11.94Z</time></trkpt><trkpt lat="44.5817534" lon="8.1674155"><ele>287.0</ele><time>2026-04-04T12:20:12.941Z</time></trkpt><trkpt lat="44.5815726" lon="8.1672292"><ele>287.0</ele><time>2026-04-04T12:20:13.94Z</time></trkpt><trkpt lat="44.5814014" lon="8.1670307"><ele>287.0</ele><time>2026-04-04T12:20:14.94Z</time></trkpt><trkpt lat="44.5812345" lon="8.1668183"><ele>287.0</ele><time>2026-04-04T12:20:15.941Z</time></trkpt><trkpt lat="44.5810633" lon="8.1666186"><ele>290.6666666666667</ele><time>2026-04-04T12:20:16.941Z</time></trkpt><trkpt lat="44.5808952" lon="8.1664269"><ele>294.3333333333333</ele><time>2026-04-04T12:20:17.941Z</time></trkpt><trkpt lat="44.5807421" lon="8.1662497"><ele>298.0</ele><time>2026-04-04T12:20:18.941Z</time></trkpt><trkpt lat="44.5805945" lon="8.1660894"><ele>298.0</ele><time>2026-04-04T12:20:19.94Z</time></trkpt><trkpt lat="44.5804419" lon="8.1659583"><ele>298.0</ele><time>2026-04-04T12:20:20.94Z</time></trkpt><trkpt lat="44.580272" lon="8.1658373"><ele>298.0</ele><time>2026-04-04T12:20:21.941Z</time></trkpt><trkpt lat="44.5800917" lon="8.1657229"><ele>302.0</ele><time>2026-04-04T12:20:22.941Z</time></trkpt><trkpt lat="44.5799073" lon="8.1656326"><ele>306.0</ele><time>2026-04-04T12:20:23.941Z</time></trkpt><trkpt lat="44.5797185" lon="8.1655572"><ele>310.0</ele><time>2026-04-04T12:20:24.941Z</time></trkpt><trkpt lat="44.5795442" lon="8.165482"><ele>304.3333333333333</ele><time>2026-04-04T12:20:25.941Z</time></trkpt><trkpt lat="44.5793864" lon="8.1654298"><ele>298.6666666666667</ele><time>2026-04-04T12:20:26.94Z</time></trkpt><trkpt lat="44.5792345" lon="8.1654114"><ele>293.0</ele><time>2026-04-04T12:20:27.941Z</time></trkpt><trkpt lat="44.5790937" lon="8.1654249"><ele>293.0</ele><time>2026-04-04T12:20:28.94Z</time></trkpt><trkpt lat="44.5789595" lon="8.1654942"><ele>293.0</ele><time>2026-04-04T12:20:29.941Z</time></trkpt><trkpt lat="44.5788228" lon="8.1656005"><ele>293.0</ele><time>2026-04-04T12:20:30.941Z</time></trkpt><trkpt lat="44.5786801" lon="8.1657091"><ele>288.0</ele><time>2026-04-04T12:20:31.941Z</time></trkpt><trkpt lat="44.5785319" lon="8.1657883"><ele>283.0</ele><time>2026-04-04T12:20:32.941Z</time></trkpt><trkpt lat="44.5783685" lon="8.1658264"><ele>278.0</ele><time>2026-04-04T12:20:33.941Z</time></trkpt><trkpt lat="44.5781876" lon="8.165822"><ele>278.0</ele><time>2026-04-04T12:20:34.941Z</time></trkpt><trkpt lat="44.5780024" lon="8.1657628"><ele>278.0</ele><time>2026-04-04T12:20:35.941Z</time></trkpt><trkpt lat="44.5778007" lon="8.165677"><ele>278.0</ele><time>2026-04-04T12:20:36.941Z</time></trkpt><trkpt lat="44.5775988" lon="8.1655905"><ele>283.0</ele><time>2026-04-04T12:20:37.941Z</time></trkpt><trkpt lat="44.5774121" lon="8.1655143"><ele>288.0</ele><time>2026-04-04T12:20:38.941Z</time></trkpt><trkpt lat="44.5772407" lon="8.1654501"><ele>293.0</ele><time>2026-04-04T12:20:39.941Z</time></trkpt><trkpt lat="44.5770672" lon="8.1653885"><ele>296.0</ele><time>2026-04-04T12:20:40.941Z</time></trkpt><trkpt lat="44.5768856" lon="8.1653365"><ele>299.0</ele><time>2026-04-04T12:20:41.941Z</time></trkpt><trkpt lat="44.5767062" lon="8.1653168"><ele>302.0</ele><time>2026-04-04T12:20:42.941Z</time></trkpt><trkpt lat="44.5765243" lon="8.1653307"><ele>302.0</ele><time>2026-04-04T12:20:43.941Z</time></trkpt><trkpt lat="44.5763382" lon="8.1653943"><ele>302.0</ele><time>2026-04-04T12:20:44.941Z</time></trkpt><trkpt lat="44.5761464" lon="8.1654972"><ele>302.0</ele><time>2026-04-04T12:20:45.94Z</time></trkpt><trkpt lat="44.5759507" lon="8.1656141"><ele>296.6666666666667</ele><time>2026-04-04T12:20:46.94Z</time></trkpt><trkpt lat="44.5757539" lon="8.1657306"><ele>291.3333333333333</ele><time>2026-04-04T12:20:47.94Z</time></trkpt><trkpt lat="44.5755653" lon="8.1658301"><ele>286.0</ele><time>2026-04-04T12:20:48.941Z</time></trkpt><trkpt lat="44.575384" lon="8.1659281"><ele>293.0</ele><time>2026-04-04T12:20:49.94Z</time></trkpt><trkpt lat="44.5752066" lon="8.1660206"><ele>300.0</ele><time>2026-04-04T12:20:50.94Z</time></trkpt><trkpt lat="44.5750398" lon="8.1661182"><ele>307.0</ele><time>2026-04-04T12:20:51.941Z</time></trkpt><trkpt lat="44.5748756" lon="8.166241"><ele>307.0</ele><time>2026-04-04T12:20:52.941Z</time></trkpt><trkpt lat="44.5747094" lon="8.1663923"><ele>307.0</ele><time>2026-04-04T12:20:53.941Z</time></trkpt><trkpt lat="44.5745478" lon="8.166563"><ele>307.0</ele><time>2026-04-04T12:20:54.94Z</time></trkpt><trkpt lat="44.574375" lon="8.1667436"><ele>303.5</ele><time>2026-04-04T12:20:55.941Z</time></trkpt><trkpt lat="44.5741843" lon="8.1669222"><ele>300.0</ele><time>2026-04-04T12:20:56.941Z</time></trkpt><trkpt lat="44.573984" lon="8.1670889"><ele>300.0</ele><time>2026-04-04T12:20:57.941Z</time></trkpt><trkpt lat="44.5737989" lon="8.1672599"><ele>300.0</ele><time>2026-04-04T12:20:58.941Z</time></trkpt><trkpt lat="44.5736281" lon="8.1674303"><ele>300.0</ele><time>2026-04-04T12:20:59.941Z</time></trkpt><trkpt lat="44.5734606" lon="8.1676148"><ele>299.0</ele><time>2026-04-04T12:21:00.941Z</time></trkpt><trkpt lat="44.5732957" lon="8.1678125"><ele>298.0</ele><time>2026-04-04T12:21:01.941Z</time></trkpt><trkpt lat="44.5731367" lon="8.1680309"><ele>297.0</ele><time>2026-04-04T12:21:02.941Z</time></trkpt><trkpt lat="44.5729891" lon="8.168256"><ele>299.3333333333333</ele><time>2026-04-04T12:21:03.941Z</time></trkpt><trkpt lat="44.5728593" lon="8.1684836"><ele>301.66666666666663</ele><time>2026-04-04T12:21:04.941Z</time></trkpt><trkpt lat="44.5727485" lon="8.1687084"><ele>304.0</ele><time>2026-04-04T12:21:05.941Z</time></trkpt><trkpt lat="44.5726502" lon="8.1689206"><ele>298.0</ele><time>2026-04-04T12:21:06.94Z</time></trkpt><trkpt lat="44.5725417" lon="8.1691167"><ele>292.0</ele><time>2026-04-04T12:21:07.94Z</time></trkpt><trkpt lat="44.5724025" lon="8.16928"><ele>286.0</ele><time>2026-04-04T12:21:08.941Z</time></trkpt><trkpt lat="44.5722461" lon="8.169417"><ele>286.0</ele><time>2026-04-04T12:21:09.94Z</time></trkpt><trkpt lat="44.5720668" lon="8.1695465"><ele>286.0</ele><time>2026-04-04T12:21:10.94Z</time></trkpt><trkpt lat="44.5718806" lon="8.1696571"><ele>286.0</ele><time>2026-04-04T12:21:11.94Z</time></trkpt><trkpt lat="44.5716984" lon="8.169759"><ele>283.3333333333333</ele><time>2026-04-04T12:21:12.941Z</time></trkpt><trkpt lat="44.5715291" lon="8.1698606"><ele>280.6666666666667</ele><time>2026-04-04T12:21:13.941Z</time></trkpt><trkpt lat="44.571363" lon="8.1699559"><ele>278.0</ele><time>2026-04-04T12:21:14.941Z</time></trkpt><trkpt lat="44.5712044" lon="8.1700498"><ele>279.6666666666667</ele><time>2026-04-04T12:21:15.94Z</time></trkpt><trkpt lat="44.5710325" lon="8.1700986"><ele>281.3333333333333</ele><time>2026-04-04T12:21:16.941Z</time></trkpt><trkpt lat="44.5708508" lon="8.1701031"><ele>283.0</ele><time>2026-04-04T12:21:17.941Z</time></trkpt><trkpt lat="44.5706598" lon="8.1700785"><ele>283.0</ele><time>2026-04-04T12:21:18.941Z</time></trkpt><trkpt lat="44.5704641" lon="8.170061"><ele>283.0</ele><time>2026-04-04T12:21:19.94Z</time></trkpt><trkpt lat="44.5702637" lon="8.170058"><ele>283.0</ele><time>2026-04-04T12:21:20.941Z</time></trkpt><trkpt lat="44.5700558" lon="8.1700673"><ele>285.3333333333333</ele><time>2026-04-04T12:21:21.941Z</time></trkpt><trkpt lat="44.569844" lon="8.1700793"><ele>287.6666666666667</ele><time>2026-04-04T12:21:22.941Z</time></trkpt><trkpt lat="44.5696362" lon="8.1700965"><ele>290.0</ele><time>2026-04-04T12:21:23.94Z</time></trkpt><trkpt lat="44.5694245" lon="8.1701143"><ele>291.6666666666667</ele><time>2026-04-04T12:21:24.94Z</time></trkpt><trkpt lat="44.5692059" lon="8.1701353"><ele>293.3333333333333</ele><time>2026-04-04T12:21:25.941Z</time></trkpt><trkpt lat="44.5689785" lon="8.1701799"><ele>295.0</ele><time>2026-04-04T12:21:26.941Z</time></trkpt><trkpt lat="44.568755" lon="8.1702152"><ele>297.66666666666663</ele><time>2026-04-04T12:21:27.94Z</time></trkpt><trkpt lat="44.5685387" lon="8.1702432"><ele>300.3333333333333</ele><time>2026-04-04T12:21:28.94Z</time></trkpt><trkpt lat="44.5683389" lon="8.1702528"><ele>303.0</ele><time>2026-04-04T12:21:29.941Z</time></trkpt><trkpt lat="44.5681329" lon="8.1702762"><ele>303.0</ele><time>2026-04-04T12:21:30.941Z</time></trkpt><trkpt lat="44.5679288" lon="8.1703153"><ele>303.0</ele><time>2026-04-04T12:21:31.94Z</time></trkpt><trkpt lat="44.5677254" lon="8.1703523"><ele>303.0</ele><time>2026-04-04T12:21:32.941Z</time></trkpt><trkpt lat="44.5675247" lon="8.1703827"><ele>306.0</ele><time>2026-04-04T12:21:33.941Z</time></trkpt><trkpt lat="44.5673275" lon="8.1704011"><ele>309.0</ele><time>2026-04-04T12:21:34.941Z</time></trkpt><trkpt lat="44.567139" lon="8.1704091"><ele>312.0</ele><time>2026-04-04T12:21:35.94Z</time></trkpt><trkpt lat="44.5669661" lon="8.1704242"><ele>313.0</ele><time>2026-04-04T12:21:36.941Z</time></trkpt><trkpt lat="44.5668044" lon="8.170431"><ele>314.0</ele><time>2026-04-04T12:21:37.941Z</time></trkpt><trkpt lat="44.5666548" lon="8.1704204"><ele>315.0</ele><time>2026-04-04T12:21:38.941Z</time></trkpt><trkpt lat="44.5665119" lon="8.1704323"><ele>315.0</ele><time>2026-04-04T12:21:39.941Z</time></trkpt><trkpt lat="44.5663758" lon="8.1704406"><ele>315.0</ele><time>2026-04-04T12:21:40.94Z</time></trkpt><trkpt lat="44.5662499" lon="8.1704553"><ele>315.0</ele><time>2026-04-04T12:21:41.941Z</time></trkpt><trkpt lat="44.5661384" lon="8.1704757"><ele>315.0</ele><time>2026-04-04T12:21:42.941Z</time></trkpt><trkpt lat="44.5660288" lon="8.1705095"><ele>316.5</ele><time>2026-04-04T12:21:43.941Z</time></trkpt><trkpt lat="44.56592" lon="8.1705487"><ele>318.0</ele><time>2026-04-04T12:21:44.941Z</time></trkpt><trkpt lat="44.5658079" lon="8.1705918"><ele>319.5</ele><time>2026-04-04T12:21:45.941Z</time></trkpt><trkpt lat="44.5656941" lon="8.1706242"><ele>321.0</ele><time>2026-04-04T12:21:46.941Z</time></trkpt><trkpt lat="44.5655684" lon="8.170652"><ele>321.0</ele><time>2026-04-04T12:21:47.941Z</time></trkpt><trkpt lat="44.5654374" lon="8.1706868"><ele>321.0</ele><time>2026-04-04T12:21:48.94Z</time></trkpt><trkpt lat="44.5653005" lon="8.1707372"><ele>321.0</ele><time>2026-04-04T12:21:49.941Z</time></trkpt><trkpt lat="44.5651562" lon="8.1707998"><ele>321.0</ele><time>2026-04-04T12:21:50.94Z</time></trkpt><trkpt lat="44.5650139" lon="8.1708732"><ele>310.3333333333333</ele><time>2026-04-04T12:21:51.941Z</time></trkpt><trkpt lat="44.5648758" lon="8.1709631"><ele>299.66666666666663</ele><time>2026-04-04T12:21:52.941Z</time></trkpt><trkpt lat="44.5647289" lon="8.171071"><ele>289.0</ele><time>2026-04-04T12:21:53.941Z</time></trkpt><trkpt lat="44.5645774" lon="8.1711892"><ele>286.0</ele><time>2026-04-04T12:21:54.941Z</time></trkpt><trkpt lat="44.5644191" lon="8.1713083"><ele>283.0</ele><time>2026-04-04T12:21:55.94Z</time></trkpt><trkpt lat="44.564259" lon="8.1714309"><ele>280.0</ele><time>2026-04-04T12:21:56.94Z</time></trkpt><trkpt lat="44.564097" lon="8.1715562"><ele>280.0</ele><time>2026-04-04T12:21:57.941Z</time></trkpt><trkpt lat="44.5639499" lon="8.1716669"><ele>280.0</ele><time>2026-04-04T12:21:58.941Z</time></trkpt><trkpt lat="44.563826" lon="8.1717721"><ele>280.0</ele><time>2026-04-04T12:21:59.941Z</time></trkpt><trkpt lat="44.5637217" lon="8.1718859"><ele>280.0</ele><time>2026-04-04T12:22:00.941Z</time></trkpt><trkpt lat="44.5636283" lon="8.172"><ele>280.4</ele><time>2026-04-04T12:22:01.941Z</time></trkpt><trkpt lat="44.5635335" lon="8.1721115"><ele>280.8</ele><time>2026-04-04T12:22:02.941Z</time></trkpt><trkpt lat="44.5634374" lon="8.1722058"><ele>281.2</ele><time>2026-04-04T12:22:03.941Z</time></trkpt><trkpt lat="44.5633361" lon="8.1722581"><ele>281.6</ele><time>2026-04-04T12:22:04.941Z</time></trkpt><trkpt lat="44.5632414" lon="8.1722545"><ele>282.0</ele><time>2026-04-04T12:22:05.941Z</time></trkpt><trkpt lat="44.563149" lon="8.1722144"><ele>282.0</ele><time>2026-04-04T12:22:06.94Z</time></trkpt><trkpt lat="44.5630698" lon="8.1721347"><ele>282.0</ele><time>2026-04-04T12:22:07.941Z</time></trkpt><trkpt lat="44.5630106" lon="8.1720202"><ele>282.0</ele><time>2026-04-04T12:22:08.94Z</time></trkpt><trkpt lat="44.5629727" lon="8.171846"><ele>282.0</ele><time>2026-04-04T12:22:09.941Z</time></trkpt><trkpt lat="44.5629595" lon="8.1716082"><ele>286.0</ele><time>2026-04-04T12:22:10.941Z</time></trkpt><trkpt lat="44.5629599" lon="8.1713241"><ele>290.0</ele><time>2026-04-04T12:22:11.941Z</time></trkpt><trkpt lat="44.5629518" lon="8.1710278"><ele>294.0</ele><time>2026-04-04T12:22:12.941Z</time></trkpt><trkpt lat="44.5629374" lon="8.1707338"><ele>297.6666666666667</ele><time>2026-04-04T12:22:13.94Z</time></trkpt><trkpt lat="44.562914" lon="8.1704554"><ele>301.33333333333337</ele><time>2026-04-04T12:22:14.94Z</time></trkpt><trkpt lat="44.5628786" lon="8.1701897"><ele>305.0</ele><time>2026-04-04T12:22:15.941Z</time></trkpt><trkpt lat="44.5628461" lon="8.1699216"><ele>296.0</ele><time>2026-04-04T12:22:16.941Z</time></trkpt><trkpt lat="44.5628165" lon="8.169651"><ele>287.0</ele><time>2026-04-04T12:22:17.941Z</time></trkpt><trkpt lat="44.5627774" lon="8.169382"><ele>278.0</ele><time>2026-04-04T12:22:18.941Z</time></trkpt><trkpt lat="44.5627158" lon="8.1691245"><ele>281.0</ele><time>2026-04-04T12:22:19.941Z</time></trkpt><trkpt lat="44.5626283" lon="8.1688665"><ele>284.0</ele><time>2026-04-04T12:22:20.941Z</time></trkpt><trkpt lat="44.5625261" lon="8.1686175"><ele>287.0</ele><time>2026-04-04T12:22:21.94Z</time></trkpt><trkpt lat="44.5624076" lon="8.1683716"><ele>293.0</ele><time>2026-04-04T12:22:22.941Z</time></trkpt><trkpt lat="44.5622877" lon="8.1681183"><ele>299.0</ele><time>2026-04-04T12:22:23.94Z</time></trkpt><trkpt lat="44.5621682" lon="8.1678597"><ele>305.0</ele><time>2026-04-04T12:22:24.941Z</time></trkpt><trkpt lat="44.5620509" lon="8.1676066"><ele>304.0</ele><time>2026-04-04T12:22:25.941Z</time></trkpt><trkpt lat="44.5619253" lon="8.1673497"><ele>303.0</ele><time>2026-04-04T12:22:26.941Z</time></trkpt><trkpt lat="44.5617962" lon="8.1670964"><ele>302.0</ele><time>2026-04-04T12:22:27.941Z</time></trkpt><trkpt lat="44.5616661" lon="8.1668434"><ele>302.0</ele><time>2026-04-04T12:22:28.941Z</time></trkpt><trkpt lat="44.56155" lon="8.1665811"><ele>302.0</ele><time>2026-04-04T12:22:29.941Z</time></trkpt><trkpt lat="44.5614435" lon="8.1663189"><ele>302.0</ele><time>2026-04-04T12:22:30.941Z</time></trkpt><trkpt lat="44.5613315" lon="8.1660724"><ele>301.33333333333337</ele><time>2026-04-04T12:22:31.941Z</time></trkpt><trkpt lat="44.5612028" lon="8.1658387"><ele>300.6666666666667</ele><time>2026-04-04T12:22:32.941Z</time></trkpt><trkpt lat="44.5610587" lon="8.1656097"><ele>300.0</ele><time>2026-04-04T12:22:33.941Z</time></trkpt><trkpt lat="44.5609129" lon="8.1653863"><ele>300.0</ele><time>2026-04-04T12:22:34.94Z</time></trkpt><trkpt lat="44.5607746" lon="8.1651531"><ele>300.0</ele><time>2026-04-04T12:22:35.941Z</time></trkpt><trkpt lat="44.5606483" lon="8.1649117"><ele>300.0</ele><time>2026-04-04T12:22:36.941Z</time></trkpt><trkpt lat="44.560524" lon="8.1646666"><ele>297.3333333333333</ele><time>2026-04-04T12:22:37.94Z</time></trkpt><trkpt lat="44.5604027" lon="8.1644282"><ele>294.66666666666663</ele><time>2026-04-04T12:22:38.941Z</time></trkpt><trkpt lat="44.560287" lon="8.164176"><ele>292.0</ele><time>2026-04-04T12:22:39.941Z</time></trkpt><trkpt lat="44.5601805" lon="8.1639203"><ele>292.0</ele><time>2026-04-04T12:22:40.941Z</time></trkpt><trkpt lat="44.5600877" lon="8.1636803"><ele>292.0</ele><time>2026-04-04T12:22:41.941Z</time></trkpt><trkpt lat="44.560001" lon="8.1634519"><ele>292.0</ele><time>2026-04-04T12:22:42.941Z</time></trkpt><trkpt lat="44.5599248" lon="8.1632088"><ele>293.0</ele><time>2026-04-04T12:22:43.94Z</time></trkpt><trkpt lat="44.5598698" lon="8.1629579"><ele>294.0</ele><time>2026-04-04T12:22:44.941Z</time></trkpt><trkpt lat="44.5598459" lon="8.1626903"><ele>295.0</ele><time>2026-04-04T12:22:45.94Z</time></trkpt><trkpt lat="44.5598443" lon="8.1624193"><ele>296.3333333333333</ele><time>2026-04-04T12:22:46.941Z</time></trkpt><trkpt lat="44.5598532" lon="8.162129"><ele>297.6666666666667</ele><time>2026-04-04T12:22:47.941Z</time></trkpt><trkpt lat="44.5598755" lon="8.1618138"><ele>299.0</ele><time>2026-04-04T12:22:48.94Z</time></trkpt><trkpt lat="44.5599025" lon="8.1615094"><ele>300.6666666666667</ele><time>2026-04-04T12:22:49.94Z</time></trkpt><trkpt lat="44.5599283" lon="8.1612061"><ele>302.3333333333333</ele><time>2026-04-04T12:22:50.941Z</time></trkpt><trkpt lat="44.5599591" lon="8.1609075"><ele>304.0</ele><time>2026-04-04T12:22:51.941Z</time></trkpt><trkpt lat="44.5599851" lon="8.1606182"><ele>304.66666666666663</ele><time>2026-04-04T12:22:52.941Z</time></trkpt><trkpt lat="44.5599889" lon="8.1603301"><ele>305.3333333333333</ele><time>2026-04-04T12:22:53.941Z</time></trkpt><trkpt lat="44.5599725" lon="8.160037"><ele>306.0</ele><time>2026-04-04T12:22:54.941Z</time></trkpt><trkpt lat="44.5599344" lon="8.1597381"><ele>308.3333333333333</ele><time>2026-04-04T12:22:55.941Z</time></trkpt><trkpt lat="44.5598853" lon="8.1594482"><ele>310.66666666666663</ele><time>2026-04-04T12:22:56.94Z</time></trkpt><trkpt lat="44.5598317" lon="8.1591678"><ele>313.0</ele><time>2026-04-04T12:22:57.941Z</time></trkpt><trkpt lat="44.5597887" lon="8.1588959"><ele>314.3333333333333</ele><time>2026-04-04T12:22:58.941Z</time></trkpt><trkpt lat="44.5597442" lon="8.1586292"><ele>315.6666666666667</ele><time>2026-04-04T12:22:59.941Z</time></trkpt><trkpt lat="44.5597083" lon="8.1583697"><ele>317.0</ele><time>2026-04-04T12:23:00.941Z</time></trkpt><trkpt lat="44.5596721" lon="8.1581209"><ele>319.6666666666667</ele><time>2026-04-04T12:23:01.941Z</time></trkpt><trkpt lat="44.5596271" lon="8.1578823"><ele>322.3333333333333</ele><time>2026-04-04T12:23:02.941Z</time></trkpt><trkpt lat="44.559557" lon="8.1576573"><ele>325.0</ele><time>2026-04-04T12:23:03.941Z</time></trkpt><trkpt lat="44.5594685" lon="8.1574503"><ele>315.66666666666663</ele><time>2026-04-04T12:23:04.94Z</time></trkpt><trkpt lat="44.5593772" lon="8.1572406"><ele>306.3333333333333</ele><time>2026-04-04T12:23:05.941Z</time></trkpt><trkpt lat="44.5592965" lon="8.1570471"><ele>297.0</ele><time>2026-04-04T12:23:06.941Z</time></trkpt><trkpt lat="44.559237" lon="8.1568437"><ele>297.0</ele><time>2026-04-04T12:23:07.941Z</time></trkpt><trkpt lat="44.5592057" lon="8.1566257"><ele>297.0</ele><time>2026-04-04T12:23:08.941Z</time></trkpt><trkpt lat="44.5591968" lon="8.1564212"><ele>297.0</ele><time>2026-04-04T12:23:09.941Z</time></trkpt><trkpt lat="44.5591993" lon="8.1562127"><ele>297.0</ele><time>2026-04-04T12:23:10.941Z</time></trkpt><trkpt lat="44.5592151" lon="8.1559949"><ele>297.0</ele><time>2026-04-04T12:23:11.941Z</time></trkpt><trkpt lat="44.5592439" lon="8.1557671"><ele>297.0</ele><time>2026-04-04T12:23:12.941Z</time></trkpt><trkpt lat="44.5592811" lon="8.155536"><ele>297.0</ele><time>2026-04-04T12:23:13.94Z</time></trkpt><trkpt lat="44.5593085" lon="8.1553119"><ele>297.0</ele><time>2026-04-04T12:23:14.941Z</time></trkpt><trkpt lat="44.5593455" lon="8.1550499"><ele>297.0</ele><time>2026-04-04T12:23:15.941Z</time></trkpt><trkpt lat="44.5593763" lon="8.1547871"><ele>297.0</ele><time>2026-04-04T12:23:16.941Z</time></trkpt><trkpt lat="44.559402" lon="8.1545362"><ele>297.0</ele><time>2026-04-04T12:23:17.941Z</time></trkpt><trkpt lat="44.55943" lon="8.154288"><ele>297.0</ele><time>2026-04-04T12:23:18.941Z</time></trkpt><trkpt lat="44.5594668" lon="8.1540284"><ele>296.6666666666667</ele><time>2026-04-04T12:23:19.941Z</time></trkpt><trkpt lat="44.5595015" lon="8.1537717"><ele>296.33333333333337</ele><time>2026-04-04T12:23:20.941Z</time></trkpt><trkpt lat="44.5595385" lon="8.1535187"><ele>296.0</ele><time>2026-04-04T12:23:21.941Z</time></trkpt><trkpt lat="44.5595928" lon="8.1532628"><ele>297.33333333333337</ele><time>2026-04-04T12:23:22.941Z</time></trkpt><trkpt lat="44.559657" lon="8.1530051"><ele>298.6666666666667</ele><time>2026-04-04T12:23:23.941Z</time></trkpt><trkpt lat="44.5597309" lon="8.1527564"><ele>300.0</ele><time>2026-04-04T12:23:24.941Z</time></trkpt><trkpt lat="44.5598223" lon="8.1525205"><ele>298.3333333333333</ele><time>2026-04-04T12:23:25.941Z</time></trkpt><trkpt lat="44.5599311" lon="8.1522845"><ele>296.66666666666663</ele><time>2026-04-04T12:23:26.941Z</time></trkpt><trkpt lat="44.5600444" lon="8.1520458"><ele>295.0</ele><time>2026-04-04T12:23:27.941Z</time></trkpt><trkpt lat="44.5601539" lon="8.151789"><ele>292.3333333333333</ele><time>2026-04-04T12:23:28.941Z</time></trkpt><trkpt lat="44.5602607" lon="8.1515232"><ele>289.6666666666667</ele><time>2026-04-04T12:23:29.941Z</time></trkpt><trkpt lat="44.5603728" lon="8.1512489"><ele>287.0</ele><time>2026-04-04T12:23:30.941Z</time></trkpt><trkpt lat="44.5604744" lon="8.1509886"><ele>291.0</ele><time>2026-04-04T12:23:31.94Z</time></trkpt><trkpt lat="44.5605833" lon="8.1507156"><ele>295.0</ele><time>2026-04-04T12:23:32.941Z</time></trkpt><trkpt lat="44.5606973" lon="8.1504528"><ele>299.0</ele><time>2026-04-04T12:23:33.941Z</time></trkpt><trkpt lat="44.5608098" lon="8.1501911"><ele>299.0</ele><time>2026-04-04T12:23:34.941Z</time></trkpt><trkpt lat="44.5609205" lon="8.1499431"><ele>299.0</ele><time>2026-04-04T12:23:35.941Z</time></trkpt><trkpt lat="44.5610176" lon="8.1496936"><ele>299.0</ele><time>2026-04-04T12:23:36.941Z</time></trkpt><trkpt lat="44.5611083" lon="8.1494428"><ele>297.33333333333337</ele><time>2026-04-04T12:23:37.941Z</time></trkpt><trkpt lat="44.5611761" lon="8.1491841"><ele>295.6666666666667</ele><time>2026-04-04T12:23:38.941Z</time></trkpt><trkpt lat="44.5612304" lon="8.1489208"><ele>294.0</ele><time>2026-04-04T12:23:39.941Z</time></trkpt><trkpt lat="44.5612746" lon="8.1486606"><ele>299.6666666666667</ele><time>2026-04-04T12:23:40.941Z</time></trkpt><trkpt lat="44.5613228" lon="8.1483901"><ele>305.33333333333337</ele><time>2026-04-04T12:23:41.941Z</time></trkpt><trkpt lat="44.5613744" lon="8.1481152"><ele>311.0</ele><time>2026-04-04T12:23:42.941Z</time></trkpt><trkpt lat="44.5614215" lon="8.1478406"><ele>311.0</ele><time>2026-04-04T12:23:43.941Z</time></trkpt><trkpt lat="44.5614568" lon="8.1475619"><ele>311.0</ele><time>2026-04-04T12:23:44.941Z</time></trkpt><trkpt lat="44.5614779" lon="8.1472822"><ele>311.0</ele><time>2026-04-04T12:23:45.94Z</time></trkpt><trkpt lat="44.5614836" lon="8.1469998"><ele>311.6666666666667</ele><time>2026-04-04T12:23:46.941Z</time></trkpt><trkpt lat="44.5614694" lon="8.1467189"><ele>312.3333333333333</ele><time>2026-04-04T12:23:47.941Z</time></trkpt><trkpt lat="44.561448" lon="8.1464227"><ele>313.0</ele><time>2026-04-04T12:23:48.941Z</time></trkpt><trkpt lat="44.561418" lon="8.1461275"><ele>314.66666666666663</ele><time>2026-04-04T12:23:49.941Z</time></trkpt><trkpt lat="44.5614012" lon="8.1458599"><ele>316.3333333333333</ele><time>2026-04-04T12:23:50.941Z</time></trkpt><trkpt lat="44.561389" lon="8.1456116"><ele>318.0</ele><time>2026-04-04T12:23:51.941Z</time></trkpt><trkpt lat="44.5613722" lon="8.1453777"><ele>318.6666666666667</ele><time>2026-04-04T12:23:52.941Z</time></trkpt><trkpt lat="44.5613382" lon="8.145157"><ele>319.33333333333337</ele><time>2026-04-04T12:23:53.941Z</time></trkpt><trkpt lat="44.5612806" lon="8.1449364"><ele>320.0</ele><time>2026-04-04T12:23:54.94Z</time></trkpt><trkpt lat="44.5611988" lon="8.1447176"><ele>310.6666666666667</ele><time>2026-04-04T12:23:55.941Z</time></trkpt><trkpt lat="44.561099" lon="8.1445194"><ele>301.3333333333333</ele><time>2026-04-04T12:23:56.941Z</time></trkpt><trkpt lat="44.5610007" lon="8.1443273"><ele>292.0</ele><time>2026-04-04T12:23:57.941Z</time></trkpt><trkpt lat="44.5609322" lon="8.144104"><ele>295.0</ele><time>2026-04-04T12:23:58.941Z</time></trkpt><trkpt lat="44.560897" lon="8.1438503"><ele>298.0</ele><time>2026-04-04T12:23:59.941Z</time></trkpt><trkpt lat="44.5608865" lon="8.1436055"><ele>301.0</ele><time>2026-04-04T12:24:00.941Z</time></trkpt><trkpt lat="44.5609028" lon="8.1433465"><ele>302.3333333333333</ele><time>2026-04-04T12:24:01.941Z</time></trkpt><trkpt lat="44.5609315" lon="8.143085"><ele>303.6666666666667</ele><time>2026-04-04T12:24:02.941Z</time></trkpt><trkpt lat="44.5609579" lon="8.1428198"><ele>305.0</ele><time>2026-04-04T12:24:03.94Z</time></trkpt><trkpt lat="44.5609863" lon="8.1425657"><ele>307.0</ele><time>2026-04-04T12:24:04.94Z</time></trkpt><trkpt lat="44.5610021" lon="8.1422951"><ele>309.0</ele><time>2026-04-04T12:24:05.941Z</time></trkpt><trkpt lat="44.5610005" lon="8.1420431"><ele>311.0</ele><time>2026-04-04T12:24:06.941Z</time></trkpt><trkpt lat="44.5609902" lon="8.1417959"><ele>311.0</ele><time>2026-04-04T12:24:07.941Z</time></trkpt><trkpt lat="44.5609693" lon="8.14155"><ele>311.0</ele><time>2026-04-04T12:24:08.941Z</time></trkpt><trkpt lat="44.5609352" lon="8.141307"><ele>311.0</ele><time>2026-04-04T12:24:09.94Z</time></trkpt><trkpt lat="44.5608916" lon="8.1410678"><ele>311.6666666666667</ele><time>2026-04-04T12:24:10.94Z</time></trkpt><trkpt lat="44.5608334" lon="8.1408378"><ele>312.3333333333333</ele><time>2026-04-04T12:24:11.94Z</time></trkpt><trkpt lat="44.5607615" lon="8.1406133"><ele>313.0</ele><time>2026-04-04T12:24:12.94Z</time></trkpt><trkpt lat="44.5606745" lon="8.140392"><ele>315.3333333333333</ele><time>2026-04-04T12:24:13.941Z</time></trkpt><trkpt lat="44.5605886" lon="8.1401668"><ele>317.6666666666667</ele><time>2026-04-04T12:24:14.941Z</time></trkpt><trkpt lat="44.5605248" lon="8.1399426"><ele>320.0</ele><time>2026-04-04T12:24:15.941Z</time></trkpt><trkpt lat="44.5604811" lon="8.1397122"><ele>319.6666666666667</ele><time>2026-04-04T12:24:16.94Z</time></trkpt><trkpt lat="44.5604483" lon="8.1394711"><ele>319.3333333333333</ele><time>2026-04-04T12:24:17.941Z</time></trkpt><trkpt lat="44.5604" lon="8.1392242"><ele>319.0</ele><time>2026-04-04T12:24:18.94Z</time></trkpt><trkpt lat="44.5603458" lon="8.1389811"><ele>319.0</ele><time>2026-04-04T12:24:19.94Z</time></trkpt><trkpt lat="44.5602868" lon="8.1387487"><ele>319.0</ele><time>2026-04-04T12:24:20.941Z</time></trkpt><trkpt lat="44.5602176" lon="8.1385311"><ele>319.0</ele><time>2026-04-04T12:24:21.94Z</time></trkpt><trkpt lat="44.5601337" lon="8.1383215"><ele>323.0</ele><time>2026-04-04T12:24:22.941Z</time></trkpt><trkpt lat="44.5600566" lon="8.138107"><ele>327.0</ele><time>2026-04-04T12:24:23.941Z</time></trkpt><trkpt lat="44.5599798" lon="8.1378954"><ele>331.0</ele><time>2026-04-04T12:24:24.94Z</time></trkpt><trkpt lat="44.5599117" lon="8.1377155"><ele>331.0</ele><time>2026-04-04T12:24:25.941Z</time></trkpt><trkpt lat="44.5598348" lon="8.1375479"><ele>331.0</ele><time>2026-04-04T12:24:26.941Z</time></trkpt><trkpt lat="44.5597592" lon="8.1373875"><ele>331.0</ele><time>2026-04-04T12:24:27.941Z</time></trkpt><trkpt lat="44.5596984" lon="8.1372296"><ele>331.0</ele><time>2026-04-04T12:24:28.941Z</time></trkpt><trkpt lat="44.5596328" lon="8.1370722"><ele>330.5</ele><time>2026-04-04T12:24:29.941Z</time></trkpt><trkpt lat="44.5595701" lon="8.1369284"><ele>330.0</ele><time>2026-04-04T12:24:30.941Z</time></trkpt><trkpt lat="44.5595032" lon="8.1367824"><ele>329.5</ele><time>2026-04-04T12:24:31.941Z</time></trkpt><trkpt lat="44.5594256" lon="8.1366409"><ele>329.0</ele><time>2026-04-04T12:24:32.941Z</time></trkpt><trkpt lat="44.5593242" lon="8.1365228"><ele>332.5</ele><time>2026-04-04T12:24:33.941Z</time></trkpt><trkpt lat="44.5592023" lon="8.1364413"><ele>336.0</ele><time>2026-04-04T12:24:34.941Z</time></trkpt><trkpt lat="44.5590592" lon="8.1363807"><ele>339.5</ele><time>2026-04-04T12:24:35.94Z</time></trkpt><trkpt lat="44.5588995" lon="8.1363468"><ele>343.0</ele><time>2026-04-04T12:24:36.941Z</time></trkpt><trkpt lat="44.5587272" lon="8.1363336"><ele>340.0</ele><time>2026-04-04T12:24:37.941Z</time></trkpt><trkpt lat="44.5585397" lon="8.1363245"><ele>337.0</ele><time>2026-04-04T12:24:38.94Z</time></trkpt><trkpt lat="44.5583453" lon="8.13631"><ele>334.0</ele><time>2026-04-04T12:24:39.941Z</time></trkpt><trkpt lat="44.5581496" lon="8.1363153"><ele>334.0</ele><time>2026-04-04T12:24:40.941Z</time></trkpt><trkpt lat="44.5579586" lon="8.1363014"><ele>334.0</ele><time>2026-04-04T12:24:41.94Z</time></trkpt><trkpt lat="44.5577555" lon="8.1363115"><ele>334.0</ele><time>2026-04-04T12:24:42.941Z</time></trkpt><trkpt lat="44.5575529" lon="8.1363374"><ele>333.0</ele><time>2026-04-04T12:24:43.941Z</time></trkpt><trkpt lat="44.5573476" lon="8.1363679"><ele>332.0</ele><time>2026-04-04T12:24:44.941Z</time></trkpt><trkpt lat="44.5571415" lon="8.1364012"><ele>331.0</ele><time>2026-04-04T12:24:45.94Z</time></trkpt><trkpt lat="44.5569313" lon="8.1364338"><ele>328.3333333333333</ele><time>2026-04-04T12:24:46.941Z</time></trkpt><trkpt lat="44.5567113" lon="8.1364623"><ele>325.6666666666667</ele><time>2026-04-04T12:24:47.94Z</time></trkpt><trkpt lat="44.556488" lon="8.1364882"><ele>323.0</ele><time>2026-04-04T12:24:48.941Z</time></trkpt><trkpt lat="44.5562797" lon="8.1365154"><ele>323.33333333333337</ele><time>2026-04-04T12:24:49.941Z</time></trkpt><trkpt lat="44.5560647" lon="8.1365395"><ele>323.6666666666667</ele><time>2026-04-04T12:24:50.941Z</time></trkpt><trkpt lat="44.5558669" lon="8.1365512"><ele>324.0</ele><time>2026-04-04T12:24:51.941Z</time></trkpt><trkpt lat="44.5556732" lon="8.1365261"><ele>324.0</ele><time>2026-04-04T12:24:52.941Z</time></trkpt><trkpt lat="44.555481" lon="8.1364558"><ele>324.0</ele><time>2026-04-04T12:24:53.941Z</time></trkpt><trkpt lat="44.5552944" lon="8.1363723"><ele>324.0</ele><time>2026-04-04T12:24:54.941Z</time></trkpt><trkpt lat="44.5551244" lon="8.1362769"><ele>323.0</ele><time>2026-04-04T12:24:55.941Z</time></trkpt><trkpt lat="44.5549755" lon="8.1361425"><ele>322.0</ele><time>2026-04-04T12:24:56.94Z</time></trkpt><trkpt lat="44.5548377" lon="8.1359637"><ele>321.0</ele><time>2026-04-04T12:24:57.941Z</time></trkpt><trkpt lat="44.5547081" lon="8.1357551"><ele>324.0</ele><time>2026-04-04T12:24:58.941Z</time></trkpt><trkpt lat="44.5545696" lon="8.1355722"><ele>327.0</ele><time>2026-04-04T12:24:59.94Z</time></trkpt><trkpt lat="44.5544167" lon="8.1354234"><ele>330.0</ele><time>2026-04-04T12:25:00.941Z</time></trkpt><trkpt lat="44.5542535" lon="8.1353153"><ele>330.0</ele><time>2026-04-04T12:25:01.94Z</time></trkpt><trkpt lat="44.5540748" lon="8.1352607"><ele>330.0</ele><time>2026-04-04T12:25:02.941Z</time></trkpt><trkpt lat="44.5538943" lon="8.1352463"><ele>330.0</ele><time>2026-04-04T12:25:03.94Z</time></trkpt><trkpt lat="44.5537172" lon="8.1352454"><ele>328.3333333333333</ele><time>2026-04-04T12:25:04.941Z</time></trkpt><trkpt lat="44.5535421" lon="8.1352467"><ele>326.66666666666663</ele><time>2026-04-04T12:25:05.941Z</time></trkpt><trkpt lat="44.5533584" lon="8.1352309"><ele>325.0</ele><time>2026-04-04T12:25:06.94Z</time></trkpt><trkpt lat="44.5531812" lon="8.1351749"><ele>325.0</ele><time>2026-04-04T12:25:07.941Z</time></trkpt><trkpt lat="44.5530057" lon="8.135099"><ele>325.0</ele><time>2026-04-04T12:25:08.941Z</time></trkpt><trkpt lat="44.5528228" lon="8.1350173"><ele>325.0</ele><time>2026-04-04T12:25:09.941Z</time></trkpt><trkpt lat="44.552643" lon="8.1349665"><ele>324.0</ele><time>2026-04-04T12:25:10.941Z</time></trkpt><trkpt lat="44.552462" lon="8.1349602"><ele>323.0</ele><time>2026-04-04T12:25:11.94Z</time></trkpt><trkpt lat="44.5522869" lon="8.1349692"><ele>322.0</ele><time>2026-04-04T12:25:12.939Z</time></trkpt><trkpt lat="44.5521157" lon="8.1350417"><ele>327.66666666666663</ele><time>2026-04-04T12:25:13.94Z</time></trkpt><trkpt lat="44.5519519" lon="8.1351646"><ele>333.3333333333333</ele><time>2026-04-04T12:25:14.94Z</time></trkpt><trkpt lat="44.5517941" lon="8.1353146"><ele>339.0</ele><time>2026-04-04T12:25:15.94Z</time></trkpt><trkpt lat="44.551632" lon="8.1354801"><ele>339.0</ele><time>2026-04-04T12:25:16.939Z</time></trkpt><trkpt lat="44.5514726" lon="8.1356511"><ele>339.0</ele><time>2026-04-04T12:25:17.939Z</time></trkpt><trkpt lat="44.5513116" lon="8.1358229"><ele>339.0</ele><time>2026-04-04T12:25:18.939Z</time></trkpt><trkpt lat="44.5511427" lon="8.1359955"><ele>341.3333333333333</ele><time>2026-04-04T12:25:19.94Z</time></trkpt><trkpt lat="44.5509734" lon="8.136178"><ele>343.66666666666663</ele><time>2026-04-04T12:25:20.94Z</time></trkpt><trkpt lat="44.550811" lon="8.1363793"><ele>346.0</ele><time>2026-04-04T12:25:21.939Z</time></trkpt><trkpt lat="44.550662" lon="8.1366324"><ele>332.5</ele><time>2026-04-04T12:25:22.94Z</time></trkpt><trkpt lat="44.5505207" lon="8.1368821"><ele>319.0</ele><time>2026-04-04T12:25:23.94Z</time></trkpt><trkpt lat="44.5503812" lon="8.1371579"><ele>325.5</ele><time>2026-04-04T12:25:24.94Z</time></trkpt><trkpt lat="44.5502356" lon="8.1374178"><ele>332.0</ele><time>2026-04-04T12:25:25.94Z</time></trkpt><trkpt lat="44.5500913" lon="8.1376695"><ele>332.0</ele><time>2026-04-04T12:25:26.939Z</time></trkpt><trkpt lat="44.549957" lon="8.1379106"><ele>332.0</ele><time>2026-04-04T12:25:27.939Z</time></trkpt><trkpt lat="44.5498336" lon="8.1381282"><ele>332.0</ele><time>2026-04-04T12:25:28.939Z</time></trkpt><trkpt lat="44.5497087" lon="8.1383328"><ele>333.0</ele><time>2026-04-04T12:25:29.939Z</time></trkpt><trkpt lat="44.5495846" lon="8.1385191"><ele>334.0</ele><time>2026-04-04T12:25:30.94Z</time></trkpt><trkpt lat="44.5494649" lon="8.1386753"><ele>335.0</ele><time>2026-04-04T12:25:31.939Z</time></trkpt><trkpt lat="44.5493491" lon="8.1388438"><ele>335.0</ele><time>2026-04-04T12:25:32.94Z</time></trkpt><trkpt lat="44.5492427" lon="8.1389903"><ele>335.0</ele><time>2026-04-04T12:25:33.939Z</time></trkpt><trkpt lat="44.549127" lon="8.1391296"><ele>335.0</ele><time>2026-04-04T12:25:34.939Z</time></trkpt><trkpt lat="44.5489995" lon="8.1392462"><ele>333.25</ele><time>2026-04-04T12:25:35.94Z</time></trkpt><trkpt lat="44.5488669" lon="8.1393131"><ele>331.5</ele><time>2026-04-04T12:25:36.94Z</time></trkpt><trkpt lat="44.5487238" lon="8.1393588"><ele>329.75</ele><time>2026-04-04T12:25:37.94Z</time></trkpt><trkpt lat="44.5485702" lon="8.1393664"><ele>328.0</ele><time>2026-04-04T12:25:38.94Z</time></trkpt><trkpt lat="44.5484199" lon="8.1393376"><ele>328.0</ele><time>2026-04-04T12:25:39.94Z</time></trkpt><trkpt lat="44.5482629" lon="8.1392884"><ele>328.0</ele><time>2026-04-04T12:25:40.939Z</time></trkpt><trkpt lat="44.5481049" lon="8.1391982"><ele>328.0</ele><time>2026-04-04T12:25:41.94Z</time></trkpt><trkpt lat="44.5479478" lon="8.1390987"><ele>329.0</ele><time>2026-04-04T12:25:42.94Z</time></trkpt><trkpt lat="44.5477904" lon="8.1390125"><ele>330.0</ele><time>2026-04-04T12:25:43.94Z</time></trkpt><trkpt lat="44.5476279" lon="8.1389451"><ele>331.0</ele><time>2026-04-04T12:25:44.94Z</time></trkpt><trkpt lat="44.5474642" lon="8.1388782"><ele>331.0</ele><time>2026-04-04T12:25:45.94Z</time></trkpt><trkpt lat="44.5472992" lon="8.1388112"><ele>331.0</ele><time>2026-04-04T12:25:46.939Z</time></trkpt><trkpt lat="44.5471302" lon="8.1387542"><ele>331.0</ele><time>2026-04-04T12:25:47.94Z</time></trkpt><trkpt lat="44.546961" lon="8.1387304"><ele>328.66666666666663</ele><time>2026-04-04T12:25:48.94Z</time></trkpt><trkpt lat="44.546792" lon="8.1387317"><ele>326.3333333333333</ele><time>2026-04-04T12:25:49.94Z</time></trkpt><trkpt lat="44.5466293" lon="8.1387558"><ele>324.0</ele><time>2026-04-04T12:25:50.94Z</time></trkpt><trkpt lat="44.5464794" lon="8.1387914"><ele>324.0</ele><time>2026-04-04T12:25:51.939Z</time></trkpt><trkpt lat="44.5463246" lon="8.1388258"><ele>324.0</ele><time>2026-04-04T12:25:52.94Z</time></trkpt><trkpt lat="44.5461636" lon="8.1388511"><ele>324.0</ele><time>2026-04-04T12:25:53.94Z</time></trkpt><trkpt lat="44.5460061" lon="8.1388763"><ele>323.3333333333333</ele><time>2026-04-04T12:25:54.94Z</time></trkpt><trkpt lat="44.5458471" lon="8.1388941"><ele>322.66666666666663</ele><time>2026-04-04T12:25:55.939Z</time></trkpt><trkpt lat="44.545686" lon="8.1389179"><ele>322.0</ele><time>2026-04-04T12:25:56.94Z</time></trkpt><trkpt lat="44.5455303" lon="8.1389452"><ele>322.3333333333333</ele><time>2026-04-04T12:25:57.94Z</time></trkpt><trkpt lat="44.5453664" lon="8.1389683"><ele>322.6666666666667</ele><time>2026-04-04T12:25:58.94Z</time></trkpt><trkpt lat="44.5452064" lon="8.138986"><ele>323.0</ele><time>2026-04-04T12:25:59.94Z</time></trkpt><trkpt lat="44.5450479" lon="8.1390066"><ele>323.0</ele><time>2026-04-04T12:26:00.94Z</time></trkpt><trkpt lat="44.5448911" lon="8.1390285"><ele>323.0</ele><time>2026-04-04T12:26:01.94Z</time></trkpt><trkpt lat="44.5447344" lon="8.1390435"><ele>323.0</ele><time>2026-04-04T12:26:02.94Z</time></trkpt><trkpt lat="44.5445753" lon="8.1390464"><ele>323.0</ele><time>2026-04-04T12:26:03.94Z</time></trkpt><trkpt lat="44.5444137" lon="8.1390532"><ele>323.0</ele><time>2026-04-04T12:26:04.939Z</time></trkpt><trkpt lat="44.5442456" lon="8.1390456"><ele>323.0</ele><time>2026-04-04T12:26:05.94Z</time></trkpt><trkpt lat="44.544075" lon="8.1390243"><ele>323.0</ele><time>2026-04-04T12:26:06.94Z</time></trkpt><trkpt lat="44.5439006" lon="8.1389953"><ele>323.0</ele><time>2026-04-04T12:26:07.939Z</time></trkpt><trkpt lat="44.54372" lon="8.138974"><ele>323.0</ele><time>2026-04-04T12:26:08.94Z</time></trkpt><trkpt lat="44.5435426" lon="8.1389603"><ele>324.6666666666667</ele><time>2026-04-04T12:26:09.94Z</time></trkpt><trkpt lat="44.543371" lon="8.1389466"><ele>326.3333333333333</ele><time>2026-04-04T12:26:10.94Z</time></trkpt><trkpt lat="44.5432001" lon="8.1389233"><ele>328.0</ele><time>2026-04-04T12:26:11.94Z</time></trkpt><trkpt lat="44.5430376" lon="8.138885"><ele>329.0</ele><time>2026-04-04T12:26:12.94Z</time></trkpt><trkpt lat="44.5428698" lon="8.138821"><ele>330.0</ele><time>2026-04-04T12:26:13.94Z</time></trkpt><trkpt lat="44.5426883" lon="8.1387378"><ele>331.0</ele><time>2026-04-04T12:26:14.94Z</time></trkpt><trkpt lat="44.5424978" lon="8.1386724"><ele>331.0</ele><time>2026-04-04T12:26:15.94Z</time></trkpt><trkpt lat="44.5423014" lon="8.1386372"><ele>331.0</ele><time>2026-04-04T12:26:16.939Z</time></trkpt><trkpt lat="44.5420965" lon="8.1386216"><ele>331.0</ele><time>2026-04-04T12:26:17.939Z</time></trkpt><trkpt lat="44.5418873" lon="8.1386203"><ele>332.66666666666663</ele><time>2026-04-04T12:26:18.94Z</time></trkpt><trkpt lat="44.5416858" lon="8.1386099"><ele>334.3333333333333</ele><time>2026-04-04T12:26:19.939Z</time></trkpt><trkpt lat="44.5414966" lon="8.1385897"><ele>336.0</ele><time>2026-04-04T12:26:20.94Z</time></trkpt><trkpt lat="44.5413154" lon="8.1385758"><ele>334.0</ele><time>2026-04-04T12:26:21.939Z</time></trkpt><trkpt lat="44.5411345" lon="8.1385656"><ele>332.0</ele><time>2026-04-04T12:26:22.94Z</time></trkpt><trkpt lat="44.5409558" lon="8.138538"><ele>330.0</ele><time>2026-04-04T12:26:23.94Z</time></trkpt><trkpt lat="44.5407659" lon="8.1385012"><ele>330.0</ele><time>2026-04-04T12:26:24.939Z</time></trkpt><trkpt lat="44.5405696" lon="8.1384577"><ele>330.0</ele><time>2026-04-04T12:26:25.94Z</time></trkpt><trkpt lat="44.5403689" lon="8.1384152"><ele>330.0</ele><time>2026-04-04T12:26:26.939Z</time></trkpt><trkpt lat="44.5401685" lon="8.1383871"><ele>327.3333333333333</ele><time>2026-04-04T12:26:27.939Z</time></trkpt><trkpt lat="44.5399669" lon="8.1383734"><ele>324.66666666666663</ele><time>2026-04-04T12:26:28.94Z</time></trkpt><trkpt lat="44.5397641" lon="8.1383739"><ele>322.0</ele><time>2026-04-04T12:26:29.94Z</time></trkpt><trkpt lat="44.5395596" lon="8.1383644"><ele>324.3333333333333</ele><time>2026-04-04T12:26:30.94Z</time></trkpt><trkpt lat="44.5393574" lon="8.1383689"><ele>326.6666666666667</ele><time>2026-04-04T12:26:31.939Z</time></trkpt><trkpt lat="44.5391462" lon="8.1383881"><ele>329.0</ele><time>2026-04-04T12:26:32.939Z</time></trkpt><trkpt lat="44.5389387" lon="8.1384153"><ele>329.0</ele><time>2026-04-04T12:26:33.94Z</time></trkpt><trkpt lat="44.5387333" lon="8.1384431"><ele>329.0</ele><time>2026-04-04T12:26:34.94Z</time></trkpt><trkpt lat="44.5385308" lon="8.1384784"><ele>329.0</ele><time>2026-04-04T12:26:35.94Z</time></trkpt><trkpt lat="44.538323" lon="8.1385231"><ele>331.33333333333337</ele><time>2026-04-04T12:26:36.94Z</time></trkpt><trkpt lat="44.5381157" lon="8.138567"><ele>333.6666666666667</ele><time>2026-04-04T12:26:37.939Z</time></trkpt><trkpt lat="44.5379005" lon="8.1386047"><ele>336.0</ele><time>2026-04-04T12:26:38.94Z</time></trkpt><trkpt lat="44.5376969" lon="8.1386335"><ele>337.0</ele><time>2026-04-04T12:26:39.94Z</time></trkpt><trkpt lat="44.5374934" lon="8.1386713"><ele>338.0</ele><time>2026-04-04T12:26:40.94Z</time></trkpt><trkpt lat="44.5372872" lon="8.1387119"><ele>339.0</ele><time>2026-04-04T12:26:41.94Z</time></trkpt><trkpt lat="44.5370752" lon="8.1387585"><ele>342.0</ele><time>2026-04-04T12:26:42.939Z</time></trkpt><trkpt lat="44.5368603" lon="8.1388102"><ele>345.0</ele><time>2026-04-04T12:26:43.94Z</time></trkpt><trkpt lat="44.5366454" lon="8.1388693"><ele>348.0</ele><time>2026-04-04T12:26:44.94Z</time></trkpt><trkpt lat="44.5364344" lon="8.1389244"><ele>348.0</ele><time>2026-04-04T12:26:45.94Z</time></trkpt><trkpt lat="44.5362339" lon="8.1389711"><ele>348.0</ele><time>2026-04-04T12:26:46.939Z</time></trkpt><trkpt lat="44.5360421" lon="8.1390054"><ele>348.0</ele><time>2026-04-04T12:26:47.94Z</time></trkpt><trkpt lat="44.5358435" lon="8.1390235"><ele>350.6666666666667</ele><time>2026-04-04T12:26:48.94Z</time></trkpt><trkpt lat="44.5356442" lon="8.1390401"><ele>353.33333333333337</ele><time>2026-04-04T12:26:49.939Z</time></trkpt><trkpt lat="44.5354401" lon="8.1390592"><ele>356.0</ele><time>2026-04-04T12:26:50.94Z</time></trkpt><trkpt lat="44.5352364" lon="8.1390794"><ele>346.0</ele><time>2026-04-04T12:26:51.94Z</time></trkpt><trkpt lat="44.5350294" lon="8.139097"><ele>336.0</ele><time>2026-04-04T12:26:52.94Z</time></trkpt><trkpt lat="44.5348224" lon="8.139109"><ele>326.0</ele><time>2026-04-04T12:26:53.94Z</time></trkpt><trkpt lat="44.5346082" lon="8.1391261"><ele>326.0</ele><time>2026-04-04T12:26:54.94Z</time></trkpt><trkpt lat="44.5343974" lon="8.1391138"><ele>326.0</ele><time>2026-04-04T12:26:55.939Z</time></trkpt><trkpt lat="44.5342005" lon="8.1391029"><ele>326.0</ele><time>2026-04-04T12:26:56.94Z</time></trkpt><trkpt lat="44.5340077" lon="8.1390785"><ele>333.33333333333337</ele><time>2026-04-04T12:26:57.94Z</time></trkpt><trkpt lat="44.5338097" lon="8.1390344"><ele>340.6666666666667</ele><time>2026-04-04T12:26:58.94Z</time></trkpt><trkpt lat="44.5336092" lon="8.138955"><ele>348.0</ele><time>2026-04-04T12:26:59.94Z</time></trkpt><trkpt lat="44.5334025" lon="8.1388604"><ele>348.0</ele><time>2026-04-04T12:27:00.939Z</time></trkpt><trkpt lat="44.5331965" lon="8.1387547"><ele>348.0</ele><time>2026-04-04T12:27:01.94Z</time></trkpt><trkpt lat="44.5329872" lon="8.1386646"><ele>348.0</ele><time>2026-04-04T12:27:02.94Z</time></trkpt><trkpt lat="44.532778" lon="8.138606"><ele>345.6666666666667</ele><time>2026-04-04T12:27:03.94Z</time></trkpt><trkpt lat="44.5325678" lon="8.1385527"><ele>343.33333333333337</ele><time>2026-04-04T12:27:04.94Z</time></trkpt><trkpt lat="44.5323486" lon="8.1385121"><ele>341.0</ele><time>2026-04-04T12:27:05.939Z</time></trkpt><trkpt lat="44.5321233" lon="8.1384951"><ele>338.0</ele><time>2026-04-04T12:27:06.94Z</time></trkpt><trkpt lat="44.5318954" lon="8.1384963"><ele>335.0</ele><time>2026-04-04T12:27:07.94Z</time></trkpt><trkpt lat="44.5316718" lon="8.1385175"><ele>335.0</ele><time>2026-04-04T12:27:08.939Z</time></trkpt><trkpt lat="44.5314522" lon="8.138544"><ele>335.0</ele><time>2026-04-04T12:27:09.94Z</time></trkpt><trkpt lat="44.5312266" lon="8.1385782"><ele>335.0</ele><time>2026-04-04T12:27:10.939Z</time></trkpt><trkpt lat="44.5310003" lon="8.1386088"><ele>337.33333333333337</ele><time>2026-04-04T12:27:11.94Z</time></trkpt><trkpt lat="44.5307848" lon="8.1386592"><ele>339.6666666666667</ele><time>2026-04-04T12:27:12.94Z</time></trkpt><trkpt lat="44.5305646" lon="8.1387307"><ele>342.0</ele><time>2026-04-04T12:27:13.94Z</time></trkpt><trkpt lat="44.530343" lon="8.1388099"><ele>346.5</ele><time>2026-04-04T12:27:14.94Z</time></trkpt><trkpt lat="44.5301211" lon="8.138891"><ele>351.0</ele><time>2026-04-04T12:27:15.94Z</time></trkpt><trkpt lat="44.5299074" lon="8.1389706"><ele>351.0</ele><time>2026-04-04T12:27:16.94Z</time></trkpt><trkpt lat="44.5296902" lon="8.1390471"><ele>351.0</ele><time>2026-04-04T12:27:17.939Z</time></trkpt><trkpt lat="44.5294708" lon="8.1391213"><ele>345.0</ele><time>2026-04-04T12:27:18.94Z</time></trkpt><trkpt lat="44.5292545" lon="8.1392033"><ele>339.0</ele><time>2026-04-04T12:27:19.94Z</time></trkpt><trkpt lat="44.5290246" lon="8.139278"><ele>339.0</ele><time>2026-04-04T12:27:20.94Z</time></trkpt><trkpt lat="44.5287962" lon="8.1393518"><ele>339.0</ele><time>2026-04-04T12:27:21.939Z</time></trkpt><trkpt lat="44.528584" lon="8.1394271"><ele>341.3333333333333</ele><time>2026-04-04T12:27:22.94Z</time></trkpt><trkpt lat="44.5283878" lon="8.1395017"><ele>343.66666666666663</ele><time>2026-04-04T12:27:23.94Z</time></trkpt><trkpt lat="44.5282043" lon="8.1395715"><ele>346.0</ele><time>2026-04-04T12:27:24.94Z</time></trkpt><trkpt lat="44.528032" lon="8.1396373"><ele>349.66666666666663</ele><time>2026-04-04T12:27:25.939Z</time></trkpt><trkpt lat="44.5278604" lon="8.1396841"><ele>353.3333333333333</ele><time>2026-04-04T12:27:26.939Z</time></trkpt><trkpt lat="44.5277081" lon="8.1397162"><ele>357.0</ele><time>2026-04-04T12:27:27.94Z</time></trkpt><trkpt lat="44.5275455" lon="8.1397261"><ele>357.0</ele><time>2026-04-04T12:27:28.939Z</time></trkpt><trkpt lat="44.5273884" lon="8.1397462"><ele>357.0</ele><time>2026-04-04T12:27:29.939Z</time></trkpt><trkpt lat="44.52724" lon="8.139794"><ele>357.0</ele><time>2026-04-04T12:27:30.939Z</time></trkpt><trkpt lat="44.5271071" lon="8.1398776"><ele>354.0</ele><time>2026-04-04T12:27:31.94Z</time></trkpt><trkpt lat="44.5269915" lon="8.1400143"><ele>351.0</ele><time>2026-04-04T12:27:32.94Z</time></trkpt><trkpt lat="44.5268602" lon="8.1401808"><ele>348.0</ele><time>2026-04-04T12:27:33.94Z</time></trkpt><trkpt lat="44.5267187" lon="8.1403175"><ele>348.0</ele><time>2026-04-04T12:27:34.939Z</time></trkpt><trkpt lat="44.5265756" lon="8.1404159"><ele>348.0</ele><time>2026-04-04T12:27:35.94Z</time></trkpt><trkpt lat="44.5264082" lon="8.1404687"><ele>348.0</ele><time>2026-04-04T12:27:36.94Z</time></trkpt><trkpt lat="44.5262168" lon="8.1404787"><ele>350.6666666666667</ele><time>2026-04-04T12:27:37.94Z</time></trkpt><trkpt lat="44.526018" lon="8.1404701"><ele>353.33333333333337</ele><time>2026-04-04T12:27:38.939Z</time></trkpt><trkpt lat="44.5258344" lon="8.1404502"><ele>356.0</ele><time>2026-04-04T12:27:39.94Z</time></trkpt><trkpt lat="44.5256694" lon="8.1404235"><ele>356.0</ele><time>2026-04-04T12:27:40.939Z</time></trkpt><trkpt lat="44.5255125" lon="8.140378"><ele>356.0</ele><time>2026-04-04T12:27:41.94Z</time></trkpt><trkpt lat="44.5253542" lon="8.1402986"><ele>356.0</ele><time>2026-04-04T12:27:42.94Z</time></trkpt><trkpt lat="44.5252115" lon="8.1401674"><ele>355.33333333333337</ele><time>2026-04-04T12:27:43.94Z</time></trkpt><trkpt lat="44.525068" lon="8.1400056"><ele>354.6666666666667</ele><time>2026-04-04T12:27:44.94Z</time></trkpt><trkpt lat="44.5249246" lon="8.1398171"><ele>354.0</ele><time>2026-04-04T12:27:45.939Z</time></trkpt><trkpt lat="44.5247849" lon="8.1396299"><ele>354.0</ele><time>2026-04-04T12:27:46.94Z</time></trkpt><trkpt lat="44.5246714" lon="8.1394476"><ele>354.0</ele><time>2026-04-04T12:27:47.94Z</time></trkpt><trkpt lat="44.5245796" lon="8.1392508"><ele>354.0</ele><time>2026-04-04T12:27:48.939Z</time></trkpt><trkpt lat="44.5245099" lon="8.1390346"><ele>352.3333333333333</ele><time>2026-04-04T12:27:49.94Z</time></trkpt><trkpt lat="44.5244423" lon="8.1387693"><ele>350.66666666666663</ele><time>2026-04-04T12:27:50.939Z</time></trkpt><trkpt lat="44.5243754" lon="8.138476"><ele>349.0</ele><time>2026-04-04T12:27:51.94Z</time></trkpt><trkpt lat="44.5243006" lon="8.1381893"><ele>349.0</ele><time>2026-04-04T12:27:52.94Z</time></trkpt><trkpt lat="44.5242329" lon="8.1379331"><ele>349.0</ele><time>2026-04-04T12:27:53.94Z</time></trkpt><trkpt lat="44.5241598" lon="8.1377023"><ele>349.0</ele><time>2026-04-04T12:27:54.94Z</time></trkpt><trkpt lat="44.5240653" lon="8.137491"><ele>349.0</ele><time>2026-04-04T12:27:55.94Z</time></trkpt><trkpt lat="44.5239354" lon="8.1373218"><ele>349.0</ele><time>2026-04-04T12:27:56.94Z</time></trkpt><trkpt lat="44.5237841" lon="8.1371672"><ele>349.0</ele><time>2026-04-04T12:27:57.94Z</time></trkpt><trkpt lat="44.523612" lon="8.1370368"><ele>349.0</ele><time>2026-04-04T12:27:58.94Z</time></trkpt><trkpt lat="44.523437" lon="8.1368922"><ele>349.0</ele><time>2026-04-04T12:27:59.94Z</time></trkpt><trkpt lat="44.5232601" lon="8.1367255"><ele>349.0</ele><time>2026-04-04T12:28:00.94Z</time></trkpt><trkpt lat="44.5230873" lon="8.1365408"><ele>347.0</ele><time>2026-04-04T12:28:01.939Z</time></trkpt><trkpt lat="44.5229206" lon="8.1363657"><ele>345.0</ele><time>2026-04-04T12:28:02.94Z</time></trkpt><trkpt lat="44.5227837" lon="8.1361991"><ele>343.0</ele><time>2026-04-04T12:28:03.939Z</time></trkpt><trkpt lat="44.5226569" lon="8.1360331"><ele>343.0</ele><time>2026-04-04T12:28:04.939Z</time></trkpt><trkpt lat="44.5225489" lon="8.1358684"><ele>343.0</ele><time>2026-04-04T12:28:05.94Z</time></trkpt><trkpt lat="44.5224652" lon="8.13568"><ele>343.0</ele><time>2026-04-04T12:28:06.94Z</time></trkpt><trkpt lat="44.5224041" lon="8.1354537"><ele>346.3333333333333</ele><time>2026-04-04T12:28:07.94Z</time></trkpt><trkpt lat="44.5223574" lon="8.1351998"><ele>349.6666666666667</ele><time>2026-04-04T12:28:08.94Z</time></trkpt><trkpt lat="44.5223053" lon="8.1349234"><ele>353.0</ele><time>2026-04-04T12:28:09.939Z</time></trkpt><trkpt lat="44.5222584" lon="8.1346475"><ele>353.6666666666667</ele><time>2026-04-04T12:28:10.939Z</time></trkpt><trkpt lat="44.5222024" lon="8.1343637"><ele>354.3333333333333</ele><time>2026-04-04T12:28:11.94Z</time></trkpt><trkpt lat="44.5221434" lon="8.1340857"><ele>355.0</ele><time>2026-04-04T12:28:12.94Z</time></trkpt><trkpt lat="44.5220973" lon="8.1338153"><ele>351.0</ele><time>2026-04-04T12:28:13.939Z</time></trkpt><trkpt lat="44.5220481" lon="8.1335513"><ele>347.0</ele><time>2026-04-04T12:28:14.94Z</time></trkpt><trkpt lat="44.522002" lon="8.1332863"><ele>343.0</ele><time>2026-04-04T12:28:15.94Z</time></trkpt><trkpt lat="44.5219508" lon="8.133032"><ele>343.0</ele><time>2026-04-04T12:28:16.94Z</time></trkpt><trkpt lat="44.5219069" lon="8.132802"><ele>343.0</ele><time>2026-04-04T12:28:17.939Z</time></trkpt><trkpt lat="44.5218573" lon="8.1325824"><ele>343.0</ele><time>2026-04-04T12:28:18.939Z</time></trkpt><trkpt lat="44.5217791" lon="8.1323898"><ele>345.66666666666663</ele><time>2026-04-04T12:28:19.94Z</time></trkpt><trkpt lat="44.5216754" lon="8.132221"><ele>348.3333333333333</ele><time>2026-04-04T12:28:20.94Z</time></trkpt><trkpt lat="44.5215456" lon="8.1320877"><ele>351.0</ele><time>2026-04-04T12:28:21.94Z</time></trkpt><trkpt lat="44.5214008" lon="8.1319789"><ele>351.0</ele><time>2026-04-04T12:28:22.939Z</time></trkpt><trkpt lat="44.5212462" lon="8.1318831"><ele>351.0</ele><time>2026-04-04T12:28:23.94Z</time></trkpt><trkpt lat="44.5211064" lon="8.1317641"><ele>351.0</ele><time>2026-04-04T12:28:24.94Z</time></trkpt><trkpt lat="44.5209824" lon="8.1315872"><ele>351.3333333333333</ele><time>2026-04-04T12:28:25.94Z</time></trkpt><trkpt lat="44.5208713" lon="8.1313902"><ele>351.66666666666663</ele><time>2026-04-04T12:28:26.939Z</time></trkpt><trkpt lat="44.5207599" lon="8.1312026"><ele>352.0</ele><time>2026-04-04T12:28:27.939Z</time></trkpt><trkpt lat="44.5206332" lon="8.1310316"><ele>352.0</ele><time>2026-04-04T12:28:28.94Z</time></trkpt><trkpt lat="44.5204864" lon="8.1308995"><ele>352.0</ele><time>2026-04-04T12:28:29.939Z</time></trkpt><trkpt lat="44.5203115" lon="8.1307973"><ele>352.0</ele><time>2026-04-04T12:28:30.94Z</time></trkpt><trkpt lat="44.5201218" lon="8.1307349"><ele>355.0</ele><time>2026-04-04T12:28:31.939Z</time></trkpt><trkpt lat="44.5199278" lon="8.1307012"><ele>358.0</ele><time>2026-04-04T12:28:32.94Z</time></trkpt><trkpt lat="44.519722" lon="8.1306911"><ele>361.0</ele><time>2026-04-04T12:28:33.94Z</time></trkpt><trkpt lat="44.5194971" lon="8.130695"><ele>361.0</ele><time>2026-04-04T12:28:34.939Z</time></trkpt><trkpt lat="44.519278" lon="8.1307095"><ele>361.0</ele><time>2026-04-04T12:28:35.94Z</time></trkpt><trkpt lat="44.5190461" lon="8.1307047"><ele>361.0</ele><time>2026-04-04T12:28:36.939Z</time></trkpt><trkpt lat="44.5188094" lon="8.1306923"><ele>361.0</ele><time>2026-04-04T12:28:37.939Z</time></trkpt><trkpt lat="44.5185717" lon="8.1306906"><ele>361.5</ele><time>2026-04-04T12:28:38.94Z</time></trkpt><trkpt lat="44.5183372" lon="8.1306929"><ele>362.0</ele><time>2026-04-04T12:28:39.94Z</time></trkpt><trkpt lat="44.5181096" lon="8.130692"><ele>364.0</ele><time>2026-04-04T12:28:40.939Z</time></trkpt><trkpt lat="44.5178962" lon="8.1306989"><ele>366.0</ele><time>2026-04-04T12:28:41.94Z</time></trkpt><trkpt lat="44.5177003" lon="8.1307142"><ele>368.0</ele><time>2026-04-04T12:28:42.939Z</time></trkpt><trkpt lat="44.5175196" lon="8.1307368"><ele>366.0</ele><time>2026-04-04T12:28:43.94Z</time></trkpt><trkpt lat="44.5173388" lon="8.1307836"><ele>364.0</ele><time>2026-04-04T12:28:44.94Z</time></trkpt><trkpt lat="44.5171611" lon="8.1308726"><ele>362.0</ele><time>2026-04-04T12:28:45.94Z</time></trkpt><trkpt lat="44.5169895" lon="8.1310127"><ele>362.0</ele><time>2026-04-04T12:28:46.94Z</time></trkpt><trkpt lat="44.516814" lon="8.1311834"><ele>362.0</ele><time>2026-04-04T12:28:47.94Z</time></trkpt><trkpt lat="44.5166496" lon="8.1313663"><ele>362.0</ele><time>2026-04-04T12:28:48.94Z</time></trkpt><trkpt lat="44.516491" lon="8.1315652"><ele>365.33333333333337</ele><time>2026-04-04T12:28:49.94Z</time></trkpt><trkpt lat="44.5163414" lon="8.131786"><ele>368.6666666666667</ele><time>2026-04-04T12:28:50.94Z</time></trkpt><trkpt lat="44.5162115" lon="8.1320248"><ele>372.0</ele><time>2026-04-04T12:28:51.94Z</time></trkpt><trkpt lat="44.5160872" lon="8.1322827"><ele>367.0</ele><time>2026-04-04T12:28:52.94Z</time></trkpt><trkpt lat="44.5159672" lon="8.132552"><ele>362.0</ele><time>2026-04-04T12:28:53.939Z</time></trkpt><trkpt lat="44.5158444" lon="8.1328204"><ele>362.0</ele><time>2026-04-04T12:28:54.939Z</time></trkpt><trkpt lat="44.5157255" lon="8.1330743"><ele>362.0</ele><time>2026-04-04T12:28:55.939Z</time></trkpt><trkpt lat="44.5156144" lon="8.1333009"><ele>362.0</ele><time>2026-04-04T12:28:56.94Z</time></trkpt><trkpt lat="44.5155092" lon="8.1335175"><ele>363.33333333333337</ele><time>2026-04-04T12:28:57.94Z</time></trkpt><trkpt lat="44.5154105" lon="8.1337418"><ele>364.6666666666667</ele><time>2026-04-04T12:28:58.939Z</time></trkpt><trkpt lat="44.5153261" lon="8.1339711"><ele>366.0</ele><time>2026-04-04T12:28:59.94Z</time></trkpt><trkpt lat="44.5152557" lon="8.1342146"><ele>366.0</ele><time>2026-04-04T12:29:00.939Z</time></trkpt><trkpt lat="44.5151935" lon="8.1344341"><ele>366.0</ele><time>2026-04-04T12:29:01.94Z</time></trkpt><trkpt lat="44.5151413" lon="8.134646"><ele>366.0</ele><time>2026-04-04T12:29:02.939Z</time></trkpt><trkpt lat="44.5151043" lon="8.1348392"><ele>365.0</ele><time>2026-04-04T12:29:03.94Z</time></trkpt><trkpt lat="44.5150799" lon="8.1350157"><ele>364.0</ele><time>2026-04-04T12:29:04.94Z</time></trkpt><trkpt lat="44.5150826" lon="8.1351871"><ele>363.0</ele><time>2026-04-04T12:29:05.94Z</time></trkpt><trkpt lat="44.5151131" lon="8.1353521"><ele>362.0</ele><time>2026-04-04T12:29:06.94Z</time></trkpt><trkpt lat="44.5151437" lon="8.1355015"><ele>362.0</ele><time>2026-04-04T12:29:07.939Z</time></trkpt><trkpt lat="44.515165" lon="8.1356337"><ele>362.0</ele><time>2026-04-04T12:29:08.94Z</time></trkpt><trkpt lat="44.5151801" lon="8.1357612"><ele>362.0</ele><time>2026-04-04T12:29:09.94Z</time></trkpt><trkpt lat="44.5151768" lon="8.1358649"><ele>362.0</ele><time>2026-04-04T12:29:10.94Z</time></trkpt><trkpt lat="44.5151495" lon="8.1359491"><ele>362.0</ele><time>2026-04-04T12:29:11.94Z</time></trkpt><trkpt lat="44.5150498" lon="8.1360215"><ele>362.0</ele><time>2026-04-04T12:29:13.939Z</time></trkpt><trkpt lat="44.514925" lon="8.1360328"><ele>362.1666666666667</ele><time>2026-04-04T12:29:15.94Z</time></trkpt><trkpt lat="44.5148417" lon="8.1360032"><ele>362.33333333333337</ele><time>2026-04-04T12:29:16.939Z</time></trkpt><trkpt lat="44.5147712" lon="8.1359248"><ele>362.5</ele><time>2026-04-04T12:29:17.94Z</time></trkpt><trkpt lat="44.5146945" lon="8.1358604"><ele>362.6666666666667</ele><time>2026-04-04T12:29:18.939Z</time></trkpt><trkpt lat="44.5146039" lon="8.1357882"><ele>362.8333333333333</ele><time>2026-04-04T12:29:19.939Z</time></trkpt><trkpt lat="44.5145273" lon="8.1357627"><ele>363.0</ele><time>2026-04-04T12:29:20.94Z</time></trkpt><trkpt lat="44.5144586" lon="8.1357094"><ele>362.5</ele><time>2026-04-04T12:29:21.939Z</time></trkpt><trkpt lat="44.5144162" lon="8.1355666"><ele>362.0</ele><time>2026-04-04T12:29:22.939Z</time></trkpt><trkpt lat="44.5143865" lon="8.135391"><ele>361.5</ele><time>2026-04-04T12:29:23.94Z</time></trkpt><trkpt lat="44.5143385" lon="8.1351427"><ele>361.0</ele><time>2026-04-04T12:29:24.94Z</time></trkpt><trkpt lat="44.5142909" lon="8.1348273"><ele>361.0</ele><time>2026-04-04T12:29:25.94Z</time></trkpt><trkpt lat="44.5142219" lon="8.1345008"><ele>361.0</ele><time>2026-04-04T12:29:26.94Z</time></trkpt><trkpt lat="44.5141411" lon="8.134189"><ele>365.3333333333333</ele><time>2026-04-04T12:29:27.939Z</time></trkpt><trkpt lat="44.5140499" lon="8.1338722"><ele>369.6666666666667</ele><time>2026-04-04T12:29:28.939Z</time></trkpt><trkpt lat="44.5139672" lon="8.1336356"><ele>374.0</ele><time>2026-04-04T12:29:29.94Z</time></trkpt><trkpt lat="44.5138837" lon="8.1334368"><ele>374.0</ele><time>2026-04-04T12:29:30.94Z</time></trkpt><trkpt lat="44.5138003" lon="8.1332647"><ele>374.0</ele><time>2026-04-04T12:29:31.939Z</time></trkpt><trkpt lat="44.5137071" lon="8.1331098"><ele>374.0</ele><time>2026-04-04T12:29:32.939Z</time></trkpt><trkpt lat="44.51361" lon="8.1329557"><ele>374.0</ele><time>2026-04-04T12:29:33.94Z</time></trkpt><trkpt lat="44.5135229" lon="8.1327889"><ele>368.33333333333337</ele><time>2026-04-04T12:29:34.939Z</time></trkpt><trkpt lat="44.5134412" lon="8.1326096"><ele>362.6666666666667</ele><time>2026-04-04T12:29:35.94Z</time></trkpt><trkpt lat="44.5133661" lon="8.1324137"><ele>357.0</ele><time>2026-04-04T12:29:36.939Z</time></trkpt><trkpt lat="44.5133043" lon="8.1322026"><ele>357.0</ele><time>2026-04-04T12:29:37.94Z</time></trkpt><trkpt lat="44.5132417" lon="8.1319625"><ele>357.0</ele><time>2026-04-04T12:29:38.939Z</time></trkpt><trkpt lat="44.5131737" lon="8.1317205"><ele>357.0</ele><time>2026-04-04T12:29:39.94Z</time></trkpt><trkpt lat="44.5131154" lon="8.1314605"><ele>360.6666666666667</ele><time>2026-04-04T12:29:40.94Z</time></trkpt><trkpt lat="44.5130487" lon="8.1311972"><ele>364.33333333333337</ele><time>2026-04-04T12:29:41.939Z</time></trkpt><trkpt lat="44.5129706" lon="8.1309529"><ele>368.0</ele><time>2026-04-04T12:29:42.94Z</time></trkpt><trkpt lat="44.5128953" lon="8.1307078"><ele>356.6666666666667</ele><time>2026-04-04T12:29:43.94Z</time></trkpt><trkpt lat="44.5128304" lon="8.1304529"><ele>345.3333333333333</ele><time>2026-04-04T12:29:44.94Z</time></trkpt><trkpt lat="44.5127674" lon="8.1301914"><ele>334.0</ele><time>2026-04-04T12:29:45.94Z</time></trkpt><trkpt lat="44.5127245" lon="8.1299245"><ele>337.0</ele><time>2026-04-04T12:29:46.94Z</time></trkpt><trkpt lat="44.5126906" lon="8.1296435"><ele>340.0</ele><time>2026-04-04T12:29:47.94Z</time></trkpt><trkpt lat="44.5126625" lon="8.1293611"><ele>343.0</ele><time>2026-04-04T12:29:48.939Z</time></trkpt><trkpt lat="44.5126287" lon="8.1290751"><ele>346.66666666666663</ele><time>2026-04-04T12:29:49.94Z</time></trkpt><trkpt lat="44.5125859" lon="8.1287855"><ele>350.3333333333333</ele><time>2026-04-04T12:29:50.94Z</time></trkpt><trkpt lat="44.5125215" lon="8.1284925"><ele>354.0</ele><time>2026-04-04T12:29:51.94Z</time></trkpt><trkpt lat="44.5124291" lon="8.1282119"><ele>360.0</ele><time>2026-04-04T12:29:52.94Z</time></trkpt><trkpt lat="44.5123299" lon="8.1279353"><ele>366.0</ele><time>2026-04-04T12:29:53.939Z</time></trkpt><trkpt lat="44.5122287" lon="8.1276656"><ele>372.0</ele><time>2026-04-04T12:29:54.94Z</time></trkpt><trkpt lat="44.5121215" lon="8.127398"><ele>361.5</ele><time>2026-04-04T12:29:55.939Z</time></trkpt><trkpt lat="44.5120039" lon="8.1271327"><ele>351.0</ele><time>2026-04-04T12:29:56.939Z</time></trkpt><trkpt lat="44.5118767" lon="8.1268672"><ele>351.0</ele><time>2026-04-04T12:29:57.94Z</time></trkpt><trkpt lat="44.5117355" lon="8.1266377"><ele>351.0</ele><time>2026-04-04T12:29:58.94Z</time></trkpt><trkpt lat="44.5116044" lon="8.1264035"><ele>351.0</ele><time>2026-04-04T12:29:59.94Z</time></trkpt><trkpt lat="44.5114908" lon="8.1261825"><ele>353.6666666666667</ele><time>2026-04-04T12:30:00.94Z</time></trkpt><trkpt lat="44.5113747" lon="8.125991"><ele>356.33333333333337</ele><time>2026-04-04T12:30:01.939Z</time></trkpt><trkpt lat="44.5112654" lon="8.1258214"><ele>359.0</ele><time>2026-04-04T12:30:02.939Z</time></trkpt><trkpt lat="44.5111639" lon="8.1256523"><ele>359.0</ele><time>2026-04-04T12:30:03.94Z</time></trkpt><trkpt lat="44.5110549" lon="8.125511"><ele>359.0</ele><time>2026-04-04T12:30:04.94Z</time></trkpt><trkpt lat="44.5109266" lon="8.125418"><ele>359.0</ele><time>2026-04-04T12:30:05.939Z</time></trkpt><trkpt lat="44.5107716" lon="8.1253811"><ele>359.0</ele><time>2026-04-04T12:30:06.94Z</time></trkpt><trkpt lat="44.5105972" lon="8.1253891"><ele>359.0</ele><time>2026-04-04T12:30:07.939Z</time></trkpt><trkpt lat="44.5104075" lon="8.1253842"><ele>359.0</ele><time>2026-04-04T12:30:08.94Z</time></trkpt><trkpt lat="44.510217" lon="8.1253278"><ele>360.33333333333337</ele><time>2026-04-04T12:30:09.94Z</time></trkpt><trkpt lat="44.5100328" lon="8.1252176"><ele>361.6666666666667</ele><time>2026-04-04T12:30:10.94Z</time></trkpt><trkpt lat="44.5098453" lon="8.1250671"><ele>363.0</ele><time>2026-04-04T12:30:11.939Z</time></trkpt><trkpt lat="44.5096524" lon="8.1248648"><ele>357.5</ele><time>2026-04-04T12:30:12.94Z</time></trkpt><trkpt lat="44.5094491" lon="8.1246765"><ele>352.0</ele><time>2026-04-04T12:30:13.94Z</time></trkpt><trkpt lat="44.5092249" lon="8.1245411"><ele>352.0</ele><time>2026-04-04T12:30:14.94Z</time></trkpt><trkpt lat="44.5089885" lon="8.1244148"><ele>352.0</ele><time>2026-04-04T12:30:15.94Z</time></trkpt><trkpt lat="44.5087322" lon="8.1243084"><ele>351.0</ele><time>2026-04-04T12:30:16.94Z</time></trkpt><trkpt lat="44.5084557" lon="8.1242245"><ele>350.0</ele><time>2026-04-04T12:30:17.94Z</time></trkpt><trkpt lat="44.5081779" lon="8.1241405"><ele>360.0</ele><time>2026-04-04T12:30:18.94Z</time></trkpt><trkpt lat="44.5079136" lon="8.124053"><ele>370.0</ele><time>2026-04-04T12:30:19.94Z</time></trkpt><trkpt lat="44.5076604" lon="8.1239672"><ele>372.5</ele><time>2026-04-04T12:30:20.939Z</time></trkpt><trkpt lat="44.5074285" lon="8.123897"><ele>375.0</ele><time>2026-04-04T12:30:21.94Z</time></trkpt><trkpt lat="44.5071928" lon="8.1238264"><ele>374.5</ele><time>2026-04-04T12:30:22.94Z</time></trkpt><trkpt lat="44.5069514" lon="8.1237662"><ele>374.0</ele><time>2026-04-04T12:30:23.94Z</time></trkpt><trkpt lat="44.5067078" lon="8.1237107"><ele>374.0</ele><time>2026-04-04T12:30:24.94Z</time></trkpt><trkpt lat="44.5064644" lon="8.1236524"><ele>374.0</ele><time>2026-04-04T12:30:25.94Z</time></trkpt><trkpt lat="44.5062238" lon="8.1236019"><ele>377.0</ele><time>2026-04-04T12:30:26.94Z</time></trkpt><trkpt lat="44.5059949" lon="8.1235696"><ele>380.0</ele><time>2026-04-04T12:30:27.94Z</time></trkpt><trkpt lat="44.5057767" lon="8.1235318"><ele>380.0</ele><time>2026-04-04T12:30:28.939Z</time></trkpt><trkpt lat="44.5055628" lon="8.1235356"><ele>380.0</ele><time>2026-04-04T12:30:29.939Z</time></trkpt><trkpt lat="44.5053361" lon="8.1235583"><ele>380.0</ele><time>2026-04-04T12:30:30.94Z</time></trkpt><trkpt lat="44.5051053" lon="8.1236142"><ele>381.33333333333337</ele><time>2026-04-04T12:30:31.94Z</time></trkpt><trkpt lat="44.5048801" lon="8.1236757"><ele>382.6666666666667</ele><time>2026-04-04T12:30:32.939Z</time></trkpt><trkpt lat="44.5046639" lon="8.1237155"><ele>384.0</ele><time>2026-04-04T12:30:33.939Z</time></trkpt><trkpt lat="44.5044569" lon="8.1237671"><ele>386.0</ele><time>2026-04-04T12:30:34.939Z</time></trkpt><trkpt lat="44.5042545" lon="8.123823"><ele>388.0</ele><time>2026-04-04T12:30:35.938Z</time></trkpt><trkpt lat="44.5040578" lon="8.1239014"><ele>390.0</ele><time>2026-04-04T12:30:36.938Z</time></trkpt><trkpt lat="44.5038646" lon="8.1239849"><ele>383.6666666666667</ele><time>2026-04-04T12:30:37.939Z</time></trkpt><trkpt lat="44.5036689" lon="8.1240791"><ele>377.33333333333337</ele><time>2026-04-04T12:30:38.939Z</time></trkpt><trkpt lat="44.5034894" lon="8.1241783"><ele>371.0</ele><time>2026-04-04T12:30:39.939Z</time></trkpt><trkpt lat="44.5033144" lon="8.1242547"><ele>371.0</ele><time>2026-04-04T12:30:40.939Z</time></trkpt><trkpt lat="44.5031436" lon="8.1243132"><ele>371.0</ele><time>2026-04-04T12:30:41.938Z</time></trkpt><trkpt lat="44.5029775" lon="8.1243588"><ele>371.0</ele><time>2026-04-04T12:30:42.939Z</time></trkpt><trkpt lat="44.5028267" lon="8.1244062"><ele>371.25</ele><time>2026-04-04T12:30:43.939Z</time></trkpt><trkpt lat="44.5026841" lon="8.1244444"><ele>371.5</ele><time>2026-04-04T12:30:44.939Z</time></trkpt><trkpt lat="44.5025529" lon="8.1244738"><ele>371.75</ele><time>2026-04-04T12:30:45.939Z</time></trkpt><trkpt lat="44.502422" lon="8.1244734"><ele>372.0</ele><time>2026-04-04T12:30:46.938Z</time></trkpt><trkpt lat="44.5022895" lon="8.1244302"><ele>372.0</ele><time>2026-04-04T12:30:47.938Z</time></trkpt><trkpt lat="44.5021789" lon="8.1243404"><ele>372.0</ele><time>2026-04-04T12:30:48.938Z</time></trkpt><trkpt lat="44.5021031" lon="8.1241961"><ele>372.0</ele><time>2026-04-04T12:30:49.939Z</time></trkpt><trkpt lat="44.5020651" lon="8.1240177"><ele>372.0</ele><time>2026-04-04T12:30:50.939Z</time></trkpt><trkpt lat="44.5020657" lon="8.1238261"><ele>374.0</ele><time>2026-04-04T12:30:51.939Z</time></trkpt><trkpt lat="44.5021129" lon="8.1236212"><ele>376.0</ele><time>2026-04-04T12:30:52.939Z</time></trkpt><trkpt lat="44.5022029" lon="8.1233897"><ele>378.0</ele><time>2026-04-04T12:30:53.939Z</time></trkpt><trkpt lat="44.5023299" lon="8.1231042"><ele>372.3333333333333</ele><time>2026-04-04T12:30:54.939Z</time></trkpt><trkpt lat="44.502454" lon="8.1228476"><ele>366.66666666666663</ele><time>2026-04-04T12:30:55.939Z</time></trkpt><trkpt lat="44.5025517" lon="8.1225759"><ele>361.0</ele><time>2026-04-04T12:30:56.939Z</time></trkpt><trkpt lat="44.5026192" lon="8.1223204"><ele>358.3333333333333</ele><time>2026-04-04T12:30:57.939Z</time></trkpt><trkpt lat="44.5026515" lon="8.1220221"><ele>355.6666666666667</ele><time>2026-04-04T12:30:58.939Z</time></trkpt><trkpt lat="44.5026686" lon="8.1217343"><ele>353.0</ele><time>2026-04-04T12:30:59.939Z</time></trkpt><trkpt lat="44.5026597" lon="8.1214407"><ele>353.0</ele><time>2026-04-04T12:31:00.939Z</time></trkpt><trkpt lat="44.5026353" lon="8.1211598"><ele>353.0</ele><time>2026-04-04T12:31:01.939Z</time></trkpt><trkpt lat="44.5025878" lon="8.1208868"><ele>353.0</ele><time>2026-04-04T12:31:02.939Z</time></trkpt><trkpt lat="44.5025119" lon="8.1206125"><ele>358.5</ele><time>2026-04-04T12:31:03.939Z</time></trkpt><trkpt lat="44.5024031" lon="8.1203308"><ele>364.0</ele><time>2026-04-04T12:31:04.939Z</time></trkpt><trkpt lat="44.5022842" lon="8.1200571"><ele>366.0</ele><time>2026-04-04T12:31:05.939Z</time></trkpt><trkpt lat="44.5021674" lon="8.1197993"><ele>368.0</ele><time>2026-04-04T12:31:06.939Z</time></trkpt><trkpt lat="44.50206" lon="8.1195631"><ele>370.0</ele><time>2026-04-04T12:31:07.939Z</time></trkpt><trkpt lat="44.5019374" lon="8.1193375"><ele>365.3333333333333</ele><time>2026-04-04T12:31:08.939Z</time></trkpt><trkpt lat="44.5018105" lon="8.1191108"><ele>360.6666666666667</ele><time>2026-04-04T12:31:09.939Z</time></trkpt><trkpt lat="44.5016687" lon="8.1188912"><ele>356.0</ele><time>2026-04-04T12:31:10.938Z</time></trkpt><trkpt lat="44.5014903" lon="8.1186913"><ele>356.0</ele><time>2026-04-04T12:31:11.939Z</time></trkpt><trkpt lat="44.5012985" lon="8.1184854"><ele>356.0</ele><time>2026-04-04T12:31:12.939Z</time></trkpt><trkpt lat="44.5011219" lon="8.1183006"><ele>354.6666666666667</ele><time>2026-04-04T12:31:13.939Z</time></trkpt><trkpt lat="44.5009699" lon="8.1181343"><ele>353.3333333333333</ele><time>2026-04-04T12:31:14.938Z</time></trkpt><trkpt lat="44.5008285" lon="8.1179667"><ele>352.0</ele><time>2026-04-04T12:31:15.938Z</time></trkpt><trkpt lat="44.50071" lon="8.1177704"><ele>352.0</ele><time>2026-04-04T12:31:16.939Z</time></trkpt><trkpt lat="44.5006093" lon="8.1175507"><ele>352.0</ele><time>2026-04-04T12:31:17.939Z</time></trkpt><trkpt lat="44.500509" lon="8.1173456"><ele>352.0</ele><time>2026-04-04T12:31:18.939Z</time></trkpt><trkpt lat="44.5004026" lon="8.1171687"><ele>351.66666666666663</ele><time>2026-04-04T12:31:19.938Z</time></trkpt><trkpt lat="44.5002659" lon="8.1170237"><ele>351.3333333333333</ele><time>2026-04-04T12:31:20.939Z</time></trkpt><trkpt lat="44.5000998" lon="8.1169152"><ele>351.0</ele><time>2026-04-04T12:31:21.938Z</time></trkpt><trkpt lat="44.4999291" lon="8.1168328"><ele>351.0</ele><time>2026-04-04T12:31:22.939Z</time></trkpt><trkpt lat="44.4997602" lon="8.1167658"><ele>351.0</ele><time>2026-04-04T12:31:23.939Z</time></trkpt><trkpt lat="44.4995984" lon="8.116704"><ele>351.0</ele><time>2026-04-04T12:31:24.938Z</time></trkpt><trkpt lat="44.4994557" lon="8.1166302"><ele>350.0</ele><time>2026-04-04T12:31:25.938Z</time></trkpt><trkpt lat="44.4993306" lon="8.1165474"><ele>349.0</ele><time>2026-04-04T12:31:26.939Z</time></trkpt><trkpt lat="44.4992257" lon="8.1164392"><ele>348.0</ele><time>2026-04-04T12:31:27.939Z</time></trkpt><trkpt lat="44.4991262" lon="8.1163419"><ele>347.0</ele><time>2026-04-04T12:31:28.939Z</time></trkpt><trkpt lat="44.4990133" lon="8.1162884"><ele>347.0</ele><time>2026-04-04T12:31:29.939Z</time></trkpt><trkpt lat="44.498887" lon="8.1162929"><ele>347.0</ele><time>2026-04-04T12:31:30.939Z</time></trkpt><trkpt lat="44.4987403" lon="8.1163545"><ele>347.0</ele><time>2026-04-04T12:31:31.939Z</time></trkpt><trkpt lat="44.49856" lon="8.116406"><ele>347.33333333333337</ele><time>2026-04-04T12:31:32.938Z</time></trkpt><trkpt lat="44.4983517" lon="8.1164781"><ele>347.6666666666667</ele><time>2026-04-04T12:31:33.939Z</time></trkpt><trkpt lat="44.4981322" lon="8.1164935"><ele>348.0</ele><time>2026-04-04T12:31:34.939Z</time></trkpt><trkpt lat="44.4979115" lon="8.1164947"><ele>348.0</ele><time>2026-04-04T12:31:35.939Z</time></trkpt><trkpt lat="44.4976883" lon="8.1165225"><ele>348.0</ele><time>2026-04-04T12:31:36.938Z</time></trkpt><trkpt lat="44.4974681" lon="8.1165825"><ele>348.0</ele><time>2026-04-04T12:31:37.939Z</time></trkpt><trkpt lat="44.4972552" lon="8.116655"><ele>349.0</ele><time>2026-04-04T12:31:38.938Z</time></trkpt><trkpt lat="44.4970427" lon="8.1167292"><ele>350.0</ele><time>2026-04-04T12:31:39.939Z</time></trkpt><trkpt lat="44.4968273" lon="8.1168204"><ele>351.0</ele><time>2026-04-04T12:31:40.939Z</time></trkpt><trkpt lat="44.4966113" lon="8.1169239"><ele>351.0</ele><time>2026-04-04T12:31:41.938Z</time></trkpt><trkpt lat="44.4964057" lon="8.1170362"><ele>351.0</ele><time>2026-04-04T12:31:42.939Z</time></trkpt><trkpt lat="44.4962134" lon="8.1171393"><ele>351.0</ele><time>2026-04-04T12:31:43.939Z</time></trkpt><trkpt lat="44.4960338" lon="8.1172426"><ele>355.0</ele><time>2026-04-04T12:31:44.939Z</time></trkpt><trkpt lat="44.4958583" lon="8.1173436"><ele>359.0</ele><time>2026-04-04T12:31:45.938Z</time></trkpt><trkpt lat="44.4956754" lon="8.1174348"><ele>363.0</ele><time>2026-04-04T12:31:46.939Z</time></trkpt><trkpt lat="44.4954944" lon="8.1175196"><ele>355.0</ele><time>2026-04-04T12:31:47.938Z</time></trkpt><trkpt lat="44.4953006" lon="8.1175741"><ele>347.0</ele><time>2026-04-04T12:31:48.939Z</time></trkpt><trkpt lat="44.4950996" lon="8.1176039"><ele>339.0</ele><time>2026-04-04T12:31:49.939Z</time></trkpt><trkpt lat="44.4948982" lon="8.1176026"><ele>339.0</ele><time>2026-04-04T12:31:50.938Z</time></trkpt><trkpt lat="44.4946937" lon="8.1175802"><ele>339.0</ele><time>2026-04-04T12:31:51.938Z</time></trkpt><trkpt lat="44.4944905" lon="8.1175473"><ele>339.0</ele><time>2026-04-04T12:31:52.938Z</time></trkpt><trkpt lat="44.4942952" lon="8.1175062"><ele>339.0</ele><time>2026-04-04T12:31:53.939Z</time></trkpt><trkpt lat="44.4940964" lon="8.1174593"><ele>339.0</ele><time>2026-04-04T12:31:54.939Z</time></trkpt><trkpt lat="44.4938947" lon="8.117416"><ele>339.0</ele><time>2026-04-04T12:31:55.938Z</time></trkpt><trkpt lat="44.4936881" lon="8.117389"><ele>341.3333333333333</ele><time>2026-04-04T12:31:56.938Z</time></trkpt><trkpt lat="44.4934843" lon="8.117347"><ele>343.66666666666663</ele><time>2026-04-04T12:31:57.939Z</time></trkpt><trkpt lat="44.4932886" lon="8.1172886"><ele>346.0</ele><time>2026-04-04T12:31:58.938Z</time></trkpt><trkpt lat="44.4931012" lon="8.1172077"><ele>343.66666666666663</ele><time>2026-04-04T12:31:59.938Z</time></trkpt><trkpt lat="44.4929157" lon="8.1171241"><ele>341.3333333333333</ele><time>2026-04-04T12:32:00.939Z</time></trkpt><trkpt lat="44.4927286" lon="8.1170435"><ele>339.0</ele><time>2026-04-04T12:32:01.939Z</time></trkpt><trkpt lat="44.4925491" lon="8.1169657"><ele>339.0</ele><time>2026-04-04T12:32:02.939Z</time></trkpt><trkpt lat="44.4923718" lon="8.1168864"><ele>339.0</ele><time>2026-04-04T12:32:03.939Z</time></trkpt><trkpt lat="44.4921918" lon="8.1168091"><ele>339.0</ele><time>2026-04-04T12:32:04.939Z</time></trkpt><trkpt lat="44.4920123" lon="8.1167336"><ele>336.3333333333333</ele><time>2026-04-04T12:32:05.938Z</time></trkpt><trkpt lat="44.4918267" lon="8.1166539"><ele>333.66666666666663</ele><time>2026-04-04T12:32:06.938Z</time></trkpt><trkpt lat="44.4916383" lon="8.1165799"><ele>331.0</ele><time>2026-04-04T12:32:07.939Z</time></trkpt><trkpt lat="44.4914547" lon="8.1165053"><ele>330.3333333333333</ele><time>2026-04-04T12:32:08.939Z</time></trkpt><trkpt lat="44.4912732" lon="8.116428"><ele>329.6666666666667</ele><time>2026-04-04T12:32:09.939Z</time></trkpt><trkpt lat="44.4910899" lon="8.116344"><ele>329.0</ele><time>2026-04-04T12:32:10.939Z</time></trkpt><trkpt lat="44.4909077" lon="8.1162637"><ele>335.6666666666667</ele><time>2026-04-04T12:32:11.939Z</time></trkpt><trkpt lat="44.4907246" lon="8.11618"><ele>342.3333333333333</ele><time>2026-04-04T12:32:12.939Z</time></trkpt><trkpt lat="44.4905377" lon="8.1160915"><ele>349.0</ele><time>2026-04-04T12:32:13.939Z</time></trkpt><trkpt lat="44.4903532" lon="8.1159989"><ele>364.66666666666663</ele><time>2026-04-04T12:32:14.939Z</time></trkpt><trkpt lat="44.4901675" lon="8.1159066"><ele>380.3333333333333</ele><time>2026-04-04T12:32:15.938Z</time></trkpt><trkpt lat="44.4899813" lon="8.1158244"><ele>396.0</ele><time>2026-04-04T12:32:16.938Z</time></trkpt><trkpt lat="44.4897949" lon="8.1157394"><ele>347.0</ele><time>2026-04-04T12:32:17.939Z</time></trkpt><trkpt lat="44.487275" lon="8.116095"><ele>344.0</ele><time>2026-04-04T12:32:30.972Z</time></trkpt><trkpt lat="44.4870403" lon="8.1161683"><ele>341.0</ele><time>2026-04-04T12:32:31.973Z</time></trkpt><trkpt lat="44.4868334" lon="8.1162264"><ele>341.0</ele><time>2026-04-04T12:32:32.973Z</time></trkpt><trkpt lat="44.4866383" lon="8.116323"><ele>341.0</ele><time>2026-04-04T12:32:33.973Z</time></trkpt><trkpt lat="44.4864352" lon="8.1164187"><ele>341.0</ele><time>2026-04-04T12:32:34.973Z</time></trkpt><trkpt lat="44.4862205" lon="8.1164965"><ele>343.0</ele><time>2026-04-04T12:32:35.973Z</time></trkpt><trkpt lat="44.486012" lon="8.1165756"><ele>345.0</ele><time>2026-04-04T12:32:36.973Z</time></trkpt><trkpt lat="44.4857945" lon="8.1166509"><ele>347.0</ele><time>2026-04-04T12:32:37.973Z</time></trkpt><trkpt lat="44.4855605" lon="8.1167194"><ele>347.0</ele><time>2026-04-04T12:32:38.973Z</time></trkpt><trkpt lat="44.4853086" lon="8.1167898"><ele>347.0</ele><time>2026-04-04T12:32:39.973Z</time></trkpt><trkpt lat="44.4850763" lon="8.116858"><ele>347.0</ele><time>2026-04-04T12:32:40.973Z</time></trkpt><trkpt lat="44.4848562" lon="8.1169132"><ele>347.0</ele><time>2026-04-04T12:32:41.973Z</time></trkpt><trkpt lat="44.4846462" lon="8.1169654"><ele>347.0</ele><time>2026-04-04T12:32:42.973Z</time></trkpt><trkpt lat="44.4844286" lon="8.1170174"><ele>347.33333333333337</ele><time>2026-04-04T12:32:43.972Z</time></trkpt><trkpt lat="44.4842317" lon="8.1170661"><ele>347.6666666666667</ele><time>2026-04-04T12:32:44.972Z</time></trkpt><trkpt lat="44.4840468" lon="8.1170946"><ele>348.0</ele><time>2026-04-04T12:32:45.972Z</time></trkpt><trkpt lat="44.4838694" lon="8.1171058"><ele>349.3333333333333</ele><time>2026-04-04T12:32:46.973Z</time></trkpt><trkpt lat="44.4836864" lon="8.1170894"><ele>350.66666666666663</ele><time>2026-04-04T12:32:47.973Z</time></trkpt><trkpt lat="44.4835012" lon="8.1170501"><ele>352.0</ele><time>2026-04-04T12:32:48.972Z</time></trkpt><trkpt lat="44.4833151" lon="8.1169919"><ele>352.0</ele><time>2026-04-04T12:32:49.973Z</time></trkpt><trkpt lat="44.4831444" lon="8.1169216"><ele>352.0</ele><time>2026-04-04T12:32:50.973Z</time></trkpt><trkpt lat="44.4829818" lon="8.1168438"><ele>352.0</ele><time>2026-04-04T12:32:51.972Z</time></trkpt><trkpt lat="44.482827" lon="8.1167496"><ele>352.0</ele><time>2026-04-04T12:32:52.973Z</time></trkpt><trkpt lat="44.4826775" lon="8.1166263"><ele>352.0</ele><time>2026-04-04T12:32:53.973Z</time></trkpt><trkpt lat="44.4825289" lon="8.1164782"><ele>352.0</ele><time>2026-04-04T12:32:54.973Z</time></trkpt><trkpt lat="44.482391" lon="8.1162989"><ele>352.0</ele><time>2026-04-04T12:32:55.973Z</time></trkpt><trkpt lat="44.4822615" lon="8.1161094"><ele>352.0</ele><time>2026-04-04T12:32:56.972Z</time></trkpt><trkpt lat="44.482135" lon="8.1159294"><ele>352.0</ele><time>2026-04-04T12:32:57.973Z</time></trkpt><trkpt lat="44.4820094" lon="8.1157517"><ele>352.0</ele><time>2026-04-04T12:32:58.973Z</time></trkpt><trkpt lat="44.4818843" lon="8.1155769"><ele>352.0</ele><time>2026-04-04T12:32:59.973Z</time></trkpt><trkpt lat="44.4817598" lon="8.1154099"><ele>352.0</ele><time>2026-04-04T12:33:00.973Z</time></trkpt><trkpt lat="44.4816282" lon="8.1152428"><ele>352.0</ele><time>2026-04-04T12:33:01.972Z</time></trkpt><trkpt lat="44.4814845" lon="8.115076"><ele>352.0</ele><time>2026-04-04T12:33:02.973Z</time></trkpt><trkpt lat="44.4813251" lon="8.1149407"><ele>352.0</ele><time>2026-04-04T12:33:03.973Z</time></trkpt><trkpt lat="44.4811533" lon="8.1148248"><ele>350.3333333333333</ele><time>2026-04-04T12:33:04.973Z</time></trkpt><trkpt lat="44.4809736" lon="8.1147269"><ele>348.6666666666667</ele><time>2026-04-04T12:33:05.973Z</time></trkpt><trkpt lat="44.4807862" lon="8.1146484"><ele>347.0</ele><time>2026-04-04T12:33:06.972Z</time></trkpt><trkpt lat="44.4806058" lon="8.1145866"><ele>349.6666666666667</ele><time>2026-04-04T12:33:07.973Z</time></trkpt><trkpt lat="44.480424" lon="8.1145207"><ele>352.3333333333333</ele><time>2026-04-04T12:33:08.973Z</time></trkpt><trkpt lat="44.4802548" lon="8.1144497"><ele>355.0</ele><time>2026-04-04T12:33:09.972Z</time></trkpt><trkpt lat="44.4800829" lon="8.1143589"><ele>355.0</ele><time>2026-04-04T12:33:10.973Z</time></trkpt><trkpt lat="44.4799144" lon="8.1142572"><ele>355.0</ele><time>2026-04-04T12:33:11.973Z</time></trkpt><trkpt lat="44.47976" lon="8.1141473"><ele>355.0</ele><time>2026-04-04T12:33:12.972Z</time></trkpt><trkpt lat="44.4796138" lon="8.1140374"><ele>355.66666666666663</ele><time>2026-04-04T12:33:13.973Z</time></trkpt><trkpt lat="44.4794751" lon="8.1139305"><ele>356.3333333333333</ele><time>2026-04-04T12:33:14.973Z</time></trkpt><trkpt lat="44.4793455" lon="8.113793"><ele>357.0</ele><time>2026-04-04T12:33:15.972Z</time></trkpt><trkpt lat="44.4792331" lon="8.1136309"><ele>357.0</ele><time>2026-04-04T12:33:16.972Z</time></trkpt><trkpt lat="44.4791334" lon="8.1134712"><ele>357.0</ele><time>2026-04-04T12:33:17.973Z</time></trkpt><trkpt lat="44.4790308" lon="8.1133333"><ele>357.0</ele><time>2026-04-04T12:33:18.973Z</time></trkpt><trkpt lat="44.4789241" lon="8.1132296"><ele>357.0</ele><time>2026-04-04T12:33:19.973Z</time></trkpt><trkpt lat="44.4788078" lon="8.1131579"><ele>356.75</ele><time>2026-04-04T12:33:20.973Z</time></trkpt><trkpt lat="44.4786734" lon="8.1131338"><ele>356.5</ele><time>2026-04-04T12:33:21.973Z</time></trkpt><trkpt lat="44.4785334" lon="8.1131664"><ele>356.25</ele><time>2026-04-04T12:33:22.973Z</time></trkpt><trkpt lat="44.4783889" lon="8.1132542"><ele>356.0</ele><time>2026-04-04T12:33:23.973Z</time></trkpt><trkpt lat="44.4782506" lon="8.1133903"><ele>356.0</ele><time>2026-04-04T12:33:24.973Z</time></trkpt><trkpt lat="44.4781073" lon="8.1135586"><ele>356.0</ele><time>2026-04-04T12:33:25.973Z</time></trkpt><trkpt lat="44.4779615" lon="8.1137243"><ele>356.0</ele><time>2026-04-04T12:33:26.972Z</time></trkpt><trkpt lat="44.4778108" lon="8.1138819"><ele>355.6666666666667</ele><time>2026-04-04T12:33:27.973Z</time></trkpt><trkpt lat="44.4776437" lon="8.1140347"><ele>355.3333333333333</ele><time>2026-04-04T12:33:28.972Z</time></trkpt><trkpt lat="44.4774661" lon="8.1142024"><ele>355.0</ele><time>2026-04-04T12:33:29.973Z</time></trkpt><trkpt lat="44.4772724" lon="8.114392"><ele>350.5</ele><time>2026-04-04T12:33:30.973Z</time></trkpt><trkpt lat="44.4770602" lon="8.1145908"><ele>346.0</ele><time>2026-04-04T12:33:31.973Z</time></trkpt><trkpt lat="44.4768406" lon="8.1147861"><ele>353.5</ele><time>2026-04-04T12:33:32.973Z</time></trkpt><trkpt lat="44.4766374" lon="8.1149746"><ele>361.0</ele><time>2026-04-04T12:33:33.972Z</time></trkpt><trkpt lat="44.4764412" lon="8.1151658"><ele>352.5</ele><time>2026-04-04T12:33:34.973Z</time></trkpt><trkpt lat="44.4762638" lon="8.1153566"><ele>344.0</ele><time>2026-04-04T12:33:35.972Z</time></trkpt><trkpt lat="44.4760767" lon="8.1155541"><ele>352.5</ele><time>2026-04-04T12:33:36.973Z</time></trkpt><trkpt lat="44.4758894" lon="8.1157479"><ele>361.0</ele><time>2026-04-04T12:33:37.973Z</time></trkpt><trkpt lat="44.4756903" lon="8.1159339"><ele>361.0</ele><time>2026-04-04T12:33:38.973Z</time></trkpt><trkpt lat="44.4754964" lon="8.1161329"><ele>361.0</ele><time>2026-04-04T12:33:39.973Z</time></trkpt><trkpt lat="44.4753046" lon="8.1163381"><ele>360.5</ele><time>2026-04-04T12:33:40.973Z</time></trkpt><trkpt lat="44.4751281" lon="8.1165485"><ele>360.0</ele><time>2026-04-04T12:33:41.972Z</time></trkpt><trkpt lat="44.4749457" lon="8.1167505"><ele>360.0</ele><time>2026-04-04T12:33:42.973Z</time></trkpt><trkpt lat="44.4747632" lon="8.1169541"><ele>360.0</ele><time>2026-04-04T12:33:43.973Z</time></trkpt><trkpt lat="44.4745743" lon="8.1171476"><ele>360.0</ele><time>2026-04-04T12:33:44.972Z</time></trkpt><trkpt lat="44.474371" lon="8.1173196"><ele>360.0</ele><time>2026-04-04T12:33:45.972Z</time></trkpt><trkpt lat="44.4741637" lon="8.1174812"><ele>360.0</ele><time>2026-04-04T12:33:46.972Z</time></trkpt><trkpt lat="44.4739612" lon="8.1176075"><ele>360.0</ele><time>2026-04-04T12:33:47.972Z</time></trkpt><trkpt lat="44.4737609" lon="8.1177245"><ele>360.0</ele><time>2026-04-04T12:33:48.973Z</time></trkpt><trkpt lat="44.4735603" lon="8.1178548"><ele>356.0</ele><time>2026-04-04T12:33:49.973Z</time></trkpt><trkpt lat="44.4733735" lon="8.1179838"><ele>352.0</ele><time>2026-04-04T12:33:50.972Z</time></trkpt><trkpt lat="44.4731886" lon="8.1181046"><ele>348.0</ele><time>2026-04-04T12:33:51.973Z</time></trkpt><trkpt lat="44.473017" lon="8.118206"><ele>352.3333333333333</ele><time>2026-04-04T12:33:52.973Z</time></trkpt><trkpt lat="44.4728463" lon="8.1183054"><ele>356.66666666666663</ele><time>2026-04-04T12:33:53.972Z</time></trkpt><trkpt lat="44.4726742" lon="8.1184017"><ele>361.0</ele><time>2026-04-04T12:33:54.972Z</time></trkpt><trkpt lat="44.472499" lon="8.1185026"><ele>361.0</ele><time>2026-04-04T12:33:55.973Z</time></trkpt><trkpt lat="44.4723117" lon="8.11859"><ele>361.0</ele><time>2026-04-04T12:33:56.973Z</time></trkpt><trkpt lat="44.4720833" lon="8.1185869"><ele>361.0</ele><time>2026-04-04T12:33:57.973Z</time></trkpt><trkpt lat="44.4718609" lon="8.1185321"><ele>363.0</ele><time>2026-04-04T12:33:58.973Z</time></trkpt><trkpt lat="44.4716703" lon="8.1184535"><ele>365.0</ele><time>2026-04-04T12:33:59.973Z</time></trkpt><trkpt lat="44.4714828" lon="8.1183701"><ele>367.0</ele><time>2026-04-04T12:34:00.973Z</time></trkpt><trkpt lat="44.4712976" lon="8.1182123"><ele>362.3333333333333</ele><time>2026-04-04T12:34:01.973Z</time></trkpt><trkpt lat="44.4711192" lon="8.1180711"><ele>357.6666666666667</ele><time>2026-04-04T12:34:02.973Z</time></trkpt><trkpt lat="44.4709447" lon="8.1179227"><ele>353.0</ele><time>2026-04-04T12:34:03.973Z</time></trkpt><trkpt lat="44.4707636" lon="8.1178051"><ele>353.0</ele><time>2026-04-04T12:34:04.972Z</time></trkpt><trkpt lat="44.4705689" lon="8.1177303"><ele>353.0</ele><time>2026-04-04T12:34:05.973Z</time></trkpt><trkpt lat="44.4703665" lon="8.1176908"><ele>353.0</ele><time>2026-04-04T12:34:06.973Z</time></trkpt><trkpt lat="44.4701851" lon="8.1176624"><ele>356.33333333333337</ele><time>2026-04-04T12:34:07.972Z</time></trkpt><trkpt lat="44.4700165" lon="8.1176226"><ele>359.6666666666667</ele><time>2026-04-04T12:34:08.972Z</time></trkpt><trkpt lat="44.4698116" lon="8.1175624"><ele>363.0</ele><time>2026-04-04T12:34:09.973Z</time></trkpt><trkpt lat="44.4696252" lon="8.1174695"><ele>360.0</ele><time>2026-04-04T12:34:10.972Z</time></trkpt><trkpt lat="44.4694524" lon="8.1173405"><ele>357.0</ele><time>2026-04-04T12:34:11.973Z</time></trkpt><trkpt lat="44.4692886" lon="8.1172188"><ele>354.0</ele><time>2026-04-04T12:34:12.973Z</time></trkpt><trkpt lat="44.4691262" lon="8.1171142"><ele>354.0</ele><time>2026-04-04T12:34:13.973Z</time></trkpt><trkpt lat="44.468963" lon="8.1170056"><ele>354.0</ele><time>2026-04-04T12:34:14.973Z</time></trkpt><trkpt lat="44.4687982" lon="8.1169204"><ele>354.0</ele><time>2026-04-04T12:34:15.973Z</time></trkpt><trkpt lat="44.4686319" lon="8.1168526"><ele>356.6666666666667</ele><time>2026-04-04T12:34:16.973Z</time></trkpt><trkpt lat="44.4684612" lon="8.1167815"><ele>359.33333333333337</ele><time>2026-04-04T12:34:17.973Z</time></trkpt><trkpt lat="44.4683022" lon="8.1167126"><ele>362.0</ele><time>2026-04-04T12:34:18.973Z</time></trkpt><trkpt lat="44.4681478" lon="8.1166534"><ele>362.0</ele><time>2026-04-04T12:34:19.973Z</time></trkpt><trkpt lat="44.4680109" lon="8.1165847"><ele>362.0</ele><time>2026-04-04T12:34:20.972Z</time></trkpt><trkpt lat="44.4678878" lon="8.1165186"><ele>362.0</ele><time>2026-04-04T12:34:21.973Z</time></trkpt><trkpt lat="44.4677717" lon="8.1164582"><ele>362.0</ele><time>2026-04-04T12:34:22.973Z</time></trkpt><trkpt lat="44.4676569" lon="8.1163957"><ele>359.25</ele><time>2026-04-04T12:34:23.973Z</time></trkpt><trkpt lat="44.4675366" lon="8.1163229"><ele>356.5</ele><time>2026-04-04T12:34:24.973Z</time></trkpt><trkpt lat="44.467411" lon="8.1162547"><ele>353.75</ele><time>2026-04-04T12:34:25.973Z</time></trkpt><trkpt lat="44.4672706" lon="8.1161748"><ele>351.0</ele><time>2026-04-04T12:34:26.973Z</time></trkpt><trkpt lat="44.4671254" lon="8.1160886"><ele>355.0</ele><time>2026-04-04T12:34:27.973Z</time></trkpt><trkpt lat="44.4669752" lon="8.1159957"><ele>359.0</ele><time>2026-04-04T12:34:28.973Z</time></trkpt><trkpt lat="44.4668192" lon="8.1159085"><ele>363.0</ele><time>2026-04-04T12:34:29.973Z</time></trkpt><trkpt lat="44.4666629" lon="8.1158222"><ele>361.6666666666667</ele><time>2026-04-04T12:34:30.973Z</time></trkpt><trkpt lat="44.4665151" lon="8.1157316"><ele>360.33333333333337</ele><time>2026-04-04T12:34:31.973Z</time></trkpt><trkpt lat="44.4663667" lon="8.1156463"><ele>359.0</ele><time>2026-04-04T12:34:32.972Z</time></trkpt><trkpt lat="44.4662213" lon="8.115557"><ele>359.0</ele><time>2026-04-04T12:34:33.972Z</time></trkpt><trkpt lat="44.4660799" lon="8.1154659"><ele>359.0</ele><time>2026-04-04T12:34:34.972Z</time></trkpt><trkpt lat="44.4659409" lon="8.115379"><ele>359.0</ele><time>2026-04-04T12:34:35.972Z</time></trkpt><trkpt lat="44.4657933" lon="8.1152946"><ele>359.0</ele><time>2026-04-04T12:34:36.973Z</time></trkpt><trkpt lat="44.4656409" lon="8.1152077"><ele>359.0</ele><time>2026-04-04T12:34:37.973Z</time></trkpt><trkpt lat="44.4654873" lon="8.1151163"><ele>359.0</ele><time>2026-04-04T12:34:38.973Z</time></trkpt><trkpt lat="44.46533" lon="8.1150151"><ele>359.6666666666667</ele><time>2026-04-04T12:34:39.973Z</time></trkpt><trkpt lat="44.4651804" lon="8.1149215"><ele>360.3333333333333</ele><time>2026-04-04T12:34:40.972Z</time></trkpt><trkpt lat="44.4650312" lon="8.1148392"><ele>361.0</ele><time>2026-04-04T12:34:41.973Z</time></trkpt><trkpt lat="44.4648828" lon="8.1147623"><ele>357.3333333333333</ele><time>2026-04-04T12:34:42.973Z</time></trkpt><trkpt lat="44.4647233" lon="8.1146973"><ele>353.6666666666667</ele><time>2026-04-04T12:34:43.973Z</time></trkpt><trkpt lat="44.4645676" lon="8.114652"><ele>350.0</ele><time>2026-04-04T12:34:44.973Z</time></trkpt><trkpt lat="44.4644091" lon="8.1146366"><ele>350.0</ele><time>2026-04-04T12:34:45.973Z</time></trkpt><trkpt lat="44.4642479" lon="8.1146658"><ele>350.0</ele><time>2026-04-04T12:34:46.973Z</time></trkpt><trkpt lat="44.4640865" lon="8.1147507"><ele>350.0</ele><time>2026-04-04T12:34:47.972Z</time></trkpt><trkpt lat="44.4639289" lon="8.1148904"><ele>350.0</ele><time>2026-04-04T12:34:48.973Z</time></trkpt><trkpt lat="44.4637927" lon="8.115072"><ele>350.0</ele><time>2026-04-04T12:34:49.973Z</time></trkpt><trkpt lat="44.4636846" lon="8.1152985"><ele>350.0</ele><time>2026-04-04T12:34:50.973Z</time></trkpt><trkpt lat="44.4635996" lon="8.1155588"><ele>350.6666666666667</ele><time>2026-04-04T12:34:51.972Z</time></trkpt><trkpt lat="44.4635224" lon="8.1158437"><ele>351.3333333333333</ele><time>2026-04-04T12:34:52.973Z</time></trkpt><trkpt lat="44.4634595" lon="8.1161354"><ele>352.0</ele><time>2026-04-04T12:34:53.973Z</time></trkpt><trkpt lat="44.4633978" lon="8.1164396"><ele>352.3333333333333</ele><time>2026-04-04T12:34:54.973Z</time></trkpt><trkpt lat="44.4633358" lon="8.1167326"><ele>352.6666666666667</ele><time>2026-04-04T12:34:55.973Z</time></trkpt><trkpt lat="44.4632664" lon="8.1170183"><ele>353.0</ele><time>2026-04-04T12:34:56.973Z</time></trkpt><trkpt lat="44.4632043" lon="8.117296"><ele>353.33333333333337</ele><time>2026-04-04T12:34:57.972Z</time></trkpt><trkpt lat="44.4631466" lon="8.1175566"><ele>353.6666666666667</ele><time>2026-04-04T12:34:58.973Z</time></trkpt><trkpt lat="44.4630953" lon="8.1178063"><ele>354.0</ele><time>2026-04-04T12:34:59.973Z</time></trkpt><trkpt lat="44.4630457" lon="8.11805"><ele>355.0</ele><time>2026-04-04T12:35:00.972Z</time></trkpt><trkpt lat="44.4629947" lon="8.1182873"><ele>356.0</ele><time>2026-04-04T12:35:01.973Z</time></trkpt><trkpt lat="44.462942" lon="8.1185271"><ele>357.0</ele><time>2026-04-04T12:35:02.973Z</time></trkpt><trkpt lat="44.4628905" lon="8.1187701"><ele>355.0</ele><time>2026-04-04T12:35:03.973Z</time></trkpt><trkpt lat="44.46284" lon="8.1190118"><ele>353.0</ele><time>2026-04-04T12:35:04.973Z</time></trkpt><trkpt lat="44.4627863" lon="8.1192543"><ele>351.0</ele><time>2026-04-04T12:35:05.973Z</time></trkpt><trkpt lat="44.4627331" lon="8.119496"><ele>351.0</ele><time>2026-04-04T12:35:06.973Z</time></trkpt><trkpt lat="44.4626797" lon="8.1197324"><ele>351.0</ele><time>2026-04-04T12:35:07.973Z</time></trkpt><trkpt lat="44.4626297" lon="8.1199602"><ele>351.0</ele><time>2026-04-04T12:35:08.973Z</time></trkpt><trkpt lat="44.4625751" lon="8.1201891"><ele>351.0</ele><time>2026-04-04T12:35:09.973Z</time></trkpt><trkpt lat="44.4625218" lon="8.1204158"><ele>351.0</ele><time>2026-04-04T12:35:10.972Z</time></trkpt><trkpt lat="44.4624723" lon="8.1206494"><ele>351.0</ele><time>2026-04-04T12:35:11.972Z</time></trkpt><trkpt lat="44.4624237" lon="8.1208875"><ele>352.3333333333333</ele><time>2026-04-04T12:35:12.973Z</time></trkpt><trkpt lat="44.4623718" lon="8.1211232"><ele>353.66666666666663</ele><time>2026-04-04T12:35:13.973Z</time></trkpt><trkpt lat="44.4623182" lon="8.1213529"><ele>355.0</ele><time>2026-04-04T12:35:14.972Z</time></trkpt><trkpt lat="44.4622587" lon="8.1215792"><ele>355.3333333333333</ele><time>2026-04-04T12:35:15.972Z</time></trkpt><trkpt lat="44.4622031" lon="8.1218052"><ele>355.6666666666667</ele><time>2026-04-04T12:35:16.973Z</time></trkpt><trkpt lat="44.4621509" lon="8.1220321"><ele>356.0</ele><time>2026-04-04T12:35:17.973Z</time></trkpt><trkpt lat="44.4620996" lon="8.1222507"><ele>354.5</ele><time>2026-04-04T12:35:18.973Z</time></trkpt><trkpt lat="44.4620625" lon="8.1224478"><ele>353.0</ele><time>2026-04-04T12:35:19.973Z</time></trkpt><trkpt lat="44.4620252" lon="8.1226252"><ele>351.5</ele><time>2026-04-04T12:35:20.973Z</time></trkpt><trkpt lat="44.4619915" lon="8.1227907"><ele>350.0</ele><time>2026-04-04T12:35:21.973Z</time></trkpt><trkpt lat="44.4619666" lon="8.1229477"><ele>350.0</ele><time>2026-04-04T12:35:22.973Z</time></trkpt><trkpt lat="44.4619483" lon="8.1230964"><ele>350.0</ele><time>2026-04-04T12:35:23.973Z</time></trkpt><trkpt lat="44.4619291" lon="8.1232327"><ele>350.0</ele><time>2026-04-04T12:35:24.973Z</time></trkpt><trkpt lat="44.4619144" lon="8.1233519"><ele>350.0</ele><time>2026-04-04T12:35:25.972Z</time></trkpt><trkpt lat="44.4619067" lon="8.1234572"><ele>350.0</ele><time>2026-04-04T12:35:26.973Z</time></trkpt><trkpt lat="44.4619029" lon="8.1235475"><ele>350.0</ele><time>2026-04-04T12:35:27.973Z</time></trkpt><trkpt lat="44.4618932" lon="8.1236378"><ele>350.8</ele><time>2026-04-04T12:35:28.973Z</time></trkpt><trkpt lat="44.4618701" lon="8.1237414"><ele>351.6</ele><time>2026-04-04T12:35:29.972Z</time></trkpt><trkpt lat="44.4618476" lon="8.1238627"><ele>352.4</ele><time>2026-04-04T12:35:30.973Z</time></trkpt><trkpt lat="44.4618417" lon="8.123977"><ele>353.2</ele><time>2026-04-04T12:35:31.972Z</time></trkpt><trkpt lat="44.4618359" lon="8.1241457"><ele>354.0</ele><time>2026-04-04T12:35:32.973Z</time></trkpt><trkpt lat="44.4618375" lon="8.1243454"><ele>354.6666666666667</ele><time>2026-04-04T12:35:33.973Z</time></trkpt><trkpt lat="44.4618435" lon="8.1245725"><ele>355.33333333333337</ele><time>2026-04-04T12:35:34.972Z</time></trkpt><trkpt lat="44.4618462" lon="8.1248119"><ele>356.0</ele><time>2026-04-04T12:35:35.972Z</time></trkpt><trkpt lat="44.4618355" lon="8.1250778"><ele>356.6666666666667</ele><time>2026-04-04T12:35:36.973Z</time></trkpt><trkpt lat="44.4618224" lon="8.1253618"><ele>357.3333333333333</ele><time>2026-04-04T12:35:37.973Z</time></trkpt><trkpt lat="44.4618138" lon="8.125677"><ele>358.0</ele><time>2026-04-04T12:35:38.973Z</time></trkpt><trkpt lat="44.4617867" lon="8.1259916"><ele>359.3333333333333</ele><time>2026-04-04T12:35:39.973Z</time></trkpt><trkpt lat="44.4617682" lon="8.1262971"><ele>360.6666666666667</ele><time>2026-04-04T12:35:40.973Z</time></trkpt><trkpt lat="44.4617334" lon="8.1265861"><ele>362.0</ele><time>2026-04-04T12:35:41.973Z</time></trkpt><trkpt lat="44.4616758" lon="8.1268624"><ele>362.6666666666667</ele><time>2026-04-04T12:35:42.972Z</time></trkpt><trkpt lat="44.4615828" lon="8.1271076"><ele>363.3333333333333</ele><time>2026-04-04T12:35:43.973Z</time></trkpt><trkpt lat="44.4614596" lon="8.12735"><ele>364.0</ele><time>2026-04-04T12:35:44.972Z</time></trkpt><trkpt lat="44.4613061" lon="8.1275703"><ele>361.0</ele><time>2026-04-04T12:35:45.972Z</time></trkpt><trkpt lat="44.4611448" lon="8.1277661"><ele>358.0</ele><time>2026-04-04T12:35:46.973Z</time></trkpt><trkpt lat="44.4609976" lon="8.1279226"><ele>355.0</ele><time>2026-04-04T12:35:47.973Z</time></trkpt><trkpt lat="44.4608713" lon="8.1280666"><ele>355.0</ele><time>2026-04-04T12:35:48.973Z</time></trkpt><trkpt lat="44.4607427" lon="8.1282081"><ele>355.0</ele><time>2026-04-04T12:35:49.973Z</time></trkpt><trkpt lat="44.4606106" lon="8.1283322"><ele>355.0</ele><time>2026-04-04T12:35:50.973Z</time></trkpt><trkpt lat="44.4604725" lon="8.1284539"><ele>359.3333333333333</ele><time>2026-04-04T12:35:51.973Z</time></trkpt><trkpt lat="44.4603277" lon="8.1285661"><ele>363.6666666666667</ele><time>2026-04-04T12:35:52.972Z</time></trkpt><trkpt lat="44.4601862" lon="8.1286772"><ele>368.0</ele><time>2026-04-04T12:35:53.973Z</time></trkpt><trkpt lat="44.4600431" lon="8.1287841"><ele>368.0</ele><time>2026-04-04T12:35:54.972Z</time></trkpt><trkpt lat="44.4598743" lon="8.1288253"><ele>368.0</ele><time>2026-04-04T12:35:55.972Z</time></trkpt><trkpt lat="44.4597083" lon="8.1288336"><ele>368.0</ele><time>2026-04-04T12:35:56.973Z</time></trkpt><trkpt lat="44.459539" lon="8.1288487"><ele>368.5</ele><time>2026-04-04T12:35:57.973Z</time></trkpt><trkpt lat="44.4593822" lon="8.1288541"><ele>369.0</ele><time>2026-04-04T12:35:58.973Z</time></trkpt><trkpt lat="44.4592357" lon="8.1288227"><ele>369.5</ele><time>2026-04-04T12:35:59.972Z</time></trkpt><trkpt lat="44.4590969" lon="8.1287734"><ele>370.0</ele><time>2026-04-04T12:36:00.972Z</time></trkpt><trkpt lat="44.4589729" lon="8.1286593"><ele>370.0</ele><time>2026-04-04T12:36:01.972Z</time></trkpt><trkpt lat="44.4588409" lon="8.1285379"><ele>370.0</ele><time>2026-04-04T12:36:02.971Z</time></trkpt><trkpt lat="44.4586964" lon="8.1284082"><ele>370.0</ele><time>2026-04-04T12:36:03.971Z</time></trkpt><trkpt lat="44.4585537" lon="8.1283058"><ele>365.66666666666663</ele><time>2026-04-04T12:36:04.972Z</time></trkpt><trkpt lat="44.4584017" lon="8.1282138"><ele>361.3333333333333</ele><time>2026-04-04T12:36:05.972Z</time></trkpt><trkpt lat="44.458258" lon="8.1281383"><ele>357.0</ele><time>2026-04-04T12:36:06.972Z</time></trkpt><trkpt lat="44.4581118" lon="8.1280946"><ele>357.0</ele><time>2026-04-04T12:36:07.972Z</time></trkpt><trkpt lat="44.457955" lon="8.1280774"><ele>357.0</ele><time>2026-04-04T12:36:08.972Z</time></trkpt><trkpt lat="44.4578088" lon="8.1280805"><ele>357.0</ele><time>2026-04-04T12:36:09.972Z</time></trkpt><trkpt lat="44.4576601" lon="8.1281263"><ele>356.0</ele><time>2026-04-04T12:36:10.972Z</time></trkpt><trkpt lat="44.4574984" lon="8.1282028"><ele>355.0</ele><time>2026-04-04T12:36:11.972Z</time></trkpt><trkpt lat="44.4573592" lon="8.1283027"><ele>354.0</ele><time>2026-04-04T12:36:12.972Z</time></trkpt><trkpt lat="44.4572333" lon="8.12841"><ele>359.3333333333333</ele><time>2026-04-04T12:36:13.972Z</time></trkpt><trkpt lat="44.4570948" lon="8.1285156"><ele>364.66666666666663</ele><time>2026-04-04T12:36:14.972Z</time></trkpt><trkpt lat="44.4569401" lon="8.1286142"><ele>370.0</ele><time>2026-04-04T12:36:15.971Z</time></trkpt><trkpt lat="44.4567449" lon="8.1286583"><ele>370.0</ele><time>2026-04-04T12:36:16.972Z</time></trkpt><trkpt lat="44.4565615" lon="8.1287137"><ele>370.0</ele><time>2026-04-04T12:36:17.971Z</time></trkpt><trkpt lat="44.4563705" lon="8.1287725"><ele>370.0</ele><time>2026-04-04T12:36:18.972Z</time></trkpt><trkpt lat="44.4561741" lon="8.1288217"><ele>368.3333333333333</ele><time>2026-04-04T12:36:19.972Z</time></trkpt><trkpt lat="44.4559993" lon="8.1288914"><ele>366.6666666666667</ele><time>2026-04-04T12:36:20.972Z</time></trkpt><trkpt lat="44.4558333" lon="8.1289656"><ele>365.0</ele><time>2026-04-04T12:36:21.971Z</time></trkpt><trkpt lat="44.4556706" lon="8.1290391"><ele>369.33333333333337</ele><time>2026-04-04T12:36:22.971Z</time></trkpt><trkpt lat="44.4555157" lon="8.1291055"><ele>373.6666666666667</ele><time>2026-04-04T12:36:23.972Z</time></trkpt><trkpt lat="44.4553577" lon="8.1291688"><ele>378.0</ele><time>2026-04-04T12:36:24.972Z</time></trkpt><trkpt lat="44.4551927" lon="8.1292373"><ele>378.0</ele><time>2026-04-04T12:36:25.972Z</time></trkpt><trkpt lat="44.455023" lon="8.1293105"><ele>378.0</ele><time>2026-04-04T12:36:26.972Z</time></trkpt><trkpt lat="44.4548543" lon="8.1293913"><ele>378.0</ele><time>2026-04-04T12:36:27.972Z</time></trkpt><trkpt lat="44.4546825" lon="8.1294792"><ele>376.0</ele><time>2026-04-04T12:36:28.972Z</time></trkpt><trkpt lat="44.4545184" lon="8.1295782"><ele>374.0</ele><time>2026-04-04T12:36:29.972Z</time></trkpt><trkpt lat="44.454357" lon="8.1296757"><ele>372.0</ele><time>2026-04-04T12:36:30.971Z</time></trkpt><trkpt lat="44.4541836" lon="8.1297844"><ele>373.6666666666667</ele><time>2026-04-04T12:36:31.971Z</time></trkpt><trkpt lat="44.4539976" lon="8.1299139"><ele>375.33333333333337</ele><time>2026-04-04T12:36:32.971Z</time></trkpt><trkpt lat="44.4537908" lon="8.1300606"><ele>377.0</ele><time>2026-04-04T12:36:33.971Z</time></trkpt><trkpt lat="44.4535584" lon="8.1301977"><ele>377.0</ele><time>2026-04-04T12:36:34.972Z</time></trkpt><trkpt lat="44.4533244" lon="8.1303311"><ele>377.0</ele><time>2026-04-04T12:36:35.972Z</time></trkpt><trkpt lat="44.4530831" lon="8.1304679"><ele>377.0</ele><time>2026-04-04T12:36:36.972Z</time></trkpt><trkpt lat="44.4528438" lon="8.1306194"><ele>377.0</ele><time>2026-04-04T12:36:37.971Z</time></trkpt><trkpt lat="44.4526062" lon="8.1307811"><ele>377.0</ele><time>2026-04-04T12:36:38.971Z</time></trkpt><trkpt lat="44.4523827" lon="8.1309475"><ele>377.0</ele><time>2026-04-04T12:36:39.972Z</time></trkpt><trkpt lat="44.452158" lon="8.1311161"><ele>375.5</ele><time>2026-04-04T12:36:40.971Z</time></trkpt><trkpt lat="44.45194" lon="8.1312664"><ele>374.0</ele><time>2026-04-04T12:36:41.972Z</time></trkpt><trkpt lat="44.4517216" lon="8.1313758"><ele>374.0</ele><time>2026-04-04T12:36:42.972Z</time></trkpt><trkpt lat="44.4515048" lon="8.1314539"><ele>374.0</ele><time>2026-04-04T12:36:43.972Z</time></trkpt><trkpt lat="44.4512882" lon="8.1315171"><ele>374.0</ele><time>2026-04-04T12:36:44.972Z</time></trkpt><trkpt lat="44.4510778" lon="8.1315728"><ele>375.6666666666667</ele><time>2026-04-04T12:36:45.972Z</time></trkpt><trkpt lat="44.4508824" lon="8.1316315"><ele>377.3333333333333</ele><time>2026-04-04T12:36:46.972Z</time></trkpt><trkpt lat="44.4506955" lon="8.131697"><ele>379.0</ele><time>2026-04-04T12:36:47.972Z</time></trkpt><trkpt lat="44.4505238" lon="8.1317802"><ele>374.66666666666663</ele><time>2026-04-04T12:36:48.972Z</time></trkpt><trkpt lat="44.4503649" lon="8.1318866"><ele>370.3333333333333</ele><time>2026-04-04T12:36:49.972Z</time></trkpt><trkpt lat="44.4502165" lon="8.132024"><ele>366.0</ele><time>2026-04-04T12:36:50.971Z</time></trkpt><trkpt lat="44.4500919" lon="8.1322106"><ele>368.0</ele><time>2026-04-04T12:36:51.972Z</time></trkpt><trkpt lat="44.4499839" lon="8.1324503"><ele>370.0</ele><time>2026-04-04T12:36:52.972Z</time></trkpt><trkpt lat="44.4498978" lon="8.1327033"><ele>372.0</ele><time>2026-04-04T12:36:53.972Z</time></trkpt><trkpt lat="44.4498196" lon="8.1329426"><ele>372.0</ele><time>2026-04-04T12:36:54.971Z</time></trkpt><trkpt lat="44.4497515" lon="8.1331736"><ele>372.0</ele><time>2026-04-04T12:36:55.972Z</time></trkpt><trkpt lat="44.4496873" lon="8.1333989"><ele>372.0</ele><time>2026-04-04T12:36:56.972Z</time></trkpt><trkpt lat="44.449639" lon="8.1336268"><ele>370.0</ele><time>2026-04-04T12:36:57.972Z</time></trkpt><trkpt lat="44.4496015" lon="8.1338564"><ele>368.0</ele><time>2026-04-04T12:36:58.971Z</time></trkpt><trkpt lat="44.4495818" lon="8.1340971"><ele>366.0</ele><time>2026-04-04T12:36:59.972Z</time></trkpt><trkpt lat="44.4495592" lon="8.1343479"><ele>366.0</ele><time>2026-04-04T12:37:00.971Z</time></trkpt><trkpt lat="44.4495274" lon="8.1346104"><ele>366.0</ele><time>2026-04-04T12:37:01.971Z</time></trkpt><trkpt lat="44.4495064" lon="8.1348898"><ele>366.0</ele><time>2026-04-04T12:37:02.972Z</time></trkpt><trkpt lat="44.4494698" lon="8.1351658"><ele>366.6666666666667</ele><time>2026-04-04T12:37:03.972Z</time></trkpt><trkpt lat="44.4494307" lon="8.1354137"><ele>367.33333333333337</ele><time>2026-04-04T12:37:04.972Z</time></trkpt><trkpt lat="44.4493867" lon="8.1356404"><ele>368.0</ele><time>2026-04-04T12:37:05.971Z</time></trkpt><trkpt lat="44.4493322" lon="8.1358576"><ele>369.0</ele><time>2026-04-04T12:37:06.972Z</time></trkpt><trkpt lat="44.4492801" lon="8.136065"><ele>370.0</ele><time>2026-04-04T12:37:07.972Z</time></trkpt><trkpt lat="44.4492258" lon="8.1362765"><ele>371.0</ele><time>2026-04-04T12:37:08.972Z</time></trkpt><trkpt lat="44.4491686" lon="8.1364732"><ele>371.5</ele><time>2026-04-04T12:37:09.972Z</time></trkpt><trkpt lat="44.4491115" lon="8.1366602"><ele>372.0</ele><time>2026-04-04T12:37:10.972Z</time></trkpt><trkpt lat="44.4490491" lon="8.1368529"><ele>372.5</ele><time>2026-04-04T12:37:11.972Z</time></trkpt><trkpt lat="44.4489833" lon="8.1370411"><ele>373.0</ele><time>2026-04-04T12:37:12.972Z</time></trkpt><trkpt lat="44.4489067" lon="8.1372197"><ele>372.75</ele><time>2026-04-04T12:37:13.971Z</time></trkpt><trkpt lat="44.4488273" lon="8.1373926"><ele>372.5</ele><time>2026-04-04T12:37:14.971Z</time></trkpt><trkpt lat="44.4487459" lon="8.1375586"><ele>372.25</ele><time>2026-04-04T12:37:15.972Z</time></trkpt><trkpt lat="44.4486466" lon="8.1377083"><ele>372.0</ele><time>2026-04-04T12:37:16.972Z</time></trkpt><trkpt lat="44.4485428" lon="8.1378452"><ele>372.0</ele><time>2026-04-04T12:37:17.972Z</time></trkpt><trkpt lat="44.4484423" lon="8.1379755"><ele>372.0</ele><time>2026-04-04T12:37:18.972Z</time></trkpt><trkpt lat="44.4483465" lon="8.1381166"><ele>372.0</ele><time>2026-04-04T12:37:19.972Z</time></trkpt><trkpt lat="44.4482461" lon="8.1382576"><ele>372.0</ele><time>2026-04-04T12:37:20.971Z</time></trkpt><trkpt lat="44.4481423" lon="8.1384015"><ele>372.0</ele><time>2026-04-04T12:37:21.972Z</time></trkpt><trkpt lat="44.4480336" lon="8.1385468"><ele>372.0</ele><time>2026-04-04T12:37:22.971Z</time></trkpt><trkpt lat="44.4479225" lon="8.1387021"><ele>372.0</ele><time>2026-04-04T12:37:23.971Z</time></trkpt><trkpt lat="44.447811" lon="8.1388452"><ele>370.0</ele><time>2026-04-04T12:37:24.972Z</time></trkpt><trkpt lat="44.4476968" lon="8.1389921"><ele>368.0</ele><time>2026-04-04T12:37:25.972Z</time></trkpt><trkpt lat="44.4475841" lon="8.1391408"><ele>366.0</ele><time>2026-04-04T12:37:26.972Z</time></trkpt><trkpt lat="44.4474717" lon="8.1392916"><ele>365.6666666666667</ele><time>2026-04-04T12:37:27.972Z</time></trkpt><trkpt lat="44.4473658" lon="8.1394422"><ele>365.33333333333337</ele><time>2026-04-04T12:37:28.972Z</time></trkpt><trkpt lat="44.4472558" lon="8.1395995"><ele>365.0</ele><time>2026-04-04T12:37:29.971Z</time></trkpt><trkpt lat="44.447144" lon="8.1397539"><ele>364.75</ele><time>2026-04-04T12:37:30.971Z</time></trkpt><trkpt lat="44.44704" lon="8.1399049"><ele>364.5</ele><time>2026-04-04T12:37:31.972Z</time></trkpt><trkpt lat="44.4469343" lon="8.140051"><ele>364.25</ele><time>2026-04-04T12:37:32.971Z</time></trkpt><trkpt lat="44.4468307" lon="8.1402031"><ele>364.0</ele><time>2026-04-04T12:37:33.972Z</time></trkpt><trkpt lat="44.446732" lon="8.1403457"><ele>364.0</ele><time>2026-04-04T12:37:34.972Z</time></trkpt><trkpt lat="44.4466247" lon="8.1404893"><ele>364.0</ele><time>2026-04-04T12:37:35.972Z</time></trkpt><trkpt lat="44.4465235" lon="8.1406244"><ele>364.0</ele><time>2026-04-04T12:37:36.971Z</time></trkpt><trkpt lat="44.4464257" lon="8.1407555"><ele>364.0</ele><time>2026-04-04T12:37:37.972Z</time></trkpt><trkpt lat="44.446327" lon="8.140882"><ele>363.75</ele><time>2026-04-04T12:37:38.972Z</time></trkpt><trkpt lat="44.4462368" lon="8.1410123"><ele>363.5</ele><time>2026-04-04T12:37:39.972Z</time></trkpt><trkpt lat="44.4461487" lon="8.1411354"><ele>363.25</ele><time>2026-04-04T12:37:40.971Z</time></trkpt><trkpt lat="44.4460584" lon="8.1412573"><ele>363.0</ele><time>2026-04-04T12:37:41.971Z</time></trkpt><trkpt lat="44.4459622" lon="8.1413788"><ele>363.0</ele><time>2026-04-04T12:37:42.972Z</time></trkpt><trkpt lat="44.4458603" lon="8.1415076"><ele>363.0</ele><time>2026-04-04T12:37:43.972Z</time></trkpt><trkpt lat="44.4457669" lon="8.1416358"><ele>363.0</ele><time>2026-04-04T12:37:44.971Z</time></trkpt><trkpt lat="44.4456739" lon="8.1417623"><ele>363.0</ele><time>2026-04-04T12:37:45.972Z</time></trkpt><trkpt lat="44.4455817" lon="8.1418839"><ele>363.25</ele><time>2026-04-04T12:37:46.972Z</time></trkpt><trkpt lat="44.4454989" lon="8.1419997"><ele>363.5</ele><time>2026-04-04T12:37:47.972Z</time></trkpt><trkpt lat="44.4454169" lon="8.1421175"><ele>363.75</ele><time>2026-04-04T12:37:48.971Z</time></trkpt><trkpt lat="44.4453243" lon="8.1422397"><ele>364.0</ele><time>2026-04-04T12:37:49.972Z</time></trkpt><trkpt lat="44.4452291" lon="8.1423648"><ele>364.25</ele><time>2026-04-04T12:37:50.972Z</time></trkpt><trkpt lat="44.4451276" lon="8.1424916"><ele>364.5</ele><time>2026-04-04T12:37:51.972Z</time></trkpt><trkpt lat="44.4450214" lon="8.1426207"><ele>364.75</ele><time>2026-04-04T12:37:52.972Z</time></trkpt><trkpt lat="44.4449316" lon="8.1427533"><ele>365.0</ele><time>2026-04-04T12:37:53.972Z</time></trkpt><trkpt lat="44.4448416" lon="8.1428844"><ele>365.0</ele><time>2026-04-04T12:37:54.971Z</time></trkpt><trkpt lat="44.4447441" lon="8.1430233"><ele>365.0</ele><time>2026-04-04T12:37:55.972Z</time></trkpt><trkpt lat="44.4446341" lon="8.1431633"><ele>365.0</ele><time>2026-04-04T12:37:56.972Z</time></trkpt><trkpt lat="44.4445314" lon="8.1433099"><ele>365.0</ele><time>2026-04-04T12:37:57.972Z</time></trkpt><trkpt lat="44.4444233" lon="8.1434543"><ele>365.25</ele><time>2026-04-04T12:37:58.972Z</time></trkpt><trkpt lat="44.4443164" lon="8.1436044"><ele>365.5</ele><time>2026-04-04T12:37:59.972Z</time></trkpt><trkpt lat="44.4442095" lon="8.1437524"><ele>365.75</ele><time>2026-04-04T12:38:00.971Z</time></trkpt><trkpt lat="44.4441064" lon="8.1438926"><ele>366.0</ele><time>2026-04-04T12:38:01.972Z</time></trkpt><trkpt lat="44.4440077" lon="8.1440261"><ele>365.75</ele><time>2026-04-04T12:38:02.971Z</time></trkpt><trkpt lat="44.443898" lon="8.1441626"><ele>365.5</ele><time>2026-04-04T12:38:03.972Z</time></trkpt><trkpt lat="44.4437931" lon="8.1443017"><ele>365.25</ele><time>2026-04-04T12:38:04.972Z</time></trkpt><trkpt lat="44.4436921" lon="8.1444429"><ele>365.0</ele><time>2026-04-04T12:38:05.972Z</time></trkpt><trkpt lat="44.4435883" lon="8.144589"><ele>365.0</ele><time>2026-04-04T12:38:06.972Z</time></trkpt><trkpt lat="44.4434823" lon="8.1447348"><ele>365.0</ele><time>2026-04-04T12:38:07.972Z</time></trkpt><trkpt lat="44.4433681" lon="8.1448723"><ele>365.0</ele><time>2026-04-04T12:38:08.972Z</time></trkpt><trkpt lat="44.4432553" lon="8.1450037"><ele>365.0</ele><time>2026-04-04T12:38:09.972Z</time></trkpt><trkpt lat="44.4431389" lon="8.1451282"><ele>364.5</ele><time>2026-04-04T12:38:10.972Z</time></trkpt><trkpt lat="44.4430203" lon="8.1452453"><ele>364.0</ele><time>2026-04-04T12:38:11.972Z</time></trkpt><trkpt lat="44.4429379" lon="8.1453579"><ele>363.5</ele><time>2026-04-04T12:38:12.972Z</time></trkpt><trkpt lat="44.4428613" lon="8.1454721"><ele>363.0</ele><time>2026-04-04T12:38:13.972Z</time></trkpt><trkpt lat="44.442783" lon="8.1455846"><ele>363.0</ele><time>2026-04-04T12:38:14.972Z</time></trkpt><trkpt lat="44.4427208" lon="8.1456898"><ele>363.0</ele><time>2026-04-04T12:38:15.972Z</time></trkpt><trkpt lat="44.4426664" lon="8.14577"><ele>363.0</ele><time>2026-04-04T12:38:16.972Z</time></trkpt><trkpt lat="44.4426139" lon="8.1458336"><ele>363.0</ele><time>2026-04-04T12:38:17.972Z</time></trkpt><trkpt lat="44.4425203" lon="8.1459554"><ele>363.0</ele><time>2026-04-04T12:38:19.972Z</time></trkpt><trkpt lat="44.4424725" lon="8.1460514"><ele>363.75</ele><time>2026-04-04T12:38:20.972Z</time></trkpt><trkpt lat="44.442426" lon="8.14618"><ele>364.5</ele><time>2026-04-04T12:38:21.971Z</time></trkpt><trkpt lat="44.442382" lon="8.1463381"><ele>365.25</ele><time>2026-04-04T12:38:22.971Z</time></trkpt><trkpt lat="44.4423402" lon="8.1465154"><ele>366.0</ele><time>2026-04-04T12:38:23.971Z</time></trkpt><trkpt lat="44.4422907" lon="8.1466967"><ele>366.25</ele><time>2026-04-04T12:38:24.972Z</time></trkpt><trkpt lat="44.4422399" lon="8.1468862"><ele>366.5</ele><time>2026-04-04T12:38:25.972Z</time></trkpt><trkpt lat="44.4421863" lon="8.1470796"><ele>366.75</ele><time>2026-04-04T12:38:26.971Z</time></trkpt><trkpt lat="44.4421335" lon="8.1472712"><ele>367.0</ele><time>2026-04-04T12:38:27.972Z</time></trkpt><trkpt lat="44.4420749" lon="8.1474727"><ele>367.0</ele><time>2026-04-04T12:38:28.972Z</time></trkpt><trkpt lat="44.4420175" lon="8.1476829"><ele>367.0</ele><time>2026-04-04T12:38:29.972Z</time></trkpt><trkpt lat="44.4419463" lon="8.1478914"><ele>367.0</ele><time>2026-04-04T12:38:30.972Z</time></trkpt><trkpt lat="44.4418614" lon="8.1480976"><ele>369.66666666666663</ele><time>2026-04-04T12:38:31.972Z</time></trkpt><trkpt lat="44.4417637" lon="8.148296"><ele>372.3333333333333</ele><time>2026-04-04T12:38:32.971Z</time></trkpt><trkpt lat="44.441651" lon="8.1484761"><ele>375.0</ele><time>2026-04-04T12:38:33.972Z</time></trkpt><trkpt lat="44.4415319" lon="8.1486211"><ele>375.0</ele><time>2026-04-04T12:38:34.972Z</time></trkpt><trkpt lat="44.4414121" lon="8.1487436"><ele>375.0</ele><time>2026-04-04T12:38:35.972Z</time></trkpt><trkpt lat="44.4412884" lon="8.148851"><ele>375.0</ele><time>2026-04-04T12:38:36.972Z</time></trkpt><trkpt lat="44.4411638" lon="8.1489589"><ele>375.0</ele><time>2026-04-04T12:38:37.972Z</time></trkpt><trkpt lat="44.4410403" lon="8.1490676"><ele>374.3333333333333</ele><time>2026-04-04T12:38:38.972Z</time></trkpt><trkpt lat="44.4409027" lon="8.1491818"><ele>373.66666666666663</ele><time>2026-04-04T12:38:39.971Z</time></trkpt><trkpt lat="44.4407528" lon="8.1492857"><ele>373.0</ele><time>2026-04-04T12:38:40.972Z</time></trkpt><trkpt lat="44.4406107" lon="8.1493943"><ele>371.0</ele><time>2026-04-04T12:38:41.972Z</time></trkpt><trkpt lat="44.4404653" lon="8.1495038"><ele>369.0</ele><time>2026-04-04T12:38:42.972Z</time></trkpt><trkpt lat="44.4403274" lon="8.1496159"><ele>367.0</ele><time>2026-04-04T12:38:43.972Z</time></trkpt><trkpt lat="44.4401863" lon="8.1497278"><ele>367.0</ele><time>2026-04-04T12:38:44.972Z</time></trkpt><trkpt lat="44.4400532" lon="8.1498417"><ele>367.0</ele><time>2026-04-04T12:38:45.971Z</time></trkpt><trkpt lat="44.4399319" lon="8.1499577"><ele>367.0</ele><time>2026-04-04T12:38:46.972Z</time></trkpt><trkpt lat="44.4398155" lon="8.1500758"><ele>367.0</ele><time>2026-04-04T12:38:47.972Z</time></trkpt><trkpt lat="44.4397044" lon="8.1501921"><ele>366.66666666666663</ele><time>2026-04-04T12:38:48.972Z</time></trkpt><trkpt lat="44.4395985" lon="8.1503256"><ele>366.3333333333333</ele><time>2026-04-04T12:38:49.972Z</time></trkpt><trkpt lat="44.4394924" lon="8.1504777"><ele>366.0</ele><time>2026-04-04T12:38:50.972Z</time></trkpt><trkpt lat="44.439387" lon="8.1506409"><ele>369.3333333333333</ele><time>2026-04-04T12:38:51.972Z</time></trkpt><trkpt lat="44.4392775" lon="8.1508109"><ele>372.66666666666663</ele><time>2026-04-04T12:38:52.972Z</time></trkpt><trkpt lat="44.4391678" lon="8.1509773"><ele>376.0</ele><time>2026-04-04T12:38:53.972Z</time></trkpt><trkpt lat="44.4390631" lon="8.1511445"><ele>376.0</ele><time>2026-04-04T12:38:54.971Z</time></trkpt><trkpt lat="44.4389592" lon="8.1513127"><ele>376.0</ele><time>2026-04-04T12:38:55.971Z</time></trkpt><trkpt lat="44.4388529" lon="8.1514789"><ele>376.0</ele><time>2026-04-04T12:38:56.972Z</time></trkpt><trkpt lat="44.4387508" lon="8.1516505"><ele>374.0</ele><time>2026-04-04T12:38:57.972Z</time></trkpt><trkpt lat="44.438644" lon="8.1518223"><ele>372.0</ele><time>2026-04-04T12:38:58.972Z</time></trkpt><trkpt lat="44.4385411" lon="8.1519907"><ele>370.0</ele><time>2026-04-04T12:38:59.971Z</time></trkpt><trkpt lat="44.4384391" lon="8.1521566"><ele>370.0</ele><time>2026-04-04T12:39:00.971Z</time></trkpt><trkpt lat="44.4383389" lon="8.1523231"><ele>370.0</ele><time>2026-04-04T12:39:01.972Z</time></trkpt><trkpt lat="44.4382454" lon="8.1524859"><ele>370.0</ele><time>2026-04-04T12:39:02.971Z</time></trkpt><trkpt lat="44.4381449" lon="8.152649"><ele>369.75</ele><time>2026-04-04T12:39:03.972Z</time></trkpt><trkpt lat="44.4380508" lon="8.1527997"><ele>369.5</ele><time>2026-04-04T12:39:04.971Z</time></trkpt><trkpt lat="44.4379619" lon="8.1529467"><ele>369.25</ele><time>2026-04-04T12:39:05.972Z</time></trkpt><trkpt lat="44.4378845" lon="8.1530966"><ele>369.0</ele><time>2026-04-04T12:39:06.972Z</time></trkpt><trkpt lat="44.4378224" lon="8.1532546"><ele>370.6</ele><time>2026-04-04T12:39:07.971Z</time></trkpt><trkpt lat="44.4377717" lon="8.1534052"><ele>372.2</ele><time>2026-04-04T12:39:08.971Z</time></trkpt><trkpt lat="44.4377253" lon="8.1535449"><ele>373.8</ele><time>2026-04-04T12:39:09.972Z</time></trkpt><trkpt lat="44.4376802" lon="8.1536791"><ele>375.40000000000003</ele><time>2026-04-04T12:39:10.972Z</time></trkpt><trkpt lat="44.4376398" lon="8.1538045"><ele>377.0</ele><time>2026-04-04T12:39:11.971Z</time></trkpt><trkpt lat="44.4376063" lon="8.1539287"><ele>377.57142857142856</ele><time>2026-04-04T12:39:12.972Z</time></trkpt><trkpt lat="44.4375774" lon="8.1540392"><ele>378.1428571428571</ele><time>2026-04-04T12:39:13.972Z</time></trkpt><trkpt lat="44.4375574" lon="8.1541388"><ele>378.71428571428567</ele><time>2026-04-04T12:39:14.972Z</time></trkpt><trkpt lat="44.4375383" lon="8.1542314"><ele>379.2857142857143</ele><time>2026-04-04T12:39:15.971Z</time></trkpt><trkpt lat="44.4375167" lon="8.1543175"><ele>379.8571428571429</ele><time>2026-04-04T12:39:16.971Z</time></trkpt><trkpt lat="44.4374916" lon="8.1544063"><ele>380.4285714285714</ele><time>2026-04-04T12:39:17.972Z</time></trkpt><trkpt lat="44.4374653" lon="8.1544933"><ele>381.0</ele><time>2026-04-04T12:39:18.971Z</time></trkpt><trkpt lat="44.4374231" lon="8.1546447"><ele>381.0</ele><time>2026-04-04T12:39:20.972Z</time></trkpt><trkpt lat="44.4374099" lon="8.1547534"><ele>381.0</ele><time>2026-04-04T12:39:22.972Z</time></trkpt><trkpt lat="44.4374574" lon="8.1546919"><ele>381.0</ele><time>2026-04-04T12:39:26.972Z</time></trkpt><trkpt lat="44.4375053" lon="8.1544928"><ele>381.0</ele><time>2026-04-04T12:39:28.972Z</time></trkpt><trkpt lat="44.4375296" lon="8.1543552"><ele>381.0</ele><time>2026-04-04T12:39:29.971Z</time></trkpt><trkpt lat="44.4375591" lon="8.1542124"><ele>381.0</ele><time>2026-04-04T12:39:30.972Z</time></trkpt><trkpt lat="44.4375963" lon="8.1540763"><ele>381.0</ele><time>2026-04-04T12:39:31.972Z</time></trkpt><trkpt lat="44.4376339" lon="8.1539419"><ele>381.0</ele><time>2026-04-04T12:39:32.971Z</time></trkpt><trkpt lat="44.4376606" lon="8.1537961"><ele>381.0</ele><time>2026-04-04T12:39:33.971Z</time></trkpt><trkpt lat="44.4376968" lon="8.1536474"><ele>381.0</ele><time>2026-04-04T12:39:34.972Z</time></trkpt><trkpt lat="44.4377416" lon="8.1534972"><ele>380.0</ele><time>2026-04-04T12:39:35.972Z</time></trkpt><trkpt lat="44.4377885" lon="8.1533472"><ele>379.0</ele><time>2026-04-04T12:39:36.972Z</time></trkpt><trkpt lat="44.4378479" lon="8.153197"><ele>378.0</ele><time>2026-04-04T12:39:37.972Z</time></trkpt><trkpt lat="44.437904" lon="8.1530514"><ele>377.0</ele><time>2026-04-04T12:39:38.972Z</time></trkpt><trkpt lat="44.4379607" lon="8.1529219"><ele>377.33333333333337</ele><time>2026-04-04T12:39:39.972Z</time></trkpt><trkpt lat="44.4380186" lon="8.152805"><ele>377.6666666666667</ele><time>2026-04-04T12:39:40.972Z</time></trkpt><trkpt lat="44.4380736" lon="8.1527073"><ele>378.0</ele><time>2026-04-04T12:39:41.972Z</time></trkpt><trkpt lat="44.4381292" lon="8.1526216"><ele>378.3333333333333</ele><time>2026-04-04T12:39:42.972Z</time></trkpt><trkpt lat="44.4381794" lon="8.1525463"><ele>378.66666666666663</ele><time>2026-04-04T12:39:43.971Z</time></trkpt><trkpt lat="44.4382257" lon="8.1524797"><ele>379.0</ele><time>2026-04-04T12:39:44.972Z</time></trkpt><trkpt lat="44.4382985" lon="8.1523724"><ele>379.0</ele><time>2026-04-04T12:39:46.971Z</time></trkpt><trkpt lat="44.4383082" lon="8.1522789"><ele>379.0</ele><time>2026-04-04T12:39:48.972Z</time></trkpt><trkpt lat="44.4382175" lon="8.1523657"><ele>379.0</ele><time>2026-04-04T12:39:51.971Z</time></trkpt><trkpt lat="44.4381486" lon="8.152475"><ele>379.0</ele><time>2026-04-04T12:39:52.971Z</time></trkpt><trkpt lat="44.4380575" lon="8.1526002"><ele>379.0</ele><time>2026-04-04T12:39:53.972Z</time></trkpt><trkpt lat="44.4379564" lon="8.152739"><ele>376.5</ele><time>2026-04-04T12:39:54.972Z</time></trkpt><trkpt lat="44.4378464" lon="8.1528745"><ele>374.0</ele><time>2026-04-04T12:39:55.971Z</time></trkpt><trkpt lat="44.437742" lon="8.1530039"><ele>371.5</ele><time>2026-04-04T12:39:56.972Z</time></trkpt><trkpt lat="44.4376418" lon="8.1531152"><ele>369.0</ele><time>2026-04-04T12:39:57.972Z</time></trkpt><trkpt lat="44.4375452" lon="8.1531936"><ele>369.0</ele><time>2026-04-04T12:39:58.971Z</time></trkpt><trkpt lat="44.4374381" lon="8.1532304"><ele>369.0</ele><time>2026-04-04T12:39:59.972Z</time></trkpt><trkpt lat="44.437314" lon="8.1532043"><ele>369.0</ele><time>2026-04-04T12:40:00.971Z</time></trkpt><trkpt lat="44.4371825" lon="8.1531231"><ele>369.0</ele><time>2026-04-04T12:40:01.972Z</time></trkpt><trkpt lat="44.4370494" lon="8.1530055"><ele>369.6666666666667</ele><time>2026-04-04T12:40:02.972Z</time></trkpt><trkpt lat="44.4369182" lon="8.1528816"><ele>370.33333333333337</ele><time>2026-04-04T12:40:03.972Z</time></trkpt><trkpt lat="44.4367879" lon="8.1527628"><ele>371.0</ele><time>2026-04-04T12:40:04.971Z</time></trkpt><trkpt lat="44.4366641" lon="8.1526594"><ele>371.0</ele><time>2026-04-04T12:40:05.972Z</time></trkpt><trkpt lat="44.436557" lon="8.1525626"><ele>371.0</ele><time>2026-04-04T12:40:06.972Z</time></trkpt><trkpt lat="44.4364702" lon="8.1524783"><ele>371.0</ele><time>2026-04-04T12:40:07.972Z</time></trkpt><trkpt lat="44.4364059" lon="8.1524106"><ele>371.0</ele><time>2026-04-04T12:40:08.972Z</time></trkpt><trkpt lat="44.4363632" lon="8.1523121"><ele>371.0</ele><time>2026-04-04T12:40:09.971Z</time></trkpt><trkpt lat="44.4363647" lon="8.1521937"><ele>372.0</ele><time>2026-04-04T12:40:10.971Z</time></trkpt><trkpt lat="44.4364064" lon="8.1520504"><ele>373.0</ele><time>2026-04-04T12:40:11.972Z</time></trkpt><trkpt lat="44.4364726" lon="8.151892"><ele>374.0</ele><time>2026-04-04T12:40:12.972Z</time></trkpt><trkpt lat="44.4365442" lon="8.1517267"><ele>375.0</ele><time>2026-04-04T12:40:13.972Z</time></trkpt><trkpt lat="44.4366018" lon="8.1515529"><ele>374.25</ele><time>2026-04-04T12:40:14.972Z</time></trkpt><trkpt lat="44.4366255" lon="8.1513859"><ele>373.5</ele><time>2026-04-04T12:40:15.972Z</time></trkpt><trkpt lat="44.4366089" lon="8.151213"><ele>372.75</ele><time>2026-04-04T12:40:16.972Z</time></trkpt><trkpt lat="44.4365454" lon="8.1510546"><ele>372.0</ele><time>2026-04-04T12:40:17.972Z</time></trkpt><trkpt lat="44.4364475" lon="8.1509136"><ele>372.0</ele><time>2026-04-04T12:40:18.971Z</time></trkpt><trkpt lat="44.4363457" lon="8.1507839"><ele>372.0</ele><time>2026-04-04T12:40:19.972Z</time></trkpt><trkpt lat="44.4362694" lon="8.1506457"><ele>372.0</ele><time>2026-04-04T12:40:20.972Z</time></trkpt><trkpt lat="44.436237" lon="8.1504853"><ele>372.0</ele><time>2026-04-04T12:40:21.971Z</time></trkpt><trkpt lat="44.4362386" lon="8.1503319"><ele>373.8</ele><time>2026-04-04T12:40:22.972Z</time></trkpt><trkpt lat="44.4362712" lon="8.1501987"><ele>375.6</ele><time>2026-04-04T12:40:23.971Z</time></trkpt><trkpt lat="44.436335" lon="8.1500809"><ele>377.40000000000003</ele><time>2026-04-04T12:40:24.972Z</time></trkpt><trkpt lat="44.4364351" lon="8.1500014"><ele>379.20000000000005</ele><time>2026-04-04T12:40:25.972Z</time></trkpt><trkpt lat="44.4365428" lon="8.1499738"><ele>381.0</ele><time>2026-04-04T12:40:26.972Z</time></trkpt><trkpt lat="44.4366431" lon="8.1499816"><ele>381.0</ele><time>2026-04-04T12:40:27.972Z</time></trkpt><trkpt lat="44.4367366" lon="8.1499777"><ele>381.0</ele><time>2026-04-04T12:40:28.972Z</time></trkpt><trkpt lat="44.4368143" lon="8.1499395"><ele>381.0</ele><time>2026-04-04T12:40:29.972Z</time></trkpt><trkpt lat="44.4368735" lon="8.1498686"><ele>381.0</ele><time>2026-04-04T12:40:30.971Z</time></trkpt><trkpt lat="44.4369022" lon="8.1497746"><ele>381.0</ele><time>2026-04-04T12:40:31.972Z</time></trkpt><trkpt lat="44.4369032" lon="8.1496818"><ele>381.0</ele><time>2026-04-04T12:40:32.971Z</time></trkpt><trkpt lat="44.4368168" lon="8.1496013"><ele>381.0</ele><time>2026-04-04T12:40:34.972Z</time></trkpt><trkpt lat="44.4367514" lon="8.1496332"><ele>381.0</ele><time>2026-04-04T12:40:35.971Z</time></trkpt><trkpt lat="44.436679" lon="8.1497089"><ele>381.0</ele><time>2026-04-04T12:40:36.972Z</time></trkpt><trkpt lat="44.4365838" lon="8.1497978"><ele>381.0</ele><time>2026-04-04T12:40:37.972Z</time></trkpt><trkpt lat="44.4364858" lon="8.149868"><ele>381.0</ele><time>2026-04-04T12:40:38.972Z</time></trkpt><trkpt lat="44.4363707" lon="8.1498872"><ele>383.75</ele><time>2026-04-04T12:40:39.972Z</time></trkpt><trkpt lat="44.4362467" lon="8.1498639"><ele>386.5</ele><time>2026-04-04T12:40:40.972Z</time></trkpt><trkpt lat="44.436126" lon="8.149808"><ele>389.25</ele><time>2026-04-04T12:40:41.971Z</time></trkpt><trkpt lat="44.4360122" lon="8.1496893"><ele>392.0</ele><time>2026-04-04T12:40:42.971Z</time></trkpt><trkpt lat="44.4359244" lon="8.1495206"><ele>392.0</ele><time>2026-04-04T12:40:43.972Z</time></trkpt><trkpt lat="44.4358531" lon="8.1493499"><ele>392.0</ele><time>2026-04-04T12:40:44.971Z</time></trkpt><trkpt lat="44.4357953" lon="8.149234"><ele>392.0</ele><time>2026-04-04T12:40:45.971Z</time></trkpt><trkpt lat="44.4357408" lon="8.1491769"><ele>392.0</ele><time>2026-04-04T12:40:46.972Z</time></trkpt><trkpt lat="44.4356341" lon="8.149229"><ele>392.0</ele><time>2026-04-04T12:40:48.971Z</time></trkpt><trkpt lat="44.4355912" lon="8.149356"><ele>392.0</ele><time>2026-04-04T12:40:49.972Z</time></trkpt><trkpt lat="44.4355569" lon="8.1495381"><ele>392.0</ele><time>2026-04-04T12:40:50.972Z</time></trkpt><trkpt lat="44.4355141" lon="8.1496905"><ele>392.0</ele><time>2026-04-04T12:40:51.971Z</time></trkpt><trkpt lat="44.4354584" lon="8.1497883"><ele>392.0</ele><time>2026-04-04T12:40:52.971Z</time></trkpt><trkpt lat="44.4353838" lon="8.1498306"><ele>392.0</ele><time>2026-04-04T12:40:53.971Z</time></trkpt><trkpt lat="44.4352738" lon="8.1498447"><ele>394.3333333333333</ele><time>2026-04-04T12:40:54.972Z</time></trkpt><trkpt lat="44.4351366" lon="8.1498227"><ele>396.66666666666663</ele><time>2026-04-04T12:40:55.972Z</time></trkpt><trkpt lat="44.434974" lon="8.1497861"><ele>399.0</ele><time>2026-04-04T12:40:56.972Z</time></trkpt><trkpt lat="44.4347928" lon="8.1497304"><ele>400.0</ele><time>2026-04-04T12:40:57.971Z</time></trkpt><trkpt lat="44.4346123" lon="8.1496582"><ele>401.0</ele><time>2026-04-04T12:40:58.972Z</time></trkpt><trkpt lat="44.4344432" lon="8.1495964"><ele>402.0</ele><time>2026-04-04T12:40:59.972Z</time></trkpt><trkpt lat="44.4343048" lon="8.1495407"><ele>402.0</ele><time>2026-04-04T12:41:00.972Z</time></trkpt><trkpt lat="44.4341984" lon="8.1494966"><ele>402.0</ele><time>2026-04-04T12:41:01.972Z</time></trkpt><trkpt lat="44.4341172" lon="8.1494529"><ele>402.0</ele><time>2026-04-04T12:41:02.971Z</time></trkpt><trkpt lat="44.4340638" lon="8.1493966"><ele>402.0</ele><time>2026-04-04T12:41:03.971Z</time></trkpt><trkpt lat="44.434038" lon="8.1492691"><ele>402.0</ele><time>2026-04-04T12:41:05.972Z</time></trkpt><trkpt lat="44.434121" lon="8.1492439"><ele>402.0</ele><time>2026-04-04T12:41:07.971Z</time></trkpt><trkpt lat="44.4342199" lon="8.1493058"><ele>402.0</ele><time>2026-04-04T12:41:08.972Z</time></trkpt><trkpt lat="44.4343438" lon="8.1493791"><ele>402.0</ele><time>2026-04-04T12:41:09.972Z</time></trkpt><trkpt lat="44.434456" lon="8.1494307"><ele>402.0</ele><time>2026-04-04T12:41:10.972Z</time></trkpt><trkpt lat="44.4345527" lon="8.1494471"><ele>402.0</ele><time>2026-04-04T12:41:11.972Z</time></trkpt><trkpt lat="44.4346308" lon="8.1494284"><ele>402.0</ele><time>2026-04-04T12:41:12.972Z</time></trkpt><trkpt lat="44.4346812" lon="8.1493609"><ele>401.25</ele><time>2026-04-04T12:41:13.971Z</time></trkpt><trkpt lat="44.4346875" lon="8.1492666"><ele>400.5</ele><time>2026-04-04T12:41:14.971Z</time></trkpt><trkpt lat="44.4346442" lon="8.1491404"><ele>399.75</ele><time>2026-04-04T12:41:15.97Z</time></trkpt><trkpt lat="44.4345595" lon="8.1490048"><ele>399.0</ele><time>2026-04-04T12:41:16.971Z</time></trkpt><trkpt lat="44.4344307" lon="8.1488692"><ele>402.33333333333337</ele><time>2026-04-04T12:41:17.97Z</time></trkpt><trkpt lat="44.4342584" lon="8.1487117"><ele>405.6666666666667</ele><time>2026-04-04T12:41:18.971Z</time></trkpt><trkpt lat="44.4340873" lon="8.1485474"><ele>409.0</ele><time>2026-04-04T12:41:19.971Z</time></trkpt><trkpt lat="44.4339273" lon="8.1483912"><ele>411.0</ele><time>2026-04-04T12:41:20.971Z</time></trkpt><trkpt lat="44.4337762" lon="8.1482509"><ele>413.0</ele><time>2026-04-04T12:41:21.971Z</time></trkpt><trkpt lat="44.433618" lon="8.1481381"><ele>415.0</ele><time>2026-04-04T12:41:22.971Z</time></trkpt><trkpt lat="44.433446" lon="8.1480459"><ele>415.6666666666667</ele><time>2026-04-04T12:41:23.971Z</time></trkpt><trkpt lat="44.4332509" lon="8.1479815"><ele>416.33333333333337</ele><time>2026-04-04T12:41:24.97Z</time></trkpt><trkpt lat="44.4330272" lon="8.1479324"><ele>417.0</ele><time>2026-04-04T12:41:25.97Z</time></trkpt><trkpt lat="44.4327854" lon="8.1478892"><ele>420.0</ele><time>2026-04-04T12:41:26.971Z</time></trkpt><trkpt lat="44.4325516" lon="8.1478441"><ele>423.0</ele><time>2026-04-04T12:41:27.971Z</time></trkpt><trkpt lat="44.432337" lon="8.1477937"><ele>423.0</ele><time>2026-04-04T12:41:28.971Z</time></trkpt><trkpt lat="44.4321402" lon="8.1477457"><ele>423.0</ele><time>2026-04-04T12:41:29.97Z</time></trkpt><trkpt lat="44.4319642" lon="8.1476802"><ele>423.0</ele><time>2026-04-04T12:41:30.971Z</time></trkpt><trkpt lat="44.4317868" lon="8.1475752"><ele>425.33333333333337</ele><time>2026-04-04T12:41:31.97Z</time></trkpt><trkpt lat="44.4316189" lon="8.1474488"><ele>427.6666666666667</ele><time>2026-04-04T12:41:32.97Z</time></trkpt><trkpt lat="44.4314539" lon="8.1473116"><ele>430.0</ele><time>2026-04-04T12:41:33.971Z</time></trkpt><trkpt lat="44.4312853" lon="8.1471761"><ele>432.33333333333337</ele><time>2026-04-04T12:41:34.971Z</time></trkpt><trkpt lat="44.4311079" lon="8.1470367"><ele>434.66666666666663</ele><time>2026-04-04T12:41:35.971Z</time></trkpt><trkpt lat="44.4309267" lon="8.1468975"><ele>437.0</ele><time>2026-04-04T12:41:36.971Z</time></trkpt><trkpt lat="44.4307482" lon="8.1467603"><ele>437.0</ele><time>2026-04-04T12:41:37.97Z</time></trkpt><trkpt lat="44.4305671" lon="8.1466281"><ele>437.0</ele><time>2026-04-04T12:41:38.971Z</time></trkpt><trkpt lat="44.4303946" lon="8.1464959"><ele>437.0</ele><time>2026-04-04T12:41:39.971Z</time></trkpt><trkpt lat="44.4302264" lon="8.1463841"><ele>441.0</ele><time>2026-04-04T12:41:40.971Z</time></trkpt><trkpt lat="44.4300677" lon="8.1462775"><ele>445.0</ele><time>2026-04-04T12:41:41.971Z</time></trkpt><trkpt lat="44.4299119" lon="8.1461635"><ele>449.0</ele><time>2026-04-04T12:41:42.971Z</time></trkpt><trkpt lat="44.4297641" lon="8.1460338"><ele>448.66666666666663</ele><time>2026-04-04T12:41:43.971Z</time></trkpt><trkpt lat="44.4296219" lon="8.1458894"><ele>448.33333333333337</ele><time>2026-04-04T12:41:44.971Z</time></trkpt><trkpt lat="44.4294699" lon="8.1457334"><ele>448.0</ele><time>2026-04-04T12:41:45.97Z</time></trkpt><trkpt lat="44.4293191" lon="8.1455832"><ele>448.0</ele><time>2026-04-04T12:41:46.971Z</time></trkpt><trkpt lat="44.4291617" lon="8.1454452"><ele>448.0</ele><time>2026-04-04T12:41:47.971Z</time></trkpt><trkpt lat="44.4289946" lon="8.145319"><ele>448.0</ele><time>2026-04-04T12:41:48.971Z</time></trkpt><trkpt lat="44.4288159" lon="8.1451924"><ele>447.0</ele><time>2026-04-04T12:41:49.971Z</time></trkpt><trkpt lat="44.4286337" lon="8.14507"><ele>446.0</ele><time>2026-04-04T12:41:50.97Z</time></trkpt><trkpt lat="44.4284449" lon="8.1449493"><ele>445.0</ele><time>2026-04-04T12:41:51.971Z</time></trkpt><trkpt lat="44.4282564" lon="8.1448115"><ele>446.33333333333337</ele><time>2026-04-04T12:41:52.971Z</time></trkpt><trkpt lat="44.428087" lon="8.1446642"><ele>447.66666666666663</ele><time>2026-04-04T12:41:53.971Z</time></trkpt><trkpt lat="44.4279431" lon="8.1445148"><ele>449.0</ele><time>2026-04-04T12:41:54.971Z</time></trkpt><trkpt lat="44.4278149" lon="8.1443271"><ele>449.0</ele><time>2026-04-04T12:41:55.971Z</time></trkpt><trkpt lat="44.4276935" lon="8.1441305"><ele>449.0</ele><time>2026-04-04T12:41:56.971Z</time></trkpt><trkpt lat="44.4275844" lon="8.1439179"><ele>449.0</ele><time>2026-04-04T12:41:57.971Z</time></trkpt><trkpt lat="44.4274853" lon="8.143718"><ele>454.0</ele><time>2026-04-04T12:41:58.971Z</time></trkpt><trkpt lat="44.4273921" lon="8.143534"><ele>459.0</ele><time>2026-04-04T12:41:59.971Z</time></trkpt><trkpt lat="44.4272885" lon="8.1433632"><ele>464.0</ele><time>2026-04-04T12:42:00.97Z</time></trkpt><trkpt lat="44.4271674" lon="8.1432083"><ele>465.3333333333333</ele><time>2026-04-04T12:42:01.97Z</time></trkpt><trkpt lat="44.4270324" lon="8.1430773"><ele>466.66666666666663</ele><time>2026-04-04T12:42:02.971Z</time></trkpt><trkpt lat="44.42689" lon="8.1429538"><ele>468.0</ele><time>2026-04-04T12:42:03.971Z</time></trkpt><trkpt lat="44.4267218" lon="8.1428384"><ele>468.0</ele><time>2026-04-04T12:42:04.97Z</time></trkpt><trkpt lat="44.4265424" lon="8.1427096"><ele>468.0</ele><time>2026-04-04T12:42:05.97Z</time></trkpt><trkpt lat="44.4263553" lon="8.1425647"><ele>468.0</ele><time>2026-04-04T12:42:06.971Z</time></trkpt><trkpt lat="44.4261736" lon="8.1424177"><ele>468.66666666666663</ele><time>2026-04-04T12:42:07.97Z</time></trkpt><trkpt lat="44.4260048" lon="8.1422846"><ele>469.3333333333333</ele><time>2026-04-04T12:42:08.971Z</time></trkpt><trkpt lat="44.4258535" lon="8.1421595"><ele>470.0</ele><time>2026-04-04T12:42:09.97Z</time></trkpt><trkpt lat="44.425715" lon="8.1420674"><ele>470.0</ele><time>2026-04-04T12:42:10.97Z</time></trkpt><trkpt lat="44.4255956" lon="8.1420052"><ele>470.0</ele><time>2026-04-04T12:42:11.971Z</time></trkpt><trkpt lat="44.4254866" lon="8.1419727"><ele>470.0</ele><time>2026-04-04T12:42:12.971Z</time></trkpt><trkpt lat="44.4253758" lon="8.1419862"><ele>470.0</ele><time>2026-04-04T12:42:13.97Z</time></trkpt><trkpt lat="44.4252557" lon="8.1420536"><ele>474.3333333333333</ele><time>2026-04-04T12:42:14.97Z</time></trkpt><trkpt lat="44.4251222" lon="8.1421733"><ele>478.66666666666663</ele><time>2026-04-04T12:42:15.97Z</time></trkpt><trkpt lat="44.4249859" lon="8.1423033"><ele>483.0</ele><time>2026-04-04T12:42:16.97Z</time></trkpt><trkpt lat="44.4248411" lon="8.1424255"><ele>483.0</ele><time>2026-04-04T12:42:17.97Z</time></trkpt><trkpt lat="44.424678" lon="8.1425481"><ele>483.0</ele><time>2026-04-04T12:42:18.971Z</time></trkpt><trkpt lat="44.4245047" lon="8.1426757"><ele>483.0</ele><time>2026-04-04T12:42:19.971Z</time></trkpt><trkpt lat="44.4243256" lon="8.1428104"><ele>487.33333333333337</ele><time>2026-04-04T12:42:20.97Z</time></trkpt><trkpt lat="44.4241404" lon="8.142947"><ele>491.6666666666667</ele><time>2026-04-04T12:42:21.971Z</time></trkpt><trkpt lat="44.4239602" lon="8.1430813"><ele>496.0</ele><time>2026-04-04T12:42:22.97Z</time></trkpt><trkpt lat="44.4237977" lon="8.1432039"><ele>498.6666666666667</ele><time>2026-04-04T12:42:23.971Z</time></trkpt><trkpt lat="44.4236422" lon="8.1433196"><ele>501.33333333333337</ele><time>2026-04-04T12:42:24.97Z</time></trkpt><trkpt lat="44.4234927" lon="8.1434295"><ele>504.0</ele><time>2026-04-04T12:42:25.971Z</time></trkpt><trkpt lat="44.4233472" lon="8.1435417"><ele>504.0</ele><time>2026-04-04T12:42:26.97Z</time></trkpt><trkpt lat="44.4232135" lon="8.1436389"><ele>504.0</ele><time>2026-04-04T12:42:27.971Z</time></trkpt><trkpt lat="44.4230892" lon="8.143708"><ele>504.0</ele><time>2026-04-04T12:42:28.971Z</time></trkpt><trkpt lat="44.4229538" lon="8.143734"><ele>504.0</ele><time>2026-04-04T12:42:29.97Z</time></trkpt><trkpt lat="44.4228142" lon="8.1436914"><ele>509.0</ele><time>2026-04-04T12:42:30.971Z</time></trkpt><trkpt lat="44.4226796" lon="8.1435689"><ele>514.0</ele><time>2026-04-04T12:42:31.971Z</time></trkpt><trkpt lat="44.4225504" lon="8.1434031"><ele>519.0</ele><time>2026-04-04T12:42:32.971Z</time></trkpt><trkpt lat="44.4224212" lon="8.1432085"><ele>519.0</ele><time>2026-04-04T12:42:33.971Z</time></trkpt><trkpt lat="44.4222938" lon="8.1429947"><ele>519.0</ele><time>2026-04-04T12:42:34.971Z</time></trkpt><trkpt lat="44.4221764" lon="8.1427662"><ele>519.0</ele><time>2026-04-04T12:42:35.97Z</time></trkpt><trkpt lat="44.4220559" lon="8.1425166"><ele>529.3333333333334</ele><time>2026-04-04T12:42:36.971Z</time></trkpt><trkpt lat="44.4219346" lon="8.142257"><ele>539.6666666666667</ele><time>2026-04-04T12:42:37.971Z</time></trkpt><trkpt lat="44.4218214" lon="8.1419987"><ele>550.0</ele><time>2026-04-04T12:42:38.97Z</time></trkpt><trkpt lat="44.4217273" lon="8.1417459"><ele>547.3333333333334</ele><time>2026-04-04T12:42:39.971Z</time></trkpt><trkpt lat="44.4216703" lon="8.1415113"><ele>544.6666666666666</ele><time>2026-04-04T12:42:40.971Z</time></trkpt><trkpt lat="44.4216425" lon="8.1412883"><ele>542.0</ele><time>2026-04-04T12:42:41.971Z</time></trkpt><trkpt lat="44.4216282" lon="8.1410811"><ele>542.0</ele><time>2026-04-04T12:42:42.971Z</time></trkpt><trkpt lat="44.4215976" lon="8.1409027"><ele>542.0</ele><time>2026-04-04T12:42:43.97Z</time></trkpt><trkpt lat="44.421542" lon="8.1407388"><ele>542.0</ele><time>2026-04-04T12:42:44.97Z</time></trkpt><trkpt lat="44.4214619" lon="8.1405924"><ele>542.0</ele><time>2026-04-04T12:42:45.97Z</time></trkpt><trkpt lat="44.4213523" lon="8.140472"><ele>544.3333333333333</ele><time>2026-04-04T12:42:46.971Z</time></trkpt><trkpt lat="44.4212043" lon="8.1403738"><ele>546.6666666666666</ele><time>2026-04-04T12:42:47.97Z</time></trkpt><trkpt lat="44.4210324" lon="8.1402838"><ele>549.0</ele><time>2026-04-04T12:42:48.97Z</time></trkpt><trkpt lat="44.4208565" lon="8.1401933"><ele>549.0</ele><time>2026-04-04T12:42:49.971Z</time></trkpt><trkpt lat="44.4206704" lon="8.1400906"><ele>549.0</ele><time>2026-04-04T12:42:50.971Z</time></trkpt><trkpt lat="44.4204962" lon="8.1399812"><ele>549.0</ele><time>2026-04-04T12:42:51.971Z</time></trkpt><trkpt lat="44.4203109" lon="8.139867"><ele>554.0</ele><time>2026-04-04T12:42:52.97Z</time></trkpt><trkpt lat="44.4201023" lon="8.1397642"><ele>559.0</ele><time>2026-04-04T12:42:53.971Z</time></trkpt><trkpt lat="44.4199147" lon="8.1396276"><ele>564.0</ele><time>2026-04-04T12:42:54.97Z</time></trkpt><trkpt lat="44.4197528" lon="8.1394824"><ele>569.6666666666666</ele><time>2026-04-04T12:42:55.97Z</time></trkpt><trkpt lat="44.419599" lon="8.1393483"><ele>575.3333333333333</ele><time>2026-04-04T12:42:56.971Z</time></trkpt><trkpt lat="44.4194432" lon="8.1392384"><ele>581.0</ele><time>2026-04-04T12:42:57.97Z</time></trkpt><trkpt lat="44.4192842" lon="8.139152"><ele>581.0</ele><time>2026-04-04T12:42:58.971Z</time></trkpt><trkpt lat="44.4191232" lon="8.1391043"><ele>581.0</ele><time>2026-04-04T12:42:59.971Z</time></trkpt><trkpt lat="44.4189681" lon="8.1391014"><ele>581.0</ele><time>2026-04-04T12:43:00.971Z</time></trkpt><trkpt lat="44.4188193" lon="8.1391765"><ele>585.6666666666666</ele><time>2026-04-04T12:43:01.971Z</time></trkpt><trkpt lat="44.4186687" lon="8.1393116"><ele>590.3333333333334</ele><time>2026-04-04T12:43:02.971Z</time></trkpt><trkpt lat="44.4185181" lon="8.1394877"><ele>595.0</ele><time>2026-04-04T12:43:03.971Z</time></trkpt><trkpt lat="44.4183576" lon="8.1396654"><ele>595.0</ele><time>2026-04-04T12:43:04.971Z</time></trkpt><trkpt lat="44.4182026" lon="8.1398064"><ele>595.0</ele><time>2026-04-04T12:43:05.97Z</time></trkpt><trkpt lat="44.4180707" lon="8.1398982"><ele>595.0</ele><time>2026-04-04T12:43:06.971Z</time></trkpt><trkpt lat="44.4179523" lon="8.1399348"><ele>597.5</ele><time>2026-04-04T12:43:07.97Z</time></trkpt><trkpt lat="44.4178267" lon="8.1399097"><ele>600.0</ele><time>2026-04-04T12:43:08.971Z</time></trkpt><trkpt lat="44.4177013" lon="8.1398229"><ele>602.5</ele><time>2026-04-04T12:43:09.971Z</time></trkpt><trkpt lat="44.4175602" lon="8.1396746"><ele>605.0</ele><time>2026-04-04T12:43:10.971Z</time></trkpt><trkpt lat="44.4174202" lon="8.1395159"><ele>605.0</ele><time>2026-04-04T12:43:11.971Z</time></trkpt><trkpt lat="44.417281" lon="8.1393792"><ele>605.0</ele><time>2026-04-04T12:43:12.971Z</time></trkpt><trkpt lat="44.4171417" lon="8.1392626"><ele>605.0</ele><time>2026-04-04T12:43:13.971Z</time></trkpt><trkpt lat="44.4170118" lon="8.1391764"><ele>607.0</ele><time>2026-04-04T12:43:14.971Z</time></trkpt><trkpt lat="44.4169093" lon="8.1391107"><ele>609.0</ele><time>2026-04-04T12:43:15.971Z</time></trkpt><trkpt lat="44.4168267" lon="8.1390595"><ele>611.0</ele><time>2026-04-04T12:43:16.97Z</time></trkpt><trkpt lat="44.4167782" lon="8.1389195"><ele>613.0</ele><time>2026-04-04T12:43:18.971Z</time></trkpt><trkpt lat="44.4167995" lon="8.1388296"><ele>615.0</ele><time>2026-04-04T12:43:19.971Z</time></trkpt><trkpt lat="44.4168413" lon="8.1387424"><ele>616.0</ele><time>2026-04-04T12:43:20.971Z</time></trkpt><trkpt lat="44.4169223" lon="8.138657"><ele>617.0</ele><time>2026-04-04T12:43:21.97Z</time></trkpt><trkpt lat="44.4170359" lon="8.1385683"><ele>618.0</ele><time>2026-04-04T12:43:22.97Z</time></trkpt><trkpt lat="44.4171974" lon="8.1384684"><ele>619.0</ele><time>2026-04-04T12:43:23.971Z</time></trkpt><trkpt lat="44.4174006" lon="8.1384099"><ele>619.0</ele><time>2026-04-04T12:43:24.971Z</time></trkpt><trkpt lat="44.4176065" lon="8.1384019"><ele>619.0</ele><time>2026-04-04T12:43:25.971Z</time></trkpt><trkpt lat="44.4177712" lon="8.1384044"><ele>619.0</ele><time>2026-04-04T12:43:26.971Z</time></trkpt><trkpt lat="44.4178806" lon="8.1383854"><ele>619.0</ele><time>2026-04-04T12:43:27.971Z</time></trkpt><trkpt lat="44.4179536" lon="8.1383362"><ele>619.0</ele><time>2026-04-04T12:43:28.971Z</time></trkpt><trkpt lat="44.4179998" lon="8.1382693"><ele>619.0</ele><time>2026-04-04T12:43:29.971Z</time></trkpt><trkpt lat="44.4179741" lon="8.1381419"><ele>619.0</ele><time>2026-04-04T12:43:31.971Z</time></trkpt><trkpt lat="44.4178997" lon="8.1381156"><ele>619.0</ele><time>2026-04-04T12:43:32.971Z</time></trkpt><trkpt lat="44.4177691" lon="8.1381263"><ele>622.0</ele><time>2026-04-04T12:43:33.971Z</time></trkpt><trkpt lat="44.4176098" lon="8.1381587"><ele>625.0</ele><time>2026-04-04T12:43:34.97Z</time></trkpt><trkpt lat="44.4173897" lon="8.1381974"><ele>628.0</ele><time>2026-04-04T12:43:35.971Z</time></trkpt><trkpt lat="44.4171811" lon="8.1382031"><ele>628.3333333333334</ele><time>2026-04-04T12:43:36.97Z</time></trkpt><trkpt lat="44.4170145" lon="8.1381415"><ele>628.6666666666666</ele><time>2026-04-04T12:43:37.971Z</time></trkpt><trkpt lat="44.4168649" lon="8.1380036"><ele>629.0</ele><time>2026-04-04T12:43:38.97Z</time></trkpt><trkpt lat="44.4167226" lon="8.137817"><ele>629.0</ele><time>2026-04-04T12:43:39.97Z</time></trkpt><trkpt lat="44.4165698" lon="8.1376065"><ele>629.0</ele><time>2026-04-04T12:43:40.971Z</time></trkpt><trkpt lat="44.4164083" lon="8.1373946"><ele>629.0</ele><time>2026-04-04T12:43:41.971Z</time></trkpt><trkpt lat="44.416258" lon="8.1372011"><ele>635.3333333333333</ele><time>2026-04-04T12:43:42.971Z</time></trkpt><trkpt lat="44.4161288" lon="8.137024"><ele>641.6666666666666</ele><time>2026-04-04T12:43:43.971Z</time></trkpt><trkpt lat="44.4160183" lon="8.1368503"><ele>648.0</ele><time>2026-04-04T12:43:44.971Z</time></trkpt><trkpt lat="44.4159255" lon="8.1366713"><ele>652.0</ele><time>2026-04-04T12:43:45.971Z</time></trkpt><trkpt lat="44.4158543" lon="8.1364953"><ele>656.0</ele><time>2026-04-04T12:43:46.971Z</time></trkpt><trkpt lat="44.4157827" lon="8.13633"><ele>660.0</ele><time>2026-04-04T12:43:47.97Z</time></trkpt><trkpt lat="44.4156858" lon="8.136185"><ele>664.0</ele><time>2026-04-04T12:43:48.97Z</time></trkpt><trkpt lat="44.4155593" lon="8.1360817"><ele>664.0</ele><time>2026-04-04T12:43:49.971Z</time></trkpt><trkpt lat="44.4154227" lon="8.136007"><ele>664.0</ele><time>2026-04-04T12:43:50.971Z</time></trkpt><trkpt lat="44.4152675" lon="8.1359451"><ele>664.0</ele><time>2026-04-04T12:43:51.97Z</time></trkpt><trkpt lat="44.4150946" lon="8.1358583"><ele>664.0</ele><time>2026-04-04T12:43:52.971Z</time></trkpt><trkpt lat="44.4149137" lon="8.1357638"><ele>664.0</ele><time>2026-04-04T12:43:53.971Z</time></trkpt><trkpt lat="44.414741" lon="8.1356956"><ele>664.0</ele><time>2026-04-04T12:43:54.971Z</time></trkpt><trkpt lat="44.414587" lon="8.1356247"><ele>667.0</ele><time>2026-04-04T12:43:55.971Z</time></trkpt><trkpt lat="44.4144434" lon="8.1355426"><ele>670.0</ele><time>2026-04-04T12:43:56.971Z</time></trkpt><trkpt lat="44.4142938" lon="8.1354834"><ele>673.0</ele><time>2026-04-04T12:43:57.97Z</time></trkpt><trkpt lat="44.4141397" lon="8.1354238"><ele>673.0</ele><time>2026-04-04T12:43:58.971Z</time></trkpt><trkpt lat="44.4139654" lon="8.1353684"><ele>673.0</ele><time>2026-04-04T12:43:59.971Z</time></trkpt><trkpt lat="44.4137738" lon="8.1353016"><ele>673.0</ele><time>2026-04-04T12:44:00.971Z</time></trkpt><trkpt lat="44.4135665" lon="8.1352229"><ele>669.6666666666667</ele><time>2026-04-04T12:44:01.97Z</time></trkpt><trkpt lat="44.413358" lon="8.1351349"><ele>666.3333333333334</ele><time>2026-04-04T12:44:02.971Z</time></trkpt><trkpt lat="44.4131514" lon="8.1350429"><ele>663.0</ele><time>2026-04-04T12:44:03.97Z</time></trkpt><trkpt lat="44.4129502" lon="8.1349502"><ele>660.6666666666666</ele><time>2026-04-04T12:44:04.971Z</time></trkpt><trkpt lat="44.4127526" lon="8.134827"><ele>658.3333333333333</ele><time>2026-04-04T12:44:05.97Z</time></trkpt><trkpt lat="44.4125623" lon="8.1346836"><ele>656.0</ele><time>2026-04-04T12:44:06.97Z</time></trkpt><trkpt lat="44.4123784" lon="8.1345344"><ele>656.0</ele><time>2026-04-04T12:44:07.971Z</time></trkpt><trkpt lat="44.4122003" lon="8.1343758"><ele>656.0</ele><time>2026-04-04T12:44:08.971Z</time></trkpt><trkpt lat="44.4120313" lon="8.1341881"><ele>656.0</ele><time>2026-04-04T12:44:09.97Z</time></trkpt><trkpt lat="44.4118613" lon="8.1339926"><ele>653.5</ele><time>2026-04-04T12:44:10.971Z</time></trkpt><trkpt lat="44.4116894" lon="8.1337775"><ele>651.0</ele><time>2026-04-04T12:44:11.971Z</time></trkpt><trkpt lat="44.4115107" lon="8.1335578"><ele>651.0</ele><time>2026-04-04T12:44:12.97Z</time></trkpt><trkpt lat="44.4113322" lon="8.1333411"><ele>651.0</ele><time>2026-04-04T12:44:13.971Z</time></trkpt><trkpt lat="44.4111529" lon="8.1331196"><ele>650.0</ele><time>2026-04-04T12:44:14.971Z</time></trkpt><trkpt lat="44.4109756" lon="8.1328899"><ele>649.0</ele><time>2026-04-04T12:44:15.971Z</time></trkpt><trkpt lat="44.410789" lon="8.1326613"><ele>649.0</ele><time>2026-04-04T12:44:16.971Z</time></trkpt><trkpt lat="44.4106052" lon="8.1324411"><ele>649.0</ele><time>2026-04-04T12:44:17.971Z</time></trkpt><trkpt lat="44.4104273" lon="8.1322336"><ele>646.5</ele><time>2026-04-04T12:44:18.971Z</time></trkpt><trkpt lat="44.4102557" lon="8.1320301"><ele>644.0</ele><time>2026-04-04T12:44:19.971Z</time></trkpt><trkpt lat="44.4100833" lon="8.1318244"><ele>644.0</ele><time>2026-04-04T12:44:20.971Z</time></trkpt><trkpt lat="44.4099077" lon="8.1316202"><ele>644.0</ele><time>2026-04-04T12:44:21.971Z</time></trkpt><trkpt lat="44.4097287" lon="8.131418"><ele>643.3333333333333</ele><time>2026-04-04T12:44:22.971Z</time></trkpt><trkpt lat="44.409553" lon="8.1312096"><ele>642.6666666666666</ele><time>2026-04-04T12:44:23.97Z</time></trkpt><trkpt lat="44.4093892" lon="8.1310087"><ele>642.0</ele><time>2026-04-04T12:44:24.971Z</time></trkpt><trkpt lat="44.4092362" lon="8.1308237"><ele>643.0</ele><time>2026-04-04T12:44:25.971Z</time></trkpt><trkpt lat="44.4090907" lon="8.130654"><ele>644.0</ele><time>2026-04-04T12:44:26.97Z</time></trkpt><trkpt lat="44.4089555" lon="8.1305065"><ele>645.0</ele><time>2026-04-04T12:44:27.971Z</time></trkpt><trkpt lat="44.4088346" lon="8.1303653"><ele>643.0</ele><time>2026-04-04T12:44:28.97Z</time></trkpt><trkpt lat="44.4087308" lon="8.1302273"><ele>641.0</ele><time>2026-04-04T12:44:29.97Z</time></trkpt><trkpt lat="44.4086325" lon="8.1300926"><ele>639.0</ele><time>2026-04-04T12:44:30.971Z</time></trkpt><trkpt lat="44.4085482" lon="8.1299331"><ele>637.0</ele><time>2026-04-04T12:44:31.971Z</time></trkpt><trkpt lat="44.4084827" lon="8.1297454"><ele>636.6666666666667</ele><time>2026-04-04T12:44:32.971Z</time></trkpt><trkpt lat="44.4084262" lon="8.1295343"><ele>636.3333333333334</ele><time>2026-04-04T12:44:33.971Z</time></trkpt><trkpt lat="44.4083787" lon="8.1293165"><ele>636.0</ele><time>2026-04-04T12:44:34.971Z</time></trkpt><trkpt lat="44.4083263" lon="8.1290926"><ele>634.3333333333334</ele><time>2026-04-04T12:44:35.971Z</time></trkpt><trkpt lat="44.4082753" lon="8.1288708"><ele>632.6666666666667</ele><time>2026-04-04T12:44:36.971Z</time></trkpt><trkpt lat="44.4082189" lon="8.1286464"><ele>631.0</ele><time>2026-04-04T12:44:37.971Z</time></trkpt><trkpt lat="44.4081611" lon="8.1284277"><ele>631.0</ele><time>2026-04-04T12:44:38.971Z</time></trkpt><trkpt lat="44.4081078" lon="8.1282205"><ele>631.0</ele><time>2026-04-04T12:44:39.971Z</time></trkpt><trkpt lat="44.4080523" lon="8.1280118"><ele>631.0</ele><time>2026-04-04T12:44:40.971Z</time></trkpt><trkpt lat="44.4079957" lon="8.1277914"><ele>630.0</ele><time>2026-04-04T12:44:41.971Z</time></trkpt><trkpt lat="44.4079409" lon="8.1275535"><ele>629.0</ele><time>2026-04-04T12:44:42.971Z</time></trkpt><trkpt lat="44.4078762" lon="8.1273163"><ele>628.0</ele><time>2026-04-04T12:44:43.971Z</time></trkpt><trkpt lat="44.4078081" lon="8.1270697"><ele>628.0</ele><time>2026-04-04T12:44:44.971Z</time></trkpt><trkpt lat="44.4077375" lon="8.126816"><ele>628.0</ele><time>2026-04-04T12:44:45.971Z</time></trkpt><trkpt lat="44.4076691" lon="8.1265503"><ele>628.0</ele><time>2026-04-04T12:44:46.97Z</time></trkpt><trkpt lat="44.4075979" lon="8.126278"><ele>627.6666666666667</ele><time>2026-04-04T12:44:47.97Z</time></trkpt><trkpt lat="44.4075208" lon="8.1259975"><ele>627.3333333333334</ele><time>2026-04-04T12:44:48.971Z</time></trkpt><trkpt lat="44.4074462" lon="8.1257063"><ele>627.0</ele><time>2026-04-04T12:44:49.971Z</time></trkpt><trkpt lat="44.4073725" lon="8.125411"><ele>627.0</ele><time>2026-04-04T12:44:50.971Z</time></trkpt><trkpt lat="44.4073019" lon="8.1251303"><ele>627.0</ele><time>2026-04-04T12:44:51.97Z</time></trkpt><trkpt lat="44.4072303" lon="8.1248646"><ele>627.0</ele><time>2026-04-04T12:44:52.971Z</time></trkpt><trkpt lat="44.4071583" lon="8.124628"><ele>630.0</ele><time>2026-04-04T12:44:53.971Z</time></trkpt><trkpt lat="44.4070753" lon="8.1244198"><ele>633.0</ele><time>2026-04-04T12:44:54.971Z</time></trkpt><trkpt lat="44.4069849" lon="8.1242367"><ele>636.0</ele><time>2026-04-04T12:44:55.971Z</time></trkpt><trkpt lat="44.4068801" lon="8.1240869"><ele>636.75</ele><time>2026-04-04T12:44:56.971Z</time></trkpt><trkpt lat="44.4067598" lon="8.1239923"><ele>637.5</ele><time>2026-04-04T12:44:57.971Z</time></trkpt><trkpt lat="44.4066307" lon="8.1239473"><ele>638.25</ele><time>2026-04-04T12:44:58.971Z</time></trkpt><trkpt lat="44.4064948" lon="8.123963"><ele>639.0</ele><time>2026-04-04T12:44:59.971Z</time></trkpt><trkpt lat="44.4063621" lon="8.1240232"><ele>639.0</ele><time>2026-04-04T12:45:00.971Z</time></trkpt><trkpt lat="44.4062263" lon="8.1240696"><ele>639.0</ele><time>2026-04-04T12:45:01.971Z</time></trkpt><trkpt lat="44.4060916" lon="8.1240633"><ele>639.0</ele><time>2026-04-04T12:45:02.97Z</time></trkpt><trkpt lat="44.4059565" lon="8.1239793"><ele>639.0</ele><time>2026-04-04T12:45:03.971Z</time></trkpt><trkpt lat="44.4058215" lon="8.1238347"><ele>641.3333333333334</ele><time>2026-04-04T12:45:04.971Z</time></trkpt><trkpt lat="44.4056706" lon="8.1236695"><ele>643.6666666666667</ele><time>2026-04-04T12:45:05.971Z</time></trkpt><trkpt lat="44.4055202" lon="8.1235062"><ele>646.0</ele><time>2026-04-04T12:45:06.971Z</time></trkpt><trkpt lat="44.4053672" lon="8.1233497"><ele>649.0</ele><time>2026-04-04T12:45:07.971Z</time></trkpt><trkpt lat="44.4052186" lon="8.1231755"><ele>652.0</ele><time>2026-04-04T12:45:08.971Z</time></trkpt><trkpt lat="44.4050834" lon="8.1229759"><ele>655.0</ele><time>2026-04-04T12:45:09.971Z</time></trkpt><trkpt lat="44.4049658" lon="8.122726"><ele>655.0</ele><time>2026-04-04T12:45:10.97Z</time></trkpt><trkpt lat="44.4048443" lon="8.1224234"><ele>655.0</ele><time>2026-04-04T12:45:11.97Z</time></trkpt><trkpt lat="44.4047035" lon="8.1220785"><ele>659.0</ele><time>2026-04-04T12:45:12.971Z</time></trkpt><trkpt lat="44.4045454" lon="8.1217134"><ele>663.0</ele><time>2026-04-04T12:45:13.97Z</time></trkpt><trkpt lat="44.4043901" lon="8.1213759"><ele>665.5</ele><time>2026-04-04T12:45:14.971Z</time></trkpt><trkpt lat="44.4042422" lon="8.1210748"><ele>668.0</ele><time>2026-04-04T12:45:15.971Z</time></trkpt><trkpt lat="44.404118" lon="8.1208161"><ele>667.0</ele><time>2026-04-04T12:45:16.97Z</time></trkpt><trkpt lat="44.4040032" lon="8.1205743"><ele>666.0</ele><time>2026-04-04T12:45:17.971Z</time></trkpt><trkpt lat="44.4038964" lon="8.1203569"><ele>665.0</ele><time>2026-04-04T12:45:18.97Z</time></trkpt><trkpt lat="44.4038006" lon="8.1201479"><ele>667.5</ele><time>2026-04-04T12:45:19.971Z</time></trkpt><trkpt lat="44.4037253" lon="8.1199489"><ele>670.0</ele><time>2026-04-04T12:45:20.971Z</time></trkpt><trkpt lat="44.4036765" lon="8.119778"><ele>672.5</ele><time>2026-04-04T12:45:21.971Z</time></trkpt><trkpt lat="44.403648" lon="8.1196344"><ele>675.0</ele><time>2026-04-04T12:45:22.971Z</time></trkpt><trkpt lat="44.4036197" lon="8.1195321"><ele>675.0</ele><time>2026-04-04T12:45:23.971Z</time></trkpt><trkpt lat="44.4035182" lon="8.1194602"><ele>675.0</ele><time>2026-04-04T12:45:25.971Z</time></trkpt><trkpt lat="44.4033922" lon="8.1195342"><ele>675.0</ele><time>2026-04-04T12:45:27.971Z</time></trkpt><trkpt lat="44.4033564" lon="8.1196387"><ele>675.0</ele><time>2026-04-04T12:45:28.97Z</time></trkpt><trkpt lat="44.4033632" lon="8.1197793"><ele>675.0</ele><time>2026-04-04T12:45:29.971Z</time></trkpt><trkpt lat="44.403399" lon="8.1199638"><ele>675.4</ele><time>2026-04-04T12:45:30.971Z</time></trkpt><trkpt lat="44.4034163" lon="8.1201412"><ele>675.8</ele><time>2026-04-04T12:45:31.971Z</time></trkpt><trkpt lat="44.4033885" lon="8.1202996"><ele>676.2</ele><time>2026-04-04T12:45:32.971Z</time></trkpt><trkpt lat="44.4033361" lon="8.1204173"><ele>676.6</ele><time>2026-04-04T12:45:33.971Z</time></trkpt><trkpt lat="44.4032647" lon="8.120483"><ele>677.0</ele><time>2026-04-04T12:45:34.971Z</time></trkpt><trkpt lat="44.4031701" lon="8.1204787"><ele>677.0</ele><time>2026-04-04T12:45:35.971Z</time></trkpt><trkpt lat="44.4030702" lon="8.120404"><ele>677.0</ele><time>2026-04-04T12:45:36.971Z</time></trkpt><trkpt lat="44.4029862" lon="8.1202643"><ele>677.0</ele><time>2026-04-04T12:45:37.97Z</time></trkpt><trkpt lat="44.4029217" lon="8.120078"><ele>677.0</ele><time>2026-04-04T12:45:38.971Z</time></trkpt><trkpt lat="44.4028601" lon="8.1198494"><ele>679.6666666666666</ele><time>2026-04-04T12:45:39.97Z</time></trkpt><trkpt lat="44.4027986" lon="8.1196294"><ele>682.3333333333334</ele><time>2026-04-04T12:45:40.971Z</time></trkpt><trkpt lat="44.40274" lon="8.1194431"><ele>685.0</ele><time>2026-04-04T12:45:41.971Z</time></trkpt><trkpt lat="44.402676" lon="8.119261"><ele>685.0</ele><time>2026-04-04T12:45:42.97Z</time></trkpt><trkpt lat="44.4026114" lon="8.1190852"><ele>685.0</ele><time>2026-04-04T12:45:43.971Z</time></trkpt><trkpt lat="44.40254" lon="8.1189158"><ele>685.0</ele><time>2026-04-04T12:45:44.971Z</time></trkpt><trkpt lat="44.402465" lon="8.1187523"><ele>685.0</ele><time>2026-04-04T12:45:45.971Z</time></trkpt><trkpt lat="44.4023807" lon="8.1185951"><ele>686.5</ele><time>2026-04-04T12:45:46.971Z</time></trkpt><trkpt lat="44.4022859" lon="8.118458"><ele>688.0</ele><time>2026-04-04T12:45:47.971Z</time></trkpt><trkpt lat="44.4021884" lon="8.1183164"><ele>689.5</ele><time>2026-04-04T12:45:48.97Z</time></trkpt><trkpt lat="44.4020907" lon="8.1181981"><ele>691.0</ele><time>2026-04-04T12:45:49.971Z</time></trkpt><trkpt lat="44.4020014" lon="8.1180899"><ele>693.1999999999999</ele><time>2026-04-04T12:45:50.97Z</time></trkpt><trkpt lat="44.4019217" lon="8.1179876"><ele>695.4</ele><time>2026-04-04T12:45:51.971Z</time></trkpt><trkpt lat="44.4018513" lon="8.1179001"><ele>697.6</ele><time>2026-04-04T12:45:52.971Z</time></trkpt><trkpt lat="44.4017971" lon="8.1178266"><ele>699.8</ele><time>2026-04-04T12:45:53.97Z</time></trkpt><trkpt lat="44.4017261" lon="8.1177016"><ele>702.0</ele><time>2026-04-04T12:45:55.97Z</time></trkpt><trkpt lat="44.4016868" lon="8.1175763"><ele>702.0</ele><time>2026-04-04T12:45:57.971Z</time></trkpt><trkpt lat="44.4016537" lon="8.117438"><ele>702.0</ele><time>2026-04-04T12:45:59.971Z</time></trkpt><trkpt lat="44.4015718" lon="8.1173593"><ele>702.0</ele><time>2026-04-04T12:46:01.97Z</time></trkpt><trkpt lat="44.4014704" lon="8.1173858"><ele>702.0</ele><time>2026-04-04T12:46:03.97Z</time></trkpt><trkpt lat="44.4014173" lon="8.1174612"><ele>702.0</ele><time>2026-04-04T12:46:04.971Z</time></trkpt><trkpt lat="44.401348" lon="8.1175697"><ele>703.25</ele><time>2026-04-04T12:46:05.971Z</time></trkpt><trkpt lat="44.4012589" lon="8.1176874"><ele>704.5</ele><time>2026-04-04T12:46:06.97Z</time></trkpt><trkpt lat="44.4011478" lon="8.1178053"><ele>705.75</ele><time>2026-04-04T12:46:07.971Z</time></trkpt><trkpt lat="44.401027" lon="8.1179397"><ele>707.0</ele><time>2026-04-04T12:46:08.971Z</time></trkpt><trkpt lat="44.4008939" lon="8.1180967"><ele>705.0</ele><time>2026-04-04T12:46:09.971Z</time></trkpt><trkpt lat="44.4007649" lon="8.1182792"><ele>703.0</ele><time>2026-04-04T12:46:10.971Z</time></trkpt><trkpt lat="44.4006447" lon="8.1184841"><ele>701.0</ele><time>2026-04-04T12:46:11.971Z</time></trkpt><trkpt lat="44.4005207" lon="8.1187181"><ele>705.3333333333333</ele><time>2026-04-04T12:46:12.97Z</time></trkpt><trkpt lat="44.4004171" lon="8.1189806"><ele>709.6666666666666</ele><time>2026-04-04T12:46:13.97Z</time></trkpt><trkpt lat="44.4003341" lon="8.1192616"><ele>714.0</ele><time>2026-04-04T12:46:14.971Z</time></trkpt><trkpt lat="44.400259" lon="8.1195606"><ele>714.6666666666666</ele><time>2026-04-04T12:46:15.971Z</time></trkpt><trkpt lat="44.4001977" lon="8.1198546"><ele>715.3333333333333</ele><time>2026-04-04T12:46:16.971Z</time></trkpt><trkpt lat="44.4001506" lon="8.1201349"><ele>716.0</ele><time>2026-04-04T12:46:17.97Z</time></trkpt><trkpt lat="44.4001075" lon="8.1204016"><ele>714.6666666666666</ele><time>2026-04-04T12:46:18.97Z</time></trkpt><trkpt lat="44.4000443" lon="8.1206563"><ele>713.3333333333334</ele><time>2026-04-04T12:46:19.971Z</time></trkpt><trkpt lat="44.3999474" lon="8.120892"><ele>712.0</ele><time>2026-04-04T12:46:20.971Z</time></trkpt><trkpt lat="44.3998221" lon="8.121102"><ele>712.0</ele><time>2026-04-04T12:46:21.97Z</time></trkpt><trkpt lat="44.3996804" lon="8.1212996"><ele>712.0</ele><time>2026-04-04T12:46:22.97Z</time></trkpt><trkpt lat="44.3995173" lon="8.1214947"><ele>712.0</ele><time>2026-04-04T12:46:23.97Z</time></trkpt><trkpt lat="44.3993521" lon="8.1216925"><ele>710.6666666666667</ele><time>2026-04-04T12:46:24.97Z</time></trkpt><trkpt lat="44.3991856" lon="8.1218748"><ele>709.3333333333334</ele><time>2026-04-04T12:46:25.97Z</time></trkpt><trkpt lat="44.3990179" lon="8.1220456"><ele>708.0</ele><time>2026-04-04T12:46:26.97Z</time></trkpt><trkpt lat="44.3988527" lon="8.122192"><ele>705.3333333333334</ele><time>2026-04-04T12:46:27.97Z</time></trkpt><trkpt lat="44.3986911" lon="8.1223296"><ele>702.6666666666667</ele><time>2026-04-04T12:46:28.97Z</time></trkpt><trkpt lat="44.3985311" lon="8.1224755"><ele>700.0</ele><time>2026-04-04T12:46:29.97Z</time></trkpt><trkpt lat="44.3983659" lon="8.1226232"><ele>700.0</ele><time>2026-04-04T12:46:30.97Z</time></trkpt><trkpt lat="44.3982084" lon="8.1227613"><ele>700.0</ele><time>2026-04-04T12:46:31.97Z</time></trkpt><trkpt lat="44.3980674" lon="8.1228937"><ele>700.0</ele><time>2026-04-04T12:46:32.97Z</time></trkpt><trkpt lat="44.3979419" lon="8.1230186"><ele>697.0</ele><time>2026-04-04T12:46:33.97Z</time></trkpt><trkpt lat="44.39783" lon="8.123155"><ele>694.0</ele><time>2026-04-04T12:46:34.969Z</time></trkpt><trkpt lat="44.3977409" lon="8.1233186"><ele>691.0</ele><time>2026-04-04T12:46:35.969Z</time></trkpt><trkpt lat="44.3976784" lon="8.123521"><ele>691.0</ele><time>2026-04-04T12:46:36.969Z</time></trkpt><trkpt lat="44.3976586" lon="8.1237387"><ele>691.0</ele><time>2026-04-04T12:46:37.97Z</time></trkpt><trkpt lat="44.3976588" lon="8.12397"><ele>691.0</ele><time>2026-04-04T12:46:38.97Z</time></trkpt><trkpt lat="44.3976654" lon="8.1241994"><ele>690.0</ele><time>2026-04-04T12:46:39.97Z</time></trkpt><trkpt lat="44.397644" lon="8.1244215"><ele>689.0</ele><time>2026-04-04T12:46:40.969Z</time></trkpt><trkpt lat="44.3975792" lon="8.1246227"><ele>688.0</ele><time>2026-04-04T12:46:41.969Z</time></trkpt><trkpt lat="44.3974548" lon="8.1248062"><ele>687.0</ele><time>2026-04-04T12:46:42.97Z</time></trkpt><trkpt lat="44.3972925" lon="8.1249712"><ele>686.0</ele><time>2026-04-04T12:46:43.97Z</time></trkpt><trkpt lat="44.3971084" lon="8.1251131"><ele>685.0</ele><time>2026-04-04T12:46:44.97Z</time></trkpt><trkpt lat="44.3969227" lon="8.1252487"><ele>684.0</ele><time>2026-04-04T12:46:45.97Z</time></trkpt><trkpt lat="44.3967493" lon="8.1253949"><ele>683.0</ele><time>2026-04-04T12:46:46.97Z</time></trkpt><trkpt lat="44.3966012" lon="8.1255614"><ele>682.0</ele><time>2026-04-04T12:46:47.97Z</time></trkpt><trkpt lat="44.3964841" lon="8.1257594"><ele>681.6666666666667</ele><time>2026-04-04T12:46:48.97Z</time></trkpt><trkpt lat="44.3963877" lon="8.1260034"><ele>681.3333333333334</ele><time>2026-04-04T12:46:49.97Z</time></trkpt><trkpt lat="44.3963309" lon="8.1262922"><ele>681.0</ele><time>2026-04-04T12:46:50.97Z</time></trkpt><trkpt lat="44.3962919" lon="8.1265957"><ele>681.0</ele><time>2026-04-04T12:46:51.97Z</time></trkpt><trkpt lat="44.3962552" lon="8.1268909"><ele>681.0</ele><time>2026-04-04T12:46:52.97Z</time></trkpt><trkpt lat="44.3961964" lon="8.1271708"><ele>681.0</ele><time>2026-04-04T12:46:53.97Z</time></trkpt><trkpt lat="44.3960995" lon="8.1274412"><ele>679.5</ele><time>2026-04-04T12:46:54.969Z</time></trkpt><trkpt lat="44.395966" lon="8.1276942"><ele>678.0</ele><time>2026-04-04T12:46:55.97Z</time></trkpt><trkpt lat="44.3957916" lon="8.1279338"><ele>678.0</ele><time>2026-04-04T12:46:56.969Z</time></trkpt><trkpt lat="44.3955947" lon="8.1281399"><ele>678.0</ele><time>2026-04-04T12:46:57.97Z</time></trkpt><trkpt lat="44.3953754" lon="8.1283262"><ele>672.5</ele><time>2026-04-04T12:46:58.97Z</time></trkpt><trkpt lat="44.3951391" lon="8.1284822"><ele>667.0</ele><time>2026-04-04T12:46:59.97Z</time></trkpt><trkpt lat="44.394892" lon="8.1286123"><ele>668.0</ele><time>2026-04-04T12:47:00.97Z</time></trkpt><trkpt lat="44.3946638" lon="8.1287011"><ele>669.0</ele><time>2026-04-04T12:47:01.969Z</time></trkpt><trkpt lat="44.3944522" lon="8.1287255"><ele>670.0</ele><time>2026-04-04T12:47:02.97Z</time></trkpt><trkpt lat="44.3942435" lon="8.128732"><ele>670.0</ele><time>2026-04-04T12:47:03.969Z</time></trkpt><trkpt lat="44.394045" lon="8.1287608"><ele>670.0</ele><time>2026-04-04T12:47:04.97Z</time></trkpt><trkpt lat="44.3938567" lon="8.1288218"><ele>670.0</ele><time>2026-04-04T12:47:05.97Z</time></trkpt><trkpt lat="44.393668" lon="8.1289462"><ele>673.0</ele><time>2026-04-04T12:47:06.97Z</time></trkpt><trkpt lat="44.3934788" lon="8.1291209"><ele>676.0</ele><time>2026-04-04T12:47:07.969Z</time></trkpt><trkpt lat="44.393295" lon="8.1293565"><ele>676.0</ele><time>2026-04-04T12:47:08.97Z</time></trkpt><trkpt lat="44.393108" lon="8.1296053"><ele>676.0</ele><time>2026-04-04T12:47:09.97Z</time></trkpt><trkpt lat="44.39292" lon="8.1298509"><ele>681.0</ele><time>2026-04-04T12:47:10.97Z</time></trkpt><trkpt lat="44.3927171" lon="8.1300723"><ele>686.0</ele><time>2026-04-04T12:47:11.97Z</time></trkpt><trkpt lat="44.3925149" lon="8.1302539"><ele>686.0</ele><time>2026-04-04T12:47:12.97Z</time></trkpt><trkpt lat="44.3923119" lon="8.1303897"><ele>686.0</ele><time>2026-04-04T12:47:13.97Z</time></trkpt><trkpt lat="44.3921188" lon="8.1304704"><ele>686.0</ele><time>2026-04-04T12:47:14.97Z</time></trkpt><trkpt lat="44.3919299" lon="8.130471"><ele>688.3333333333333</ele><time>2026-04-04T12:47:15.969Z</time></trkpt><trkpt lat="44.3917354" lon="8.1304022"><ele>690.6666666666666</ele><time>2026-04-04T12:47:16.969Z</time></trkpt><trkpt lat="44.3915314" lon="8.1302776"><ele>693.0</ele><time>2026-04-04T12:47:17.97Z</time></trkpt><trkpt lat="44.3913595" lon="8.1301383"><ele>694.0</ele><time>2026-04-04T12:47:18.97Z</time></trkpt><trkpt lat="44.391214" lon="8.1300391"><ele>695.0</ele><time>2026-04-04T12:47:19.97Z</time></trkpt><trkpt lat="44.3910791" lon="8.1300048"><ele>696.0</ele><time>2026-04-04T12:47:20.97Z</time></trkpt><trkpt lat="44.3909408" lon="8.1300349"><ele>697.0</ele><time>2026-04-04T12:47:21.97Z</time></trkpt><trkpt lat="44.3908047" lon="8.1301326"><ele>697.0</ele><time>2026-04-04T12:47:22.969Z</time></trkpt><trkpt lat="44.3906853" lon="8.130313"><ele>697.0</ele><time>2026-04-04T12:47:23.97Z</time></trkpt><trkpt lat="44.3905688" lon="8.1305536"><ele>697.0</ele><time>2026-04-04T12:47:24.97Z</time></trkpt><trkpt lat="44.3904253" lon="8.1308147"><ele>699.0</ele><time>2026-04-04T12:47:25.97Z</time></trkpt><trkpt lat="44.3902418" lon="8.1310745"><ele>701.0</ele><time>2026-04-04T12:47:26.97Z</time></trkpt><trkpt lat="44.3900254" lon="8.1313275"><ele>701.0</ele><time>2026-04-04T12:47:27.97Z</time></trkpt><trkpt lat="44.389792" lon="8.1315499"><ele>701.0</ele><time>2026-04-04T12:47:28.97Z</time></trkpt><trkpt lat="44.3895387" lon="8.131731"><ele>704.5</ele><time>2026-04-04T12:47:29.97Z</time></trkpt><trkpt lat="44.3892801" lon="8.1318766"><ele>708.0</ele><time>2026-04-04T12:47:30.97Z</time></trkpt><trkpt lat="44.3890313" lon="8.1319918"><ele>711.0</ele><time>2026-04-04T12:47:31.97Z</time></trkpt><trkpt lat="44.3888082" lon="8.1320914"><ele>714.0</ele><time>2026-04-04T12:47:32.97Z</time></trkpt><trkpt lat="44.3886084" lon="8.1321768"><ele>717.0</ele><time>2026-04-04T12:47:33.97Z</time></trkpt><trkpt lat="44.388421" lon="8.1322262"><ele>717.0</ele><time>2026-04-04T12:47:34.97Z</time></trkpt><trkpt lat="44.3882308" lon="8.132222"><ele>717.0</ele><time>2026-04-04T12:47:35.97Z</time></trkpt><trkpt lat="44.3880311" lon="8.1321514"><ele>717.0</ele><time>2026-04-04T12:47:36.969Z</time></trkpt><trkpt lat="44.3877873" lon="8.1320383"><ele>718.5</ele><time>2026-04-04T12:47:37.97Z</time></trkpt><trkpt lat="44.3875112" lon="8.1319308"><ele>720.0</ele><time>2026-04-04T12:47:38.97Z</time></trkpt><trkpt lat="44.3872461" lon="8.1318544"><ele>718.5</ele><time>2026-04-04T12:47:39.97Z</time></trkpt><trkpt lat="44.3870028" lon="8.1317931"><ele>717.0</ele><time>2026-04-04T12:47:40.969Z</time></trkpt><trkpt lat="44.3867828" lon="8.1317119"><ele>717.0</ele><time>2026-04-04T12:47:41.97Z</time></trkpt><trkpt lat="44.3865761" lon="8.131577"><ele>717.0</ele><time>2026-04-04T12:47:42.97Z</time></trkpt><trkpt lat="44.3863847" lon="8.1314242"><ele>717.0</ele><time>2026-04-04T12:47:43.97Z</time></trkpt><trkpt lat="44.3861883" lon="8.1313076"><ele>719.0</ele><time>2026-04-04T12:47:44.97Z</time></trkpt><trkpt lat="44.3859647" lon="8.1312582"><ele>721.0</ele><time>2026-04-04T12:47:45.97Z</time></trkpt><trkpt lat="44.3857193" lon="8.1312564"><ele>726.0</ele><time>2026-04-04T12:47:46.969Z</time></trkpt><trkpt lat="44.385454" lon="8.1312864"><ele>731.0</ele><time>2026-04-04T12:47:47.969Z</time></trkpt><trkpt lat="44.3851695" lon="8.1313191"><ele>731.0</ele><time>2026-04-04T12:47:48.97Z</time></trkpt><trkpt lat="44.3848814" lon="8.1313681"><ele>731.0</ele><time>2026-04-04T12:47:49.97Z</time></trkpt><trkpt lat="44.3846014" lon="8.131424"><ele>733.5</ele><time>2026-04-04T12:47:50.97Z</time></trkpt><trkpt lat="44.3843538" lon="8.1314802"><ele>736.0</ele><time>2026-04-04T12:47:51.97Z</time></trkpt><trkpt lat="44.384118" lon="8.1315394"><ele>733.6666666666667</ele><time>2026-04-04T12:47:52.969Z</time></trkpt><trkpt lat="44.3839078" lon="8.1316291"><ele>731.3333333333334</ele><time>2026-04-04T12:47:53.969Z</time></trkpt><trkpt lat="44.3837209" lon="8.1317283"><ele>729.0</ele><time>2026-04-04T12:47:54.97Z</time></trkpt><trkpt lat="44.3835527" lon="8.1318158"><ele>729.0</ele><time>2026-04-04T12:47:55.97Z</time></trkpt><trkpt lat="44.383397" lon="8.1318866"><ele>729.0</ele><time>2026-04-04T12:47:56.97Z</time></trkpt><trkpt lat="44.3832482" lon="8.1319554"><ele>729.0</ele><time>2026-04-04T12:47:57.969Z</time></trkpt><trkpt lat="44.3831138" lon="8.1320167"><ele>729.0</ele><time>2026-04-04T12:47:58.97Z</time></trkpt><trkpt lat="44.3829818" lon="8.1320959"><ele>729.0</ele><time>2026-04-04T12:47:59.97Z</time></trkpt><trkpt lat="44.3828715" lon="8.1321904"><ele>729.0</ele><time>2026-04-04T12:48:00.97Z</time></trkpt><trkpt lat="44.382769" lon="8.1322889"><ele>729.0</ele><time>2026-04-04T12:48:01.97Z</time></trkpt><trkpt lat="44.3826718" lon="8.1324038"><ele>729.0</ele><time>2026-04-04T12:48:02.969Z</time></trkpt><trkpt lat="44.382544" lon="8.1325008"><ele>729.0</ele><time>2026-04-04T12:48:03.969Z</time></trkpt><trkpt lat="44.3824523" lon="8.1326443"><ele>729.0</ele><time>2026-04-04T12:48:04.97Z</time></trkpt><trkpt lat="44.3823739" lon="8.1327967"><ele>729.0</ele><time>2026-04-04T12:48:05.97Z</time></trkpt><trkpt lat="44.3822956" lon="8.1329574"><ele>729.0</ele><time>2026-04-04T12:48:06.97Z</time></trkpt><trkpt lat="44.3822128" lon="8.1331234"><ele>729.0</ele><time>2026-04-04T12:48:07.97Z</time></trkpt><trkpt lat="44.3821244" lon="8.1332643"><ele>729.0</ele><time>2026-04-04T12:48:08.97Z</time></trkpt><trkpt lat="44.3820443" lon="8.1333796"><ele>729.0</ele><time>2026-04-04T12:48:09.969Z</time></trkpt><trkpt lat="44.3819726" lon="8.1334796"><ele>728.0</ele><time>2026-04-04T12:48:10.97Z</time></trkpt><trkpt lat="44.3819014" lon="8.1335805"><ele>727.0</ele><time>2026-04-04T12:48:11.97Z</time></trkpt><trkpt lat="44.3818288" lon="8.1336866"><ele>726.0</ele><time>2026-04-04T12:48:12.97Z</time></trkpt><trkpt lat="44.3817573" lon="8.1337879"><ele>725.0</ele><time>2026-04-04T12:48:13.97Z</time></trkpt><trkpt lat="44.3816823" lon="8.1338815"><ele>724.0</ele><time>2026-04-04T12:48:14.97Z</time></trkpt><trkpt lat="44.3816021" lon="8.1339664"><ele>724.0</ele><time>2026-04-04T12:48:15.97Z</time></trkpt><trkpt lat="44.3815159" lon="8.1340451"><ele>724.0</ele><time>2026-04-04T12:48:16.969Z</time></trkpt><trkpt lat="44.3814151" lon="8.1341314"><ele>724.0</ele><time>2026-04-04T12:48:17.97Z</time></trkpt><trkpt lat="44.3813031" lon="8.1342206"><ele>724.0</ele><time>2026-04-04T12:48:18.97Z</time></trkpt><trkpt lat="44.3811836" lon="8.1343292"><ele>723.75</ele><time>2026-04-04T12:48:19.969Z</time></trkpt><trkpt lat="44.3810764" lon="8.1344486"><ele>723.5</ele><time>2026-04-04T12:48:20.97Z</time></trkpt><trkpt lat="44.3809718" lon="8.1345663"><ele>723.25</ele><time>2026-04-04T12:48:21.969Z</time></trkpt><trkpt lat="44.3808755" lon="8.1346975"><ele>723.0</ele><time>2026-04-04T12:48:22.97Z</time></trkpt><trkpt lat="44.3807919" lon="8.1348549"><ele>725.5</ele><time>2026-04-04T12:48:23.969Z</time></trkpt><trkpt lat="44.3807206" lon="8.1350248"><ele>728.0</ele><time>2026-04-04T12:48:24.969Z</time></trkpt><trkpt lat="44.3806689" lon="8.1351996"><ele>730.5</ele><time>2026-04-04T12:48:25.969Z</time></trkpt><trkpt lat="44.3806308" lon="8.1353879"><ele>733.0</ele><time>2026-04-04T12:48:26.97Z</time></trkpt><trkpt lat="44.3806201" lon="8.1356028"><ele>735.6666666666667</ele><time>2026-04-04T12:48:27.97Z</time></trkpt><trkpt lat="44.3805885" lon="8.1358446"><ele>738.3333333333334</ele><time>2026-04-04T12:48:28.969Z</time></trkpt><trkpt lat="44.3805812" lon="8.1360983"><ele>741.0</ele><time>2026-04-04T12:48:29.97Z</time></trkpt><trkpt lat="44.3805714" lon="8.1363632"><ele>745.0</ele><time>2026-04-04T12:48:30.97Z</time></trkpt><trkpt lat="44.380545" lon="8.136645"><ele>749.0</ele><time>2026-04-04T12:48:31.97Z</time></trkpt><trkpt lat="44.3804826" lon="8.1369336"><ele>753.0</ele><time>2026-04-04T12:48:32.97Z</time></trkpt><trkpt lat="44.3803892" lon="8.1372339"><ele>742.5</ele><time>2026-04-04T12:48:33.97Z</time></trkpt><trkpt lat="44.3802873" lon="8.1375378"><ele>732.0</ele><time>2026-04-04T12:48:34.97Z</time></trkpt><trkpt lat="44.3801869" lon="8.1378427"><ele>732.0</ele><time>2026-04-04T12:48:35.97Z</time></trkpt><trkpt lat="44.3800789" lon="8.1381228"><ele>732.0</ele><time>2026-04-04T12:48:36.97Z</time></trkpt><trkpt lat="44.3799452" lon="8.1383575"><ele>732.0</ele><time>2026-04-04T12:48:37.969Z</time></trkpt><trkpt lat="44.3797811" lon="8.1385238"><ele>731.3333333333334</ele><time>2026-04-04T12:48:38.97Z</time></trkpt><trkpt lat="44.3795763" lon="8.1386161"><ele>730.6666666666667</ele><time>2026-04-04T12:48:39.969Z</time></trkpt><trkpt lat="44.3793676" lon="8.1386808"><ele>730.0</ele><time>2026-04-04T12:48:40.97Z</time></trkpt><trkpt lat="44.3791784" lon="8.1387691"><ele>730.0</ele><time>2026-04-04T12:48:41.97Z</time></trkpt><trkpt lat="44.3790109" lon="8.1389293"><ele>730.0</ele><time>2026-04-04T12:48:42.969Z</time></trkpt><trkpt lat="44.3788701" lon="8.1391531"><ele>730.0</ele><time>2026-04-04T12:48:43.97Z</time></trkpt><trkpt lat="44.3787715" lon="8.1394009"><ele>730.0</ele><time>2026-04-04T12:48:44.97Z</time></trkpt><trkpt lat="44.3787113" lon="8.1396476"><ele>730.0</ele><time>2026-04-04T12:48:45.97Z</time></trkpt><trkpt lat="44.3786764" lon="8.1398617"><ele>730.0</ele><time>2026-04-04T12:48:46.97Z</time></trkpt><trkpt lat="44.3786653" lon="8.140034"><ele>730.0</ele><time>2026-04-04T12:48:47.969Z</time></trkpt><trkpt lat="44.3786552" lon="8.1401874"><ele>730.0</ele><time>2026-04-04T12:48:48.97Z</time></trkpt><trkpt lat="44.3786447" lon="8.1403375"><ele>730.0</ele><time>2026-04-04T12:48:49.97Z</time></trkpt><trkpt lat="44.378624" lon="8.1404948"><ele>730.0</ele><time>2026-04-04T12:48:50.97Z</time></trkpt><trkpt lat="44.3785816" lon="8.1406587"><ele>732.25</ele><time>2026-04-04T12:48:51.97Z</time></trkpt><trkpt lat="44.3785211" lon="8.1408308"><ele>734.5</ele><time>2026-04-04T12:48:52.969Z</time></trkpt><trkpt lat="44.3784427" lon="8.1409986"><ele>736.75</ele><time>2026-04-04T12:48:53.97Z</time></trkpt><trkpt lat="44.3783627" lon="8.1411512"><ele>739.0</ele><time>2026-04-04T12:48:54.97Z</time></trkpt><trkpt lat="44.3782836" lon="8.1412763"><ele>739.0</ele><time>2026-04-04T12:48:55.97Z</time></trkpt><trkpt lat="44.3782157" lon="8.141374"><ele>739.0</ele><time>2026-04-04T12:48:56.97Z</time></trkpt><trkpt lat="44.3781589" lon="8.1414411"><ele>739.0</ele><time>2026-04-04T12:48:57.97Z</time></trkpt><trkpt lat="44.3780985" lon="8.1414935"><ele>739.0</ele><time>2026-04-04T12:48:58.969Z</time></trkpt><trkpt lat="44.3780257" lon="8.1415364"><ele>739.0</ele><time>2026-04-04T12:48:59.97Z</time></trkpt><trkpt lat="44.3779382" lon="8.141565"><ele>739.0</ele><time>2026-04-04T12:49:00.97Z</time></trkpt><trkpt lat="44.377824" lon="8.1415729"><ele>738.5</ele><time>2026-04-04T12:49:01.97Z</time></trkpt><trkpt lat="44.3776994" lon="8.1415645"><ele>738.0</ele><time>2026-04-04T12:49:02.97Z</time></trkpt><trkpt lat="44.3775611" lon="8.1415634"><ele>737.5</ele><time>2026-04-04T12:49:03.97Z</time></trkpt><trkpt lat="44.3774228" lon="8.1415537"><ele>737.0</ele><time>2026-04-04T12:49:04.97Z</time></trkpt><trkpt lat="44.3772605" lon="8.1415339"><ele>736.0</ele><time>2026-04-04T12:49:05.97Z</time></trkpt><trkpt lat="44.3771095" lon="8.141475"><ele>735.0</ele><time>2026-04-04T12:49:06.97Z</time></trkpt><trkpt lat="44.3769634" lon="8.1413955"><ele>734.0</ele><time>2026-04-04T12:49:07.97Z</time></trkpt><trkpt lat="44.3768165" lon="8.1413018"><ele>734.0</ele><time>2026-04-04T12:49:08.969Z</time></trkpt><trkpt lat="44.3766693" lon="8.1412036"><ele>734.0</ele><time>2026-04-04T12:49:09.97Z</time></trkpt><trkpt lat="44.3765379" lon="8.1411141"><ele>734.0</ele><time>2026-04-04T12:49:10.97Z</time></trkpt><trkpt lat="44.3764027" lon="8.1410272"><ele>734.0</ele><time>2026-04-04T12:49:11.97Z</time></trkpt><trkpt lat="44.3762656" lon="8.140934"><ele>734.0</ele><time>2026-04-04T12:49:12.969Z</time></trkpt><trkpt lat="44.3761431" lon="8.1408308"><ele>734.0</ele><time>2026-04-04T12:49:13.969Z</time></trkpt><trkpt lat="44.3760192" lon="8.1407076"><ele>734.0</ele><time>2026-04-04T12:49:14.97Z</time></trkpt><trkpt lat="44.3758958" lon="8.1405813"><ele>733.75</ele><time>2026-04-04T12:49:15.97Z</time></trkpt><trkpt lat="44.3757782" lon="8.1404749"><ele>733.5</ele><time>2026-04-04T12:49:16.97Z</time></trkpt><trkpt lat="44.3756697" lon="8.1403748"><ele>733.25</ele><time>2026-04-04T12:49:17.97Z</time></trkpt><trkpt lat="44.3755556" lon="8.1402622"><ele>733.0</ele><time>2026-04-04T12:49:18.97Z</time></trkpt><trkpt lat="44.3754507" lon="8.1401533"><ele>732.5999999999999</ele><time>2026-04-04T12:49:19.97Z</time></trkpt><trkpt lat="44.3753508" lon="8.1400553"><ele>732.1999999999999</ele><time>2026-04-04T12:49:20.97Z</time></trkpt><trkpt lat="44.3752718" lon="8.1399621"><ele>731.8</ele><time>2026-04-04T12:49:21.97Z</time></trkpt><trkpt lat="44.3751989" lon="8.1398829"><ele>731.4</ele><time>2026-04-04T12:49:22.969Z</time></trkpt><trkpt lat="44.3751376" lon="8.1398203"><ele>731.0</ele><time>2026-04-04T12:49:23.97Z</time></trkpt><trkpt lat="44.3750779" lon="8.1397147"><ele>730.3333333333333</ele><time>2026-04-04T12:49:25.969Z</time></trkpt><trkpt lat="44.3750383" lon="8.1395739"><ele>729.6666666666666</ele><time>2026-04-04T12:49:27.97Z</time></trkpt><trkpt lat="44.3749897" lon="8.1394723"><ele>729.0</ele><time>2026-04-04T12:49:29.969Z</time></trkpt><trkpt lat="44.3749229" lon="8.1395133"><ele>728.3333333333334</ele><time>2026-04-04T12:49:31.97Z</time></trkpt><trkpt lat="44.3748735" lon="8.1396445"><ele>727.6666666666667</ele><time>2026-04-04T12:49:33.97Z</time></trkpt><trkpt lat="44.3748127" lon="8.1396901"><ele>727.0</ele><time>2026-04-04T12:49:36.97Z</time></trkpt><trkpt lat="44.3747605" lon="8.1397475"><ele>728.0</ele><time>2026-04-04T13:52:40.975Z</time></trkpt><trkpt lat="44.3747646" lon="8.1398983"><ele>729.0</ele><time>2026-04-04T13:52:42.975Z</time></trkpt><trkpt lat="44.3747771" lon="8.1400378"><ele>730.0</ele><time>2026-04-04T13:52:43.974Z</time></trkpt><trkpt lat="44.374802" lon="8.1402308"><ele>731.0</ele><time>2026-04-04T13:52:44.975Z</time></trkpt><trkpt lat="44.3748601" lon="8.1404743"><ele>728.0</ele><time>2026-04-04T13:52:45.974Z</time></trkpt><trkpt lat="44.3749589" lon="8.1407809"><ele>725.0</ele><time>2026-04-04T13:52:46.975Z</time></trkpt><trkpt lat="44.3750729" lon="8.1411304"><ele>725.0</ele><time>2026-04-04T13:52:47.975Z</time></trkpt><trkpt lat="44.3751957" lon="8.1414436"><ele>725.0</ele><time>2026-04-04T13:52:48.974Z</time></trkpt><trkpt lat="44.3753078" lon="8.1417021"><ele>721.0</ele><time>2026-04-04T13:52:49.975Z</time></trkpt><trkpt lat="44.3754079" lon="8.1419295"><ele>717.0</ele><time>2026-04-04T13:52:50.975Z</time></trkpt><trkpt lat="44.3754862" lon="8.1421618"><ele>713.0</ele><time>2026-04-04T13:52:51.975Z</time></trkpt><trkpt lat="44.3755633" lon="8.1424033"><ele>713.0</ele><time>2026-04-04T13:52:52.974Z</time></trkpt><trkpt lat="44.3756271" lon="8.1426543"><ele>713.0</ele><time>2026-04-04T13:52:53.975Z</time></trkpt><trkpt lat="44.3756853" lon="8.1429135"><ele>713.0</ele><time>2026-04-04T13:52:54.974Z</time></trkpt><trkpt lat="44.3757412" lon="8.1431679"><ele>709.3333333333333</ele><time>2026-04-04T13:52:55.974Z</time></trkpt><trkpt lat="44.3757775" lon="8.1434352"><ele>705.6666666666666</ele><time>2026-04-04T13:52:56.975Z</time></trkpt><trkpt lat="44.3757953" lon="8.1437088"><ele>702.0</ele><time>2026-04-04T13:52:57.975Z</time></trkpt><trkpt lat="44.3758162" lon="8.1439841"><ele>702.3333333333334</ele><time>2026-04-04T13:52:58.975Z</time></trkpt><trkpt lat="44.3758234" lon="8.1442585"><ele>702.6666666666667</ele><time>2026-04-04T13:52:59.975Z</time></trkpt><trkpt lat="44.3758211" lon="8.1445236"><ele>703.0</ele><time>2026-04-04T13:53:00.974Z</time></trkpt><trkpt lat="44.375807" lon="8.1447873"><ele>701.3333333333334</ele><time>2026-04-04T13:53:01.975Z</time></trkpt><trkpt lat="44.3757886" lon="8.1450493"><ele>699.6666666666666</ele><time>2026-04-04T13:53:02.974Z</time></trkpt><trkpt lat="44.3757599" lon="8.1453031"><ele>698.0</ele><time>2026-04-04T13:53:03.975Z</time></trkpt><trkpt lat="44.3757212" lon="8.1455456"><ele>697.6666666666666</ele><time>2026-04-04T13:53:04.975Z</time></trkpt><trkpt lat="44.3756716" lon="8.1457797"><ele>697.3333333333334</ele><time>2026-04-04T13:53:05.975Z</time></trkpt><trkpt lat="44.375613" lon="8.1460069"><ele>697.0</ele><time>2026-04-04T13:53:06.975Z</time></trkpt><trkpt lat="44.3755453" lon="8.1462354"><ele>691.3333333333334</ele><time>2026-04-04T13:53:07.975Z</time></trkpt><trkpt lat="44.3754675" lon="8.146457"><ele>685.6666666666666</ele><time>2026-04-04T13:53:08.975Z</time></trkpt><trkpt lat="44.3753897" lon="8.1466728"><ele>680.0</ele><time>2026-04-04T13:53:09.974Z</time></trkpt><trkpt lat="44.3753082" lon="8.1468877"><ele>679.0</ele><time>2026-04-04T13:53:10.975Z</time></trkpt><trkpt lat="44.375213" lon="8.1470852"><ele>678.0</ele><time>2026-04-04T13:53:11.975Z</time></trkpt><trkpt lat="44.3751184" lon="8.1472721"><ele>677.0</ele><time>2026-04-04T13:53:12.974Z</time></trkpt><trkpt lat="44.3750181" lon="8.1474538"><ele>677.0</ele><time>2026-04-04T13:53:13.974Z</time></trkpt><trkpt lat="44.3749152" lon="8.1476292"><ele>677.0</ele><time>2026-04-04T13:53:14.975Z</time></trkpt><trkpt lat="44.374794" lon="8.1477923"><ele>677.0</ele><time>2026-04-04T13:53:15.975Z</time></trkpt><trkpt lat="44.3746662" lon="8.1479536"><ele>676.3333333333333</ele><time>2026-04-04T13:53:16.974Z</time></trkpt><trkpt lat="44.3745353" lon="8.1481138"><ele>675.6666666666666</ele><time>2026-04-04T13:53:17.975Z</time></trkpt><trkpt lat="44.3743846" lon="8.148274"><ele>675.0</ele><time>2026-04-04T13:53:18.975Z</time></trkpt><trkpt lat="44.3742317" lon="8.148426"><ele>675.0</ele><time>2026-04-04T13:53:19.975Z</time></trkpt><trkpt lat="44.3740686" lon="8.1485667"><ele>675.0</ele><time>2026-04-04T13:53:20.975Z</time></trkpt><trkpt lat="44.3739198" lon="8.1486855"><ele>675.0</ele><time>2026-04-04T13:53:21.975Z</time></trkpt><trkpt lat="44.3737631" lon="8.148789"><ele>676.6666666666666</ele><time>2026-04-04T13:53:22.975Z</time></trkpt><trkpt lat="44.373626" lon="8.1488852"><ele>678.3333333333333</ele><time>2026-04-04T13:53:23.975Z</time></trkpt><trkpt lat="44.3734928" lon="8.148975"><ele>680.0</ele><time>2026-04-04T13:53:24.975Z</time></trkpt><trkpt lat="44.3733544" lon="8.1490618"><ele>677.0</ele><time>2026-04-04T13:53:25.975Z</time></trkpt><trkpt lat="44.373206" lon="8.1491417"><ele>674.0</ele><time>2026-04-04T13:53:26.975Z</time></trkpt><trkpt lat="44.3730524" lon="8.1492385"><ele>671.0</ele><time>2026-04-04T13:53:27.975Z</time></trkpt><trkpt lat="44.3728968" lon="8.1493383"><ele>671.0</ele><time>2026-04-04T13:53:28.974Z</time></trkpt><trkpt lat="44.3727491" lon="8.1494376"><ele>671.0</ele><time>2026-04-04T13:53:29.975Z</time></trkpt><trkpt lat="44.3726014" lon="8.1495371"><ele>671.0</ele><time>2026-04-04T13:53:30.975Z</time></trkpt><trkpt lat="44.3724536" lon="8.1496367"><ele>671.0</ele><time>2026-04-04T13:53:31.975Z</time></trkpt><trkpt lat="44.3723021" lon="8.1497426"><ele>671.0</ele><time>2026-04-04T13:53:32.975Z</time></trkpt><trkpt lat="44.3721534" lon="8.1498497"><ele>671.0</ele><time>2026-04-04T13:53:33.974Z</time></trkpt><trkpt lat="44.3719993" lon="8.1499551"><ele>670.0</ele><time>2026-04-04T13:53:34.974Z</time></trkpt><trkpt lat="44.3718546" lon="8.150055"><ele>669.0</ele><time>2026-04-04T13:53:35.975Z</time></trkpt><trkpt lat="44.3717193" lon="8.1501574"><ele>668.0</ele><time>2026-04-04T13:53:36.975Z</time></trkpt><trkpt lat="44.3715792" lon="8.1502635"><ele>668.0</ele><time>2026-04-04T13:53:37.975Z</time></trkpt><trkpt lat="44.371427" lon="8.150368"><ele>668.0</ele><time>2026-04-04T13:53:38.975Z</time></trkpt><trkpt lat="44.3712646" lon="8.150476"><ele>668.0</ele><time>2026-04-04T13:53:39.974Z</time></trkpt><trkpt lat="44.3711125" lon="8.1505738"><ele>669.3333333333333</ele><time>2026-04-04T13:53:40.975Z</time></trkpt><trkpt lat="44.3709479" lon="8.1506575"><ele>670.6666666666666</ele><time>2026-04-04T13:53:41.975Z</time></trkpt><trkpt lat="44.370807" lon="8.1507521"><ele>672.0</ele><time>2026-04-04T13:53:42.975Z</time></trkpt><trkpt lat="44.3706643" lon="8.1508427"><ele>667.0</ele><time>2026-04-04T13:53:43.975Z</time></trkpt><trkpt lat="44.3705336" lon="8.1509433"><ele>662.0</ele><time>2026-04-04T13:53:44.975Z</time></trkpt><trkpt lat="44.3703922" lon="8.1510512"><ele>657.0</ele><time>2026-04-04T13:53:45.975Z</time></trkpt><trkpt lat="44.3702487" lon="8.151152"><ele>652.0</ele><time>2026-04-04T13:53:46.975Z</time></trkpt><trkpt lat="44.3700894" lon="8.1512609"><ele>647.0</ele><time>2026-04-04T13:53:47.975Z</time></trkpt><trkpt lat="44.3699234" lon="8.1513728"><ele>642.0</ele><time>2026-04-04T13:53:48.975Z</time></trkpt><trkpt lat="44.3697531" lon="8.1514925"><ele>638.6666666666666</ele><time>2026-04-04T13:53:49.975Z</time></trkpt><trkpt lat="44.369585" lon="8.151615"><ele>635.3333333333333</ele><time>2026-04-04T13:53:50.974Z</time></trkpt><trkpt lat="44.3694224" lon="8.151722"><ele>632.0</ele><time>2026-04-04T13:53:51.975Z</time></trkpt><trkpt lat="44.3692611" lon="8.1518075"><ele>632.0</ele><time>2026-04-04T13:53:52.975Z</time></trkpt><trkpt lat="44.3691001" lon="8.1518886"><ele>632.0</ele><time>2026-04-04T13:53:53.974Z</time></trkpt><trkpt lat="44.3689533" lon="8.1519755"><ele>632.0</ele><time>2026-04-04T13:53:54.975Z</time></trkpt><trkpt lat="44.3688172" lon="8.1520672"><ele>633.25</ele><time>2026-04-04T13:53:55.975Z</time></trkpt><trkpt lat="44.3686932" lon="8.1521606"><ele>634.5</ele><time>2026-04-04T13:53:56.975Z</time></trkpt><trkpt lat="44.3685763" lon="8.1522524"><ele>635.75</ele><time>2026-04-04T13:53:57.974Z</time></trkpt><trkpt lat="44.3684593" lon="8.1523401"><ele>637.0</ele><time>2026-04-04T13:53:58.974Z</time></trkpt><trkpt lat="44.3683401" lon="8.1524264"><ele>637.0</ele><time>2026-04-04T13:53:59.975Z</time></trkpt><trkpt lat="44.3682133" lon="8.1525163"><ele>637.0</ele><time>2026-04-04T13:54:00.974Z</time></trkpt><trkpt lat="44.3680909" lon="8.1526058"><ele>637.0</ele><time>2026-04-04T13:54:01.975Z</time></trkpt><trkpt lat="44.3679581" lon="8.1527072"><ele>637.0</ele><time>2026-04-04T13:54:02.975Z</time></trkpt><trkpt lat="44.3678284" lon="8.1528067"><ele>641.25</ele><time>2026-04-04T13:54:03.975Z</time></trkpt><trkpt lat="44.3676997" lon="8.1529079"><ele>645.5</ele><time>2026-04-04T13:54:04.975Z</time></trkpt><trkpt lat="44.3675688" lon="8.1530099"><ele>649.75</ele><time>2026-04-04T13:54:05.975Z</time></trkpt><trkpt lat="44.3674372" lon="8.1531143"><ele>654.0</ele><time>2026-04-04T13:54:06.975Z</time></trkpt><trkpt lat="44.3673043" lon="8.1532193"><ele>666.3333333333334</ele><time>2026-04-04T13:54:07.974Z</time></trkpt><trkpt lat="44.3671733" lon="8.1533245"><ele>678.6666666666667</ele><time>2026-04-04T13:54:08.975Z</time></trkpt><trkpt lat="44.3670429" lon="8.1534285"><ele>691.0</ele><time>2026-04-04T13:54:09.975Z</time></trkpt><trkpt lat="44.3669128" lon="8.1535332"><ele>630.0</ele><time>2026-04-04T13:54:10.975Z</time></trkpt><trkpt lat="44.363985" lon="8.1639583"><ele>627.3333333333334</ele><time>2026-04-04T13:55:06.974Z</time></trkpt><trkpt lat="44.3639647" lon="8.1642068"><ele>624.6666666666667</ele><time>2026-04-04T13:55:07.973Z</time></trkpt><trkpt lat="44.3639435" lon="8.1644581"><ele>622.0</ele><time>2026-04-04T13:55:08.974Z</time></trkpt><trkpt lat="44.3639408" lon="8.164687"><ele>621.3333333333334</ele><time>2026-04-04T13:55:09.974Z</time></trkpt><trkpt lat="44.3639478" lon="8.1649129"><ele>620.6666666666666</ele><time>2026-04-04T13:55:10.974Z</time></trkpt><trkpt lat="44.363956" lon="8.1651247"><ele>620.0</ele><time>2026-04-04T13:55:11.974Z</time></trkpt><trkpt lat="44.3639618" lon="8.1653472"><ele>620.0</ele><time>2026-04-04T13:55:12.974Z</time></trkpt><trkpt lat="44.3639743" lon="8.1655678"><ele>620.0</ele><time>2026-04-04T13:55:13.974Z</time></trkpt><trkpt lat="44.3639888" lon="8.1657943"><ele>620.0</ele><time>2026-04-04T13:55:14.974Z</time></trkpt><trkpt lat="44.3640073" lon="8.1660108"><ele>617.6666666666666</ele><time>2026-04-04T13:55:15.974Z</time></trkpt><trkpt lat="44.3640211" lon="8.1662236"><ele>615.3333333333334</ele><time>2026-04-04T13:55:16.974Z</time></trkpt><trkpt lat="44.3640379" lon="8.1664322"><ele>613.0</ele><time>2026-04-04T13:55:17.973Z</time></trkpt><trkpt lat="44.3640661" lon="8.1666346"><ele>611.6666666666667</ele><time>2026-04-04T13:55:18.974Z</time></trkpt><trkpt lat="44.3640864" lon="8.1668469"><ele>610.3333333333334</ele><time>2026-04-04T13:55:19.974Z</time></trkpt><trkpt lat="44.3641089" lon="8.167065"><ele>609.0</ele><time>2026-04-04T13:55:20.974Z</time></trkpt><trkpt lat="44.3641101" lon="8.1672939"><ele>606.6666666666666</ele><time>2026-04-04T13:55:21.974Z</time></trkpt><trkpt lat="44.3641238" lon="8.1675223"><ele>604.3333333333333</ele><time>2026-04-04T13:55:22.974Z</time></trkpt><trkpt lat="44.3641423" lon="8.1677437"><ele>602.0</ele><time>2026-04-04T13:55:23.974Z</time></trkpt><trkpt lat="44.3641643" lon="8.1679623"><ele>602.0</ele><time>2026-04-04T13:55:24.974Z</time></trkpt><trkpt lat="44.3641827" lon="8.1681892"><ele>602.0</ele><time>2026-04-04T13:55:25.974Z</time></trkpt><trkpt lat="44.3642056" lon="8.1684079"><ele>602.0</ele><time>2026-04-04T13:55:26.974Z</time></trkpt><trkpt lat="44.3642312" lon="8.1686247"><ele>599.6666666666666</ele><time>2026-04-04T13:55:27.973Z</time></trkpt><trkpt lat="44.3642533" lon="8.1688427"><ele>597.3333333333334</ele><time>2026-04-04T13:55:28.974Z</time></trkpt><trkpt lat="44.3642619" lon="8.1690621"><ele>595.0</ele><time>2026-04-04T13:55:29.973Z</time></trkpt><trkpt lat="44.3642536" lon="8.1692825"><ele>595.0</ele><time>2026-04-04T13:55:30.973Z</time></trkpt><trkpt lat="44.3642373" lon="8.1694952"><ele>595.0</ele><time>2026-04-04T13:55:31.974Z</time></trkpt><trkpt lat="44.3642402" lon="8.1697098"><ele>595.0</ele><time>2026-04-04T13:55:32.974Z</time></trkpt><trkpt lat="44.3642288" lon="8.169921"><ele>593.5</ele><time>2026-04-04T13:55:33.974Z</time></trkpt><trkpt lat="44.3641974" lon="8.1701199"><ele>592.0</ele><time>2026-04-04T13:55:34.974Z</time></trkpt><trkpt lat="44.3641513" lon="8.1703162"><ele>590.5</ele><time>2026-04-04T13:55:35.974Z</time></trkpt><trkpt lat="44.3641072" lon="8.1705009"><ele>589.0</ele><time>2026-04-04T13:55:36.974Z</time></trkpt><trkpt lat="44.3640698" lon="8.1706812"><ele>586.0</ele><time>2026-04-04T13:55:37.974Z</time></trkpt><trkpt lat="44.3640185" lon="8.1708723"><ele>583.0</ele><time>2026-04-04T13:55:38.974Z</time></trkpt><trkpt lat="44.3639555" lon="8.1710582"><ele>580.0</ele><time>2026-04-04T13:55:39.974Z</time></trkpt><trkpt lat="44.3638937" lon="8.1712299"><ele>577.0</ele><time>2026-04-04T13:55:40.974Z</time></trkpt><trkpt lat="44.3638294" lon="8.1713902"><ele>575.0</ele><time>2026-04-04T13:55:41.974Z</time></trkpt><trkpt lat="44.3637644" lon="8.1715387"><ele>573.0</ele><time>2026-04-04T13:55:42.973Z</time></trkpt><trkpt lat="44.3636959" lon="8.1716839"><ele>571.0</ele><time>2026-04-04T13:55:43.974Z</time></trkpt><trkpt lat="44.3636247" lon="8.1718244"><ele>569.0</ele><time>2026-04-04T13:55:44.974Z</time></trkpt><trkpt lat="44.3635476" lon="8.1719657"><ele>569.0</ele><time>2026-04-04T13:55:45.974Z</time></trkpt><trkpt lat="44.3634673" lon="8.172098"><ele>569.0</ele><time>2026-04-04T13:55:46.974Z</time></trkpt><trkpt lat="44.363384" lon="8.1722232"><ele>569.0</ele><time>2026-04-04T13:55:47.974Z</time></trkpt><trkpt lat="44.3632967" lon="8.1723359"><ele>569.0</ele><time>2026-04-04T13:55:48.973Z</time></trkpt><trkpt lat="44.3632135" lon="8.1724425"><ele>568.2</ele><time>2026-04-04T13:55:49.974Z</time></trkpt><trkpt lat="44.36313" lon="8.1725472"><ele>567.4</ele><time>2026-04-04T13:55:50.974Z</time></trkpt><trkpt lat="44.3630429" lon="8.1726464"><ele>566.6</ele><time>2026-04-04T13:55:51.973Z</time></trkpt><trkpt lat="44.3629542" lon="8.1727404"><ele>565.8</ele><time>2026-04-04T13:55:52.974Z</time></trkpt><trkpt lat="44.3628649" lon="8.1728312"><ele>565.0</ele><time>2026-04-04T13:55:53.974Z</time></trkpt><trkpt lat="44.3627741" lon="8.1729173"><ele>562.6</ele><time>2026-04-04T13:55:54.974Z</time></trkpt><trkpt lat="44.3626799" lon="8.1729999"><ele>560.2</ele><time>2026-04-04T13:55:55.973Z</time></trkpt><trkpt lat="44.3625848" lon="8.1730697"><ele>557.8</ele><time>2026-04-04T13:55:56.973Z</time></trkpt><trkpt lat="44.3624859" lon="8.1731362"><ele>555.4</ele><time>2026-04-04T13:55:57.974Z</time></trkpt><trkpt lat="44.362386" lon="8.1731998"><ele>553.0</ele><time>2026-04-04T13:55:58.973Z</time></trkpt><trkpt lat="44.3622898" lon="8.1732704"><ele>550.0</ele><time>2026-04-04T13:55:59.974Z</time></trkpt><trkpt lat="44.362191" lon="8.1733395"><ele>547.0</ele><time>2026-04-04T13:56:00.974Z</time></trkpt><trkpt lat="44.3620902" lon="8.1734104"><ele>544.0</ele><time>2026-04-04T13:56:01.974Z</time></trkpt><trkpt lat="44.3619878" lon="8.1734753"><ele>541.0</ele><time>2026-04-04T13:56:02.973Z</time></trkpt><trkpt lat="44.3618947" lon="8.1735428"><ele>538.0</ele><time>2026-04-04T13:56:03.973Z</time></trkpt><trkpt lat="44.3618031" lon="8.1736168"><ele>538.0</ele><time>2026-04-04T13:56:04.974Z</time></trkpt><trkpt lat="44.3617142" lon="8.1736987"><ele>538.0</ele><time>2026-04-04T13:56:05.973Z</time></trkpt><trkpt lat="44.3616231" lon="8.173785"><ele>538.0</ele><time>2026-04-04T13:56:06.974Z</time></trkpt><trkpt lat="44.3615352" lon="8.1738712"><ele>538.0</ele><time>2026-04-04T13:56:07.974Z</time></trkpt><trkpt lat="44.3614519" lon="8.1739558"><ele>538.0</ele><time>2026-04-04T13:56:08.974Z</time></trkpt><trkpt lat="44.3613654" lon="8.174053"><ele>534.75</ele><time>2026-04-04T13:56:09.974Z</time></trkpt><trkpt lat="44.3612794" lon="8.1741707"><ele>531.5</ele><time>2026-04-04T13:56:10.974Z</time></trkpt><trkpt lat="44.361196" lon="8.1743051"><ele>528.25</ele><time>2026-04-04T13:56:11.974Z</time></trkpt><trkpt lat="44.3611103" lon="8.1744604"><ele>525.0</ele><time>2026-04-04T13:56:12.974Z</time></trkpt><trkpt lat="44.3610223" lon="8.1746347"><ele>525.0</ele><time>2026-04-04T13:56:13.974Z</time></trkpt><trkpt lat="44.3609362" lon="8.1748215"><ele>525.0</ele><time>2026-04-04T13:56:14.974Z</time></trkpt><trkpt lat="44.360855" lon="8.1750275"><ele>525.0</ele><time>2026-04-04T13:56:15.974Z</time></trkpt><trkpt lat="44.3607699" lon="8.1752393"><ele>528.6666666666666</ele><time>2026-04-04T13:56:16.974Z</time></trkpt><trkpt lat="44.3606874" lon="8.1754637"><ele>532.3333333333333</ele><time>2026-04-04T13:56:17.974Z</time></trkpt><trkpt lat="44.3606209" lon="8.1756953"><ele>536.0</ele><time>2026-04-04T13:56:18.974Z</time></trkpt><trkpt lat="44.3605759" lon="8.1759337"><ele>537.6666666666666</ele><time>2026-04-04T13:56:19.974Z</time></trkpt><trkpt lat="44.3605489" lon="8.1761814"><ele>539.3333333333334</ele><time>2026-04-04T13:56:20.974Z</time></trkpt><trkpt lat="44.3605157" lon="8.1764317"><ele>541.0</ele><time>2026-04-04T13:56:21.974Z</time></trkpt><trkpt lat="44.3604628" lon="8.1766843"><ele>529.6666666666667</ele><time>2026-04-04T13:56:22.974Z</time></trkpt><trkpt lat="44.3603951" lon="8.1769365"><ele>518.3333333333334</ele><time>2026-04-04T13:56:23.974Z</time></trkpt><trkpt lat="44.3603292" lon="8.1771664"><ele>507.0</ele><time>2026-04-04T13:56:24.974Z</time></trkpt><trkpt lat="44.3602919" lon="8.1773857"><ele>506.25</ele><time>2026-04-04T13:56:25.974Z</time></trkpt><trkpt lat="44.3602754" lon="8.1775951"><ele>505.5</ele><time>2026-04-04T13:56:26.974Z</time></trkpt><trkpt lat="44.3602835" lon="8.1778011"><ele>504.75</ele><time>2026-04-04T13:56:27.974Z</time></trkpt><trkpt lat="44.3603239" lon="8.1780012"><ele>504.0</ele><time>2026-04-04T13:56:28.974Z</time></trkpt><trkpt lat="44.3603814" lon="8.1781997"><ele>503.33333333333337</ele><time>2026-04-04T13:56:29.974Z</time></trkpt><trkpt lat="44.3604234" lon="8.1784095"><ele>502.6666666666667</ele><time>2026-04-04T13:56:30.974Z</time></trkpt><trkpt lat="44.3604395" lon="8.1786491"><ele>502.0</ele><time>2026-04-04T13:56:31.974Z</time></trkpt><trkpt lat="44.360463" lon="8.1789067"><ele>500.33333333333337</ele><time>2026-04-04T13:56:32.974Z</time></trkpt><trkpt lat="44.3604698" lon="8.1791751"><ele>498.66666666666663</ele><time>2026-04-04T13:56:33.974Z</time></trkpt><trkpt lat="44.3604583" lon="8.1794422"><ele>497.0</ele><time>2026-04-04T13:56:34.974Z</time></trkpt><trkpt lat="44.3604447" lon="8.1797077"><ele>495.0</ele><time>2026-04-04T13:56:35.974Z</time></trkpt><trkpt lat="44.3604504" lon="8.1799699"><ele>493.0</ele><time>2026-04-04T13:56:36.974Z</time></trkpt><trkpt lat="44.3604775" lon="8.1802269"><ele>491.0</ele><time>2026-04-04T13:56:37.973Z</time></trkpt><trkpt lat="44.3605058" lon="8.1804913"><ele>502.0</ele><time>2026-04-04T13:56:38.974Z</time></trkpt><trkpt lat="44.3605647" lon="8.1807367"><ele>513.0</ele><time>2026-04-04T13:56:39.973Z</time></trkpt><trkpt lat="44.3606394" lon="8.1809809"><ele>524.0</ele><time>2026-04-04T13:56:40.974Z</time></trkpt><trkpt lat="44.3606988" lon="8.181238"><ele>524.0</ele><time>2026-04-04T13:56:41.974Z</time></trkpt><trkpt lat="44.3607274" lon="8.1815036"><ele>524.0</ele><time>2026-04-04T13:56:42.974Z</time></trkpt><trkpt lat="44.3607305" lon="8.1817811"><ele>524.0</ele><time>2026-04-04T13:56:43.973Z</time></trkpt><trkpt lat="44.3607177" lon="8.1820787"><ele>519.6666666666666</ele><time>2026-04-04T13:56:44.974Z</time></trkpt><trkpt lat="44.3607002" lon="8.1823775"><ele>515.3333333333334</ele><time>2026-04-04T13:56:45.974Z</time></trkpt><trkpt lat="44.3606766" lon="8.182677"><ele>511.0</ele><time>2026-04-04T13:56:46.974Z</time></trkpt><trkpt lat="44.3606445" lon="8.1829669"><ele>510.0</ele><time>2026-04-04T13:56:47.973Z</time></trkpt><trkpt lat="44.3605979" lon="8.1832446"><ele>509.0</ele><time>2026-04-04T13:56:48.974Z</time></trkpt><trkpt lat="44.3605385" lon="8.1835092"><ele>508.0</ele><time>2026-04-04T13:56:49.974Z</time></trkpt><trkpt lat="44.3604689" lon="8.1837515"><ele>499.33333333333337</ele><time>2026-04-04T13:56:50.974Z</time></trkpt><trkpt lat="44.3603984" lon="8.1839795"><ele>490.66666666666663</ele><time>2026-04-04T13:56:51.974Z</time></trkpt><trkpt lat="44.3603315" lon="8.1841945"><ele>482.0</ele><time>2026-04-04T13:56:52.974Z</time></trkpt><trkpt lat="44.3602742" lon="8.1844024"><ele>482.0</ele><time>2026-04-04T13:56:53.974Z</time></trkpt><trkpt lat="44.3602395" lon="8.1846083"><ele>482.0</ele><time>2026-04-04T13:56:54.974Z</time></trkpt><trkpt lat="44.360241" lon="8.1848214"><ele>482.0</ele><time>2026-04-04T13:56:55.973Z</time></trkpt><trkpt lat="44.3602829" lon="8.1850413"><ele>482.0</ele><time>2026-04-04T13:56:56.974Z</time></trkpt><trkpt lat="44.3603559" lon="8.1852646"><ele>482.0</ele><time>2026-04-04T13:56:57.974Z</time></trkpt><trkpt lat="44.3604314" lon="8.1854827"><ele>482.0</ele><time>2026-04-04T13:56:58.974Z</time></trkpt><trkpt lat="44.3605165" lon="8.1856934"><ele>483.3333333333333</ele><time>2026-04-04T13:56:59.974Z</time></trkpt><trkpt lat="44.3606176" lon="8.1858843"><ele>484.66666666666663</ele><time>2026-04-04T13:57:00.974Z</time></trkpt><trkpt lat="44.3607394" lon="8.1860489"><ele>486.0</ele><time>2026-04-04T13:57:01.974Z</time></trkpt><trkpt lat="44.3608465" lon="8.1862001"><ele>486.0</ele><time>2026-04-04T13:57:02.974Z</time></trkpt><trkpt lat="44.3609295" lon="8.186374"><ele>486.0</ele><time>2026-04-04T13:57:03.974Z</time></trkpt><trkpt lat="44.3609756" lon="8.1865765"><ele>486.0</ele><time>2026-04-04T13:57:04.973Z</time></trkpt><trkpt lat="44.3610034" lon="8.1867966"><ele>482.33333333333337</ele><time>2026-04-04T13:57:05.974Z</time></trkpt><trkpt lat="44.3610026" lon="8.1870339"><ele>478.6666666666667</ele><time>2026-04-04T13:57:06.974Z</time></trkpt><trkpt lat="44.3609889" lon="8.1872636"><ele>475.0</ele><time>2026-04-04T13:57:07.973Z</time></trkpt><trkpt lat="44.3609578" lon="8.1874806"><ele>474.0</ele><time>2026-04-04T13:57:08.973Z</time></trkpt><trkpt lat="44.3609041" lon="8.1876831"><ele>473.0</ele><time>2026-04-04T13:57:09.973Z</time></trkpt><trkpt lat="44.3608247" lon="8.1878633"><ele>472.0</ele><time>2026-04-04T13:57:10.973Z</time></trkpt><trkpt lat="44.360724" lon="8.1880164"><ele>472.0</ele><time>2026-04-04T13:57:11.973Z</time></trkpt><trkpt lat="44.3606263" lon="8.1881691"><ele>472.0</ele><time>2026-04-04T13:57:12.974Z</time></trkpt><trkpt lat="44.360543" lon="8.1883433"><ele>472.0</ele><time>2026-04-04T13:57:13.974Z</time></trkpt><trkpt lat="44.3604766" lon="8.188544"><ele>468.0</ele><time>2026-04-04T13:57:14.973Z</time></trkpt><trkpt lat="44.3604609" lon="8.1887647"><ele>464.0</ele><time>2026-04-04T13:57:15.974Z</time></trkpt><trkpt lat="44.3604702" lon="8.188995"><ele>460.0</ele><time>2026-04-04T13:57:16.974Z</time></trkpt><trkpt lat="44.3604891" lon="8.1892202"><ele>460.0</ele><time>2026-04-04T13:57:17.974Z</time></trkpt><trkpt lat="44.3605188" lon="8.1894486"><ele>460.0</ele><time>2026-04-04T13:57:18.973Z</time></trkpt><trkpt lat="44.3605674" lon="8.1896749"><ele>460.0</ele><time>2026-04-04T13:57:19.974Z</time></trkpt><trkpt lat="44.3606201" lon="8.1898961"><ele>460.0</ele><time>2026-04-04T13:57:20.973Z</time></trkpt><trkpt lat="44.3606564" lon="8.1900956"><ele>460.0</ele><time>2026-04-04T13:57:21.974Z</time></trkpt><trkpt lat="44.3606578" lon="8.1902758"><ele>460.0</ele><time>2026-04-04T13:57:22.974Z</time></trkpt><trkpt lat="44.3606463" lon="8.190438"><ele>460.0</ele><time>2026-04-04T13:57:23.974Z</time></trkpt><trkpt lat="44.3606517" lon="8.1905857"><ele>458.2</ele><time>2026-04-04T13:57:24.974Z</time></trkpt><trkpt lat="44.3606825" lon="8.190725"><ele>456.4</ele><time>2026-04-04T13:57:25.974Z</time></trkpt><trkpt lat="44.3607483" lon="8.1908422"><ele>454.6</ele><time>2026-04-04T13:57:26.974Z</time></trkpt><trkpt lat="44.3608333" lon="8.1909306"><ele>452.8</ele><time>2026-04-04T13:57:27.974Z</time></trkpt><trkpt lat="44.3609243" lon="8.1909652"><ele>451.0</ele><time>2026-04-04T13:57:28.974Z</time></trkpt><trkpt lat="44.3610123" lon="8.1909493"><ele>451.0</ele><time>2026-04-04T13:57:29.973Z</time></trkpt><trkpt lat="44.361104" lon="8.1908716"><ele>451.0</ele><time>2026-04-04T13:57:30.974Z</time></trkpt><trkpt lat="44.3611979" lon="8.1907891"><ele>451.0</ele><time>2026-04-04T13:57:31.974Z</time></trkpt><trkpt lat="44.3613091" lon="8.1907352"><ele>451.0</ele><time>2026-04-04T13:57:32.974Z</time></trkpt><trkpt lat="44.361414" lon="8.1907219"><ele>451.0</ele><time>2026-04-04T13:57:33.974Z</time></trkpt><trkpt lat="44.3615072" lon="8.1907507"><ele>451.75</ele><time>2026-04-04T13:57:34.973Z</time></trkpt><trkpt lat="44.3615957" lon="8.1908108"><ele>452.5</ele><time>2026-04-04T13:57:35.974Z</time></trkpt><trkpt lat="44.3616864" lon="8.1909424"><ele>453.25</ele><time>2026-04-04T13:57:36.973Z</time></trkpt><trkpt lat="44.3617522" lon="8.1911406"><ele>454.0</ele><time>2026-04-04T13:57:37.974Z</time></trkpt><trkpt lat="44.3618143" lon="8.1913493"><ele>451.75</ele><time>2026-04-04T13:57:38.973Z</time></trkpt><trkpt lat="44.3618165" lon="8.1915396"><ele>449.5</ele><time>2026-04-04T13:57:39.974Z</time></trkpt><trkpt lat="44.3617799" lon="8.1917099"><ele>447.25</ele><time>2026-04-04T13:57:40.973Z</time></trkpt><trkpt lat="44.3617406" lon="8.1918696"><ele>445.0</ele><time>2026-04-04T13:57:41.973Z</time></trkpt><trkpt lat="44.3616934" lon="8.1920244"><ele>445.0</ele><time>2026-04-04T13:57:42.974Z</time></trkpt><trkpt lat="44.3616421" lon="8.1921878"><ele>445.0</ele><time>2026-04-04T13:57:43.974Z</time></trkpt><trkpt lat="44.3615876" lon="8.192351"><ele>445.0</ele><time>2026-04-04T13:57:44.974Z</time></trkpt><trkpt lat="44.361556" lon="8.1925004"><ele>445.0</ele><time>2026-04-04T13:57:45.974Z</time></trkpt><trkpt lat="44.3615487" lon="8.1926413"><ele>444.0</ele><time>2026-04-04T13:57:46.974Z</time></trkpt><trkpt lat="44.3615634" lon="8.1927843"><ele>443.0</ele><time>2026-04-04T13:57:47.973Z</time></trkpt><trkpt lat="44.3616026" lon="8.1929134"><ele>442.0</ele><time>2026-04-04T13:57:48.974Z</time></trkpt><trkpt lat="44.361664" lon="8.1930275"><ele>441.0</ele><time>2026-04-04T13:57:49.973Z</time></trkpt><trkpt lat="44.3617433" lon="8.193133"><ele>440.0</ele><time>2026-04-04T13:57:50.974Z</time></trkpt><trkpt lat="44.3618382" lon="8.1932192"><ele>442.75</ele><time>2026-04-04T13:57:51.974Z</time></trkpt><trkpt lat="44.3619519" lon="8.1932694"><ele>445.5</ele><time>2026-04-04T13:57:52.974Z</time></trkpt><trkpt lat="44.362088" lon="8.1932869"><ele>448.25</ele><time>2026-04-04T13:57:53.974Z</time></trkpt><trkpt lat="44.3622472" lon="8.1932924"><ele>451.0</ele><time>2026-04-04T13:57:54.974Z</time></trkpt><trkpt lat="44.3623963" lon="8.193272"><ele>451.0</ele><time>2026-04-04T13:57:55.973Z</time></trkpt><trkpt lat="44.3625429" lon="8.1932466"><ele>451.0</ele><time>2026-04-04T13:57:56.974Z</time></trkpt><trkpt lat="44.3626982" lon="8.1932187"><ele>451.0</ele><time>2026-04-04T13:57:57.974Z</time></trkpt><trkpt lat="44.3628673" lon="8.1931886"><ele>449.75</ele><time>2026-04-04T13:57:58.974Z</time></trkpt><trkpt lat="44.3630179" lon="8.1931675"><ele>448.5</ele><time>2026-04-04T13:57:59.974Z</time></trkpt><trkpt lat="44.3631636" lon="8.1931567"><ele>447.25</ele><time>2026-04-04T13:58:00.974Z</time></trkpt><trkpt lat="44.3633079" lon="8.1931714"><ele>446.0</ele><time>2026-04-04T13:58:01.974Z</time></trkpt><trkpt lat="44.3634504" lon="8.1931886"><ele>446.0</ele><time>2026-04-04T13:58:02.974Z</time></trkpt><trkpt lat="44.3635898" lon="8.1932235"><ele>446.0</ele><time>2026-04-04T13:58:03.974Z</time></trkpt><trkpt lat="44.3637303" lon="8.1932653"><ele>446.0</ele><time>2026-04-04T13:58:04.973Z</time></trkpt><trkpt lat="44.3638719" lon="8.1933132"><ele>446.0</ele><time>2026-04-04T13:58:05.973Z</time></trkpt><trkpt lat="44.364011" lon="8.1933687"><ele>444.25</ele><time>2026-04-04T13:58:06.974Z</time></trkpt><trkpt lat="44.3641424" lon="8.1934482"><ele>442.5</ele><time>2026-04-04T13:58:07.974Z</time></trkpt><trkpt lat="44.3642629" lon="8.1935483"><ele>440.75</ele><time>2026-04-04T13:58:08.974Z</time></trkpt><trkpt lat="44.3643707" lon="8.1936749"><ele>439.0</ele><time>2026-04-04T13:58:09.974Z</time></trkpt><trkpt lat="44.364469" lon="8.1938167"><ele>439.0</ele><time>2026-04-04T13:58:10.974Z</time></trkpt><trkpt lat="44.3645647" lon="8.193963"><ele>439.0</ele><time>2026-04-04T13:58:11.973Z</time></trkpt><trkpt lat="44.3646597" lon="8.1941018"><ele>439.0</ele><time>2026-04-04T13:58:12.974Z</time></trkpt><trkpt lat="44.3647507" lon="8.1942428"><ele>439.0</ele><time>2026-04-04T13:58:13.974Z</time></trkpt><trkpt lat="44.3648345" lon="8.194395"><ele>438.75</ele><time>2026-04-04T13:58:14.974Z</time></trkpt><trkpt lat="44.3649198" lon="8.1945589"><ele>438.5</ele><time>2026-04-04T13:58:15.974Z</time></trkpt><trkpt lat="44.3650082" lon="8.1947287"><ele>438.25</ele><time>2026-04-04T13:58:16.974Z</time></trkpt><trkpt lat="44.3650896" lon="8.1949042"><ele>438.0</ele><time>2026-04-04T13:58:17.974Z</time></trkpt><trkpt lat="44.3651683" lon="8.1950694"><ele>439.25</ele><time>2026-04-04T13:58:18.973Z</time></trkpt><trkpt lat="44.3652564" lon="8.1952303"><ele>440.5</ele><time>2026-04-04T13:58:19.974Z</time></trkpt><trkpt lat="44.3653381" lon="8.1953841"><ele>441.75</ele><time>2026-04-04T13:58:20.974Z</time></trkpt><trkpt lat="44.3654179" lon="8.1955412"><ele>443.0</ele><time>2026-04-04T13:58:21.974Z</time></trkpt><trkpt lat="44.3654908" lon="8.1957056"><ele>440.0</ele><time>2026-04-04T13:58:22.974Z</time></trkpt><trkpt lat="44.3655538" lon="8.1958788"><ele>437.0</ele><time>2026-04-04T13:58:23.974Z</time></trkpt><trkpt lat="44.3656052" lon="8.1960591"><ele>434.0</ele><time>2026-04-04T13:58:24.973Z</time></trkpt><trkpt lat="44.3656574" lon="8.1962386"><ele>431.0</ele><time>2026-04-04T13:58:25.974Z</time></trkpt><trkpt lat="44.3656996" lon="8.1964162"><ele>432.25</ele><time>2026-04-04T13:58:26.974Z</time></trkpt><trkpt lat="44.3657384" lon="8.1965901"><ele>433.5</ele><time>2026-04-04T13:58:27.973Z</time></trkpt><trkpt lat="44.3657822" lon="8.1967697"><ele>434.75</ele><time>2026-04-04T13:58:28.974Z</time></trkpt><trkpt lat="44.3658054" lon="8.196946"><ele>436.0</ele><time>2026-04-04T13:58:29.974Z</time></trkpt><trkpt lat="44.3658048" lon="8.1971227"><ele>436.0</ele><time>2026-04-04T13:58:30.973Z</time></trkpt><trkpt lat="44.365788" lon="8.1972994"><ele>436.0</ele><time>2026-04-04T13:58:31.974Z</time></trkpt><trkpt lat="44.3657549" lon="8.1974813"><ele>436.0</ele><time>2026-04-04T13:58:32.974Z</time></trkpt><trkpt lat="44.3657288" lon="8.1976565"><ele>436.0</ele><time>2026-04-04T13:58:33.974Z</time></trkpt><trkpt lat="44.3657061" lon="8.197829"><ele>436.25</ele><time>2026-04-04T13:58:34.974Z</time></trkpt><trkpt lat="44.3656827" lon="8.1980006"><ele>436.5</ele><time>2026-04-04T13:58:35.974Z</time></trkpt><trkpt lat="44.3656419" lon="8.1981725"><ele>436.75</ele><time>2026-04-04T13:58:36.974Z</time></trkpt><trkpt lat="44.3655844" lon="8.1983357"><ele>437.0</ele><time>2026-04-04T13:58:37.974Z</time></trkpt><trkpt lat="44.3654909" lon="8.198483"><ele>436.5</ele><time>2026-04-04T13:58:38.973Z</time></trkpt><trkpt lat="44.3653835" lon="8.198618"><ele>436.0</ele><time>2026-04-04T13:58:39.973Z</time></trkpt><trkpt lat="44.3652692" lon="8.1987387"><ele>435.5</ele><time>2026-04-04T13:58:40.974Z</time></trkpt><trkpt lat="44.3651472" lon="8.1988648"><ele>435.0</ele><time>2026-04-04T13:58:41.974Z</time></trkpt><trkpt lat="44.3650529" lon="8.199005"><ele>435.0</ele><time>2026-04-04T13:58:42.974Z</time></trkpt><trkpt lat="44.3649675" lon="8.1991521"><ele>435.0</ele><time>2026-04-04T13:58:43.973Z</time></trkpt><trkpt lat="44.3649083" lon="8.1993058"><ele>435.0</ele><time>2026-04-04T13:58:44.973Z</time></trkpt><trkpt lat="44.3648302" lon="8.1994756"><ele>435.0</ele><time>2026-04-04T13:58:45.973Z</time></trkpt><trkpt lat="44.3647718" lon="8.1996433"><ele>435.0</ele><time>2026-04-04T13:58:46.974Z</time></trkpt><trkpt lat="44.3647019" lon="8.1998274"><ele>435.0</ele><time>2026-04-04T13:58:47.973Z</time></trkpt><trkpt lat="44.3646321" lon="8.2000082"><ele>435.0</ele><time>2026-04-04T13:58:48.973Z</time></trkpt><trkpt lat="44.3645695" lon="8.2001838"><ele>435.0</ele><time>2026-04-04T13:58:49.974Z</time></trkpt><trkpt lat="44.3645223" lon="8.2003627"><ele>435.0</ele><time>2026-04-04T13:58:50.974Z</time></trkpt><trkpt lat="44.3644699" lon="8.200535"><ele>435.0</ele><time>2026-04-04T13:58:51.973Z</time></trkpt><trkpt lat="44.3644183" lon="8.2006929"><ele>435.0</ele><time>2026-04-04T13:58:52.973Z</time></trkpt><trkpt lat="44.3643588" lon="8.2008525"><ele>435.0</ele><time>2026-04-04T13:58:53.973Z</time></trkpt><trkpt lat="44.3642916" lon="8.2010167"><ele>435.0</ele><time>2026-04-04T13:58:54.973Z</time></trkpt><trkpt lat="44.3642225" lon="8.2011901"><ele>435.0</ele><time>2026-04-04T13:58:55.974Z</time></trkpt><trkpt lat="44.3641566" lon="8.201367"><ele>435.0</ele><time>2026-04-04T13:58:56.974Z</time></trkpt><trkpt lat="44.3640894" lon="8.2015379"><ele>435.0</ele><time>2026-04-04T13:58:57.974Z</time></trkpt><trkpt lat="44.3640262" lon="8.2017149"><ele>433.66666666666663</ele><time>2026-04-04T13:58:58.973Z</time></trkpt><trkpt lat="44.3639495" lon="8.2018956"><ele>432.3333333333333</ele><time>2026-04-04T13:58:59.974Z</time></trkpt><trkpt lat="44.3638668" lon="8.2020676"><ele>431.0</ele><time>2026-04-04T13:59:00.974Z</time></trkpt><trkpt lat="44.3637885" lon="8.2022525"><ele>435.66666666666663</ele><time>2026-04-04T13:59:01.974Z</time></trkpt><trkpt lat="44.3637108" lon="8.2024444"><ele>440.33333333333337</ele><time>2026-04-04T13:59:02.974Z</time></trkpt><trkpt lat="44.3636299" lon="8.2026322"><ele>445.0</ele><time>2026-04-04T13:59:03.974Z</time></trkpt><trkpt lat="44.363551" lon="8.2028187"><ele>445.0</ele><time>2026-04-04T13:59:04.974Z</time></trkpt><trkpt lat="44.3634592" lon="8.2030079"><ele>445.0</ele><time>2026-04-04T13:59:05.973Z</time></trkpt><trkpt lat="44.3632964" lon="8.2031411"><ele>445.0</ele><time>2026-04-04T13:59:06.973Z</time></trkpt><trkpt lat="44.3631067" lon="8.2033103"><ele>448.0</ele><time>2026-04-04T13:59:07.974Z</time></trkpt><trkpt lat="44.3629403" lon="8.2034917"><ele>451.0</ele><time>2026-04-04T13:59:08.973Z</time></trkpt><trkpt lat="44.3627953" lon="8.2036705"><ele>454.0</ele><time>2026-04-04T13:59:09.974Z</time></trkpt><trkpt lat="44.3626557" lon="8.2038429"><ele>450.0</ele><time>2026-04-04T13:59:10.974Z</time></trkpt><trkpt lat="44.3625226" lon="8.2040088"><ele>446.0</ele><time>2026-04-04T13:59:11.974Z</time></trkpt><trkpt lat="44.3623944" lon="8.2041752"><ele>442.0</ele><time>2026-04-04T13:59:12.973Z</time></trkpt><trkpt lat="44.3622614" lon="8.2043467"><ele>444.0</ele><time>2026-04-04T13:59:13.974Z</time></trkpt><trkpt lat="44.3621294" lon="8.2045234"><ele>446.0</ele><time>2026-04-04T13:59:14.974Z</time></trkpt><trkpt lat="44.3596933" lon="8.2073183"><ele>443.3333333333333</ele><time>2026-04-04T13:59:32.977Z</time></trkpt><trkpt lat="44.3596148" lon="8.207565"><ele>440.66666666666663</ele><time>2026-04-04T13:59:33.977Z</time></trkpt><trkpt lat="44.359555" lon="8.2078042"><ele>438.0</ele><time>2026-04-04T13:59:34.976Z</time></trkpt><trkpt lat="44.3594883" lon="8.2080624"><ele>440.0</ele><time>2026-04-04T13:59:35.977Z</time></trkpt><trkpt lat="44.3594249" lon="8.2083213"><ele>442.0</ele><time>2026-04-04T13:59:36.976Z</time></trkpt><trkpt lat="44.3593956" lon="8.2085657"><ele>444.0</ele><time>2026-04-04T13:59:37.977Z</time></trkpt><trkpt lat="44.3593928" lon="8.2088099"><ele>448.33333333333337</ele><time>2026-04-04T13:59:38.977Z</time></trkpt><trkpt lat="44.3594087" lon="8.2090613"><ele>452.6666666666667</ele><time>2026-04-04T13:59:39.977Z</time></trkpt><trkpt lat="44.3594467" lon="8.2093114"><ele>457.0</ele><time>2026-04-04T13:59:40.977Z</time></trkpt><trkpt lat="44.3595261" lon="8.2095248"><ele>457.0</ele><time>2026-04-04T13:59:41.977Z</time></trkpt><trkpt lat="44.3596144" lon="8.2097129"><ele>457.0</ele><time>2026-04-04T13:59:42.976Z</time></trkpt><trkpt lat="44.3597244" lon="8.2098812"><ele>457.0</ele><time>2026-04-04T13:59:43.977Z</time></trkpt><trkpt lat="44.3598343" lon="8.210041"><ele>453.33333333333337</ele><time>2026-04-04T13:59:44.976Z</time></trkpt><trkpt lat="44.3599267" lon="8.2102089"><ele>449.66666666666663</ele><time>2026-04-04T13:59:45.977Z</time></trkpt><trkpt lat="44.3600157" lon="8.2103772"><ele>446.0</ele><time>2026-04-04T13:59:46.976Z</time></trkpt><trkpt lat="44.360104" lon="8.210558"><ele>451.3333333333333</ele><time>2026-04-04T13:59:47.977Z</time></trkpt><trkpt lat="44.3601896" lon="8.2107522"><ele>456.66666666666663</ele><time>2026-04-04T13:59:48.977Z</time></trkpt><trkpt lat="44.3602694" lon="8.2109766"><ele>462.0</ele><time>2026-04-04T13:59:49.976Z</time></trkpt><trkpt lat="44.3603528" lon="8.2111841"><ele>462.0</ele><time>2026-04-04T13:59:50.977Z</time></trkpt><trkpt lat="44.3604375" lon="8.2113822"><ele>462.0</ele><time>2026-04-04T13:59:51.977Z</time></trkpt><trkpt lat="44.360549" lon="8.2115238"><ele>462.0</ele><time>2026-04-04T13:59:52.976Z</time></trkpt><trkpt lat="44.3606622" lon="8.2115694"><ele>462.0</ele><time>2026-04-04T13:59:53.977Z</time></trkpt><trkpt lat="44.3607558" lon="8.2116846"><ele>458.0</ele><time>2026-04-04T13:59:54.977Z</time></trkpt><trkpt lat="44.3608364" lon="8.2118262"><ele>454.0</ele><time>2026-04-04T13:59:55.977Z</time></trkpt><trkpt lat="44.3609081" lon="8.2119826"><ele>450.0</ele><time>2026-04-04T13:59:56.977Z</time></trkpt><trkpt lat="44.3609149" lon="8.2121652"><ele>446.0</ele><time>2026-04-04T13:59:57.977Z</time></trkpt><trkpt lat="44.3608826" lon="8.2123602"><ele>446.0</ele><time>2026-04-04T13:59:58.976Z</time></trkpt><trkpt lat="44.3608399" lon="8.2125509"><ele>446.0</ele><time>2026-04-04T13:59:59.977Z</time></trkpt><trkpt lat="44.360801" lon="8.2127257"><ele>446.0</ele><time>2026-04-04T14:00:00.977Z</time></trkpt><trkpt lat="44.3607715" lon="8.2128855"><ele>446.0</ele><time>2026-04-04T14:00:01.976Z</time></trkpt><trkpt lat="44.3607583" lon="8.2130387"><ele>446.75</ele><time>2026-04-04T14:00:02.977Z</time></trkpt><trkpt lat="44.3607278" lon="8.2131884"><ele>447.5</ele><time>2026-04-04T14:00:03.977Z</time></trkpt><trkpt lat="44.3606894" lon="8.2133447"><ele>448.25</ele><time>2026-04-04T14:00:04.977Z</time></trkpt><trkpt lat="44.3606414" lon="8.2134994"><ele>449.0</ele><time>2026-04-04T14:00:05.976Z</time></trkpt><trkpt lat="44.3605822" lon="8.2136482"><ele>449.5</ele><time>2026-04-04T14:00:06.977Z</time></trkpt><trkpt lat="44.3605166" lon="8.2137956"><ele>450.0</ele><time>2026-04-04T14:00:07.977Z</time></trkpt><trkpt lat="44.3604323" lon="8.2139434"><ele>450.5</ele><time>2026-04-04T14:00:08.976Z</time></trkpt><trkpt lat="44.3603365" lon="8.2140886"><ele>451.0</ele><time>2026-04-04T14:00:09.977Z</time></trkpt><trkpt lat="44.3602203" lon="8.2142221"><ele>451.0</ele><time>2026-04-04T14:00:10.977Z</time></trkpt><trkpt lat="44.3601003" lon="8.21434"><ele>451.0</ele><time>2026-04-04T14:00:11.977Z</time></trkpt><trkpt lat="44.3599761" lon="8.2144465"><ele>451.0</ele><time>2026-04-04T14:00:12.977Z</time></trkpt><trkpt lat="44.3598569" lon="8.2145396"><ele>451.0</ele><time>2026-04-04T14:00:13.977Z</time></trkpt><trkpt lat="44.3597476" lon="8.2146177"><ele>452.6</ele><time>2026-04-04T14:00:14.977Z</time></trkpt><trkpt lat="44.3596513" lon="8.2146886"><ele>454.20000000000005</ele><time>2026-04-04T14:00:15.977Z</time></trkpt><trkpt lat="44.3595636" lon="8.21476"><ele>455.79999999999995</ele><time>2026-04-04T14:00:16.976Z</time></trkpt><trkpt lat="44.3594804" lon="8.214825"><ele>457.4</ele><time>2026-04-04T14:00:17.976Z</time></trkpt><trkpt lat="44.3593956" lon="8.2148971"><ele>459.0</ele><time>2026-04-04T14:00:18.976Z</time></trkpt><trkpt lat="44.35931" lon="8.2149659"><ele>459.0</ele><time>2026-04-04T14:00:19.977Z</time></trkpt><trkpt lat="44.3592333" lon="8.2150379"><ele>459.0</ele><time>2026-04-04T14:00:20.977Z</time></trkpt><trkpt lat="44.3591556" lon="8.2151214"><ele>459.0</ele><time>2026-04-04T14:00:21.976Z</time></trkpt><trkpt lat="44.3590813" lon="8.2152216"><ele>459.0</ele><time>2026-04-04T14:00:22.977Z</time></trkpt><trkpt lat="44.3590158" lon="8.2153331"><ele>459.0</ele><time>2026-04-04T14:00:23.977Z</time></trkpt><trkpt lat="44.3589612" lon="8.2154572"><ele>459.0</ele><time>2026-04-04T14:00:24.977Z</time></trkpt><trkpt lat="44.3589296" lon="8.2155764"><ele>459.0</ele><time>2026-04-04T14:00:25.976Z</time></trkpt><trkpt lat="44.3589192" lon="8.215701"><ele>459.0</ele><time>2026-04-04T14:00:26.977Z</time></trkpt><trkpt lat="44.3589309" lon="8.2158221"><ele>459.0</ele><time>2026-04-04T14:00:27.976Z</time></trkpt><trkpt lat="44.3589667" lon="8.2159444"><ele>459.0</ele><time>2026-04-04T14:00:28.976Z</time></trkpt><trkpt lat="44.359005" lon="8.216054"><ele>460.1666666666667</ele><time>2026-04-04T14:00:29.977Z</time></trkpt><trkpt lat="44.3590428" lon="8.2161507"><ele>461.33333333333337</ele><time>2026-04-04T14:00:30.977Z</time></trkpt><trkpt lat="44.3590713" lon="8.2162354"><ele>462.5</ele><time>2026-04-04T14:00:31.977Z</time></trkpt><trkpt lat="44.3590976" lon="8.216329"><ele>463.6666666666667</ele><time>2026-04-04T14:00:32.976Z</time></trkpt><trkpt lat="44.3591246" lon="8.2164381"><ele>464.83333333333337</ele><time>2026-04-04T14:00:33.977Z</time></trkpt><trkpt lat="44.3591601" lon="8.2165684"><ele>466.0</ele><time>2026-04-04T14:00:34.977Z</time></trkpt><trkpt lat="44.359182" lon="8.216712"><ele>466.0</ele><time>2026-04-04T14:00:35.977Z</time></trkpt><trkpt lat="44.3592074" lon="8.2168734"><ele>466.0</ele><time>2026-04-04T14:00:36.977Z</time></trkpt><trkpt lat="44.3592193" lon="8.2170529"><ele>466.0</ele><time>2026-04-04T14:00:37.977Z</time></trkpt><trkpt lat="44.3592096" lon="8.2172411"><ele>466.0</ele><time>2026-04-04T14:00:38.977Z</time></trkpt><trkpt lat="44.3591689" lon="8.217445"><ele>466.0</ele><time>2026-04-04T14:00:39.977Z</time></trkpt><trkpt lat="44.3590857" lon="8.2176721"><ele>466.0</ele><time>2026-04-04T14:00:40.976Z</time></trkpt><trkpt lat="44.3589862" lon="8.2179247"><ele>466.0</ele><time>2026-04-04T14:00:41.976Z</time></trkpt><trkpt lat="44.3588986" lon="8.2181953"><ele>467.33333333333337</ele><time>2026-04-04T14:00:42.977Z</time></trkpt><trkpt lat="44.358836" lon="8.2184839"><ele>468.66666666666663</ele><time>2026-04-04T14:00:43.977Z</time></trkpt><trkpt lat="44.3587998" lon="8.2187582"><ele>470.0</ele><time>2026-04-04T14:00:44.977Z</time></trkpt><trkpt lat="44.3587758" lon="8.2189984"><ele>471.5</ele><time>2026-04-04T14:00:45.977Z</time></trkpt><trkpt lat="44.3587656" lon="8.2191989"><ele>473.0</ele><time>2026-04-04T14:00:46.977Z</time></trkpt><trkpt lat="44.358755" lon="8.2193851"><ele>474.5</ele><time>2026-04-04T14:00:47.977Z</time></trkpt><trkpt lat="44.3587442" lon="8.2195754"><ele>476.0</ele><time>2026-04-04T14:00:48.977Z</time></trkpt><trkpt lat="44.3587467" lon="8.219753"><ele>477.0</ele><time>2026-04-04T14:00:49.977Z</time></trkpt><trkpt lat="44.3587438" lon="8.21992"><ele>478.0</ele><time>2026-04-04T14:00:50.977Z</time></trkpt><trkpt lat="44.3587376" lon="8.2200763"><ele>479.0</ele><time>2026-04-04T14:00:51.976Z</time></trkpt><trkpt lat="44.3587182" lon="8.220225"><ele>480.0</ele><time>2026-04-04T14:00:52.976Z</time></trkpt><trkpt lat="44.3586788" lon="8.2203752"><ele>480.0</ele><time>2026-04-04T14:00:53.977Z</time></trkpt><trkpt lat="44.358615" lon="8.220506"><ele>480.0</ele><time>2026-04-04T14:00:54.977Z</time></trkpt><trkpt lat="44.3585237" lon="8.2206061"><ele>480.0</ele><time>2026-04-04T14:00:55.976Z</time></trkpt><trkpt lat="44.3584006" lon="8.2206574"><ele>480.0</ele><time>2026-04-04T14:00:56.976Z</time></trkpt><trkpt lat="44.3582743" lon="8.2206706"><ele>482.0</ele><time>2026-04-04T14:00:57.977Z</time></trkpt><trkpt lat="44.35815" lon="8.2206664"><ele>484.0</ele><time>2026-04-04T14:00:58.977Z</time></trkpt><trkpt lat="44.358033" lon="8.2206738"><ele>486.0</ele><time>2026-04-04T14:00:59.977Z</time></trkpt><trkpt lat="44.3579111" lon="8.2206806"><ele>488.0</ele><time>2026-04-04T14:01:00.976Z</time></trkpt><trkpt lat="44.3577928" lon="8.2206894"><ele>488.25</ele><time>2026-04-04T14:01:01.977Z</time></trkpt><trkpt lat="44.3576784" lon="8.2207072"><ele>488.5</ele><time>2026-04-04T14:01:02.977Z</time></trkpt><trkpt lat="44.3575647" lon="8.2207412"><ele>488.75</ele><time>2026-04-04T14:01:03.977Z</time></trkpt><trkpt lat="44.3574636" lon="8.2208078"><ele>489.0</ele><time>2026-04-04T14:01:04.977Z</time></trkpt><trkpt lat="44.3573848" lon="8.2209184"><ele>489.0</ele><time>2026-04-04T14:01:05.977Z</time></trkpt><trkpt lat="44.3573246" lon="8.2210605"><ele>489.0</ele><time>2026-04-04T14:01:06.976Z</time></trkpt><trkpt lat="44.3572762" lon="8.2212283"><ele>489.0</ele><time>2026-04-04T14:01:07.977Z</time></trkpt><trkpt lat="44.3572466" lon="8.2214125"><ele>489.0</ele><time>2026-04-04T14:01:08.977Z</time></trkpt><trkpt lat="44.3572227" lon="8.2215952"><ele>491.75</ele><time>2026-04-04T14:01:09.977Z</time></trkpt><trkpt lat="44.3572125" lon="8.2217804"><ele>494.5</ele><time>2026-04-04T14:01:10.977Z</time></trkpt><trkpt lat="44.3572142" lon="8.2219675"><ele>497.25</ele><time>2026-04-04T14:01:11.977Z</time></trkpt><trkpt lat="44.3572199" lon="8.2221542"><ele>500.0</ele><time>2026-04-04T14:01:12.976Z</time></trkpt><trkpt lat="44.357233" lon="8.2223387"><ele>503.0</ele><time>2026-04-04T14:01:13.977Z</time></trkpt><trkpt lat="44.35725" lon="8.2225237"><ele>506.0</ele><time>2026-04-04T14:01:14.977Z</time></trkpt><trkpt lat="44.3572845" lon="8.2227356"><ele>509.0</ele><time>2026-04-04T14:01:15.977Z</time></trkpt><trkpt lat="44.3573416" lon="8.2229982"><ele>510.3333333333333</ele><time>2026-04-04T14:01:16.976Z</time></trkpt><trkpt lat="44.35741" lon="8.2232886"><ele>511.66666666666663</ele><time>2026-04-04T14:01:17.977Z</time></trkpt><trkpt lat="44.3574833" lon="8.2235893"><ele>513.0</ele><time>2026-04-04T14:01:18.976Z</time></trkpt><trkpt lat="44.3575597" lon="8.2238858"><ele>514.0</ele><time>2026-04-04T14:01:19.977Z</time></trkpt><trkpt lat="44.3576328" lon="8.2241773"><ele>515.0</ele><time>2026-04-04T14:01:20.977Z</time></trkpt><trkpt lat="44.3576894" lon="8.2244447"><ele>516.0</ele><time>2026-04-04T14:01:21.977Z</time></trkpt><trkpt lat="44.3577175" lon="8.2247204"><ele>518.0</ele><time>2026-04-04T14:01:22.977Z</time></trkpt><trkpt lat="44.357767" lon="8.224979"><ele>520.0</ele><time>2026-04-04T14:01:23.976Z</time></trkpt><trkpt lat="44.3578096" lon="8.2252286"><ele>522.0</ele><time>2026-04-04T14:01:24.977Z</time></trkpt><trkpt lat="44.357853" lon="8.2254869"><ele>523.3333333333334</ele><time>2026-04-04T14:01:25.977Z</time></trkpt><trkpt lat="44.3578902" lon="8.2257511"><ele>524.6666666666667</ele><time>2026-04-04T14:01:26.977Z</time></trkpt><trkpt lat="44.3579212" lon="8.2260083"><ele>526.0</ele><time>2026-04-04T14:01:27.977Z</time></trkpt><trkpt lat="44.3579534" lon="8.2262528"><ele>526.0</ele><time>2026-04-04T14:01:28.977Z</time></trkpt><trkpt lat="44.3579837" lon="8.2264702"><ele>526.0</ele><time>2026-04-04T14:01:29.977Z</time></trkpt><trkpt lat="44.358017" lon="8.2266821"><ele>526.0</ele><time>2026-04-04T14:01:30.976Z</time></trkpt><trkpt lat="44.3580637" lon="8.2268853"><ele>526.6666666666667</ele><time>2026-04-04T14:01:31.976Z</time></trkpt><trkpt lat="44.3581201" lon="8.2270878"><ele>527.3333333333334</ele><time>2026-04-04T14:01:32.977Z</time></trkpt><trkpt lat="44.3582073" lon="8.2272762"><ele>528.0</ele><time>2026-04-04T14:01:33.977Z</time></trkpt><trkpt lat="44.3583196" lon="8.2274596"><ele>528.0</ele><time>2026-04-04T14:01:34.977Z</time></trkpt><trkpt lat="44.358443" lon="8.2276504"><ele>528.0</ele><time>2026-04-04T14:01:35.977Z</time></trkpt><trkpt lat="44.3585769" lon="8.2278349"><ele>528.0</ele><time>2026-04-04T14:01:36.977Z</time></trkpt><trkpt lat="44.3587045" lon="8.2280318"><ele>526.0</ele><time>2026-04-04T14:01:37.977Z</time></trkpt><trkpt lat="44.358833" lon="8.2282464"><ele>524.0</ele><time>2026-04-04T14:01:38.977Z</time></trkpt><trkpt lat="44.358965" lon="8.2284658"><ele>522.0</ele><time>2026-04-04T14:01:39.977Z</time></trkpt><trkpt lat="44.359098" lon="8.2286888"><ele>522.0</ele><time>2026-04-04T14:01:40.977Z</time></trkpt><trkpt lat="44.3592304" lon="8.2289224"><ele>522.0</ele><time>2026-04-04T14:01:41.976Z</time></trkpt><trkpt lat="44.3593586" lon="8.2291663"><ele>522.0</ele><time>2026-04-04T14:01:42.977Z</time></trkpt><trkpt lat="44.3594783" lon="8.2294302"><ele>519.3333333333334</ele><time>2026-04-04T14:01:43.977Z</time></trkpt><trkpt lat="44.3595915" lon="8.2297033"><ele>516.6666666666667</ele><time>2026-04-04T14:01:44.977Z</time></trkpt><trkpt lat="44.3597062" lon="8.2299713"><ele>514.0</ele><time>2026-04-04T14:01:45.976Z</time></trkpt><trkpt lat="44.359818" lon="8.2302398"><ele>513.5</ele><time>2026-04-04T14:01:46.977Z</time></trkpt><trkpt lat="44.3599194" lon="8.2305242"><ele>513.0</ele><time>2026-04-04T14:01:47.977Z</time></trkpt><trkpt lat="44.3600284" lon="8.2308008"><ele>509.5</ele><time>2026-04-04T14:01:48.976Z</time></trkpt><trkpt lat="44.3601468" lon="8.2310767"><ele>506.0</ele><time>2026-04-04T14:01:49.977Z</time></trkpt><trkpt lat="44.3602663" lon="8.2313494"><ele>502.0</ele><time>2026-04-04T14:01:50.976Z</time></trkpt><trkpt lat="44.3603837" lon="8.2316238"><ele>498.0</ele><time>2026-04-04T14:01:51.977Z</time></trkpt><trkpt lat="44.3605018" lon="8.2318975"><ele>497.0</ele><time>2026-04-04T14:01:52.977Z</time></trkpt><trkpt lat="44.360619" lon="8.2321706"><ele>496.0</ele><time>2026-04-04T14:01:53.976Z</time></trkpt><trkpt lat="44.3607453" lon="8.2324331"><ele>496.0</ele><time>2026-04-04T14:01:54.976Z</time></trkpt><trkpt lat="44.3608822" lon="8.2326882"><ele>496.0</ele><time>2026-04-04T14:01:55.977Z</time></trkpt><trkpt lat="44.3610288" lon="8.2329331"><ele>492.33333333333337</ele><time>2026-04-04T14:01:56.976Z</time></trkpt><trkpt lat="44.3611886" lon="8.2331559"><ele>488.66666666666663</ele><time>2026-04-04T14:01:57.976Z</time></trkpt><trkpt lat="44.3613522" lon="8.2333695"><ele>485.0</ele><time>2026-04-04T14:01:58.977Z</time></trkpt><trkpt lat="44.3615185" lon="8.2335599"><ele>485.0</ele><time>2026-04-04T14:01:59.977Z</time></trkpt><trkpt lat="44.3616684" lon="8.2337857"><ele>485.0</ele><time>2026-04-04T14:02:00.977Z</time></trkpt><trkpt lat="44.3618" lon="8.2340388"><ele>485.0</ele><time>2026-04-04T14:02:01.977Z</time></trkpt><trkpt lat="44.3619111" lon="8.2343198"><ele>482.0</ele><time>2026-04-04T14:02:02.977Z</time></trkpt><trkpt lat="44.3619921" lon="8.2346134"><ele>479.0</ele><time>2026-04-04T14:02:03.977Z</time></trkpt><trkpt lat="44.3620565" lon="8.2349172"><ele>475.5</ele><time>2026-04-04T14:02:04.977Z</time></trkpt><trkpt lat="44.3621161" lon="8.2352249"><ele>472.0</ele><time>2026-04-04T14:02:05.976Z</time></trkpt><trkpt lat="44.3621741" lon="8.2355296"><ele>473.6666666666667</ele><time>2026-04-04T14:02:06.976Z</time></trkpt><trkpt lat="44.3622275" lon="8.2358329"><ele>475.33333333333337</ele><time>2026-04-04T14:02:07.976Z</time></trkpt><trkpt lat="44.3622858" lon="8.2361288"><ele>477.0</ele><time>2026-04-04T14:02:08.977Z</time></trkpt><trkpt lat="44.362341" lon="8.2364157"><ele>474.66666666666663</ele><time>2026-04-04T14:02:09.977Z</time></trkpt><trkpt lat="44.3623969" lon="8.2366933"><ele>472.3333333333333</ele><time>2026-04-04T14:02:10.977Z</time></trkpt><trkpt lat="44.362453" lon="8.2369596"><ele>470.0</ele><time>2026-04-04T14:02:11.976Z</time></trkpt><trkpt lat="44.3625068" lon="8.2372189"><ele>468.3333333333333</ele><time>2026-04-04T14:02:12.977Z</time></trkpt><trkpt lat="44.362557" lon="8.2374638"><ele>466.66666666666663</ele><time>2026-04-04T14:02:13.977Z</time></trkpt><trkpt lat="44.3626034" lon="8.2377015"><ele>465.0</ele><time>2026-04-04T14:02:14.977Z</time></trkpt><trkpt lat="44.362637" lon="8.2379338"><ele>464.66666666666663</ele><time>2026-04-04T14:02:15.976Z</time></trkpt><trkpt lat="44.3626576" lon="8.23815"><ele>464.3333333333333</ele><time>2026-04-04T14:02:16.976Z</time></trkpt><trkpt lat="44.3626608" lon="8.2383597"><ele>464.0</ele><time>2026-04-04T14:02:17.977Z</time></trkpt><trkpt lat="44.3626441" lon="8.2385613"><ele>464.0</ele><time>2026-04-04T14:02:18.977Z</time></trkpt><trkpt lat="44.3626109" lon="8.2387559"><ele>464.0</ele><time>2026-04-04T14:02:19.977Z</time></trkpt><trkpt lat="44.3625801" lon="8.2389399"><ele>464.0</ele><time>2026-04-04T14:02:20.977Z</time></trkpt><trkpt lat="44.3625476" lon="8.2391143"><ele>464.0</ele><time>2026-04-04T14:02:21.976Z</time></trkpt><trkpt lat="44.3625154" lon="8.239276"><ele>463.79999999999995</ele><time>2026-04-04T14:02:22.977Z</time></trkpt><trkpt lat="44.3624848" lon="8.2394173"><ele>463.59999999999997</ele><time>2026-04-04T14:02:23.977Z</time></trkpt><trkpt lat="44.3624501" lon="8.2395467"><ele>463.4</ele><time>2026-04-04T14:02:24.977Z</time></trkpt><trkpt lat="44.3624156" lon="8.239679"><ele>463.2</ele><time>2026-04-04T14:02:25.977Z</time></trkpt><trkpt lat="44.3623902" lon="8.2398207"><ele>463.0</ele><time>2026-04-04T14:02:26.977Z</time></trkpt><trkpt lat="44.3623851" lon="8.2399794"><ele>463.5</ele><time>2026-04-04T14:02:27.977Z</time></trkpt><trkpt lat="44.3623771" lon="8.2401573"><ele>464.0</ele><time>2026-04-04T14:02:28.977Z</time></trkpt><trkpt lat="44.3623566" lon="8.240342"><ele>464.5</ele><time>2026-04-04T14:02:29.976Z</time></trkpt><trkpt lat="44.3623371" lon="8.2405123"><ele>465.0</ele><time>2026-04-04T14:02:30.977Z</time></trkpt><trkpt lat="44.3623092" lon="8.240683"><ele>465.5</ele><time>2026-04-04T14:02:31.976Z</time></trkpt><trkpt lat="44.3622829" lon="8.240854"><ele>466.0</ele><time>2026-04-04T14:02:32.977Z</time></trkpt><trkpt lat="44.3622676" lon="8.2410243"><ele>466.5</ele><time>2026-04-04T14:02:33.976Z</time></trkpt><trkpt lat="44.3622889" lon="8.2411861"><ele>467.0</ele><time>2026-04-04T14:02:34.977Z</time></trkpt><trkpt lat="44.3623451" lon="8.2413469"><ele>465.3333333333333</ele><time>2026-04-04T14:02:35.977Z</time></trkpt><trkpt lat="44.3624465" lon="8.2415006"><ele>463.66666666666663</ele><time>2026-04-04T14:02:36.977Z</time></trkpt><trkpt lat="44.3625588" lon="8.2416663"><ele>462.0</ele><time>2026-04-04T14:02:37.977Z</time></trkpt><trkpt lat="44.3626774" lon="8.241833"><ele>462.0</ele><time>2026-04-04T14:02:38.977Z</time></trkpt><trkpt lat="44.3627985" lon="8.241997"><ele>462.0</ele><time>2026-04-04T14:02:39.977Z</time></trkpt><trkpt lat="44.3629202" lon="8.242165"><ele>462.0</ele><time>2026-04-04T14:02:40.976Z</time></trkpt><trkpt lat="44.3630457" lon="8.2423402"><ele>461.33333333333337</ele><time>2026-04-04T14:02:41.977Z</time></trkpt><trkpt lat="44.3631767" lon="8.2425152"><ele>460.6666666666667</ele><time>2026-04-04T14:02:42.977Z</time></trkpt><trkpt lat="44.3633043" lon="8.2426983"><ele>460.0</ele><time>2026-04-04T14:02:43.977Z</time></trkpt><trkpt lat="44.363427" lon="8.2428944"><ele>460.0</ele><time>2026-04-04T14:02:44.977Z</time></trkpt><trkpt lat="44.3635411" lon="8.2431001"><ele>460.0</ele><time>2026-04-04T14:02:45.977Z</time></trkpt><trkpt lat="44.3636397" lon="8.2433261"><ele>460.0</ele><time>2026-04-04T14:02:46.977Z</time></trkpt><trkpt lat="44.3637325" lon="8.2435761"><ele>458.33333333333337</ele><time>2026-04-04T14:02:47.977Z</time></trkpt><trkpt lat="44.3638021" lon="8.2438733"><ele>456.66666666666663</ele><time>2026-04-04T14:02:48.977Z</time></trkpt><trkpt lat="44.3638644" lon="8.2441758"><ele>455.0</ele><time>2026-04-04T14:02:49.977Z</time></trkpt><trkpt lat="44.3639249" lon="8.2444573"><ele>455.0</ele><time>2026-04-04T14:02:50.976Z</time></trkpt><trkpt lat="44.3639806" lon="8.2447265"><ele>455.0</ele><time>2026-04-04T14:02:51.977Z</time></trkpt><trkpt lat="44.3640313" lon="8.2449952"><ele>455.0</ele><time>2026-04-04T14:02:52.977Z</time></trkpt><trkpt lat="44.3640727" lon="8.2452712"><ele>453.66666666666663</ele><time>2026-04-04T14:02:53.977Z</time></trkpt><trkpt lat="44.3641196" lon="8.2455455"><ele>452.33333333333337</ele><time>2026-04-04T14:02:54.977Z</time></trkpt><trkpt lat="44.3641693" lon="8.2458227"><ele>451.0</ele><time>2026-04-04T14:02:55.977Z</time></trkpt><trkpt lat="44.3642165" lon="8.2460995"><ele>449.33333333333337</ele><time>2026-04-04T14:02:56.976Z</time></trkpt><trkpt lat="44.3642552" lon="8.2463804"><ele>447.66666666666663</ele><time>2026-04-04T14:02:57.977Z</time></trkpt><trkpt lat="44.3642953" lon="8.2466687"><ele>446.0</ele><time>2026-04-04T14:02:58.977Z</time></trkpt><trkpt lat="44.3643357" lon="8.246955"><ele>445.0</ele><time>2026-04-04T14:02:59.977Z</time></trkpt><trkpt lat="44.364375" lon="8.2472345"><ele>444.0</ele><time>2026-04-04T14:03:00.977Z</time></trkpt><trkpt lat="44.364411" lon="8.2475055"><ele>443.0</ele><time>2026-04-04T14:03:01.977Z</time></trkpt><trkpt lat="44.3644449" lon="8.2477875"><ele>442.3333333333333</ele><time>2026-04-04T14:03:02.977Z</time></trkpt><trkpt lat="44.3644815" lon="8.2480652"><ele>441.66666666666663</ele><time>2026-04-04T14:03:03.976Z</time></trkpt><trkpt lat="44.3645165" lon="8.2483442"><ele>441.0</ele><time>2026-04-04T14:03:04.977Z</time></trkpt><trkpt lat="44.364552" lon="8.2486235"><ele>440.0</ele><time>2026-04-04T14:03:05.977Z</time></trkpt><trkpt lat="44.3645891" lon="8.248901"><ele>439.0</ele><time>2026-04-04T14:03:06.977Z</time></trkpt><trkpt lat="44.3646234" lon="8.2491809"><ele>438.0</ele><time>2026-04-04T14:03:07.976Z</time></trkpt><trkpt lat="44.3646647" lon="8.2494499"><ele>439.0</ele><time>2026-04-04T14:03:08.977Z</time></trkpt><trkpt lat="44.3647077" lon="8.2497143"><ele>440.0</ele><time>2026-04-04T14:03:09.976Z</time></trkpt><trkpt lat="44.3647502" lon="8.2499756"><ele>441.0</ele><time>2026-04-04T14:03:10.977Z</time></trkpt><trkpt lat="44.3648089" lon="8.2502274"><ele>441.0</ele><time>2026-04-04T14:03:11.977Z</time></trkpt><trkpt lat="44.3648541" lon="8.2504962"><ele>441.0</ele><time>2026-04-04T14:03:12.976Z</time></trkpt><trkpt lat="44.3649004" lon="8.2507589"><ele>441.0</ele><time>2026-04-04T14:03:13.977Z</time></trkpt><trkpt lat="44.3649358" lon="8.2510269"><ele>439.66666666666663</ele><time>2026-04-04T14:03:14.977Z</time></trkpt><trkpt lat="44.3649662" lon="8.2512939"><ele>438.3333333333333</ele><time>2026-04-04T14:03:15.977Z</time></trkpt><trkpt lat="44.3649973" lon="8.251555"><ele>437.0</ele><time>2026-04-04T14:03:16.977Z</time></trkpt><trkpt lat="44.3650267" lon="8.2518121"><ele>435.66666666666663</ele><time>2026-04-04T14:03:17.976Z</time></trkpt><trkpt lat="44.3650575" lon="8.2520661"><ele>434.33333333333337</ele><time>2026-04-04T14:03:18.976Z</time></trkpt><trkpt lat="44.3650913" lon="8.252311"><ele>433.0</ele><time>2026-04-04T14:03:19.976Z</time></trkpt><trkpt lat="44.3651326" lon="8.2525555"><ele>431.6666666666667</ele><time>2026-04-04T14:03:20.976Z</time></trkpt><trkpt lat="44.3651802" lon="8.2528026"><ele>430.33333333333337</ele><time>2026-04-04T14:03:21.976Z</time></trkpt><trkpt lat="44.3652313" lon="8.2530471"><ele>429.0</ele><time>2026-04-04T14:03:22.976Z</time></trkpt><trkpt lat="44.3652922" lon="8.2532832"><ele>428.33333333333337</ele><time>2026-04-04T14:03:23.976Z</time></trkpt><trkpt lat="44.3653609" lon="8.2535134"><ele>427.6666666666667</ele><time>2026-04-04T14:03:24.975Z</time></trkpt><trkpt lat="44.365435" lon="8.2537342"><ele>427.0</ele><time>2026-04-04T14:03:25.976Z</time></trkpt><trkpt lat="44.3655185" lon="8.2539415"><ele>429.33333333333337</ele><time>2026-04-04T14:03:26.975Z</time></trkpt><trkpt lat="44.3656028" lon="8.2541304"><ele>431.66666666666663</ele><time>2026-04-04T14:03:27.976Z</time></trkpt><trkpt lat="44.3656894" lon="8.2543135"><ele>434.0</ele><time>2026-04-04T14:03:28.976Z</time></trkpt><trkpt lat="44.3657858" lon="8.2544932"><ele>434.0</ele><time>2026-04-04T14:03:29.975Z</time></trkpt><trkpt lat="44.3658883" lon="8.2546814"><ele>434.0</ele><time>2026-04-04T14:03:30.976Z</time></trkpt><trkpt lat="44.3659961" lon="8.2548767"><ele>434.0</ele><time>2026-04-04T14:03:31.976Z</time></trkpt><trkpt lat="44.3661035" lon="8.2550818"><ele>432.0</ele><time>2026-04-04T14:03:32.976Z</time></trkpt><trkpt lat="44.3661792" lon="8.2553027"><ele>430.0</ele><time>2026-04-04T14:03:33.976Z</time></trkpt><trkpt lat="44.366227" lon="8.2555375"><ele>428.0</ele><time>2026-04-04T14:03:34.975Z</time></trkpt><trkpt lat="44.3662584" lon="8.2557693"><ele>428.0</ele><time>2026-04-04T14:03:35.976Z</time></trkpt><trkpt lat="44.366282" lon="8.2559981"><ele>428.0</ele><time>2026-04-04T14:03:36.976Z</time></trkpt><trkpt lat="44.3663073" lon="8.2562217"><ele>428.0</ele><time>2026-04-04T14:03:37.976Z</time></trkpt><trkpt lat="44.3663313" lon="8.2564473"><ele>428.0</ele><time>2026-04-04T14:03:38.975Z</time></trkpt><trkpt lat="44.3663541" lon="8.2566682"><ele>428.0</ele><time>2026-04-04T14:03:39.976Z</time></trkpt><trkpt lat="44.3663798" lon="8.2568781"><ele>428.0</ele><time>2026-04-04T14:03:40.976Z</time></trkpt><trkpt lat="44.3664251" lon="8.257068"><ele>428.0</ele><time>2026-04-04T14:03:41.976Z</time></trkpt><trkpt lat="44.3665051" lon="8.2572282"><ele>428.0</ele><time>2026-04-04T14:03:42.976Z</time></trkpt><trkpt lat="44.3666056" lon="8.2573535"><ele>428.0</ele><time>2026-04-04T14:03:43.976Z</time></trkpt><trkpt lat="44.3667188" lon="8.2574578"><ele>428.0</ele><time>2026-04-04T14:03:44.976Z</time></trkpt><trkpt lat="44.3668265" lon="8.2575652"><ele>425.75</ele><time>2026-04-04T14:03:45.976Z</time></trkpt><trkpt lat="44.3669309" lon="8.2576896"><ele>423.5</ele><time>2026-04-04T14:03:46.976Z</time></trkpt><trkpt lat="44.3670136" lon="8.2578372"><ele>421.25</ele><time>2026-04-04T14:03:47.975Z</time></trkpt><trkpt lat="44.3670792" lon="8.2580031"><ele>419.0</ele><time>2026-04-04T14:03:48.976Z</time></trkpt><trkpt lat="44.3671358" lon="8.2581784"><ele>417.75</ele><time>2026-04-04T14:03:49.976Z</time></trkpt><trkpt lat="44.3671787" lon="8.258367"><ele>416.5</ele><time>2026-04-04T14:03:50.975Z</time></trkpt><trkpt lat="44.3672023" lon="8.2585683"><ele>415.25</ele><time>2026-04-04T14:03:51.976Z</time></trkpt><trkpt lat="44.3672005" lon="8.2587789"><ele>414.0</ele><time>2026-04-04T14:03:52.975Z</time></trkpt><trkpt lat="44.367174" lon="8.2589855"><ele>412.75</ele><time>2026-04-04T14:03:53.975Z</time></trkpt><trkpt lat="44.3671371" lon="8.2591891"><ele>411.5</ele><time>2026-04-04T14:03:54.976Z</time></trkpt><trkpt lat="44.3670933" lon="8.2593857"><ele>410.25</ele><time>2026-04-04T14:03:55.975Z</time></trkpt><trkpt lat="44.3670595" lon="8.2595808"><ele>409.0</ele><time>2026-04-04T14:03:56.976Z</time></trkpt><trkpt lat="44.3670293" lon="8.2597685"><ele>408.5</ele><time>2026-04-04T14:03:57.976Z</time></trkpt><trkpt lat="44.3670043" lon="8.259945"><ele>408.0</ele><time>2026-04-04T14:03:58.975Z</time></trkpt><trkpt lat="44.3669822" lon="8.2601128"><ele>407.5</ele><time>2026-04-04T14:03:59.976Z</time></trkpt><trkpt lat="44.366958" lon="8.2602763"><ele>407.0</ele><time>2026-04-04T14:04:00.976Z</time></trkpt><trkpt lat="44.3669607" lon="8.2604507"><ele>406.5</ele><time>2026-04-04T14:04:01.976Z</time></trkpt><trkpt lat="44.3669481" lon="8.2606293"><ele>406.0</ele><time>2026-04-04T14:04:02.975Z</time></trkpt><trkpt lat="44.3669228" lon="8.2608082"><ele>405.5</ele><time>2026-04-04T14:04:03.975Z</time></trkpt><trkpt lat="44.3668952" lon="8.2609846"><ele>405.0</ele><time>2026-04-04T14:04:04.976Z</time></trkpt><trkpt lat="44.3668669" lon="8.2611615"><ele>405.0</ele><time>2026-04-04T14:04:05.976Z</time></trkpt><trkpt lat="44.3668344" lon="8.2613434"><ele>405.0</ele><time>2026-04-04T14:04:06.976Z</time></trkpt><trkpt lat="44.3667983" lon="8.2615206"><ele>405.0</ele><time>2026-04-04T14:04:07.976Z</time></trkpt><trkpt lat="44.3667669" lon="8.2616899"><ele>405.0</ele><time>2026-04-04T14:04:08.976Z</time></trkpt><trkpt lat="44.3667393" lon="8.2618522"><ele>405.75</ele><time>2026-04-04T14:04:09.976Z</time></trkpt><trkpt lat="44.3667026" lon="8.2620157"><ele>406.5</ele><time>2026-04-04T14:04:10.976Z</time></trkpt><trkpt lat="44.3666695" lon="8.2621778"><ele>407.25</ele><time>2026-04-04T14:04:11.976Z</time></trkpt><trkpt lat="44.3666435" lon="8.2623385"><ele>408.0</ele><time>2026-04-04T14:04:12.975Z</time></trkpt><trkpt lat="44.3666171" lon="8.2625048"><ele>406.25</ele><time>2026-04-04T14:04:13.976Z</time></trkpt><trkpt lat="44.3665941" lon="8.2626714"><ele>404.5</ele><time>2026-04-04T14:04:14.976Z</time></trkpt><trkpt lat="44.3665632" lon="8.2628391"><ele>402.75</ele><time>2026-04-04T14:04:15.975Z</time></trkpt><trkpt lat="44.366531" lon="8.2630046"><ele>401.0</ele><time>2026-04-04T14:04:16.975Z</time></trkpt><trkpt lat="44.3664979" lon="8.2631655"><ele>401.0</ele><time>2026-04-04T14:04:17.975Z</time></trkpt><trkpt lat="44.3664657" lon="8.2633197"><ele>401.0</ele><time>2026-04-04T14:04:18.976Z</time></trkpt><trkpt lat="44.366435" lon="8.2634645"><ele>401.0</ele><time>2026-04-04T14:04:19.976Z</time></trkpt><trkpt lat="44.3664036" lon="8.2636017"><ele>401.0</ele><time>2026-04-04T14:04:20.976Z</time></trkpt><trkpt lat="44.3663721" lon="8.2637376"><ele>401.0</ele><time>2026-04-04T14:04:21.976Z</time></trkpt><trkpt lat="44.3663327" lon="8.2638811"><ele>400.4</ele><time>2026-04-04T14:04:22.975Z</time></trkpt><trkpt lat="44.3662989" lon="8.2640197"><ele>399.8</ele><time>2026-04-04T14:04:23.976Z</time></trkpt><trkpt lat="44.3662681" lon="8.2641632"><ele>399.2</ele><time>2026-04-04T14:04:24.976Z</time></trkpt><trkpt lat="44.3662391" lon="8.264307"><ele>398.59999999999997</ele><time>2026-04-04T14:04:25.976Z</time></trkpt><trkpt lat="44.3662094" lon="8.2644557"><ele>398.0</ele><time>2026-04-04T14:04:26.976Z</time></trkpt><trkpt lat="44.3661796" lon="8.2646129"><ele>398.0</ele><time>2026-04-04T14:04:27.976Z</time></trkpt><trkpt lat="44.3661507" lon="8.2647656"><ele>398.0</ele><time>2026-04-04T14:04:28.976Z</time></trkpt><trkpt lat="44.366121" lon="8.2649172"><ele>398.0</ele><time>2026-04-04T14:04:29.976Z</time></trkpt><trkpt lat="44.3660948" lon="8.2650688"><ele>398.0</ele><time>2026-04-04T14:04:30.976Z</time></trkpt><trkpt lat="44.3660621" lon="8.2652192"><ele>398.0</ele><time>2026-04-04T14:04:31.976Z</time></trkpt><trkpt lat="44.3660238" lon="8.2653696"><ele>397.0</ele><time>2026-04-04T14:04:32.976Z</time></trkpt><trkpt lat="44.3659864" lon="8.2655249"><ele>396.0</ele><time>2026-04-04T14:04:33.976Z</time></trkpt><trkpt lat="44.3659385" lon="8.2656891"><ele>395.0</ele><time>2026-04-04T14:04:34.975Z</time></trkpt><trkpt lat="44.3658948" lon="8.2658496"><ele>394.0</ele><time>2026-04-04T14:04:35.976Z</time></trkpt><trkpt lat="44.36585" lon="8.2660113"><ele>394.0</ele><time>2026-04-04T14:04:36.976Z</time></trkpt><trkpt lat="44.3658004" lon="8.2661742"><ele>394.0</ele><time>2026-04-04T14:04:37.976Z</time></trkpt><trkpt lat="44.3657504" lon="8.2663373"><ele>394.0</ele><time>2026-04-04T14:04:38.976Z</time></trkpt><trkpt lat="44.365698" lon="8.2664967"><ele>394.0</ele><time>2026-04-04T14:04:39.976Z</time></trkpt><trkpt lat="44.3656586" lon="8.2666521"><ele>394.2</ele><time>2026-04-04T14:04:40.976Z</time></trkpt><trkpt lat="44.3656267" lon="8.2667987"><ele>394.4</ele><time>2026-04-04T14:04:41.975Z</time></trkpt><trkpt lat="44.3656001" lon="8.2669397"><ele>394.6</ele><time>2026-04-04T14:04:42.976Z</time></trkpt><trkpt lat="44.3655696" lon="8.2670845"><ele>394.8</ele><time>2026-04-04T14:04:43.976Z</time></trkpt><trkpt lat="44.3655368" lon="8.2672246"><ele>395.0</ele><time>2026-04-04T14:04:44.976Z</time></trkpt><trkpt lat="44.3655112" lon="8.2673705"><ele>393.6</ele><time>2026-04-04T14:04:45.976Z</time></trkpt><trkpt lat="44.3654827" lon="8.2675126"><ele>392.2</ele><time>2026-04-04T14:04:46.975Z</time></trkpt><trkpt lat="44.3654483" lon="8.2676547"><ele>390.79999999999995</ele><time>2026-04-04T14:04:47.975Z</time></trkpt><trkpt lat="44.3654158" lon="8.2677902"><ele>389.4</ele><time>2026-04-04T14:04:48.975Z</time></trkpt><trkpt lat="44.3653902" lon="8.2679336"><ele>388.0</ele><time>2026-04-04T14:04:49.976Z</time></trkpt><trkpt lat="44.3653642" lon="8.2680743"><ele>387.4</ele><time>2026-04-04T14:04:50.975Z</time></trkpt><trkpt lat="44.365335" lon="8.2682034"><ele>386.79999999999995</ele><time>2026-04-04T14:04:51.976Z</time></trkpt><trkpt lat="44.3653015" lon="8.2683308"><ele>386.2</ele><time>2026-04-04T14:04:52.976Z</time></trkpt><trkpt lat="44.3652727" lon="8.268468"><ele>385.6</ele><time>2026-04-04T14:04:53.976Z</time></trkpt><trkpt lat="44.3652426" lon="8.2686195"><ele>385.0</ele><time>2026-04-04T14:04:54.976Z</time></trkpt><trkpt lat="44.3652093" lon="8.2687787"><ele>385.0</ele><time>2026-04-04T14:04:55.976Z</time></trkpt><trkpt lat="44.3651721" lon="8.2689408"><ele>385.0</ele><time>2026-04-04T14:04:56.976Z</time></trkpt><trkpt lat="44.3651321" lon="8.2691021"><ele>385.0</ele><time>2026-04-04T14:04:57.976Z</time></trkpt><trkpt lat="44.3651016" lon="8.2692616"><ele>385.0</ele><time>2026-04-04T14:04:58.975Z</time></trkpt><trkpt lat="44.3650802" lon="8.2694223"><ele>385.25</ele><time>2026-04-04T14:04:59.976Z</time></trkpt><trkpt lat="44.3650563" lon="8.2695838"><ele>385.5</ele><time>2026-04-04T14:05:00.976Z</time></trkpt><trkpt lat="44.3650227" lon="8.2697471"><ele>385.75</ele><time>2026-04-04T14:05:01.976Z</time></trkpt><trkpt lat="44.3649851" lon="8.269914"><ele>386.0</ele><time>2026-04-04T14:05:02.976Z</time></trkpt><trkpt lat="44.3649456" lon="8.2700931"><ele>386.0</ele><time>2026-04-04T14:05:03.976Z</time></trkpt><trkpt lat="44.3649072" lon="8.2702762"><ele>386.0</ele><time>2026-04-04T14:05:04.976Z</time></trkpt><trkpt lat="44.3648664" lon="8.2704577"><ele>386.0</ele><time>2026-04-04T14:05:05.975Z</time></trkpt><trkpt lat="44.364825" lon="8.270641"><ele>386.0</ele><time>2026-04-04T14:05:06.976Z</time></trkpt><trkpt lat="44.3647877" lon="8.2708207"><ele>386.0</ele><time>2026-04-04T14:05:07.976Z</time></trkpt><trkpt lat="44.3647534" lon="8.2709932"><ele>386.0</ele><time>2026-04-04T14:05:08.976Z</time></trkpt><trkpt lat="44.3647168" lon="8.2711648"><ele>386.0</ele><time>2026-04-04T14:05:09.976Z</time></trkpt><trkpt lat="44.3646785" lon="8.2713314"><ele>386.0</ele><time>2026-04-04T14:05:10.976Z</time></trkpt><trkpt lat="44.3646443" lon="8.2714924"><ele>385.0</ele><time>2026-04-04T14:05:11.976Z</time></trkpt><trkpt lat="44.3646147" lon="8.2716503"><ele>384.0</ele><time>2026-04-04T14:05:12.976Z</time></trkpt><trkpt lat="44.3645765" lon="8.2718093"><ele>383.0</ele><time>2026-04-04T14:05:13.976Z</time></trkpt><trkpt lat="44.3645375" lon="8.2719723"><ele>382.0</ele><time>2026-04-04T14:05:14.976Z</time></trkpt><trkpt lat="44.3644903" lon="8.2721398"><ele>382.25</ele><time>2026-04-04T14:05:15.976Z</time></trkpt><trkpt lat="44.3644416" lon="8.2723057"><ele>382.5</ele><time>2026-04-04T14:05:16.975Z</time></trkpt><trkpt lat="44.3644013" lon="8.2724738"><ele>382.75</ele><time>2026-04-04T14:05:17.976Z</time></trkpt><trkpt lat="44.3643649" lon="8.2726386"><ele>383.0</ele><time>2026-04-04T14:05:18.976Z</time></trkpt><trkpt lat="44.3643297" lon="8.2728049"><ele>383.0</ele><time>2026-04-04T14:05:19.976Z</time></trkpt><trkpt lat="44.3642985" lon="8.2729636"><ele>383.0</ele><time>2026-04-04T14:05:20.975Z</time></trkpt><trkpt lat="44.364265" lon="8.2731158"><ele>383.0</ele><time>2026-04-04T14:05:21.976Z</time></trkpt><trkpt lat="44.3642366" lon="8.2732616"><ele>383.0</ele><time>2026-04-04T14:05:22.976Z</time></trkpt><trkpt lat="44.3642085" lon="8.2734062"><ele>383.0</ele><time>2026-04-04T14:05:23.975Z</time></trkpt><trkpt lat="44.3641727" lon="8.2735552"><ele>382.75</ele><time>2026-04-04T14:05:24.976Z</time></trkpt><trkpt lat="44.3641348" lon="8.2737168"><ele>382.5</ele><time>2026-04-04T14:05:25.976Z</time></trkpt><trkpt lat="44.3640963" lon="8.2738873"><ele>382.25</ele><time>2026-04-04T14:05:26.976Z</time></trkpt><trkpt lat="44.3640558" lon="8.2740641"><ele>382.0</ele><time>2026-04-04T14:05:27.976Z</time></trkpt><trkpt lat="44.364008" lon="8.2742452"><ele>382.0</ele><time>2026-04-04T14:05:28.975Z</time></trkpt><trkpt lat="44.3639611" lon="8.2744257"><ele>382.0</ele><time>2026-04-04T14:05:29.976Z</time></trkpt><trkpt lat="44.3639206" lon="8.2746069"><ele>382.0</ele><time>2026-04-04T14:05:30.976Z</time></trkpt><trkpt lat="44.3638766" lon="8.2747853"><ele>382.0</ele><time>2026-04-04T14:05:31.975Z</time></trkpt><trkpt lat="44.3638339" lon="8.27496"><ele>380.5</ele><time>2026-04-04T14:05:32.976Z</time></trkpt><trkpt lat="44.3637945" lon="8.2751344"><ele>379.0</ele><time>2026-04-04T14:05:33.975Z</time></trkpt><trkpt lat="44.3637603" lon="8.275306"><ele>377.5</ele><time>2026-04-04T14:05:34.976Z</time></trkpt><trkpt lat="44.3637342" lon="8.2754731"><ele>376.0</ele><time>2026-04-04T14:05:35.976Z</time></trkpt><trkpt lat="44.3637147" lon="8.2756396"><ele>374.75</ele><time>2026-04-04T14:05:36.975Z</time></trkpt><trkpt lat="44.3637109" lon="8.2758146"><ele>373.5</ele><time>2026-04-04T14:05:37.976Z</time></trkpt><trkpt lat="44.3637118" lon="8.2760014"><ele>372.25</ele><time>2026-04-04T14:05:38.976Z</time></trkpt><trkpt lat="44.36372" lon="8.2761928"><ele>371.0</ele><time>2026-04-04T14:05:39.976Z</time></trkpt><trkpt lat="44.3637291" lon="8.2763737"><ele>370.25</ele><time>2026-04-04T14:05:40.976Z</time></trkpt><trkpt lat="44.3637319" lon="8.2765542"><ele>369.5</ele><time>2026-04-04T14:05:41.976Z</time></trkpt><trkpt lat="44.3637354" lon="8.2767328"><ele>368.75</ele><time>2026-04-04T14:05:42.976Z</time></trkpt><trkpt lat="44.363745" lon="8.2769128"><ele>368.0</ele><time>2026-04-04T14:05:43.976Z</time></trkpt><trkpt lat="44.3637537" lon="8.2770982"><ele>368.25</ele><time>2026-04-04T14:05:44.975Z</time></trkpt><trkpt lat="44.3637634" lon="8.2772799"><ele>368.5</ele><time>2026-04-04T14:05:45.975Z</time></trkpt><trkpt lat="44.3637709" lon="8.2774591"><ele>368.75</ele><time>2026-04-04T14:05:46.976Z</time></trkpt><trkpt lat="44.363773" lon="8.2776328"><ele>369.0</ele><time>2026-04-04T14:05:47.976Z</time></trkpt><trkpt lat="44.363777" lon="8.2778062"><ele>369.0</ele><time>2026-04-04T14:05:48.976Z</time></trkpt><trkpt lat="44.3637854" lon="8.277974"><ele>369.0</ele><time>2026-04-04T14:05:49.976Z</time></trkpt><trkpt lat="44.3637915" lon="8.2781442"><ele>369.0</ele><time>2026-04-04T14:05:50.976Z</time></trkpt><trkpt lat="44.3637967" lon="8.2783166"><ele>369.0</ele><time>2026-04-04T14:05:51.976Z</time></trkpt><trkpt lat="44.363803" lon="8.2784833"><ele>368.75</ele><time>2026-04-04T14:05:52.976Z</time></trkpt><trkpt lat="44.3638105" lon="8.2786387"><ele>368.5</ele><time>2026-04-04T14:05:53.976Z</time></trkpt><trkpt lat="44.3638216" lon="8.2787919"><ele>368.25</ele><time>2026-04-04T14:05:54.976Z</time></trkpt><trkpt lat="44.3638268" lon="8.2789546"><ele>368.0</ele><time>2026-04-04T14:05:55.975Z</time></trkpt><trkpt lat="44.3638264" lon="8.2791294"><ele>367.75</ele><time>2026-04-04T14:05:56.975Z</time></trkpt><trkpt lat="44.3638243" lon="8.279307"><ele>367.5</ele><time>2026-04-04T14:05:57.976Z</time></trkpt><trkpt lat="44.3638084" lon="8.2794935"><ele>367.25</ele><time>2026-04-04T14:05:58.976Z</time></trkpt><trkpt lat="44.3637927" lon="8.2796893"><ele>367.0</ele><time>2026-04-04T14:05:59.975Z</time></trkpt><trkpt lat="44.3637718" lon="8.2798851"><ele>366.5</ele><time>2026-04-04T14:06:00.976Z</time></trkpt><trkpt lat="44.3637448" lon="8.2800824"><ele>366.0</ele><time>2026-04-04T14:06:01.976Z</time></trkpt><trkpt lat="44.3637214" lon="8.2802773"><ele>365.5</ele><time>2026-04-04T14:06:02.975Z</time></trkpt><trkpt lat="44.3636998" lon="8.2804688"><ele>365.0</ele><time>2026-04-04T14:06:03.976Z</time></trkpt><trkpt lat="44.3636781" lon="8.2806578"><ele>364.5</ele><time>2026-04-04T14:06:04.976Z</time></trkpt><trkpt lat="44.3636571" lon="8.2808461"><ele>364.0</ele><time>2026-04-04T14:06:05.976Z</time></trkpt><trkpt lat="44.3636299" lon="8.2810315"><ele>363.5</ele><time>2026-04-04T14:06:06.976Z</time></trkpt><trkpt lat="44.3636006" lon="8.2812114"><ele>363.0</ele><time>2026-04-04T14:06:07.975Z</time></trkpt><trkpt lat="44.3635709" lon="8.2813862"><ele>362.5</ele><time>2026-04-04T14:06:08.975Z</time></trkpt><trkpt lat="44.3635427" lon="8.281559"><ele>362.0</ele><time>2026-04-04T14:06:09.976Z</time></trkpt><trkpt lat="44.3635204" lon="8.2817319"><ele>361.5</ele><time>2026-04-04T14:06:10.976Z</time></trkpt><trkpt lat="44.3635006" lon="8.281902"><ele>361.0</ele><time>2026-04-04T14:06:11.976Z</time></trkpt><trkpt lat="44.3634839" lon="8.2820629"><ele>361.0</ele><time>2026-04-04T14:06:12.976Z</time></trkpt><trkpt lat="44.3634678" lon="8.2822225"><ele>361.0</ele><time>2026-04-04T14:06:13.975Z</time></trkpt><trkpt lat="44.3634539" lon="8.2823828"><ele>361.0</ele><time>2026-04-04T14:06:14.976Z</time></trkpt><trkpt lat="44.363439" lon="8.2825403"><ele>361.0</ele><time>2026-04-04T14:06:15.975Z</time></trkpt><trkpt lat="44.3634224" lon="8.2826974"><ele>361.0</ele><time>2026-04-04T14:06:16.975Z</time></trkpt><trkpt lat="44.3634009" lon="8.2828547"><ele>361.0</ele><time>2026-04-04T14:06:17.976Z</time></trkpt><trkpt lat="44.3633806" lon="8.2830196"><ele>361.0</ele><time>2026-04-04T14:06:18.975Z</time></trkpt><trkpt lat="44.3633598" lon="8.2831882"><ele>361.0</ele><time>2026-04-04T14:06:19.976Z</time></trkpt><trkpt lat="44.3633325" lon="8.2833599"><ele>360.25</ele><time>2026-04-04T14:06:20.976Z</time></trkpt><trkpt lat="44.3633028" lon="8.2835338"><ele>359.5</ele><time>2026-04-04T14:06:21.976Z</time></trkpt><trkpt lat="44.3632766" lon="8.2837055"><ele>358.75</ele><time>2026-04-04T14:06:22.976Z</time></trkpt><trkpt lat="44.3632557" lon="8.2838739"><ele>358.0</ele><time>2026-04-04T14:06:23.976Z</time></trkpt><trkpt lat="44.363232" lon="8.2840421"><ele>358.0</ele><time>2026-04-04T14:06:24.976Z</time></trkpt><trkpt lat="44.3632012" lon="8.2842073"><ele>358.0</ele><time>2026-04-04T14:06:25.976Z</time></trkpt><trkpt lat="44.363168" lon="8.2843731"><ele>358.0</ele><time>2026-04-04T14:06:26.976Z</time></trkpt><trkpt lat="44.3631453" lon="8.2845333"><ele>358.0</ele><time>2026-04-04T14:06:27.976Z</time></trkpt><trkpt lat="44.3631252" lon="8.2846824"><ele>358.59999999999997</ele><time>2026-04-04T14:06:28.976Z</time></trkpt><trkpt lat="44.3631067" lon="8.2848217"><ele>359.2</ele><time>2026-04-04T14:06:29.975Z</time></trkpt><trkpt lat="44.3630891" lon="8.2849467"><ele>359.8</ele><time>2026-04-04T14:06:30.976Z</time></trkpt><trkpt lat="44.3630706" lon="8.2850656"><ele>360.4</ele><time>2026-04-04T14:06:31.976Z</time></trkpt><trkpt lat="44.3630533" lon="8.2851829"><ele>361.0</ele><time>2026-04-04T14:06:32.976Z</time></trkpt><trkpt lat="44.3630363" lon="8.2852992"><ele>360.3333333333333</ele><time>2026-04-04T14:06:33.975Z</time></trkpt><trkpt lat="44.3630071" lon="8.2854057"><ele>359.66666666666663</ele><time>2026-04-04T14:06:34.976Z</time></trkpt><trkpt lat="44.3629666" lon="8.2854974"><ele>359.0</ele><time>2026-04-04T14:06:35.976Z</time></trkpt><trkpt lat="44.3629238" lon="8.285564"><ele>358.3333333333333</ele><time>2026-04-04T14:06:36.976Z</time></trkpt><trkpt lat="44.3628349" lon="8.2856483"><ele>357.6666666666667</ele><time>2026-04-04T14:06:38.976Z</time></trkpt><trkpt lat="44.3627809" lon="8.2857521"><ele>357.0</ele><time>2026-04-04T14:06:40.975Z</time></trkpt><trkpt lat="44.3628156" lon="8.285893"><ele>357.0</ele><time>2026-04-04T14:06:42.976Z</time></trkpt><trkpt lat="44.3628475" lon="8.2859736"><ele>357.0</ele><time>2026-04-04T14:06:43.976Z</time></trkpt><trkpt lat="44.362878" lon="8.286073"><ele>357.0</ele><time>2026-04-04T14:06:44.976Z</time></trkpt><trkpt lat="44.3629006" lon="8.2861743"><ele>357.0</ele><time>2026-04-04T14:06:45.976Z</time></trkpt><trkpt lat="44.3629088" lon="8.2862831"><ele>357.0</ele><time>2026-04-04T14:06:46.976Z</time></trkpt><trkpt lat="44.3629045" lon="8.2863981"><ele>357.0</ele><time>2026-04-04T14:06:47.976Z</time></trkpt><trkpt lat="44.3628956" lon="8.2865255"><ele>356.8</ele><time>2026-04-04T14:06:48.976Z</time></trkpt><trkpt lat="44.3628819" lon="8.2866662"><ele>356.6</ele><time>2026-04-04T14:06:49.976Z</time></trkpt><trkpt lat="44.3628646" lon="8.2868167"><ele>356.40000000000003</ele><time>2026-04-04T14:06:50.976Z</time></trkpt><trkpt lat="44.362847" lon="8.286963"><ele>356.20000000000005</ele><time>2026-04-04T14:06:51.975Z</time></trkpt><trkpt lat="44.3628284" lon="8.287102"><ele>356.0</ele><time>2026-04-04T14:06:52.976Z</time></trkpt><trkpt lat="44.3628089" lon="8.2872316"><ele>355.4</ele><time>2026-04-04T14:06:53.975Z</time></trkpt><trkpt lat="44.3627867" lon="8.2873574"><ele>354.8</ele><time>2026-04-04T14:06:54.975Z</time></trkpt><trkpt lat="44.3627687" lon="8.2874834"><ele>354.2</ele><time>2026-04-04T14:06:55.976Z</time></trkpt><trkpt lat="44.3627568" lon="8.2876159"><ele>353.59999999999997</ele><time>2026-04-04T14:06:56.976Z</time></trkpt><trkpt lat="44.3627364" lon="8.287752"><ele>353.0</ele><time>2026-04-04T14:06:57.976Z</time></trkpt><trkpt lat="44.3627098" lon="8.2878895"><ele>353.0</ele><time>2026-04-04T14:06:58.975Z</time></trkpt><trkpt lat="44.3626868" lon="8.2880194"><ele>353.0</ele><time>2026-04-04T14:06:59.976Z</time></trkpt><trkpt lat="44.3626637" lon="8.2881487"><ele>353.0</ele><time>2026-04-04T14:07:00.976Z</time></trkpt><trkpt lat="44.3626419" lon="8.2882747"><ele>353.0</ele><time>2026-04-04T14:07:01.976Z</time></trkpt><trkpt lat="44.3626214" lon="8.2884051"><ele>353.0</ele><time>2026-04-04T14:07:02.976Z</time></trkpt><trkpt lat="44.3626037" lon="8.2885384"><ele>352.6666666666667</ele><time>2026-04-04T14:07:03.976Z</time></trkpt><trkpt lat="44.3625943" lon="8.2886628"><ele>352.33333333333337</ele><time>2026-04-04T14:07:04.976Z</time></trkpt><trkpt lat="44.3625841" lon="8.2887767"><ele>352.0</ele><time>2026-04-04T14:07:05.975Z</time></trkpt><trkpt lat="44.3625785" lon="8.2888984"><ele>351.6666666666667</ele><time>2026-04-04T14:07:06.975Z</time></trkpt><trkpt lat="44.3625794" lon="8.28902"><ele>351.3333333333333</ele><time>2026-04-04T14:07:07.975Z</time></trkpt><trkpt lat="44.3625887" lon="8.2891345"><ele>351.0</ele><time>2026-04-04T14:07:08.975Z</time></trkpt><trkpt lat="44.3626064" lon="8.2892366"><ele>351.0</ele><time>2026-04-04T14:07:09.976Z</time></trkpt><trkpt lat="44.3626265" lon="8.2893233"><ele>351.0</ele><time>2026-04-04T14:07:10.975Z</time></trkpt><trkpt lat="44.3626851" lon="8.2894705"><ele>351.0</ele><time>2026-04-04T14:07:12.976Z</time></trkpt><trkpt lat="44.3627589" lon="8.2896047"><ele>351.0</ele><time>2026-04-04T14:07:14.976Z</time></trkpt><trkpt lat="44.3628278" lon="8.2897422"><ele>351.0</ele><time>2026-04-04T14:07:16.976Z</time></trkpt><trkpt lat="44.3628981" lon="8.289866"><ele>350.6</ele><time>2026-04-04T14:07:18.975Z</time></trkpt><trkpt lat="44.3629589" lon="8.2899682"><ele>350.20000000000005</ele><time>2026-04-04T14:07:20.976Z</time></trkpt><trkpt lat="44.3630167" lon="8.2900532"><ele>349.79999999999995</ele><time>2026-04-04T14:07:22.976Z</time></trkpt><trkpt lat="44.3630557" lon="8.2901987"><ele>349.4</ele><time>2026-04-04T14:07:24.975Z</time></trkpt><trkpt lat="44.3630498" lon="8.290316"><ele>349.0</ele><time>2026-04-04T14:07:26.975Z</time></trkpt><trkpt lat="44.3630025" lon="8.2904301"><ele>348.6</ele><time>2026-04-04T14:07:28.976Z</time></trkpt><trkpt lat="44.362944" lon="8.2904826"><ele>348.2</ele><time>2026-04-04T14:07:29.976Z</time></trkpt><trkpt lat="44.3628642" lon="8.2905187"><ele>347.8</ele><time>2026-04-04T14:07:30.976Z</time></trkpt><trkpt lat="44.362771" lon="8.2905327"><ele>347.40000000000003</ele><time>2026-04-04T14:07:31.976Z</time></trkpt><trkpt lat="44.3626538" lon="8.2905404"><ele>347.0</ele><time>2026-04-04T14:07:32.976Z</time></trkpt><trkpt lat="44.3625315" lon="8.2905429"><ele>347.0</ele><time>2026-04-04T14:07:33.976Z</time></trkpt><trkpt lat="44.362405" lon="8.2905475"><ele>347.0</ele><time>2026-04-04T14:07:34.975Z</time></trkpt><trkpt lat="44.3622844" lon="8.2905576"><ele>347.0</ele><time>2026-04-04T14:07:35.976Z</time></trkpt><trkpt lat="44.362174" lon="8.2905709"><ele>347.0</ele><time>2026-04-04T14:07:36.976Z</time></trkpt><trkpt lat="44.3620644" lon="8.2905902"><ele>347.20000000000005</ele><time>2026-04-04T14:07:37.976Z</time></trkpt><trkpt lat="44.3619556" lon="8.2906229"><ele>347.4</ele><time>2026-04-04T14:07:38.976Z</time></trkpt><trkpt lat="44.3618686" lon="8.2906902"><ele>347.6</ele><time>2026-04-04T14:07:39.976Z</time></trkpt><trkpt lat="44.361786" lon="8.290778"><ele>347.79999999999995</ele><time>2026-04-04T14:07:40.975Z</time></trkpt><trkpt lat="44.3617179" lon="8.2908768"><ele>348.0</ele><time>2026-04-04T14:07:41.976Z</time></trkpt><trkpt lat="44.3616545" lon="8.2909872"><ele>348.0</ele><time>2026-04-04T14:07:42.976Z</time></trkpt><trkpt lat="44.3615875" lon="8.2910986"><ele>348.0</ele><time>2026-04-04T14:07:43.976Z</time></trkpt><trkpt lat="44.361518" lon="8.2912087"><ele>348.0</ele><time>2026-04-04T14:07:44.976Z</time></trkpt><trkpt lat="44.3614465" lon="8.2913206"><ele>348.0</ele><time>2026-04-04T14:07:45.976Z</time></trkpt><trkpt lat="44.3613692" lon="8.2914354"><ele>348.0</ele><time>2026-04-04T14:07:46.976Z</time></trkpt><trkpt lat="44.3612922" lon="8.2915563"><ele>348.0</ele><time>2026-04-04T14:07:47.976Z</time></trkpt><trkpt lat="44.3612154" lon="8.2916763"><ele>348.0</ele><time>2026-04-04T14:07:48.976Z</time></trkpt><trkpt lat="44.3611398" lon="8.2917885"><ele>348.0</ele><time>2026-04-04T14:07:49.975Z</time></trkpt><trkpt lat="44.3610691" lon="8.2918864"><ele>348.0</ele><time>2026-04-04T14:07:50.975Z</time></trkpt><trkpt lat="44.3610016" lon="8.2919675"><ele>348.0</ele><time>2026-04-04T14:07:51.976Z</time></trkpt><trkpt lat="44.3609273" lon="8.2920251"><ele>348.0</ele><time>2026-04-04T14:07:52.976Z</time></trkpt><trkpt lat="44.3608476" lon="8.2920705"><ele>348.0</ele><time>2026-04-04T14:07:53.976Z</time></trkpt><trkpt lat="44.3607639" lon="8.2920933"><ele>348.0</ele><time>2026-04-04T14:07:54.975Z</time></trkpt><trkpt lat="44.3606713" lon="8.2921003"><ele>348.0</ele><time>2026-04-04T14:07:55.976Z</time></trkpt><trkpt lat="44.3605672" lon="8.2920936"><ele>348.0</ele><time>2026-04-04T14:07:56.975Z</time></trkpt><trkpt lat="44.3604541" lon="8.2920864"><ele>348.25</ele><time>2026-04-04T14:07:57.975Z</time></trkpt><trkpt lat="44.3603356" lon="8.2920817"><ele>348.5</ele><time>2026-04-04T14:07:58.975Z</time></trkpt><trkpt lat="44.3602171" lon="8.2920792"><ele>348.75</ele><time>2026-04-04T14:07:59.975Z</time></trkpt><trkpt lat="44.360096" lon="8.2920786"><ele>349.0</ele><time>2026-04-04T14:08:00.976Z</time></trkpt><trkpt lat="44.3599615" lon="8.2920755"><ele>349.0</ele><time>2026-04-04T14:08:01.976Z</time></trkpt><trkpt lat="44.3598337" lon="8.2920716"><ele>349.0</ele><time>2026-04-04T14:08:02.976Z</time></trkpt><trkpt lat="44.3597132" lon="8.2920646"><ele>349.0</ele><time>2026-04-04T14:08:03.976Z</time></trkpt><trkpt lat="44.3595957" lon="8.2920648"><ele>349.0</ele><time>2026-04-04T14:08:04.976Z</time></trkpt><trkpt lat="44.3594729" lon="8.2920708"><ele>349.75</ele><time>2026-04-04T14:08:05.976Z</time></trkpt><trkpt lat="44.3593428" lon="8.292071"><ele>350.5</ele><time>2026-04-04T14:08:06.976Z</time></trkpt><trkpt lat="44.3591971" lon="8.2920642"><ele>351.25</ele><time>2026-04-04T14:08:07.976Z</time></trkpt><trkpt lat="44.3590536" lon="8.2920487"><ele>352.0</ele><time>2026-04-04T14:08:08.976Z</time></trkpt><trkpt lat="44.3589009" lon="8.2920404"><ele>352.0</ele><time>2026-04-04T14:08:09.976Z</time></trkpt><trkpt lat="44.3587473" lon="8.2920354"><ele>352.0</ele><time>2026-04-04T14:08:10.975Z</time></trkpt><trkpt lat="44.3586044" lon="8.292039"><ele>352.0</ele><time>2026-04-04T14:08:11.976Z</time></trkpt><trkpt lat="44.3584565" lon="8.2920407"><ele>352.0</ele><time>2026-04-04T14:08:12.975Z</time></trkpt><trkpt lat="44.3583023" lon="8.2920438"><ele>352.0</ele><time>2026-04-04T14:08:13.976Z</time></trkpt><trkpt lat="44.3581459" lon="8.2920496"><ele>352.0</ele><time>2026-04-04T14:08:14.976Z</time></trkpt><trkpt lat="44.3579907" lon="8.2920566"><ele>352.0</ele><time>2026-04-04T14:08:15.975Z</time></trkpt><trkpt lat="44.3578368" lon="8.2920634"><ele>353.0</ele><time>2026-04-04T14:08:16.976Z</time></trkpt><trkpt lat="44.3576829" lon="8.2920599"><ele>354.0</ele><time>2026-04-04T14:08:17.976Z</time></trkpt><trkpt lat="44.3575247" lon="8.2920485"><ele>355.0</ele><time>2026-04-04T14:08:18.975Z</time></trkpt><trkpt lat="44.3573773" lon="8.29203"><ele>355.0</ele><time>2026-04-04T14:08:19.976Z</time></trkpt><trkpt lat="44.3572298" lon="8.2920051"><ele>355.0</ele><time>2026-04-04T14:08:20.976Z</time></trkpt><trkpt lat="44.3570713" lon="8.2919696"><ele>355.0</ele><time>2026-04-04T14:08:21.975Z</time></trkpt><trkpt lat="44.356916" lon="8.2919217"><ele>356.25</ele><time>2026-04-04T14:08:22.976Z</time></trkpt><trkpt lat="44.3567618" lon="8.2918743"><ele>357.5</ele><time>2026-04-04T14:08:23.976Z</time></trkpt><trkpt lat="44.3566162" lon="8.2918266"><ele>358.75</ele><time>2026-04-04T14:08:24.976Z</time></trkpt><trkpt lat="44.3564874" lon="8.2917875"><ele>360.0</ele><time>2026-04-04T14:08:25.976Z</time></trkpt><trkpt lat="44.356364" lon="8.2917636"><ele>360.2</ele><time>2026-04-04T14:08:26.975Z</time></trkpt><trkpt lat="44.3562478" lon="8.2917487"><ele>360.4</ele><time>2026-04-04T14:08:27.976Z</time></trkpt><trkpt lat="44.3561449" lon="8.291747"><ele>360.6</ele><time>2026-04-04T14:08:28.975Z</time></trkpt><trkpt lat="44.356058" lon="8.2917574"><ele>360.8</ele><time>2026-04-04T14:08:29.976Z</time></trkpt><trkpt lat="44.3559758" lon="8.2917721"><ele>361.0</ele><time>2026-04-04T14:08:30.976Z</time></trkpt><trkpt lat="44.3558891" lon="8.2918022"><ele>361.0</ele><time>2026-04-04T14:08:31.976Z</time></trkpt><trkpt lat="44.3557982" lon="8.2918425"><ele>361.0</ele><time>2026-04-04T14:08:32.976Z</time></trkpt><trkpt lat="44.3557031" lon="8.2918887"><ele>361.0</ele><time>2026-04-04T14:08:33.976Z</time></trkpt><trkpt lat="44.3556052" lon="8.2919352"><ele>361.0</ele><time>2026-04-04T14:08:34.975Z</time></trkpt><trkpt lat="44.3555026" lon="8.2919937"><ele>361.0</ele><time>2026-04-04T14:08:35.974Z</time></trkpt><trkpt lat="44.3553975" lon="8.2920545"><ele>361.25</ele><time>2026-04-04T14:08:36.975Z</time></trkpt><trkpt lat="44.3552895" lon="8.2921139"><ele>361.5</ele><time>2026-04-04T14:08:37.975Z</time></trkpt><trkpt lat="44.3551724" lon="8.2921765"><ele>361.75</ele><time>2026-04-04T14:08:38.975Z</time></trkpt><trkpt lat="44.3550489" lon="8.2922331"><ele>362.0</ele><time>2026-04-04T14:08:39.974Z</time></trkpt><trkpt lat="44.3549136" lon="8.2922898"><ele>362.33333333333337</ele><time>2026-04-04T14:08:40.975Z</time></trkpt><trkpt lat="44.3547662" lon="8.2923559"><ele>362.6666666666667</ele><time>2026-04-04T14:08:41.975Z</time></trkpt><trkpt lat="44.3546118" lon="8.292425"><ele>363.0</ele><time>2026-04-04T14:08:42.975Z</time></trkpt><trkpt lat="44.3544557" lon="8.2924941"><ele>363.0</ele><time>2026-04-04T14:08:43.974Z</time></trkpt><trkpt lat="44.3542917" lon="8.2925715"><ele>363.0</ele><time>2026-04-04T14:08:44.975Z</time></trkpt><trkpt lat="44.3541179" lon="8.2926582"><ele>363.0</ele><time>2026-04-04T14:08:45.975Z</time></trkpt><trkpt lat="44.3539321" lon="8.292753"><ele>362.0</ele><time>2026-04-04T14:08:46.974Z</time></trkpt><trkpt lat="44.3537563" lon="8.2928453"><ele>361.0</ele><time>2026-04-04T14:08:47.975Z</time></trkpt><trkpt lat="44.3535832" lon="8.2929458"><ele>360.0</ele><time>2026-04-04T14:08:48.974Z</time></trkpt><trkpt lat="44.3534172" lon="8.2930663"><ele>360.3333333333333</ele><time>2026-04-04T14:08:49.975Z</time></trkpt><trkpt lat="44.3532507" lon="8.293191"><ele>360.66666666666663</ele><time>2026-04-04T14:08:50.975Z</time></trkpt><trkpt lat="44.3530938" lon="8.2933372"><ele>361.0</ele><time>2026-04-04T14:08:51.975Z</time></trkpt><trkpt lat="44.3529438" lon="8.2934975"><ele>361.0</ele><time>2026-04-04T14:08:52.975Z</time></trkpt><trkpt lat="44.3528132" lon="8.2936583"><ele>361.0</ele><time>2026-04-04T14:08:53.975Z</time></trkpt><trkpt lat="44.3527022" lon="8.2938247"><ele>361.0</ele><time>2026-04-04T14:08:54.974Z</time></trkpt><trkpt lat="44.3525878" lon="8.2939937"><ele>362.0</ele><time>2026-04-04T14:08:55.975Z</time></trkpt><trkpt lat="44.3524754" lon="8.2941624"><ele>363.0</ele><time>2026-04-04T14:08:56.974Z</time></trkpt><trkpt lat="44.3523521" lon="8.2943292"><ele>364.0</ele><time>2026-04-04T14:08:57.975Z</time></trkpt><trkpt lat="44.3522348" lon="8.2944882"><ele>364.0</ele><time>2026-04-04T14:08:58.975Z</time></trkpt><trkpt lat="44.3521252" lon="8.2946474"><ele>364.0</ele><time>2026-04-04T14:08:59.975Z</time></trkpt><trkpt lat="44.3520151" lon="8.2948021"><ele>364.0</ele><time>2026-04-04T14:09:00.975Z</time></trkpt><trkpt lat="44.3519049" lon="8.2949585"><ele>364.3333333333333</ele><time>2026-04-04T14:09:01.975Z</time></trkpt><trkpt lat="44.3517912" lon="8.2951193"><ele>364.6666666666667</ele><time>2026-04-04T14:09:02.975Z</time></trkpt><trkpt lat="44.351685" lon="8.2952798"><ele>365.0</ele><time>2026-04-04T14:09:03.975Z</time></trkpt><trkpt lat="44.3515722" lon="8.2954505"><ele>365.33333333333337</ele><time>2026-04-04T14:09:04.974Z</time></trkpt><trkpt lat="44.3514504" lon="8.2956265"><ele>365.6666666666667</ele><time>2026-04-04T14:09:05.974Z</time></trkpt><trkpt lat="44.3513269" lon="8.2958075"><ele>366.0</ele><time>2026-04-04T14:09:06.975Z</time></trkpt><trkpt lat="44.3512093" lon="8.2959988"><ele>366.0</ele><time>2026-04-04T14:09:07.975Z</time></trkpt><trkpt lat="44.3511084" lon="8.2962009"><ele>366.0</ele><time>2026-04-04T14:09:08.974Z</time></trkpt><trkpt lat="44.3510196" lon="8.2964212"><ele>366.0</ele><time>2026-04-04T14:09:09.975Z</time></trkpt><trkpt lat="44.3509231" lon="8.2966629"><ele>367.0</ele><time>2026-04-04T14:09:10.975Z</time></trkpt><trkpt lat="44.3508287" lon="8.2969"><ele>368.0</ele><time>2026-04-04T14:09:11.975Z</time></trkpt><trkpt lat="44.350718" lon="8.2971185"><ele>369.0</ele><time>2026-04-04T14:09:12.974Z</time></trkpt><trkpt lat="44.3505705" lon="8.2973238"><ele>370.0</ele><time>2026-04-04T14:09:13.975Z</time></trkpt><trkpt lat="44.3504081" lon="8.2975246"><ele>371.0</ele><time>2026-04-04T14:09:14.975Z</time></trkpt><trkpt lat="44.3502528" lon="8.2977228"><ele>372.0</ele><time>2026-04-04T14:09:15.975Z</time></trkpt><trkpt lat="44.3501005" lon="8.2979152"><ele>373.0</ele><time>2026-04-04T14:09:16.974Z</time></trkpt><trkpt lat="44.3499462" lon="8.2981044"><ele>374.0</ele><time>2026-04-04T14:09:17.975Z</time></trkpt><trkpt lat="44.3497977" lon="8.2982969"><ele>375.0</ele><time>2026-04-04T14:09:18.975Z</time></trkpt><trkpt lat="44.349652" lon="8.29849"><ele>375.0</ele><time>2026-04-04T14:09:19.975Z</time></trkpt><trkpt lat="44.3495096" lon="8.2986816"><ele>375.0</ele><time>2026-04-04T14:09:20.974Z</time></trkpt><trkpt lat="44.3493755" lon="8.2988791"><ele>375.0</ele><time>2026-04-04T14:09:21.974Z</time></trkpt><trkpt lat="44.3492313" lon="8.2990646"><ele>376.0</ele><time>2026-04-04T14:09:22.974Z</time></trkpt><trkpt lat="44.3490899" lon="8.2992473"><ele>377.0</ele><time>2026-04-04T14:09:23.974Z</time></trkpt><trkpt lat="44.3489493" lon="8.2994239"><ele>378.0</ele><time>2026-04-04T14:09:24.975Z</time></trkpt><trkpt lat="44.3488039" lon="8.2995887"><ele>378.0</ele><time>2026-04-04T14:09:25.975Z</time></trkpt><trkpt lat="44.3486493" lon="8.29974"><ele>378.0</ele><time>2026-04-04T14:09:26.975Z</time></trkpt><trkpt lat="44.3484826" lon="8.2998771"><ele>378.0</ele><time>2026-04-04T14:09:27.974Z</time></trkpt><trkpt lat="44.3483205" lon="8.3000223"><ele>380.66666666666663</ele><time>2026-04-04T14:09:28.975Z</time></trkpt><trkpt lat="44.3481756" lon="8.3001712"><ele>383.3333333333333</ele><time>2026-04-04T14:09:29.975Z</time></trkpt><trkpt lat="44.3480465" lon="8.3003296"><ele>386.0</ele><time>2026-04-04T14:09:30.975Z</time></trkpt><trkpt lat="44.3479318" lon="8.3005051"><ele>388.3333333333333</ele><time>2026-04-04T14:09:31.975Z</time></trkpt><trkpt lat="44.3478299" lon="8.3006931"><ele>390.66666666666663</ele><time>2026-04-04T14:09:32.975Z</time></trkpt><trkpt lat="44.3477376" lon="8.3008953"><ele>393.0</ele><time>2026-04-04T14:09:33.975Z</time></trkpt><trkpt lat="44.3476651" lon="8.3011073"><ele>393.0</ele><time>2026-04-04T14:09:34.975Z</time></trkpt><trkpt lat="44.3476077" lon="8.3013061"><ele>393.0</ele><time>2026-04-04T14:09:35.975Z</time></trkpt><trkpt lat="44.3475687" lon="8.3014774"><ele>393.0</ele><time>2026-04-04T14:09:36.975Z</time></trkpt><trkpt lat="44.3475327" lon="8.3016217"><ele>393.0</ele><time>2026-04-04T14:09:37.974Z</time></trkpt><trkpt lat="44.347502" lon="8.3017435"><ele>393.5</ele><time>2026-04-04T14:09:38.974Z</time></trkpt><trkpt lat="44.3474675" lon="8.3018567"><ele>394.0</ele><time>2026-04-04T14:09:39.974Z</time></trkpt><trkpt lat="44.3474402" lon="8.3019603"><ele>394.5</ele><time>2026-04-04T14:09:40.974Z</time></trkpt><trkpt lat="44.3474107" lon="8.3020583"><ele>395.0</ele><time>2026-04-04T14:09:41.975Z</time></trkpt><trkpt lat="44.3473762" lon="8.3021362"><ele>395.5</ele><time>2026-04-04T14:09:42.975Z</time></trkpt><trkpt lat="44.3472989" lon="8.3022356"><ele>396.0</ele><time>2026-04-04T14:09:44.975Z</time></trkpt><trkpt lat="44.347208" lon="8.3023051"><ele>397.8</ele><time>2026-04-04T14:09:46.975Z</time></trkpt><trkpt lat="44.34715" lon="8.3024416"><ele>399.6</ele><time>2026-04-04T14:09:48.974Z</time></trkpt><trkpt lat="44.3471499" lon="8.3025385"><ele>401.4</ele><time>2026-04-04T14:09:49.975Z</time></trkpt><trkpt lat="44.3471546" lon="8.3026782"><ele>403.2</ele><time>2026-04-04T14:09:50.975Z</time></trkpt><trkpt lat="44.3471519" lon="8.3028392"><ele>405.0</ele><time>2026-04-04T14:09:51.975Z</time></trkpt><trkpt lat="44.3471226" lon="8.3030237"><ele>405.33333333333337</ele><time>2026-04-04T14:09:52.975Z</time></trkpt><trkpt lat="44.3470808" lon="8.3032144"><ele>405.6666666666667</ele><time>2026-04-04T14:09:53.975Z</time></trkpt><trkpt lat="44.3470372" lon="8.3034153"><ele>406.0</ele><time>2026-04-04T14:09:54.975Z</time></trkpt><trkpt lat="44.3469842" lon="8.3036225"><ele>406.0</ele><time>2026-04-04T14:09:55.974Z</time></trkpt><trkpt lat="44.3469281" lon="8.3038298"><ele>406.0</ele><time>2026-04-04T14:09:56.975Z</time></trkpt><trkpt lat="44.3468759" lon="8.3040244"><ele>406.0</ele><time>2026-04-04T14:09:57.975Z</time></trkpt><trkpt lat="44.3468138" lon="8.3042346"><ele>405.33333333333337</ele><time>2026-04-04T14:09:58.975Z</time></trkpt><trkpt lat="44.3467881" lon="8.3044565"><ele>404.66666666666663</ele><time>2026-04-04T14:09:59.974Z</time></trkpt><trkpt lat="44.3467797" lon="8.3046903"><ele>404.0</ele><time>2026-04-04T14:10:00.975Z</time></trkpt><trkpt lat="44.3467889" lon="8.3049165"><ele>403.66666666666663</ele><time>2026-04-04T14:10:01.974Z</time></trkpt><trkpt lat="44.3468043" lon="8.3051367"><ele>403.33333333333337</ele><time>2026-04-04T14:10:02.975Z</time></trkpt><trkpt lat="44.3468252" lon="8.3053471"><ele>403.0</ele><time>2026-04-04T14:10:03.974Z</time></trkpt><trkpt lat="44.3468508" lon="8.3055509"><ele>402.0</ele><time>2026-04-04T14:10:04.975Z</time></trkpt><trkpt lat="44.3468876" lon="8.3057474"><ele>401.0</ele><time>2026-04-04T14:10:05.975Z</time></trkpt><trkpt lat="44.346915" lon="8.3059277"><ele>400.0</ele><time>2026-04-04T14:10:06.975Z</time></trkpt><trkpt lat="44.346938" lon="8.3061163"><ele>399.0</ele><time>2026-04-04T14:10:07.975Z</time></trkpt><trkpt lat="44.3469549" lon="8.3063095"><ele>398.0</ele><time>2026-04-04T14:10:08.975Z</time></trkpt><trkpt lat="44.3469786" lon="8.306504"><ele>397.0</ele><time>2026-04-04T14:10:09.975Z</time></trkpt><trkpt lat="44.3470008" lon="8.306701"><ele>396.0</ele><time>2026-04-04T14:10:10.975Z</time></trkpt><trkpt lat="44.3470275" lon="8.3068937"><ele>395.0</ele><time>2026-04-04T14:10:11.974Z</time></trkpt><trkpt lat="44.3470615" lon="8.3070848"><ele>394.0</ele><time>2026-04-04T14:10:12.975Z</time></trkpt><trkpt lat="44.3471291" lon="8.3072629"><ele>393.0</ele><time>2026-04-04T14:10:13.975Z</time></trkpt><trkpt lat="44.3471972" lon="8.3074342"><ele>392.0</ele><time>2026-04-04T14:10:14.975Z</time></trkpt><trkpt lat="44.3472654" lon="8.3075969"><ele>391.0</ele><time>2026-04-04T14:10:15.975Z</time></trkpt><trkpt lat="44.3473267" lon="8.3077579"><ele>392.0</ele><time>2026-04-04T14:10:16.974Z</time></trkpt><trkpt lat="44.3473865" lon="8.307918"><ele>393.0</ele><time>2026-04-04T14:10:17.975Z</time></trkpt><trkpt lat="44.3474302" lon="8.3080859"><ele>394.0</ele><time>2026-04-04T14:10:18.975Z</time></trkpt><trkpt lat="44.3474649" lon="8.3082562"><ele>395.0</ele><time>2026-04-04T14:10:19.975Z</time></trkpt><trkpt lat="44.3474756" lon="8.3084347"><ele>395.0</ele><time>2026-04-04T14:10:20.975Z</time></trkpt><trkpt lat="44.3474556" lon="8.3086098"><ele>395.0</ele><time>2026-04-04T14:10:21.975Z</time></trkpt><trkpt lat="44.3474117" lon="8.3087728"><ele>395.0</ele><time>2026-04-04T14:10:22.975Z</time></trkpt><trkpt lat="44.3473516" lon="8.3089164"><ele>395.0</ele><time>2026-04-04T14:10:23.975Z</time></trkpt><trkpt lat="44.3472768" lon="8.309048"><ele>394.0</ele><time>2026-04-04T14:10:24.975Z</time></trkpt><trkpt lat="44.3471914" lon="8.3091751"><ele>393.0</ele><time>2026-04-04T14:10:25.975Z</time></trkpt><trkpt lat="44.3470969" lon="8.3093087"><ele>392.0</ele><time>2026-04-04T14:10:26.975Z</time></trkpt><trkpt lat="44.3470111" lon="8.3094547"><ele>391.0</ele><time>2026-04-04T14:10:27.974Z</time></trkpt><trkpt lat="44.3469473" lon="8.3096086"><ele>391.0</ele><time>2026-04-04T14:10:28.975Z</time></trkpt><trkpt lat="44.3469022" lon="8.3097646"><ele>391.0</ele><time>2026-04-04T14:10:29.975Z</time></trkpt><trkpt lat="44.3468751" lon="8.309925"><ele>391.0</ele><time>2026-04-04T14:10:30.975Z</time></trkpt><trkpt lat="44.3468558" lon="8.3100946"><ele>391.0</ele><time>2026-04-04T14:10:31.974Z</time></trkpt><trkpt lat="44.3468456" lon="8.3102701"><ele>391.0</ele><time>2026-04-04T14:10:32.975Z</time></trkpt><trkpt lat="44.3468433" lon="8.310447"><ele>391.0</ele><time>2026-04-04T14:10:33.974Z</time></trkpt><trkpt lat="44.3468478" lon="8.3106294"><ele>391.0</ele><time>2026-04-04T14:10:34.975Z</time></trkpt><trkpt lat="44.3468612" lon="8.3108109"><ele>391.0</ele><time>2026-04-04T14:10:35.974Z</time></trkpt><trkpt lat="44.3468869" lon="8.3109933"><ele>390.5</ele><time>2026-04-04T14:10:36.975Z</time></trkpt><trkpt lat="44.346907" lon="8.3111756"><ele>390.0</ele><time>2026-04-04T14:10:37.975Z</time></trkpt><trkpt lat="44.3469213" lon="8.3113543"><ele>389.5</ele><time>2026-04-04T14:10:38.975Z</time></trkpt><trkpt lat="44.3469252" lon="8.3115262"><ele>389.0</ele><time>2026-04-04T14:10:39.975Z</time></trkpt><trkpt lat="44.3469285" lon="8.3116959"><ele>388.5</ele><time>2026-04-04T14:10:40.975Z</time></trkpt><trkpt lat="44.3469364" lon="8.3118659"><ele>388.0</ele><time>2026-04-04T14:10:41.974Z</time></trkpt><trkpt lat="44.3469357" lon="8.3120528"><ele>387.5</ele><time>2026-04-04T14:10:42.975Z</time></trkpt><trkpt lat="44.3469261" lon="8.3122519"><ele>387.0</ele><time>2026-04-04T14:10:43.975Z</time></trkpt><trkpt lat="44.3469039" lon="8.3124655"><ele>387.0</ele><time>2026-04-04T14:10:44.975Z</time></trkpt><trkpt lat="44.3468789" lon="8.3126789"><ele>387.0</ele><time>2026-04-04T14:10:45.975Z</time></trkpt><trkpt lat="44.3468473" lon="8.3128816"><ele>387.0</ele><time>2026-04-04T14:10:46.975Z</time></trkpt><trkpt lat="44.3468055" lon="8.3130779"><ele>387.0</ele><time>2026-04-04T14:10:47.975Z</time></trkpt><trkpt lat="44.3467546" lon="8.3132611"><ele>385.5</ele><time>2026-04-04T14:10:48.974Z</time></trkpt><trkpt lat="44.3466996" lon="8.3134401"><ele>384.0</ele><time>2026-04-04T14:10:49.975Z</time></trkpt><trkpt lat="44.34663" lon="8.3136164"><ele>382.5</ele><time>2026-04-04T14:10:50.975Z</time></trkpt><trkpt lat="44.3465482" lon="8.313788"><ele>381.0</ele><time>2026-04-04T14:10:51.975Z</time></trkpt><trkpt lat="44.3464644" lon="8.3139572"><ele>383.0</ele><time>2026-04-04T14:10:52.975Z</time></trkpt><trkpt lat="44.3463721" lon="8.3141064"><ele>385.0</ele><time>2026-04-04T14:10:53.974Z</time></trkpt><trkpt lat="44.3462809" lon="8.3142546"><ele>387.0</ele><time>2026-04-04T14:10:54.974Z</time></trkpt><trkpt lat="44.3461953" lon="8.3144153"><ele>389.0</ele><time>2026-04-04T14:10:55.975Z</time></trkpt><trkpt lat="44.3461151" lon="8.3145775"><ele>388.0</ele><time>2026-04-04T14:10:56.975Z</time></trkpt><trkpt lat="44.3460542" lon="8.3147467"><ele>387.0</ele><time>2026-04-04T14:10:57.975Z</time></trkpt><trkpt lat="44.345998" lon="8.3149268"><ele>386.0</ele><time>2026-04-04T14:10:58.975Z</time></trkpt><trkpt lat="44.3459564" lon="8.315119"><ele>385.0</ele><time>2026-04-04T14:10:59.975Z</time></trkpt><trkpt lat="44.3459161" lon="8.3153287"><ele>385.0</ele><time>2026-04-04T14:11:00.975Z</time></trkpt><trkpt lat="44.3458699" lon="8.3155476"><ele>385.0</ele><time>2026-04-04T14:11:01.975Z</time></trkpt><trkpt lat="44.3458171" lon="8.3157741"><ele>385.0</ele><time>2026-04-04T14:11:02.974Z</time></trkpt><trkpt lat="44.3457678" lon="8.316008"><ele>384.33333333333337</ele><time>2026-04-04T14:11:03.974Z</time></trkpt><trkpt lat="44.3457302" lon="8.3162511"><ele>383.6666666666667</ele><time>2026-04-04T14:11:04.975Z</time></trkpt><trkpt lat="44.3456969" lon="8.3164957"><ele>383.0</ele><time>2026-04-04T14:11:05.974Z</time></trkpt><trkpt lat="44.3456639" lon="8.3167396"><ele>382.0</ele><time>2026-04-04T14:11:06.975Z</time></trkpt><trkpt lat="44.3456312" lon="8.3169793"><ele>381.0</ele><time>2026-04-04T14:11:07.975Z</time></trkpt><trkpt lat="44.3455937" lon="8.3172121"><ele>380.0</ele><time>2026-04-04T14:11:08.974Z</time></trkpt><trkpt lat="44.3455591" lon="8.3174381"><ele>388.0</ele><time>2026-04-04T14:11:09.975Z</time></trkpt><trkpt lat="44.3455192" lon="8.3176562"><ele>396.0</ele><time>2026-04-04T14:11:10.974Z</time></trkpt><trkpt lat="44.3454762" lon="8.3178715"><ele>404.0</ele><time>2026-04-04T14:11:11.975Z</time></trkpt><trkpt lat="44.3454394" lon="8.3180961"><ele>404.0</ele><time>2026-04-04T14:11:12.975Z</time></trkpt><trkpt lat="44.3454001" lon="8.3183196"><ele>404.0</ele><time>2026-04-04T14:11:13.974Z</time></trkpt><trkpt lat="44.3453612" lon="8.3185442"><ele>404.0</ele><time>2026-04-04T14:11:14.975Z</time></trkpt><trkpt lat="44.3453163" lon="8.3187629"><ele>404.0</ele><time>2026-04-04T14:11:15.975Z</time></trkpt><trkpt lat="44.3452652" lon="8.3189764"><ele>404.0</ele><time>2026-04-04T14:11:16.975Z</time></trkpt><trkpt lat="44.345233" lon="8.3191833"><ele>404.0</ele><time>2026-04-04T14:11:17.975Z</time></trkpt><trkpt lat="44.3452148" lon="8.3193894"><ele>404.0</ele><time>2026-04-04T14:11:18.975Z</time></trkpt><trkpt lat="44.3452296" lon="8.3195925"><ele>404.0</ele><time>2026-04-04T14:11:19.975Z</time></trkpt><trkpt lat="44.3452727" lon="8.3197863"><ele>404.0</ele><time>2026-04-04T14:11:20.975Z</time></trkpt><trkpt lat="44.3453351" lon="8.3199562"><ele>404.0</ele><time>2026-04-04T14:11:21.975Z</time></trkpt><trkpt lat="44.3454009" lon="8.3201005"><ele>405.3333333333333</ele><time>2026-04-04T14:11:22.975Z</time></trkpt><trkpt lat="44.3454584" lon="8.3202218"><ele>406.66666666666663</ele><time>2026-04-04T14:11:23.975Z</time></trkpt><trkpt lat="44.3455051" lon="8.3203233"><ele>408.0</ele><time>2026-04-04T14:11:24.975Z</time></trkpt><trkpt lat="44.3455359" lon="8.3204059"><ele>409.33333333333337</ele><time>2026-04-04T14:11:25.975Z</time></trkpt><trkpt lat="44.3455733" lon="8.3205164"><ele>410.6666666666667</ele><time>2026-04-04T14:11:27.974Z</time></trkpt><trkpt lat="44.3455813" lon="8.3206361"><ele>412.0</ele><time>2026-04-04T14:11:29.975Z</time></trkpt><trkpt lat="44.3455568" lon="8.3208149"><ele>410.33333333333337</ele><time>2026-04-04T14:11:31.975Z</time></trkpt><trkpt lat="44.345528" lon="8.3209245"><ele>408.6666666666667</ele><time>2026-04-04T14:11:32.974Z</time></trkpt><trkpt lat="44.3454938" lon="8.3210403"><ele>407.0</ele><time>2026-04-04T14:11:33.975Z</time></trkpt><trkpt lat="44.345451" lon="8.3211545"><ele>405.33333333333337</ele><time>2026-04-04T14:11:34.975Z</time></trkpt><trkpt lat="44.3454023" lon="8.3212632"><ele>403.6666666666667</ele><time>2026-04-04T14:11:35.974Z</time></trkpt><trkpt lat="44.3453484" lon="8.3213649"><ele>402.0</ele><time>2026-04-04T14:11:36.975Z</time></trkpt><trkpt lat="44.3452803" lon="8.3214612"><ele>397.75</ele><time>2026-04-04T14:11:37.975Z</time></trkpt><trkpt lat="44.3451957" lon="8.3215611"><ele>393.5</ele><time>2026-04-04T14:11:38.975Z</time></trkpt><trkpt lat="44.3450997" lon="8.3216614"><ele>389.25</ele><time>2026-04-04T14:11:39.975Z</time></trkpt><trkpt lat="44.3449836" lon="8.3217661"><ele>385.0</ele><time>2026-04-04T14:11:40.975Z</time></trkpt><trkpt lat="44.344862" lon="8.3218742"><ele>385.0</ele><time>2026-04-04T14:11:41.975Z</time></trkpt><trkpt lat="44.3447426" lon="8.3219861"><ele>385.0</ele><time>2026-04-04T14:11:42.975Z</time></trkpt><trkpt lat="44.3446195" lon="8.3221008"><ele>385.0</ele><time>2026-04-04T14:11:43.975Z</time></trkpt><trkpt lat="44.3444821" lon="8.3222121"><ele>384.0</ele><time>2026-04-04T14:11:44.975Z</time></trkpt><trkpt lat="44.3443491" lon="8.3223189"><ele>383.0</ele><time>2026-04-04T14:11:45.974Z</time></trkpt><trkpt lat="44.3442303" lon="8.3224184"><ele>382.0</ele><time>2026-04-04T14:11:46.975Z</time></trkpt><trkpt lat="44.3441203" lon="8.3225168"><ele>381.0</ele><time>2026-04-04T14:11:47.975Z</time></trkpt><trkpt lat="44.3440164" lon="8.3226249"><ele>381.0</ele><time>2026-04-04T14:11:48.975Z</time></trkpt><trkpt lat="44.3439102" lon="8.322726"><ele>381.0</ele><time>2026-04-04T14:11:49.975Z</time></trkpt><trkpt lat="44.3438088" lon="8.3228302"><ele>381.0</ele><time>2026-04-04T14:11:50.975Z</time></trkpt><trkpt lat="44.3437149" lon="8.322933"><ele>381.0</ele><time>2026-04-04T14:11:51.975Z</time></trkpt><trkpt lat="44.3436247" lon="8.3230367"><ele>380.8</ele><time>2026-04-04T14:11:52.975Z</time></trkpt><trkpt lat="44.3435361" lon="8.3231308"><ele>380.6</ele><time>2026-04-04T14:11:53.975Z</time></trkpt><trkpt lat="44.3434561" lon="8.3232193"><ele>380.4</ele><time>2026-04-04T14:11:54.974Z</time></trkpt><trkpt lat="44.3433844" lon="8.3233035"><ele>380.2</ele><time>2026-04-04T14:11:55.975Z</time></trkpt><trkpt lat="44.3433111" lon="8.323386"><ele>380.0</ele><time>2026-04-04T14:11:56.975Z</time></trkpt><trkpt lat="44.3432172" lon="8.3234769"><ele>380.0</ele><time>2026-04-04T14:11:57.975Z</time></trkpt><trkpt lat="44.3431003" lon="8.3235813"><ele>380.0</ele><time>2026-04-04T14:11:58.975Z</time></trkpt><trkpt lat="44.3429799" lon="8.3236883"><ele>380.0</ele><time>2026-04-04T14:11:59.975Z</time></trkpt><trkpt lat="44.342852" lon="8.3238029"><ele>380.0</ele><time>2026-04-04T14:12:00.975Z</time></trkpt><trkpt lat="44.3427227" lon="8.3239246"><ele>380.33333333333337</ele><time>2026-04-04T14:12:01.975Z</time></trkpt><trkpt lat="44.3425944" lon="8.3240493"><ele>380.6666666666667</ele><time>2026-04-04T14:12:02.975Z</time></trkpt><trkpt lat="44.3424661" lon="8.3241733"><ele>381.0</ele><time>2026-04-04T14:12:03.975Z</time></trkpt><trkpt lat="44.3423417" lon="8.3243069"><ele>380.6666666666667</ele><time>2026-04-04T14:12:04.975Z</time></trkpt><trkpt lat="44.3422143" lon="8.3244484"><ele>380.33333333333337</ele><time>2026-04-04T14:12:05.975Z</time></trkpt><trkpt lat="44.3420915" lon="8.3246042"><ele>380.0</ele><time>2026-04-04T14:12:06.975Z</time></trkpt><trkpt lat="44.3419766" lon="8.3247788"><ele>380.0</ele><time>2026-04-04T14:12:07.975Z</time></trkpt><trkpt lat="44.341865" lon="8.3249638"><ele>380.0</ele><time>2026-04-04T14:12:08.974Z</time></trkpt><trkpt lat="44.3417715" lon="8.3251526"><ele>380.0</ele><time>2026-04-04T14:12:09.975Z</time></trkpt><trkpt lat="44.3416865" lon="8.3253533"><ele>380.0</ele><time>2026-04-04T14:12:10.975Z</time></trkpt><trkpt lat="44.3416185" lon="8.3255528"><ele>380.0</ele><time>2026-04-04T14:12:11.975Z</time></trkpt><trkpt lat="44.3415708" lon="8.3257516"><ele>380.0</ele><time>2026-04-04T14:12:12.975Z</time></trkpt><trkpt lat="44.3415338" lon="8.3259564"><ele>380.33333333333337</ele><time>2026-04-04T14:12:13.974Z</time></trkpt><trkpt lat="44.34151" lon="8.3261712"><ele>380.6666666666667</ele><time>2026-04-04T14:12:14.975Z</time></trkpt><trkpt lat="44.3414971" lon="8.3263916"><ele>381.0</ele><time>2026-04-04T14:12:15.975Z</time></trkpt><trkpt lat="44.3414956" lon="8.3266146"><ele>382.66666666666663</ele><time>2026-04-04T14:12:16.975Z</time></trkpt><trkpt lat="44.3415" lon="8.3268429"><ele>384.3333333333333</ele><time>2026-04-04T14:12:17.975Z</time></trkpt><trkpt lat="44.341505" lon="8.3270667"><ele>386.0</ele><time>2026-04-04T14:12:18.975Z</time></trkpt><trkpt lat="44.3415061" lon="8.3272912"><ele>393.0</ele><time>2026-04-04T14:12:19.975Z</time></trkpt><trkpt lat="44.3415062" lon="8.3275173"><ele>400.0</ele><time>2026-04-04T14:12:20.974Z</time></trkpt><trkpt lat="44.3415046" lon="8.327745"><ele>407.0</ele><time>2026-04-04T14:12:21.974Z</time></trkpt><trkpt lat="44.3415039" lon="8.3279745"><ele>410.66666666666663</ele><time>2026-04-04T14:12:22.975Z</time></trkpt><trkpt lat="44.3415189" lon="8.3282032"><ele>414.33333333333337</ele><time>2026-04-04T14:12:23.975Z</time></trkpt><trkpt lat="44.3415376" lon="8.3284317"><ele>418.0</ele><time>2026-04-04T14:12:24.975Z</time></trkpt><trkpt lat="44.3415518" lon="8.3286614"><ele>420.0</ele><time>2026-04-04T14:12:25.975Z</time></trkpt><trkpt lat="44.3415668" lon="8.3288971"><ele>422.0</ele><time>2026-04-04T14:12:26.975Z</time></trkpt><trkpt lat="44.3415799" lon="8.3291281"><ele>424.0</ele><time>2026-04-04T14:12:27.974Z</time></trkpt><trkpt lat="44.3385633" lon="8.3507083"><ele>424.0</ele><time>2026-04-04T14:14:20.979Z</time></trkpt><trkpt lat="44.3384831" lon="8.3508349"><ele>424.0</ele><time>2026-04-04T14:14:21.979Z</time></trkpt><trkpt lat="44.3384243" lon="8.3509714"><ele>424.0</ele><time>2026-04-04T14:14:22.979Z</time></trkpt><trkpt lat="44.3383254" lon="8.3510963"><ele>424.0</ele><time>2026-04-04T14:14:23.979Z</time></trkpt><trkpt lat="44.3382366" lon="8.3512268"><ele>424.0</ele><time>2026-04-04T14:14:24.978Z</time></trkpt><trkpt lat="44.33814" lon="8.3513564"><ele>424.0</ele><time>2026-04-04T14:14:25.979Z</time></trkpt><trkpt lat="44.3380409" lon="8.3514811"><ele>424.0</ele><time>2026-04-04T14:14:26.979Z</time></trkpt><trkpt lat="44.3379372" lon="8.3516079"><ele>424.0</ele><time>2026-04-04T14:14:27.979Z</time></trkpt><trkpt lat="44.3378317" lon="8.3517361"><ele>424.5</ele><time>2026-04-04T14:14:28.979Z</time></trkpt><trkpt lat="44.3377307" lon="8.3518627"><ele>425.0</ele><time>2026-04-04T14:14:29.979Z</time></trkpt><trkpt lat="44.3376404" lon="8.3520072"><ele>425.5</ele><time>2026-04-04T14:14:30.978Z</time></trkpt><trkpt lat="44.3375514" lon="8.3521478"><ele>426.0</ele><time>2026-04-04T14:14:31.978Z</time></trkpt><trkpt lat="44.337458" lon="8.3522843"><ele>423.75</ele><time>2026-04-04T14:14:32.979Z</time></trkpt><trkpt lat="44.3373642" lon="8.3524199"><ele>421.5</ele><time>2026-04-04T14:14:33.979Z</time></trkpt><trkpt lat="44.3372726" lon="8.3525586"><ele>419.25</ele><time>2026-04-04T14:14:34.979Z</time></trkpt><trkpt lat="44.337185" lon="8.3527044"><ele>417.0</ele><time>2026-04-04T14:14:35.979Z</time></trkpt><trkpt lat="44.3370986" lon="8.3528682"><ele>416.0</ele><time>2026-04-04T14:14:36.979Z</time></trkpt><trkpt lat="44.3370064" lon="8.3530306"><ele>415.0</ele><time>2026-04-04T14:14:37.979Z</time></trkpt><trkpt lat="44.3369106" lon="8.3531951"><ele>414.0</ele><time>2026-04-04T14:14:38.979Z</time></trkpt><trkpt lat="44.336811" lon="8.3533607"><ele>410.0</ele><time>2026-04-04T14:14:39.979Z</time></trkpt><trkpt lat="44.3366996" lon="8.3535318"><ele>406.0</ele><time>2026-04-04T14:14:40.979Z</time></trkpt><trkpt lat="44.3365935" lon="8.3537134"><ele>402.0</ele><time>2026-04-04T14:14:41.978Z</time></trkpt><trkpt lat="44.3364914" lon="8.3539091"><ele>398.66666666666663</ele><time>2026-04-04T14:14:42.978Z</time></trkpt><trkpt lat="44.3363918" lon="8.3541113"><ele>395.3333333333333</ele><time>2026-04-04T14:14:43.979Z</time></trkpt><trkpt lat="44.3362937" lon="8.3543109"><ele>392.0</ele><time>2026-04-04T14:14:44.979Z</time></trkpt><trkpt lat="44.3362079" lon="8.3545102"><ele>385.3333333333333</ele><time>2026-04-04T14:14:45.978Z</time></trkpt><trkpt lat="44.3361215" lon="8.3547186"><ele>378.66666666666663</ele><time>2026-04-04T14:14:46.978Z</time></trkpt><trkpt lat="44.3360332" lon="8.3549444"><ele>372.0</ele><time>2026-04-04T14:14:47.979Z</time></trkpt><trkpt lat="44.335948" lon="8.3551695"><ele>372.0</ele><time>2026-04-04T14:14:48.978Z</time></trkpt><trkpt lat="44.3358623" lon="8.3554004"><ele>372.0</ele><time>2026-04-04T14:14:49.978Z</time></trkpt><trkpt lat="44.3357786" lon="8.3556324"><ele>372.0</ele><time>2026-04-04T14:14:50.979Z</time></trkpt><trkpt lat="44.3356988" lon="8.3558648"><ele>374.0</ele><time>2026-04-04T14:14:51.979Z</time></trkpt><trkpt lat="44.3356245" lon="8.3560972"><ele>376.0</ele><time>2026-04-04T14:14:52.979Z</time></trkpt><trkpt lat="44.3355554" lon="8.3563273"><ele>378.0</ele><time>2026-04-04T14:14:53.979Z</time></trkpt><trkpt lat="44.3354889" lon="8.3565572"><ele>386.33333333333337</ele><time>2026-04-04T14:14:54.979Z</time></trkpt><trkpt lat="44.3354246" lon="8.3567845"><ele>394.6666666666667</ele><time>2026-04-04T14:14:55.979Z</time></trkpt><trkpt lat="44.3353589" lon="8.3570101"><ele>403.0</ele><time>2026-04-04T14:14:56.979Z</time></trkpt><trkpt lat="44.3352954" lon="8.3572352"><ele>403.0</ele><time>2026-04-04T14:14:57.979Z</time></trkpt><trkpt lat="44.3352227" lon="8.3574564"><ele>403.0</ele><time>2026-04-04T14:14:58.979Z</time></trkpt><trkpt lat="44.335157" lon="8.3576814"><ele>403.0</ele><time>2026-04-04T14:14:59.979Z</time></trkpt><trkpt lat="44.3351005" lon="8.357913"><ele>401.6666666666667</ele><time>2026-04-04T14:15:00.978Z</time></trkpt><trkpt lat="44.3350405" lon="8.3581525"><ele>400.33333333333337</ele><time>2026-04-04T14:15:01.979Z</time></trkpt><trkpt lat="44.3349842" lon="8.3583926"><ele>399.0</ele><time>2026-04-04T14:15:02.978Z</time></trkpt><trkpt lat="44.3349376" lon="8.3586244"><ele>399.0</ele><time>2026-04-04T14:15:03.979Z</time></trkpt><trkpt lat="44.3348848" lon="8.3588484"><ele>399.0</ele><time>2026-04-04T14:15:04.979Z</time></trkpt><trkpt lat="44.3348267" lon="8.3590802"><ele>399.0</ele><time>2026-04-04T14:15:05.979Z</time></trkpt><trkpt lat="44.3347711" lon="8.359316"><ele>389.6666666666667</ele><time>2026-04-04T14:15:06.979Z</time></trkpt><trkpt lat="44.334715" lon="8.3595515"><ele>380.33333333333337</ele><time>2026-04-04T14:15:07.978Z</time></trkpt><trkpt lat="44.3346639" lon="8.3597896"><ele>371.0</ele><time>2026-04-04T14:15:08.978Z</time></trkpt><trkpt lat="44.3346064" lon="8.360028"><ele>371.0</ele><time>2026-04-04T14:15:09.979Z</time></trkpt><trkpt lat="44.3345611" lon="8.3602664"><ele>371.0</ele><time>2026-04-04T14:15:10.979Z</time></trkpt><trkpt lat="44.3345426" lon="8.360514"><ele>371.0</ele><time>2026-04-04T14:15:11.979Z</time></trkpt><trkpt lat="44.334557" lon="8.3607694"><ele>371.33333333333337</ele><time>2026-04-04T14:15:12.979Z</time></trkpt><trkpt lat="44.3345919" lon="8.361014"><ele>371.6666666666667</ele><time>2026-04-04T14:15:13.978Z</time></trkpt><trkpt lat="44.334652" lon="8.3612485"><ele>372.0</ele><time>2026-04-04T14:15:14.979Z</time></trkpt><trkpt lat="44.3347085" lon="8.3614705"><ele>381.66666666666663</ele><time>2026-04-04T14:15:15.978Z</time></trkpt><trkpt lat="44.3347638" lon="8.3616836"><ele>391.3333333333333</ele><time>2026-04-04T14:15:16.978Z</time></trkpt><trkpt lat="44.3348227" lon="8.3618903"><ele>401.0</ele><time>2026-04-04T14:15:17.979Z</time></trkpt><trkpt lat="44.3348842" lon="8.3620971"><ele>395.0</ele><time>2026-04-04T14:15:18.978Z</time></trkpt><trkpt lat="44.3349438" lon="8.3623038"><ele>389.0</ele><time>2026-04-04T14:15:19.978Z</time></trkpt><trkpt lat="44.3349966" lon="8.3625094"><ele>383.0</ele><time>2026-04-04T14:15:20.979Z</time></trkpt><trkpt lat="44.3350486" lon="8.3627139"><ele>383.0</ele><time>2026-04-04T14:15:21.979Z</time></trkpt><trkpt lat="44.3351004" lon="8.3629149"><ele>383.0</ele><time>2026-04-04T14:15:22.979Z</time></trkpt><trkpt lat="44.3351523" lon="8.3631157"><ele>383.0</ele><time>2026-04-04T14:15:23.979Z</time></trkpt><trkpt lat="44.3352025" lon="8.3633097"><ele>380.25</ele><time>2026-04-04T14:15:24.978Z</time></trkpt><trkpt lat="44.3352477" lon="8.36349"><ele>377.5</ele><time>2026-04-04T14:15:25.978Z</time></trkpt><trkpt lat="44.3352795" lon="8.3636618"><ele>374.75</ele><time>2026-04-04T14:15:26.979Z</time></trkpt><trkpt lat="44.3352936" lon="8.3638351"><ele>372.0</ele><time>2026-04-04T14:15:27.979Z</time></trkpt><trkpt lat="44.335285" lon="8.364005"><ele>370.5</ele><time>2026-04-04T14:15:28.979Z</time></trkpt><trkpt lat="44.3352563" lon="8.364165"><ele>369.0</ele><time>2026-04-04T14:15:29.979Z</time></trkpt><trkpt lat="44.3352192" lon="8.3643168"><ele>367.5</ele><time>2026-04-04T14:15:30.979Z</time></trkpt><trkpt lat="44.3351759" lon="8.3644619"><ele>366.0</ele><time>2026-04-04T14:15:31.979Z</time></trkpt><trkpt lat="44.3351271" lon="8.3646054"><ele>367.25</ele><time>2026-04-04T14:15:32.979Z</time></trkpt><trkpt lat="44.3350787" lon="8.3647511"><ele>368.5</ele><time>2026-04-04T14:15:33.978Z</time></trkpt><trkpt lat="44.335038" lon="8.3649042"><ele>369.75</ele><time>2026-04-04T14:15:34.979Z</time></trkpt><trkpt lat="44.3350066" lon="8.3650644"><ele>371.0</ele><time>2026-04-04T14:15:35.978Z</time></trkpt><trkpt lat="44.3349954" lon="8.3652291"><ele>371.0</ele><time>2026-04-04T14:15:36.979Z</time></trkpt><trkpt lat="44.3350071" lon="8.3654"><ele>371.0</ele><time>2026-04-04T14:15:37.978Z</time></trkpt><trkpt lat="44.3350435" lon="8.3655707"><ele>371.0</ele><time>2026-04-04T14:15:38.979Z</time></trkpt><trkpt lat="44.3351064" lon="8.3657302"><ele>371.0</ele><time>2026-04-04T14:15:39.979Z</time></trkpt><trkpt lat="44.3351837" lon="8.3658833"><ele>370.25</ele><time>2026-04-04T14:15:40.978Z</time></trkpt><trkpt lat="44.3352614" lon="8.3660417"><ele>369.5</ele><time>2026-04-04T14:15:41.979Z</time></trkpt><trkpt lat="44.335318" lon="8.3662129"><ele>368.75</ele><time>2026-04-04T14:15:42.978Z</time></trkpt><trkpt lat="44.33534" lon="8.3664041"><ele>368.0</ele><time>2026-04-04T14:15:43.979Z</time></trkpt><trkpt lat="44.3353444" lon="8.3666037"><ele>363.75</ele><time>2026-04-04T14:15:44.979Z</time></trkpt><trkpt lat="44.3353438" lon="8.3668025"><ele>359.5</ele><time>2026-04-04T14:15:45.978Z</time></trkpt><trkpt lat="44.335332" lon="8.3670002"><ele>355.25</ele><time>2026-04-04T14:15:46.979Z</time></trkpt><trkpt lat="44.3353254" lon="8.3671966"><ele>351.0</ele><time>2026-04-04T14:15:47.979Z</time></trkpt><trkpt lat="44.3353288" lon="8.3673959"><ele>349.75</ele><time>2026-04-04T14:15:48.979Z</time></trkpt><trkpt lat="44.3353483" lon="8.3675963"><ele>348.5</ele><time>2026-04-04T14:15:49.978Z</time></trkpt><trkpt lat="44.3353911" lon="8.3677915"><ele>347.25</ele><time>2026-04-04T14:15:50.979Z</time></trkpt><trkpt lat="44.3354548" lon="8.3679781"><ele>346.0</ele><time>2026-04-04T14:15:51.978Z</time></trkpt><trkpt lat="44.3355415" lon="8.3681554"><ele>350.3333333333333</ele><time>2026-04-04T14:15:52.979Z</time></trkpt><trkpt lat="44.3356424" lon="8.3683146"><ele>354.6666666666667</ele><time>2026-04-04T14:15:53.978Z</time></trkpt><trkpt lat="44.335756" lon="8.3684513"><ele>359.0</ele><time>2026-04-04T14:15:54.979Z</time></trkpt><trkpt lat="44.3358808" lon="8.3685631"><ele>359.0</ele><time>2026-04-04T14:15:55.979Z</time></trkpt><trkpt lat="44.3360164" lon="8.3686485"><ele>359.0</ele><time>2026-04-04T14:15:56.979Z</time></trkpt><trkpt lat="44.3361551" lon="8.3687184"><ele>359.0</ele><time>2026-04-04T14:15:57.979Z</time></trkpt><trkpt lat="44.3362906" lon="8.3687993"><ele>359.0</ele><time>2026-04-04T14:15:58.978Z</time></trkpt><trkpt lat="44.3364137" lon="8.3688902"><ele>357.0</ele><time>2026-04-04T14:15:59.979Z</time></trkpt><trkpt lat="44.3365216" lon="8.3690024"><ele>355.0</ele><time>2026-04-04T14:16:00.979Z</time></trkpt><trkpt lat="44.3366123" lon="8.3691373"><ele>353.0</ele><time>2026-04-04T14:16:01.978Z</time></trkpt><trkpt lat="44.3366849" lon="8.36929"><ele>351.0</ele><time>2026-04-04T14:16:02.979Z</time></trkpt><trkpt lat="44.3367422" lon="8.3694562"><ele>351.0</ele><time>2026-04-04T14:16:03.979Z</time></trkpt><trkpt lat="44.3367832" lon="8.3696341"><ele>351.0</ele><time>2026-04-04T14:16:04.979Z</time></trkpt><trkpt lat="44.3368083" lon="8.3698087"><ele>351.0</ele><time>2026-04-04T14:16:05.979Z</time></trkpt><trkpt lat="44.3368059" lon="8.3699851"><ele>351.0</ele><time>2026-04-04T14:16:06.979Z</time></trkpt><trkpt lat="44.3367695" lon="8.3701557"><ele>349.75</ele><time>2026-04-04T14:16:07.979Z</time></trkpt><trkpt lat="44.3367145" lon="8.3703147"><ele>348.5</ele><time>2026-04-04T14:16:08.979Z</time></trkpt><trkpt lat="44.3366437" lon="8.3704652"><ele>347.25</ele><time>2026-04-04T14:16:09.979Z</time></trkpt><trkpt lat="44.3365589" lon="8.3706116"><ele>346.0</ele><time>2026-04-04T14:16:10.978Z</time></trkpt><trkpt lat="44.336469" lon="8.3707604"><ele>343.5</ele><time>2026-04-04T14:16:11.979Z</time></trkpt><trkpt lat="44.336381" lon="8.3709104"><ele>341.0</ele><time>2026-04-04T14:16:12.979Z</time></trkpt><trkpt lat="44.3362998" lon="8.3710627"><ele>338.5</ele><time>2026-04-04T14:16:13.979Z</time></trkpt><trkpt lat="44.33623" lon="8.3712258"><ele>336.0</ele><time>2026-04-04T14:16:14.978Z</time></trkpt><trkpt lat="44.3361649" lon="8.3713943"><ele>336.0</ele><time>2026-04-04T14:16:15.978Z</time></trkpt><trkpt lat="44.336104" lon="8.3715677"><ele>336.0</ele><time>2026-04-04T14:16:16.978Z</time></trkpt><trkpt lat="44.3360556" lon="8.371741"><ele>336.0</ele><time>2026-04-04T14:16:17.979Z</time></trkpt><trkpt lat="44.3360161" lon="8.371915"><ele>336.0</ele><time>2026-04-04T14:16:18.979Z</time></trkpt><trkpt lat="44.3359825" lon="8.3720974"><ele>337.0</ele><time>2026-04-04T14:16:19.979Z</time></trkpt><trkpt lat="44.3359529" lon="8.3722798"><ele>338.0</ele><time>2026-04-04T14:16:20.979Z</time></trkpt><trkpt lat="44.3359267" lon="8.3724609"><ele>339.0</ele><time>2026-04-04T14:16:21.979Z</time></trkpt><trkpt lat="44.3359027" lon="8.3726449"><ele>340.0</ele><time>2026-04-04T14:16:22.979Z</time></trkpt><trkpt lat="44.3358902" lon="8.3728244"><ele>340.0</ele><time>2026-04-04T14:16:23.979Z</time></trkpt><trkpt lat="44.3358807" lon="8.3729981"><ele>340.0</ele><time>2026-04-04T14:16:24.979Z</time></trkpt><trkpt lat="44.3358742" lon="8.3731609"><ele>340.0</ele><time>2026-04-04T14:16:25.979Z</time></trkpt><trkpt lat="44.3358681" lon="8.3733118"><ele>340.0</ele><time>2026-04-04T14:16:26.979Z</time></trkpt><trkpt lat="44.3358597" lon="8.3734527"><ele>341.0</ele><time>2026-04-04T14:16:27.978Z</time></trkpt><trkpt lat="44.3358517" lon="8.3735885"><ele>342.0</ele><time>2026-04-04T14:16:28.979Z</time></trkpt><trkpt lat="44.3358383" lon="8.3737156"><ele>343.0</ele><time>2026-04-04T14:16:29.979Z</time></trkpt><trkpt lat="44.3358147" lon="8.373833"><ele>344.0</ele><time>2026-04-04T14:16:30.979Z</time></trkpt><trkpt lat="44.335773" lon="8.373944"><ele>345.0</ele><time>2026-04-04T14:16:31.979Z</time></trkpt><trkpt lat="44.3357004" lon="8.3740339"><ele>346.2</ele><time>2026-04-04T14:16:32.979Z</time></trkpt><trkpt lat="44.3356086" lon="8.3741085"><ele>347.4</ele><time>2026-04-04T14:16:33.979Z</time></trkpt><trkpt lat="44.3355097" lon="8.3741466"><ele>348.6</ele><time>2026-04-04T14:16:34.979Z</time></trkpt><trkpt lat="44.3354165" lon="8.3741566"><ele>349.8</ele><time>2026-04-04T14:16:35.979Z</time></trkpt><trkpt lat="44.3353202" lon="8.3741366"><ele>351.0</ele><time>2026-04-04T14:16:36.979Z</time></trkpt><trkpt lat="44.335225" lon="8.374088"><ele>351.0</ele><time>2026-04-04T14:16:37.978Z</time></trkpt><trkpt lat="44.3351335" lon="8.3740188"><ele>351.0</ele><time>2026-04-04T14:16:38.978Z</time></trkpt><trkpt lat="44.3350471" lon="8.3739391"><ele>351.0</ele><time>2026-04-04T14:16:39.979Z</time></trkpt><trkpt lat="44.3349601" lon="8.3738535"><ele>351.0</ele><time>2026-04-04T14:16:40.979Z</time></trkpt><trkpt lat="44.334874" lon="8.3737624"><ele>351.0</ele><time>2026-04-04T14:16:41.979Z</time></trkpt><trkpt lat="44.3347819" lon="8.3736884"><ele>349.0</ele><time>2026-04-04T14:16:42.979Z</time></trkpt><trkpt lat="44.3346793" lon="8.373644"><ele>347.0</ele><time>2026-04-04T14:16:43.979Z</time></trkpt><trkpt lat="44.3345698" lon="8.3735972"><ele>345.0</ele><time>2026-04-04T14:16:44.979Z</time></trkpt><trkpt lat="44.334459" lon="8.3735212"><ele>343.0</ele><time>2026-04-04T14:16:45.979Z</time></trkpt><trkpt lat="44.3343417" lon="8.3734032"><ele>343.0</ele><time>2026-04-04T14:16:46.979Z</time></trkpt><trkpt lat="44.3342412" lon="8.3732565"><ele>343.0</ele><time>2026-04-04T14:16:47.979Z</time></trkpt><trkpt lat="44.3341639" lon="8.3730807"><ele>343.0</ele><time>2026-04-04T14:16:48.978Z</time></trkpt><trkpt lat="44.3340997" lon="8.3728903"><ele>343.0</ele><time>2026-04-04T14:16:49.978Z</time></trkpt><trkpt lat="44.3340366" lon="8.3727111"><ele>340.5</ele><time>2026-04-04T14:16:50.978Z</time></trkpt><trkpt lat="44.3339611" lon="8.3725496"><ele>338.0</ele><time>2026-04-04T14:16:51.979Z</time></trkpt><trkpt lat="44.3338739" lon="8.3723948"><ele>335.5</ele><time>2026-04-04T14:16:52.979Z</time></trkpt><trkpt lat="44.3337847" lon="8.3722488"><ele>333.0</ele><time>2026-04-04T14:16:53.979Z</time></trkpt><trkpt lat="44.3337116" lon="8.3721081"><ele>331.0</ele><time>2026-04-04T14:16:54.979Z</time></trkpt><trkpt lat="44.3336495" lon="8.3719751"><ele>329.0</ele><time>2026-04-04T14:16:55.979Z</time></trkpt><trkpt lat="44.3336057" lon="8.3718243"><ele>327.0</ele><time>2026-04-04T14:16:56.979Z</time></trkpt><trkpt lat="44.3335761" lon="8.371671"><ele>325.0</ele><time>2026-04-04T14:16:57.979Z</time></trkpt><trkpt lat="44.333553" lon="8.3715249"><ele>325.0</ele><time>2026-04-04T14:16:58.979Z</time></trkpt><trkpt lat="44.3335276" lon="8.3714009"><ele>325.0</ele><time>2026-04-04T14:16:59.978Z</time></trkpt><trkpt lat="44.3334909" lon="8.3713036"><ele>325.0</ele><time>2026-04-04T14:17:00.979Z</time></trkpt><trkpt lat="44.3334456" lon="8.3712364"><ele>325.0</ele><time>2026-04-04T14:17:01.979Z</time></trkpt><trkpt lat="44.3333828" lon="8.3712045"><ele>325.0</ele><time>2026-04-04T14:17:02.978Z</time></trkpt><trkpt lat="44.3333026" lon="8.371193"><ele>325.0</ele><time>2026-04-04T14:17:03.979Z</time></trkpt><trkpt lat="44.333196" lon="8.3711983"><ele>322.0</ele><time>2026-04-04T14:17:04.979Z</time></trkpt><trkpt lat="44.3330851" lon="8.3711979"><ele>319.0</ele><time>2026-04-04T14:17:05.979Z</time></trkpt><trkpt lat="44.3329527" lon="8.3711507"><ele>316.0</ele><time>2026-04-04T14:17:06.979Z</time></trkpt><trkpt lat="44.3328293" lon="8.3710784"><ele>313.0</ele><time>2026-04-04T14:17:07.978Z</time></trkpt><trkpt lat="44.3327099" lon="8.3709752"><ele>312.0</ele><time>2026-04-04T14:17:08.978Z</time></trkpt><trkpt lat="44.3325903" lon="8.3708524"><ele>311.0</ele><time>2026-04-04T14:17:09.979Z</time></trkpt><trkpt lat="44.3324798" lon="8.370734"><ele>310.0</ele><time>2026-04-04T14:17:10.979Z</time></trkpt><trkpt lat="44.3323879" lon="8.370623"><ele>309.0</ele><time>2026-04-04T14:17:11.979Z</time></trkpt><trkpt lat="44.3323138" lon="8.3705189"><ele>305.8</ele><time>2026-04-04T14:17:12.979Z</time></trkpt><trkpt lat="44.3322573" lon="8.370427"><ele>302.59999999999997</ele><time>2026-04-04T14:17:13.979Z</time></trkpt><trkpt lat="44.3322298" lon="8.3702787"><ele>299.4</ele><time>2026-04-04T14:17:15.979Z</time></trkpt><trkpt lat="44.3322788" lon="8.3701987"><ele>296.2</ele><time>2026-04-04T14:17:17.979Z</time></trkpt><trkpt lat="44.3323774" lon="8.3703101"><ele>293.0</ele><time>2026-04-04T14:17:19.979Z</time></trkpt><trkpt lat="44.3324528" lon="8.370402"><ele>293.0</ele><time>2026-04-04T14:17:20.979Z</time></trkpt><trkpt lat="44.3325287" lon="8.3704708"><ele>293.0</ele><time>2026-04-04T14:17:21.978Z</time></trkpt><trkpt lat="44.3326151" lon="8.3705285"><ele>293.0</ele><time>2026-04-04T14:17:22.979Z</time></trkpt><trkpt lat="44.3327081" lon="8.3705733"><ele>293.0</ele><time>2026-04-04T14:17:23.978Z</time></trkpt><trkpt lat="44.3328054" lon="8.3705924"><ele>293.0</ele><time>2026-04-04T14:17:24.979Z</time></trkpt><trkpt lat="44.3329052" lon="8.3705825"><ele>292.8</ele><time>2026-04-04T14:17:25.979Z</time></trkpt><trkpt lat="44.3330072" lon="8.3705674"><ele>292.6</ele><time>2026-04-04T14:17:26.979Z</time></trkpt><trkpt lat="44.3330886" lon="8.3705369"><ele>292.4</ele><time>2026-04-04T14:17:27.978Z</time></trkpt><trkpt lat="44.3331473" lon="8.370475"><ele>292.2</ele><time>2026-04-04T14:17:28.979Z</time></trkpt><trkpt lat="44.3331866" lon="8.370372"><ele>292.0</ele><time>2026-04-04T14:17:29.979Z</time></trkpt><trkpt lat="44.33321" lon="8.370226"><ele>292.0</ele><time>2026-04-04T14:17:30.979Z</time></trkpt><trkpt lat="44.3332282" lon="8.3700597"><ele>292.0</ele><time>2026-04-04T14:17:31.979Z</time></trkpt><trkpt lat="44.3332418" lon="8.3699185"><ele>292.0</ele><time>2026-04-04T14:17:32.979Z</time></trkpt><trkpt lat="44.3332623" lon="8.3698162"><ele>292.0</ele><time>2026-04-04T14:17:33.979Z</time></trkpt><trkpt lat="44.3333344" lon="8.369708"><ele>292.0</ele><time>2026-04-04T14:17:35.979Z</time></trkpt><trkpt lat="44.3333999" lon="8.3696873"><ele>292.0</ele><time>2026-04-04T14:17:36.979Z</time></trkpt><trkpt lat="44.3334746" lon="8.3696692"><ele>292.0</ele><time>2026-04-04T14:17:37.979Z</time></trkpt><trkpt lat="44.3335491" lon="8.369658"><ele>292.0</ele><time>2026-04-04T14:17:38.978Z</time></trkpt><trkpt lat="44.3336265" lon="8.3696626"><ele>292.0</ele><time>2026-04-04T14:17:39.979Z</time></trkpt><trkpt lat="44.3337141" lon="8.3696944"><ele>292.0</ele><time>2026-04-04T14:17:40.979Z</time></trkpt><trkpt lat="44.3338095" lon="8.3697387"><ele>292.0</ele><time>2026-04-04T14:17:41.979Z</time></trkpt><trkpt lat="44.3339216" lon="8.3698023"><ele>291.0</ele><time>2026-04-04T14:17:42.979Z</time></trkpt><trkpt lat="44.334027" lon="8.3698554"><ele>290.0</ele><time>2026-04-04T14:17:43.979Z</time></trkpt><trkpt lat="44.3341173" lon="8.3698787"><ele>289.0</ele><time>2026-04-04T14:17:44.979Z</time></trkpt><trkpt lat="44.3342085" lon="8.3698836"><ele>288.0</ele><time>2026-04-04T14:17:45.979Z</time></trkpt><trkpt lat="44.3342936" lon="8.3698802"><ele>287.0</ele><time>2026-04-04T14:17:46.979Z</time></trkpt><trkpt lat="44.3343697" lon="8.3698734"><ele>287.0</ele><time>2026-04-04T14:17:47.979Z</time></trkpt><trkpt lat="44.3344282" lon="8.3698156"><ele>287.0</ele><time>2026-04-04T14:17:49.979Z</time></trkpt><trkpt lat="44.3343717" lon="8.3697614"><ele>287.0</ele><time>2026-04-04T14:17:51.979Z</time></trkpt><trkpt lat="44.3342625" lon="8.3696436"><ele>287.0</ele><time>2026-04-04T14:17:52.979Z</time></trkpt><trkpt lat="44.3341297" lon="8.3694753"><ele>288.0</ele><time>2026-04-04T14:17:53.979Z</time></trkpt><trkpt lat="44.3339819" lon="8.3693"><ele>289.0</ele><time>2026-04-04T14:17:54.979Z</time></trkpt><trkpt lat="44.3338604" lon="8.369118"><ele>290.0</ele><time>2026-04-04T14:17:55.979Z</time></trkpt><trkpt lat="44.3337528" lon="8.3689327"><ele>286.5</ele><time>2026-04-04T14:17:56.978Z</time></trkpt><trkpt lat="44.3336596" lon="8.3687635"><ele>283.0</ele><time>2026-04-04T14:17:57.978Z</time></trkpt><trkpt lat="44.333538" lon="8.3685935"><ele>279.5</ele><time>2026-04-04T14:17:58.978Z</time></trkpt><trkpt lat="44.3334546" lon="8.3684869"><ele>276.0</ele><time>2026-04-04T14:17:59.979Z</time></trkpt><trkpt lat="44.3333418" lon="8.3684131"><ele>276.0</ele><time>2026-04-04T14:18:00.979Z</time></trkpt><trkpt lat="44.3332491" lon="8.3683572"><ele>276.0</ele><time>2026-04-04T14:18:01.979Z</time></trkpt><trkpt lat="44.3331719" lon="8.368271"><ele>276.0</ele><time>2026-04-04T14:18:02.979Z</time></trkpt><trkpt lat="44.3331082" lon="8.3681587"><ele>276.0</ele><time>2026-04-04T14:18:03.979Z</time></trkpt><trkpt lat="44.3330468" lon="8.3680228"><ele>276.0</ele><time>2026-04-04T14:18:04.979Z</time></trkpt><trkpt lat="44.3329783" lon="8.367873"><ele>273.0</ele><time>2026-04-04T14:18:05.979Z</time></trkpt><trkpt lat="44.3329124" lon="8.3677129"><ele>270.0</ele><time>2026-04-04T14:18:06.979Z</time></trkpt><trkpt lat="44.3328447" lon="8.3675702"><ele>267.0</ele><time>2026-04-04T14:18:07.979Z</time></trkpt><trkpt lat="44.3327763" lon="8.3674321"><ele>264.0</ele><time>2026-04-04T14:18:08.979Z</time></trkpt><trkpt lat="44.3327064" lon="8.3672869"><ele>267.25</ele><time>2026-04-04T14:18:09.978Z</time></trkpt><trkpt lat="44.3326223" lon="8.3671631"><ele>270.5</ele><time>2026-04-04T14:18:10.979Z</time></trkpt><trkpt lat="44.3325277" lon="8.3670607"><ele>273.75</ele><time>2026-04-04T14:18:11.978Z</time></trkpt><trkpt lat="44.3324192" lon="8.3669696"><ele>277.0</ele><time>2026-04-04T14:18:12.979Z</time></trkpt><trkpt lat="44.3323407" lon="8.3669002"><ele>277.0</ele><time>2026-04-04T14:18:13.979Z</time></trkpt><trkpt lat="44.3322854" lon="8.3668546"><ele>277.0</ele><time>2026-04-04T14:18:14.979Z</time></trkpt><trkpt lat="44.3322215" lon="8.3667862"><ele>277.0</ele><time>2026-04-04T14:18:15.978Z</time></trkpt><trkpt lat="44.3321676" lon="8.3666947"><ele>277.0</ele><time>2026-04-04T14:18:16.979Z</time></trkpt><trkpt lat="44.3321263" lon="8.3665877"><ele>277.0</ele><time>2026-04-04T14:18:17.979Z</time></trkpt><trkpt lat="44.3321022" lon="8.3664488"><ele>277.0</ele><time>2026-04-04T14:18:18.979Z</time></trkpt><trkpt lat="44.3320555" lon="8.3662785"><ele>269.0</ele><time>2026-04-04T14:18:19.979Z</time></trkpt><trkpt lat="44.3320124" lon="8.3660815"><ele>261.0</ele><time>2026-04-04T14:18:20.979Z</time></trkpt><trkpt lat="44.3320054" lon="8.3658711"><ele>253.0</ele><time>2026-04-04T14:18:21.978Z</time></trkpt><trkpt lat="44.3320017" lon="8.3656578"><ele>257.4</ele><time>2026-04-04T14:18:22.979Z</time></trkpt><trkpt lat="44.3320012" lon="8.3654662"><ele>261.8</ele><time>2026-04-04T14:18:23.979Z</time></trkpt><trkpt lat="44.3320145" lon="8.3653089"><ele>266.2</ele><time>2026-04-04T14:18:24.979Z</time></trkpt><trkpt lat="44.3320341" lon="8.3651876"><ele>270.6</ele><time>2026-04-04T14:18:25.978Z</time></trkpt><trkpt lat="44.3320385" lon="8.3650833"><ele>275.0</ele><time>2026-04-04T14:18:27.978Z</time></trkpt><trkpt lat="44.3320018" lon="8.3651958"><ele>275.0</ele><time>2026-04-04T14:18:29.978Z</time></trkpt><trkpt lat="44.3319558" lon="8.36531"><ele>275.0</ele><time>2026-04-04T14:18:30.979Z</time></trkpt><trkpt lat="44.3318817" lon="8.3654609"><ele>275.0</ele><time>2026-04-04T14:18:31.978Z</time></trkpt><trkpt lat="44.3318119" lon="8.3656367"><ele>275.0</ele><time>2026-04-04T14:18:32.978Z</time></trkpt><trkpt lat="44.3317556" lon="8.3657824"><ele>275.8</ele><time>2026-04-04T14:18:33.979Z</time></trkpt><trkpt lat="44.3316814" lon="8.3658925"><ele>276.6</ele><time>2026-04-04T14:18:34.978Z</time></trkpt><trkpt lat="44.3316096" lon="8.3659863"><ele>277.4</ele><time>2026-04-04T14:18:35.979Z</time></trkpt><trkpt lat="44.3315194" lon="8.3660693"><ele>278.2</ele><time>2026-04-04T14:18:36.979Z</time></trkpt><trkpt lat="44.3314325" lon="8.3661583"><ele>279.0</ele><time>2026-04-04T14:18:37.978Z</time></trkpt><trkpt lat="44.3313563" lon="8.3662644"><ele>274.0</ele><time>2026-04-04T14:18:38.979Z</time></trkpt><trkpt lat="44.3313168" lon="8.366421"><ele>269.0</ele><time>2026-04-04T14:18:39.979Z</time></trkpt><trkpt lat="44.3312915" lon="8.3665966"><ele>264.0</ele><time>2026-04-04T14:18:40.979Z</time></trkpt><trkpt lat="44.3312794" lon="8.3667801"><ele>259.0</ele><time>2026-04-04T14:18:41.979Z</time></trkpt><trkpt lat="44.331255" lon="8.3669575"><ele>259.0</ele><time>2026-04-04T14:18:42.978Z</time></trkpt><trkpt lat="44.33121" lon="8.3671273"><ele>259.0</ele><time>2026-04-04T14:18:43.979Z</time></trkpt><trkpt lat="44.3311538" lon="8.3672874"><ele>259.0</ele><time>2026-04-04T14:18:44.979Z</time></trkpt><trkpt lat="44.3310854" lon="8.3674321"><ele>259.0</ele><time>2026-04-04T14:18:45.978Z</time></trkpt><trkpt lat="44.3309967" lon="8.3675622"><ele>252.75</ele><time>2026-04-04T14:18:46.979Z</time></trkpt><trkpt lat="44.3308943" lon="8.3676805"><ele>246.5</ele><time>2026-04-04T14:18:47.978Z</time></trkpt><trkpt lat="44.3307762" lon="8.3677876"><ele>240.25</ele><time>2026-04-04T14:18:48.979Z</time></trkpt><trkpt lat="44.3306466" lon="8.367883"><ele>234.0</ele><time>2026-04-04T14:18:49.979Z</time></trkpt><trkpt lat="44.3304983" lon="8.367959"><ele>234.0</ele><time>2026-04-04T14:18:50.978Z</time></trkpt><trkpt lat="44.3303456" lon="8.36802"><ele>234.0</ele><time>2026-04-04T14:18:51.979Z</time></trkpt><trkpt lat="44.3301786" lon="8.3680581"><ele>234.0</ele><time>2026-04-04T14:18:52.979Z</time></trkpt><trkpt lat="44.3300205" lon="8.3680865"><ele>230.5</ele><time>2026-04-04T14:18:53.979Z</time></trkpt><trkpt lat="44.329882" lon="8.3681067"><ele>227.0</ele><time>2026-04-04T14:18:54.979Z</time></trkpt><trkpt lat="44.3297575" lon="8.3681177"><ele>223.5</ele><time>2026-04-04T14:18:55.979Z</time></trkpt><trkpt lat="44.3296364" lon="8.3681181"><ele>220.0</ele><time>2026-04-04T14:18:56.978Z</time></trkpt><trkpt lat="44.3295145" lon="8.3681296"><ele>219.25</ele><time>2026-04-04T14:18:57.979Z</time></trkpt><trkpt lat="44.3293916" lon="8.3681648"><ele>218.5</ele><time>2026-04-04T14:18:58.978Z</time></trkpt><trkpt lat="44.3292621" lon="8.368224"><ele>217.75</ele><time>2026-04-04T14:18:59.979Z</time></trkpt><trkpt lat="44.3291213" lon="8.3682985"><ele>217.0</ele><time>2026-04-04T14:19:00.978Z</time></trkpt><trkpt lat="44.3289711" lon="8.3683908"><ele>218.75</ele><time>2026-04-04T14:19:01.979Z</time></trkpt><trkpt lat="44.3288299" lon="8.3684877"><ele>220.5</ele><time>2026-04-04T14:19:02.979Z</time></trkpt><trkpt lat="44.3286997" lon="8.3685752"><ele>222.25</ele><time>2026-04-04T14:19:03.978Z</time></trkpt><trkpt lat="44.3285764" lon="8.3686371"><ele>224.0</ele><time>2026-04-04T14:19:04.978Z</time></trkpt><trkpt lat="44.32845" lon="8.3686664"><ele>224.0</ele><time>2026-04-04T14:19:05.979Z</time></trkpt><trkpt lat="44.3283215" lon="8.3686745"><ele>224.0</ele><time>2026-04-04T14:19:06.979Z</time></trkpt><trkpt lat="44.3281839" lon="8.3686832"><ele>224.0</ele><time>2026-04-04T14:19:07.979Z</time></trkpt><trkpt lat="44.3280679" lon="8.3687229"><ele>224.0</ele><time>2026-04-04T14:19:08.979Z</time></trkpt><trkpt lat="44.3279591" lon="8.3687954"><ele>220.6</ele><time>2026-04-04T14:19:09.979Z</time></trkpt><trkpt lat="44.3278828" lon="8.3689119"><ele>217.2</ele><time>2026-04-04T14:19:10.979Z</time></trkpt><trkpt lat="44.327824" lon="8.3690389"><ele>213.79999999999998</ele><time>2026-04-04T14:19:11.978Z</time></trkpt><trkpt lat="44.3277573" lon="8.3691513"><ele>210.39999999999998</ele><time>2026-04-04T14:19:12.978Z</time></trkpt><trkpt lat="44.3276804" lon="8.3692393"><ele>207.0</ele><time>2026-04-04T14:19:13.978Z</time></trkpt><trkpt lat="44.327602" lon="8.3693042"><ele>207.0</ele><time>2026-04-04T14:19:14.978Z</time></trkpt><trkpt lat="44.3275301" lon="8.3693761"><ele>207.0</ele><time>2026-04-04T14:19:15.978Z</time></trkpt><trkpt lat="44.3274828" lon="8.3694784"><ele>207.0</ele><time>2026-04-04T14:19:16.978Z</time></trkpt><trkpt lat="44.3274466" lon="8.3696158"><ele>207.0</ele><time>2026-04-04T14:19:17.979Z</time></trkpt><trkpt lat="44.3274227" lon="8.3698094"><ele>207.0</ele><time>2026-04-04T14:19:18.978Z</time></trkpt><trkpt lat="44.3274043" lon="8.370046"><ele>205.33333333333331</ele><time>2026-04-04T14:19:19.979Z</time></trkpt><trkpt lat="44.327375" lon="8.3703041"><ele>203.66666666666666</ele><time>2026-04-04T14:19:20.979Z</time></trkpt><trkpt lat="44.3273414" lon="8.3705647"><ele>202.0</ele><time>2026-04-04T14:19:21.978Z</time></trkpt><trkpt lat="44.3273016" lon="8.3707961"><ele>201.33333333333331</ele><time>2026-04-04T14:19:22.978Z</time></trkpt><trkpt lat="44.327273" lon="8.3710107"><ele>200.66666666666669</ele><time>2026-04-04T14:19:23.977Z</time></trkpt><trkpt lat="44.3272084" lon="8.3712437"><ele>200.0</ele><time>2026-04-04T14:19:24.978Z</time></trkpt><trkpt lat="44.3271733" lon="8.3714701"><ele>198.5</ele><time>2026-04-04T14:19:25.978Z</time></trkpt><trkpt lat="44.3271472" lon="8.3716761"><ele>197.0</ele><time>2026-04-04T14:19:26.978Z</time></trkpt><trkpt lat="44.3271219" lon="8.3718483"><ele>195.5</ele><time>2026-04-04T14:19:27.978Z</time></trkpt><trkpt lat="44.3270676" lon="8.3719945"><ele>194.0</ele><time>2026-04-04T14:19:28.977Z</time></trkpt><trkpt lat="44.3269773" lon="8.3721357"><ele>192.66666666666669</ele><time>2026-04-04T14:19:29.978Z</time></trkpt><trkpt lat="44.326848" lon="8.3722807"><ele>191.33333333333334</ele><time>2026-04-04T14:19:30.978Z</time></trkpt><trkpt lat="44.3267201" lon="8.3724142"><ele>190.0</ele><time>2026-04-04T14:19:31.978Z</time></trkpt><trkpt lat="44.3265943" lon="8.3725388"><ele>190.0</ele><time>2026-04-04T14:19:32.978Z</time></trkpt><trkpt lat="44.3264786" lon="8.3726595"><ele>190.0</ele><time>2026-04-04T14:19:33.978Z</time></trkpt><trkpt lat="44.3263734" lon="8.3727687"><ele>190.0</ele><time>2026-04-04T14:19:34.978Z</time></trkpt><trkpt lat="44.3262803" lon="8.3728823"><ele>190.0</ele><time>2026-04-04T14:19:35.978Z</time></trkpt><trkpt lat="44.326201" lon="8.3730172"><ele>188.66666666666669</ele><time>2026-04-04T14:19:36.977Z</time></trkpt><trkpt lat="44.3261212" lon="8.3731943"><ele>187.33333333333334</ele><time>2026-04-04T14:19:37.978Z</time></trkpt><trkpt lat="44.326037" lon="8.3734018"><ele>186.0</ele><time>2026-04-04T14:19:38.977Z</time></trkpt><trkpt lat="44.325941" lon="8.3736172"><ele>186.0</ele><time>2026-04-04T14:19:39.977Z</time></trkpt><trkpt lat="44.3258388" lon="8.3738277"><ele>186.0</ele><time>2026-04-04T14:19:40.978Z</time></trkpt><trkpt lat="44.3257491" lon="8.3740233"><ele>186.0</ele><time>2026-04-04T14:19:41.977Z</time></trkpt><trkpt lat="44.3256682" lon="8.3742059"><ele>186.0</ele><time>2026-04-04T14:19:42.977Z</time></trkpt><trkpt lat="44.3256019" lon="8.3743716"><ele>186.0</ele><time>2026-04-04T14:19:43.978Z</time></trkpt><trkpt lat="44.3255403" lon="8.3745207"><ele>186.0</ele><time>2026-04-04T14:19:44.978Z</time></trkpt><trkpt lat="44.3254663" lon="8.3746486"><ele>186.0</ele><time>2026-04-04T14:19:45.978Z</time></trkpt><trkpt lat="44.3253924" lon="8.3747343"><ele>187.20000000000002</ele><time>2026-04-04T14:19:46.977Z</time></trkpt><trkpt lat="44.3253321" lon="8.3747917"><ele>188.4</ele><time>2026-04-04T14:19:47.978Z</time></trkpt><trkpt lat="44.3252317" lon="8.3748639"><ele>189.6</ele><time>2026-04-04T14:19:49.978Z</time></trkpt><trkpt lat="44.3251369" lon="8.3749142"><ele>190.8</ele><time>2026-04-04T14:19:51.978Z</time></trkpt><trkpt lat="44.3250381" lon="8.3750282"><ele>192.0</ele><time>2026-04-04T14:19:53.977Z</time></trkpt><trkpt lat="44.3249808" lon="8.3750977"><ele>192.0</ele><time>2026-04-04T14:19:54.978Z</time></trkpt><trkpt lat="44.3249138" lon="8.3751562"><ele>192.0</ele><time>2026-04-04T14:19:55.978Z</time></trkpt><trkpt lat="44.3248473" lon="8.3752182"><ele>192.0</ele><time>2026-04-04T14:19:56.978Z</time></trkpt><trkpt lat="44.3247871" lon="8.3753022"><ele>192.0</ele><time>2026-04-04T14:19:57.977Z</time></trkpt><trkpt lat="44.3247463" lon="8.375429"><ele>192.0</ele><time>2026-04-04T14:19:58.978Z</time></trkpt><trkpt lat="44.3247226" lon="8.3755959"><ele>192.75</ele><time>2026-04-04T14:19:59.978Z</time></trkpt><trkpt lat="44.3247051" lon="8.3757705"><ele>193.5</ele><time>2026-04-04T14:20:00.977Z</time></trkpt><trkpt lat="44.3246996" lon="8.3759363"><ele>194.25</ele><time>2026-04-04T14:20:01.978Z</time></trkpt><trkpt lat="44.324715" lon="8.3760917"><ele>195.0</ele><time>2026-04-04T14:20:02.977Z</time></trkpt><trkpt lat="44.3247396" lon="8.3762286"><ele>193.2</ele><time>2026-04-04T14:20:03.978Z</time></trkpt><trkpt lat="44.3247579" lon="8.3763623"><ele>191.4</ele><time>2026-04-04T14:20:04.978Z</time></trkpt><trkpt lat="44.3247635" lon="8.3764848"><ele>189.60000000000002</ele><time>2026-04-04T14:20:05.978Z</time></trkpt><trkpt lat="44.3247423" lon="8.3766021"><ele>187.8</ele><time>2026-04-04T14:20:06.977Z</time></trkpt><trkpt lat="44.3246947" lon="8.3767244"><ele>186.0</ele><time>2026-04-04T14:20:07.978Z</time></trkpt><trkpt lat="44.3246463" lon="8.3768321"><ele>186.0</ele><time>2026-04-04T14:20:08.978Z</time></trkpt><trkpt lat="44.3245809" lon="8.3769225"><ele>186.0</ele><time>2026-04-04T14:20:09.978Z</time></trkpt><trkpt lat="44.3244865" lon="8.3769745"><ele>186.0</ele><time>2026-04-04T14:20:10.978Z</time></trkpt><trkpt lat="44.3243836" lon="8.3769943"><ele>186.0</ele><time>2026-04-04T14:20:11.978Z</time></trkpt><trkpt lat="44.3242811" lon="8.3769943"><ele>186.0</ele><time>2026-04-04T14:20:12.978Z</time></trkpt><trkpt lat="44.3241747" lon="8.3770069"><ele>186.0</ele><time>2026-04-04T14:20:13.978Z</time></trkpt><trkpt lat="44.3240551" lon="8.3770492"><ele>186.0</ele><time>2026-04-04T14:20:14.978Z</time></trkpt><trkpt lat="44.3239348" lon="8.3771156"><ele>186.0</ele><time>2026-04-04T14:20:15.978Z</time></trkpt><trkpt lat="44.3238243" lon="8.3771955"><ele>186.0</ele><time>2026-04-04T14:20:16.978Z</time></trkpt><trkpt lat="44.3237208" lon="8.3772854"><ele>184.25</ele><time>2026-04-04T14:20:17.977Z</time></trkpt><trkpt lat="44.3236285" lon="8.3773869"><ele>182.5</ele><time>2026-04-04T14:20:18.978Z</time></trkpt><trkpt lat="44.3235439" lon="8.3775024"><ele>180.75</ele><time>2026-04-04T14:20:19.977Z</time></trkpt><trkpt lat="44.3234692" lon="8.377633"><ele>179.0</ele><time>2026-04-04T14:20:20.978Z</time></trkpt><trkpt lat="44.3233923" lon="8.3777778"><ele>179.0</ele><time>2026-04-04T14:20:21.978Z</time></trkpt><trkpt lat="44.3233149" lon="8.3779233"><ele>179.0</ele><time>2026-04-04T14:20:22.978Z</time></trkpt><trkpt lat="44.3232546" lon="8.3780689"><ele>179.0</ele><time>2026-04-04T14:20:23.978Z</time></trkpt><trkpt lat="44.3232039" lon="8.3782218"><ele>179.0</ele><time>2026-04-04T14:20:24.978Z</time></trkpt><trkpt lat="44.3231674" lon="8.3784019"><ele>179.0</ele><time>2026-04-04T14:20:25.978Z</time></trkpt><trkpt lat="44.3231448" lon="8.37861"><ele>179.0</ele><time>2026-04-04T14:20:26.977Z</time></trkpt><trkpt lat="44.3231323" lon="8.3788135"><ele>179.0</ele><time>2026-04-04T14:20:27.978Z</time></trkpt><trkpt lat="44.3231306" lon="8.3790045"><ele>179.0</ele><time>2026-04-04T14:20:28.978Z</time></trkpt><trkpt lat="44.3231257" lon="8.3791856"><ele>177.0</ele><time>2026-04-04T14:20:29.978Z</time></trkpt><trkpt lat="44.3231066" lon="8.3793358"><ele>175.0</ele><time>2026-04-04T14:20:30.978Z</time></trkpt><trkpt lat="44.3230631" lon="8.3794688"><ele>173.0</ele><time>2026-04-04T14:20:31.977Z</time></trkpt><trkpt lat="44.3230134" lon="8.3795774"><ele>171.0</ele><time>2026-04-04T14:20:32.978Z</time></trkpt><trkpt lat="44.3229761" lon="8.3796849"><ele>169.0</ele><time>2026-04-04T14:20:33.978Z</time></trkpt><trkpt lat="44.3229651" lon="8.3798047"><ele>168.0</ele><time>2026-04-04T14:20:34.978Z</time></trkpt><trkpt lat="44.3229766" lon="8.3799407"><ele>167.0</ele><time>2026-04-04T14:20:35.977Z</time></trkpt><trkpt lat="44.3230163" lon="8.3801015"><ele>166.0</ele><time>2026-04-04T14:20:36.978Z</time></trkpt><trkpt lat="44.323065" lon="8.3802687"><ele>165.0</ele><time>2026-04-04T14:20:37.978Z</time></trkpt><trkpt lat="44.3231096" lon="8.3804275"><ele>163.83333333333334</ele><time>2026-04-04T14:20:38.978Z</time></trkpt><trkpt lat="44.3231545" lon="8.3805619"><ele>162.66666666666666</ele><time>2026-04-04T14:20:39.977Z</time></trkpt><trkpt lat="44.323191" lon="8.3806782"><ele>161.5</ele><time>2026-04-04T14:20:40.978Z</time></trkpt><trkpt lat="44.3232129" lon="8.3807857"><ele>160.33333333333331</ele><time>2026-04-04T14:20:41.978Z</time></trkpt><trkpt lat="44.3232068" lon="8.3808966"><ele>159.16666666666666</ele><time>2026-04-04T14:20:42.978Z</time></trkpt><trkpt lat="44.3231934" lon="8.3810121"><ele>158.0</ele><time>2026-04-04T14:20:43.977Z</time></trkpt><trkpt lat="44.3231704" lon="8.3811353"><ele>158.0</ele><time>2026-04-04T14:20:44.978Z</time></trkpt><trkpt lat="44.323108" lon="8.3812714"><ele>158.0</ele><time>2026-04-04T14:20:45.977Z</time></trkpt><trkpt lat="44.3230088" lon="8.3814214"><ele>158.0</ele><time>2026-04-04T14:20:46.978Z</time></trkpt><trkpt lat="44.3229149" lon="8.3815694"><ele>158.0</ele><time>2026-04-04T14:20:47.978Z</time></trkpt><trkpt lat="44.3228198" lon="8.3817057"><ele>158.20000000000002</ele><time>2026-04-04T14:20:48.978Z</time></trkpt><trkpt lat="44.3227367" lon="8.3818266"><ele>158.4</ele><time>2026-04-04T14:20:49.978Z</time></trkpt><trkpt lat="44.322656" lon="8.381926"><ele>158.60000000000002</ele><time>2026-04-04T14:20:50.978Z</time></trkpt><trkpt lat="44.3225763" lon="8.3820048"><ele>158.8</ele><time>2026-04-04T14:20:51.978Z</time></trkpt><trkpt lat="44.3224823" lon="8.3820583"><ele>159.0</ele><time>2026-04-04T14:20:52.978Z</time></trkpt><trkpt lat="44.322379" lon="8.3820934"><ele>159.0</ele><time>2026-04-04T14:20:53.977Z</time></trkpt><trkpt lat="44.3222826" lon="8.382122"><ele>159.0</ele><time>2026-04-04T14:20:54.978Z</time></trkpt><trkpt lat="44.3222018" lon="8.3821637"><ele>159.0</ele><time>2026-04-04T14:20:55.977Z</time></trkpt><trkpt lat="44.3221304" lon="8.38222"><ele>159.0</ele><time>2026-04-04T14:20:56.978Z</time></trkpt><trkpt lat="44.3220672" lon="8.3823003"><ele>159.0</ele><time>2026-04-04T14:20:57.977Z</time></trkpt><trkpt lat="44.3220075" lon="8.3824196"><ele>157.0</ele><time>2026-04-04T14:20:58.978Z</time></trkpt><trkpt lat="44.3219536" lon="8.3825858"><ele>155.0</ele><time>2026-04-04T14:20:59.977Z</time></trkpt><trkpt lat="44.3218852" lon="8.3827513"><ele>153.0</ele><time>2026-04-04T14:21:00.978Z</time></trkpt><trkpt lat="44.3218149" lon="8.3829028"><ele>151.0</ele><time>2026-04-04T14:21:01.978Z</time></trkpt><trkpt lat="44.3217414" lon="8.3830368"><ele>151.0</ele><time>2026-04-04T14:21:02.978Z</time></trkpt><trkpt lat="44.3216699" lon="8.3831564"><ele>151.0</ele><time>2026-04-04T14:21:03.977Z</time></trkpt><trkpt lat="44.3215967" lon="8.3832621"><ele>151.0</ele><time>2026-04-04T14:21:04.977Z</time></trkpt><trkpt lat="44.321513" lon="8.3833469"><ele>151.0</ele><time>2026-04-04T14:21:05.977Z</time></trkpt><trkpt lat="44.3214236" lon="8.3834082"><ele>151.0</ele><time>2026-04-04T14:21:06.978Z</time></trkpt><trkpt lat="44.3213317" lon="8.3834503"><ele>152.8</ele><time>2026-04-04T14:21:07.978Z</time></trkpt><trkpt lat="44.3212417" lon="8.3834686"><ele>154.6</ele><time>2026-04-04T14:21:08.978Z</time></trkpt><trkpt lat="44.3211517" lon="8.3834735"><ele>156.4</ele><time>2026-04-04T14:21:09.978Z</time></trkpt><trkpt lat="44.3210475" lon="8.3834569"><ele>158.2</ele><time>2026-04-04T14:21:10.978Z</time></trkpt><trkpt lat="44.3209519" lon="8.3834251"><ele>160.0</ele><time>2026-04-04T14:21:11.978Z</time></trkpt><trkpt lat="44.3208425" lon="8.3833645"><ele>160.0</ele><time>2026-04-04T14:21:12.977Z</time></trkpt><trkpt lat="44.3207283" lon="8.3832904"><ele>160.0</ele><time>2026-04-04T14:21:13.978Z</time></trkpt><trkpt lat="44.3205754" lon="8.3831726"><ele>160.0</ele><time>2026-04-04T14:21:14.977Z</time></trkpt><trkpt lat="44.3204105" lon="8.3830483"><ele>163.33333333333334</ele><time>2026-04-04T14:21:15.977Z</time></trkpt><trkpt lat="44.3202476" lon="8.3829399"><ele>166.66666666666666</ele><time>2026-04-04T14:21:16.977Z</time></trkpt><trkpt lat="44.3200875" lon="8.382864"><ele>170.0</ele><time>2026-04-04T14:21:17.978Z</time></trkpt><trkpt lat="44.3199247" lon="8.3828263"><ele>170.0</ele><time>2026-04-04T14:21:18.978Z</time></trkpt><trkpt lat="44.3197651" lon="8.382816"><ele>170.0</ele><time>2026-04-04T14:21:19.978Z</time></trkpt><trkpt lat="44.3196138" lon="8.382832"><ele>170.0</ele><time>2026-04-04T14:21:20.978Z</time></trkpt><trkpt lat="44.3194691" lon="8.3828662"><ele>167.75</ele><time>2026-04-04T14:21:21.977Z</time></trkpt><trkpt lat="44.3193309" lon="8.3828992"><ele>165.5</ele><time>2026-04-04T14:21:22.977Z</time></trkpt><trkpt lat="44.3192029" lon="8.3829284"><ele>163.25</ele><time>2026-04-04T14:21:23.978Z</time></trkpt><trkpt lat="44.3190938" lon="8.3829581"><ele>161.0</ele><time>2026-04-04T14:21:24.978Z</time></trkpt><trkpt lat="44.3189952" lon="8.3829736"><ele>160.0</ele><time>2026-04-04T14:21:25.978Z</time></trkpt><trkpt lat="44.3188993" lon="8.3829677"><ele>159.0</ele><time>2026-04-04T14:21:26.978Z</time></trkpt><trkpt lat="44.318805" lon="8.3829464"><ele>158.0</ele><time>2026-04-04T14:21:27.978Z</time></trkpt><trkpt lat="44.3187042" lon="8.3829112"><ele>157.0</ele><time>2026-04-04T14:21:28.977Z</time></trkpt><trkpt lat="44.3186024" lon="8.3828807"><ele>156.0</ele><time>2026-04-04T14:21:29.978Z</time></trkpt><trkpt lat="44.3185122" lon="8.3828586"><ele>156.0</ele><time>2026-04-04T14:21:30.978Z</time></trkpt><trkpt lat="44.3184376" lon="8.3828567"><ele>156.0</ele><time>2026-04-04T14:21:31.977Z</time></trkpt><trkpt lat="44.3183284" lon="8.3828809"><ele>156.0</ele><time>2026-04-04T14:21:33.978Z</time></trkpt><trkpt lat="44.3182512" lon="8.383021"><ele>156.0</ele><time>2026-04-04T14:21:35.978Z</time></trkpt><trkpt lat="44.3182046" lon="8.3831094"><ele>156.0</ele><time>2026-04-04T14:21:36.978Z</time></trkpt><trkpt lat="44.3181466" lon="8.3831836"><ele>152.4</ele><time>2026-04-04T14:21:37.978Z</time></trkpt><trkpt lat="44.3180677" lon="8.3832456"><ele>148.8</ele><time>2026-04-04T14:21:38.978Z</time></trkpt><trkpt lat="44.3179816" lon="8.3832991"><ele>145.20000000000002</ele><time>2026-04-04T14:21:39.977Z</time></trkpt><trkpt lat="44.3178886" lon="8.3833466"><ele>141.6</ele><time>2026-04-04T14:21:40.977Z</time></trkpt><trkpt lat="44.317797" lon="8.3833878"><ele>138.0</ele><time>2026-04-04T14:21:41.978Z</time></trkpt><trkpt lat="44.3177039" lon="8.3834327"><ele>138.0</ele><time>2026-04-04T14:21:42.978Z</time></trkpt><trkpt lat="44.3176142" lon="8.3834801"><ele>138.0</ele><time>2026-04-04T14:21:43.977Z</time></trkpt><trkpt lat="44.3175229" lon="8.3835374"><ele>138.0</ele><time>2026-04-04T14:21:44.978Z</time></trkpt><trkpt lat="44.3174348" lon="8.3836176"><ele>138.0</ele><time>2026-04-04T14:21:45.977Z</time></trkpt><trkpt lat="44.3173476" lon="8.3837235"><ele>138.0</ele><time>2026-04-04T14:21:46.977Z</time></trkpt><trkpt lat="44.317263" lon="8.3838247"><ele>136.4</ele><time>2026-04-04T14:21:47.978Z</time></trkpt><trkpt lat="44.3171758" lon="8.3839167"><ele>134.8</ele><time>2026-04-04T14:21:48.977Z</time></trkpt><trkpt lat="44.3170914" lon="8.3839914"><ele>133.2</ele><time>2026-04-04T14:21:49.978Z</time></trkpt><trkpt lat="44.3170076" lon="8.3840515"><ele>131.6</ele><time>2026-04-04T14:21:50.978Z</time></trkpt><trkpt lat="44.3169168" lon="8.3840951"><ele>130.0</ele><time>2026-04-04T14:21:51.978Z</time></trkpt><trkpt lat="44.3168252" lon="8.3841401"><ele>130.0</ele><time>2026-04-04T14:21:52.978Z</time></trkpt><trkpt lat="44.316745" lon="8.3842054"><ele>130.0</ele><time>2026-04-04T14:21:53.978Z</time></trkpt><trkpt lat="44.3166783" lon="8.3842956"><ele>130.0</ele><time>2026-04-04T14:21:54.978Z</time></trkpt><trkpt lat="44.3166322" lon="8.3844102"><ele>130.0</ele><time>2026-04-04T14:21:55.978Z</time></trkpt><trkpt lat="44.3166072" lon="8.3845393"><ele>130.0</ele><time>2026-04-04T14:21:56.978Z</time></trkpt><trkpt lat="44.3165921" lon="8.3846717"><ele>131.5</ele><time>2026-04-04T14:21:57.978Z</time></trkpt><trkpt lat="44.3165818" lon="8.384811"><ele>133.0</ele><time>2026-04-04T14:21:58.977Z</time></trkpt><trkpt lat="44.3166033" lon="8.3849647"><ele>134.5</ele><time>2026-04-04T14:21:59.977Z</time></trkpt><trkpt lat="44.3166513" lon="8.3851304"><ele>136.0</ele><time>2026-04-04T14:22:00.977Z</time></trkpt><trkpt lat="44.3167032" lon="8.3852809"><ele>136.0</ele><time>2026-04-04T14:22:01.977Z</time></trkpt><trkpt lat="44.3167384" lon="8.3854157"><ele>136.0</ele><time>2026-04-04T14:22:02.978Z</time></trkpt><trkpt lat="44.3167587" lon="8.3855437"><ele>136.0</ele><time>2026-04-04T14:22:03.977Z</time></trkpt><trkpt lat="44.316765" lon="8.3856648"><ele>136.0</ele><time>2026-04-04T14:22:04.978Z</time></trkpt><trkpt lat="44.3167665" lon="8.3857726"><ele>136.0</ele><time>2026-04-04T14:22:05.978Z</time></trkpt><trkpt lat="44.3167513" lon="8.3858737"><ele>136.0</ele><time>2026-04-04T14:22:06.978Z</time></trkpt><trkpt lat="44.3167242" lon="8.3859623"><ele>136.4</ele><time>2026-04-04T14:22:07.978Z</time></trkpt><trkpt lat="44.3166581" lon="8.3860926"><ele>136.8</ele><time>2026-04-04T14:22:09.978Z</time></trkpt><trkpt lat="44.3165954" lon="8.3861654"><ele>137.20000000000002</ele><time>2026-04-04T14:22:11.977Z</time></trkpt><trkpt lat="44.3165306" lon="8.3861728"><ele>137.6</ele><time>2026-04-04T14:22:13.977Z</time></trkpt><trkpt lat="44.316446" lon="8.3861955"><ele>138.0</ele><time>2026-04-04T14:22:15.978Z</time></trkpt><trkpt lat="44.3163404" lon="8.3862515"><ele>135.4</ele><time>2026-04-04T14:22:17.978Z</time></trkpt><trkpt lat="44.3162311" lon="8.3863094"><ele>132.8</ele><time>2026-04-04T14:22:19.978Z</time></trkpt><trkpt lat="44.3161234" lon="8.386334"><ele>130.2</ele><time>2026-04-04T14:22:21.978Z</time></trkpt><trkpt lat="44.3160235" lon="8.3863662"><ele>127.6</ele><time>2026-04-04T14:22:23.978Z</time></trkpt><trkpt lat="44.3159494" lon="8.3863944"><ele>125.0</ele><time>2026-04-04T14:22:25.978Z</time></trkpt><trkpt lat="44.3158772" lon="8.3864222"><ele>125.0</ele><time>2026-04-04T14:22:27.978Z</time></trkpt><trkpt lat="44.3158058" lon="8.386441"><ele>125.0</ele><time>2026-04-04T14:22:29.978Z</time></trkpt><trkpt lat="44.3157318" lon="8.386474"><ele>125.0</ele><time>2026-04-04T14:22:31.977Z</time></trkpt><trkpt lat="44.3156377" lon="8.386605"><ele>125.0</ele><time>2026-04-04T14:22:33.978Z</time></trkpt><trkpt lat="44.3155998" lon="8.3867073"><ele>125.0</ele><time>2026-04-04T14:22:34.977Z</time></trkpt><trkpt lat="44.3155696" lon="8.3868388"><ele>125.25</ele><time>2026-04-04T14:22:35.977Z</time></trkpt><trkpt lat="44.3155567" lon="8.3870128"><ele>125.5</ele><time>2026-04-04T14:22:36.978Z</time></trkpt><trkpt lat="44.3155426" lon="8.3871917"><ele>125.75</ele><time>2026-04-04T14:22:37.978Z</time></trkpt><trkpt lat="44.3155293" lon="8.3873553"><ele>126.0</ele><time>2026-04-04T14:22:38.977Z</time></trkpt><trkpt lat="44.3155212" lon="8.3874933"><ele>125.0</ele><time>2026-04-04T14:22:39.977Z</time></trkpt><trkpt lat="44.3155194" lon="8.3876174"><ele>124.0</ele><time>2026-04-04T14:22:40.978Z</time></trkpt><trkpt lat="44.3155289" lon="8.3877381"><ele>123.0</ele><time>2026-04-04T14:22:41.978Z</time></trkpt><trkpt lat="44.3155432" lon="8.387863"><ele>122.0</ele><time>2026-04-04T14:22:42.978Z</time></trkpt><trkpt lat="44.3155645" lon="8.3879775"><ele>121.0</ele><time>2026-04-04T14:22:43.978Z</time></trkpt><trkpt lat="44.3155854" lon="8.3880884"><ele>120.0</ele><time>2026-04-04T14:22:44.977Z</time></trkpt><trkpt lat="44.3155992" lon="8.388192"><ele>120.0</ele><time>2026-04-04T14:22:45.978Z</time></trkpt><trkpt lat="44.3156055" lon="8.3882989"><ele>120.0</ele><time>2026-04-04T14:22:46.978Z</time></trkpt><trkpt lat="44.3156037" lon="8.3884089"><ele>120.0</ele><time>2026-04-04T14:22:47.978Z</time></trkpt><trkpt lat="44.3155992" lon="8.3885245"><ele>120.0</ele><time>2026-04-04T14:22:48.977Z</time></trkpt><trkpt lat="44.3155962" lon="8.3886349"><ele>120.0</ele><time>2026-04-04T14:22:49.978Z</time></trkpt><trkpt lat="44.3155831" lon="8.3887239"><ele>120.0</ele><time>2026-04-04T14:22:50.978Z</time></trkpt><trkpt lat="44.3155353" lon="8.388837"><ele>119.16666666666667</ele><time>2026-04-04T14:22:52.978Z</time></trkpt><trkpt lat="44.3154554" lon="8.3888622"><ele>118.33333333333334</ele><time>2026-04-04T14:22:54.978Z</time></trkpt><trkpt lat="44.3153824" lon="8.3888988"><ele>117.5</ele><time>2026-04-04T14:22:56.978Z</time></trkpt><trkpt lat="44.3153242" lon="8.3890171"><ele>116.66666666666667</ele><time>2026-04-04T14:22:58.978Z</time></trkpt><trkpt lat="44.315299" lon="8.3891144"><ele>115.83333333333334</ele><time>2026-04-04T14:22:59.978Z</time></trkpt><trkpt lat="44.3152702" lon="8.3892352"><ele>115.0</ele><time>2026-04-04T14:23:00.978Z</time></trkpt><trkpt lat="44.3152389" lon="8.3893566"><ele>115.0</ele><time>2026-04-04T14:23:01.977Z</time></trkpt><trkpt lat="44.315197" lon="8.3894707"><ele>115.0</ele><time>2026-04-04T14:23:02.978Z</time></trkpt><trkpt lat="44.3151559" lon="8.3895758"><ele>115.0</ele><time>2026-04-04T14:23:03.977Z</time></trkpt><trkpt lat="44.3151098" lon="8.38968"><ele>115.0</ele><time>2026-04-04T14:23:04.978Z</time></trkpt><trkpt lat="44.3150377" lon="8.3897885"><ele>115.0</ele><time>2026-04-04T14:23:05.978Z</time></trkpt><trkpt lat="44.314952" lon="8.3899052"><ele>115.0</ele><time>2026-04-04T14:23:06.977Z</time></trkpt><trkpt lat="44.3148548" lon="8.3900233"><ele>115.0</ele><time>2026-04-04T14:23:07.977Z</time></trkpt><trkpt lat="44.3147543" lon="8.3901449"><ele>115.0</ele><time>2026-04-04T14:23:08.978Z</time></trkpt><trkpt lat="44.3146568" lon="8.3902686"><ele>115.0</ele><time>2026-04-04T14:23:09.978Z</time></trkpt><trkpt lat="44.3145543" lon="8.3903797"><ele>115.0</ele><time>2026-04-04T14:23:10.978Z</time></trkpt><trkpt lat="44.3144447" lon="8.3904828"><ele>115.0</ele><time>2026-04-04T14:23:11.978Z</time></trkpt><trkpt lat="44.3143339" lon="8.3905838"><ele>115.0</ele><time>2026-04-04T14:23:12.977Z</time></trkpt><trkpt lat="44.3142286" lon="8.3906901"><ele>115.0</ele><time>2026-04-04T14:23:13.978Z</time></trkpt><trkpt lat="44.3141344" lon="8.3908093"><ele>114.75</ele><time>2026-04-04T14:23:14.978Z</time></trkpt><trkpt lat="44.3140525" lon="8.3909497"><ele>114.5</ele><time>2026-04-04T14:23:15.978Z</time></trkpt><trkpt lat="44.3139779" lon="8.3911072"><ele>114.25</ele><time>2026-04-04T14:23:16.977Z</time></trkpt><trkpt lat="44.313884" lon="8.3912794"><ele>114.0</ele><time>2026-04-04T14:23:17.978Z</time></trkpt><trkpt lat="44.3138066" lon="8.3914642"><ele>114.0</ele><time>2026-04-04T14:23:18.978Z</time></trkpt><trkpt lat="44.3137393" lon="8.3916456"><ele>114.0</ele><time>2026-04-04T14:23:19.977Z</time></trkpt><trkpt lat="44.3136763" lon="8.3918121"><ele>114.0</ele><time>2026-04-04T14:23:20.977Z</time></trkpt><trkpt lat="44.3136231" lon="8.3919638"><ele>114.0</ele><time>2026-04-04T14:23:21.978Z</time></trkpt><trkpt lat="44.3135749" lon="8.3920993"><ele>110.2</ele><time>2026-04-04T14:23:22.978Z</time></trkpt><trkpt lat="44.3135274" lon="8.3922203"><ele>106.4</ele><time>2026-04-04T14:23:23.978Z</time></trkpt><trkpt lat="44.3134694" lon="8.3923255"><ele>102.6</ele><time>2026-04-04T14:23:24.978Z</time></trkpt><trkpt lat="44.3134028" lon="8.3924137"><ele>98.8</ele><time>2026-04-04T14:23:25.978Z</time></trkpt><trkpt lat="44.313318" lon="8.3924839"><ele>95.0</ele><time>2026-04-04T14:23:26.978Z</time></trkpt><trkpt lat="44.313222" lon="8.3925462"><ele>95.0</ele><time>2026-04-04T14:23:27.977Z</time></trkpt><trkpt lat="44.3131103" lon="8.3926007"><ele>95.0</ele><time>2026-04-04T14:23:28.977Z</time></trkpt><trkpt lat="44.3129948" lon="8.3926529"><ele>95.0</ele><time>2026-04-04T14:23:29.978Z</time></trkpt><trkpt lat="44.3128809" lon="8.3927047"><ele>95.0</ele><time>2026-04-04T14:23:30.978Z</time></trkpt><trkpt lat="44.3127633" lon="8.3927605"><ele>94.2</ele><time>2026-04-04T14:23:31.977Z</time></trkpt><trkpt lat="44.3126592" lon="8.3928187"><ele>93.4</ele><time>2026-04-04T14:23:32.978Z</time></trkpt><trkpt lat="44.3125693" lon="8.3928906"><ele>92.6</ele><time>2026-04-04T14:23:33.978Z</time></trkpt><trkpt lat="44.3124867" lon="8.392981"><ele>91.8</ele><time>2026-04-04T14:23:34.978Z</time></trkpt><trkpt lat="44.3124031" lon="8.3930903"><ele>91.0</ele><time>2026-04-04T14:23:35.978Z</time></trkpt><trkpt lat="44.3123201" lon="8.393218"><ele>91.0</ele><time>2026-04-04T14:23:36.977Z</time></trkpt><trkpt lat="44.3122452" lon="8.3933636"><ele>91.0</ele><time>2026-04-04T14:23:37.978Z</time></trkpt><trkpt lat="44.3121621" lon="8.3935018"><ele>91.0</ele><time>2026-04-04T14:23:38.978Z</time></trkpt><trkpt lat="44.3120824" lon="8.3936387"><ele>91.0</ele><time>2026-04-04T14:23:39.977Z</time></trkpt><trkpt lat="44.3120105" lon="8.3937755"><ele>93.25</ele><time>2026-04-04T14:23:40.978Z</time></trkpt><trkpt lat="44.3119548" lon="8.3939277"><ele>95.5</ele><time>2026-04-04T14:23:41.978Z</time></trkpt><trkpt lat="44.31189" lon="8.3940784"><ele>97.75</ele><time>2026-04-04T14:23:42.978Z</time></trkpt><trkpt lat="44.3118157" lon="8.3942169"><ele>100.0</ele><time>2026-04-04T14:23:43.978Z</time></trkpt><trkpt lat="44.3116966" lon="8.394357"><ele>100.0</ele><time>2026-04-04T14:23:44.978Z</time></trkpt><trkpt lat="44.3115907" lon="8.3945173"><ele>100.0</ele><time>2026-04-04T14:23:45.978Z</time></trkpt><trkpt lat="44.3114951" lon="8.3946902"><ele>100.0</ele><time>2026-04-04T14:23:46.978Z</time></trkpt><trkpt lat="44.3113987" lon="8.3948816"><ele>98.33333333333334</ele><time>2026-04-04T14:23:47.977Z</time></trkpt><trkpt lat="44.3113126" lon="8.3950879"><ele>96.66666666666667</ele><time>2026-04-04T14:23:48.978Z</time></trkpt><trkpt lat="44.3112128" lon="8.3952975"><ele>95.0</ele><time>2026-04-04T14:23:49.977Z</time></trkpt><trkpt lat="44.3111069" lon="8.3955112"><ele>95.0</ele><time>2026-04-04T14:23:50.978Z</time></trkpt><trkpt lat="44.3110023" lon="8.3957231"><ele>95.0</ele><time>2026-04-04T14:23:51.978Z</time></trkpt><trkpt lat="44.3109024" lon="8.3959218"><ele>95.0</ele><time>2026-04-04T14:23:52.978Z</time></trkpt><trkpt lat="44.3108198" lon="8.3961043"><ele>95.0</ele><time>2026-04-04T14:23:53.977Z</time></trkpt><trkpt lat="44.3107408" lon="8.3962672"><ele>95.0</ele><time>2026-04-04T14:23:54.978Z</time></trkpt><trkpt lat="44.3106619" lon="8.3964201"><ele>95.0</ele><time>2026-04-04T14:23:55.978Z</time></trkpt><trkpt lat="44.3105803" lon="8.3965677"><ele>95.0</ele><time>2026-04-04T14:23:56.978Z</time></trkpt><trkpt lat="44.3105041" lon="8.3967132"><ele>94.25</ele><time>2026-04-04T14:23:57.978Z</time></trkpt><trkpt lat="44.3104308" lon="8.3968541"><ele>93.5</ele><time>2026-04-04T14:23:58.978Z</time></trkpt><trkpt lat="44.310353" lon="8.3970084"><ele>92.75</ele><time>2026-04-04T14:23:59.978Z</time></trkpt><trkpt lat="44.3102775" lon="8.3971721"><ele>92.0</ele><time>2026-04-04T14:24:00.977Z</time></trkpt><trkpt lat="44.3102013" lon="8.3973306"><ele>92.0</ele><time>2026-04-04T14:24:01.978Z</time></trkpt><trkpt lat="44.3101218" lon="8.3974876"><ele>92.0</ele><time>2026-04-04T14:24:02.977Z</time></trkpt><trkpt lat="44.3100376" lon="8.3976415"><ele>92.0</ele><time>2026-04-04T14:24:03.978Z</time></trkpt><trkpt lat="44.3099494" lon="8.397783"><ele>92.0</ele><time>2026-04-04T14:24:04.977Z</time></trkpt><trkpt lat="44.3098653" lon="8.3979068"><ele>92.5</ele><time>2026-04-04T14:24:05.978Z</time></trkpt><trkpt lat="44.3097981" lon="8.3980045"><ele>93.0</ele><time>2026-04-04T14:24:06.977Z</time></trkpt><trkpt lat="44.3097417" lon="8.3980763"><ele>93.5</ele><time>2026-04-04T14:24:07.978Z</time></trkpt><trkpt lat="44.3096578" lon="8.3981459"><ele>94.0</ele><time>2026-04-04T14:24:09.978Z</time></trkpt><trkpt lat="44.309604" lon="8.3981978"><ele>94.5</ele><time>2026-04-04T14:24:12.978Z</time></trkpt><trkpt lat="44.3095556" lon="8.3982661"><ele>95.0</ele><time>2026-04-04T14:24:14.978Z</time></trkpt><trkpt lat="44.30952" lon="8.3983639"><ele>95.0</ele><time>2026-04-04T14:24:16.977Z</time></trkpt><trkpt lat="44.3095076" lon="8.3985185"><ele>95.0</ele><time>2026-04-04T14:24:18.978Z</time></trkpt><trkpt lat="44.3094964" lon="8.39862"><ele>95.0</ele><time>2026-04-04T14:24:19.978Z</time></trkpt><trkpt lat="44.3094816" lon="8.3987262"><ele>95.0</ele><time>2026-04-04T14:24:20.978Z</time></trkpt><trkpt lat="44.3094529" lon="8.3988306"><ele>95.0</ele><time>2026-04-04T14:24:21.978Z</time></trkpt><trkpt lat="44.3094152" lon="8.3989402"><ele>95.0</ele><time>2026-04-04T14:24:22.978Z</time></trkpt><trkpt lat="44.3093641" lon="8.3990496"><ele>93.2</ele><time>2026-04-04T14:24:23.978Z</time></trkpt><trkpt lat="44.3092986" lon="8.3991573"><ele>91.4</ele><time>2026-04-04T14:24:24.978Z</time></trkpt><trkpt lat="44.3092236" lon="8.3992588"><ele>89.6</ele><time>2026-04-04T14:24:25.978Z</time></trkpt><trkpt lat="44.3091448" lon="8.3993664"><ele>87.8</ele><time>2026-04-04T14:24:26.978Z</time></trkpt><trkpt lat="44.3090681" lon="8.3994873"><ele>86.0</ele><time>2026-04-04T14:24:27.977Z</time></trkpt><trkpt lat="44.3089959" lon="8.3996109"><ele>89.0</ele><time>2026-04-04T14:24:28.978Z</time></trkpt><trkpt lat="44.308925" lon="8.3997417"><ele>92.0</ele><time>2026-04-04T14:24:29.978Z</time></trkpt><trkpt lat="44.3088574" lon="8.399874"><ele>95.0</ele><time>2026-04-04T14:24:30.977Z</time></trkpt><trkpt lat="44.308787" lon="8.4000035"><ele>98.0</ele><time>2026-04-04T14:24:31.978Z</time></trkpt><trkpt lat="44.3087127" lon="8.4001305"><ele>98.0</ele><time>2026-04-04T14:24:32.977Z</time></trkpt><trkpt lat="44.3086293" lon="8.4002556"><ele>98.0</ele><time>2026-04-04T14:24:33.977Z</time></trkpt><trkpt lat="44.3085403" lon="8.4003739"><ele>98.0</ele><time>2026-04-04T14:24:34.977Z</time></trkpt><trkpt lat="44.3084607" lon="8.400491"><ele>98.0</ele><time>2026-04-04T14:24:35.978Z</time></trkpt><trkpt lat="44.3083904" lon="8.4006023"><ele>92.25</ele><time>2026-04-04T14:24:36.978Z</time></trkpt><trkpt lat="44.3083242" lon="8.4007231"><ele>86.5</ele><time>2026-04-04T14:24:37.978Z</time></trkpt><trkpt lat="44.3082611" lon="8.4008598"><ele>80.75</ele><time>2026-04-04T14:24:38.978Z</time></trkpt><trkpt lat="44.3081986" lon="8.4010153"><ele>75.0</ele><time>2026-04-04T14:24:39.978Z</time></trkpt><trkpt lat="44.30814" lon="8.4011911"><ele>73.0</ele><time>2026-04-04T14:24:40.978Z</time></trkpt><trkpt lat="44.30809" lon="8.4013691"><ele>71.0</ele><time>2026-04-04T14:24:41.977Z</time></trkpt><trkpt lat="44.3080564" lon="8.4015458"><ele>69.0</ele><time>2026-04-04T14:24:42.978Z</time></trkpt><trkpt lat="44.3080292" lon="8.401715"><ele>67.0</ele><time>2026-04-04T14:24:43.977Z</time></trkpt><trkpt lat="44.3080106" lon="8.4018804"><ele>72.5</ele><time>2026-04-04T14:24:44.978Z</time></trkpt><trkpt lat="44.3079853" lon="8.4020441"><ele>78.0</ele><time>2026-04-04T14:24:45.978Z</time></trkpt><trkpt lat="44.307948" lon="8.4022287"><ele>83.5</ele><time>2026-04-04T14:24:46.978Z</time></trkpt><trkpt lat="44.3079073" lon="8.4024147"><ele>89.0</ele><time>2026-04-04T14:24:47.978Z</time></trkpt><trkpt lat="44.3078706" lon="8.4025911"><ele>89.0</ele><time>2026-04-04T14:24:48.977Z</time></trkpt><trkpt lat="44.3078362" lon="8.40275"><ele>89.0</ele><time>2026-04-04T14:24:49.978Z</time></trkpt><trkpt lat="44.3078076" lon="8.4028941"><ele>89.0</ele><time>2026-04-04T14:24:50.978Z</time></trkpt><trkpt lat="44.3077798" lon="8.403025"><ele>89.0</ele><time>2026-04-04T14:24:51.978Z</time></trkpt><trkpt lat="44.307757" lon="8.4031437"><ele>89.0</ele><time>2026-04-04T14:24:52.977Z</time></trkpt><trkpt lat="44.3077264" lon="8.4032566"><ele>85.25</ele><time>2026-04-04T14:24:53.978Z</time></trkpt><trkpt lat="44.3076722" lon="8.4033741"><ele>81.5</ele><time>2026-04-04T14:24:54.977Z</time></trkpt><trkpt lat="44.307597" lon="8.4034988"><ele>77.75</ele><time>2026-04-04T14:24:55.978Z</time></trkpt><trkpt lat="44.3075111" lon="8.4036305"><ele>74.0</ele><time>2026-04-04T14:24:56.977Z</time></trkpt><trkpt lat="44.307427" lon="8.4037669"><ele>72.0</ele><time>2026-04-04T14:24:57.978Z</time></trkpt><trkpt lat="44.3073387" lon="8.4039158"><ele>70.0</ele><time>2026-04-04T14:24:58.978Z</time></trkpt><trkpt lat="44.3072541" lon="8.4040779"><ele>68.0</ele><time>2026-04-04T14:24:59.978Z</time></trkpt><trkpt lat="44.3071728" lon="8.4042518"><ele>66.0</ele><time>2026-04-04T14:25:00.977Z</time></trkpt><trkpt lat="44.3070917" lon="8.4044314"><ele>64.66666666666667</ele><time>2026-04-04T14:25:01.978Z</time></trkpt><trkpt lat="44.3070005" lon="8.4046158"><ele>63.333333333333336</ele><time>2026-04-04T14:25:02.977Z</time></trkpt><trkpt lat="44.306905" lon="8.4048034"><ele>62.0</ele><time>2026-04-04T14:25:03.978Z</time></trkpt><trkpt lat="44.3068222" lon="8.4049832"><ele>62.0</ele><time>2026-04-04T14:25:04.978Z</time></trkpt><trkpt lat="44.3067428" lon="8.4051601"><ele>62.0</ele><time>2026-04-04T14:25:05.978Z</time></trkpt><trkpt lat="44.3066526" lon="8.4053263"><ele>62.0</ele><time>2026-04-04T14:25:06.978Z</time></trkpt><trkpt lat="44.3065634" lon="8.4054949"><ele>62.0</ele><time>2026-04-04T14:25:07.978Z</time></trkpt><trkpt lat="44.3064804" lon="8.4056616"><ele>67.5</ele><time>2026-04-04T14:25:08.978Z</time></trkpt><trkpt lat="44.3063987" lon="8.4058352"><ele>73.0</ele><time>2026-04-04T14:25:09.977Z</time></trkpt><trkpt lat="44.30633" lon="8.4060034"><ele>78.5</ele><time>2026-04-04T14:25:10.978Z</time></trkpt><trkpt lat="44.3062681" lon="8.4061521"><ele>84.0</ele><time>2026-04-04T14:25:11.978Z</time></trkpt><trkpt lat="44.3061972" lon="8.4062824"><ele>79.25</ele><time>2026-04-04T14:25:12.978Z</time></trkpt><trkpt lat="44.306116" lon="8.4064085"><ele>74.5</ele><time>2026-04-04T14:25:13.978Z</time></trkpt><trkpt lat="44.3060305" lon="8.4065316"><ele>69.75</ele><time>2026-04-04T14:25:14.977Z</time></trkpt><trkpt lat="44.3059476" lon="8.4066608"><ele>65.0</ele><time>2026-04-04T14:25:15.978Z</time></trkpt><trkpt lat="44.305869" lon="8.4067983"><ele>65.0</ele><time>2026-04-04T14:25:16.977Z</time></trkpt><trkpt lat="44.3057877" lon="8.4069386"><ele>65.0</ele><time>2026-04-04T14:25:17.978Z</time></trkpt><trkpt lat="44.3057185" lon="8.4070701"><ele>65.0</ele><time>2026-04-04T14:25:18.977Z</time></trkpt><trkpt lat="44.3056608" lon="8.4072147"><ele>65.0</ele><time>2026-04-04T14:25:19.978Z</time></trkpt><trkpt lat="44.3056101" lon="8.407365"><ele>63.4</ele><time>2026-04-04T14:25:20.978Z</time></trkpt><trkpt lat="44.3055606" lon="8.407514"><ele>61.8</ele><time>2026-04-04T14:25:21.977Z</time></trkpt><trkpt lat="44.3055125" lon="8.4076486"><ele>60.2</ele><time>2026-04-04T14:25:22.978Z</time></trkpt><trkpt lat="44.3054562" lon="8.4077852"><ele>58.6</ele><time>2026-04-04T14:25:23.977Z</time></trkpt><trkpt lat="44.3053966" lon="8.4079031"><ele>57.0</ele><time>2026-04-04T14:25:24.978Z</time></trkpt><trkpt lat="44.3053391" lon="8.4080063"><ele>57.0</ele><time>2026-04-04T14:25:25.978Z</time></trkpt><trkpt lat="44.3052803" lon="8.4081133"><ele>57.0</ele><time>2026-04-04T14:25:26.977Z</time></trkpt><trkpt lat="44.3052263" lon="8.4082194"><ele>57.0</ele><time>2026-04-04T14:25:27.977Z</time></trkpt><trkpt lat="44.305177" lon="8.4083196"><ele>57.0</ele><time>2026-04-04T14:25:28.978Z</time></trkpt><trkpt lat="44.305127" lon="8.4084114"><ele>57.0</ele><time>2026-04-04T14:25:29.976Z</time></trkpt><trkpt lat="44.3050673" lon="8.4084981"><ele>57.0</ele><time>2026-04-04T14:25:30.978Z</time></trkpt><trkpt lat="44.3050041" lon="8.408566"><ele>57.0</ele><time>2026-04-04T14:25:31.978Z</time></trkpt><trkpt lat="44.3049432" lon="8.408625"><ele>57.0</ele><time>2026-04-04T14:25:32.978Z</time></trkpt><trkpt lat="44.3048836" lon="8.4086867"><ele>57.0</ele><time>2026-04-04T14:25:33.977Z</time></trkpt><trkpt lat="44.3048269" lon="8.4087587"><ele>57.0</ele><time>2026-04-04T14:25:34.978Z</time></trkpt><trkpt lat="44.3047735" lon="8.4088398"><ele>57.0</ele><time>2026-04-04T14:25:35.977Z</time></trkpt><trkpt lat="44.3047232" lon="8.4089205"><ele>57.0</ele><time>2026-04-04T14:25:36.978Z</time></trkpt><trkpt lat="44.304675" lon="8.4089982"><ele>59.857142857142854</ele><time>2026-04-04T14:25:37.978Z</time></trkpt><trkpt lat="44.3046348" lon="8.4090752"><ele>62.71428571428571</ele><time>2026-04-04T14:25:38.978Z</time></trkpt><trkpt lat="44.3046003" lon="8.4091557"><ele>65.57142857142857</ele><time>2026-04-04T14:25:39.978Z</time></trkpt><trkpt lat="44.3045672" lon="8.4092349"><ele>68.42857142857143</ele><time>2026-04-04T14:25:40.978Z</time></trkpt><trkpt lat="44.3045515" lon="8.4093284"><ele>71.28571428571428</ele><time>2026-04-04T14:25:41.978Z</time></trkpt><trkpt lat="44.3045329" lon="8.4094349"><ele>74.14285714285714</ele><time>2026-04-04T14:25:42.978Z</time></trkpt><trkpt lat="44.304509" lon="8.4095456"><ele>77.0</ele><time>2026-04-04T14:25:43.977Z</time></trkpt><trkpt lat="44.3044762" lon="8.4096556"><ele>74.4</ele><time>2026-04-04T14:25:44.978Z</time></trkpt><trkpt lat="44.3044296" lon="8.4097624"><ele>71.80000000000001</ele><time>2026-04-04T14:25:45.978Z</time></trkpt><trkpt lat="44.3043696" lon="8.4098709"><ele>69.2</ele><time>2026-04-04T14:25:46.978Z</time></trkpt><trkpt lat="44.3043048" lon="8.4099793"><ele>66.60000000000001</ele><time>2026-04-04T14:25:47.978Z</time></trkpt><trkpt lat="44.3042347" lon="8.4100846"><ele>64.0</ele><time>2026-04-04T14:25:48.977Z</time></trkpt><trkpt lat="44.3041624" lon="8.4101844"><ele>63.99999999999999</ele><time>2026-04-04T14:25:49.978Z</time></trkpt><trkpt lat="44.3040901" lon="8.410272"><ele>64.0</ele><time>2026-04-04T14:25:50.978Z</time></trkpt><trkpt lat="44.3040198" lon="8.4103541"><ele>64.0</ele><time>2026-04-04T14:25:51.978Z</time></trkpt><trkpt lat="44.3039581" lon="8.4104328"><ele>64.0</ele><time>2026-04-04T14:25:52.978Z</time></trkpt><trkpt lat="44.3039014" lon="8.4105108"><ele>63.99999999999999</ele><time>2026-04-04T14:25:53.978Z</time></trkpt><trkpt lat="44.3038479" lon="8.4105949"><ele>64.0</ele><time>2026-04-04T14:25:54.978Z</time></trkpt><trkpt lat="44.3037967" lon="8.410677"><ele>61.800000000000004</ele><time>2026-04-04T14:25:55.978Z</time></trkpt><trkpt lat="44.3037536" lon="8.4107508"><ele>59.60000000000001</ele><time>2026-04-04T14:25:56.976Z</time></trkpt><trkpt lat="44.3037009" lon="8.4108793"><ele>57.4</ele><time>2026-04-04T14:25:58.976Z</time></trkpt><trkpt lat="44.3037373" lon="8.4109858"><ele>55.2</ele><time>2026-04-04T14:26:00.977Z</time></trkpt><trkpt lat="44.3038149" lon="8.4110963"><ele>53.0</ele><time>2026-04-04T14:26:02.977Z</time></trkpt><trkpt lat="44.3038396" lon="8.4112334"><ele>53.0</ele><time>2026-04-04T14:26:04.977Z</time></trkpt><trkpt lat="44.3037768" lon="8.4112945"><ele>53.0</ele><time>2026-04-04T14:26:05.977Z</time></trkpt><trkpt lat="44.3037005" lon="8.4113548"><ele>53.0</ele><time>2026-04-04T14:26:06.976Z</time></trkpt><trkpt lat="44.3036077" lon="8.4114258"><ele>53.0</ele><time>2026-04-04T14:26:07.976Z</time></trkpt><trkpt lat="44.3035102" lon="8.4115106"><ele>53.0</ele><time>2026-04-04T14:26:08.976Z</time></trkpt><trkpt lat="44.3034082" lon="8.4115881"><ele>56.0</ele><time>2026-04-04T14:26:09.977Z</time></trkpt><trkpt lat="44.3033049" lon="8.4116504"><ele>59.0</ele><time>2026-04-04T14:26:10.977Z</time></trkpt><trkpt lat="44.3031917" lon="8.411687"><ele>62.0</ele><time>2026-04-04T14:26:11.976Z</time></trkpt><trkpt lat="44.3030759" lon="8.4116913"><ele>65.0</ele><time>2026-04-04T14:26:12.976Z</time></trkpt><trkpt lat="44.3029538" lon="8.411642"><ele>68.5</ele><time>2026-04-04T14:26:13.977Z</time></trkpt><trkpt lat="44.3028343" lon="8.4115555"><ele>72.0</ele><time>2026-04-04T14:26:14.977Z</time></trkpt><trkpt lat="44.3027292" lon="8.4114575"><ele>75.5</ele><time>2026-04-04T14:26:15.977Z</time></trkpt><trkpt lat="44.3026463" lon="8.4113426"><ele>79.0</ele><time>2026-04-04T14:26:16.976Z</time></trkpt><trkpt lat="44.3025813" lon="8.4112184"><ele>74.16666666666666</ele><time>2026-04-04T14:26:17.977Z</time></trkpt><trkpt lat="44.3025323" lon="8.4111053"><ele>69.33333333333333</ele><time>2026-04-04T14:26:18.976Z</time></trkpt><trkpt lat="44.3024866" lon="8.4110162"><ele>64.5</ele><time>2026-04-04T14:26:19.976Z</time></trkpt><trkpt lat="44.3024093" lon="8.4108688"><ele>59.66666666666667</ele><time>2026-04-04T14:26:21.977Z</time></trkpt><trkpt lat="44.3023663" lon="8.4107881"><ele>54.833333333333336</ele><time>2026-04-04T14:26:22.977Z</time></trkpt><trkpt lat="44.3023193" lon="8.4107095"><ele>50.0</ele><time>2026-04-04T14:26:23.977Z</time></trkpt><trkpt lat="44.3022603" lon="8.4106387"><ele>49.00000000000001</ele><time>2026-04-04T14:26:24.976Z</time></trkpt><trkpt lat="44.3022104" lon="8.4105575"><ele>48.0</ele><time>2026-04-04T14:26:25.977Z</time></trkpt><trkpt lat="44.3021525" lon="8.4104694"><ele>47.0</ele><time>2026-04-04T14:26:26.977Z</time></trkpt><trkpt lat="44.3020895" lon="8.4103806"><ele>46.0</ele><time>2026-04-04T14:26:27.977Z</time></trkpt><trkpt lat="44.3020177" lon="8.4103001"><ele>45.0</ele><time>2026-04-04T14:26:28.976Z</time></trkpt><trkpt lat="44.3019387" lon="8.4102379"><ele>44.0</ele><time>2026-04-04T14:26:29.976Z</time></trkpt><trkpt lat="44.3018565" lon="8.4101996"><ele>44.0</ele><time>2026-04-04T14:26:30.976Z</time></trkpt><trkpt lat="44.3017713" lon="8.4101737"><ele>44.0</ele><time>2026-04-04T14:26:31.976Z</time></trkpt><trkpt lat="44.3016921" lon="8.4101559"><ele>44.0</ele><time>2026-04-04T14:26:32.977Z</time></trkpt><trkpt lat="44.3016162" lon="8.4101386"><ele>44.0</ele><time>2026-04-04T14:26:33.977Z</time></trkpt><trkpt lat="44.301541" lon="8.4101213"><ele>44.0</ele><time>2026-04-04T14:26:34.977Z</time></trkpt><trkpt lat="44.3014646" lon="8.4100994"><ele>44.0</ele><time>2026-04-04T14:26:35.977Z</time></trkpt><trkpt lat="44.301383" lon="8.4100726"><ele>43.0</ele><time>2026-04-04T14:26:36.977Z</time></trkpt><trkpt lat="44.3012987" lon="8.4100447"><ele>42.0</ele><time>2026-04-04T14:26:37.977Z</time></trkpt><trkpt lat="44.301216" lon="8.4100223"><ele>41.0</ele><time>2026-04-04T14:26:38.977Z</time></trkpt><trkpt lat="44.3011208" lon="8.4100039"><ele>40.0</ele><time>2026-04-04T14:26:39.977Z</time></trkpt><trkpt lat="44.3010207" lon="8.4099901"><ele>39.0</ele><time>2026-04-04T14:26:40.977Z</time></trkpt><trkpt lat="44.3009207" lon="8.4099808"><ele>39.0</ele><time>2026-04-04T14:26:41.977Z</time></trkpt><trkpt lat="44.3008214" lon="8.409986"><ele>39.0</ele><time>2026-04-04T14:26:42.977Z</time></trkpt><trkpt lat="44.3007237" lon="8.4100055"><ele>39.0</ele><time>2026-04-04T14:26:43.977Z</time></trkpt><trkpt lat="44.3006266" lon="8.4100351"><ele>39.0</ele><time>2026-04-04T14:26:44.976Z</time></trkpt><trkpt lat="44.3005271" lon="8.4100608"><ele>39.0</ele><time>2026-04-04T14:26:45.977Z</time></trkpt><trkpt lat="44.3004248" lon="8.4100769"><ele>38.166666666666664</ele><time>2026-04-04T14:26:46.976Z</time></trkpt><trkpt lat="44.3003262" lon="8.4100889"><ele>37.333333333333336</ele><time>2026-04-04T14:26:47.977Z</time></trkpt><trkpt lat="44.3002336" lon="8.410097"><ele>36.5</ele><time>2026-04-04T14:26:48.977Z</time></trkpt><trkpt lat="44.3001478" lon="8.4100977"><ele>35.66666666666667</ele><time>2026-04-04T14:26:49.977Z</time></trkpt><trkpt lat="44.3000709" lon="8.4101078"><ele>34.833333333333336</ele><time>2026-04-04T14:26:50.977Z</time></trkpt><trkpt lat="44.2999985" lon="8.4101435"><ele>34.0</ele><time>2026-04-04T14:26:51.977Z</time></trkpt><trkpt lat="44.2999373" lon="8.4102168"><ele>34.0</ele><time>2026-04-04T14:26:52.976Z</time></trkpt><trkpt lat="44.2998832" lon="8.4103231"><ele>34.0</ele><time>2026-04-04T14:26:53.977Z</time></trkpt><trkpt lat="44.2998407" lon="8.4104561"><ele>34.0</ele><time>2026-04-04T14:26:54.977Z</time></trkpt><trkpt lat="44.2997971" lon="8.410594"><ele>34.0</ele><time>2026-04-04T14:26:55.977Z</time></trkpt><trkpt lat="44.2997503" lon="8.4107257"><ele>34.0</ele><time>2026-04-04T14:26:56.976Z</time></trkpt><trkpt lat="44.2997054" lon="8.4108535"><ele>34.2</ele><time>2026-04-04T14:26:57.977Z</time></trkpt><trkpt lat="44.2996607" lon="8.4109855"><ele>34.4</ele><time>2026-04-04T14:26:58.977Z</time></trkpt><trkpt lat="44.2996106" lon="8.4111262"><ele>34.6</ele><time>2026-04-04T14:26:59.977Z</time></trkpt><trkpt lat="44.2995562" lon="8.4112697"><ele>34.8</ele><time>2026-04-04T14:27:00.976Z</time></trkpt><trkpt lat="44.2994934" lon="8.4114042"><ele>35.0</ele><time>2026-04-04T14:27:01.976Z</time></trkpt><trkpt lat="44.2994255" lon="8.4115193"><ele>35.6</ele><time>2026-04-04T14:27:02.977Z</time></trkpt><trkpt lat="44.2993487" lon="8.4116077"><ele>36.2</ele><time>2026-04-04T14:27:03.977Z</time></trkpt><trkpt lat="44.2992674" lon="8.4116688"><ele>36.8</ele><time>2026-04-04T14:27:04.977Z</time></trkpt><trkpt lat="44.2991724" lon="8.4116911"><ele>37.4</ele><time>2026-04-04T14:27:05.977Z</time></trkpt><trkpt lat="44.299062" lon="8.411678"><ele>38.0</ele><time>2026-04-04T14:27:06.976Z</time></trkpt><trkpt lat="44.29893" lon="8.411637"><ele>36.25</ele><time>2026-04-04T14:27:07.976Z</time></trkpt><trkpt lat="44.2988046" lon="8.4116012"><ele>34.5</ele><time>2026-04-04T14:27:08.977Z</time></trkpt><trkpt lat="44.2986806" lon="8.4115632"><ele>32.75</ele><time>2026-04-04T14:27:09.977Z</time></trkpt><trkpt lat="44.2985587" lon="8.411541"><ele>31.0</ele><time>2026-04-04T14:27:10.977Z</time></trkpt><trkpt lat="44.2984364" lon="8.4115473"><ele>31.0</ele><time>2026-04-04T14:27:11.976Z</time></trkpt><trkpt lat="44.2983261" lon="8.4115927"><ele>31.0</ele><time>2026-04-04T14:27:12.976Z</time></trkpt><trkpt lat="44.2982263" lon="8.4116675"><ele>31.0</ele><time>2026-04-04T14:27:13.976Z</time></trkpt><trkpt lat="44.2981428" lon="8.4117769"><ele>31.0</ele><time>2026-04-04T14:27:14.977Z</time></trkpt><trkpt lat="44.2980801" lon="8.4119028"><ele>32.0</ele><time>2026-04-04T14:27:15.977Z</time></trkpt><trkpt lat="44.298035" lon="8.4120529"><ele>33.0</ele><time>2026-04-04T14:27:16.977Z</time></trkpt><trkpt lat="44.2980006" lon="8.4122239"><ele>34.0</ele><time>2026-04-04T14:27:17.976Z</time></trkpt><trkpt lat="44.2979683" lon="8.4124032"><ele>35.0</ele><time>2026-04-04T14:27:18.976Z</time></trkpt><trkpt lat="44.2979371" lon="8.4125817"><ele>35.0</ele><time>2026-04-04T14:27:19.977Z</time></trkpt><trkpt lat="44.2979076" lon="8.4127581"><ele>35.0</ele><time>2026-04-04T14:27:20.977Z</time></trkpt><trkpt lat="44.2978748" lon="8.4129337"><ele>35.0</ele><time>2026-04-04T14:27:21.977Z</time></trkpt><trkpt lat="44.2978337" lon="8.4131089"><ele>35.0</ele><time>2026-04-04T14:27:22.976Z</time></trkpt><trkpt lat="44.297794" lon="8.4132764"><ele>33.75</ele><time>2026-04-04T14:27:23.977Z</time></trkpt><trkpt lat="44.2977621" lon="8.4134382"><ele>32.5</ele><time>2026-04-04T14:27:24.977Z</time></trkpt><trkpt lat="44.2977357" lon="8.41361"><ele>31.25</ele><time>2026-04-04T14:27:25.976Z</time></trkpt><trkpt lat="44.2977146" lon="8.4137813"><ele>30.0</ele><time>2026-04-04T14:27:26.977Z</time></trkpt><trkpt lat="44.2976839" lon="8.4139448"><ele>30.0</ele><time>2026-04-04T14:27:27.976Z</time></trkpt><trkpt lat="44.2976357" lon="8.4141035"><ele>30.0</ele><time>2026-04-04T14:27:28.977Z</time></trkpt><trkpt lat="44.2975739" lon="8.4142492"><ele>30.0</ele><time>2026-04-04T14:27:29.976Z</time></trkpt><trkpt lat="44.2975011" lon="8.4143848"><ele>30.0</ele><time>2026-04-04T14:27:30.977Z</time></trkpt><trkpt lat="44.2974219" lon="8.4145154"><ele>30.0</ele><time>2026-04-04T14:27:31.977Z</time></trkpt><trkpt lat="44.2973393" lon="8.4146323"><ele>30.0</ele><time>2026-04-04T14:27:32.977Z</time></trkpt><trkpt lat="44.2972482" lon="8.4147297"><ele>30.0</ele><time>2026-04-04T14:27:33.976Z</time></trkpt><trkpt lat="44.2971527" lon="8.4148102"><ele>30.0</ele><time>2026-04-04T14:27:34.976Z</time></trkpt><trkpt lat="44.2970511" lon="8.4148753"><ele>28.75</ele><time>2026-04-04T14:27:35.976Z</time></trkpt><trkpt lat="44.2969436" lon="8.414934"><ele>27.5</ele><time>2026-04-04T14:27:36.977Z</time></trkpt><trkpt lat="44.2968316" lon="8.4149879"><ele>26.25</ele><time>2026-04-04T14:27:37.976Z</time></trkpt><trkpt lat="44.2967236" lon="8.4150482"><ele>25.0</ele><time>2026-04-04T14:27:38.977Z</time></trkpt><trkpt lat="44.2966124" lon="8.4151088"><ele>25.0</ele><time>2026-04-04T14:27:39.977Z</time></trkpt><trkpt lat="44.2964946" lon="8.4151697"><ele>25.0</ele><time>2026-04-04T14:27:40.977Z</time></trkpt><trkpt lat="44.2963863" lon="8.4152327"><ele>25.0</ele><time>2026-04-04T14:27:41.977Z</time></trkpt><trkpt lat="44.2962746" lon="8.4152985"><ele>25.0</ele><time>2026-04-04T14:27:42.977Z</time></trkpt><trkpt lat="44.2961604" lon="8.4153588"><ele>24.5</ele><time>2026-04-04T14:27:43.977Z</time></trkpt><trkpt lat="44.2960479" lon="8.4154111"><ele>24.0</ele><time>2026-04-04T14:27:44.977Z</time></trkpt><trkpt lat="44.2959334" lon="8.4154444"><ele>23.5</ele><time>2026-04-04T14:27:45.977Z</time></trkpt><trkpt lat="44.2958144" lon="8.4154519"><ele>23.0</ele><time>2026-04-04T14:27:46.976Z</time></trkpt><trkpt lat="44.2957007" lon="8.4154267"><ele>23.0</ele><time>2026-04-04T14:27:47.976Z</time></trkpt><trkpt lat="44.2955871" lon="8.4153725"><ele>23.0</ele><time>2026-04-04T14:27:48.976Z</time></trkpt><trkpt lat="44.2954842" lon="8.4153109"><ele>23.0</ele><time>2026-04-04T14:27:49.977Z</time></trkpt><trkpt lat="44.2953597" lon="8.4152541"><ele>23.0</ele><time>2026-04-04T14:27:50.976Z</time></trkpt><trkpt lat="44.2952409" lon="8.4152154"><ele>23.0</ele><time>2026-04-04T14:27:51.976Z</time></trkpt><trkpt lat="44.2951106" lon="8.4151884"><ele>23.0</ele><time>2026-04-04T14:27:52.977Z</time></trkpt><trkpt lat="44.2949749" lon="8.4151708"><ele>23.0</ele><time>2026-04-04T14:27:53.976Z</time></trkpt><trkpt lat="44.2948367" lon="8.4151624"><ele>23.0</ele><time>2026-04-04T14:27:54.977Z</time></trkpt><trkpt lat="44.2947028" lon="8.4151634"><ele>23.25</ele><time>2026-04-04T14:27:55.977Z</time></trkpt><trkpt lat="44.2945702" lon="8.4151722"><ele>23.5</ele><time>2026-04-04T14:27:56.976Z</time></trkpt><trkpt lat="44.2944482" lon="8.4151878"><ele>23.75</ele><time>2026-04-04T14:27:57.976Z</time></trkpt><trkpt lat="44.2943411" lon="8.4152132"><ele>24.0</ele><time>2026-04-04T14:27:58.977Z</time></trkpt><trkpt lat="44.294239" lon="8.4152584"><ele>24.0</ele><time>2026-04-04T14:27:59.976Z</time></trkpt><trkpt lat="44.2941427" lon="8.4153359"><ele>24.0</ele><time>2026-04-04T14:28:00.977Z</time></trkpt><trkpt lat="44.2940629" lon="8.4154509"><ele>24.0</ele><time>2026-04-04T14:28:01.976Z</time></trkpt><trkpt lat="44.2939961" lon="8.4155918"><ele>24.0</ele><time>2026-04-04T14:28:02.976Z</time></trkpt><trkpt lat="44.2939344" lon="8.415752"><ele>23.75</ele><time>2026-04-04T14:28:03.977Z</time></trkpt><trkpt lat="44.2938764" lon="8.4159168"><ele>23.5</ele><time>2026-04-04T14:28:04.977Z</time></trkpt><trkpt lat="44.2938213" lon="8.4160759"><ele>23.25</ele><time>2026-04-04T14:28:05.977Z</time></trkpt><trkpt lat="44.2937692" lon="8.4162329"><ele>23.0</ele><time>2026-04-04T14:28:06.977Z</time></trkpt><trkpt lat="44.2937144" lon="8.4163826"><ele>22.75</ele><time>2026-04-04T14:28:07.977Z</time></trkpt><trkpt lat="44.2936405" lon="8.4165163"><ele>22.5</ele><time>2026-04-04T14:28:08.977Z</time></trkpt><trkpt lat="44.293556" lon="8.4166442"><ele>22.25</ele><time>2026-04-04T14:28:09.976Z</time></trkpt><trkpt lat="44.2934764" lon="8.4167767"><ele>22.0</ele><time>2026-04-04T14:28:10.976Z</time></trkpt><trkpt lat="44.2933959" lon="8.4169145"><ele>22.0</ele><time>2026-04-04T14:28:11.977Z</time></trkpt><trkpt lat="44.2933141" lon="8.4170523"><ele>22.0</ele><time>2026-04-04T14:28:12.977Z</time></trkpt><trkpt lat="44.2932336" lon="8.4171796"><ele>22.0</ele><time>2026-04-04T14:28:13.977Z</time></trkpt><trkpt lat="44.2931494" lon="8.4172984"><ele>22.0</ele><time>2026-04-04T14:28:14.976Z</time></trkpt><trkpt lat="44.2930533" lon="8.417393"><ele>21.5</ele><time>2026-04-04T14:28:15.977Z</time></trkpt><trkpt lat="44.2929489" lon="8.4174757"><ele>21.0</ele><time>2026-04-04T14:28:16.977Z</time></trkpt><trkpt lat="44.2928483" lon="8.4175415"><ele>20.5</ele><time>2026-04-04T14:28:17.977Z</time></trkpt><trkpt lat="44.2927457" lon="8.4175896"><ele>20.0</ele><time>2026-04-04T14:28:18.976Z</time></trkpt><trkpt lat="44.2926332" lon="8.4176263"><ele>20.0</ele><time>2026-04-04T14:28:19.977Z</time></trkpt><trkpt lat="44.2925241" lon="8.4176498"><ele>20.0</ele><time>2026-04-04T14:28:20.977Z</time></trkpt><trkpt lat="44.2924016" lon="8.4176573"><ele>20.0</ele><time>2026-04-04T14:28:21.977Z</time></trkpt><trkpt lat="44.2922831" lon="8.4176497"><ele>20.0</ele><time>2026-04-04T14:28:22.976Z</time></trkpt><trkpt lat="44.2921712" lon="8.4176334"><ele>19.833333333333336</ele><time>2026-04-04T14:28:23.976Z</time></trkpt><trkpt lat="44.292068" lon="8.4176174"><ele>19.666666666666668</ele><time>2026-04-04T14:28:24.977Z</time></trkpt><trkpt lat="44.2919726" lon="8.417602"><ele>19.5</ele><time>2026-04-04T14:28:25.977Z</time></trkpt><trkpt lat="44.2918908" lon="8.4175878"><ele>19.333333333333332</ele><time>2026-04-04T14:28:26.977Z</time></trkpt><trkpt lat="44.2918267" lon="8.4175751"><ele>19.166666666666664</ele><time>2026-04-04T14:28:27.977Z</time></trkpt><trkpt lat="44.2917562" lon="8.417559"><ele>19.0</ele><time>2026-04-04T14:28:29.977Z</time></trkpt><trkpt lat="44.2916617" lon="8.4175383"><ele>19.0</ele><time>2026-04-04T14:29:08.976Z</time></trkpt><trkpt lat="44.2915933" lon="8.41755"><ele>19.0</ele><time>2026-04-04T14:29:10.976Z</time></trkpt><trkpt lat="44.29151" lon="8.417645"><ele>19.0</ele><time>2026-04-04T14:29:12.977Z</time></trkpt><trkpt lat="44.2914783" lon="8.4177833"><ele>19.0</ele><time>2026-04-04T14:29:13.977Z</time></trkpt><trkpt lat="44.2914467" lon="8.41796"><ele>19.0</ele><time>2026-04-04T14:29:14.977Z</time></trkpt><trkpt lat="44.2913967" lon="8.4181483"><ele>18.0</ele><time>2026-04-04T14:29:15.976Z</time></trkpt><trkpt lat="44.2913383" lon="8.4183383"><ele>17.0</ele><time>2026-04-04T14:29:16.977Z</time></trkpt><trkpt lat="44.291265" lon="8.418535"><ele>16.0</ele><time>2026-04-04T14:29:17.977Z</time></trkpt><trkpt lat="44.2911817" lon="8.4187467"><ele>16.0</ele><time>2026-04-04T14:29:18.976Z</time></trkpt><trkpt lat="44.29108" lon="8.4189583"><ele>16.0</ele><time>2026-04-04T14:29:19.977Z</time></trkpt><trkpt lat="44.2909583" lon="8.41918"><ele>16.0</ele><time>2026-04-04T14:29:20.977Z</time></trkpt><trkpt lat="44.290845" lon="8.419405"><ele>16.0</ele><time>2026-04-04T14:29:21.977Z</time></trkpt><trkpt lat="44.29072" lon="8.4196367"><ele>16.0</ele><time>2026-04-04T14:29:22.976Z</time></trkpt><trkpt lat="44.2905933" lon="8.4198767"><ele>16.0</ele><time>2026-04-04T14:29:23.976Z</time></trkpt><trkpt lat="44.29047" lon="8.4201217"><ele>15.666666666666666</ele><time>2026-04-04T14:29:24.977Z</time></trkpt><trkpt lat="44.290355" lon="8.420375"><ele>15.333333333333332</ele><time>2026-04-04T14:29:25.977Z</time></trkpt><trkpt lat="44.29025" lon="8.42064"><ele>15.0</ele><time>2026-04-04T14:29:26.976Z</time></trkpt><trkpt lat="44.2901567" lon="8.4209067"><ele>15.0</ele><time>2026-04-04T14:29:27.977Z</time></trkpt><trkpt lat="44.2900683" lon="8.4211683"><ele>15.0</ele><time>2026-04-04T14:29:28.977Z</time></trkpt><trkpt lat="44.2899867" lon="8.4214183"><ele>15.0</ele><time>2026-04-04T14:29:29.976Z</time></trkpt><trkpt lat="44.2899117" lon="8.4216567"><ele>14.666666666666668</ele><time>2026-04-04T14:29:30.977Z</time></trkpt><trkpt lat="44.289845" lon="8.4218917"><ele>14.333333333333334</ele><time>2026-04-04T14:29:31.977Z</time></trkpt><trkpt lat="44.28978" lon="8.42212"><ele>14.0</ele><time>2026-04-04T14:29:32.977Z</time></trkpt><trkpt lat="44.2897117" lon="8.422345"><ele>14.0</ele><time>2026-04-04T14:29:33.976Z</time></trkpt><trkpt lat="44.289645" lon="8.42255"><ele>14.0</ele><time>2026-04-04T14:29:34.977Z</time></trkpt><trkpt lat="44.289585" lon="8.4227583"><ele>14.0</ele><time>2026-04-04T14:29:35.976Z</time></trkpt><trkpt lat="44.2895233" lon="8.4229667"><ele>14.666666666666668</ele><time>2026-04-04T14:29:36.977Z</time></trkpt><trkpt lat="44.2894533" lon="8.42318"><ele>15.333333333333332</ele><time>2026-04-04T14:29:37.976Z</time></trkpt><trkpt lat="44.2893883" lon="8.4233883"><ele>16.0</ele><time>2026-04-04T14:29:38.977Z</time></trkpt><trkpt lat="44.2893233" lon="8.4235933"><ele>16.0</ele><time>2026-04-04T14:29:39.976Z</time></trkpt><trkpt lat="44.289255" lon="8.4237933"><ele>16.0</ele><time>2026-04-04T14:29:40.976Z</time></trkpt><trkpt lat="44.2891867" lon="8.4239883"><ele>16.0</ele><time>2026-04-04T14:29:41.977Z</time></trkpt><trkpt lat="44.2891117" lon="8.424175"><ele>16.0</ele><time>2026-04-04T14:29:42.977Z</time></trkpt><trkpt lat="44.289035" lon="8.4243567"><ele>16.0</ele><time>2026-04-04T14:29:43.976Z</time></trkpt><trkpt lat="44.2889683" lon="8.4245233"><ele>16.0</ele><time>2026-04-04T14:29:44.976Z</time></trkpt><trkpt lat="44.2889" lon="8.4246867"><ele>16.0</ele><time>2026-04-04T14:29:45.977Z</time></trkpt><trkpt lat="44.2888383" lon="8.424845"><ele>15.0</ele><time>2026-04-04T14:29:46.977Z</time></trkpt><trkpt lat="44.2887817" lon="8.424995"><ele>14.0</ele><time>2026-04-04T14:29:47.976Z</time></trkpt><trkpt lat="44.28873" lon="8.4251633"><ele>13.0</ele><time>2026-04-04T14:29:48.976Z</time></trkpt><trkpt lat="44.288675" lon="8.4253283"><ele>12.0</ele><time>2026-04-04T14:29:49.977Z</time></trkpt><trkpt lat="44.2886217" lon="8.425505"><ele>12.0</ele><time>2026-04-04T14:29:50.977Z</time></trkpt><trkpt lat="44.288575" lon="8.4256783"><ele>12.0</ele><time>2026-04-04T14:29:51.977Z</time></trkpt><trkpt lat="44.2885333" lon="8.4258433"><ele>12.0</ele><time>2026-04-04T14:29:52.977Z</time></trkpt><trkpt lat="44.2884883" lon="8.42601"><ele>12.0</ele><time>2026-04-04T14:29:53.977Z</time></trkpt><trkpt lat="44.288445" lon="8.42618"><ele>12.0</ele><time>2026-04-04T14:29:54.977Z</time></trkpt><trkpt lat="44.288405" lon="8.4263533"><ele>12.0</ele><time>2026-04-04T14:29:55.977Z</time></trkpt><trkpt lat="44.2883583" lon="8.4265383"><ele>12.0</ele><time>2026-04-04T14:29:56.977Z</time></trkpt><trkpt lat="44.2883067" lon="8.42673"><ele>12.0</ele><time>2026-04-04T14:29:57.977Z</time></trkpt><trkpt lat="44.2882567" lon="8.42692"><ele>12.0</ele><time>2026-04-04T14:29:58.976Z</time></trkpt><trkpt lat="44.2882067" lon="8.4271067"><ele>12.0</ele><time>2026-04-04T14:29:59.976Z</time></trkpt><trkpt lat="44.28816" lon="8.4272867"><ele>12.0</ele><time>2026-04-04T14:30:00.976Z</time></trkpt><trkpt lat="44.2881133" lon="8.4274683"><ele>12.0</ele><time>2026-04-04T14:30:01.977Z</time></trkpt><trkpt lat="44.2880683" lon="8.42766"><ele>11.0</ele><time>2026-04-04T14:30:02.976Z</time></trkpt><trkpt lat="44.288015" lon="8.42786"><ele>10.0</ele><time>2026-04-04T14:30:03.977Z</time></trkpt><trkpt lat="44.2879667" lon="8.4280583"><ele>9.0</ele><time>2026-04-04T14:30:04.977Z</time></trkpt><trkpt lat="44.2879183" lon="8.428265"><ele>9.0</ele><time>2026-04-04T14:30:05.977Z</time></trkpt><trkpt lat="44.2878633" lon="8.4284833"><ele>9.0</ele><time>2026-04-04T14:30:06.977Z</time></trkpt><trkpt lat="44.2878033" lon="8.42871"><ele>9.0</ele><time>2026-04-04T14:30:07.976Z</time></trkpt><trkpt lat="44.2877383" lon="8.4289367"><ele>9.333333333333334</ele><time>2026-04-04T14:30:08.977Z</time></trkpt><trkpt lat="44.2876683" lon="8.429165"><ele>9.666666666666668</ele><time>2026-04-04T14:30:09.977Z</time></trkpt><trkpt lat="44.2876067" lon="8.4293983"><ele>10.0</ele><time>2026-04-04T14:30:10.977Z</time></trkpt><trkpt lat="44.287545" lon="8.42964"><ele>10.0</ele><time>2026-04-04T14:30:11.977Z</time></trkpt><trkpt lat="44.287485" lon="8.4298917"><ele>10.0</ele><time>2026-04-04T14:30:12.977Z</time></trkpt><trkpt lat="44.2874283" lon="8.4301467"><ele>10.0</ele><time>2026-04-04T14:30:13.977Z</time></trkpt><trkpt lat="44.287365" lon="8.4303933"><ele>10.333333333333334</ele><time>2026-04-04T14:30:14.977Z</time></trkpt><trkpt lat="44.287295" lon="8.4306417"><ele>10.666666666666666</ele><time>2026-04-04T14:30:15.977Z</time></trkpt><trkpt lat="44.2872217" lon="8.43088"><ele>11.0</ele><time>2026-04-04T14:30:16.977Z</time></trkpt><trkpt lat="44.28714" lon="8.431115"><ele>10.0</ele><time>2026-04-04T14:30:17.977Z</time></trkpt><trkpt lat="44.2870433" lon="8.4313333"><ele>9.0</ele><time>2026-04-04T14:30:18.976Z</time></trkpt><trkpt lat="44.28693" lon="8.4315367"><ele>8.0</ele><time>2026-04-04T14:30:19.976Z</time></trkpt><trkpt lat="44.28682" lon="8.431735"><ele>8.0</ele><time>2026-04-04T14:30:20.977Z</time></trkpt><trkpt lat="44.2867167" lon="8.43193"><ele>8.0</ele><time>2026-04-04T14:30:21.977Z</time></trkpt><trkpt lat="44.2866183" lon="8.4321167"><ele>8.0</ele><time>2026-04-04T14:30:22.977Z</time></trkpt><trkpt lat="44.2865283" lon="8.4322917"><ele>8.0</ele><time>2026-04-04T14:30:23.977Z</time></trkpt><trkpt lat="44.2864433" lon="8.43245"><ele>8.0</ele><time>2026-04-04T14:30:24.976Z</time></trkpt><trkpt lat="44.2863633" lon="8.4325933"><ele>8.0</ele><time>2026-04-04T14:30:25.977Z</time></trkpt><trkpt lat="44.28629" lon="8.4327183"><ele>8.0</ele><time>2026-04-04T14:30:26.977Z</time></trkpt><trkpt lat="44.28622" lon="8.4328233"><ele>8.0</ele><time>2026-04-04T14:30:27.977Z</time></trkpt><trkpt lat="44.2861533" lon="8.4329067"><ele>8.0</ele><time>2026-04-04T14:30:28.977Z</time></trkpt><trkpt lat="44.2860833" lon="8.432965"><ele>8.0</ele><time>2026-04-04T14:30:29.977Z</time></trkpt><trkpt lat="44.28602" lon="8.4329933"><ele>8.0</ele><time>2026-04-04T14:30:30.977Z</time></trkpt><trkpt lat="44.2859017" lon="8.4329317"><ele>8.0</ele><time>2026-04-04T14:30:32.976Z</time></trkpt><trkpt lat="44.2858567" lon="8.4328267"><ele>7.999999999999999</ele><time>2026-04-04T14:30:33.977Z</time></trkpt><trkpt lat="44.2858067" lon="8.4327133"><ele>8.0</ele><time>2026-04-04T14:30:34.977Z</time></trkpt><trkpt lat="44.2857567" lon="8.4326133"><ele>8.0</ele><time>2026-04-04T14:30:35.977Z</time></trkpt><trkpt lat="44.285705" lon="8.4325283"><ele>8.0</ele><time>2026-04-04T14:30:36.977Z</time></trkpt><trkpt lat="44.2856517" lon="8.43247"><ele>7.999999999999999</ele><time>2026-04-04T14:30:37.977Z</time></trkpt><trkpt lat="44.285535" lon="8.4324717"><ele>8.0</ele><time>2026-04-04T14:30:39.976Z</time></trkpt><trkpt lat="44.2854632" lon="8.4325135"><ele>8.0</ele><time>2026-04-04T14:30:40.977Z</time></trkpt><trkpt lat="44.2853874" lon="8.4326064"><ele>8.0</ele><time>2026-04-04T14:30:41.977Z</time></trkpt><trkpt lat="44.2853016" lon="8.4327475"><ele>8.0</ele><time>2026-04-04T14:30:42.977Z</time></trkpt><trkpt lat="44.285199" lon="8.432907"><ele>8.0</ele><time>2026-04-04T14:30:43.977Z</time></trkpt><trkpt lat="44.2850909" lon="8.4330659"><ele>8.0</ele><time>2026-04-04T14:30:44.977Z</time></trkpt><trkpt lat="44.284977" lon="8.4332273"><ele>8.0</ele><time>2026-04-04T14:30:45.977Z</time></trkpt><trkpt lat="44.2848531" lon="8.4333947"><ele>8.0</ele><time>2026-04-04T14:30:46.977Z</time></trkpt><trkpt lat="44.2847228" lon="8.4335679"><ele>8.0</ele><time>2026-04-04T14:30:47.977Z</time></trkpt><trkpt lat="44.2845882" lon="8.4337419"><ele>8.0</ele><time>2026-04-04T14:30:48.977Z</time></trkpt><trkpt lat="44.2844681" lon="8.4339074"><ele>8.0</ele><time>2026-04-04T14:30:49.977Z</time></trkpt><trkpt lat="44.2843544" lon="8.4340704"><ele>7.5</ele><time>2026-04-04T14:30:50.977Z</time></trkpt><trkpt lat="44.2842553" lon="8.4342319"><ele>7.0</ele><time>2026-04-04T14:30:51.976Z</time></trkpt><trkpt lat="44.2841681" lon="8.4343838"><ele>6.5</ele><time>2026-04-04T14:30:52.977Z</time></trkpt><trkpt lat="44.2840853" lon="8.4345184"><ele>6.0</ele><time>2026-04-04T14:30:53.976Z</time></trkpt><trkpt lat="44.2840161" lon="8.4346382"><ele>5.833333333333333</ele><time>2026-04-04T14:30:54.977Z</time></trkpt><trkpt lat="44.2839472" lon="8.4347571"><ele>5.666666666666667</ele><time>2026-04-04T14:30:55.977Z</time></trkpt><trkpt lat="44.283891" lon="8.4348559"><ele>5.5</ele><time>2026-04-04T14:30:56.977Z</time></trkpt><trkpt lat="44.2838479" lon="8.434928"><ele>5.333333333333334</ele><time>2026-04-04T14:30:57.977Z</time></trkpt><trkpt lat="44.2838007" lon="8.4349867"><ele>5.166666666666667</ele><time>2026-04-04T14:30:58.977Z</time></trkpt><trkpt lat="44.2837098" lon="8.435018"><ele>5.0</ele><time>2026-04-04T14:31:00.977Z</time></trkpt><trkpt lat="44.283604" lon="8.4348834"><ele>5.25</ele><time>2026-04-04T14:31:02.977Z</time></trkpt><trkpt lat="44.2835355" lon="8.4347656"><ele>5.5</ele><time>2026-04-04T14:31:03.977Z</time></trkpt><trkpt lat="44.283452" lon="8.4346079"><ele>5.75</ele><time>2026-04-04T14:31:04.977Z</time></trkpt><trkpt lat="44.2834173" lon="8.4344305"><ele>6.0</ele><time>2026-04-04T14:31:05.976Z</time></trkpt><trkpt lat="44.2833633" lon="8.4342651"><ele>6.0</ele><time>2026-04-04T14:31:06.977Z</time></trkpt><trkpt lat="44.2833068" lon="8.4341242"><ele>6.0</ele><time>2026-04-04T14:31:07.977Z</time></trkpt><trkpt lat="44.2832528" lon="8.4340108"><ele>6.0</ele><time>2026-04-04T14:31:08.977Z</time></trkpt><trkpt lat="44.2831998" lon="8.4339288"><ele>6.0</ele><time>2026-04-04T14:31:09.976Z</time></trkpt><trkpt lat="44.2831451" lon="8.4338599"><ele>6.0</ele><time>2026-04-04T14:31:10.977Z</time></trkpt><trkpt lat="44.2830852" lon="8.4337951"><ele>6.0</ele><time>2026-04-04T14:31:11.976Z</time></trkpt><trkpt lat="44.283014" lon="8.433723"><ele>6.4</ele><time>2026-04-04T14:31:12.977Z</time></trkpt><trkpt lat="44.2829365" lon="8.4336335"><ele>6.8</ele><time>2026-04-04T14:31:13.976Z</time></trkpt><trkpt lat="44.2828557" lon="8.4335406"><ele>7.200000000000001</ele><time>2026-04-04T14:31:14.977Z</time></trkpt><trkpt lat="44.2827776" lon="8.4334545"><ele>7.6000000000000005</ele><time>2026-04-04T14:31:15.977Z</time></trkpt><trkpt lat="44.2827169" lon="8.4333817"><ele>8.0</ele><time>2026-04-04T14:31:16.977Z</time></trkpt><trkpt lat="44.2826289" lon="8.433292"><ele>8.0</ele><time>2026-04-04T14:31:18.976Z</time></trkpt><trkpt lat="44.2825636" lon="8.4333107"><ele>8.0</ele><time>2026-04-04T14:31:20.976Z</time></trkpt><trkpt lat="44.282473" lon="8.4333978"><ele>8.0</ele><time>2026-04-04T14:31:22.977Z</time></trkpt><trkpt lat="44.282384" lon="8.4334739"><ele>8.0</ele><time>2026-04-04T14:31:24.977Z</time></trkpt><trkpt lat="44.2823423" lon="8.4335751"><ele>8.0</ele><time>2026-04-04T14:31:27.977Z</time></trkpt><trkpt lat="44.2824036" lon="8.4336529"><ele>8.0</ele><time>2026-04-04T14:31:30.976Z</time></trkpt></trkseg></trk></gpx>